<?xml version="1.0" encoding="UTF-8" standalone="no" ?>
<gpx xmlns="http://www.topografix.com/GPX/1/1" xmlns:xsi="http://www.w3.org/2001/XMLSchema-instance" xsi:schemaLocation="http://www.topografix.com/GPX/1/1 http://www.topografix.com/GPX/1/1/gpx.xsd" version="1.1" creator="VisuGPX - https://www.visugpx.com">
  <metadata>
    <name>Nez de Boeuf_72 km_2024</name>
  </metadata>
  <trk>
    <name><![CDATA[Maisse Cyclisme]]></name>
    <trkseg>
      <trkpt lat="48.38286" lon="2.37857">
        <ele>74.599998474121</ele>
        <time>2024-04-14T06:09:17.000Z</time>
      </trkpt>
      <trkpt lat="48.38261" lon="2.37851">
        <ele>72.400001525879</ele>
        <time>2024-04-14T06:09:22.000Z</time>
      </trkpt>
      <trkpt lat="48.38245" lon="2.37847">
        <ele>72.599998474121</ele>
        <time>2024-04-14T06:09:25.000Z</time>
      </trkpt>
      <trkpt lat="48.38206" lon="2.37838">
        <ele>72.599998474121</ele>
        <time>2024-04-14T06:09:32.000Z</time>
      </trkpt>
      <trkpt lat="48.38165" lon="2.37819">
        <ele>72.400001525879</ele>
        <time>2024-04-14T06:09:39.000Z</time>
      </trkpt>
      <trkpt lat="48.38128" lon="2.37793">
        <ele>73.400001525879</ele>
        <time>2024-04-14T06:09:46.000Z</time>
      </trkpt>
      <trkpt lat="48.38118" lon="2.37786">
        <ele>74.800003051758</ele>
        <time>2024-04-14T06:09:48.000Z</time>
      </trkpt>
      <trkpt lat="48.38104" lon="2.37778">
        <ele>76</ele>
        <time>2024-04-14T06:09:51.000Z</time>
      </trkpt>
      <trkpt lat="48.381" lon="2.37776">
        <ele>76.199996948242</ele>
        <time>2024-04-14T06:09:52.000Z</time>
      </trkpt>
      <trkpt lat="48.38082" lon="2.37772">
        <ele>77</ele>
        <time>2024-04-14T06:09:56.000Z</time>
      </trkpt>
      <trkpt lat="48.38078" lon="2.3777">
        <ele>77.400001525879</ele>
        <time>2024-04-14T06:09:57.000Z</time>
      </trkpt>
      <trkpt lat="48.38069" lon="2.37767">
        <ele>77.400001525879</ele>
        <time>2024-04-14T06:09:59.000Z</time>
      </trkpt>
      <trkpt lat="48.38037" lon="2.37758">
        <ele>77.599998474121</ele>
        <time>2024-04-14T06:10:05.000Z</time>
      </trkpt>
      <trkpt lat="48.38002" lon="2.37752">
        <ele>78</ele>
        <time>2024-04-14T06:10:11.000Z</time>
      </trkpt>
      <trkpt lat="48.37996" lon="2.37753">
        <ele>78.199996948242</ele>
        <time>2024-04-14T06:10:12.000Z</time>
      </trkpt>
      <trkpt lat="48.37985" lon="2.37755">
        <ele>78.400001525879</ele>
        <time>2024-04-14T06:10:14.000Z</time>
      </trkpt>
      <trkpt lat="48.37958" lon="2.37764">
        <ele>78.599998474121</ele>
        <time>2024-04-14T06:10:19.000Z</time>
      </trkpt>
      <trkpt lat="48.37924" lon="2.37772">
        <ele>77.800003051758</ele>
        <time>2024-04-14T06:10:25.000Z</time>
      </trkpt>
      <trkpt lat="48.37911" lon="2.37774">
        <ele>77.400001525879</ele>
        <time>2024-04-14T06:10:27.000Z</time>
      </trkpt>
      <trkpt lat="48.37878" lon="2.37783">
        <ele>76.599998474121</ele>
        <time>2024-04-14T06:10:32.000Z</time>
      </trkpt>
      <trkpt lat="48.37847" lon="2.37792">
        <ele>76.199996948242</ele>
        <time>2024-04-14T06:10:37.000Z</time>
      </trkpt>
      <trkpt lat="48.37833" lon="2.37795">
        <ele>76.199996948242</ele>
        <time>2024-04-14T06:10:39.000Z</time>
      </trkpt>
      <trkpt lat="48.37779" lon="2.37801">
        <ele>77</ele>
        <time>2024-04-14T06:10:47.000Z</time>
      </trkpt>
      <trkpt lat="48.37728" lon="2.37803">
        <ele>77</ele>
        <time>2024-04-14T06:10:55.000Z</time>
      </trkpt>
      <trkpt lat="48.37721" lon="2.37804">
        <ele>77</ele>
        <time>2024-04-14T06:10:56.000Z</time>
      </trkpt>
      <trkpt lat="48.37667" lon="2.37812">
        <ele>77</ele>
        <time>2024-04-14T06:11:04.000Z</time>
      </trkpt>
      <trkpt lat="48.37661" lon="2.37813">
        <ele>77</ele>
        <time>2024-04-14T06:11:05.000Z</time>
      </trkpt>
      <trkpt lat="48.37628" lon="2.37816">
        <ele>77.400001525879</ele>
        <time>2024-04-14T06:11:10.000Z</time>
      </trkpt>
      <trkpt lat="48.37616" lon="2.37818">
        <ele>77.800003051758</ele>
        <time>2024-04-14T06:11:12.000Z</time>
      </trkpt>
      <trkpt lat="48.37581" lon="2.37833">
        <ele>77.599998474121</ele>
        <time>2024-04-14T06:11:18.000Z</time>
      </trkpt>
      <trkpt lat="48.37553" lon="2.37838">
        <ele>77.599998474121</ele>
        <time>2024-04-14T06:11:23.000Z</time>
      </trkpt>
      <trkpt lat="48.37549" lon="2.37837">
        <ele>77.599998474121</ele>
        <time>2024-04-14T06:11:24.000Z</time>
      </trkpt>
      <trkpt lat="48.37543" lon="2.3783">
        <ele>78</ele>
        <time>2024-04-14T06:11:26.000Z</time>
      </trkpt>
      <trkpt lat="48.37546" lon="2.37823">
        <ele>78.599998474121</ele>
        <time>2024-04-14T06:11:28.000Z</time>
      </trkpt>
      <trkpt lat="48.37548" lon="2.37821">
        <ele>79</ele>
        <time>2024-04-14T06:11:29.000Z</time>
      </trkpt>
      <trkpt lat="48.37549" lon="2.37818">
        <ele>79.199996948242</ele>
        <time>2024-04-14T06:11:30.000Z</time>
      </trkpt>
      <trkpt lat="48.3755" lon="2.37815">
        <ele>79.800003051758</ele>
        <time>2024-04-14T06:11:31.000Z</time>
      </trkpt>
      <trkpt lat="48.37549" lon="2.37811">
        <ele>80</ele>
        <time>2024-04-14T06:11:32.000Z</time>
      </trkpt>
      <trkpt lat="48.37547" lon="2.37809">
        <ele>80.199996948242</ele>
        <time>2024-04-14T06:11:33.000Z</time>
      </trkpt>
      <trkpt lat="48.37532" lon="2.37809">
        <ele>79.800003051758</ele>
        <time>2024-04-14T06:11:37.000Z</time>
      </trkpt>
      <trkpt lat="48.37496" lon="2.37818">
        <ele>79.800003051758</ele>
        <time>2024-04-14T06:11:44.000Z</time>
      </trkpt>
      <trkpt lat="48.37452" lon="2.37828">
        <ele>79.800003051758</ele>
        <time>2024-04-14T06:11:51.000Z</time>
      </trkpt>
      <trkpt lat="48.37409" lon="2.37839">
        <ele>79.800003051758</ele>
        <time>2024-04-14T06:11:58.000Z</time>
      </trkpt>
      <trkpt lat="48.37386" lon="2.37841">
        <ele>80</ele>
        <time>2024-04-14T06:12:02.000Z</time>
      </trkpt>
      <trkpt lat="48.37381" lon="2.37837">
        <ele>80</ele>
        <time>2024-04-14T06:12:03.000Z</time>
      </trkpt>
      <trkpt lat="48.37372" lon="2.3782">
        <ele>80.800003051758</ele>
        <time>2024-04-14T06:12:06.000Z</time>
      </trkpt>
      <trkpt lat="48.3737" lon="2.37814">
        <ele>81.199996948242</ele>
        <time>2024-04-14T06:12:07.000Z</time>
      </trkpt>
      <trkpt lat="48.37368" lon="2.37804">
        <ele>81.800003051758</ele>
        <time>2024-04-14T06:12:09.000Z</time>
      </trkpt>
      <trkpt lat="48.37366" lon="2.37795">
        <ele>82.800003051758</ele>
        <time>2024-04-14T06:12:11.000Z</time>
      </trkpt>
      <trkpt lat="48.37363" lon="2.37785">
        <ele>83.400001525879</ele>
        <time>2024-04-14T06:12:13.000Z</time>
      </trkpt>
      <trkpt lat="48.37361" lon="2.37775">
        <ele>84</ele>
        <time>2024-04-14T06:12:15.000Z</time>
      </trkpt>
      <trkpt lat="48.37359" lon="2.37755">
        <ele>85.199996948242</ele>
        <time>2024-04-14T06:12:19.000Z</time>
      </trkpt>
      <trkpt lat="48.37359" lon="2.37745">
        <ele>85.800003051758</ele>
        <time>2024-04-14T06:12:21.000Z</time>
      </trkpt>
      <trkpt lat="48.37358" lon="2.37736">
        <ele>86.400001525879</ele>
        <time>2024-04-14T06:12:23.000Z</time>
      </trkpt>
      <trkpt lat="48.37357" lon="2.37718">
        <ele>87.800003051758</ele>
        <time>2024-04-14T06:12:27.000Z</time>
      </trkpt>
      <trkpt lat="48.37357" lon="2.37706">
        <ele>88.800003051758</ele>
        <time>2024-04-14T06:12:30.000Z</time>
      </trkpt>
      <trkpt lat="48.37356" lon="2.37694">
        <ele>90</ele>
        <time>2024-04-14T06:12:33.000Z</time>
      </trkpt>
      <trkpt lat="48.37357" lon="2.37687">
        <ele>91.199996948242</ele>
        <time>2024-04-14T06:12:35.000Z</time>
      </trkpt>
      <trkpt lat="48.37357" lon="2.37683">
        <ele>91.599998474121</ele>
        <time>2024-04-14T06:12:36.000Z</time>
      </trkpt>
      <trkpt lat="48.37357" lon="2.37676">
        <ele>92.400001525879</ele>
        <time>2024-04-14T06:12:38.000Z</time>
      </trkpt>
      <trkpt lat="48.37357" lon="2.37665">
        <ele>93.599998474121</ele>
        <time>2024-04-14T06:12:41.000Z</time>
      </trkpt>
      <trkpt lat="48.37357" lon="2.37659">
        <ele>94.199996948242</ele>
        <time>2024-04-14T06:12:43.000Z</time>
      </trkpt>
      <trkpt lat="48.37358" lon="2.37653">
        <ele>94.800003051758</ele>
        <time>2024-04-14T06:12:45.000Z</time>
      </trkpt>
      <trkpt lat="48.37359" lon="2.37639">
        <ele>96</ele>
        <time>2024-04-14T06:12:49.000Z</time>
      </trkpt>
      <trkpt lat="48.3736" lon="2.37632">
        <ele>96.800003051758</ele>
        <time>2024-04-14T06:12:51.000Z</time>
      </trkpt>
      <trkpt lat="48.37361" lon="2.37624">
        <ele>97.199996948242</ele>
        <time>2024-04-14T06:12:53.000Z</time>
      </trkpt>
      <trkpt lat="48.37361" lon="2.37609">
        <ele>98.400001525879</ele>
        <time>2024-04-14T06:12:57.000Z</time>
      </trkpt>
      <trkpt lat="48.37361" lon="2.37602">
        <ele>99.199996948242</ele>
        <time>2024-04-14T06:12:59.000Z</time>
      </trkpt>
      <trkpt lat="48.37361" lon="2.37599">
        <ele>99.599998474121</ele>
        <time>2024-04-14T06:13:00.000Z</time>
      </trkpt>
      <trkpt lat="48.37358" lon="2.37587">
        <ele>100.80000305176</ele>
        <time>2024-04-14T06:13:04.000Z</time>
      </trkpt>
      <trkpt lat="48.37357" lon="2.37584">
        <ele>100.80000305176</ele>
        <time>2024-04-14T06:13:05.000Z</time>
      </trkpt>
      <trkpt lat="48.37354" lon="2.37578">
        <ele>102</ele>
        <time>2024-04-14T06:13:08.000Z</time>
      </trkpt>
      <trkpt lat="48.37351" lon="2.37572">
        <ele>103.19999694824</ele>
        <time>2024-04-14T06:13:11.000Z</time>
      </trkpt>
      <trkpt lat="48.37349" lon="2.37571">
        <ele>103.59999847412</ele>
        <time>2024-04-14T06:13:12.000Z</time>
      </trkpt>
      <trkpt lat="48.37347" lon="2.37567">
        <ele>104.19999694824</ele>
        <time>2024-04-14T06:13:14.000Z</time>
      </trkpt>
      <trkpt lat="48.37343" lon="2.37564">
        <ele>105.19999694824</ele>
        <time>2024-04-14T06:13:17.000Z</time>
      </trkpt>
      <trkpt lat="48.37339" lon="2.3756">
        <ele>106.40000152588</ele>
        <time>2024-04-14T06:13:20.000Z</time>
      </trkpt>
      <trkpt lat="48.37335" lon="2.37557">
        <ele>107.59999847412</ele>
        <time>2024-04-14T06:13:23.000Z</time>
      </trkpt>
      <trkpt lat="48.37329" lon="2.37551">
        <ele>108.80000305176</ele>
        <time>2024-04-14T06:13:27.000Z</time>
      </trkpt>
      <trkpt lat="48.37328" lon="2.37549">
        <ele>109.19999694824</ele>
        <time>2024-04-14T06:13:28.000Z</time>
      </trkpt>
      <trkpt lat="48.37326" lon="2.37545">
        <ele>110</ele>
        <time>2024-04-14T06:13:30.000Z</time>
      </trkpt>
      <trkpt lat="48.37324" lon="2.37542">
        <ele>110.59999847412</ele>
        <time>2024-04-14T06:13:32.000Z</time>
      </trkpt>
      <trkpt lat="48.37323" lon="2.3754">
        <ele>111</ele>
        <time>2024-04-14T06:13:33.000Z</time>
      </trkpt>
      <trkpt lat="48.3732" lon="2.37534">
        <ele>111.80000305176</ele>
        <time>2024-04-14T06:13:36.000Z</time>
      </trkpt>
      <trkpt lat="48.37319" lon="2.37532">
        <ele>112</ele>
        <time>2024-04-14T06:13:37.000Z</time>
      </trkpt>
      <trkpt lat="48.37315" lon="2.37523">
        <ele>113.19999694824</ele>
        <time>2024-04-14T06:13:41.000Z</time>
      </trkpt>
      <trkpt lat="48.37314" lon="2.37518">
        <ele>114</ele>
        <time>2024-04-14T06:13:43.000Z</time>
      </trkpt>
      <trkpt lat="48.37315" lon="2.37515">
        <ele>114.40000152588</ele>
        <time>2024-04-14T06:13:44.000Z</time>
      </trkpt>
      <trkpt lat="48.37316" lon="2.37501">
        <ele>115.59999847412</ele>
        <time>2024-04-14T06:13:49.000Z</time>
      </trkpt>
      <trkpt lat="48.37316" lon="2.37498">
        <ele>115.80000305176</ele>
        <time>2024-04-14T06:13:50.000Z</time>
      </trkpt>
      <trkpt lat="48.37319" lon="2.37485">
        <ele>116.59999847412</ele>
        <time>2024-04-14T06:13:54.000Z</time>
      </trkpt>
      <trkpt lat="48.3732" lon="2.3747">
        <ele>117.80000305176</ele>
        <time>2024-04-14T06:13:59.000Z</time>
      </trkpt>
      <trkpt lat="48.37322" lon="2.37448">
        <ele>119.19999694824</ele>
        <time>2024-04-14T06:14:05.000Z</time>
      </trkpt>
      <trkpt lat="48.37323" lon="2.37441">
        <ele>119.80000305176</ele>
        <time>2024-04-14T06:14:07.000Z</time>
      </trkpt>
      <trkpt lat="48.37324" lon="2.37434">
        <ele>120.19999694824</ele>
        <time>2024-04-14T06:14:09.000Z</time>
      </trkpt>
      <trkpt lat="48.37325" lon="2.37418">
        <ele>121.40000152588</ele>
        <time>2024-04-14T06:14:13.000Z</time>
      </trkpt>
      <trkpt lat="48.37325" lon="2.374">
        <ele>122.40000152588</ele>
        <time>2024-04-14T06:14:18.000Z</time>
      </trkpt>
      <trkpt lat="48.37326" lon="2.37396">
        <ele>122.59999847412</ele>
        <time>2024-04-14T06:14:19.000Z</time>
      </trkpt>
      <trkpt lat="48.37329" lon="2.37387">
        <ele>123.59999847412</ele>
        <time>2024-04-14T06:14:22.000Z</time>
      </trkpt>
      <trkpt lat="48.37335" lon="2.37374">
        <ele>124.19999694824</ele>
        <time>2024-04-14T06:14:26.000Z</time>
      </trkpt>
      <trkpt lat="48.37339" lon="2.37367">
        <ele>124.59999847412</ele>
        <time>2024-04-14T06:14:28.000Z</time>
      </trkpt>
      <trkpt lat="48.3735" lon="2.37351">
        <ele>125.19999694824</ele>
        <time>2024-04-14T06:14:33.000Z</time>
      </trkpt>
      <trkpt lat="48.37357" lon="2.37342">
        <ele>126</ele>
        <time>2024-04-14T06:14:36.000Z</time>
      </trkpt>
      <trkpt lat="48.3737" lon="2.37322">
        <ele>127.59999847412</ele>
        <time>2024-04-14T06:14:42.000Z</time>
      </trkpt>
      <trkpt lat="48.37371" lon="2.37304">
        <ele>128.80000305176</ele>
        <time>2024-04-14T06:14:46.000Z</time>
      </trkpt>
      <trkpt lat="48.37371" lon="2.37299">
        <ele>128.60000610352</ele>
        <time>2024-04-14T06:14:47.000Z</time>
      </trkpt>
      <trkpt lat="48.37374" lon="2.37261">
        <ele>129.39999389648</ele>
        <time>2024-04-14T06:14:54.000Z</time>
      </trkpt>
      <trkpt lat="48.37376" lon="2.37231">
        <ele>130.19999694824</ele>
        <time>2024-04-14T06:14:59.000Z</time>
      </trkpt>
      <trkpt lat="48.37376" lon="2.37225">
        <ele>130.60000610352</ele>
        <time>2024-04-14T06:15:00.000Z</time>
      </trkpt>
      <trkpt lat="48.37381" lon="2.37168">
        <ele>131.19999694824</ele>
        <time>2024-04-14T06:15:09.000Z</time>
      </trkpt>
      <trkpt lat="48.37388" lon="2.3709">
        <ele>132</ele>
        <time>2024-04-14T06:15:20.000Z</time>
      </trkpt>
      <trkpt lat="48.3739" lon="2.37029">
        <ele>132.19999694824</ele>
        <time>2024-04-14T06:15:28.000Z</time>
      </trkpt>
      <trkpt lat="48.3739" lon="2.37021">
        <ele>132.19999694824</ele>
        <time>2024-04-14T06:15:29.000Z</time>
      </trkpt>
      <trkpt lat="48.37391" lon="2.36935">
        <ele>132.19999694824</ele>
        <time>2024-04-14T06:15:39.000Z</time>
      </trkpt>
      <trkpt lat="48.37392" lon="2.36918">
        <ele>132</ele>
        <time>2024-04-14T06:15:41.000Z</time>
      </trkpt>
      <trkpt lat="48.37393" lon="2.36839">
        <ele>131.39999389648</ele>
        <time>2024-04-14T06:15:50.000Z</time>
      </trkpt>
      <trkpt lat="48.37394" lon="2.36777">
        <ele>131.60000610352</ele>
        <time>2024-04-14T06:15:57.000Z</time>
      </trkpt>
      <trkpt lat="48.37394" lon="2.36768">
        <ele>131.60000610352</ele>
        <time>2024-04-14T06:15:58.000Z</time>
      </trkpt>
      <trkpt lat="48.37395" lon="2.36698">
        <ele>131.19999694824</ele>
        <time>2024-04-14T06:16:06.000Z</time>
      </trkpt>
      <trkpt lat="48.37398" lon="2.36612">
        <ele>131.60000610352</ele>
        <time>2024-04-14T06:16:16.000Z</time>
      </trkpt>
      <trkpt lat="48.37398" lon="2.36603">
        <ele>131.60000610352</ele>
        <time>2024-04-14T06:16:17.000Z</time>
      </trkpt>
      <trkpt lat="48.374" lon="2.36525">
        <ele>131.39999389648</ele>
        <time>2024-04-14T06:16:26.000Z</time>
      </trkpt>
      <trkpt lat="48.37401" lon="2.36455">
        <ele>131.80000305176</ele>
        <time>2024-04-14T06:16:34.000Z</time>
      </trkpt>
      <trkpt lat="48.37403" lon="2.36387">
        <ele>131.60000610352</ele>
        <time>2024-04-14T06:16:42.000Z</time>
      </trkpt>
      <trkpt lat="48.37405" lon="2.36298">
        <ele>131.60000610352</ele>
        <time>2024-04-14T06:16:52.000Z</time>
      </trkpt>
      <trkpt lat="48.37407" lon="2.36238">
        <ele>132.19999694824</ele>
        <time>2024-04-14T06:16:59.000Z</time>
      </trkpt>
      <trkpt lat="48.37408" lon="2.36222">
        <ele>131.60000610352</ele>
        <time>2024-04-14T06:17:01.000Z</time>
      </trkpt>
      <trkpt lat="48.37409" lon="2.36148">
        <ele>131.19999694824</ele>
        <time>2024-04-14T06:17:10.000Z</time>
      </trkpt>
      <trkpt lat="48.3741" lon="2.36107">
        <ele>131.39999389648</ele>
        <time>2024-04-14T06:17:16.000Z</time>
      </trkpt>
      <trkpt lat="48.37411" lon="2.36079">
        <ele>130.80000305176</ele>
        <time>2024-04-14T06:17:20.000Z</time>
      </trkpt>
      <trkpt lat="48.37411" lon="2.36064">
        <ele>130.39999389648</ele>
        <time>2024-04-14T06:17:22.000Z</time>
      </trkpt>
      <trkpt lat="48.37411" lon="2.36057">
        <ele>130</ele>
        <time>2024-04-14T06:17:23.000Z</time>
      </trkpt>
      <trkpt lat="48.37411" lon="2.36042">
        <ele>131.19999694824</ele>
        <time>2024-04-14T06:17:25.000Z</time>
      </trkpt>
      <trkpt lat="48.37412" lon="2.36001">
        <ele>131.39999389648</ele>
        <time>2024-04-14T06:17:31.000Z</time>
      </trkpt>
      <trkpt lat="48.37422" lon="2.35994">
        <ele>131.60000610352</ele>
        <time>2024-04-14T06:17:34.000Z</time>
      </trkpt>
      <trkpt lat="48.37431" lon="2.36001">
        <ele>132</ele>
        <time>2024-04-14T06:17:36.000Z</time>
      </trkpt>
      <trkpt lat="48.37436" lon="2.36005">
        <ele>132.19999694824</ele>
        <time>2024-04-14T06:17:37.000Z</time>
      </trkpt>
      <trkpt lat="48.37477" lon="2.36035">
        <ele>131.19999694824</ele>
        <time>2024-04-14T06:17:45.000Z</time>
      </trkpt>
      <trkpt lat="48.37515" lon="2.36061">
        <ele>130.80000305176</ele>
        <time>2024-04-14T06:17:52.000Z</time>
      </trkpt>
      <trkpt lat="48.37554" lon="2.36087">
        <ele>129.80000305176</ele>
        <time>2024-04-14T06:17:59.000Z</time>
      </trkpt>
      <trkpt lat="48.3756" lon="2.3609">
        <ele>129.80000305176</ele>
        <time>2024-04-14T06:18:00.000Z</time>
      </trkpt>
      <trkpt lat="48.37608" lon="2.3612">
        <ele>128.80000305176</ele>
        <time>2024-04-14T06:18:08.000Z</time>
      </trkpt>
      <trkpt lat="48.3762" lon="2.36128">
        <ele>128.60000610352</ele>
        <time>2024-04-14T06:18:10.000Z</time>
      </trkpt>
      <trkpt lat="48.37644" lon="2.36143">
        <ele>127.19999694824</ele>
        <time>2024-04-14T06:18:14.000Z</time>
      </trkpt>
      <trkpt lat="48.37661" lon="2.36153">
        <ele>126.59999847412</ele>
        <time>2024-04-14T06:18:17.000Z</time>
      </trkpt>
      <trkpt lat="48.37674" lon="2.36159">
        <ele>126.19999694824</ele>
        <time>2024-04-14T06:18:19.000Z</time>
      </trkpt>
      <trkpt lat="48.37686" lon="2.36167">
        <ele>124.80000305176</ele>
        <time>2024-04-14T06:18:21.000Z</time>
      </trkpt>
      <trkpt lat="48.37692" lon="2.36172">
        <ele>124.59999847412</ele>
        <time>2024-04-14T06:18:22.000Z</time>
      </trkpt>
      <trkpt lat="48.37703" lon="2.36183">
        <ele>124.19999694824</ele>
        <time>2024-04-14T06:18:24.000Z</time>
      </trkpt>
      <trkpt lat="48.37708" lon="2.36189">
        <ele>124</ele>
        <time>2024-04-14T06:18:25.000Z</time>
      </trkpt>
      <trkpt lat="48.37711" lon="2.36196">
        <ele>123.40000152588</ele>
        <time>2024-04-14T06:18:26.000Z</time>
      </trkpt>
      <trkpt lat="48.37712" lon="2.36203">
        <ele>123</ele>
        <time>2024-04-14T06:18:27.000Z</time>
      </trkpt>
      <trkpt lat="48.37714" lon="2.36216">
        <ele>122.40000152588</ele>
        <time>2024-04-14T06:18:29.000Z</time>
      </trkpt>
      <trkpt lat="48.37717" lon="2.36221">
        <ele>122.19999694824</ele>
        <time>2024-04-14T06:18:30.000Z</time>
      </trkpt>
      <trkpt lat="48.37719" lon="2.36226">
        <ele>121.80000305176</ele>
        <time>2024-04-14T06:18:31.000Z</time>
      </trkpt>
      <trkpt lat="48.37728" lon="2.36243">
        <ele>121</ele>
        <time>2024-04-14T06:18:34.000Z</time>
      </trkpt>
      <trkpt lat="48.37734" lon="2.36258">
        <ele>120.19999694824</ele>
        <time>2024-04-14T06:18:36.000Z</time>
      </trkpt>
      <trkpt lat="48.37737" lon="2.36267">
        <ele>118.40000152588</ele>
        <time>2024-04-14T06:18:37.000Z</time>
      </trkpt>
      <trkpt lat="48.37744" lon="2.36289">
        <ele>116.40000152588</ele>
        <time>2024-04-14T06:18:39.000Z</time>
      </trkpt>
      <trkpt lat="48.37748" lon="2.363">
        <ele>114.80000305176</ele>
        <time>2024-04-14T06:18:40.000Z</time>
      </trkpt>
      <trkpt lat="48.37752" lon="2.36312">
        <ele>113.40000152588</ele>
        <time>2024-04-14T06:18:41.000Z</time>
      </trkpt>
      <trkpt lat="48.37757" lon="2.36324">
        <ele>112.19999694824</ele>
        <time>2024-04-14T06:18:42.000Z</time>
      </trkpt>
      <trkpt lat="48.37769" lon="2.36347">
        <ele>110.59999847412</ele>
        <time>2024-04-14T06:18:44.000Z</time>
      </trkpt>
      <trkpt lat="48.37773" lon="2.36358">
        <ele>110</ele>
        <time>2024-04-14T06:18:45.000Z</time>
      </trkpt>
      <trkpt lat="48.37774" lon="2.36366">
        <ele>109</ele>
        <time>2024-04-14T06:18:46.000Z</time>
      </trkpt>
      <trkpt lat="48.37777" lon="2.36382">
        <ele>107.59999847412</ele>
        <time>2024-04-14T06:18:48.000Z</time>
      </trkpt>
      <trkpt lat="48.37782" lon="2.36396">
        <ele>107</ele>
        <time>2024-04-14T06:18:50.000Z</time>
      </trkpt>
      <trkpt lat="48.37788" lon="2.3641">
        <ele>106</ele>
        <time>2024-04-14T06:18:52.000Z</time>
      </trkpt>
      <trkpt lat="48.37791" lon="2.36418">
        <ele>105.59999847412</ele>
        <time>2024-04-14T06:18:53.000Z</time>
      </trkpt>
      <trkpt lat="48.37796" lon="2.36445">
        <ele>105.19999694824</ele>
        <time>2024-04-14T06:18:56.000Z</time>
      </trkpt>
      <trkpt lat="48.37801" lon="2.36464">
        <ele>104.80000305176</ele>
        <time>2024-04-14T06:18:58.000Z</time>
      </trkpt>
      <trkpt lat="48.37808" lon="2.36486">
        <ele>103.59999847412</ele>
        <time>2024-04-14T06:19:00.000Z</time>
      </trkpt>
      <trkpt lat="48.37813" lon="2.36497">
        <ele>102.40000152588</ele>
        <time>2024-04-14T06:19:01.000Z</time>
      </trkpt>
      <trkpt lat="48.37821" lon="2.36519">
        <ele>101.19999694824</ele>
        <time>2024-04-14T06:19:03.000Z</time>
      </trkpt>
      <trkpt lat="48.37838" lon="2.36554">
        <ele>99.599998474121</ele>
        <time>2024-04-14T06:19:06.000Z</time>
      </trkpt>
      <trkpt lat="48.37853" lon="2.36578">
        <ele>98.599998474121</ele>
        <time>2024-04-14T06:19:08.000Z</time>
      </trkpt>
      <trkpt lat="48.37869" lon="2.36601">
        <ele>97.400001525879</ele>
        <time>2024-04-14T06:19:10.000Z</time>
      </trkpt>
      <trkpt lat="48.37877" lon="2.36612">
        <ele>97.199996948242</ele>
        <time>2024-04-14T06:19:11.000Z</time>
      </trkpt>
      <trkpt lat="48.37892" lon="2.36635">
        <ele>95.599998474121</ele>
        <time>2024-04-14T06:19:13.000Z</time>
      </trkpt>
      <trkpt lat="48.37899" lon="2.36647">
        <ele>94.599998474121</ele>
        <time>2024-04-14T06:19:14.000Z</time>
      </trkpt>
      <trkpt lat="48.37904" lon="2.3666">
        <ele>94.199996948242</ele>
        <time>2024-04-14T06:19:15.000Z</time>
      </trkpt>
      <trkpt lat="48.37908" lon="2.36673">
        <ele>94.400001525879</ele>
        <time>2024-04-14T06:19:16.000Z</time>
      </trkpt>
      <trkpt lat="48.37918" lon="2.367">
        <ele>93.199996948242</ele>
        <time>2024-04-14T06:19:18.000Z</time>
      </trkpt>
      <trkpt lat="48.37933" lon="2.36753">
        <ele>92.199996948242</ele>
        <time>2024-04-14T06:19:22.000Z</time>
      </trkpt>
      <trkpt lat="48.37936" lon="2.36765">
        <ele>91.800003051758</ele>
        <time>2024-04-14T06:19:23.000Z</time>
      </trkpt>
      <trkpt lat="48.37941" lon="2.36817">
        <ele>91.199996948242</ele>
        <time>2024-04-14T06:19:27.000Z</time>
      </trkpt>
      <trkpt lat="48.37944" lon="2.36828">
        <ele>90.800003051758</ele>
        <time>2024-04-14T06:19:28.000Z</time>
      </trkpt>
      <trkpt lat="48.37946" lon="2.36839">
        <ele>90.599998474121</ele>
        <time>2024-04-14T06:19:29.000Z</time>
      </trkpt>
      <trkpt lat="48.37954" lon="2.3686">
        <ele>90.400001525879</ele>
        <time>2024-04-14T06:19:31.000Z</time>
      </trkpt>
      <trkpt lat="48.37963" lon="2.36879">
        <ele>89.400001525879</ele>
        <time>2024-04-14T06:19:33.000Z</time>
      </trkpt>
      <trkpt lat="48.37981" lon="2.36907">
        <ele>89.400001525879</ele>
        <time>2024-04-14T06:19:36.000Z</time>
      </trkpt>
      <trkpt lat="48.37994" lon="2.36921">
        <ele>89</ele>
        <time>2024-04-14T06:19:38.000Z</time>
      </trkpt>
      <trkpt lat="48.38007" lon="2.36934">
        <ele>88.400001525879</ele>
        <time>2024-04-14T06:19:40.000Z</time>
      </trkpt>
      <trkpt lat="48.38013" lon="2.36939">
        <ele>88</ele>
        <time>2024-04-14T06:19:41.000Z</time>
      </trkpt>
      <trkpt lat="48.38027" lon="2.3695">
        <ele>87.199996948242</ele>
        <time>2024-04-14T06:19:43.000Z</time>
      </trkpt>
      <trkpt lat="48.38069" lon="2.36989">
        <ele>86.599998474121</ele>
        <time>2024-04-14T06:19:49.000Z</time>
      </trkpt>
      <trkpt lat="48.38077" lon="2.36996">
        <ele>85.800003051758</ele>
        <time>2024-04-14T06:19:50.000Z</time>
      </trkpt>
      <trkpt lat="48.38103" lon="2.37016">
        <ele>84.800003051758</ele>
        <time>2024-04-14T06:19:53.000Z</time>
      </trkpt>
      <trkpt lat="48.3812" lon="2.37031">
        <ele>84</ele>
        <time>2024-04-14T06:19:55.000Z</time>
      </trkpt>
      <trkpt lat="48.38135" lon="2.37047">
        <ele>84</ele>
        <time>2024-04-14T06:19:57.000Z</time>
      </trkpt>
      <trkpt lat="48.38143" lon="2.37054">
        <ele>83.800003051758</ele>
        <time>2024-04-14T06:19:58.000Z</time>
      </trkpt>
      <trkpt lat="48.38163" lon="2.37079">
        <ele>83</ele>
        <time>2024-04-14T06:20:01.000Z</time>
      </trkpt>
      <trkpt lat="48.38174" lon="2.37098">
        <ele>82.199996948242</ele>
        <time>2024-04-14T06:20:03.000Z</time>
      </trkpt>
      <trkpt lat="48.38185" lon="2.37123">
        <ele>82</ele>
        <time>2024-04-14T06:20:06.000Z</time>
      </trkpt>
      <trkpt lat="48.3819" lon="2.37135">
        <ele>82.199996948242</ele>
        <time>2024-04-14T06:20:09.000Z</time>
      </trkpt>
      <trkpt lat="48.3819" lon="2.37135">
        <ele>82.199996948242</ele>
        <time>2024-04-14T06:20:10.000Z</time>
      </trkpt>
      <trkpt lat="48.38193" lon="2.37131">
        <ele>82.199996948242</ele>
        <time>2024-04-14T06:20:12.000Z</time>
      </trkpt>
      <trkpt lat="48.38198" lon="2.37132">
        <ele>82.599998474121</ele>
        <time>2024-04-14T06:20:16.000Z</time>
      </trkpt>
      <trkpt lat="48.382" lon="2.37131">
        <ele>82.599998474121</ele>
        <time>2024-04-14T06:20:17.000Z</time>
      </trkpt>
      <trkpt lat="48.38206" lon="2.37133">
        <ele>83.400001525879</ele>
        <time>2024-04-14T06:20:20.000Z</time>
      </trkpt>
      <trkpt lat="48.38212" lon="2.37134">
        <ele>85</ele>
        <time>2024-04-14T06:20:23.000Z</time>
      </trkpt>
      <trkpt lat="48.38215" lon="2.37135">
        <ele>86</ele>
        <time>2024-04-14T06:20:25.000Z</time>
      </trkpt>
      <trkpt lat="48.3822" lon="2.37137">
        <ele>87.199996948242</ele>
        <time>2024-04-14T06:20:28.000Z</time>
      </trkpt>
      <trkpt lat="48.38222" lon="2.37137">
        <ele>87.800003051758</ele>
        <time>2024-04-14T06:20:30.000Z</time>
      </trkpt>
      <trkpt lat="48.38223" lon="2.37136">
        <ele>88.199996948242</ele>
        <time>2024-04-14T06:20:31.000Z</time>
      </trkpt>
      <trkpt lat="48.38226" lon="2.37136">
        <ele>89.599998474121</ele>
        <time>2024-04-14T06:20:33.000Z</time>
      </trkpt>
      <trkpt lat="48.38229" lon="2.37136">
        <ele>91.199996948242</ele>
        <time>2024-04-14T06:20:35.000Z</time>
      </trkpt>
      <trkpt lat="48.38232" lon="2.37138">
        <ele>92.800003051758</ele>
        <time>2024-04-14T06:20:37.000Z</time>
      </trkpt>
      <trkpt lat="48.38233" lon="2.3714">
        <ele>93</ele>
        <time>2024-04-14T06:20:38.000Z</time>
      </trkpt>
      <trkpt lat="48.38238" lon="2.37141">
        <ele>94</ele>
        <time>2024-04-14T06:20:41.000Z</time>
      </trkpt>
      <trkpt lat="48.38241" lon="2.3714">
        <ele>94.599998474121</ele>
        <time>2024-04-14T06:20:43.000Z</time>
      </trkpt>
      <trkpt lat="48.38247" lon="2.3714">
        <ele>95</ele>
        <time>2024-04-14T06:20:47.000Z</time>
      </trkpt>
      <trkpt lat="48.38253" lon="2.37141">
        <ele>95.400001525879</ele>
        <time>2024-04-14T06:20:50.000Z</time>
      </trkpt>
      <trkpt lat="48.38266" lon="2.37148">
        <ele>95.599998474121</ele>
        <time>2024-04-14T06:20:56.000Z</time>
      </trkpt>
      <trkpt lat="48.38285" lon="2.37159">
        <ele>94.800003051758</ele>
        <time>2024-04-14T06:21:02.000Z</time>
      </trkpt>
      <trkpt lat="48.38311" lon="2.37178">
        <ele>95</ele>
        <time>2024-04-14T06:21:09.000Z</time>
      </trkpt>
      <trkpt lat="48.38326" lon="2.37195">
        <ele>96.400001525879</ele>
        <time>2024-04-14T06:21:14.000Z</time>
      </trkpt>
      <trkpt lat="48.38329" lon="2.37199">
        <ele>96.800003051758</ele>
        <time>2024-04-14T06:21:15.000Z</time>
      </trkpt>
      <trkpt lat="48.3833" lon="2.37203">
        <ele>97.599998474121</ele>
        <time>2024-04-14T06:21:16.000Z</time>
      </trkpt>
      <trkpt lat="48.38335" lon="2.37208">
        <ele>98.199996948242</ele>
        <time>2024-04-14T06:21:18.000Z</time>
      </trkpt>
      <trkpt lat="48.38342" lon="2.3721">
        <ele>98.800003051758</ele>
        <time>2024-04-14T06:21:20.000Z</time>
      </trkpt>
      <trkpt lat="48.38348" lon="2.37211">
        <ele>99.800003051758</ele>
        <time>2024-04-14T06:21:22.000Z</time>
      </trkpt>
      <trkpt lat="48.38357" lon="2.37215">
        <ele>100.40000152588</ele>
        <time>2024-04-14T06:21:25.000Z</time>
      </trkpt>
      <trkpt lat="48.38363" lon="2.37217">
        <ele>100.19999694824</ele>
        <time>2024-04-14T06:21:27.000Z</time>
      </trkpt>
      <trkpt lat="48.38375" lon="2.37214">
        <ele>101</ele>
        <time>2024-04-14T06:21:31.000Z</time>
      </trkpt>
      <trkpt lat="48.38378" lon="2.37214">
        <ele>101.19999694824</ele>
        <time>2024-04-14T06:21:32.000Z</time>
      </trkpt>
      <trkpt lat="48.38381" lon="2.37216">
        <ele>101.40000152588</ele>
        <time>2024-04-14T06:21:33.000Z</time>
      </trkpt>
      <trkpt lat="48.3839" lon="2.37227">
        <ele>101.19999694824</ele>
        <time>2024-04-14T06:21:36.000Z</time>
      </trkpt>
      <trkpt lat="48.38396" lon="2.37235">
        <ele>101.19999694824</ele>
        <time>2024-04-14T06:21:38.000Z</time>
      </trkpt>
      <trkpt lat="48.38406" lon="2.37243">
        <ele>101.40000152588</ele>
        <time>2024-04-14T06:21:41.000Z</time>
      </trkpt>
      <trkpt lat="48.38412" lon="2.37248">
        <ele>102</ele>
        <time>2024-04-14T06:21:43.000Z</time>
      </trkpt>
      <trkpt lat="48.38422" lon="2.3726">
        <ele>102.19999694824</ele>
        <time>2024-04-14T06:21:46.000Z</time>
      </trkpt>
      <trkpt lat="48.38439" lon="2.37278">
        <ele>102.19999694824</ele>
        <time>2024-04-14T06:21:52.000Z</time>
      </trkpt>
      <trkpt lat="48.38449" lon="2.37289">
        <ele>103</ele>
        <time>2024-04-14T06:21:56.000Z</time>
      </trkpt>
      <trkpt lat="48.38456" lon="2.37297">
        <ele>103.19999694824</ele>
        <time>2024-04-14T06:21:59.000Z</time>
      </trkpt>
      <trkpt lat="48.38477" lon="2.37321">
        <ele>103.19999694824</ele>
        <time>2024-04-14T06:22:06.000Z</time>
      </trkpt>
      <trkpt lat="48.38499" lon="2.37341">
        <ele>102.40000152588</ele>
        <time>2024-04-14T06:22:12.000Z</time>
      </trkpt>
      <trkpt lat="48.38503" lon="2.37344">
        <ele>101.80000305176</ele>
        <time>2024-04-14T06:22:13.000Z</time>
      </trkpt>
      <trkpt lat="48.38515" lon="2.37357">
        <ele>100.19999694824</ele>
        <time>2024-04-14T06:22:16.000Z</time>
      </trkpt>
      <trkpt lat="48.38522" lon="2.37363">
        <ele>99</ele>
        <time>2024-04-14T06:22:18.000Z</time>
      </trkpt>
      <trkpt lat="48.38537" lon="2.37374">
        <ele>100</ele>
        <time>2024-04-14T06:22:23.000Z</time>
      </trkpt>
      <trkpt lat="48.3854" lon="2.37375">
        <ele>100.19999694824</ele>
        <time>2024-04-14T06:22:24.000Z</time>
      </trkpt>
      <trkpt lat="48.38559" lon="2.37387">
        <ele>100.19999694824</ele>
        <time>2024-04-14T06:22:30.000Z</time>
      </trkpt>
      <trkpt lat="48.38589" lon="2.37411">
        <ele>99.599998474121</ele>
        <time>2024-04-14T06:22:38.000Z</time>
      </trkpt>
      <trkpt lat="48.38606" lon="2.37421">
        <ele>100</ele>
        <time>2024-04-14T06:22:44.000Z</time>
      </trkpt>
      <trkpt lat="48.38609" lon="2.37416">
        <ele>100.80000305176</ele>
        <time>2024-04-14T06:22:47.000Z</time>
      </trkpt>
      <trkpt lat="48.38608" lon="2.37413">
        <ele>100.80000305176</ele>
        <time>2024-04-14T06:22:48.000Z</time>
      </trkpt>
      <trkpt lat="48.38608" lon="2.3741">
        <ele>101.19999694824</ele>
        <time>2024-04-14T06:22:49.000Z</time>
      </trkpt>
      <trkpt lat="48.38608" lon="2.37404">
        <ele>102.19999694824</ele>
        <time>2024-04-14T06:22:51.000Z</time>
      </trkpt>
      <trkpt lat="48.38607" lon="2.374">
        <ele>103</ele>
        <time>2024-04-14T06:22:53.000Z</time>
      </trkpt>
      <trkpt lat="48.38606" lon="2.37396">
        <ele>103.59999847412</ele>
        <time>2024-04-14T06:22:55.000Z</time>
      </trkpt>
      <trkpt lat="48.38604" lon="2.37388">
        <ele>104.80000305176</ele>
        <time>2024-04-14T06:22:59.000Z</time>
      </trkpt>
      <trkpt lat="48.38603" lon="2.37385">
        <ele>106.19999694824</ele>
        <time>2024-04-14T06:23:01.000Z</time>
      </trkpt>
      <trkpt lat="48.38601" lon="2.37383">
        <ele>107.40000152588</ele>
        <time>2024-04-14T06:23:04.000Z</time>
      </trkpt>
      <trkpt lat="48.386" lon="2.37383">
        <ele>108</ele>
        <time>2024-04-14T06:23:06.000Z</time>
      </trkpt>
      <trkpt lat="48.38599" lon="2.37379">
        <ele>108.59999847412</ele>
        <time>2024-04-14T06:23:08.000Z</time>
      </trkpt>
      <trkpt lat="48.38598" lon="2.37373">
        <ele>110</ele>
        <time>2024-04-14T06:23:11.000Z</time>
      </trkpt>
      <trkpt lat="48.38597" lon="2.37369">
        <ele>111.19999694824</ele>
        <time>2024-04-14T06:23:14.000Z</time>
      </trkpt>
      <trkpt lat="48.38597" lon="2.37364">
        <ele>112.40000152588</ele>
        <time>2024-04-14T06:23:17.000Z</time>
      </trkpt>
      <trkpt lat="48.38597" lon="2.37359">
        <ele>113.59999847412</ele>
        <time>2024-04-14T06:23:20.000Z</time>
      </trkpt>
      <trkpt lat="48.38597" lon="2.37353">
        <ele>114.59999847412</ele>
        <time>2024-04-14T06:23:23.000Z</time>
      </trkpt>
      <trkpt lat="48.38597" lon="2.37349">
        <ele>115.80000305176</ele>
        <time>2024-04-14T06:23:25.000Z</time>
      </trkpt>
      <trkpt lat="48.38596" lon="2.37341">
        <ele>116.80000305176</ele>
        <time>2024-04-14T06:23:29.000Z</time>
      </trkpt>
      <trkpt lat="48.38594" lon="2.37336">
        <ele>117</ele>
        <time>2024-04-14T06:23:31.000Z</time>
      </trkpt>
      <trkpt lat="48.38593" lon="2.37332">
        <ele>118.19999694824</ele>
        <time>2024-04-14T06:23:35.000Z</time>
      </trkpt>
      <trkpt lat="48.38592" lon="2.37324">
        <ele>119</ele>
        <time>2024-04-14T06:23:38.000Z</time>
      </trkpt>
      <trkpt lat="48.38592" lon="2.37322">
        <ele>119.40000152588</ele>
        <time>2024-04-14T06:23:39.000Z</time>
      </trkpt>
      <trkpt lat="48.38589" lon="2.37304">
        <ele>120</ele>
        <time>2024-04-14T06:23:45.000Z</time>
      </trkpt>
      <trkpt lat="48.38589" lon="2.373">
        <ele>120.40000152588</ele>
        <time>2024-04-14T06:23:46.000Z</time>
      </trkpt>
      <trkpt lat="48.38591" lon="2.3728">
        <ele>121.40000152588</ele>
        <time>2024-04-14T06:23:51.000Z</time>
      </trkpt>
      <trkpt lat="48.38592" lon="2.37275">
        <ele>121.59999847412</ele>
        <time>2024-04-14T06:23:52.000Z</time>
      </trkpt>
      <trkpt lat="48.38594" lon="2.37258">
        <ele>122.59999847412</ele>
        <time>2024-04-14T06:23:56.000Z</time>
      </trkpt>
      <trkpt lat="48.38591" lon="2.37243">
        <ele>123.40000152588</ele>
        <time>2024-04-14T06:24:00.000Z</time>
      </trkpt>
      <trkpt lat="48.38591" lon="2.3724">
        <ele>123.59999847412</ele>
        <time>2024-04-14T06:24:01.000Z</time>
      </trkpt>
      <trkpt lat="48.38592" lon="2.37229">
        <ele>124.59999847412</ele>
        <time>2024-04-14T06:24:05.000Z</time>
      </trkpt>
      <trkpt lat="48.38592" lon="2.37226">
        <ele>124.80000305176</ele>
        <time>2024-04-14T06:24:06.000Z</time>
      </trkpt>
      <trkpt lat="48.38592" lon="2.37218">
        <ele>126</ele>
        <time>2024-04-14T06:24:09.000Z</time>
      </trkpt>
      <trkpt lat="48.38594" lon="2.37209">
        <ele>126.80000305176</ele>
        <time>2024-04-14T06:24:12.000Z</time>
      </trkpt>
      <trkpt lat="48.38595" lon="2.37205">
        <ele>127</ele>
        <time>2024-04-14T06:24:13.000Z</time>
      </trkpt>
      <trkpt lat="48.38604" lon="2.37184">
        <ele>128</ele>
        <time>2024-04-14T06:24:20.000Z</time>
      </trkpt>
      <trkpt lat="48.38607" lon="2.37181">
        <ele>128</ele>
        <time>2024-04-14T06:24:22.000Z</time>
      </trkpt>
      <trkpt lat="48.38617" lon="2.3717">
        <ele>128.80000305176</ele>
        <time>2024-04-14T06:24:28.000Z</time>
      </trkpt>
      <trkpt lat="48.38629" lon="2.37158">
        <ele>129</ele>
        <time>2024-04-14T06:24:35.000Z</time>
      </trkpt>
      <trkpt lat="48.38632" lon="2.37154">
        <ele>129.19999694824</ele>
        <time>2024-04-14T06:24:37.000Z</time>
      </trkpt>
      <trkpt lat="48.38637" lon="2.37143">
        <ele>129.19999694824</ele>
        <time>2024-04-14T06:24:41.000Z</time>
      </trkpt>
      <trkpt lat="48.38638" lon="2.37127">
        <ele>129.19999694824</ele>
        <time>2024-04-14T06:24:46.000Z</time>
      </trkpt>
      <trkpt lat="48.38638" lon="2.37125">
        <ele>129.39999389648</ele>
        <time>2024-04-14T06:24:47.000Z</time>
      </trkpt>
      <trkpt lat="48.3864" lon="2.37118">
        <ele>129.39999389648</ele>
        <time>2024-04-14T06:24:52.000Z</time>
      </trkpt>
      <trkpt lat="48.38639" lon="2.37086">
        <ele>129.60000610352</ele>
        <time>2024-04-14T06:24:58.000Z</time>
      </trkpt>
      <trkpt lat="48.38642" lon="2.37058">
        <ele>129.19999694824</ele>
        <time>2024-04-14T06:25:03.000Z</time>
      </trkpt>
      <trkpt lat="48.38644" lon="2.37053">
        <ele>129</ele>
        <time>2024-04-14T06:25:05.000Z</time>
      </trkpt>
      <trkpt lat="48.38645" lon="2.37053">
        <ele>129</ele>
        <time>2024-04-14T06:25:07.000Z</time>
      </trkpt>
      <trkpt lat="48.38648" lon="2.37047">
        <ele>129</ele>
        <time>2024-04-14T06:25:14.000Z</time>
      </trkpt>
      <trkpt lat="48.38646" lon="2.37023">
        <ele>128.80000305176</ele>
        <time>2024-04-14T06:25:18.000Z</time>
      </trkpt>
      <trkpt lat="48.38643" lon="2.37009">
        <ele>128.39999389648</ele>
        <time>2024-04-14T06:25:20.000Z</time>
      </trkpt>
      <trkpt lat="48.38638" lon="2.36988">
        <ele>128</ele>
        <time>2024-04-14T06:25:23.000Z</time>
      </trkpt>
      <trkpt lat="48.38633" lon="2.36966">
        <ele>127.59999847412</ele>
        <time>2024-04-14T06:25:26.000Z</time>
      </trkpt>
      <trkpt lat="48.3863" lon="2.36936">
        <ele>127</ele>
        <time>2024-04-14T06:25:30.000Z</time>
      </trkpt>
      <trkpt lat="48.38632" lon="2.36905">
        <ele>126.40000152588</ele>
        <time>2024-04-14T06:25:34.000Z</time>
      </trkpt>
      <trkpt lat="48.38633" lon="2.36896">
        <ele>126</ele>
        <time>2024-04-14T06:25:35.000Z</time>
      </trkpt>
      <trkpt lat="48.38634" lon="2.36887">
        <ele>125.59999847412</ele>
        <time>2024-04-14T06:25:36.000Z</time>
      </trkpt>
      <trkpt lat="48.38634" lon="2.36873">
        <ele>125</ele>
        <time>2024-04-14T06:25:38.000Z</time>
      </trkpt>
      <trkpt lat="48.38635" lon="2.36869">
        <ele>124.59999847412</ele>
        <time>2024-04-14T06:25:39.000Z</time>
      </trkpt>
      <trkpt lat="48.38635" lon="2.36869">
        <ele>124.19999694824</ele>
        <time>2024-04-14T06:25:41.000Z</time>
      </trkpt>
      <trkpt lat="48.38635" lon="2.36868">
        <ele>123.59999847412</ele>
        <time>2024-04-14T06:25:43.000Z</time>
      </trkpt>
      <trkpt lat="48.38637" lon="2.36872">
        <ele>122.80000305176</ele>
        <time>2024-04-14T06:25:45.000Z</time>
      </trkpt>
      <trkpt lat="48.38638" lon="2.36876">
        <ele>122.19999694824</ele>
        <time>2024-04-14T06:25:46.000Z</time>
      </trkpt>
      <trkpt lat="48.38649" lon="2.36897">
        <ele>120.80000305176</ele>
        <time>2024-04-14T06:25:49.000Z</time>
      </trkpt>
      <trkpt lat="48.38665" lon="2.3693">
        <ele>119.80000305176</ele>
        <time>2024-04-14T06:25:52.000Z</time>
      </trkpt>
      <trkpt lat="48.38676" lon="2.36954">
        <ele>118.80000305176</ele>
        <time>2024-04-14T06:25:54.000Z</time>
      </trkpt>
      <trkpt lat="48.38698" lon="2.37005">
        <ele>120.40000152588</ele>
        <time>2024-04-14T06:26:00.000Z</time>
      </trkpt>
      <trkpt lat="48.38713" lon="2.3703">
        <ele>120.40000152588</ele>
        <time>2024-04-14T06:26:04.000Z</time>
      </trkpt>
      <trkpt lat="48.38726" lon="2.37059">
        <ele>120.59999847412</ele>
        <time>2024-04-14T06:26:09.000Z</time>
      </trkpt>
      <trkpt lat="48.38731" lon="2.37076">
        <ele>121</ele>
        <time>2024-04-14T06:26:12.000Z</time>
      </trkpt>
      <trkpt lat="48.38735" lon="2.37086">
        <ele>121.80000305176</ele>
        <time>2024-04-14T06:26:14.000Z</time>
      </trkpt>
      <trkpt lat="48.38736" lon="2.3709">
        <ele>122</ele>
        <time>2024-04-14T06:26:15.000Z</time>
      </trkpt>
      <trkpt lat="48.38749" lon="2.37107">
        <ele>122.40000152588</ele>
        <time>2024-04-14T06:26:20.000Z</time>
      </trkpt>
      <trkpt lat="48.3876" lon="2.37116">
        <ele>122.19999694824</ele>
        <time>2024-04-14T06:26:25.000Z</time>
      </trkpt>
      <trkpt lat="48.38772" lon="2.37132">
        <ele>122</ele>
        <time>2024-04-14T06:26:30.000Z</time>
      </trkpt>
      <trkpt lat="48.38781" lon="2.37156">
        <ele>121.40000152588</ele>
        <time>2024-04-14T06:26:35.000Z</time>
      </trkpt>
      <trkpt lat="48.38782" lon="2.3717">
        <ele>122.19999694824</ele>
        <time>2024-04-14T06:26:39.000Z</time>
      </trkpt>
      <trkpt lat="48.38781" lon="2.37194">
        <ele>122</ele>
        <time>2024-04-14T06:26:44.000Z</time>
      </trkpt>
      <trkpt lat="48.38781" lon="2.37218">
        <ele>122</ele>
        <time>2024-04-14T06:26:49.000Z</time>
      </trkpt>
      <trkpt lat="48.38776" lon="2.37225">
        <ele>123.19999694824</ele>
        <time>2024-04-14T06:26:52.000Z</time>
      </trkpt>
      <trkpt lat="48.38774" lon="2.37227">
        <ele>123.80000305176</ele>
        <time>2024-04-14T06:26:53.000Z</time>
      </trkpt>
      <trkpt lat="48.38771" lon="2.37229">
        <ele>124.40000152588</ele>
        <time>2024-04-14T06:26:54.000Z</time>
      </trkpt>
      <trkpt lat="48.38766" lon="2.3723">
        <ele>125.59999847412</ele>
        <time>2024-04-14T06:26:56.000Z</time>
      </trkpt>
      <trkpt lat="48.38762" lon="2.37231">
        <ele>126.80000305176</ele>
        <time>2024-04-14T06:26:58.000Z</time>
      </trkpt>
      <trkpt lat="48.3876" lon="2.3723">
        <ele>127.19999694824</ele>
        <time>2024-04-14T06:26:59.000Z</time>
      </trkpt>
      <trkpt lat="48.38758" lon="2.37231">
        <ele>128</ele>
        <time>2024-04-14T06:27:00.000Z</time>
      </trkpt>
      <trkpt lat="48.38742" lon="2.37238">
        <ele>128.39999389648</ele>
        <time>2024-04-14T06:27:05.000Z</time>
      </trkpt>
      <trkpt lat="48.38717" lon="2.37246">
        <ele>128.39999389648</ele>
        <time>2024-04-14T06:27:11.000Z</time>
      </trkpt>
      <trkpt lat="48.38677" lon="2.37256">
        <ele>128</ele>
        <time>2024-04-14T06:27:19.000Z</time>
      </trkpt>
      <trkpt lat="48.38653" lon="2.37265">
        <ele>127.40000152588</ele>
        <time>2024-04-14T06:27:24.000Z</time>
      </trkpt>
      <trkpt lat="48.38648" lon="2.37269">
        <ele>127.40000152588</ele>
        <time>2024-04-14T06:27:25.000Z</time>
      </trkpt>
      <trkpt lat="48.38645" lon="2.37274">
        <ele>126.80000305176</ele>
        <time>2024-04-14T06:27:26.000Z</time>
      </trkpt>
      <trkpt lat="48.38646" lon="2.37281">
        <ele>125.40000152588</ele>
        <time>2024-04-14T06:27:28.000Z</time>
      </trkpt>
      <trkpt lat="48.3865" lon="2.37299">
        <ele>125.40000152588</ele>
        <time>2024-04-14T06:27:32.000Z</time>
      </trkpt>
      <trkpt lat="48.38652" lon="2.37309">
        <ele>125.40000152588</ele>
        <time>2024-04-14T06:27:34.000Z</time>
      </trkpt>
      <trkpt lat="48.38666" lon="2.3735">
        <ele>124.19999694824</ele>
        <time>2024-04-14T06:27:41.000Z</time>
      </trkpt>
      <trkpt lat="48.38671" lon="2.37357">
        <ele>123.59999847412</ele>
        <time>2024-04-14T06:27:43.000Z</time>
      </trkpt>
      <trkpt lat="48.38675" lon="2.37358">
        <ele>123</ele>
        <time>2024-04-14T06:27:44.000Z</time>
      </trkpt>
      <trkpt lat="48.38679" lon="2.37358">
        <ele>121.59999847412</ele>
        <time>2024-04-14T06:27:45.000Z</time>
      </trkpt>
      <trkpt lat="48.38684" lon="2.37359">
        <ele>120</ele>
        <time>2024-04-14T06:27:46.000Z</time>
      </trkpt>
      <trkpt lat="48.38688" lon="2.37361">
        <ele>118.59999847412</ele>
        <time>2024-04-14T06:27:47.000Z</time>
      </trkpt>
      <trkpt lat="48.38691" lon="2.37365">
        <ele>118</ele>
        <time>2024-04-14T06:27:48.000Z</time>
      </trkpt>
      <trkpt lat="48.38699" lon="2.37381">
        <ele>118.19999694824</ele>
        <time>2024-04-14T06:27:52.000Z</time>
      </trkpt>
      <trkpt lat="48.38704" lon="2.37392">
        <ele>118.19999694824</ele>
        <time>2024-04-14T06:27:56.000Z</time>
      </trkpt>
      <trkpt lat="48.38704" lon="2.37391">
        <ele>118.19999694824</ele>
        <time>2024-04-14T06:27:57.000Z</time>
      </trkpt>
      <trkpt lat="48.38706" lon="2.37393">
        <ele>118.19999694824</ele>
        <time>2024-04-14T06:28:03.000Z</time>
      </trkpt>
      <trkpt lat="48.38706" lon="2.37394">
        <ele>118.19999694824</ele>
        <time>2024-04-14T06:28:10.000Z</time>
      </trkpt>
      <trkpt lat="48.38706" lon="2.37394">
        <ele>118.80000305176</ele>
        <time>2024-04-14T06:28:18.000Z</time>
      </trkpt>
      <trkpt lat="48.38706" lon="2.37394">
        <ele>120</ele>
        <time>2024-04-14T06:28:20.000Z</time>
      </trkpt>
      <trkpt lat="48.38711" lon="2.37398">
        <ele>121.59999847412</ele>
        <time>2024-04-14T06:28:22.000Z</time>
      </trkpt>
      <trkpt lat="48.38718" lon="2.37399">
        <ele>122.59999847412</ele>
        <time>2024-04-14T06:28:24.000Z</time>
      </trkpt>
      <trkpt lat="48.38723" lon="2.37401">
        <ele>123.40000152588</ele>
        <time>2024-04-14T06:28:26.000Z</time>
      </trkpt>
      <trkpt lat="48.38725" lon="2.37403">
        <ele>123.59999847412</ele>
        <time>2024-04-14T06:28:27.000Z</time>
      </trkpt>
      <trkpt lat="48.38735" lon="2.37416">
        <ele>123.40000152588</ele>
        <time>2024-04-14T06:28:31.000Z</time>
      </trkpt>
      <trkpt lat="48.38751" lon="2.3743">
        <ele>122.59999847412</ele>
        <time>2024-04-14T06:28:36.000Z</time>
      </trkpt>
      <trkpt lat="48.38755" lon="2.37433">
        <ele>122.59999847412</ele>
        <time>2024-04-14T06:28:37.000Z</time>
      </trkpt>
      <trkpt lat="48.38766" lon="2.37444">
        <ele>121.40000152588</ele>
        <time>2024-04-14T06:28:41.000Z</time>
      </trkpt>
      <trkpt lat="48.38769" lon="2.37446">
        <ele>120</ele>
        <time>2024-04-14T06:28:42.000Z</time>
      </trkpt>
      <trkpt lat="48.38771" lon="2.37447">
        <ele>119</ele>
        <time>2024-04-14T06:28:43.000Z</time>
      </trkpt>
      <trkpt lat="48.38774" lon="2.37448">
        <ele>117.80000305176</ele>
        <time>2024-04-14T06:28:44.000Z</time>
      </trkpt>
      <trkpt lat="48.38776" lon="2.37446">
        <ele>117</ele>
        <time>2024-04-14T06:28:45.000Z</time>
      </trkpt>
      <trkpt lat="48.38778" lon="2.37443">
        <ele>116.40000152588</ele>
        <time>2024-04-14T06:28:46.000Z</time>
      </trkpt>
      <trkpt lat="48.38792" lon="2.37434">
        <ele>116.19999694824</ele>
        <time>2024-04-14T06:28:50.000Z</time>
      </trkpt>
      <trkpt lat="48.38796" lon="2.3743">
        <ele>118</ele>
        <time>2024-04-14T06:28:52.000Z</time>
      </trkpt>
      <trkpt lat="48.38798" lon="2.37428">
        <ele>118.80000305176</ele>
        <time>2024-04-14T06:28:54.000Z</time>
      </trkpt>
      <trkpt lat="48.38799" lon="2.37429">
        <ele>118.80000305176</ele>
        <time>2024-04-14T06:29:00.000Z</time>
      </trkpt>
      <trkpt lat="48.38799" lon="2.37429">
        <ele>119</ele>
        <time>2024-04-14T06:29:02.000Z</time>
      </trkpt>
      <trkpt lat="48.38803" lon="2.37426">
        <ele>118.80000305176</ele>
        <time>2024-04-14T06:29:06.000Z</time>
      </trkpt>
      <trkpt lat="48.38811" lon="2.3742">
        <ele>117.59999847412</ele>
        <time>2024-04-14T06:29:11.000Z</time>
      </trkpt>
      <trkpt lat="48.38814" lon="2.37417">
        <ele>116.59999847412</ele>
        <time>2024-04-14T06:29:12.000Z</time>
      </trkpt>
      <trkpt lat="48.38817" lon="2.37414">
        <ele>115.40000152588</ele>
        <time>2024-04-14T06:29:13.000Z</time>
      </trkpt>
      <trkpt lat="48.38819" lon="2.37408">
        <ele>114.40000152588</ele>
        <time>2024-04-14T06:29:15.000Z</time>
      </trkpt>
      <trkpt lat="48.3882" lon="2.374">
        <ele>114</ele>
        <time>2024-04-14T06:29:17.000Z</time>
      </trkpt>
      <trkpt lat="48.3882" lon="2.37389">
        <ele>112.59999847412</ele>
        <time>2024-04-14T06:29:19.000Z</time>
      </trkpt>
      <trkpt lat="48.38822" lon="2.37376">
        <ele>111.40000152588</ele>
        <time>2024-04-14T06:29:21.000Z</time>
      </trkpt>
      <trkpt lat="48.38824" lon="2.37371">
        <ele>110.80000305176</ele>
        <time>2024-04-14T06:29:22.000Z</time>
      </trkpt>
      <trkpt lat="48.38826" lon="2.37366">
        <ele>110.19999694824</ele>
        <time>2024-04-14T06:29:23.000Z</time>
      </trkpt>
      <trkpt lat="48.38834" lon="2.37351">
        <ele>108.19999694824</ele>
        <time>2024-04-14T06:29:26.000Z</time>
      </trkpt>
      <trkpt lat="48.38838" lon="2.3734">
        <ele>107</ele>
        <time>2024-04-14T06:29:28.000Z</time>
      </trkpt>
      <trkpt lat="48.38838" lon="2.37319">
        <ele>106.80000305176</ele>
        <time>2024-04-14T06:29:32.000Z</time>
      </trkpt>
      <trkpt lat="48.38837" lon="2.37304">
        <ele>108</ele>
        <time>2024-04-14T06:29:35.000Z</time>
      </trkpt>
      <trkpt lat="48.38835" lon="2.37295">
        <ele>108.40000152588</ele>
        <time>2024-04-14T06:29:37.000Z</time>
      </trkpt>
      <trkpt lat="48.38834" lon="2.37289">
        <ele>109.59999847412</ele>
        <time>2024-04-14T06:29:39.000Z</time>
      </trkpt>
      <trkpt lat="48.38831" lon="2.37284">
        <ele>110.80000305176</ele>
        <time>2024-04-14T06:29:41.000Z</time>
      </trkpt>
      <trkpt lat="48.3883" lon="2.37281">
        <ele>111.19999694824</ele>
        <time>2024-04-14T06:29:42.000Z</time>
      </trkpt>
      <trkpt lat="48.38827" lon="2.37275">
        <ele>112</ele>
        <time>2024-04-14T06:29:44.000Z</time>
      </trkpt>
      <trkpt lat="48.38825" lon="2.37267">
        <ele>113.40000152588</ele>
        <time>2024-04-14T06:29:47.000Z</time>
      </trkpt>
      <trkpt lat="48.38824" lon="2.37261">
        <ele>113.19999694824</ele>
        <time>2024-04-14T06:29:49.000Z</time>
      </trkpt>
      <trkpt lat="48.38823" lon="2.37252">
        <ele>112</ele>
        <time>2024-04-14T06:29:51.000Z</time>
      </trkpt>
      <trkpt lat="48.38825" lon="2.37244">
        <ele>110.40000152588</ele>
        <time>2024-04-14T06:29:53.000Z</time>
      </trkpt>
      <trkpt lat="48.38826" lon="2.3724">
        <ele>109.19999694824</ele>
        <time>2024-04-14T06:29:54.000Z</time>
      </trkpt>
      <trkpt lat="48.3883" lon="2.37236">
        <ele>107.80000305176</ele>
        <time>2024-04-14T06:29:55.000Z</time>
      </trkpt>
      <trkpt lat="48.38833" lon="2.37233">
        <ele>106.19999694824</ele>
        <time>2024-04-14T06:29:56.000Z</time>
      </trkpt>
      <trkpt lat="48.38837" lon="2.3723">
        <ele>104.40000152588</ele>
        <time>2024-04-14T06:29:57.000Z</time>
      </trkpt>
      <trkpt lat="48.3884" lon="2.37227">
        <ele>102.80000305176</ele>
        <time>2024-04-14T06:29:58.000Z</time>
      </trkpt>
      <trkpt lat="48.38843" lon="2.37225">
        <ele>101</ele>
        <time>2024-04-14T06:29:59.000Z</time>
      </trkpt>
      <trkpt lat="48.38847" lon="2.37223">
        <ele>99.599998474121</ele>
        <time>2024-04-14T06:30:00.000Z</time>
      </trkpt>
      <trkpt lat="48.3885" lon="2.37221">
        <ele>98.599998474121</ele>
        <time>2024-04-14T06:30:01.000Z</time>
      </trkpt>
      <trkpt lat="48.38855" lon="2.37217">
        <ele>97</ele>
        <time>2024-04-14T06:30:03.000Z</time>
      </trkpt>
      <trkpt lat="48.38855" lon="2.37213">
        <ele>96.599998474121</ele>
        <time>2024-04-14T06:30:04.000Z</time>
      </trkpt>
      <trkpt lat="48.38856" lon="2.37209">
        <ele>96.599998474121</ele>
        <time>2024-04-14T06:30:07.000Z</time>
      </trkpt>
      <trkpt lat="48.38856" lon="2.3721">
        <ele>97</ele>
        <time>2024-04-14T06:30:08.000Z</time>
      </trkpt>
      <trkpt lat="48.38857" lon="2.37206">
        <ele>96</ele>
        <time>2024-04-14T06:30:11.000Z</time>
      </trkpt>
      <trkpt lat="48.3886" lon="2.37203">
        <ele>95</ele>
        <time>2024-04-14T06:30:12.000Z</time>
      </trkpt>
      <trkpt lat="48.38864" lon="2.37196">
        <ele>94.400001525879</ele>
        <time>2024-04-14T06:30:13.000Z</time>
      </trkpt>
      <trkpt lat="48.38864" lon="2.3718">
        <ele>94.800003051758</ele>
        <time>2024-04-14T06:30:17.000Z</time>
      </trkpt>
      <trkpt lat="48.3886" lon="2.37172">
        <ele>95</ele>
        <time>2024-04-14T06:30:19.000Z</time>
      </trkpt>
      <trkpt lat="48.38854" lon="2.37161">
        <ele>96.199996948242</ele>
        <time>2024-04-14T06:30:22.000Z</time>
      </trkpt>
      <trkpt lat="48.38839" lon="2.37139">
        <ele>97.199996948242</ele>
        <time>2024-04-14T06:30:28.000Z</time>
      </trkpt>
      <trkpt lat="48.38837" lon="2.37135">
        <ele>97.400001525879</ele>
        <time>2024-04-14T06:30:29.000Z</time>
      </trkpt>
      <trkpt lat="48.3883" lon="2.37129">
        <ele>98.400001525879</ele>
        <time>2024-04-14T06:30:31.000Z</time>
      </trkpt>
      <trkpt lat="48.38822" lon="2.37119">
        <ele>99.400001525879</ele>
        <time>2024-04-14T06:30:34.000Z</time>
      </trkpt>
      <trkpt lat="48.38809" lon="2.37103">
        <ele>100.59999847412</ele>
        <time>2024-04-14T06:30:39.000Z</time>
      </trkpt>
      <trkpt lat="48.38806" lon="2.371">
        <ele>100.80000305176</ele>
        <time>2024-04-14T06:30:40.000Z</time>
      </trkpt>
      <trkpt lat="48.38798" lon="2.37093">
        <ele>101.59999847412</ele>
        <time>2024-04-14T06:30:43.000Z</time>
      </trkpt>
      <trkpt lat="48.38786" lon="2.37081">
        <ele>102.40000152588</ele>
        <time>2024-04-14T06:30:47.000Z</time>
      </trkpt>
      <trkpt lat="48.38783" lon="2.37078">
        <ele>102.59999847412</ele>
        <time>2024-04-14T06:30:48.000Z</time>
      </trkpt>
      <trkpt lat="48.38768" lon="2.37063">
        <ele>103.80000305176</ele>
        <time>2024-04-14T06:30:53.000Z</time>
      </trkpt>
      <trkpt lat="48.38764" lon="2.37056">
        <ele>104.19999694824</ele>
        <time>2024-04-14T06:30:55.000Z</time>
      </trkpt>
      <trkpt lat="48.38763" lon="2.3705">
        <ele>104.59999847412</ele>
        <time>2024-04-14T06:30:57.000Z</time>
      </trkpt>
      <trkpt lat="48.38765" lon="2.37045">
        <ele>105</ele>
        <time>2024-04-14T06:30:59.000Z</time>
      </trkpt>
      <trkpt lat="48.38775" lon="2.37038">
        <ele>105.19999694824</ele>
        <time>2024-04-14T06:31:04.000Z</time>
      </trkpt>
      <trkpt lat="48.38786" lon="2.37033">
        <ele>103.40000152588</ele>
        <time>2024-04-14T06:31:08.000Z</time>
      </trkpt>
      <trkpt lat="48.3879" lon="2.3703">
        <ele>101.80000305176</ele>
        <time>2024-04-14T06:31:09.000Z</time>
      </trkpt>
      <trkpt lat="48.38795" lon="2.37027">
        <ele>99.800003051758</ele>
        <time>2024-04-14T06:31:10.000Z</time>
      </trkpt>
      <trkpt lat="48.38799" lon="2.37023">
        <ele>98</ele>
        <time>2024-04-14T06:31:11.000Z</time>
      </trkpt>
      <trkpt lat="48.38804" lon="2.37021">
        <ele>96.599998474121</ele>
        <time>2024-04-14T06:31:12.000Z</time>
      </trkpt>
      <trkpt lat="48.38811" lon="2.37015">
        <ele>95.199996948242</ele>
        <time>2024-04-14T06:31:14.000Z</time>
      </trkpt>
      <trkpt lat="48.38816" lon="2.37012">
        <ele>93.800003051758</ele>
        <time>2024-04-14T06:31:16.000Z</time>
      </trkpt>
      <trkpt lat="48.38822" lon="2.3701">
        <ele>92.800003051758</ele>
        <time>2024-04-14T06:31:18.000Z</time>
      </trkpt>
      <trkpt lat="48.38824" lon="2.37007">
        <ele>92.400001525879</ele>
        <time>2024-04-14T06:31:19.000Z</time>
      </trkpt>
      <trkpt lat="48.38829" lon="2.36998">
        <ele>91.199996948242</ele>
        <time>2024-04-14T06:31:22.000Z</time>
      </trkpt>
      <trkpt lat="48.3883" lon="2.36994">
        <ele>90.800003051758</ele>
        <time>2024-04-14T06:31:23.000Z</time>
      </trkpt>
      <trkpt lat="48.38833" lon="2.36984">
        <ele>90</ele>
        <time>2024-04-14T06:31:25.000Z</time>
      </trkpt>
      <trkpt lat="48.38837" lon="2.36976">
        <ele>88.599998474121</ele>
        <time>2024-04-14T06:31:27.000Z</time>
      </trkpt>
      <trkpt lat="48.38842" lon="2.36968">
        <ele>87</ele>
        <time>2024-04-14T06:31:29.000Z</time>
      </trkpt>
      <trkpt lat="48.38844" lon="2.3696">
        <ele>86.199996948242</ele>
        <time>2024-04-14T06:31:30.000Z</time>
      </trkpt>
      <trkpt lat="48.38844" lon="2.36953">
        <ele>85.599998474121</ele>
        <time>2024-04-14T06:31:31.000Z</time>
      </trkpt>
      <trkpt lat="48.38836" lon="2.36926">
        <ele>86.400001525879</ele>
        <time>2024-04-14T06:31:36.000Z</time>
      </trkpt>
      <trkpt lat="48.3883" lon="2.36918">
        <ele>86.800003051758</ele>
        <time>2024-04-14T06:31:38.000Z</time>
      </trkpt>
      <trkpt lat="48.38818" lon="2.36897">
        <ele>87.599998474121</ele>
        <time>2024-04-14T06:31:42.000Z</time>
      </trkpt>
      <trkpt lat="48.38816" lon="2.36891">
        <ele>87.800003051758</ele>
        <time>2024-04-14T06:31:43.000Z</time>
      </trkpt>
      <trkpt lat="48.38816" lon="2.36878">
        <ele>88.400001525879</ele>
        <time>2024-04-14T06:31:45.000Z</time>
      </trkpt>
      <trkpt lat="48.38818" lon="2.36872">
        <ele>88.599998474121</ele>
        <time>2024-04-14T06:31:46.000Z</time>
      </trkpt>
      <trkpt lat="48.3882" lon="2.36867">
        <ele>89</ele>
        <time>2024-04-14T06:31:47.000Z</time>
      </trkpt>
      <trkpt lat="48.38826" lon="2.36862">
        <ele>90.199996948242</ele>
        <time>2024-04-14T06:31:49.000Z</time>
      </trkpt>
      <trkpt lat="48.38828" lon="2.36859">
        <ele>91.400001525879</ele>
        <time>2024-04-14T06:31:50.000Z</time>
      </trkpt>
      <trkpt lat="48.38838" lon="2.36857">
        <ele>92.400001525879</ele>
        <time>2024-04-14T06:31:53.000Z</time>
      </trkpt>
      <trkpt lat="48.38842" lon="2.36857">
        <ele>92.199996948242</ele>
        <time>2024-04-14T06:31:54.000Z</time>
      </trkpt>
      <trkpt lat="48.38863" lon="2.36857">
        <ele>91</ele>
        <time>2024-04-14T06:31:58.000Z</time>
      </trkpt>
      <trkpt lat="48.38868" lon="2.36857">
        <ele>90.800003051758</ele>
        <time>2024-04-14T06:31:59.000Z</time>
      </trkpt>
      <trkpt lat="48.3888" lon="2.36858">
        <ele>89.800003051758</ele>
        <time>2024-04-14T06:32:01.000Z</time>
      </trkpt>
      <trkpt lat="48.38892" lon="2.36862">
        <ele>89</ele>
        <time>2024-04-14T06:32:03.000Z</time>
      </trkpt>
      <trkpt lat="48.38898" lon="2.36866">
        <ele>88.599998474121</ele>
        <time>2024-04-14T06:32:04.000Z</time>
      </trkpt>
      <trkpt lat="48.3891" lon="2.36877">
        <ele>87.599998474121</ele>
        <time>2024-04-14T06:32:06.000Z</time>
      </trkpt>
      <trkpt lat="48.3892" lon="2.36892">
        <ele>86.599998474121</ele>
        <time>2024-04-14T06:32:08.000Z</time>
      </trkpt>
      <trkpt lat="48.38927" lon="2.36911">
        <ele>86.199996948242</ele>
        <time>2024-04-14T06:32:10.000Z</time>
      </trkpt>
      <trkpt lat="48.38934" lon="2.36932">
        <ele>85.400001525879</ele>
        <time>2024-04-14T06:32:12.000Z</time>
      </trkpt>
      <trkpt lat="48.38937" lon="2.36942">
        <ele>85</ele>
        <time>2024-04-14T06:32:13.000Z</time>
      </trkpt>
      <trkpt lat="48.38945" lon="2.36962">
        <ele>83.800003051758</ele>
        <time>2024-04-14T06:32:15.000Z</time>
      </trkpt>
      <trkpt lat="48.38965" lon="2.37012">
        <ele>82.800003051758</ele>
        <time>2024-04-14T06:32:20.000Z</time>
      </trkpt>
      <trkpt lat="48.38985" lon="2.37062">
        <ele>81.400001525879</ele>
        <time>2024-04-14T06:32:25.000Z</time>
      </trkpt>
      <trkpt lat="48.38998" lon="2.37092">
        <ele>80.800003051758</ele>
        <time>2024-04-14T06:32:28.000Z</time>
      </trkpt>
      <trkpt lat="48.39011" lon="2.37124">
        <ele>80.199996948242</ele>
        <time>2024-04-14T06:32:31.000Z</time>
      </trkpt>
      <trkpt lat="48.39029" lon="2.37167">
        <ele>79.599998474121</ele>
        <time>2024-04-14T06:32:35.000Z</time>
      </trkpt>
      <trkpt lat="48.39038" lon="2.3719">
        <ele>79</ele>
        <time>2024-04-14T06:32:37.000Z</time>
      </trkpt>
      <trkpt lat="48.3906" lon="2.37245">
        <ele>78</ele>
        <time>2024-04-14T06:32:42.000Z</time>
      </trkpt>
      <trkpt lat="48.39065" lon="2.37256">
        <ele>77.800003051758</ele>
        <time>2024-04-14T06:32:43.000Z</time>
      </trkpt>
      <trkpt lat="48.391" lon="2.37327">
        <ele>77.199996948242</ele>
        <time>2024-04-14T06:32:50.000Z</time>
      </trkpt>
      <trkpt lat="48.39106" lon="2.37336">
        <ele>77.400001525879</ele>
        <time>2024-04-14T06:32:51.000Z</time>
      </trkpt>
      <trkpt lat="48.39136" lon="2.37385">
        <ele>77.400001525879</ele>
        <time>2024-04-14T06:32:57.000Z</time>
      </trkpt>
      <trkpt lat="48.3914" lon="2.37388">
        <ele>77.599998474121</ele>
        <time>2024-04-14T06:32:58.000Z</time>
      </trkpt>
      <trkpt lat="48.39155" lon="2.37377">
        <ele>77.599998474121</ele>
        <time>2024-04-14T06:33:01.000Z</time>
      </trkpt>
      <trkpt lat="48.39163" lon="2.37364">
        <ele>78.800003051758</ele>
        <time>2024-04-14T06:33:03.000Z</time>
      </trkpt>
      <trkpt lat="48.39177" lon="2.37337">
        <ele>79.800003051758</ele>
        <time>2024-04-14T06:33:07.000Z</time>
      </trkpt>
      <trkpt lat="48.39178" lon="2.37328">
        <ele>80</ele>
        <time>2024-04-14T06:33:08.000Z</time>
      </trkpt>
      <trkpt lat="48.39182" lon="2.37288">
        <ele>80.400001525879</ele>
        <time>2024-04-14T06:33:12.000Z</time>
      </trkpt>
      <trkpt lat="48.39197" lon="2.37251">
        <ele>81</ele>
        <time>2024-04-14T06:33:17.000Z</time>
      </trkpt>
      <trkpt lat="48.39204" lon="2.37236">
        <ele>81.400001525879</ele>
        <time>2024-04-14T06:33:19.000Z</time>
      </trkpt>
      <trkpt lat="48.39215" lon="2.37219">
        <ele>81.599998474121</ele>
        <time>2024-04-14T06:33:22.000Z</time>
      </trkpt>
      <trkpt lat="48.39222" lon="2.37217">
        <ele>81.800003051758</ele>
        <time>2024-04-14T06:33:24.000Z</time>
      </trkpt>
      <trkpt lat="48.39227" lon="2.37219">
        <ele>82.199996948242</ele>
        <time>2024-04-14T06:33:25.000Z</time>
      </trkpt>
      <trkpt lat="48.39237" lon="2.37224">
        <ele>82.800003051758</ele>
        <time>2024-04-14T06:33:27.000Z</time>
      </trkpt>
      <trkpt lat="48.39242" lon="2.37226">
        <ele>82.800003051758</ele>
        <time>2024-04-14T06:33:28.000Z</time>
      </trkpt>
      <trkpt lat="48.39256" lon="2.37234">
        <ele>83.199996948242</ele>
        <time>2024-04-14T06:33:31.000Z</time>
      </trkpt>
      <trkpt lat="48.39279" lon="2.37245">
        <ele>84.199996948242</ele>
        <time>2024-04-14T06:33:36.000Z</time>
      </trkpt>
      <trkpt lat="48.39304" lon="2.37255">
        <ele>85.400001525879</ele>
        <time>2024-04-14T06:33:41.000Z</time>
      </trkpt>
      <trkpt lat="48.39326" lon="2.37261">
        <ele>86.199996948242</ele>
        <time>2024-04-14T06:33:45.000Z</time>
      </trkpt>
      <trkpt lat="48.39339" lon="2.37265">
        <ele>86.400001525879</ele>
        <time>2024-04-14T06:33:48.000Z</time>
      </trkpt>
      <trkpt lat="48.39343" lon="2.37268">
        <ele>86.599998474121</ele>
        <time>2024-04-14T06:33:49.000Z</time>
      </trkpt>
      <trkpt lat="48.39351" lon="2.37279">
        <ele>87.400001525879</ele>
        <time>2024-04-14T06:33:51.000Z</time>
      </trkpt>
      <trkpt lat="48.3936" lon="2.37303">
        <ele>88.199996948242</ele>
        <time>2024-04-14T06:33:55.000Z</time>
      </trkpt>
      <trkpt lat="48.39362" lon="2.37308">
        <ele>88.400001525879</ele>
        <time>2024-04-14T06:33:56.000Z</time>
      </trkpt>
      <trkpt lat="48.39364" lon="2.37314">
        <ele>88.599998474121</ele>
        <time>2024-04-14T06:33:57.000Z</time>
      </trkpt>
      <trkpt lat="48.39372" lon="2.37347">
        <ele>89.599998474121</ele>
        <time>2024-04-14T06:34:03.000Z</time>
      </trkpt>
      <trkpt lat="48.39374" lon="2.37352">
        <ele>89.800003051758</ele>
        <time>2024-04-14T06:34:04.000Z</time>
      </trkpt>
      <trkpt lat="48.39382" lon="2.37367">
        <ele>90.599998474121</ele>
        <time>2024-04-14T06:34:09.000Z</time>
      </trkpt>
      <trkpt lat="48.39387" lon="2.37369">
        <ele>90.400001525879</ele>
        <time>2024-04-14T06:34:11.000Z</time>
      </trkpt>
      <trkpt lat="48.39392" lon="2.37367">
        <ele>90.199996948242</ele>
        <time>2024-04-14T06:34:13.000Z</time>
      </trkpt>
      <trkpt lat="48.394" lon="2.37358">
        <ele>91</ele>
        <time>2024-04-14T06:34:16.000Z</time>
      </trkpt>
      <trkpt lat="48.39404" lon="2.3735">
        <ele>92.199996948242</ele>
        <time>2024-04-14T06:34:18.000Z</time>
      </trkpt>
      <trkpt lat="48.3941" lon="2.37339">
        <ele>93.199996948242</ele>
        <time>2024-04-14T06:34:21.000Z</time>
      </trkpt>
      <trkpt lat="48.39417" lon="2.37328">
        <ele>94.400001525879</ele>
        <time>2024-04-14T06:34:24.000Z</time>
      </trkpt>
      <trkpt lat="48.39422" lon="2.3732">
        <ele>95.199996948242</ele>
        <time>2024-04-14T06:34:26.000Z</time>
      </trkpt>
      <trkpt lat="48.39424" lon="2.37318">
        <ele>95.599998474121</ele>
        <time>2024-04-14T06:34:27.000Z</time>
      </trkpt>
      <trkpt lat="48.39429" lon="2.37306">
        <ele>96.599998474121</ele>
        <time>2024-04-14T06:34:30.000Z</time>
      </trkpt>
      <trkpt lat="48.39431" lon="2.37302">
        <ele>96.599998474121</ele>
        <time>2024-04-14T06:34:31.000Z</time>
      </trkpt>
      <trkpt lat="48.39437" lon="2.37292">
        <ele>97.800003051758</ele>
        <time>2024-04-14T06:34:34.000Z</time>
      </trkpt>
      <trkpt lat="48.39442" lon="2.37283">
        <ele>98.800003051758</ele>
        <time>2024-04-14T06:34:37.000Z</time>
      </trkpt>
      <trkpt lat="48.39446" lon="2.37277">
        <ele>100.19999694824</ele>
        <time>2024-04-14T06:34:39.000Z</time>
      </trkpt>
      <trkpt lat="48.39452" lon="2.37266">
        <ele>101.40000152588</ele>
        <time>2024-04-14T06:34:43.000Z</time>
      </trkpt>
      <trkpt lat="48.39457" lon="2.37251">
        <ele>102.19999694824</ele>
        <time>2024-04-14T06:34:47.000Z</time>
      </trkpt>
      <trkpt lat="48.39459" lon="2.37244">
        <ele>102.59999847412</ele>
        <time>2024-04-14T06:34:49.000Z</time>
      </trkpt>
      <trkpt lat="48.39465" lon="2.37227">
        <ele>103.59999847412</ele>
        <time>2024-04-14T06:34:54.000Z</time>
      </trkpt>
      <trkpt lat="48.39467" lon="2.37224">
        <ele>103.80000305176</ele>
        <time>2024-04-14T06:34:55.000Z</time>
      </trkpt>
      <trkpt lat="48.39471" lon="2.37209">
        <ele>104.80000305176</ele>
        <time>2024-04-14T06:34:59.000Z</time>
      </trkpt>
      <trkpt lat="48.39473" lon="2.37201">
        <ele>105.59999847412</ele>
        <time>2024-04-14T06:35:01.000Z</time>
      </trkpt>
      <trkpt lat="48.39473" lon="2.37197">
        <ele>106</ele>
        <time>2024-04-14T06:35:02.000Z</time>
      </trkpt>
      <trkpt lat="48.39475" lon="2.37173">
        <ele>107</ele>
        <time>2024-04-14T06:35:09.000Z</time>
      </trkpt>
      <trkpt lat="48.39478" lon="2.37155">
        <ele>108.40000152588</ele>
        <time>2024-04-14T06:35:14.000Z</time>
      </trkpt>
      <trkpt lat="48.3948" lon="2.37145">
        <ele>109</ele>
        <time>2024-04-14T06:35:17.000Z</time>
      </trkpt>
      <trkpt lat="48.3948" lon="2.37139">
        <ele>109.59999847412</ele>
        <time>2024-04-14T06:35:19.000Z</time>
      </trkpt>
      <trkpt lat="48.39478" lon="2.37125">
        <ele>110.19999694824</ele>
        <time>2024-04-14T06:35:23.000Z</time>
      </trkpt>
      <trkpt lat="48.39473" lon="2.37118">
        <ele>111.19999694824</ele>
        <time>2024-04-14T06:35:26.000Z</time>
      </trkpt>
      <trkpt lat="48.39472" lon="2.37117">
        <ele>111.80000305176</ele>
        <time>2024-04-14T06:35:27.000Z</time>
      </trkpt>
      <trkpt lat="48.39471" lon="2.37114">
        <ele>112.40000152588</ele>
        <time>2024-04-14T06:35:28.000Z</time>
      </trkpt>
      <trkpt lat="48.39467" lon="2.37103">
        <ele>113.40000152588</ele>
        <time>2024-04-14T06:35:32.000Z</time>
      </trkpt>
      <trkpt lat="48.39466" lon="2.37096">
        <ele>113.80000305176</ele>
        <time>2024-04-14T06:35:34.000Z</time>
      </trkpt>
      <trkpt lat="48.39464" lon="2.37092">
        <ele>114.59999847412</ele>
        <time>2024-04-14T06:35:36.000Z</time>
      </trkpt>
      <trkpt lat="48.39461" lon="2.37085">
        <ele>115.59999847412</ele>
        <time>2024-04-14T06:35:39.000Z</time>
      </trkpt>
      <trkpt lat="48.3946" lon="2.37078">
        <ele>117.19999694824</ele>
        <time>2024-04-14T06:35:42.000Z</time>
      </trkpt>
      <trkpt lat="48.39461" lon="2.37075">
        <ele>118.19999694824</ele>
        <time>2024-04-14T06:35:44.000Z</time>
      </trkpt>
      <trkpt lat="48.39461" lon="2.37072">
        <ele>118.80000305176</ele>
        <time>2024-04-14T06:35:45.000Z</time>
      </trkpt>
      <trkpt lat="48.39462" lon="2.37068">
        <ele>119.59999847412</ele>
        <time>2024-04-14T06:35:47.000Z</time>
      </trkpt>
      <trkpt lat="48.39463" lon="2.37062">
        <ele>121.40000152588</ele>
        <time>2024-04-14T06:35:50.000Z</time>
      </trkpt>
      <trkpt lat="48.39464" lon="2.3706">
        <ele>122</ele>
        <time>2024-04-14T06:35:51.000Z</time>
      </trkpt>
      <trkpt lat="48.39466" lon="2.37059">
        <ele>122.40000152588</ele>
        <time>2024-04-14T06:35:52.000Z</time>
      </trkpt>
      <trkpt lat="48.39467" lon="2.37056">
        <ele>122.59999847412</ele>
        <time>2024-04-14T06:35:53.000Z</time>
      </trkpt>
      <trkpt lat="48.39472" lon="2.37039">
        <ele>123.19999694824</ele>
        <time>2024-04-14T06:35:58.000Z</time>
      </trkpt>
      <trkpt lat="48.39477" lon="2.37033">
        <ele>123.40000152588</ele>
        <time>2024-04-14T06:36:01.000Z</time>
      </trkpt>
      <trkpt lat="48.39479" lon="2.37034">
        <ele>123.40000152588</ele>
        <time>2024-04-14T06:36:02.000Z</time>
      </trkpt>
      <trkpt lat="48.39482" lon="2.37035">
        <ele>123.59999847412</ele>
        <time>2024-04-14T06:36:03.000Z</time>
      </trkpt>
      <trkpt lat="48.39491" lon="2.37046">
        <ele>124</ele>
        <time>2024-04-14T06:36:08.000Z</time>
      </trkpt>
      <trkpt lat="48.39493" lon="2.37049">
        <ele>124</ele>
        <time>2024-04-14T06:36:09.000Z</time>
      </trkpt>
      <trkpt lat="48.395" lon="2.37065">
        <ele>124.19999694824</ele>
        <time>2024-04-14T06:36:15.000Z</time>
      </trkpt>
      <trkpt lat="48.39499" lon="2.37085">
        <ele>123.59999847412</ele>
        <time>2024-04-14T06:36:20.000Z</time>
      </trkpt>
      <trkpt lat="48.395" lon="2.37106">
        <ele>124.19999694824</ele>
        <time>2024-04-14T06:36:25.000Z</time>
      </trkpt>
      <trkpt lat="48.39502" lon="2.37112">
        <ele>124.59999847412</ele>
        <time>2024-04-14T06:36:27.000Z</time>
      </trkpt>
      <trkpt lat="48.39508" lon="2.3712">
        <ele>124.40000152588</ele>
        <time>2024-04-14T06:36:30.000Z</time>
      </trkpt>
      <trkpt lat="48.39511" lon="2.37125">
        <ele>123.40000152588</ele>
        <time>2024-04-14T06:36:32.000Z</time>
      </trkpt>
      <trkpt lat="48.39513" lon="2.37133">
        <ele>123.59999847412</ele>
        <time>2024-04-14T06:36:35.000Z</time>
      </trkpt>
      <trkpt lat="48.39513" lon="2.37136">
        <ele>123.80000305176</ele>
        <time>2024-04-14T06:36:36.000Z</time>
      </trkpt>
      <trkpt lat="48.39515" lon="2.37144">
        <ele>124</ele>
        <time>2024-04-14T06:36:39.000Z</time>
      </trkpt>
      <trkpt lat="48.39517" lon="2.37154">
        <ele>123.59999847412</ele>
        <time>2024-04-14T06:36:41.000Z</time>
      </trkpt>
      <trkpt lat="48.3952" lon="2.37163">
        <ele>124</ele>
        <time>2024-04-14T06:36:44.000Z</time>
      </trkpt>
      <trkpt lat="48.39523" lon="2.37162">
        <ele>123.80000305176</ele>
        <time>2024-04-14T06:36:45.000Z</time>
      </trkpt>
      <trkpt lat="48.39534" lon="2.3717">
        <ele>123.19999694824</ele>
        <time>2024-04-14T06:36:49.000Z</time>
      </trkpt>
      <trkpt lat="48.39539" lon="2.37174">
        <ele>123</ele>
        <time>2024-04-14T06:36:51.000Z</time>
      </trkpt>
      <trkpt lat="48.39545" lon="2.37181">
        <ele>121.80000305176</ele>
        <time>2024-04-14T06:36:54.000Z</time>
      </trkpt>
      <trkpt lat="48.39547" lon="2.37182">
        <ele>121</ele>
        <time>2024-04-14T06:36:55.000Z</time>
      </trkpt>
      <trkpt lat="48.3955" lon="2.37181">
        <ele>121</ele>
        <time>2024-04-14T06:36:56.000Z</time>
      </trkpt>
      <trkpt lat="48.39555" lon="2.37176">
        <ele>121.59999847412</ele>
        <time>2024-04-14T06:36:59.000Z</time>
      </trkpt>
      <trkpt lat="48.39562" lon="2.37176">
        <ele>123.59999847412</ele>
        <time>2024-04-14T06:37:02.000Z</time>
      </trkpt>
      <trkpt lat="48.39563" lon="2.37179">
        <ele>123.80000305176</ele>
        <time>2024-04-14T06:37:03.000Z</time>
      </trkpt>
      <trkpt lat="48.39564" lon="2.37192">
        <ele>124.19999694824</ele>
        <time>2024-04-14T06:37:06.000Z</time>
      </trkpt>
      <trkpt lat="48.39565" lon="2.372">
        <ele>124.40000152588</ele>
        <time>2024-04-14T06:37:08.000Z</time>
      </trkpt>
      <trkpt lat="48.39564" lon="2.37204">
        <ele>124.59999847412</ele>
        <time>2024-04-14T06:37:09.000Z</time>
      </trkpt>
      <trkpt lat="48.39559" lon="2.3721">
        <ele>125.40000152588</ele>
        <time>2024-04-14T06:37:12.000Z</time>
      </trkpt>
      <trkpt lat="48.39543" lon="2.37222">
        <ele>124.80000305176</ele>
        <time>2024-04-14T06:37:18.000Z</time>
      </trkpt>
      <trkpt lat="48.39539" lon="2.37227">
        <ele>124.59999847412</ele>
        <time>2024-04-14T06:37:19.000Z</time>
      </trkpt>
      <trkpt lat="48.39533" lon="2.3724">
        <ele>123.40000152588</ele>
        <time>2024-04-14T06:37:22.000Z</time>
      </trkpt>
      <trkpt lat="48.39533" lon="2.37243">
        <ele>123</ele>
        <time>2024-04-14T06:37:23.000Z</time>
      </trkpt>
      <trkpt lat="48.39536" lon="2.37249">
        <ele>122.40000152588</ele>
        <time>2024-04-14T06:37:25.000Z</time>
      </trkpt>
      <trkpt lat="48.39536" lon="2.37252">
        <ele>122.19999694824</ele>
        <time>2024-04-14T06:37:26.000Z</time>
      </trkpt>
      <trkpt lat="48.39533" lon="2.37256">
        <ele>121</ele>
        <time>2024-04-14T06:37:28.000Z</time>
      </trkpt>
      <trkpt lat="48.39532" lon="2.37263">
        <ele>119.80000305176</ele>
        <time>2024-04-14T06:37:29.000Z</time>
      </trkpt>
      <trkpt lat="48.3953" lon="2.37268">
        <ele>118.40000152588</ele>
        <time>2024-04-14T06:37:30.000Z</time>
      </trkpt>
      <trkpt lat="48.39527" lon="2.37274">
        <ele>117</ele>
        <time>2024-04-14T06:37:31.000Z</time>
      </trkpt>
      <trkpt lat="48.39524" lon="2.37281">
        <ele>115.19999694824</ele>
        <time>2024-04-14T06:37:32.000Z</time>
      </trkpt>
      <trkpt lat="48.39522" lon="2.37287">
        <ele>113.80000305176</ele>
        <time>2024-04-14T06:37:33.000Z</time>
      </trkpt>
      <trkpt lat="48.39521" lon="2.37293">
        <ele>112.59999847412</ele>
        <time>2024-04-14T06:37:34.000Z</time>
      </trkpt>
      <trkpt lat="48.39528" lon="2.37303">
        <ele>111.80000305176</ele>
        <time>2024-04-14T06:37:37.000Z</time>
      </trkpt>
      <trkpt lat="48.39539" lon="2.37305">
        <ele>112.80000305176</ele>
        <time>2024-04-14T06:37:41.000Z</time>
      </trkpt>
      <trkpt lat="48.39543" lon="2.37306">
        <ele>113.19999694824</ele>
        <time>2024-04-14T06:37:42.000Z</time>
      </trkpt>
      <trkpt lat="48.39553" lon="2.37314">
        <ele>112.80000305176</ele>
        <time>2024-04-14T06:37:45.000Z</time>
      </trkpt>
      <trkpt lat="48.39558" lon="2.37319">
        <ele>112.19999694824</ele>
        <time>2024-04-14T06:37:46.000Z</time>
      </trkpt>
      <trkpt lat="48.39562" lon="2.37324">
        <ele>111.19999694824</ele>
        <time>2024-04-14T06:37:47.000Z</time>
      </trkpt>
      <trkpt lat="48.39566" lon="2.37328">
        <ele>110.40000152588</ele>
        <time>2024-04-14T06:37:48.000Z</time>
      </trkpt>
      <trkpt lat="48.3957" lon="2.37329">
        <ele>109.40000152588</ele>
        <time>2024-04-14T06:37:49.000Z</time>
      </trkpt>
      <trkpt lat="48.39574" lon="2.37329">
        <ele>108.59999847412</ele>
        <time>2024-04-14T06:37:50.000Z</time>
      </trkpt>
      <trkpt lat="48.39581" lon="2.3733">
        <ele>108.59999847412</ele>
        <time>2024-04-14T06:37:52.000Z</time>
      </trkpt>
      <trkpt lat="48.39584" lon="2.37332">
        <ele>108.40000152588</ele>
        <time>2024-04-14T06:37:53.000Z</time>
      </trkpt>
      <trkpt lat="48.39591" lon="2.37338">
        <ele>107.19999694824</ele>
        <time>2024-04-14T06:37:55.000Z</time>
      </trkpt>
      <trkpt lat="48.39594" lon="2.37339">
        <ele>106.40000152588</ele>
        <time>2024-04-14T06:37:56.000Z</time>
      </trkpt>
      <trkpt lat="48.39597" lon="2.37342">
        <ele>105.59999847412</ele>
        <time>2024-04-14T06:37:57.000Z</time>
      </trkpt>
      <trkpt lat="48.39603" lon="2.37343">
        <ele>104.19999694824</ele>
        <time>2024-04-14T06:37:59.000Z</time>
      </trkpt>
      <trkpt lat="48.39605" lon="2.37342">
        <ele>103.80000305176</ele>
        <time>2024-04-14T06:38:00.000Z</time>
      </trkpt>
      <trkpt lat="48.39607" lon="2.37335">
        <ele>105.19999694824</ele>
        <time>2024-04-14T06:38:04.000Z</time>
      </trkpt>
      <trkpt lat="48.39609" lon="2.37327">
        <ele>106.40000152588</ele>
        <time>2024-04-14T06:38:07.000Z</time>
      </trkpt>
      <trkpt lat="48.3961" lon="2.37321">
        <ele>107.19999694824</ele>
        <time>2024-04-14T06:38:09.000Z</time>
      </trkpt>
      <trkpt lat="48.39611" lon="2.37317">
        <ele>107.80000305176</ele>
        <time>2024-04-14T06:38:10.000Z</time>
      </trkpt>
      <trkpt lat="48.39611" lon="2.3731">
        <ele>108.80000305176</ele>
        <time>2024-04-14T06:38:12.000Z</time>
      </trkpt>
      <trkpt lat="48.39612" lon="2.37304">
        <ele>110.80000305176</ele>
        <time>2024-04-14T06:38:14.000Z</time>
      </trkpt>
      <trkpt lat="48.39612" lon="2.37294">
        <ele>111.80000305176</ele>
        <time>2024-04-14T06:38:17.000Z</time>
      </trkpt>
      <trkpt lat="48.39612" lon="2.37289">
        <ele>112.80000305176</ele>
        <time>2024-04-14T06:38:19.000Z</time>
      </trkpt>
      <trkpt lat="48.39613" lon="2.37285">
        <ele>113.40000152588</ele>
        <time>2024-04-14T06:38:20.000Z</time>
      </trkpt>
      <trkpt lat="48.39614" lon="2.37276">
        <ele>114.40000152588</ele>
        <time>2024-04-14T06:38:23.000Z</time>
      </trkpt>
      <trkpt lat="48.39616" lon="2.37269">
        <ele>115.19999694824</ele>
        <time>2024-04-14T06:38:25.000Z</time>
      </trkpt>
      <trkpt lat="48.39615" lon="2.37267">
        <ele>115.59999847412</ele>
        <time>2024-04-14T06:38:26.000Z</time>
      </trkpt>
      <trkpt lat="48.39615" lon="2.37264">
        <ele>116</ele>
        <time>2024-04-14T06:38:27.000Z</time>
      </trkpt>
      <trkpt lat="48.39613" lon="2.37259">
        <ele>116.80000305176</ele>
        <time>2024-04-14T06:38:29.000Z</time>
      </trkpt>
      <trkpt lat="48.39615" lon="2.37246">
        <ele>118</ele>
        <time>2024-04-14T06:38:33.000Z</time>
      </trkpt>
      <trkpt lat="48.39616" lon="2.37243">
        <ele>118.19999694824</ele>
        <time>2024-04-14T06:38:34.000Z</time>
      </trkpt>
      <trkpt lat="48.3962" lon="2.37233">
        <ele>119</ele>
        <time>2024-04-14T06:38:37.000Z</time>
      </trkpt>
      <trkpt lat="48.39623" lon="2.37226">
        <ele>120.19999694824</ele>
        <time>2024-04-14T06:38:39.000Z</time>
      </trkpt>
      <trkpt lat="48.39624" lon="2.3722">
        <ele>120.19999694824</ele>
        <time>2024-04-14T06:38:41.000Z</time>
      </trkpt>
      <trkpt lat="48.39628" lon="2.37193">
        <ele>121.19999694824</ele>
        <time>2024-04-14T06:38:48.000Z</time>
      </trkpt>
      <trkpt lat="48.39626" lon="2.37168">
        <ele>122</ele>
        <time>2024-04-14T06:38:55.000Z</time>
      </trkpt>
      <trkpt lat="48.39626" lon="2.37165">
        <ele>122.19999694824</ele>
        <time>2024-04-14T06:38:56.000Z</time>
      </trkpt>
      <trkpt lat="48.39634" lon="2.37151">
        <ele>123.40000152588</ele>
        <time>2024-04-14T06:39:01.000Z</time>
      </trkpt>
      <trkpt lat="48.39648" lon="2.37131">
        <ele>124.19999694824</ele>
        <time>2024-04-14T06:39:07.000Z</time>
      </trkpt>
      <trkpt lat="48.3965" lon="2.37128">
        <ele>124.40000152588</ele>
        <time>2024-04-14T06:39:08.000Z</time>
      </trkpt>
      <trkpt lat="48.39661" lon="2.37112">
        <ele>124.19999694824</ele>
        <time>2024-04-14T06:39:12.000Z</time>
      </trkpt>
      <trkpt lat="48.39678" lon="2.37081">
        <ele>124.80000305176</ele>
        <time>2024-04-14T06:39:20.000Z</time>
      </trkpt>
      <trkpt lat="48.39685" lon="2.3707">
        <ele>125.40000152588</ele>
        <time>2024-04-14T06:39:23.000Z</time>
      </trkpt>
      <trkpt lat="48.39695" lon="2.37051">
        <ele>125.19999694824</ele>
        <time>2024-04-14T06:39:27.000Z</time>
      </trkpt>
      <trkpt lat="48.39702" lon="2.37028">
        <ele>124.59999847412</ele>
        <time>2024-04-14T06:39:32.000Z</time>
      </trkpt>
      <trkpt lat="48.39701" lon="2.37024">
        <ele>124.40000152588</ele>
        <time>2024-04-14T06:39:33.000Z</time>
      </trkpt>
      <trkpt lat="48.39699" lon="2.37015">
        <ele>123.19999694824</ele>
        <time>2024-04-14T06:39:36.000Z</time>
      </trkpt>
      <trkpt lat="48.39693" lon="2.37004">
        <ele>122.59999847412</ele>
        <time>2024-04-14T06:39:39.000Z</time>
      </trkpt>
      <trkpt lat="48.3969" lon="2.37004">
        <ele>123</ele>
        <time>2024-04-14T06:39:40.000Z</time>
      </trkpt>
      <trkpt lat="48.39676" lon="2.36993">
        <ele>123.59999847412</ele>
        <time>2024-04-14T06:39:45.000Z</time>
      </trkpt>
      <trkpt lat="48.39671" lon="2.36991">
        <ele>123.59999847412</ele>
        <time>2024-04-14T06:39:51.000Z</time>
      </trkpt>
      <trkpt lat="48.39663" lon="2.36986">
        <ele>123.59999847412</ele>
        <time>2024-04-14T06:39:57.000Z</time>
      </trkpt>
      <trkpt lat="48.39651" lon="2.36975">
        <ele>122.40000152588</ele>
        <time>2024-04-14T06:40:03.000Z</time>
      </trkpt>
      <trkpt lat="48.39646" lon="2.36974">
        <ele>123</ele>
        <time>2024-04-14T06:40:04.000Z</time>
      </trkpt>
      <trkpt lat="48.39638" lon="2.36976">
        <ele>123.80000305176</ele>
        <time>2024-04-14T06:40:07.000Z</time>
      </trkpt>
      <trkpt lat="48.39635" lon="2.36973">
        <ele>123.59999847412</ele>
        <time>2024-04-14T06:40:09.000Z</time>
      </trkpt>
      <trkpt lat="48.39628" lon="2.36966">
        <ele>123.59999847412</ele>
        <time>2024-04-14T06:40:12.000Z</time>
      </trkpt>
      <trkpt lat="48.39623" lon="2.36965">
        <ele>122.80000305176</ele>
        <time>2024-04-14T06:40:14.000Z</time>
      </trkpt>
      <trkpt lat="48.39616" lon="2.3697">
        <ele>122.19999694824</ele>
        <time>2024-04-14T06:40:16.000Z</time>
      </trkpt>
      <trkpt lat="48.396" lon="2.36991">
        <ele>122.80000305176</ele>
        <time>2024-04-14T06:40:22.000Z</time>
      </trkpt>
      <trkpt lat="48.39593" lon="2.36992">
        <ele>123.40000152588</ele>
        <time>2024-04-14T06:40:24.000Z</time>
      </trkpt>
      <trkpt lat="48.39587" lon="2.36994">
        <ele>123.80000305176</ele>
        <time>2024-04-14T06:40:26.000Z</time>
      </trkpt>
      <trkpt lat="48.39579" lon="2.36995">
        <ele>124.19999694824</ele>
        <time>2024-04-14T06:40:28.000Z</time>
      </trkpt>
      <trkpt lat="48.39552" lon="2.36999">
        <ele>124.19999694824</ele>
        <time>2024-04-14T06:40:34.000Z</time>
      </trkpt>
      <trkpt lat="48.39547" lon="2.37">
        <ele>124.19999694824</ele>
        <time>2024-04-14T06:40:35.000Z</time>
      </trkpt>
      <trkpt lat="48.39537" lon="2.36995">
        <ele>124.40000152588</ele>
        <time>2024-04-14T06:40:38.000Z</time>
      </trkpt>
      <trkpt lat="48.39535" lon="2.36975">
        <ele>125</ele>
        <time>2024-04-14T06:40:42.000Z</time>
      </trkpt>
      <trkpt lat="48.3954" lon="2.36962">
        <ele>125.80000305176</ele>
        <time>2024-04-14T06:40:44.000Z</time>
      </trkpt>
      <trkpt lat="48.39543" lon="2.36958">
        <ele>126.40000152588</ele>
        <time>2024-04-14T06:40:45.000Z</time>
      </trkpt>
      <trkpt lat="48.39546" lon="2.36955">
        <ele>127</ele>
        <time>2024-04-14T06:40:46.000Z</time>
      </trkpt>
      <trkpt lat="48.39552" lon="2.36954">
        <ele>127.40000152588</ele>
        <time>2024-04-14T06:40:47.000Z</time>
      </trkpt>
      <trkpt lat="48.39556" lon="2.36952">
        <ele>127.40000152588</ele>
        <time>2024-04-14T06:40:48.000Z</time>
      </trkpt>
      <trkpt lat="48.39566" lon="2.3695">
        <ele>128</ele>
        <time>2024-04-14T06:40:50.000Z</time>
      </trkpt>
      <trkpt lat="48.39588" lon="2.36942">
        <ele>129.19999694824</ele>
        <time>2024-04-14T06:40:55.000Z</time>
      </trkpt>
      <trkpt lat="48.39592" lon="2.36941">
        <ele>129.39999389648</ele>
        <time>2024-04-14T06:40:56.000Z</time>
      </trkpt>
      <trkpt lat="48.39609" lon="2.36937">
        <ele>130.19999694824</ele>
        <time>2024-04-14T06:41:00.000Z</time>
      </trkpt>
      <trkpt lat="48.39626" lon="2.36936">
        <ele>130.80000305176</ele>
        <time>2024-04-14T06:41:04.000Z</time>
      </trkpt>
      <trkpt lat="48.39638" lon="2.36936">
        <ele>131.19999694824</ele>
        <time>2024-04-14T06:41:07.000Z</time>
      </trkpt>
      <trkpt lat="48.39659" lon="2.36938">
        <ele>131.39999389648</ele>
        <time>2024-04-14T06:41:12.000Z</time>
      </trkpt>
      <trkpt lat="48.39672" lon="2.36942">
        <ele>131.60000610352</ele>
        <time>2024-04-14T06:41:15.000Z</time>
      </trkpt>
      <trkpt lat="48.39686" lon="2.36947">
        <ele>131.60000610352</ele>
        <time>2024-04-14T06:41:18.000Z</time>
      </trkpt>
      <trkpt lat="48.39718" lon="2.3696">
        <ele>131.39999389648</ele>
        <time>2024-04-14T06:41:25.000Z</time>
      </trkpt>
      <trkpt lat="48.39724" lon="2.36962">
        <ele>131.39999389648</ele>
        <time>2024-04-14T06:41:26.000Z</time>
      </trkpt>
      <trkpt lat="48.3975" lon="2.3697">
        <ele>131</ele>
        <time>2024-04-14T06:41:31.000Z</time>
      </trkpt>
      <trkpt lat="48.3979" lon="2.36978">
        <ele>130.80000305176</ele>
        <time>2024-04-14T06:41:38.000Z</time>
      </trkpt>
      <trkpt lat="48.39796" lon="2.36977">
        <ele>130.80000305176</ele>
        <time>2024-04-14T06:41:39.000Z</time>
      </trkpt>
      <trkpt lat="48.39808" lon="2.36965">
        <ele>130.60000610352</ele>
        <time>2024-04-14T06:41:42.000Z</time>
      </trkpt>
      <trkpt lat="48.39815" lon="2.36926">
        <ele>130.39999389648</ele>
        <time>2024-04-14T06:41:47.000Z</time>
      </trkpt>
      <trkpt lat="48.39815" lon="2.36917">
        <ele>130.19999694824</ele>
        <time>2024-04-14T06:41:48.000Z</time>
      </trkpt>
      <trkpt lat="48.39815" lon="2.36897">
        <ele>129.60000610352</ele>
        <time>2024-04-14T06:41:50.000Z</time>
      </trkpt>
      <trkpt lat="48.39813" lon="2.36877">
        <ele>129.39999389648</ele>
        <time>2024-04-14T06:41:52.000Z</time>
      </trkpt>
      <trkpt lat="48.39809" lon="2.3683">
        <ele>130.39999389648</ele>
        <time>2024-04-14T06:41:57.000Z</time>
      </trkpt>
      <trkpt lat="48.3981" lon="2.36822">
        <ele>130.19999694824</ele>
        <time>2024-04-14T06:41:58.000Z</time>
      </trkpt>
      <trkpt lat="48.39813" lon="2.36807">
        <ele>130.19999694824</ele>
        <time>2024-04-14T06:42:00.000Z</time>
      </trkpt>
      <trkpt lat="48.39819" lon="2.36799">
        <ele>130</ele>
        <time>2024-04-14T06:42:02.000Z</time>
      </trkpt>
      <trkpt lat="48.39831" lon="2.36804">
        <ele>129.60000610352</ele>
        <time>2024-04-14T06:42:05.000Z</time>
      </trkpt>
      <trkpt lat="48.39838" lon="2.36814">
        <ele>129</ele>
        <time>2024-04-14T06:42:07.000Z</time>
      </trkpt>
      <trkpt lat="48.39842" lon="2.36828">
        <ele>128</ele>
        <time>2024-04-14T06:42:09.000Z</time>
      </trkpt>
      <trkpt lat="48.39844" lon="2.36834">
        <ele>128.19999694824</ele>
        <time>2024-04-14T06:42:10.000Z</time>
      </trkpt>
      <trkpt lat="48.39848" lon="2.36846">
        <ele>128.39999389648</ele>
        <time>2024-04-14T06:42:12.000Z</time>
      </trkpt>
      <trkpt lat="48.39851" lon="2.36861">
        <ele>127.80000305176</ele>
        <time>2024-04-14T06:42:14.000Z</time>
      </trkpt>
      <trkpt lat="48.39853" lon="2.36866">
        <ele>127</ele>
        <time>2024-04-14T06:42:15.000Z</time>
      </trkpt>
      <trkpt lat="48.39859" lon="2.36874">
        <ele>125.59999847412</ele>
        <time>2024-04-14T06:42:17.000Z</time>
      </trkpt>
      <trkpt lat="48.39868" lon="2.36888">
        <ele>124.40000152588</ele>
        <time>2024-04-14T06:42:21.000Z</time>
      </trkpt>
      <trkpt lat="48.39877" lon="2.36907">
        <ele>125.40000152588</ele>
        <time>2024-04-14T06:42:27.000Z</time>
      </trkpt>
      <trkpt lat="48.39879" lon="2.3691">
        <ele>125.40000152588</ele>
        <time>2024-04-14T06:42:28.000Z</time>
      </trkpt>
      <trkpt lat="48.39887" lon="2.36931">
        <ele>124.59999847412</ele>
        <time>2024-04-14T06:42:33.000Z</time>
      </trkpt>
      <trkpt lat="48.39891" lon="2.36938">
        <ele>124.19999694824</ele>
        <time>2024-04-14T06:42:35.000Z</time>
      </trkpt>
      <trkpt lat="48.39901" lon="2.36955">
        <ele>124.59999847412</ele>
        <time>2024-04-14T06:42:39.000Z</time>
      </trkpt>
      <trkpt lat="48.39905" lon="2.36962">
        <ele>125</ele>
        <time>2024-04-14T06:42:41.000Z</time>
      </trkpt>
      <trkpt lat="48.39905" lon="2.36965">
        <ele>125.40000152588</ele>
        <time>2024-04-14T06:42:42.000Z</time>
      </trkpt>
      <trkpt lat="48.39905" lon="2.36967">
        <ele>125.59999847412</ele>
        <time>2024-04-14T06:42:43.000Z</time>
      </trkpt>
      <trkpt lat="48.39904" lon="2.3697">
        <ele>126.19999694824</ele>
        <time>2024-04-14T06:42:44.000Z</time>
      </trkpt>
      <trkpt lat="48.39904" lon="2.36971">
        <ele>126.80000305176</ele>
        <time>2024-04-14T06:42:45.000Z</time>
      </trkpt>
      <trkpt lat="48.399" lon="2.36978">
        <ele>127.80000305176</ele>
        <time>2024-04-14T06:42:48.000Z</time>
      </trkpt>
      <trkpt lat="48.39897" lon="2.36982">
        <ele>128.39999389648</ele>
        <time>2024-04-14T06:42:50.000Z</time>
      </trkpt>
      <trkpt lat="48.39897" lon="2.36983">
        <ele>128.39999389648</ele>
        <time>2024-04-14T06:42:51.000Z</time>
      </trkpt>
      <trkpt lat="48.39898" lon="2.36985">
        <ele>128.60000610352</ele>
        <time>2024-04-14T06:42:52.000Z</time>
      </trkpt>
      <trkpt lat="48.39901" lon="2.36989">
        <ele>128.60000610352</ele>
        <time>2024-04-14T06:42:54.000Z</time>
      </trkpt>
      <trkpt lat="48.39906" lon="2.36992">
        <ele>128.80000305176</ele>
        <time>2024-04-14T06:42:56.000Z</time>
      </trkpt>
      <trkpt lat="48.39918" lon="2.36999">
        <ele>128.19999694824</ele>
        <time>2024-04-14T06:43:00.000Z</time>
      </trkpt>
      <trkpt lat="48.39946" lon="2.37013">
        <ele>127.40000152588</ele>
        <time>2024-04-14T06:43:05.000Z</time>
      </trkpt>
      <trkpt lat="48.3998" lon="2.3703">
        <ele>128.39999389648</ele>
        <time>2024-04-14T06:43:11.000Z</time>
      </trkpt>
      <trkpt lat="48.39988" lon="2.37037">
        <ele>129</ele>
        <time>2024-04-14T06:43:13.000Z</time>
      </trkpt>
      <trkpt lat="48.40003" lon="2.37053">
        <ele>129.39999389648</ele>
        <time>2024-04-14T06:43:17.000Z</time>
      </trkpt>
      <trkpt lat="48.40026" lon="2.37076">
        <ele>128.39999389648</ele>
        <time>2024-04-14T06:43:23.000Z</time>
      </trkpt>
      <trkpt lat="48.4003" lon="2.3709">
        <ele>130.80000305176</ele>
        <time>2024-04-14T06:43:26.000Z</time>
      </trkpt>
      <trkpt lat="48.40032" lon="2.37094">
        <ele>132</ele>
        <time>2024-04-14T06:43:27.000Z</time>
      </trkpt>
      <trkpt lat="48.40034" lon="2.37098">
        <ele>132</ele>
        <time>2024-04-14T06:43:28.000Z</time>
      </trkpt>
      <trkpt lat="48.40038" lon="2.37109">
        <ele>132</ele>
        <time>2024-04-14T06:43:31.000Z</time>
      </trkpt>
      <trkpt lat="48.40038" lon="2.37115">
        <ele>132.19999694824</ele>
        <time>2024-04-14T06:43:33.000Z</time>
      </trkpt>
      <trkpt lat="48.40038" lon="2.3712">
        <ele>132.60000610352</ele>
        <time>2024-04-14T06:43:35.000Z</time>
      </trkpt>
      <trkpt lat="48.40041" lon="2.37127">
        <ele>132.80000305176</ele>
        <time>2024-04-14T06:43:37.000Z</time>
      </trkpt>
      <trkpt lat="48.40042" lon="2.37131">
        <ele>132.80000305176</ele>
        <time>2024-04-14T06:43:38.000Z</time>
      </trkpt>
      <trkpt lat="48.40045" lon="2.37146">
        <ele>131.80000305176</ele>
        <time>2024-04-14T06:43:42.000Z</time>
      </trkpt>
      <trkpt lat="48.40048" lon="2.37155">
        <ele>130.60000610352</ele>
        <time>2024-04-14T06:43:44.000Z</time>
      </trkpt>
      <trkpt lat="48.4005" lon="2.37159">
        <ele>129.39999389648</ele>
        <time>2024-04-14T06:43:45.000Z</time>
      </trkpt>
      <trkpt lat="48.40051" lon="2.37164">
        <ele>128.19999694824</ele>
        <time>2024-04-14T06:43:46.000Z</time>
      </trkpt>
      <trkpt lat="48.40052" lon="2.3717">
        <ele>126.80000305176</ele>
        <time>2024-04-14T06:43:47.000Z</time>
      </trkpt>
      <trkpt lat="48.40053" lon="2.37181">
        <ele>124.80000305176</ele>
        <time>2024-04-14T06:43:49.000Z</time>
      </trkpt>
      <trkpt lat="48.40055" lon="2.37184">
        <ele>124.40000152588</ele>
        <time>2024-04-14T06:43:50.000Z</time>
      </trkpt>
      <trkpt lat="48.40059" lon="2.37188">
        <ele>124.19999694824</ele>
        <time>2024-04-14T06:43:52.000Z</time>
      </trkpt>
      <trkpt lat="48.4006" lon="2.3719">
        <ele>123.59999847412</ele>
        <time>2024-04-14T06:43:53.000Z</time>
      </trkpt>
      <trkpt lat="48.40061" lon="2.37195">
        <ele>121.80000305176</ele>
        <time>2024-04-14T06:43:55.000Z</time>
      </trkpt>
      <trkpt lat="48.40061" lon="2.37198">
        <ele>120.59999847412</ele>
        <time>2024-04-14T06:43:56.000Z</time>
      </trkpt>
      <trkpt lat="48.40061" lon="2.37202">
        <ele>119.59999847412</ele>
        <time>2024-04-14T06:43:57.000Z</time>
      </trkpt>
      <trkpt lat="48.40063" lon="2.37208">
        <ele>117.80000305176</ele>
        <time>2024-04-14T06:43:59.000Z</time>
      </trkpt>
      <trkpt lat="48.40066" lon="2.37209">
        <ele>116.80000305176</ele>
        <time>2024-04-14T06:44:00.000Z</time>
      </trkpt>
      <trkpt lat="48.40068" lon="2.37209">
        <ele>115.80000305176</ele>
        <time>2024-04-14T06:44:01.000Z</time>
      </trkpt>
      <trkpt lat="48.40071" lon="2.3721">
        <ele>115</ele>
        <time>2024-04-14T06:44:02.000Z</time>
      </trkpt>
      <trkpt lat="48.40074" lon="2.3721">
        <ele>114</ele>
        <time>2024-04-14T06:44:03.000Z</time>
      </trkpt>
      <trkpt lat="48.40077" lon="2.3721">
        <ele>112.80000305176</ele>
        <time>2024-04-14T06:44:04.000Z</time>
      </trkpt>
      <trkpt lat="48.40081" lon="2.3721">
        <ele>111.40000152588</ele>
        <time>2024-04-14T06:44:05.000Z</time>
      </trkpt>
      <trkpt lat="48.40084" lon="2.3721">
        <ele>110.40000152588</ele>
        <time>2024-04-14T06:44:06.000Z</time>
      </trkpt>
      <trkpt lat="48.40091" lon="2.37206">
        <ele>109</ele>
        <time>2024-04-14T06:44:08.000Z</time>
      </trkpt>
      <trkpt lat="48.40094" lon="2.37203">
        <ele>108.80000305176</ele>
        <time>2024-04-14T06:44:09.000Z</time>
      </trkpt>
      <trkpt lat="48.40097" lon="2.37189">
        <ele>108</ele>
        <time>2024-04-14T06:44:12.000Z</time>
      </trkpt>
      <trkpt lat="48.40099" lon="2.3718">
        <ele>107.40000152588</ele>
        <time>2024-04-14T06:44:14.000Z</time>
      </trkpt>
      <trkpt lat="48.40102" lon="2.37164">
        <ele>106.19999694824</ele>
        <time>2024-04-14T06:44:17.000Z</time>
      </trkpt>
      <trkpt lat="48.40101" lon="2.37149">
        <ele>105.40000152588</ele>
        <time>2024-04-14T06:44:19.000Z</time>
      </trkpt>
      <trkpt lat="48.40099" lon="2.37137">
        <ele>105.40000152588</ele>
        <time>2024-04-14T06:44:21.000Z</time>
      </trkpt>
      <trkpt lat="48.4009" lon="2.37104">
        <ele>106</ele>
        <time>2024-04-14T06:44:26.000Z</time>
      </trkpt>
      <trkpt lat="48.40087" lon="2.37098">
        <ele>106.19999694824</ele>
        <time>2024-04-14T06:44:27.000Z</time>
      </trkpt>
      <trkpt lat="48.40078" lon="2.37082">
        <ele>106.59999847412</ele>
        <time>2024-04-14T06:44:30.000Z</time>
      </trkpt>
      <trkpt lat="48.40064" lon="2.37064">
        <ele>107</ele>
        <time>2024-04-14T06:44:34.000Z</time>
      </trkpt>
      <trkpt lat="48.40054" lon="2.37052">
        <ele>107.40000152588</ele>
        <time>2024-04-14T06:44:37.000Z</time>
      </trkpt>
      <trkpt lat="48.40041" lon="2.37035">
        <ele>108.19999694824</ele>
        <time>2024-04-14T06:44:41.000Z</time>
      </trkpt>
      <trkpt lat="48.40038" lon="2.37032">
        <ele>108.40000152588</ele>
        <time>2024-04-14T06:44:42.000Z</time>
      </trkpt>
      <trkpt lat="48.40024" lon="2.37016">
        <ele>109</ele>
        <time>2024-04-14T06:44:47.000Z</time>
      </trkpt>
      <trkpt lat="48.40015" lon="2.37005">
        <ele>109.59999847412</ele>
        <time>2024-04-14T06:44:51.000Z</time>
      </trkpt>
      <trkpt lat="48.40006" lon="2.36993">
        <ele>110.40000152588</ele>
        <time>2024-04-14T06:44:54.000Z</time>
      </trkpt>
      <trkpt lat="48.4" lon="2.36986">
        <ele>110.80000305176</ele>
        <time>2024-04-14T06:44:56.000Z</time>
      </trkpt>
      <trkpt lat="48.39991" lon="2.36974">
        <ele>111.40000152588</ele>
        <time>2024-04-14T06:44:59.000Z</time>
      </trkpt>
      <trkpt lat="48.39979" lon="2.36958">
        <ele>111.80000305176</ele>
        <time>2024-04-14T06:45:03.000Z</time>
      </trkpt>
      <trkpt lat="48.39966" lon="2.36943">
        <ele>112.59999847412</ele>
        <time>2024-04-14T06:45:07.000Z</time>
      </trkpt>
      <trkpt lat="48.39955" lon="2.36933">
        <ele>113</ele>
        <time>2024-04-14T06:45:10.000Z</time>
      </trkpt>
      <trkpt lat="48.39944" lon="2.36922">
        <ele>113.40000152588</ele>
        <time>2024-04-14T06:45:13.000Z</time>
      </trkpt>
      <trkpt lat="48.39933" lon="2.3691">
        <ele>114.40000152588</ele>
        <time>2024-04-14T06:45:16.000Z</time>
      </trkpt>
      <trkpt lat="48.39926" lon="2.36903">
        <ele>118.40000152588</ele>
        <time>2024-04-14T06:45:18.000Z</time>
      </trkpt>
      <trkpt lat="48.39923" lon="2.369">
        <ele>116.40000152588</ele>
        <time>2024-04-14T06:45:19.000Z</time>
      </trkpt>
      <trkpt lat="48.39916" lon="2.36893">
        <ele>115</ele>
        <time>2024-04-14T06:45:21.000Z</time>
      </trkpt>
      <trkpt lat="48.39893" lon="2.36859">
        <ele>115.59999847412</ele>
        <time>2024-04-14T06:45:28.000Z</time>
      </trkpt>
      <trkpt lat="48.39891" lon="2.36854">
        <ele>116</ele>
        <time>2024-04-14T06:45:29.000Z</time>
      </trkpt>
      <trkpt lat="48.3988" lon="2.36828">
        <ele>116.59999847412</ele>
        <time>2024-04-14T06:45:34.000Z</time>
      </trkpt>
      <trkpt lat="48.39876" lon="2.36803">
        <ele>117</ele>
        <time>2024-04-14T06:45:38.000Z</time>
      </trkpt>
      <trkpt lat="48.39873" lon="2.36785">
        <ele>117.59999847412</ele>
        <time>2024-04-14T06:45:41.000Z</time>
      </trkpt>
      <trkpt lat="48.39869" lon="2.36761">
        <ele>118.19999694824</ele>
        <time>2024-04-14T06:45:45.000Z</time>
      </trkpt>
      <trkpt lat="48.39867" lon="2.36741">
        <ele>118.59999847412</ele>
        <time>2024-04-14T06:45:48.000Z</time>
      </trkpt>
      <trkpt lat="48.39865" lon="2.36717">
        <ele>119.40000152588</ele>
        <time>2024-04-14T06:45:52.000Z</time>
      </trkpt>
      <trkpt lat="48.39863" lon="2.367">
        <ele>119.59999847412</ele>
        <time>2024-04-14T06:45:55.000Z</time>
      </trkpt>
      <trkpt lat="48.39858" lon="2.36663">
        <ele>120.40000152588</ele>
        <time>2024-04-14T06:46:01.000Z</time>
      </trkpt>
      <trkpt lat="48.39857" lon="2.36656">
        <ele>120.80000305176</ele>
        <time>2024-04-14T06:46:02.000Z</time>
      </trkpt>
      <trkpt lat="48.39852" lon="2.36618">
        <ele>121.59999847412</ele>
        <time>2024-04-14T06:46:08.000Z</time>
      </trkpt>
      <trkpt lat="48.39849" lon="2.36598">
        <ele>122</ele>
        <time>2024-04-14T06:46:11.000Z</time>
      </trkpt>
      <trkpt lat="48.39846" lon="2.36571">
        <ele>123</ele>
        <time>2024-04-14T06:46:15.000Z</time>
      </trkpt>
      <trkpt lat="48.39843" lon="2.36544">
        <ele>123.59999847412</ele>
        <time>2024-04-14T06:46:19.000Z</time>
      </trkpt>
      <trkpt lat="48.39839" lon="2.36519">
        <ele>124</ele>
        <time>2024-04-14T06:46:23.000Z</time>
      </trkpt>
      <trkpt lat="48.39837" lon="2.36507">
        <ele>124.59999847412</ele>
        <time>2024-04-14T06:46:25.000Z</time>
      </trkpt>
      <trkpt lat="48.39833" lon="2.36483">
        <ele>125.19999694824</ele>
        <time>2024-04-14T06:46:29.000Z</time>
      </trkpt>
      <trkpt lat="48.39831" lon="2.36464">
        <ele>125.59999847412</ele>
        <time>2024-04-14T06:46:32.000Z</time>
      </trkpt>
      <trkpt lat="48.39827" lon="2.36437">
        <ele>126.40000152588</ele>
        <time>2024-04-14T06:46:36.000Z</time>
      </trkpt>
      <trkpt lat="48.39825" lon="2.36418">
        <ele>126.80000305176</ele>
        <time>2024-04-14T06:46:39.000Z</time>
      </trkpt>
      <trkpt lat="48.3982" lon="2.36392">
        <ele>127.40000152588</ele>
        <time>2024-04-14T06:46:43.000Z</time>
      </trkpt>
      <trkpt lat="48.39814" lon="2.36368">
        <ele>128</ele>
        <time>2024-04-14T06:46:47.000Z</time>
      </trkpt>
      <trkpt lat="48.39809" lon="2.36351">
        <ele>128.60000610352</ele>
        <time>2024-04-14T06:46:50.000Z</time>
      </trkpt>
      <trkpt lat="48.39809" lon="2.36342">
        <ele>128.60000610352</ele>
        <time>2024-04-14T06:46:52.000Z</time>
      </trkpt>
      <trkpt lat="48.3981" lon="2.36339">
        <ele>128.60000610352</ele>
        <time>2024-04-14T06:46:53.000Z</time>
      </trkpt>
      <trkpt lat="48.39815" lon="2.36339">
        <ele>129.60000610352</ele>
        <time>2024-04-14T06:46:56.000Z</time>
      </trkpt>
      <trkpt lat="48.39817" lon="2.3634">
        <ele>130.19999694824</ele>
        <time>2024-04-14T06:46:57.000Z</time>
      </trkpt>
      <trkpt lat="48.3982" lon="2.36351">
        <ele>130.60000610352</ele>
        <time>2024-04-14T06:47:00.000Z</time>
      </trkpt>
      <trkpt lat="48.39827" lon="2.36365">
        <ele>130.39999389648</ele>
        <time>2024-04-14T06:47:04.000Z</time>
      </trkpt>
      <trkpt lat="48.3983" lon="2.36375">
        <ele>129.60000610352</ele>
        <time>2024-04-14T06:47:06.000Z</time>
      </trkpt>
      <trkpt lat="48.39831" lon="2.36387">
        <ele>129.60000610352</ele>
        <time>2024-04-14T06:47:08.000Z</time>
      </trkpt>
      <trkpt lat="48.39836" lon="2.36435">
        <ele>130</ele>
        <time>2024-04-14T06:47:16.000Z</time>
      </trkpt>
      <trkpt lat="48.39842" lon="2.36478">
        <ele>129.39999389648</ele>
        <time>2024-04-14T06:47:23.000Z</time>
      </trkpt>
      <trkpt lat="48.39843" lon="2.36483">
        <ele>129.19999694824</ele>
        <time>2024-04-14T06:47:24.000Z</time>
      </trkpt>
      <trkpt lat="48.3985" lon="2.36502">
        <ele>127.80000305176</ele>
        <time>2024-04-14T06:47:27.000Z</time>
      </trkpt>
      <trkpt lat="48.39853" lon="2.36508">
        <ele>127.19999694824</ele>
        <time>2024-04-14T06:47:28.000Z</time>
      </trkpt>
      <trkpt lat="48.39857" lon="2.36511">
        <ele>126.59999847412</ele>
        <time>2024-04-14T06:47:29.000Z</time>
      </trkpt>
      <trkpt lat="48.39866" lon="2.36515">
        <ele>125.59999847412</ele>
        <time>2024-04-14T06:47:31.000Z</time>
      </trkpt>
      <trkpt lat="48.39878" lon="2.36525">
        <ele>124.80000305176</ele>
        <time>2024-04-14T06:47:35.000Z</time>
      </trkpt>
      <trkpt lat="48.39882" lon="2.36528">
        <ele>124.19999694824</ele>
        <time>2024-04-14T06:47:36.000Z</time>
      </trkpt>
      <trkpt lat="48.39891" lon="2.36533">
        <ele>122.59999847412</ele>
        <time>2024-04-14T06:47:38.000Z</time>
      </trkpt>
      <trkpt lat="48.39896" lon="2.36535">
        <ele>121.19999694824</ele>
        <time>2024-04-14T06:47:39.000Z</time>
      </trkpt>
      <trkpt lat="48.39901" lon="2.36536">
        <ele>120.19999694824</ele>
        <time>2024-04-14T06:47:40.000Z</time>
      </trkpt>
      <trkpt lat="48.39908" lon="2.36539">
        <ele>119.19999694824</ele>
        <time>2024-04-14T06:47:42.000Z</time>
      </trkpt>
      <trkpt lat="48.3991" lon="2.36542">
        <ele>119.19999694824</ele>
        <time>2024-04-14T06:47:43.000Z</time>
      </trkpt>
      <trkpt lat="48.39912" lon="2.36546">
        <ele>119.59999847412</ele>
        <time>2024-04-14T06:47:44.000Z</time>
      </trkpt>
      <trkpt lat="48.39917" lon="2.36556">
        <ele>120</ele>
        <time>2024-04-14T06:47:47.000Z</time>
      </trkpt>
      <trkpt lat="48.39914" lon="2.36569">
        <ele>120.40000152588</ele>
        <time>2024-04-14T06:47:50.000Z</time>
      </trkpt>
      <trkpt lat="48.39912" lon="2.36578">
        <ele>120.80000305176</ele>
        <time>2024-04-14T06:47:53.000Z</time>
      </trkpt>
      <trkpt lat="48.39912" lon="2.36582">
        <ele>120.59999847412</ele>
        <time>2024-04-14T06:47:54.000Z</time>
      </trkpt>
      <trkpt lat="48.39914" lon="2.36589">
        <ele>119.40000152588</ele>
        <time>2024-04-14T06:47:56.000Z</time>
      </trkpt>
      <trkpt lat="48.39916" lon="2.36595">
        <ele>118.59999847412</ele>
        <time>2024-04-14T06:47:58.000Z</time>
      </trkpt>
      <trkpt lat="48.39917" lon="2.36598">
        <ele>118.19999694824</ele>
        <time>2024-04-14T06:47:59.000Z</time>
      </trkpt>
      <trkpt lat="48.39918" lon="2.36603">
        <ele>117</ele>
        <time>2024-04-14T06:48:01.000Z</time>
      </trkpt>
      <trkpt lat="48.39919" lon="2.36606">
        <ele>115.59999847412</ele>
        <time>2024-04-14T06:48:02.000Z</time>
      </trkpt>
      <trkpt lat="48.3992" lon="2.3661">
        <ele>114.19999694824</ele>
        <time>2024-04-14T06:48:03.000Z</time>
      </trkpt>
      <trkpt lat="48.39922" lon="2.36613">
        <ele>113.19999694824</ele>
        <time>2024-04-14T06:48:04.000Z</time>
      </trkpt>
      <trkpt lat="48.39922" lon="2.36619">
        <ele>112</ele>
        <time>2024-04-14T06:48:06.000Z</time>
      </trkpt>
      <trkpt lat="48.39922" lon="2.36623">
        <ele>111.40000152588</ele>
        <time>2024-04-14T06:48:07.000Z</time>
      </trkpt>
      <trkpt lat="48.39923" lon="2.36626">
        <ele>110.40000152588</ele>
        <time>2024-04-14T06:48:08.000Z</time>
      </trkpt>
      <trkpt lat="48.39927" lon="2.36646">
        <ele>110.40000152588</ele>
        <time>2024-04-14T06:48:12.000Z</time>
      </trkpt>
      <trkpt lat="48.39928" lon="2.36655">
        <ele>111.59999847412</ele>
        <time>2024-04-14T06:48:14.000Z</time>
      </trkpt>
      <trkpt lat="48.39929" lon="2.36673">
        <ele>111.19999694824</ele>
        <time>2024-04-14T06:48:18.000Z</time>
      </trkpt>
      <trkpt lat="48.39931" lon="2.36697">
        <ele>112.59999847412</ele>
        <time>2024-04-14T06:48:23.000Z</time>
      </trkpt>
      <trkpt lat="48.39932" lon="2.36701">
        <ele>112.80000305176</ele>
        <time>2024-04-14T06:48:24.000Z</time>
      </trkpt>
      <trkpt lat="48.39931" lon="2.3672">
        <ele>111.59999847412</ele>
        <time>2024-04-14T06:48:28.000Z</time>
      </trkpt>
      <trkpt lat="48.39932" lon="2.36726">
        <ele>111</ele>
        <time>2024-04-14T06:48:29.000Z</time>
      </trkpt>
      <trkpt lat="48.39932" lon="2.36731">
        <ele>110.19999694824</ele>
        <time>2024-04-14T06:48:30.000Z</time>
      </trkpt>
      <trkpt lat="48.39934" lon="2.3674">
        <ele>108.80000305176</ele>
        <time>2024-04-14T06:48:32.000Z</time>
      </trkpt>
      <trkpt lat="48.39936" lon="2.36749">
        <ele>107.19999694824</ele>
        <time>2024-04-14T06:48:34.000Z</time>
      </trkpt>
      <trkpt lat="48.3994" lon="2.36759">
        <ele>106.40000152588</ele>
        <time>2024-04-14T06:48:36.000Z</time>
      </trkpt>
      <trkpt lat="48.39943" lon="2.36763">
        <ele>106.19999694824</ele>
        <time>2024-04-14T06:48:37.000Z</time>
      </trkpt>
      <trkpt lat="48.39947" lon="2.36774">
        <ele>105.40000152588</ele>
        <time>2024-04-14T06:48:39.000Z</time>
      </trkpt>
      <trkpt lat="48.39949" lon="2.36779">
        <ele>105.19999694824</ele>
        <time>2024-04-14T06:48:40.000Z</time>
      </trkpt>
      <trkpt lat="48.39961" lon="2.36794">
        <ele>104.40000152588</ele>
        <time>2024-04-14T06:48:45.000Z</time>
      </trkpt>
      <trkpt lat="48.39964" lon="2.36796">
        <ele>104.19999694824</ele>
        <time>2024-04-14T06:48:46.000Z</time>
      </trkpt>
      <trkpt lat="48.39972" lon="2.36801">
        <ele>103.59999847412</ele>
        <time>2024-04-14T06:48:49.000Z</time>
      </trkpt>
      <trkpt lat="48.39977" lon="2.36807">
        <ele>103.80000305176</ele>
        <time>2024-04-14T06:48:51.000Z</time>
      </trkpt>
      <trkpt lat="48.39981" lon="2.36815">
        <ele>103.59999847412</ele>
        <time>2024-04-14T06:48:53.000Z</time>
      </trkpt>
      <trkpt lat="48.39984" lon="2.3682">
        <ele>103.80000305176</ele>
        <time>2024-04-14T06:48:55.000Z</time>
      </trkpt>
      <trkpt lat="48.3999" lon="2.3684">
        <ele>104.40000152588</ele>
        <time>2024-04-14T06:49:00.000Z</time>
      </trkpt>
      <trkpt lat="48.39998" lon="2.36872">
        <ele>103.80000305176</ele>
        <time>2024-04-14T06:49:06.000Z</time>
      </trkpt>
      <trkpt lat="48.40001" lon="2.36887">
        <ele>103.59999847412</ele>
        <time>2024-04-14T06:49:10.000Z</time>
      </trkpt>
      <trkpt lat="48.40007" lon="2.36893">
        <ele>102.59999847412</ele>
        <time>2024-04-14T06:49:12.000Z</time>
      </trkpt>
      <trkpt lat="48.4001" lon="2.369">
        <ele>102</ele>
        <time>2024-04-14T06:49:14.000Z</time>
      </trkpt>
      <trkpt lat="48.40014" lon="2.36913">
        <ele>101.40000152588</ele>
        <time>2024-04-14T06:49:17.000Z</time>
      </trkpt>
      <trkpt lat="48.40014" lon="2.36925">
        <ele>101.59999847412</ele>
        <time>2024-04-14T06:49:20.000Z</time>
      </trkpt>
      <trkpt lat="48.40016" lon="2.36953">
        <ele>101.19999694824</ele>
        <time>2024-04-14T06:49:26.000Z</time>
      </trkpt>
      <trkpt lat="48.40017" lon="2.36959">
        <ele>100</ele>
        <time>2024-04-14T06:49:27.000Z</time>
      </trkpt>
      <trkpt lat="48.4002" lon="2.3698">
        <ele>100.59999847412</ele>
        <time>2024-04-14T06:49:31.000Z</time>
      </trkpt>
      <trkpt lat="48.40022" lon="2.36987">
        <ele>101.19999694824</ele>
        <time>2024-04-14T06:49:33.000Z</time>
      </trkpt>
      <trkpt lat="48.40029" lon="2.37001">
        <ele>101.80000305176</ele>
        <time>2024-04-14T06:49:37.000Z</time>
      </trkpt>
      <trkpt lat="48.40048" lon="2.37028">
        <ele>100.19999694824</ele>
        <time>2024-04-14T06:49:45.000Z</time>
      </trkpt>
      <trkpt lat="48.40051" lon="2.37031">
        <ele>100</ele>
        <time>2024-04-14T06:49:46.000Z</time>
      </trkpt>
      <trkpt lat="48.40059" lon="2.37037">
        <ele>98.800003051758</ele>
        <time>2024-04-14T06:49:48.000Z</time>
      </trkpt>
      <trkpt lat="48.40076" lon="2.37048">
        <ele>96.800003051758</ele>
        <time>2024-04-14T06:49:51.000Z</time>
      </trkpt>
      <trkpt lat="48.40086" lon="2.37055">
        <ele>95.400001525879</ele>
        <time>2024-04-14T06:49:53.000Z</time>
      </trkpt>
      <trkpt lat="48.40094" lon="2.37059">
        <ele>94.199996948242</ele>
        <time>2024-04-14T06:49:56.000Z</time>
      </trkpt>
      <trkpt lat="48.40097" lon="2.37061">
        <ele>93.599998474121</ele>
        <time>2024-04-14T06:49:57.000Z</time>
      </trkpt>
      <trkpt lat="48.40099" lon="2.37063">
        <ele>93.199996948242</ele>
        <time>2024-04-14T06:49:58.000Z</time>
      </trkpt>
      <trkpt lat="48.4011" lon="2.37072">
        <ele>93</ele>
        <time>2024-04-14T06:50:03.000Z</time>
      </trkpt>
      <trkpt lat="48.40119" lon="2.37084">
        <ele>92.199996948242</ele>
        <time>2024-04-14T06:50:08.000Z</time>
      </trkpt>
      <trkpt lat="48.40121" lon="2.37088">
        <ele>91.800003051758</ele>
        <time>2024-04-14T06:50:09.000Z</time>
      </trkpt>
      <trkpt lat="48.40129" lon="2.37101">
        <ele>92.800003051758</ele>
        <time>2024-04-14T06:50:14.000Z</time>
      </trkpt>
      <trkpt lat="48.40137" lon="2.3711">
        <ele>93.199996948242</ele>
        <time>2024-04-14T06:50:20.000Z</time>
      </trkpt>
      <trkpt lat="48.40137" lon="2.37111">
        <ele>93.199996948242</ele>
        <time>2024-04-14T06:50:21.000Z</time>
      </trkpt>
      <trkpt lat="48.40138" lon="2.37112">
        <ele>93.199996948242</ele>
        <time>2024-04-14T06:50:28.000Z</time>
      </trkpt>
      <trkpt lat="48.40138" lon="2.37112">
        <ele>93.400001525879</ele>
        <time>2024-04-14T06:50:38.000Z</time>
      </trkpt>
      <trkpt lat="48.40138" lon="2.37112">
        <ele>93.199996948242</ele>
        <time>2024-04-14T06:50:52.000Z</time>
      </trkpt>
      <trkpt lat="48.40138" lon="2.37113">
        <ele>93.199996948242</ele>
        <time>2024-04-14T06:51:03.000Z</time>
      </trkpt>
      <trkpt lat="48.40138" lon="2.37113">
        <ele>93.400001525879</ele>
        <time>2024-04-14T06:51:14.000Z</time>
      </trkpt>
      <trkpt lat="48.40138" lon="2.37113">
        <ele>93.400001525879</ele>
        <time>2024-04-14T06:51:24.000Z</time>
      </trkpt>
      <trkpt lat="48.40138" lon="2.37113">
        <ele>93.199996948242</ele>
        <time>2024-04-14T06:51:35.000Z</time>
      </trkpt>
      <trkpt lat="48.40139" lon="2.37114">
        <ele>93.199996948242</ele>
        <time>2024-04-14T06:51:46.000Z</time>
      </trkpt>
      <trkpt lat="48.40141" lon="2.37114">
        <ele>93.199996948242</ele>
        <time>2024-04-14T06:51:57.000Z</time>
      </trkpt>
      <trkpt lat="48.40151" lon="2.37118">
        <ele>91.599998474121</ele>
        <time>2024-04-14T06:52:00.000Z</time>
      </trkpt>
      <trkpt lat="48.40158" lon="2.37121">
        <ele>90.199996948242</ele>
        <time>2024-04-14T06:52:02.000Z</time>
      </trkpt>
      <trkpt lat="48.40161" lon="2.37124">
        <ele>89.599998474121</ele>
        <time>2024-04-14T06:52:03.000Z</time>
      </trkpt>
      <trkpt lat="48.40162" lon="2.37128">
        <ele>89.199996948242</ele>
        <time>2024-04-14T06:52:04.000Z</time>
      </trkpt>
      <trkpt lat="48.40163" lon="2.37138">
        <ele>90</ele>
        <time>2024-04-14T06:52:07.000Z</time>
      </trkpt>
      <trkpt lat="48.40162" lon="2.37143">
        <ele>90.400001525879</ele>
        <time>2024-04-14T06:52:08.000Z</time>
      </trkpt>
      <trkpt lat="48.4016" lon="2.37154">
        <ele>91.199996948242</ele>
        <time>2024-04-14T06:52:12.000Z</time>
      </trkpt>
      <trkpt lat="48.4016" lon="2.37155">
        <ele>91.199996948242</ele>
        <time>2024-04-14T06:52:13.000Z</time>
      </trkpt>
      <trkpt lat="48.40159" lon="2.37157">
        <ele>91.599998474121</ele>
        <time>2024-04-14T06:52:14.000Z</time>
      </trkpt>
      <trkpt lat="48.40156" lon="2.37163">
        <ele>92.599998474121</ele>
        <time>2024-04-14T06:52:16.000Z</time>
      </trkpt>
      <trkpt lat="48.40152" lon="2.37171">
        <ele>93.199996948242</ele>
        <time>2024-04-14T06:52:18.000Z</time>
      </trkpt>
      <trkpt lat="48.4015" lon="2.37175">
        <ele>93.800003051758</ele>
        <time>2024-04-14T06:52:19.000Z</time>
      </trkpt>
      <trkpt lat="48.40146" lon="2.37183">
        <ele>94.800003051758</ele>
        <time>2024-04-14T06:52:21.000Z</time>
      </trkpt>
      <trkpt lat="48.40143" lon="2.3719">
        <ele>96.199996948242</ele>
        <time>2024-04-14T06:52:23.000Z</time>
      </trkpt>
      <trkpt lat="48.40142" lon="2.37198">
        <ele>97</ele>
        <time>2024-04-14T06:52:25.000Z</time>
      </trkpt>
      <trkpt lat="48.40141" lon="2.37201">
        <ele>97.199996948242</ele>
        <time>2024-04-14T06:52:26.000Z</time>
      </trkpt>
      <trkpt lat="48.40139" lon="2.3721">
        <ele>98.599998474121</ele>
        <time>2024-04-14T06:52:30.000Z</time>
      </trkpt>
      <trkpt lat="48.40139" lon="2.37215">
        <ele>99.199996948242</ele>
        <time>2024-04-14T06:52:32.000Z</time>
      </trkpt>
      <trkpt lat="48.4014" lon="2.3722">
        <ele>99.400001525879</ele>
        <time>2024-04-14T06:52:34.000Z</time>
      </trkpt>
      <trkpt lat="48.4014" lon="2.37223">
        <ele>99.599998474121</ele>
        <time>2024-04-14T06:52:35.000Z</time>
      </trkpt>
      <trkpt lat="48.40146" lon="2.37235">
        <ele>99.400001525879</ele>
        <time>2024-04-14T06:52:39.000Z</time>
      </trkpt>
      <trkpt lat="48.40146" lon="2.3724">
        <ele>98.199996948242</ele>
        <time>2024-04-14T06:52:40.000Z</time>
      </trkpt>
      <trkpt lat="48.40147" lon="2.37245">
        <ele>97.400001525879</ele>
        <time>2024-04-14T06:52:41.000Z</time>
      </trkpt>
      <trkpt lat="48.40149" lon="2.37251">
        <ele>96.199996948242</ele>
        <time>2024-04-14T06:52:42.000Z</time>
      </trkpt>
      <trkpt lat="48.40151" lon="2.37259">
        <ele>94.800003051758</ele>
        <time>2024-04-14T06:52:43.000Z</time>
      </trkpt>
      <trkpt lat="48.40151" lon="2.37272">
        <ele>93.199996948242</ele>
        <time>2024-04-14T06:52:44.000Z</time>
      </trkpt>
      <trkpt lat="48.40151" lon="2.37284">
        <ele>92.199996948242</ele>
        <time>2024-04-14T06:52:45.000Z</time>
      </trkpt>
      <trkpt lat="48.4015" lon="2.37306">
        <ele>91</ele>
        <time>2024-04-14T06:52:47.000Z</time>
      </trkpt>
      <trkpt lat="48.4015" lon="2.37323">
        <ele>90.800003051758</ele>
        <time>2024-04-14T06:52:49.000Z</time>
      </trkpt>
      <trkpt lat="48.40152" lon="2.37344">
        <ele>90.400001525879</ele>
        <time>2024-04-14T06:52:53.000Z</time>
      </trkpt>
      <trkpt lat="48.4015" lon="2.37351">
        <ele>90.800003051758</ele>
        <time>2024-04-14T06:52:55.000Z</time>
      </trkpt>
      <trkpt lat="48.40145" lon="2.37358">
        <ele>91.599998474121</ele>
        <time>2024-04-14T06:52:58.000Z</time>
      </trkpt>
      <trkpt lat="48.40141" lon="2.3736">
        <ele>92.199996948242</ele>
        <time>2024-04-14T06:53:00.000Z</time>
      </trkpt>
      <trkpt lat="48.40139" lon="2.37361">
        <ele>92.400001525879</ele>
        <time>2024-04-14T06:53:01.000Z</time>
      </trkpt>
      <trkpt lat="48.40133" lon="2.37366">
        <ele>94.199996948242</ele>
        <time>2024-04-14T06:53:04.000Z</time>
      </trkpt>
      <trkpt lat="48.40128" lon="2.3737">
        <ele>95.400001525879</ele>
        <time>2024-04-14T06:53:06.000Z</time>
      </trkpt>
      <trkpt lat="48.40121" lon="2.37377">
        <ele>96.400001525879</ele>
        <time>2024-04-14T06:53:09.000Z</time>
      </trkpt>
      <trkpt lat="48.40117" lon="2.37383">
        <ele>97</ele>
        <time>2024-04-14T06:53:12.000Z</time>
      </trkpt>
      <trkpt lat="48.40119" lon="2.37386">
        <ele>96.199996948242</ele>
        <time>2024-04-14T06:53:16.000Z</time>
      </trkpt>
      <trkpt lat="48.40121" lon="2.37385">
        <ele>95.800003051758</ele>
        <time>2024-04-14T06:53:17.000Z</time>
      </trkpt>
      <trkpt lat="48.40123" lon="2.37385">
        <ele>95.400001525879</ele>
        <time>2024-04-14T06:53:18.000Z</time>
      </trkpt>
      <trkpt lat="48.40126" lon="2.37386">
        <ele>95.599998474121</ele>
        <time>2024-04-14T06:53:21.000Z</time>
      </trkpt>
      <trkpt lat="48.40134" lon="2.3739">
        <ele>96.400001525879</ele>
        <time>2024-04-14T06:53:27.000Z</time>
      </trkpt>
      <trkpt lat="48.40136" lon="2.37392">
        <ele>97.199996948242</ele>
        <time>2024-04-14T06:53:28.000Z</time>
      </trkpt>
      <trkpt lat="48.40139" lon="2.37395">
        <ele>98.400001525879</ele>
        <time>2024-04-14T06:53:31.000Z</time>
      </trkpt>
      <trkpt lat="48.4014" lon="2.37397">
        <ele>98.599998474121</ele>
        <time>2024-04-14T06:53:33.000Z</time>
      </trkpt>
      <trkpt lat="48.40139" lon="2.374">
        <ele>98.400001525879</ele>
        <time>2024-04-14T06:53:35.000Z</time>
      </trkpt>
      <trkpt lat="48.40135" lon="2.37404">
        <ele>98</ele>
        <time>2024-04-14T06:53:38.000Z</time>
      </trkpt>
      <trkpt lat="48.40133" lon="2.37413">
        <ele>98.599998474121</ele>
        <time>2024-04-14T06:53:42.000Z</time>
      </trkpt>
      <trkpt lat="48.40133" lon="2.37418">
        <ele>99</ele>
        <time>2024-04-14T06:53:44.000Z</time>
      </trkpt>
      <trkpt lat="48.40134" lon="2.37425">
        <ele>99.400001525879</ele>
        <time>2024-04-14T06:53:46.000Z</time>
      </trkpt>
      <trkpt lat="48.40137" lon="2.37438">
        <ele>100.40000152588</ele>
        <time>2024-04-14T06:53:50.000Z</time>
      </trkpt>
      <trkpt lat="48.40138" lon="2.3744">
        <ele>100.80000305176</ele>
        <time>2024-04-14T06:53:51.000Z</time>
      </trkpt>
      <trkpt lat="48.40134" lon="2.37461">
        <ele>99.599998474121</ele>
        <time>2024-04-14T06:53:57.000Z</time>
      </trkpt>
      <trkpt lat="48.40135" lon="2.37465">
        <ele>99.599998474121</ele>
        <time>2024-04-14T06:53:58.000Z</time>
      </trkpt>
      <trkpt lat="48.40139" lon="2.37472">
        <ele>100.19999694824</ele>
        <time>2024-04-14T06:54:00.000Z</time>
      </trkpt>
      <trkpt lat="48.4014" lon="2.37475">
        <ele>100.59999847412</ele>
        <time>2024-04-14T06:54:01.000Z</time>
      </trkpt>
      <trkpt lat="48.40143" lon="2.37484">
        <ele>101.59999847412</ele>
        <time>2024-04-14T06:54:04.000Z</time>
      </trkpt>
      <trkpt lat="48.40145" lon="2.3749">
        <ele>103.19999694824</ele>
        <time>2024-04-14T06:54:07.000Z</time>
      </trkpt>
      <trkpt lat="48.40146" lon="2.37492">
        <ele>103.80000305176</ele>
        <time>2024-04-14T06:54:08.000Z</time>
      </trkpt>
      <trkpt lat="48.40147" lon="2.37492">
        <ele>104.19999694824</ele>
        <time>2024-04-14T06:54:09.000Z</time>
      </trkpt>
      <trkpt lat="48.40149" lon="2.37495">
        <ele>105.40000152588</ele>
        <time>2024-04-14T06:54:12.000Z</time>
      </trkpt>
      <trkpt lat="48.40149" lon="2.37497">
        <ele>105.80000305176</ele>
        <time>2024-04-14T06:54:13.000Z</time>
      </trkpt>
      <trkpt lat="48.40149" lon="2.37499">
        <ele>106</ele>
        <time>2024-04-14T06:54:14.000Z</time>
      </trkpt>
      <trkpt lat="48.40149" lon="2.37508">
        <ele>104.40000152588</ele>
        <time>2024-04-14T06:54:17.000Z</time>
      </trkpt>
      <trkpt lat="48.40149" lon="2.37511">
        <ele>104.19999694824</ele>
        <time>2024-04-14T06:54:18.000Z</time>
      </trkpt>
      <trkpt lat="48.40157" lon="2.3752">
        <ele>104.59999847412</ele>
        <time>2024-04-14T06:54:23.000Z</time>
      </trkpt>
      <trkpt lat="48.4016" lon="2.37522">
        <ele>105.40000152588</ele>
        <time>2024-04-14T06:54:25.000Z</time>
      </trkpt>
      <trkpt lat="48.40164" lon="2.37524">
        <ele>106.59999847412</ele>
        <time>2024-04-14T06:54:28.000Z</time>
      </trkpt>
      <trkpt lat="48.40168" lon="2.37526">
        <ele>108</ele>
        <time>2024-04-14T06:54:31.000Z</time>
      </trkpt>
      <trkpt lat="48.40172" lon="2.37527">
        <ele>109.19999694824</ele>
        <time>2024-04-14T06:54:34.000Z</time>
      </trkpt>
      <trkpt lat="48.40176" lon="2.37529">
        <ele>110.19999694824</ele>
        <time>2024-04-14T06:54:37.000Z</time>
      </trkpt>
      <trkpt lat="48.40188" lon="2.37531">
        <ele>111.40000152588</ele>
        <time>2024-04-14T06:54:44.000Z</time>
      </trkpt>
      <trkpt lat="48.40196" lon="2.37532">
        <ele>112.19999694824</ele>
        <time>2024-04-14T06:54:49.000Z</time>
      </trkpt>
      <trkpt lat="48.40198" lon="2.37531">
        <ele>112.40000152588</ele>
        <time>2024-04-14T06:54:51.000Z</time>
      </trkpt>
      <trkpt lat="48.40204" lon="2.37532">
        <ele>112.40000152588</ele>
        <time>2024-04-14T06:54:55.000Z</time>
      </trkpt>
      <trkpt lat="48.40207" lon="2.37531">
        <ele>112.19999694824</ele>
        <time>2024-04-14T06:54:58.000Z</time>
      </trkpt>
      <trkpt lat="48.40208" lon="2.3753">
        <ele>112.40000152588</ele>
        <time>2024-04-14T06:55:01.000Z</time>
      </trkpt>
      <trkpt lat="48.4021" lon="2.37532">
        <ele>111.19999694824</ele>
        <time>2024-04-14T06:55:07.000Z</time>
      </trkpt>
      <trkpt lat="48.40213" lon="2.37535">
        <ele>110.59999847412</ele>
        <time>2024-04-14T06:55:08.000Z</time>
      </trkpt>
      <trkpt lat="48.40215" lon="2.37539">
        <ele>109.80000305176</ele>
        <time>2024-04-14T06:55:09.000Z</time>
      </trkpt>
      <trkpt lat="48.40218" lon="2.37543">
        <ele>108.59999847412</ele>
        <time>2024-04-14T06:55:10.000Z</time>
      </trkpt>
      <trkpt lat="48.40221" lon="2.37546">
        <ele>107.59999847412</ele>
        <time>2024-04-14T06:55:11.000Z</time>
      </trkpt>
      <trkpt lat="48.40224" lon="2.37549">
        <ele>106.59999847412</ele>
        <time>2024-04-14T06:55:12.000Z</time>
      </trkpt>
      <trkpt lat="48.40227" lon="2.37551">
        <ele>105.80000305176</ele>
        <time>2024-04-14T06:55:13.000Z</time>
      </trkpt>
      <trkpt lat="48.40233" lon="2.37556">
        <ele>104.40000152588</ele>
        <time>2024-04-14T06:55:15.000Z</time>
      </trkpt>
      <trkpt lat="48.40235" lon="2.3756">
        <ele>103.59999847412</ele>
        <time>2024-04-14T06:55:16.000Z</time>
      </trkpt>
      <trkpt lat="48.40237" lon="2.37564">
        <ele>103</ele>
        <time>2024-04-14T06:55:17.000Z</time>
      </trkpt>
      <trkpt lat="48.40242" lon="2.37571">
        <ele>101.80000305176</ele>
        <time>2024-04-14T06:55:19.000Z</time>
      </trkpt>
      <trkpt lat="48.40248" lon="2.37576">
        <ele>100.19999694824</ele>
        <time>2024-04-14T06:55:21.000Z</time>
      </trkpt>
      <trkpt lat="48.40256" lon="2.37579">
        <ele>98.400001525879</ele>
        <time>2024-04-14T06:55:23.000Z</time>
      </trkpt>
      <trkpt lat="48.40266" lon="2.37577">
        <ele>96.800003051758</ele>
        <time>2024-04-14T06:55:25.000Z</time>
      </trkpt>
      <trkpt lat="48.40275" lon="2.3757">
        <ele>95</ele>
        <time>2024-04-14T06:55:27.000Z</time>
      </trkpt>
      <trkpt lat="48.40278" lon="2.37566">
        <ele>93.599998474121</ele>
        <time>2024-04-14T06:55:28.000Z</time>
      </trkpt>
      <trkpt lat="48.4028" lon="2.37562">
        <ele>93.199996948242</ele>
        <time>2024-04-14T06:55:29.000Z</time>
      </trkpt>
      <trkpt lat="48.40286" lon="2.37557">
        <ele>91.800003051758</ele>
        <time>2024-04-14T06:55:31.000Z</time>
      </trkpt>
      <trkpt lat="48.4029" lon="2.37556">
        <ele>90.800003051758</ele>
        <time>2024-04-14T06:55:32.000Z</time>
      </trkpt>
      <trkpt lat="48.40295" lon="2.3756">
        <ele>89.599998474121</ele>
        <time>2024-04-14T06:55:33.000Z</time>
      </trkpt>
      <trkpt lat="48.40299" lon="2.37563">
        <ele>88.599998474121</ele>
        <time>2024-04-14T06:55:34.000Z</time>
      </trkpt>
      <trkpt lat="48.40303" lon="2.37564">
        <ele>87.199996948242</ele>
        <time>2024-04-14T06:55:35.000Z</time>
      </trkpt>
      <trkpt lat="48.40311" lon="2.37559">
        <ele>85.800003051758</ele>
        <time>2024-04-14T06:55:37.000Z</time>
      </trkpt>
      <trkpt lat="48.40318" lon="2.37552">
        <ele>85.199996948242</ele>
        <time>2024-04-14T06:55:39.000Z</time>
      </trkpt>
      <trkpt lat="48.4032" lon="2.37545">
        <ele>84.800003051758</ele>
        <time>2024-04-14T06:55:41.000Z</time>
      </trkpt>
      <trkpt lat="48.4032" lon="2.37542">
        <ele>84.800003051758</ele>
        <time>2024-04-14T06:55:42.000Z</time>
      </trkpt>
      <trkpt lat="48.40319" lon="2.37537">
        <ele>85.199996948242</ele>
        <time>2024-04-14T06:55:45.000Z</time>
      </trkpt>
      <trkpt lat="48.40316" lon="2.37535">
        <ele>85</ele>
        <time>2024-04-14T06:55:49.000Z</time>
      </trkpt>
      <trkpt lat="48.40312" lon="2.37533">
        <ele>86</ele>
        <time>2024-04-14T06:55:52.000Z</time>
      </trkpt>
      <trkpt lat="48.4031" lon="2.3753">
        <ele>87</ele>
        <time>2024-04-14T06:55:54.000Z</time>
      </trkpt>
      <trkpt lat="48.40308" lon="2.37526">
        <ele>87.800003051758</ele>
        <time>2024-04-14T06:55:58.000Z</time>
      </trkpt>
      <trkpt lat="48.40306" lon="2.37525">
        <ele>87.599998474121</ele>
        <time>2024-04-14T06:56:04.000Z</time>
      </trkpt>
      <trkpt lat="48.40306" lon="2.37525">
        <ele>88</ele>
        <time>2024-04-14T06:56:14.000Z</time>
      </trkpt>
      <trkpt lat="48.40306" lon="2.37525">
        <ele>87.599998474121</ele>
        <time>2024-04-14T06:56:28.000Z</time>
      </trkpt>
      <trkpt lat="48.40306" lon="2.37522">
        <ele>87.599998474121</ele>
        <time>2024-04-14T06:56:38.000Z</time>
      </trkpt>
      <trkpt lat="48.40304" lon="2.37519">
        <ele>87.599998474121</ele>
        <time>2024-04-14T06:56:39.000Z</time>
      </trkpt>
      <trkpt lat="48.40299" lon="2.3751">
        <ele>88.199996948242</ele>
        <time>2024-04-14T06:56:42.000Z</time>
      </trkpt>
      <trkpt lat="48.40295" lon="2.37499">
        <ele>88.800003051758</ele>
        <time>2024-04-14T06:56:45.000Z</time>
      </trkpt>
      <trkpt lat="48.40293" lon="2.37492">
        <ele>89.199996948242</ele>
        <time>2024-04-14T06:56:47.000Z</time>
      </trkpt>
      <trkpt lat="48.40287" lon="2.37483">
        <ele>90.400001525879</ele>
        <time>2024-04-14T06:56:51.000Z</time>
      </trkpt>
      <trkpt lat="48.40283" lon="2.37482">
        <ele>91.800003051758</ele>
        <time>2024-04-14T06:56:53.000Z</time>
      </trkpt>
      <trkpt lat="48.40282" lon="2.37481">
        <ele>92.400001525879</ele>
        <time>2024-04-14T06:56:54.000Z</time>
      </trkpt>
      <trkpt lat="48.40281" lon="2.3748">
        <ele>93</ele>
        <time>2024-04-14T06:56:55.000Z</time>
      </trkpt>
      <trkpt lat="48.40278" lon="2.37476">
        <ele>94.400001525879</ele>
        <time>2024-04-14T06:56:59.000Z</time>
      </trkpt>
      <trkpt lat="48.40274" lon="2.37467">
        <ele>94.599998474121</ele>
        <time>2024-04-14T06:57:03.000Z</time>
      </trkpt>
      <trkpt lat="48.40274" lon="2.37465">
        <ele>93.599998474121</ele>
        <time>2024-04-14T06:57:04.000Z</time>
      </trkpt>
      <trkpt lat="48.40274" lon="2.37462">
        <ele>93</ele>
        <time>2024-04-14T06:57:05.000Z</time>
      </trkpt>
      <trkpt lat="48.40276" lon="2.37457">
        <ele>91.800003051758</ele>
        <time>2024-04-14T06:57:07.000Z</time>
      </trkpt>
      <trkpt lat="48.40279" lon="2.37451">
        <ele>90.199996948242</ele>
        <time>2024-04-14T06:57:09.000Z</time>
      </trkpt>
      <trkpt lat="48.40281" lon="2.37444">
        <ele>88.400001525879</ele>
        <time>2024-04-14T06:57:11.000Z</time>
      </trkpt>
      <trkpt lat="48.40283" lon="2.37437">
        <ele>87.199996948242</ele>
        <time>2024-04-14T06:57:13.000Z</time>
      </trkpt>
      <trkpt lat="48.40284" lon="2.37429">
        <ele>86</ele>
        <time>2024-04-14T06:57:15.000Z</time>
      </trkpt>
      <trkpt lat="48.40285" lon="2.37418">
        <ele>84.599998474121</ele>
        <time>2024-04-14T06:57:17.000Z</time>
      </trkpt>
      <trkpt lat="48.40286" lon="2.37412">
        <ele>82.800003051758</ele>
        <time>2024-04-14T06:57:19.000Z</time>
      </trkpt>
      <trkpt lat="48.40292" lon="2.37413">
        <ele>82.400001525879</ele>
        <time>2024-04-14T06:57:23.000Z</time>
      </trkpt>
      <trkpt lat="48.40294" lon="2.37416">
        <ele>82.400001525879</ele>
        <time>2024-04-14T06:57:25.000Z</time>
      </trkpt>
      <trkpt lat="48.40299" lon="2.3742">
        <ele>81.199996948242</ele>
        <time>2024-04-14T06:57:28.000Z</time>
      </trkpt>
      <trkpt lat="48.40301" lon="2.3742">
        <ele>81</ele>
        <time>2024-04-14T06:57:29.000Z</time>
      </trkpt>
      <trkpt lat="48.40317" lon="2.37417">
        <ele>80.800003051758</ele>
        <time>2024-04-14T06:57:33.000Z</time>
      </trkpt>
      <trkpt lat="48.40329" lon="2.37416">
        <ele>80.800003051758</ele>
        <time>2024-04-14T06:57:35.000Z</time>
      </trkpt>
      <trkpt lat="48.4034" lon="2.37422">
        <ele>80.400001525879</ele>
        <time>2024-04-14T06:57:37.000Z</time>
      </trkpt>
      <trkpt lat="48.4035" lon="2.37432">
        <ele>80</ele>
        <time>2024-04-14T06:57:39.000Z</time>
      </trkpt>
      <trkpt lat="48.40357" lon="2.37445">
        <ele>79.599998474121</ele>
        <time>2024-04-14T06:57:41.000Z</time>
      </trkpt>
      <trkpt lat="48.40361" lon="2.37475">
        <ele>79</ele>
        <time>2024-04-14T06:57:45.000Z</time>
      </trkpt>
      <trkpt lat="48.40361" lon="2.37525">
        <ele>78.800003051758</ele>
        <time>2024-04-14T06:57:51.000Z</time>
      </trkpt>
      <trkpt lat="48.4036" lon="2.3756">
        <ele>78</ele>
        <time>2024-04-14T06:57:55.000Z</time>
      </trkpt>
      <trkpt lat="48.4036" lon="2.37569">
        <ele>77.800003051758</ele>
        <time>2024-04-14T06:57:56.000Z</time>
      </trkpt>
      <trkpt lat="48.40361" lon="2.37589">
        <ele>77.800003051758</ele>
        <time>2024-04-14T06:57:58.000Z</time>
      </trkpt>
      <trkpt lat="48.40357" lon="2.3762">
        <ele>77.199996948242</ele>
        <time>2024-04-14T06:58:01.000Z</time>
      </trkpt>
      <trkpt lat="48.40355" lon="2.37631">
        <ele>77.400001525879</ele>
        <time>2024-04-14T06:58:02.000Z</time>
      </trkpt>
      <trkpt lat="48.40346" lon="2.37679">
        <ele>76.800003051758</ele>
        <time>2024-04-14T06:58:07.000Z</time>
      </trkpt>
      <trkpt lat="48.40339" lon="2.37706">
        <ele>76.400001525879</ele>
        <time>2024-04-14T06:58:10.000Z</time>
      </trkpt>
      <trkpt lat="48.40336" lon="2.37715">
        <ele>76.199996948242</ele>
        <time>2024-04-14T06:58:11.000Z</time>
      </trkpt>
      <trkpt lat="48.40324" lon="2.37736">
        <ele>76.199996948242</ele>
        <time>2024-04-14T06:58:14.000Z</time>
      </trkpt>
      <trkpt lat="48.40319" lon="2.37743">
        <ele>76.199996948242</ele>
        <time>2024-04-14T06:58:15.000Z</time>
      </trkpt>
      <trkpt lat="48.40314" lon="2.37749">
        <ele>75.800003051758</ele>
        <time>2024-04-14T06:58:16.000Z</time>
      </trkpt>
      <trkpt lat="48.40289" lon="2.37781">
        <ele>75.800003051758</ele>
        <time>2024-04-14T06:58:21.000Z</time>
      </trkpt>
      <trkpt lat="48.40286" lon="2.37788">
        <ele>75.800003051758</ele>
        <time>2024-04-14T06:58:22.000Z</time>
      </trkpt>
      <trkpt lat="48.40272" lon="2.37812">
        <ele>75.800003051758</ele>
        <time>2024-04-14T06:58:26.000Z</time>
      </trkpt>
      <trkpt lat="48.40252" lon="2.37848">
        <ele>75.199996948242</ele>
        <time>2024-04-14T06:58:33.000Z</time>
      </trkpt>
      <trkpt lat="48.4025" lon="2.3786">
        <ele>75</ele>
        <time>2024-04-14T06:58:35.000Z</time>
      </trkpt>
      <trkpt lat="48.40251" lon="2.37866">
        <ele>74.800003051758</ele>
        <time>2024-04-14T06:58:36.000Z</time>
      </trkpt>
      <trkpt lat="48.40256" lon="2.37878">
        <ele>74.599998474121</ele>
        <time>2024-04-14T06:58:38.000Z</time>
      </trkpt>
      <trkpt lat="48.40259" lon="2.37884">
        <ele>74.400001525879</ele>
        <time>2024-04-14T06:58:39.000Z</time>
      </trkpt>
      <trkpt lat="48.40261" lon="2.37891">
        <ele>73.800003051758</ele>
        <time>2024-04-14T06:58:40.000Z</time>
      </trkpt>
      <trkpt lat="48.40262" lon="2.37899">
        <ele>73.599998474121</ele>
        <time>2024-04-14T06:58:41.000Z</time>
      </trkpt>
      <trkpt lat="48.40262" lon="2.37907">
        <ele>73.599998474121</ele>
        <time>2024-04-14T06:58:42.000Z</time>
      </trkpt>
      <trkpt lat="48.40257" lon="2.37929">
        <ele>73.800003051758</ele>
        <time>2024-04-14T06:58:45.000Z</time>
      </trkpt>
      <trkpt lat="48.40255" lon="2.37937">
        <ele>73.800003051758</ele>
        <time>2024-04-14T06:58:46.000Z</time>
      </trkpt>
      <trkpt lat="48.40235" lon="2.38006">
        <ele>72.599998474121</ele>
        <time>2024-04-14T06:58:55.000Z</time>
      </trkpt>
      <trkpt lat="48.4023" lon="2.38022">
        <ele>72.599998474121</ele>
        <time>2024-04-14T06:58:57.000Z</time>
      </trkpt>
      <trkpt lat="48.40217" lon="2.38071">
        <ele>71.800003051758</ele>
        <time>2024-04-14T06:59:03.000Z</time>
      </trkpt>
      <trkpt lat="48.40206" lon="2.38113">
        <ele>71.400001525879</ele>
        <time>2024-04-14T06:59:08.000Z</time>
      </trkpt>
      <trkpt lat="48.40197" lon="2.38135">
        <ele>71.400001525879</ele>
        <time>2024-04-14T06:59:11.000Z</time>
      </trkpt>
      <trkpt lat="48.40188" lon="2.38137">
        <ele>71.400001525879</ele>
        <time>2024-04-14T06:59:13.000Z</time>
      </trkpt>
      <trkpt lat="48.40176" lon="2.38135">
        <ele>71.199996948242</ele>
        <time>2024-04-14T06:59:15.000Z</time>
      </trkpt>
      <trkpt lat="48.40157" lon="2.3813">
        <ele>71.199996948242</ele>
        <time>2024-04-14T06:59:18.000Z</time>
      </trkpt>
      <trkpt lat="48.40109" lon="2.38119">
        <ele>70.800003051758</ele>
        <time>2024-04-14T06:59:25.000Z</time>
      </trkpt>
      <trkpt lat="48.40087" lon="2.38114">
        <ele>70.400001525879</ele>
        <time>2024-04-14T06:59:28.000Z</time>
      </trkpt>
      <trkpt lat="48.40044" lon="2.38106">
        <ele>70.599998474121</ele>
        <time>2024-04-14T06:59:34.000Z</time>
      </trkpt>
      <trkpt lat="48.39989" lon="2.38096">
        <ele>71.400001525879</ele>
        <time>2024-04-14T06:59:42.000Z</time>
      </trkpt>
      <trkpt lat="48.39982" lon="2.38095">
        <ele>71.400001525879</ele>
        <time>2024-04-14T06:59:43.000Z</time>
      </trkpt>
      <trkpt lat="48.39937" lon="2.38087">
        <ele>72.400001525879</ele>
        <time>2024-04-14T06:59:50.000Z</time>
      </trkpt>
      <trkpt lat="48.39931" lon="2.38087">
        <ele>72.599998474121</ele>
        <time>2024-04-14T06:59:51.000Z</time>
      </trkpt>
      <trkpt lat="48.39899" lon="2.3809">
        <ele>73.400001525879</ele>
        <time>2024-04-14T06:59:56.000Z</time>
      </trkpt>
      <trkpt lat="48.39854" lon="2.38106">
        <ele>73.199996948242</ele>
        <time>2024-04-14T07:00:03.000Z</time>
      </trkpt>
      <trkpt lat="48.39807" lon="2.38113">
        <ele>73</ele>
        <time>2024-04-14T07:00:10.000Z</time>
      </trkpt>
      <trkpt lat="48.39794" lon="2.3811">
        <ele>72.800003051758</ele>
        <time>2024-04-14T07:00:12.000Z</time>
      </trkpt>
      <trkpt lat="48.39782" lon="2.38101">
        <ele>72.599998474121</ele>
        <time>2024-04-14T07:00:14.000Z</time>
      </trkpt>
      <trkpt lat="48.39747" lon="2.38062">
        <ele>72.400001525879</ele>
        <time>2024-04-14T07:00:21.000Z</time>
      </trkpt>
      <trkpt lat="48.39703" lon="2.38022">
        <ele>72.199996948242</ele>
        <time>2024-04-14T07:00:29.000Z</time>
      </trkpt>
      <trkpt lat="48.39665" lon="2.37989">
        <ele>71.599998474121</ele>
        <time>2024-04-14T07:00:37.000Z</time>
      </trkpt>
      <trkpt lat="48.39652" lon="2.37986">
        <ele>71.599998474121</ele>
        <time>2024-04-14T07:00:41.000Z</time>
      </trkpt>
      <trkpt lat="48.39649" lon="2.37998">
        <ele>71.400001525879</ele>
        <time>2024-04-14T07:00:43.000Z</time>
      </trkpt>
      <trkpt lat="48.39648" lon="2.38007">
        <ele>71.199996948242</ele>
        <time>2024-04-14T07:00:44.000Z</time>
      </trkpt>
      <trkpt lat="48.39648" lon="2.38016">
        <ele>71</ele>
        <time>2024-04-14T07:00:45.000Z</time>
      </trkpt>
      <trkpt lat="48.39647" lon="2.38055">
        <ele>70</ele>
        <time>2024-04-14T07:00:49.000Z</time>
      </trkpt>
      <trkpt lat="48.39643" lon="2.38138">
        <ele>68</ele>
        <time>2024-04-14T07:00:57.000Z</time>
      </trkpt>
      <trkpt lat="48.39642" lon="2.38148">
        <ele>68.400001525879</ele>
        <time>2024-04-14T07:00:58.000Z</time>
      </trkpt>
      <trkpt lat="48.39638" lon="2.38232">
        <ele>68.199996948242</ele>
        <time>2024-04-14T07:01:07.000Z</time>
      </trkpt>
      <trkpt lat="48.39637" lon="2.38252">
        <ele>67.800003051758</ele>
        <time>2024-04-14T07:01:09.000Z</time>
      </trkpt>
      <trkpt lat="48.39635" lon="2.38301">
        <ele>68.400001525879</ele>
        <time>2024-04-14T07:01:14.000Z</time>
      </trkpt>
      <trkpt lat="48.39634" lon="2.38346">
        <ele>67.800003051758</ele>
        <time>2024-04-14T07:01:19.000Z</time>
      </trkpt>
      <trkpt lat="48.39631" lon="2.38351">
        <ele>67.599998474121</ele>
        <time>2024-04-14T07:01:20.000Z</time>
      </trkpt>
      <trkpt lat="48.39619" lon="2.38356">
        <ele>67.599998474121</ele>
        <time>2024-04-14T07:01:23.000Z</time>
      </trkpt>
      <trkpt lat="48.39613" lon="2.38355">
        <ele>67.800003051758</ele>
        <time>2024-04-14T07:01:24.000Z</time>
      </trkpt>
      <trkpt lat="48.39594" lon="2.38355">
        <ele>67.599998474121</ele>
        <time>2024-04-14T07:01:27.000Z</time>
      </trkpt>
      <trkpt lat="48.39548" lon="2.38361">
        <ele>68.199996948242</ele>
        <time>2024-04-14T07:01:34.000Z</time>
      </trkpt>
      <trkpt lat="48.39495" lon="2.38365">
        <ele>68</ele>
        <time>2024-04-14T07:01:42.000Z</time>
      </trkpt>
      <trkpt lat="48.39474" lon="2.38363">
        <ele>68</ele>
        <time>2024-04-14T07:01:46.000Z</time>
      </trkpt>
      <trkpt lat="48.39471" lon="2.38358">
        <ele>68</ele>
        <time>2024-04-14T07:01:47.000Z</time>
      </trkpt>
      <trkpt lat="48.39453" lon="2.38329">
        <ele>68.199996948242</ele>
        <time>2024-04-14T07:01:52.000Z</time>
      </trkpt>
      <trkpt lat="48.39438" lon="2.38315">
        <ele>68</ele>
        <time>2024-04-14T07:01:57.000Z</time>
      </trkpt>
      <trkpt lat="48.39433" lon="2.38326">
        <ele>68.400001525879</ele>
        <time>2024-04-14T07:02:00.000Z</time>
      </trkpt>
      <trkpt lat="48.39429" lon="2.38352">
        <ele>68.800003051758</ele>
        <time>2024-04-14T07:02:05.000Z</time>
      </trkpt>
      <trkpt lat="48.39427" lon="2.38357">
        <ele>68.599998474121</ele>
        <time>2024-04-14T07:02:06.000Z</time>
      </trkpt>
      <trkpt lat="48.39425" lon="2.38363">
        <ele>68.599998474121</ele>
        <time>2024-04-14T07:02:07.000Z</time>
      </trkpt>
      <trkpt lat="48.39423" lon="2.38385">
        <ele>68.400001525879</ele>
        <time>2024-04-14T07:02:10.000Z</time>
      </trkpt>
      <trkpt lat="48.39422" lon="2.38394">
        <ele>68.599998474121</ele>
        <time>2024-04-14T07:02:11.000Z</time>
      </trkpt>
      <trkpt lat="48.39418" lon="2.38449">
        <ele>68.400001525879</ele>
        <time>2024-04-14T07:02:17.000Z</time>
      </trkpt>
      <trkpt lat="48.39402" lon="2.38489">
        <ele>68.599998474121</ele>
        <time>2024-04-14T07:02:22.000Z</time>
      </trkpt>
      <trkpt lat="48.39373" lon="2.38555">
        <ele>68.199996948242</ele>
        <time>2024-04-14T07:02:30.000Z</time>
      </trkpt>
      <trkpt lat="48.3937" lon="2.38563">
        <ele>68.199996948242</ele>
        <time>2024-04-14T07:02:31.000Z</time>
      </trkpt>
      <trkpt lat="48.39358" lon="2.38608">
        <ele>68</ele>
        <time>2024-04-14T07:02:36.000Z</time>
      </trkpt>
      <trkpt lat="48.39341" lon="2.38661">
        <ele>68</ele>
        <time>2024-04-14T07:02:43.000Z</time>
      </trkpt>
      <trkpt lat="48.39332" lon="2.38689">
        <ele>68.199996948242</ele>
        <time>2024-04-14T07:02:47.000Z</time>
      </trkpt>
      <trkpt lat="48.39329" lon="2.38697">
        <ele>68.400001525879</ele>
        <time>2024-04-14T07:02:48.000Z</time>
      </trkpt>
      <trkpt lat="48.39317" lon="2.3875">
        <ele>68.400001525879</ele>
        <time>2024-04-14T07:02:54.000Z</time>
      </trkpt>
      <trkpt lat="48.39304" lon="2.38818">
        <ele>68.400001525879</ele>
        <time>2024-04-14T07:03:02.000Z</time>
      </trkpt>
      <trkpt lat="48.39294" lon="2.38875">
        <ele>68.400001525879</ele>
        <time>2024-04-14T07:03:09.000Z</time>
      </trkpt>
      <trkpt lat="48.39282" lon="2.38938">
        <ele>68.199996948242</ele>
        <time>2024-04-14T07:03:16.000Z</time>
      </trkpt>
      <trkpt lat="48.3927" lon="2.39">
        <ele>68.599998474121</ele>
        <time>2024-04-14T07:03:23.000Z</time>
      </trkpt>
      <trkpt lat="48.39258" lon="2.39064">
        <ele>69</ele>
        <time>2024-04-14T07:03:30.000Z</time>
      </trkpt>
      <trkpt lat="48.39247" lon="2.39122">
        <ele>68.599998474121</ele>
        <time>2024-04-14T07:03:37.000Z</time>
      </trkpt>
      <trkpt lat="48.39242" lon="2.39144">
        <ele>69.199996948242</ele>
        <time>2024-04-14T07:03:40.000Z</time>
      </trkpt>
      <trkpt lat="48.3924" lon="2.39153">
        <ele>69.199996948242</ele>
        <time>2024-04-14T07:03:42.000Z</time>
      </trkpt>
      <trkpt lat="48.39241" lon="2.39174">
        <ele>69</ele>
        <time>2024-04-14T07:03:47.000Z</time>
      </trkpt>
      <trkpt lat="48.39244" lon="2.3921">
        <ele>69.400001525879</ele>
        <time>2024-04-14T07:03:53.000Z</time>
      </trkpt>
      <trkpt lat="48.39246" lon="2.39252">
        <ele>69.599998474121</ele>
        <time>2024-04-14T07:03:59.000Z</time>
      </trkpt>
      <trkpt lat="48.39246" lon="2.39259">
        <ele>69.400001525879</ele>
        <time>2024-04-14T07:04:00.000Z</time>
      </trkpt>
      <trkpt lat="48.39253" lon="2.39324">
        <ele>70</ele>
        <time>2024-04-14T07:04:08.000Z</time>
      </trkpt>
      <trkpt lat="48.39259" lon="2.39364">
        <ele>70.199996948242</ele>
        <time>2024-04-14T07:04:13.000Z</time>
      </trkpt>
      <trkpt lat="48.39265" lon="2.39387">
        <ele>70.400001525879</ele>
        <time>2024-04-14T07:04:16.000Z</time>
      </trkpt>
      <trkpt lat="48.39284" lon="2.39453">
        <ele>70.599998474121</ele>
        <time>2024-04-14T07:04:25.000Z</time>
      </trkpt>
      <trkpt lat="48.39303" lon="2.3952">
        <ele>71</ele>
        <time>2024-04-14T07:04:34.000Z</time>
      </trkpt>
      <trkpt lat="48.39297" lon="2.39533">
        <ele>71.199996948242</ele>
        <time>2024-04-14T07:04:37.000Z</time>
      </trkpt>
      <trkpt lat="48.39293" lon="2.39532">
        <ele>71.199996948242</ele>
        <time>2024-04-14T07:04:38.000Z</time>
      </trkpt>
      <trkpt lat="48.39283" lon="2.39523">
        <ele>71.599998474121</ele>
        <time>2024-04-14T07:04:40.000Z</time>
      </trkpt>
      <trkpt lat="48.39278" lon="2.39517">
        <ele>71.800003051758</ele>
        <time>2024-04-14T07:04:41.000Z</time>
      </trkpt>
      <trkpt lat="48.3926" lon="2.39491">
        <ele>71.599998474121</ele>
        <time>2024-04-14T07:04:45.000Z</time>
      </trkpt>
      <trkpt lat="48.3924" lon="2.39444">
        <ele>71.400001525879</ele>
        <time>2024-04-14T07:04:51.000Z</time>
      </trkpt>
      <trkpt lat="48.39218" lon="2.39383">
        <ele>71</ele>
        <time>2024-04-14T07:04:58.000Z</time>
      </trkpt>
      <trkpt lat="48.39194" lon="2.39319">
        <ele>70.599998474121</ele>
        <time>2024-04-14T07:05:05.000Z</time>
      </trkpt>
      <trkpt lat="48.39179" lon="2.39284">
        <ele>71</ele>
        <time>2024-04-14T07:05:09.000Z</time>
      </trkpt>
      <trkpt lat="48.39168" lon="2.39274">
        <ele>71</ele>
        <time>2024-04-14T07:05:11.000Z</time>
      </trkpt>
      <trkpt lat="48.39147" lon="2.39269">
        <ele>71</ele>
        <time>2024-04-14T07:05:14.000Z</time>
      </trkpt>
      <trkpt lat="48.3914" lon="2.39269">
        <ele>71</ele>
        <time>2024-04-14T07:05:15.000Z</time>
      </trkpt>
      <trkpt lat="48.39108" lon="2.3926">
        <ele>71.400001525879</ele>
        <time>2024-04-14T07:05:20.000Z</time>
      </trkpt>
      <trkpt lat="48.39076" lon="2.39235">
        <ele>72.199996948242</ele>
        <time>2024-04-14T07:05:26.000Z</time>
      </trkpt>
      <trkpt lat="48.39033" lon="2.39194">
        <ele>71.599998474121</ele>
        <time>2024-04-14T07:05:34.000Z</time>
      </trkpt>
      <trkpt lat="48.38997" lon="2.39152">
        <ele>72.400001525879</ele>
        <time>2024-04-14T07:05:41.000Z</time>
      </trkpt>
      <trkpt lat="48.38987" lon="2.3914">
        <ele>72.599998474121</ele>
        <time>2024-04-14T07:05:43.000Z</time>
      </trkpt>
      <trkpt lat="48.38956" lon="2.39096">
        <ele>73.400001525879</ele>
        <time>2024-04-14T07:05:50.000Z</time>
      </trkpt>
      <trkpt lat="48.38944" lon="2.39076">
        <ele>73.400001525879</ele>
        <time>2024-04-14T07:05:53.000Z</time>
      </trkpt>
      <trkpt lat="48.3893" lon="2.39059">
        <ele>74.199996948242</ele>
        <time>2024-04-14T07:05:56.000Z</time>
      </trkpt>
      <trkpt lat="48.38919" lon="2.39051">
        <ele>74.199996948242</ele>
        <time>2024-04-14T07:05:58.000Z</time>
      </trkpt>
      <trkpt lat="48.38901" lon="2.39044">
        <ele>74.400001525879</ele>
        <time>2024-04-14T07:06:01.000Z</time>
      </trkpt>
      <trkpt lat="48.38889" lon="2.39041">
        <ele>75</ele>
        <time>2024-04-14T07:06:03.000Z</time>
      </trkpt>
      <trkpt lat="48.38865" lon="2.39037">
        <ele>75.599998474121</ele>
        <time>2024-04-14T07:06:07.000Z</time>
      </trkpt>
      <trkpt lat="48.38844" lon="2.39036">
        <ele>76.800003051758</ele>
        <time>2024-04-14T07:06:11.000Z</time>
      </trkpt>
      <trkpt lat="48.3883" lon="2.39037">
        <ele>78</ele>
        <time>2024-04-14T07:06:14.000Z</time>
      </trkpt>
      <trkpt lat="48.38809" lon="2.39036">
        <ele>78.199996948242</ele>
        <time>2024-04-14T07:06:19.000Z</time>
      </trkpt>
      <trkpt lat="48.38793" lon="2.39034">
        <ele>76.800003051758</ele>
        <time>2024-04-14T07:06:22.000Z</time>
      </trkpt>
      <trkpt lat="48.38779" lon="2.39034">
        <ele>76.199996948242</ele>
        <time>2024-04-14T07:06:24.000Z</time>
      </trkpt>
      <trkpt lat="48.38765" lon="2.39033">
        <ele>75.800003051758</ele>
        <time>2024-04-14T07:06:26.000Z</time>
      </trkpt>
      <trkpt lat="48.38731" lon="2.39034">
        <ele>75.400001525879</ele>
        <time>2024-04-14T07:06:31.000Z</time>
      </trkpt>
      <trkpt lat="48.38687" lon="2.39036">
        <ele>75.199996948242</ele>
        <time>2024-04-14T07:06:37.000Z</time>
      </trkpt>
      <trkpt lat="48.38628" lon="2.39047">
        <ele>75.400001525879</ele>
        <time>2024-04-14T07:06:45.000Z</time>
      </trkpt>
      <trkpt lat="48.38602" lon="2.39052">
        <ele>74.800003051758</ele>
        <time>2024-04-14T07:06:49.000Z</time>
      </trkpt>
      <trkpt lat="48.38589" lon="2.39056">
        <ele>75</ele>
        <time>2024-04-14T07:06:51.000Z</time>
      </trkpt>
      <trkpt lat="48.38546" lon="2.39064">
        <ele>75.199996948242</ele>
        <time>2024-04-14T07:06:58.000Z</time>
      </trkpt>
      <trkpt lat="48.38523" lon="2.3907">
        <ele>75.199996948242</ele>
        <time>2024-04-14T07:07:02.000Z</time>
      </trkpt>
      <trkpt lat="48.38518" lon="2.39074">
        <ele>75.400001525879</ele>
        <time>2024-04-14T07:07:03.000Z</time>
      </trkpt>
      <trkpt lat="48.38502" lon="2.3908">
        <ele>75.400001525879</ele>
        <time>2024-04-14T07:07:06.000Z</time>
      </trkpt>
      <trkpt lat="48.38498" lon="2.39081">
        <ele>75.400001525879</ele>
        <time>2024-04-14T07:07:07.000Z</time>
      </trkpt>
      <trkpt lat="48.38489" lon="2.39083">
        <ele>75.800003051758</ele>
        <time>2024-04-14T07:07:11.000Z</time>
      </trkpt>
      <trkpt lat="48.38488" lon="2.39088">
        <ele>76.400001525879</ele>
        <time>2024-04-14T07:07:16.000Z</time>
      </trkpt>
      <trkpt lat="48.38489" lon="2.39093">
        <ele>77</ele>
        <time>2024-04-14T07:07:18.000Z</time>
      </trkpt>
      <trkpt lat="48.3849" lon="2.39099">
        <ele>77</ele>
        <time>2024-04-14T07:07:20.000Z</time>
      </trkpt>
      <trkpt lat="48.38488" lon="2.39101">
        <ele>76.800003051758</ele>
        <time>2024-04-14T07:07:21.000Z</time>
      </trkpt>
      <trkpt lat="48.38487" lon="2.39107">
        <ele>77.599998474121</ele>
        <time>2024-04-14T07:07:24.000Z</time>
      </trkpt>
      <trkpt lat="48.38488" lon="2.3911">
        <ele>77.800003051758</ele>
        <time>2024-04-14T07:07:25.000Z</time>
      </trkpt>
      <trkpt lat="48.38487" lon="2.39113">
        <ele>78.199996948242</ele>
        <time>2024-04-14T07:07:26.000Z</time>
      </trkpt>
      <trkpt lat="48.38487" lon="2.39125">
        <ele>79</ele>
        <time>2024-04-14T07:07:30.000Z</time>
      </trkpt>
      <trkpt lat="48.38483" lon="2.39138">
        <ele>79.199996948242</ele>
        <time>2024-04-14T07:07:34.000Z</time>
      </trkpt>
      <trkpt lat="48.38479" lon="2.39142">
        <ele>79.400001525879</ele>
        <time>2024-04-14T07:07:36.000Z</time>
      </trkpt>
      <trkpt lat="48.38454" lon="2.39155">
        <ele>80.199996948242</ele>
        <time>2024-04-14T07:07:43.000Z</time>
      </trkpt>
      <trkpt lat="48.38437" lon="2.39164">
        <ele>81.400001525879</ele>
        <time>2024-04-14T07:07:49.000Z</time>
      </trkpt>
      <trkpt lat="48.38435" lon="2.39165">
        <ele>81.400001525879</ele>
        <time>2024-04-14T07:07:50.000Z</time>
      </trkpt>
      <trkpt lat="48.38423" lon="2.39171">
        <ele>82.400001525879</ele>
        <time>2024-04-14T07:07:54.000Z</time>
      </trkpt>
      <trkpt lat="48.38416" lon="2.39174">
        <ele>82.800003051758</ele>
        <time>2024-04-14T07:07:57.000Z</time>
      </trkpt>
      <trkpt lat="48.38413" lon="2.39176">
        <ele>82.599998474121</ele>
        <time>2024-04-14T07:07:58.000Z</time>
      </trkpt>
      <trkpt lat="48.38409" lon="2.39183">
        <ele>82.800003051758</ele>
        <time>2024-04-14T07:08:01.000Z</time>
      </trkpt>
      <trkpt lat="48.38412" lon="2.39192">
        <ele>83.800003051758</ele>
        <time>2024-04-14T07:08:04.000Z</time>
      </trkpt>
      <trkpt lat="48.38412" lon="2.39195">
        <ele>84</ele>
        <time>2024-04-14T07:08:05.000Z</time>
      </trkpt>
      <trkpt lat="48.38407" lon="2.39209">
        <ele>84.599998474121</ele>
        <time>2024-04-14T07:08:10.000Z</time>
      </trkpt>
      <trkpt lat="48.38406" lon="2.39212">
        <ele>84.800003051758</ele>
        <time>2024-04-14T07:08:11.000Z</time>
      </trkpt>
      <trkpt lat="48.38405" lon="2.39215">
        <ele>85</ele>
        <time>2024-04-14T07:08:12.000Z</time>
      </trkpt>
      <trkpt lat="48.38406" lon="2.39226">
        <ele>86</ele>
        <time>2024-04-14T07:08:16.000Z</time>
      </trkpt>
      <trkpt lat="48.38409" lon="2.39233">
        <ele>86.800003051758</ele>
        <time>2024-04-14T07:08:19.000Z</time>
      </trkpt>
      <trkpt lat="48.38411" lon="2.39238">
        <ele>87.199996948242</ele>
        <time>2024-04-14T07:08:21.000Z</time>
      </trkpt>
      <trkpt lat="48.38414" lon="2.39254">
        <ele>88.199996948242</ele>
        <time>2024-04-14T07:08:26.000Z</time>
      </trkpt>
      <trkpt lat="48.38414" lon="2.3926">
        <ele>88.400001525879</ele>
        <time>2024-04-14T07:08:28.000Z</time>
      </trkpt>
      <trkpt lat="48.38415" lon="2.39268">
        <ele>91.199996948242</ele>
        <time>2024-04-14T07:08:31.000Z</time>
      </trkpt>
      <trkpt lat="48.38417" lon="2.39278">
        <ele>89.800003051758</ele>
        <time>2024-04-14T07:08:34.000Z</time>
      </trkpt>
      <trkpt lat="48.38418" lon="2.3928">
        <ele>89.599998474121</ele>
        <time>2024-04-14T07:08:35.000Z</time>
      </trkpt>
      <trkpt lat="48.38417" lon="2.39284">
        <ele>89.599998474121</ele>
        <time>2024-04-14T07:08:36.000Z</time>
      </trkpt>
      <trkpt lat="48.38413" lon="2.3929">
        <ele>90</ele>
        <time>2024-04-14T07:08:39.000Z</time>
      </trkpt>
      <trkpt lat="48.38409" lon="2.39295">
        <ele>90.400001525879</ele>
        <time>2024-04-14T07:08:42.000Z</time>
      </trkpt>
      <trkpt lat="48.38406" lon="2.393">
        <ele>90.800003051758</ele>
        <time>2024-04-14T07:08:45.000Z</time>
      </trkpt>
      <trkpt lat="48.38405" lon="2.39302">
        <ele>91</ele>
        <time>2024-04-14T07:08:46.000Z</time>
      </trkpt>
      <trkpt lat="48.38401" lon="2.39317">
        <ele>91.599998474121</ele>
        <time>2024-04-14T07:08:54.000Z</time>
      </trkpt>
      <trkpt lat="48.38401" lon="2.39319">
        <ele>92</ele>
        <time>2024-04-14T07:08:55.000Z</time>
      </trkpt>
      <trkpt lat="48.38405" lon="2.39325">
        <ele>92.199996948242</ele>
        <time>2024-04-14T07:09:00.000Z</time>
      </trkpt>
      <trkpt lat="48.38406" lon="2.39329">
        <ele>93</ele>
        <time>2024-04-14T07:09:04.000Z</time>
      </trkpt>
      <trkpt lat="48.38405" lon="2.39334">
        <ele>93.199996948242</ele>
        <time>2024-04-14T07:09:05.000Z</time>
      </trkpt>
      <trkpt lat="48.38395" lon="2.39348">
        <ele>93.400001525879</ele>
        <time>2024-04-14T07:09:12.000Z</time>
      </trkpt>
      <trkpt lat="48.38385" lon="2.39356">
        <ele>91.599998474121</ele>
        <time>2024-04-14T07:09:15.000Z</time>
      </trkpt>
      <trkpt lat="48.3838" lon="2.39359">
        <ele>90.199996948242</ele>
        <time>2024-04-14T07:09:17.000Z</time>
      </trkpt>
      <trkpt lat="48.38375" lon="2.39362">
        <ele>88.400001525879</ele>
        <time>2024-04-14T07:09:19.000Z</time>
      </trkpt>
      <trkpt lat="48.38368" lon="2.39371">
        <ele>88</ele>
        <time>2024-04-14T07:09:23.000Z</time>
      </trkpt>
      <trkpt lat="48.38362" lon="2.39385">
        <ele>86.599998474121</ele>
        <time>2024-04-14T07:09:26.000Z</time>
      </trkpt>
      <trkpt lat="48.38361" lon="2.39391">
        <ele>86</ele>
        <time>2024-04-14T07:09:27.000Z</time>
      </trkpt>
      <trkpt lat="48.38364" lon="2.39416">
        <ele>86.599998474121</ele>
        <time>2024-04-14T07:09:32.000Z</time>
      </trkpt>
      <trkpt lat="48.38371" lon="2.39435">
        <ele>87.800003051758</ele>
        <time>2024-04-14T07:09:37.000Z</time>
      </trkpt>
      <trkpt lat="48.38373" lon="2.39439">
        <ele>88</ele>
        <time>2024-04-14T07:09:38.000Z</time>
      </trkpt>
      <trkpt lat="48.38376" lon="2.39446">
        <ele>89.199996948242</ele>
        <time>2024-04-14T07:09:40.000Z</time>
      </trkpt>
      <trkpt lat="48.3838" lon="2.39455">
        <ele>90.199996948242</ele>
        <time>2024-04-14T07:09:43.000Z</time>
      </trkpt>
      <trkpt lat="48.38381" lon="2.39456">
        <ele>90.199996948242</ele>
        <time>2024-04-14T07:09:44.000Z</time>
      </trkpt>
      <trkpt lat="48.38385" lon="2.39462">
        <ele>91.199996948242</ele>
        <time>2024-04-14T07:09:48.000Z</time>
      </trkpt>
      <trkpt lat="48.38389" lon="2.39465">
        <ele>92.199996948242</ele>
        <time>2024-04-14T07:09:51.000Z</time>
      </trkpt>
      <trkpt lat="48.3839" lon="2.39466">
        <ele>92.599998474121</ele>
        <time>2024-04-14T07:09:52.000Z</time>
      </trkpt>
      <trkpt lat="48.38392" lon="2.39471">
        <ele>93.800003051758</ele>
        <time>2024-04-14T07:09:55.000Z</time>
      </trkpt>
      <trkpt lat="48.38393" lon="2.39474">
        <ele>94.599998474121</ele>
        <time>2024-04-14T07:09:58.000Z</time>
      </trkpt>
      <trkpt lat="48.38393" lon="2.39473">
        <ele>95</ele>
        <time>2024-04-14T07:09:59.000Z</time>
      </trkpt>
      <trkpt lat="48.38395" lon="2.39483">
        <ele>96</ele>
        <time>2024-04-14T07:10:04.000Z</time>
      </trkpt>
      <trkpt lat="48.38395" lon="2.39485">
        <ele>96.400001525879</ele>
        <time>2024-04-14T07:10:05.000Z</time>
      </trkpt>
      <trkpt lat="48.38397" lon="2.39491">
        <ele>96.599998474121</ele>
        <time>2024-04-14T07:10:08.000Z</time>
      </trkpt>
      <trkpt lat="48.38398" lon="2.39496">
        <ele>97.199996948242</ele>
        <time>2024-04-14T07:10:10.000Z</time>
      </trkpt>
      <trkpt lat="48.38399" lon="2.39503">
        <ele>98</ele>
        <time>2024-04-14T07:10:13.000Z</time>
      </trkpt>
      <trkpt lat="48.38399" lon="2.39506">
        <ele>98.199996948242</ele>
        <time>2024-04-14T07:10:14.000Z</time>
      </trkpt>
      <trkpt lat="48.384" lon="2.39516">
        <ele>99.800003051758</ele>
        <time>2024-04-14T07:10:18.000Z</time>
      </trkpt>
      <trkpt lat="48.384" lon="2.3952">
        <ele>100.40000152588</ele>
        <time>2024-04-14T07:10:20.000Z</time>
      </trkpt>
      <trkpt lat="48.38401" lon="2.39527">
        <ele>101</ele>
        <time>2024-04-14T07:10:23.000Z</time>
      </trkpt>
      <trkpt lat="48.38404" lon="2.39538">
        <ele>102</ele>
        <time>2024-04-14T07:10:27.000Z</time>
      </trkpt>
      <trkpt lat="48.38404" lon="2.39541">
        <ele>102.40000152588</ele>
        <time>2024-04-14T07:10:28.000Z</time>
      </trkpt>
      <trkpt lat="48.38407" lon="2.3955">
        <ele>103.19999694824</ele>
        <time>2024-04-14T07:10:32.000Z</time>
      </trkpt>
      <trkpt lat="48.38409" lon="2.39553">
        <ele>104.19999694824</ele>
        <time>2024-04-14T07:10:35.000Z</time>
      </trkpt>
      <trkpt lat="48.3841" lon="2.39556">
        <ele>104.40000152588</ele>
        <time>2024-04-14T07:10:36.000Z</time>
      </trkpt>
      <trkpt lat="48.38415" lon="2.39567">
        <ele>105.59999847412</ele>
        <time>2024-04-14T07:10:42.000Z</time>
      </trkpt>
      <trkpt lat="48.38418" lon="2.39573">
        <ele>106.80000305176</ele>
        <time>2024-04-14T07:10:47.000Z</time>
      </trkpt>
      <trkpt lat="48.3842" lon="2.39577">
        <ele>107</ele>
        <time>2024-04-14T07:10:48.000Z</time>
      </trkpt>
      <trkpt lat="48.38422" lon="2.39582">
        <ele>107.80000305176</ele>
        <time>2024-04-14T07:10:51.000Z</time>
      </trkpt>
      <trkpt lat="48.38426" lon="2.39589">
        <ele>108.80000305176</ele>
        <time>2024-04-14T07:10:55.000Z</time>
      </trkpt>
      <trkpt lat="48.38429" lon="2.39593">
        <ele>109.40000152588</ele>
        <time>2024-04-14T07:10:57.000Z</time>
      </trkpt>
      <trkpt lat="48.38429" lon="2.39593">
        <ele>109.80000305176</ele>
        <time>2024-04-14T07:10:59.000Z</time>
      </trkpt>
      <trkpt lat="48.38434" lon="2.39599">
        <ele>111</ele>
        <time>2024-04-14T07:11:02.000Z</time>
      </trkpt>
      <trkpt lat="48.38436" lon="2.39601">
        <ele>111.59999847412</ele>
        <time>2024-04-14T07:11:04.000Z</time>
      </trkpt>
      <trkpt lat="48.38439" lon="2.39605">
        <ele>112.19999694824</ele>
        <time>2024-04-14T07:11:06.000Z</time>
      </trkpt>
      <trkpt lat="48.38446" lon="2.39614">
        <ele>113.40000152588</ele>
        <time>2024-04-14T07:11:12.000Z</time>
      </trkpt>
      <trkpt lat="48.38442" lon="2.39619">
        <ele>114.19999694824</ele>
        <time>2024-04-14T07:11:18.000Z</time>
      </trkpt>
      <trkpt lat="48.38441" lon="2.39619">
        <ele>114.40000152588</ele>
        <time>2024-04-14T07:11:19.000Z</time>
      </trkpt>
      <trkpt lat="48.38434" lon="2.39614">
        <ele>114.19999694824</ele>
        <time>2024-04-14T07:11:23.000Z</time>
      </trkpt>
      <trkpt lat="48.38431" lon="2.39612">
        <ele>114.19999694824</ele>
        <time>2024-04-14T07:11:24.000Z</time>
      </trkpt>
      <trkpt lat="48.38413" lon="2.39597">
        <ele>113.40000152588</ele>
        <time>2024-04-14T07:11:30.000Z</time>
      </trkpt>
      <trkpt lat="48.38409" lon="2.39594">
        <ele>113</ele>
        <time>2024-04-14T07:11:31.000Z</time>
      </trkpt>
      <trkpt lat="48.38385" lon="2.39574">
        <ele>114</ele>
        <time>2024-04-14T07:11:38.000Z</time>
      </trkpt>
      <trkpt lat="48.38369" lon="2.39561">
        <ele>114.19999694824</ele>
        <time>2024-04-14T07:11:43.000Z</time>
      </trkpt>
      <trkpt lat="48.3836" lon="2.39554">
        <ele>114.19999694824</ele>
        <time>2024-04-14T07:11:46.000Z</time>
      </trkpt>
      <trkpt lat="48.38341" lon="2.39534">
        <ele>114.19999694824</ele>
        <time>2024-04-14T07:11:51.000Z</time>
      </trkpt>
      <trkpt lat="48.38326" lon="2.39506">
        <ele>113.80000305176</ele>
        <time>2024-04-14T07:11:57.000Z</time>
      </trkpt>
      <trkpt lat="48.38311" lon="2.3947">
        <ele>113.80000305176</ele>
        <time>2024-04-14T07:12:04.000Z</time>
      </trkpt>
      <trkpt lat="48.38302" lon="2.39445">
        <ele>113.19999694824</ele>
        <time>2024-04-14T07:12:11.000Z</time>
      </trkpt>
      <trkpt lat="48.38301" lon="2.39441">
        <ele>113</ele>
        <time>2024-04-14T07:12:12.000Z</time>
      </trkpt>
      <trkpt lat="48.38289" lon="2.39427">
        <ele>112.40000152588</ele>
        <time>2024-04-14T07:12:17.000Z</time>
      </trkpt>
      <trkpt lat="48.38282" lon="2.39424">
        <ele>112.19999694824</ele>
        <time>2024-04-14T07:12:21.000Z</time>
      </trkpt>
      <trkpt lat="48.38281" lon="2.39421">
        <ele>112</ele>
        <time>2024-04-14T07:12:23.000Z</time>
      </trkpt>
      <trkpt lat="48.38279" lon="2.39417">
        <ele>110.80000305176</ele>
        <time>2024-04-14T07:12:25.000Z</time>
      </trkpt>
      <trkpt lat="48.38277" lon="2.39411">
        <ele>109</ele>
        <time>2024-04-14T07:12:27.000Z</time>
      </trkpt>
      <trkpt lat="48.38278" lon="2.39407">
        <ele>107.59999847412</ele>
        <time>2024-04-14T07:12:28.000Z</time>
      </trkpt>
      <trkpt lat="48.38278" lon="2.39404">
        <ele>106.59999847412</ele>
        <time>2024-04-14T07:12:29.000Z</time>
      </trkpt>
      <trkpt lat="48.38278" lon="2.39398">
        <ele>104.59999847412</ele>
        <time>2024-04-14T07:12:31.000Z</time>
      </trkpt>
      <trkpt lat="48.38279" lon="2.39393">
        <ele>102.59999847412</ele>
        <time>2024-04-14T07:12:33.000Z</time>
      </trkpt>
      <trkpt lat="48.38278" lon="2.39391">
        <ele>101.59999847412</ele>
        <time>2024-04-14T07:12:34.000Z</time>
      </trkpt>
      <trkpt lat="48.38278" lon="2.39388">
        <ele>100.59999847412</ele>
        <time>2024-04-14T07:12:35.000Z</time>
      </trkpt>
      <trkpt lat="48.38277" lon="2.39385">
        <ele>99.599998474121</ele>
        <time>2024-04-14T07:12:36.000Z</time>
      </trkpt>
      <trkpt lat="48.38273" lon="2.39379">
        <ele>98.400001525879</ele>
        <time>2024-04-14T07:12:37.000Z</time>
      </trkpt>
      <trkpt lat="48.38272" lon="2.39374">
        <ele>97.199996948242</ele>
        <time>2024-04-14T07:12:38.000Z</time>
      </trkpt>
      <trkpt lat="48.38272" lon="2.39369">
        <ele>96.199996948242</ele>
        <time>2024-04-14T07:12:39.000Z</time>
      </trkpt>
      <trkpt lat="48.38271" lon="2.39362">
        <ele>94.599998474121</ele>
        <time>2024-04-14T07:12:40.000Z</time>
      </trkpt>
      <trkpt lat="48.38272" lon="2.39356">
        <ele>93</ele>
        <time>2024-04-14T07:12:41.000Z</time>
      </trkpt>
      <trkpt lat="48.38274" lon="2.39345">
        <ele>90.400001525879</ele>
        <time>2024-04-14T07:12:42.000Z</time>
      </trkpt>
      <trkpt lat="48.38275" lon="2.39336">
        <ele>88.800003051758</ele>
        <time>2024-04-14T07:12:43.000Z</time>
      </trkpt>
      <trkpt lat="48.38274" lon="2.39328">
        <ele>87.599998474121</ele>
        <time>2024-04-14T07:12:44.000Z</time>
      </trkpt>
      <trkpt lat="48.38273" lon="2.39321">
        <ele>86.599998474121</ele>
        <time>2024-04-14T07:12:45.000Z</time>
      </trkpt>
      <trkpt lat="48.38267" lon="2.39317">
        <ele>85.599998474121</ele>
        <time>2024-04-14T07:12:47.000Z</time>
      </trkpt>
      <trkpt lat="48.38263" lon="2.39316">
        <ele>85.400001525879</ele>
        <time>2024-04-14T07:12:48.000Z</time>
      </trkpt>
      <trkpt lat="48.38248" lon="2.39313">
        <ele>85</ele>
        <time>2024-04-14T07:12:52.000Z</time>
      </trkpt>
      <trkpt lat="48.38237" lon="2.39304">
        <ele>84.199996948242</ele>
        <time>2024-04-14T07:12:55.000Z</time>
      </trkpt>
      <trkpt lat="48.38233" lon="2.39302">
        <ele>84</ele>
        <time>2024-04-14T07:12:56.000Z</time>
      </trkpt>
      <trkpt lat="48.3822" lon="2.39294">
        <ele>83.400001525879</ele>
        <time>2024-04-14T07:13:00.000Z</time>
      </trkpt>
      <trkpt lat="48.38217" lon="2.39297">
        <ele>83.599998474121</ele>
        <time>2024-04-14T07:13:01.000Z</time>
      </trkpt>
      <trkpt lat="48.38212" lon="2.39304">
        <ele>84</ele>
        <time>2024-04-14T07:13:03.000Z</time>
      </trkpt>
      <trkpt lat="48.38208" lon="2.39312">
        <ele>84.599998474121</ele>
        <time>2024-04-14T07:13:05.000Z</time>
      </trkpt>
      <trkpt lat="48.38203" lon="2.39324">
        <ele>85.400001525879</ele>
        <time>2024-04-14T07:13:08.000Z</time>
      </trkpt>
      <trkpt lat="48.382" lon="2.39336">
        <ele>86.400001525879</ele>
        <time>2024-04-14T07:13:11.000Z</time>
      </trkpt>
      <trkpt lat="48.38199" lon="2.39339">
        <ele>86.800003051758</ele>
        <time>2024-04-14T07:13:12.000Z</time>
      </trkpt>
      <trkpt lat="48.38196" lon="2.39348">
        <ele>88</ele>
        <time>2024-04-14T07:13:16.000Z</time>
      </trkpt>
      <trkpt lat="48.38195" lon="2.39349">
        <ele>88</ele>
        <time>2024-04-14T07:13:17.000Z</time>
      </trkpt>
      <trkpt lat="48.38194" lon="2.39349">
        <ele>87.599998474121</ele>
        <time>2024-04-14T07:13:18.000Z</time>
      </trkpt>
      <trkpt lat="48.38185" lon="2.39346">
        <ele>87.199996948242</ele>
        <time>2024-04-14T07:13:21.000Z</time>
      </trkpt>
      <trkpt lat="48.38181" lon="2.39345">
        <ele>87</ele>
        <time>2024-04-14T07:13:22.000Z</time>
      </trkpt>
      <trkpt lat="48.3817" lon="2.39353">
        <ele>86.599998474121</ele>
        <time>2024-04-14T07:13:25.000Z</time>
      </trkpt>
      <trkpt lat="48.38162" lon="2.3936">
        <ele>86.400001525879</ele>
        <time>2024-04-14T07:13:27.000Z</time>
      </trkpt>
      <trkpt lat="48.38158" lon="2.39364">
        <ele>86</ele>
        <time>2024-04-14T07:13:28.000Z</time>
      </trkpt>
      <trkpt lat="48.38154" lon="2.39369">
        <ele>85.599998474121</ele>
        <time>2024-04-14T07:13:29.000Z</time>
      </trkpt>
      <trkpt lat="48.3815" lon="2.39373">
        <ele>85.400001525879</ele>
        <time>2024-04-14T07:13:30.000Z</time>
      </trkpt>
      <trkpt lat="48.38147" lon="2.39378">
        <ele>85.400001525879</ele>
        <time>2024-04-14T07:13:31.000Z</time>
      </trkpt>
      <trkpt lat="48.38142" lon="2.39397">
        <ele>85</ele>
        <time>2024-04-14T07:13:34.000Z</time>
      </trkpt>
      <trkpt lat="48.38144" lon="2.39415">
        <ele>85.400001525879</ele>
        <time>2024-04-14T07:13:37.000Z</time>
      </trkpt>
      <trkpt lat="48.38149" lon="2.39435">
        <ele>86.599998474121</ele>
        <time>2024-04-14T07:13:41.000Z</time>
      </trkpt>
      <trkpt lat="48.38154" lon="2.39447">
        <ele>88</ele>
        <time>2024-04-14T07:13:44.000Z</time>
      </trkpt>
      <trkpt lat="48.38158" lon="2.39463">
        <ele>89.199996948242</ele>
        <time>2024-04-14T07:13:48.000Z</time>
      </trkpt>
      <trkpt lat="48.3816" lon="2.39471">
        <ele>89.800003051758</ele>
        <time>2024-04-14T07:13:50.000Z</time>
      </trkpt>
      <trkpt lat="48.3816" lon="2.39475">
        <ele>90.199996948242</ele>
        <time>2024-04-14T07:13:51.000Z</time>
      </trkpt>
      <trkpt lat="48.38163" lon="2.3949">
        <ele>91.199996948242</ele>
        <time>2024-04-14T07:13:55.000Z</time>
      </trkpt>
      <trkpt lat="48.38166" lon="2.395">
        <ele>92.199996948242</ele>
        <time>2024-04-14T07:13:58.000Z</time>
      </trkpt>
      <trkpt lat="48.38167" lon="2.39503">
        <ele>92.400001525879</ele>
        <time>2024-04-14T07:13:59.000Z</time>
      </trkpt>
      <trkpt lat="48.38171" lon="2.39516">
        <ele>93.599998474121</ele>
        <time>2024-04-14T07:14:03.000Z</time>
      </trkpt>
      <trkpt lat="48.38173" lon="2.39523">
        <ele>94</ele>
        <time>2024-04-14T07:14:05.000Z</time>
      </trkpt>
      <trkpt lat="48.38175" lon="2.39531">
        <ele>94.800003051758</ele>
        <time>2024-04-14T07:14:07.000Z</time>
      </trkpt>
      <trkpt lat="48.38183" lon="2.39552">
        <ele>95.599998474121</ele>
        <time>2024-04-14T07:14:12.000Z</time>
      </trkpt>
      <trkpt lat="48.38184" lon="2.39555">
        <ele>95.800003051758</ele>
        <time>2024-04-14T07:14:13.000Z</time>
      </trkpt>
      <trkpt lat="48.38191" lon="2.39573">
        <ele>97.199996948242</ele>
        <time>2024-04-14T07:14:18.000Z</time>
      </trkpt>
      <trkpt lat="48.38201" lon="2.39593">
        <ele>98.599998474121</ele>
        <time>2024-04-14T07:14:24.000Z</time>
      </trkpt>
      <trkpt lat="48.38209" lon="2.39607">
        <ele>99.800003051758</ele>
        <time>2024-04-14T07:14:29.000Z</time>
      </trkpt>
      <trkpt lat="48.38214" lon="2.39615">
        <ele>100.80000305176</ele>
        <time>2024-04-14T07:14:32.000Z</time>
      </trkpt>
      <trkpt lat="48.38218" lon="2.39625">
        <ele>101.59999847412</ele>
        <time>2024-04-14T07:14:36.000Z</time>
      </trkpt>
      <trkpt lat="48.38219" lon="2.39627">
        <ele>102</ele>
        <time>2024-04-14T07:14:37.000Z</time>
      </trkpt>
      <trkpt lat="48.38224" lon="2.39638">
        <ele>103.40000152588</ele>
        <time>2024-04-14T07:14:41.000Z</time>
      </trkpt>
      <trkpt lat="48.38228" lon="2.39645">
        <ele>104.80000305176</ele>
        <time>2024-04-14T07:14:44.000Z</time>
      </trkpt>
      <trkpt lat="48.38229" lon="2.39648">
        <ele>105</ele>
        <time>2024-04-14T07:14:45.000Z</time>
      </trkpt>
      <trkpt lat="48.38232" lon="2.39654">
        <ele>106</ele>
        <time>2024-04-14T07:14:48.000Z</time>
      </trkpt>
      <trkpt lat="48.38235" lon="2.39663">
        <ele>107</ele>
        <time>2024-04-14T07:14:51.000Z</time>
      </trkpt>
      <trkpt lat="48.38237" lon="2.39674">
        <ele>108</ele>
        <time>2024-04-14T07:14:55.000Z</time>
      </trkpt>
      <trkpt lat="48.38241" lon="2.39679">
        <ele>109</ele>
        <time>2024-04-14T07:14:58.000Z</time>
      </trkpt>
      <trkpt lat="48.38242" lon="2.39682">
        <ele>109.19999694824</ele>
        <time>2024-04-14T07:14:59.000Z</time>
      </trkpt>
      <trkpt lat="48.38245" lon="2.39688">
        <ele>110.59999847412</ele>
        <time>2024-04-14T07:15:02.000Z</time>
      </trkpt>
      <trkpt lat="48.38248" lon="2.39694">
        <ele>111.59999847412</ele>
        <time>2024-04-14T07:15:05.000Z</time>
      </trkpt>
      <trkpt lat="48.3825" lon="2.39696">
        <ele>112.40000152588</ele>
        <time>2024-04-14T07:15:06.000Z</time>
      </trkpt>
      <trkpt lat="48.38252" lon="2.397">
        <ele>113</ele>
        <time>2024-04-14T07:15:08.000Z</time>
      </trkpt>
      <trkpt lat="48.38258" lon="2.39712">
        <ele>114</ele>
        <time>2024-04-14T07:15:13.000Z</time>
      </trkpt>
      <trkpt lat="48.38259" lon="2.39715">
        <ele>114.19999694824</ele>
        <time>2024-04-14T07:15:14.000Z</time>
      </trkpt>
      <trkpt lat="48.38263" lon="2.39742">
        <ele>114.59999847412</ele>
        <time>2024-04-14T07:15:21.000Z</time>
      </trkpt>
      <trkpt lat="48.38269" lon="2.3978">
        <ele>114.40000152588</ele>
        <time>2024-04-14T07:15:28.000Z</time>
      </trkpt>
      <trkpt lat="48.38268" lon="2.39805">
        <ele>113.19999694824</ele>
        <time>2024-04-14T07:15:33.000Z</time>
      </trkpt>
      <trkpt lat="48.38267" lon="2.39812">
        <ele>112.59999847412</ele>
        <time>2024-04-14T07:15:34.000Z</time>
      </trkpt>
      <trkpt lat="48.38267" lon="2.39838">
        <ele>111.80000305176</ele>
        <time>2024-04-14T07:15:37.000Z</time>
      </trkpt>
      <trkpt lat="48.38268" lon="2.39846">
        <ele>111.40000152588</ele>
        <time>2024-04-14T07:15:38.000Z</time>
      </trkpt>
      <trkpt lat="48.38271" lon="2.39878">
        <ele>110.80000305176</ele>
        <time>2024-04-14T07:15:43.000Z</time>
      </trkpt>
      <trkpt lat="48.38271" lon="2.39886">
        <ele>110.59999847412</ele>
        <time>2024-04-14T07:15:44.000Z</time>
      </trkpt>
      <trkpt lat="48.38272" lon="2.39894">
        <ele>110.19999694824</ele>
        <time>2024-04-14T07:15:45.000Z</time>
      </trkpt>
      <trkpt lat="48.38275" lon="2.39912">
        <ele>110.59999847412</ele>
        <time>2024-04-14T07:15:48.000Z</time>
      </trkpt>
      <trkpt lat="48.38282" lon="2.39936">
        <ele>111.40000152588</ele>
        <time>2024-04-14T07:15:53.000Z</time>
      </trkpt>
      <trkpt lat="48.38287" lon="2.39946">
        <ele>112.40000152588</ele>
        <time>2024-04-14T07:15:56.000Z</time>
      </trkpt>
      <trkpt lat="48.38288" lon="2.39954">
        <ele>112.40000152588</ele>
        <time>2024-04-14T07:15:58.000Z</time>
      </trkpt>
      <trkpt lat="48.38288" lon="2.39968">
        <ele>111</ele>
        <time>2024-04-14T07:16:01.000Z</time>
      </trkpt>
      <trkpt lat="48.38286" lon="2.39971">
        <ele>110.19999694824</ele>
        <time>2024-04-14T07:16:02.000Z</time>
      </trkpt>
      <trkpt lat="48.38283" lon="2.39972">
        <ele>109.19999694824</ele>
        <time>2024-04-14T07:16:03.000Z</time>
      </trkpt>
      <trkpt lat="48.38278" lon="2.39973">
        <ele>107.80000305176</ele>
        <time>2024-04-14T07:16:05.000Z</time>
      </trkpt>
      <trkpt lat="48.38276" lon="2.39974">
        <ele>107.40000152588</ele>
        <time>2024-04-14T07:16:06.000Z</time>
      </trkpt>
      <trkpt lat="48.38275" lon="2.39975">
        <ele>106.59999847412</ele>
        <time>2024-04-14T07:16:08.000Z</time>
      </trkpt>
      <trkpt lat="48.38273" lon="2.39975">
        <ele>106</ele>
        <time>2024-04-14T07:16:10.000Z</time>
      </trkpt>
      <trkpt lat="48.38273" lon="2.39975">
        <ele>106</ele>
        <time>2024-04-14T07:16:20.000Z</time>
      </trkpt>
      <trkpt lat="48.38273" lon="2.39975">
        <ele>106</ele>
        <time>2024-04-14T07:16:36.000Z</time>
      </trkpt>
      <trkpt lat="48.38273" lon="2.39975">
        <ele>106</ele>
        <time>2024-04-14T07:16:48.000Z</time>
      </trkpt>
      <trkpt lat="48.38271" lon="2.39977">
        <ele>105.59999847412</ele>
        <time>2024-04-14T07:16:53.000Z</time>
      </trkpt>
      <trkpt lat="48.38269" lon="2.3998">
        <ele>104.80000305176</ele>
        <time>2024-04-14T07:16:54.000Z</time>
      </trkpt>
      <trkpt lat="48.38268" lon="2.39983">
        <ele>104</ele>
        <time>2024-04-14T07:16:55.000Z</time>
      </trkpt>
      <trkpt lat="48.38265" lon="2.39989">
        <ele>103</ele>
        <time>2024-04-14T07:16:57.000Z</time>
      </trkpt>
      <trkpt lat="48.38267" lon="2.39998">
        <ele>103.19999694824</ele>
        <time>2024-04-14T07:17:00.000Z</time>
      </trkpt>
      <trkpt lat="48.38269" lon="2.40009">
        <ele>104</ele>
        <time>2024-04-14T07:17:03.000Z</time>
      </trkpt>
      <trkpt lat="48.38274" lon="2.40022">
        <ele>105.19999694824</ele>
        <time>2024-04-14T07:17:06.000Z</time>
      </trkpt>
      <trkpt lat="48.3828" lon="2.4004">
        <ele>106.40000152588</ele>
        <time>2024-04-14T07:17:10.000Z</time>
      </trkpt>
      <trkpt lat="48.38283" lon="2.40047">
        <ele>107.40000152588</ele>
        <time>2024-04-14T07:17:12.000Z</time>
      </trkpt>
      <trkpt lat="48.38285" lon="2.4005">
        <ele>107.80000305176</ele>
        <time>2024-04-14T07:17:13.000Z</time>
      </trkpt>
      <trkpt lat="48.38288" lon="2.40057">
        <ele>108.80000305176</ele>
        <time>2024-04-14T07:17:15.000Z</time>
      </trkpt>
      <trkpt lat="48.38294" lon="2.40065">
        <ele>110.19999694824</ele>
        <time>2024-04-14T07:17:18.000Z</time>
      </trkpt>
      <trkpt lat="48.38296" lon="2.40072">
        <ele>110.80000305176</ele>
        <time>2024-04-14T07:17:20.000Z</time>
      </trkpt>
      <trkpt lat="48.38296" lon="2.40075">
        <ele>111.40000152588</ele>
        <time>2024-04-14T07:17:21.000Z</time>
      </trkpt>
      <trkpt lat="48.38296" lon="2.40089">
        <ele>112.19999694824</ele>
        <time>2024-04-14T07:17:26.000Z</time>
      </trkpt>
      <trkpt lat="48.3829" lon="2.4011">
        <ele>112.19999694824</ele>
        <time>2024-04-14T07:17:30.000Z</time>
      </trkpt>
      <trkpt lat="48.38289" lon="2.40115">
        <ele>112</ele>
        <time>2024-04-14T07:17:31.000Z</time>
      </trkpt>
      <trkpt lat="48.38285" lon="2.40142">
        <ele>112.19999694824</ele>
        <time>2024-04-14T07:17:37.000Z</time>
      </trkpt>
      <trkpt lat="48.38284" lon="2.40152">
        <ele>112.40000152588</ele>
        <time>2024-04-14T07:17:39.000Z</time>
      </trkpt>
      <trkpt lat="48.38283" lon="2.40173">
        <ele>112.80000305176</ele>
        <time>2024-04-14T07:17:44.000Z</time>
      </trkpt>
      <trkpt lat="48.38283" lon="2.40191">
        <ele>113.19999694824</ele>
        <time>2024-04-14T07:17:50.000Z</time>
      </trkpt>
      <trkpt lat="48.38281" lon="2.40195">
        <ele>113</ele>
        <time>2024-04-14T07:17:52.000Z</time>
      </trkpt>
      <trkpt lat="48.38275" lon="2.40197">
        <ele>110.40000152588</ele>
        <time>2024-04-14T07:17:54.000Z</time>
      </trkpt>
      <trkpt lat="48.38271" lon="2.40193">
        <ele>110</ele>
        <time>2024-04-14T07:17:55.000Z</time>
      </trkpt>
      <trkpt lat="48.38257" lon="2.40182">
        <ele>110.19999694824</ele>
        <time>2024-04-14T07:17:58.000Z</time>
      </trkpt>
      <trkpt lat="48.38253" lon="2.40179">
        <ele>110.40000152588</ele>
        <time>2024-04-14T07:17:59.000Z</time>
      </trkpt>
      <trkpt lat="48.38246" lon="2.40162">
        <ele>111.19999694824</ele>
        <time>2024-04-14T07:18:03.000Z</time>
      </trkpt>
      <trkpt lat="48.38245" lon="2.40157">
        <ele>111.40000152588</ele>
        <time>2024-04-14T07:18:04.000Z</time>
      </trkpt>
      <trkpt lat="48.38244" lon="2.40153">
        <ele>112</ele>
        <time>2024-04-14T07:18:05.000Z</time>
      </trkpt>
      <trkpt lat="48.38239" lon="2.4014">
        <ele>112.80000305176</ele>
        <time>2024-04-14T07:18:08.000Z</time>
      </trkpt>
      <trkpt lat="48.38236" lon="2.40132">
        <ele>114.40000152588</ele>
        <time>2024-04-14T07:18:10.000Z</time>
      </trkpt>
      <trkpt lat="48.38232" lon="2.40125">
        <ele>115.40000152588</ele>
        <time>2024-04-14T07:18:12.000Z</time>
      </trkpt>
      <trkpt lat="48.38226" lon="2.40111">
        <ele>116.40000152588</ele>
        <time>2024-04-14T07:18:16.000Z</time>
      </trkpt>
      <trkpt lat="48.38224" lon="2.40109">
        <ele>116.59999847412</ele>
        <time>2024-04-14T07:18:17.000Z</time>
      </trkpt>
      <trkpt lat="48.38219" lon="2.40103">
        <ele>116.40000152588</ele>
        <time>2024-04-14T07:18:20.000Z</time>
      </trkpt>
      <trkpt lat="48.38215" lon="2.40092">
        <ele>115.80000305176</ele>
        <time>2024-04-14T07:18:22.000Z</time>
      </trkpt>
      <trkpt lat="48.38212" lon="2.4008">
        <ele>115.80000305176</ele>
        <time>2024-04-14T07:18:24.000Z</time>
      </trkpt>
      <trkpt lat="48.38207" lon="2.40062">
        <ele>116.80000305176</ele>
        <time>2024-04-14T07:18:29.000Z</time>
      </trkpt>
      <trkpt lat="48.38207" lon="2.40061">
        <ele>116.80000305176</ele>
        <time>2024-04-14T07:18:34.000Z</time>
      </trkpt>
      <trkpt lat="48.38204" lon="2.40049">
        <ele>116.40000152588</ele>
        <time>2024-04-14T07:18:42.000Z</time>
      </trkpt>
      <trkpt lat="48.38193" lon="2.40034">
        <ele>115.59999847412</ele>
        <time>2024-04-14T07:18:46.000Z</time>
      </trkpt>
      <trkpt lat="48.38182" lon="2.40023">
        <ele>115.40000152588</ele>
        <time>2024-04-14T07:18:49.000Z</time>
      </trkpt>
      <trkpt lat="48.38171" lon="2.40013">
        <ele>115.19999694824</ele>
        <time>2024-04-14T07:18:52.000Z</time>
      </trkpt>
      <trkpt lat="48.38157" lon="2.39999">
        <ele>116.40000152588</ele>
        <time>2024-04-14T07:18:57.000Z</time>
      </trkpt>
      <trkpt lat="48.38155" lon="2.39997">
        <ele>117</ele>
        <time>2024-04-14T07:18:58.000Z</time>
      </trkpt>
      <trkpt lat="48.38144" lon="2.39996">
        <ele>117.40000152588</ele>
        <time>2024-04-14T07:19:01.000Z</time>
      </trkpt>
      <trkpt lat="48.38137" lon="2.39996">
        <ele>117.80000305176</ele>
        <time>2024-04-14T07:19:03.000Z</time>
      </trkpt>
      <trkpt lat="48.38129" lon="2.4">
        <ele>118.40000152588</ele>
        <time>2024-04-14T07:19:07.000Z</time>
      </trkpt>
      <trkpt lat="48.38128" lon="2.4">
        <ele>118.59999847412</ele>
        <time>2024-04-14T07:19:08.000Z</time>
      </trkpt>
      <trkpt lat="48.38121" lon="2.40002">
        <ele>119.59999847412</ele>
        <time>2024-04-14T07:19:15.000Z</time>
      </trkpt>
      <trkpt lat="48.38119" lon="2.40003">
        <ele>119.59999847412</ele>
        <time>2024-04-14T07:19:16.000Z</time>
      </trkpt>
      <trkpt lat="48.38115" lon="2.40002">
        <ele>120.19999694824</ele>
        <time>2024-04-14T07:19:22.000Z</time>
      </trkpt>
      <trkpt lat="48.38108" lon="2.39994">
        <ele>119.59999847412</ele>
        <time>2024-04-14T07:19:30.000Z</time>
      </trkpt>
      <trkpt lat="48.38105" lon="2.39993">
        <ele>119.19999694824</ele>
        <time>2024-04-14T07:19:32.000Z</time>
      </trkpt>
      <trkpt lat="48.38098" lon="2.39987">
        <ele>118.80000305176</ele>
        <time>2024-04-14T07:19:35.000Z</time>
      </trkpt>
      <trkpt lat="48.38083" lon="2.39977">
        <ele>118.59999847412</ele>
        <time>2024-04-14T07:19:40.000Z</time>
      </trkpt>
      <trkpt lat="48.38079" lon="2.39974">
        <ele>118.19999694824</ele>
        <time>2024-04-14T07:19:42.000Z</time>
      </trkpt>
      <trkpt lat="48.38069" lon="2.39957">
        <ele>117.59999847412</ele>
        <time>2024-04-14T07:19:47.000Z</time>
      </trkpt>
      <trkpt lat="48.38067" lon="2.39953">
        <ele>117.19999694824</ele>
        <time>2024-04-14T07:19:48.000Z</time>
      </trkpt>
      <trkpt lat="48.38047" lon="2.39933">
        <ele>118.59999847412</ele>
        <time>2024-04-14T07:19:55.000Z</time>
      </trkpt>
      <trkpt lat="48.38039" lon="2.39911">
        <ele>118.19999694824</ele>
        <time>2024-04-14T07:20:00.000Z</time>
      </trkpt>
      <trkpt lat="48.38036" lon="2.39895">
        <ele>118.19999694824</ele>
        <time>2024-04-14T07:20:05.000Z</time>
      </trkpt>
      <trkpt lat="48.38036" lon="2.39888">
        <ele>117.59999847412</ele>
        <time>2024-04-14T07:20:07.000Z</time>
      </trkpt>
      <trkpt lat="48.38034" lon="2.39875">
        <ele>117</ele>
        <time>2024-04-14T07:20:11.000Z</time>
      </trkpt>
      <trkpt lat="48.3803" lon="2.39861">
        <ele>116.59999847412</ele>
        <time>2024-04-14T07:20:15.000Z</time>
      </trkpt>
      <trkpt lat="48.38028" lon="2.39858">
        <ele>116.40000152588</ele>
        <time>2024-04-14T07:20:16.000Z</time>
      </trkpt>
      <trkpt lat="48.38013" lon="2.3984">
        <ele>115.80000305176</ele>
        <time>2024-04-14T07:20:22.000Z</time>
      </trkpt>
      <trkpt lat="48.38005" lon="2.3984">
        <ele>118</ele>
        <time>2024-04-14T07:20:26.000Z</time>
      </trkpt>
      <trkpt lat="48.38002" lon="2.39839">
        <ele>118.80000305176</ele>
        <time>2024-04-14T07:20:28.000Z</time>
      </trkpt>
      <trkpt lat="48.37999" lon="2.39837">
        <ele>119</ele>
        <time>2024-04-14T07:20:30.000Z</time>
      </trkpt>
      <trkpt lat="48.37997" lon="2.39836">
        <ele>119</ele>
        <time>2024-04-14T07:20:31.000Z</time>
      </trkpt>
      <trkpt lat="48.37994" lon="2.39836">
        <ele>119.59999847412</ele>
        <time>2024-04-14T07:20:33.000Z</time>
      </trkpt>
      <trkpt lat="48.37992" lon="2.39839">
        <ele>120.40000152588</ele>
        <time>2024-04-14T07:20:35.000Z</time>
      </trkpt>
      <trkpt lat="48.3799" lon="2.39841">
        <ele>121</ele>
        <time>2024-04-14T07:20:36.000Z</time>
      </trkpt>
      <trkpt lat="48.37989" lon="2.39843">
        <ele>121.59999847412</ele>
        <time>2024-04-14T07:20:37.000Z</time>
      </trkpt>
      <trkpt lat="48.37987" lon="2.39844">
        <ele>122.19999694824</ele>
        <time>2024-04-14T07:20:38.000Z</time>
      </trkpt>
      <trkpt lat="48.37985" lon="2.39845">
        <ele>122.80000305176</ele>
        <time>2024-04-14T07:20:39.000Z</time>
      </trkpt>
      <trkpt lat="48.3798" lon="2.39847">
        <ele>124</ele>
        <time>2024-04-14T07:20:42.000Z</time>
      </trkpt>
      <trkpt lat="48.37977" lon="2.39849">
        <ele>125.19999694824</ele>
        <time>2024-04-14T07:20:44.000Z</time>
      </trkpt>
      <trkpt lat="48.37973" lon="2.39854">
        <ele>126.19999694824</ele>
        <time>2024-04-14T07:20:47.000Z</time>
      </trkpt>
      <trkpt lat="48.37969" lon="2.39857">
        <ele>126.80000305176</ele>
        <time>2024-04-14T07:20:49.000Z</time>
      </trkpt>
      <trkpt lat="48.37966" lon="2.39861">
        <ele>127.40000152588</ele>
        <time>2024-04-14T07:20:51.000Z</time>
      </trkpt>
      <trkpt lat="48.37958" lon="2.39868">
        <ele>128</ele>
        <time>2024-04-14T07:20:56.000Z</time>
      </trkpt>
      <trkpt lat="48.37952" lon="2.39875">
        <ele>128.39999389648</ele>
        <time>2024-04-14T07:21:00.000Z</time>
      </trkpt>
      <trkpt lat="48.3795" lon="2.39879">
        <ele>128.60000610352</ele>
        <time>2024-04-14T07:21:02.000Z</time>
      </trkpt>
      <trkpt lat="48.37949" lon="2.39888">
        <ele>128.60000610352</ele>
        <time>2024-04-14T07:21:05.000Z</time>
      </trkpt>
      <trkpt lat="48.37947" lon="2.39897">
        <ele>128.60000610352</ele>
        <time>2024-04-14T07:21:08.000Z</time>
      </trkpt>
      <trkpt lat="48.37945" lon="2.399">
        <ele>128.80000305176</ele>
        <time>2024-04-14T07:21:09.000Z</time>
      </trkpt>
      <trkpt lat="48.37935" lon="2.39909">
        <ele>128.60000610352</ele>
        <time>2024-04-14T07:21:16.000Z</time>
      </trkpt>
      <trkpt lat="48.37935" lon="2.39903">
        <ele>128.60000610352</ele>
        <time>2024-04-14T07:21:18.000Z</time>
      </trkpt>
      <trkpt lat="48.37936" lon="2.3989">
        <ele>128.60000610352</ele>
        <time>2024-04-14T07:21:22.000Z</time>
      </trkpt>
      <trkpt lat="48.37934" lon="2.39869">
        <ele>128.19999694824</ele>
        <time>2024-04-14T07:21:27.000Z</time>
      </trkpt>
      <trkpt lat="48.37933" lon="2.39865">
        <ele>128.19999694824</ele>
        <time>2024-04-14T07:21:28.000Z</time>
      </trkpt>
      <trkpt lat="48.37921" lon="2.39843">
        <ele>127.80000305176</ele>
        <time>2024-04-14T07:21:33.000Z</time>
      </trkpt>
      <trkpt lat="48.37918" lon="2.39832">
        <ele>127.19999694824</ele>
        <time>2024-04-14T07:21:35.000Z</time>
      </trkpt>
      <trkpt lat="48.37916" lon="2.39819">
        <ele>126.59999847412</ele>
        <time>2024-04-14T07:21:37.000Z</time>
      </trkpt>
      <trkpt lat="48.37914" lon="2.39811">
        <ele>126</ele>
        <time>2024-04-14T07:21:38.000Z</time>
      </trkpt>
      <trkpt lat="48.37913" lon="2.39787">
        <ele>125.19999694824</ele>
        <time>2024-04-14T07:21:41.000Z</time>
      </trkpt>
      <trkpt lat="48.37913" lon="2.3978">
        <ele>124.59999847412</ele>
        <time>2024-04-14T07:21:42.000Z</time>
      </trkpt>
      <trkpt lat="48.37912" lon="2.39766">
        <ele>123</ele>
        <time>2024-04-14T07:21:44.000Z</time>
      </trkpt>
      <trkpt lat="48.37909" lon="2.39739">
        <ele>122</ele>
        <time>2024-04-14T07:21:48.000Z</time>
      </trkpt>
      <trkpt lat="48.37907" lon="2.39733">
        <ele>122</ele>
        <time>2024-04-14T07:21:49.000Z</time>
      </trkpt>
      <trkpt lat="48.37899" lon="2.3972">
        <ele>122.40000152588</ele>
        <time>2024-04-14T07:21:52.000Z</time>
      </trkpt>
      <trkpt lat="48.37897" lon="2.39716">
        <ele>122.40000152588</ele>
        <time>2024-04-14T07:21:53.000Z</time>
      </trkpt>
      <trkpt lat="48.3789" lon="2.39704">
        <ele>121.80000305176</ele>
        <time>2024-04-14T07:21:57.000Z</time>
      </trkpt>
      <trkpt lat="48.37884" lon="2.39698">
        <ele>121.80000305176</ele>
        <time>2024-04-14T07:21:59.000Z</time>
      </trkpt>
      <trkpt lat="48.37878" lon="2.39687">
        <ele>121.40000152588</ele>
        <time>2024-04-14T07:22:01.000Z</time>
      </trkpt>
      <trkpt lat="48.3787" lon="2.39672">
        <ele>120.80000305176</ele>
        <time>2024-04-14T07:22:05.000Z</time>
      </trkpt>
      <trkpt lat="48.37869" lon="2.39671">
        <ele>120.59999847412</ele>
        <time>2024-04-14T07:22:06.000Z</time>
      </trkpt>
      <trkpt lat="48.37865" lon="2.39669">
        <ele>119.40000152588</ele>
        <time>2024-04-14T07:22:08.000Z</time>
      </trkpt>
      <trkpt lat="48.3786" lon="2.39665">
        <ele>117.59999847412</ele>
        <time>2024-04-14T07:22:10.000Z</time>
      </trkpt>
      <trkpt lat="48.37859" lon="2.39663">
        <ele>117.80000305176</ele>
        <time>2024-04-14T07:22:13.000Z</time>
      </trkpt>
      <trkpt lat="48.37859" lon="2.39663">
        <ele>117.80000305176</ele>
        <time>2024-04-14T07:22:21.000Z</time>
      </trkpt>
      <trkpt lat="48.37859" lon="2.39663">
        <ele>117.80000305176</ele>
        <time>2024-04-14T07:22:36.000Z</time>
      </trkpt>
      <trkpt lat="48.37859" lon="2.39663">
        <ele>117.80000305176</ele>
        <time>2024-04-14T07:22:54.000Z</time>
      </trkpt>
      <trkpt lat="48.37859" lon="2.39663">
        <ele>117.80000305176</ele>
        <time>2024-04-14T07:23:07.000Z</time>
      </trkpt>
      <trkpt lat="48.37859" lon="2.39662">
        <ele>117.80000305176</ele>
        <time>2024-04-14T07:23:21.000Z</time>
      </trkpt>
      <trkpt lat="48.3786" lon="2.39656">
        <ele>117.80000305176</ele>
        <time>2024-04-14T07:23:23.000Z</time>
      </trkpt>
      <trkpt lat="48.37861" lon="2.39651">
        <ele>117.59999847412</ele>
        <time>2024-04-14T07:23:26.000Z</time>
      </trkpt>
      <trkpt lat="48.37865" lon="2.3965">
        <ele>117.40000152588</ele>
        <time>2024-04-14T07:23:28.000Z</time>
      </trkpt>
      <trkpt lat="48.37866" lon="2.39641">
        <ele>116.59999847412</ele>
        <time>2024-04-14T07:23:30.000Z</time>
      </trkpt>
      <trkpt lat="48.37866" lon="2.39637">
        <ele>115.40000152588</ele>
        <time>2024-04-14T07:23:31.000Z</time>
      </trkpt>
      <trkpt lat="48.37869" lon="2.39627">
        <ele>114.40000152588</ele>
        <time>2024-04-14T07:23:34.000Z</time>
      </trkpt>
      <trkpt lat="48.37872" lon="2.39624">
        <ele>114.19999694824</ele>
        <time>2024-04-14T07:23:35.000Z</time>
      </trkpt>
      <trkpt lat="48.37873" lon="2.39621">
        <ele>114</ele>
        <time>2024-04-14T07:23:36.000Z</time>
      </trkpt>
      <trkpt lat="48.37871" lon="2.39615">
        <ele>112.80000305176</ele>
        <time>2024-04-14T07:23:38.000Z</time>
      </trkpt>
      <trkpt lat="48.3787" lon="2.39612">
        <ele>112</ele>
        <time>2024-04-14T07:23:39.000Z</time>
      </trkpt>
      <trkpt lat="48.37869" lon="2.39609">
        <ele>110.80000305176</ele>
        <time>2024-04-14T07:23:40.000Z</time>
      </trkpt>
      <trkpt lat="48.37869" lon="2.39606">
        <ele>109.59999847412</ele>
        <time>2024-04-14T07:23:41.000Z</time>
      </trkpt>
      <trkpt lat="48.37867" lon="2.39602">
        <ele>108.19999694824</ele>
        <time>2024-04-14T07:23:43.000Z</time>
      </trkpt>
      <trkpt lat="48.37868" lon="2.39603">
        <ele>108.19999694824</ele>
        <time>2024-04-14T07:23:44.000Z</time>
      </trkpt>
      <trkpt lat="48.37867" lon="2.396">
        <ele>108.19999694824</ele>
        <time>2024-04-14T07:23:52.000Z</time>
      </trkpt>
      <trkpt lat="48.37866" lon="2.39597">
        <ele>108.19999694824</ele>
        <time>2024-04-14T07:23:59.000Z</time>
      </trkpt>
      <trkpt lat="48.37868" lon="2.39589">
        <ele>107.19999694824</ele>
        <time>2024-04-14T07:24:02.000Z</time>
      </trkpt>
      <trkpt lat="48.37868" lon="2.39586">
        <ele>106.80000305176</ele>
        <time>2024-04-14T07:24:03.000Z</time>
      </trkpt>
      <trkpt lat="48.37869" lon="2.39583">
        <ele>106.19999694824</ele>
        <time>2024-04-14T07:24:05.000Z</time>
      </trkpt>
      <trkpt lat="48.37869" lon="2.39582">
        <ele>105.80000305176</ele>
        <time>2024-04-14T07:24:07.000Z</time>
      </trkpt>
      <trkpt lat="48.37871" lon="2.39582">
        <ele>105.59999847412</ele>
        <time>2024-04-14T07:24:11.000Z</time>
      </trkpt>
      <trkpt lat="48.37872" lon="2.39581">
        <ele>105.80000305176</ele>
        <time>2024-04-14T07:24:17.000Z</time>
      </trkpt>
      <trkpt lat="48.37875" lon="2.39578">
        <ele>104.40000152588</ele>
        <time>2024-04-14T07:24:22.000Z</time>
      </trkpt>
      <trkpt lat="48.37876" lon="2.39575">
        <ele>104.19999694824</ele>
        <time>2024-04-14T07:24:23.000Z</time>
      </trkpt>
      <trkpt lat="48.37883" lon="2.3957">
        <ele>104</ele>
        <time>2024-04-14T07:24:29.000Z</time>
      </trkpt>
      <trkpt lat="48.37888" lon="2.39567">
        <ele>104.19999694824</ele>
        <time>2024-04-14T07:24:33.000Z</time>
      </trkpt>
      <trkpt lat="48.37889" lon="2.39564">
        <ele>103.59999847412</ele>
        <time>2024-04-14T07:24:35.000Z</time>
      </trkpt>
      <trkpt lat="48.3789" lon="2.39562">
        <ele>103</ele>
        <time>2024-04-14T07:24:36.000Z</time>
      </trkpt>
      <trkpt lat="48.37892" lon="2.39559">
        <ele>102.40000152588</ele>
        <time>2024-04-14T07:24:38.000Z</time>
      </trkpt>
      <trkpt lat="48.37894" lon="2.39556">
        <ele>102.19999694824</ele>
        <time>2024-04-14T07:24:40.000Z</time>
      </trkpt>
      <trkpt lat="48.37893" lon="2.39557">
        <ele>102</ele>
        <time>2024-04-14T07:24:41.000Z</time>
      </trkpt>
      <trkpt lat="48.37897" lon="2.39549">
        <ele>100.80000305176</ele>
        <time>2024-04-14T07:24:43.000Z</time>
      </trkpt>
      <trkpt lat="48.37908" lon="2.39534">
        <ele>99.599998474121</ele>
        <time>2024-04-14T07:24:48.000Z</time>
      </trkpt>
      <trkpt lat="48.3791" lon="2.39534">
        <ele>99</ele>
        <time>2024-04-14T07:24:49.000Z</time>
      </trkpt>
      <trkpt lat="48.37913" lon="2.39531">
        <ele>98.599998474121</ele>
        <time>2024-04-14T07:24:54.000Z</time>
      </trkpt>
      <trkpt lat="48.37914" lon="2.39531">
        <ele>98.400001525879</ele>
        <time>2024-04-14T07:24:55.000Z</time>
      </trkpt>
      <trkpt lat="48.3792" lon="2.3953">
        <ele>97.599998474121</ele>
        <time>2024-04-14T07:25:01.000Z</time>
      </trkpt>
      <trkpt lat="48.37924" lon="2.39531">
        <ele>98.199996948242</ele>
        <time>2024-04-14T07:25:07.000Z</time>
      </trkpt>
      <trkpt lat="48.37928" lon="2.39538">
        <ele>97.199996948242</ele>
        <time>2024-04-14T07:25:12.000Z</time>
      </trkpt>
      <trkpt lat="48.37929" lon="2.39538">
        <ele>97.199996948242</ele>
        <time>2024-04-14T07:25:18.000Z</time>
      </trkpt>
      <trkpt lat="48.37929" lon="2.39538">
        <ele>97.199996948242</ele>
        <time>2024-04-14T07:25:30.000Z</time>
      </trkpt>
      <trkpt lat="48.3793" lon="2.3954">
        <ele>97</ele>
        <time>2024-04-14T07:25:38.000Z</time>
      </trkpt>
      <trkpt lat="48.37935" lon="2.39544">
        <ele>95.800003051758</ele>
        <time>2024-04-14T07:25:41.000Z</time>
      </trkpt>
      <trkpt lat="48.37938" lon="2.39544">
        <ele>94.599998474121</ele>
        <time>2024-04-14T07:25:43.000Z</time>
      </trkpt>
      <trkpt lat="48.37942" lon="2.39548">
        <ele>93</ele>
        <time>2024-04-14T07:25:46.000Z</time>
      </trkpt>
      <trkpt lat="48.37945" lon="2.3955">
        <ele>91</ele>
        <time>2024-04-14T07:25:48.000Z</time>
      </trkpt>
      <trkpt lat="48.37947" lon="2.3955">
        <ele>90</ele>
        <time>2024-04-14T07:25:49.000Z</time>
      </trkpt>
      <trkpt lat="48.37948" lon="2.3955">
        <ele>89</ele>
        <time>2024-04-14T07:25:50.000Z</time>
      </trkpt>
      <trkpt lat="48.3795" lon="2.3955">
        <ele>87.800003051758</ele>
        <time>2024-04-14T07:25:51.000Z</time>
      </trkpt>
      <trkpt lat="48.37952" lon="2.39549">
        <ele>86.400001525879</ele>
        <time>2024-04-14T07:25:52.000Z</time>
      </trkpt>
      <trkpt lat="48.37955" lon="2.39548">
        <ele>85</ele>
        <time>2024-04-14T07:25:53.000Z</time>
      </trkpt>
      <trkpt lat="48.37957" lon="2.39546">
        <ele>84.199996948242</ele>
        <time>2024-04-14T07:25:54.000Z</time>
      </trkpt>
      <trkpt lat="48.37959" lon="2.39545">
        <ele>82.800003051758</ele>
        <time>2024-04-14T07:25:55.000Z</time>
      </trkpt>
      <trkpt lat="48.37968" lon="2.39541">
        <ele>81.599998474121</ele>
        <time>2024-04-14T07:25:58.000Z</time>
      </trkpt>
      <trkpt lat="48.37973" lon="2.39539">
        <ele>80.400001525879</ele>
        <time>2024-04-14T07:26:01.000Z</time>
      </trkpt>
      <trkpt lat="48.37974" lon="2.39538">
        <ele>80.199996948242</ele>
        <time>2024-04-14T07:26:02.000Z</time>
      </trkpt>
      <trkpt lat="48.37978" lon="2.39531">
        <ele>79.800003051758</ele>
        <time>2024-04-14T07:26:08.000Z</time>
      </trkpt>
      <trkpt lat="48.37978" lon="2.39527">
        <ele>79.800003051758</ele>
        <time>2024-04-14T07:26:16.000Z</time>
      </trkpt>
      <trkpt lat="48.37978" lon="2.39527">
        <ele>79.800003051758</ele>
        <time>2024-04-14T07:26:30.000Z</time>
      </trkpt>
      <trkpt lat="48.37978" lon="2.39527">
        <ele>79.800003051758</ele>
        <time>2024-04-14T07:26:45.000Z</time>
      </trkpt>
      <trkpt lat="48.37978" lon="2.39525">
        <ele>79.800003051758</ele>
        <time>2024-04-14T07:26:57.000Z</time>
      </trkpt>
      <trkpt lat="48.37978" lon="2.39522">
        <ele>79.800003051758</ele>
        <time>2024-04-14T07:26:58.000Z</time>
      </trkpt>
      <trkpt lat="48.37975" lon="2.39511">
        <ele>79.400001525879</ele>
        <time>2024-04-14T07:27:02.000Z</time>
      </trkpt>
      <trkpt lat="48.37975" lon="2.39509">
        <ele>79.199996948242</ele>
        <time>2024-04-14T07:27:07.000Z</time>
      </trkpt>
      <trkpt lat="48.37973" lon="2.39504">
        <ele>79.199996948242</ele>
        <time>2024-04-14T07:27:15.000Z</time>
      </trkpt>
      <trkpt lat="48.37969" lon="2.39495">
        <ele>79</ele>
        <time>2024-04-14T07:27:21.000Z</time>
      </trkpt>
      <trkpt lat="48.37961" lon="2.39475">
        <ele>79</ele>
        <time>2024-04-14T07:27:27.000Z</time>
      </trkpt>
      <trkpt lat="48.37953" lon="2.39449">
        <ele>78.199996948242</ele>
        <time>2024-04-14T07:27:34.000Z</time>
      </trkpt>
      <trkpt lat="48.37952" lon="2.39444">
        <ele>78.199996948242</ele>
        <time>2024-04-14T07:27:35.000Z</time>
      </trkpt>
      <trkpt lat="48.37945" lon="2.39428">
        <ele>78</ele>
        <time>2024-04-14T07:27:40.000Z</time>
      </trkpt>
      <trkpt lat="48.37929" lon="2.39413">
        <ele>77.800003051758</ele>
        <time>2024-04-14T07:27:45.000Z</time>
      </trkpt>
      <trkpt lat="48.3791" lon="2.39385">
        <ele>77.599998474121</ele>
        <time>2024-04-14T07:27:52.000Z</time>
      </trkpt>
      <trkpt lat="48.37897" lon="2.3937">
        <ele>77</ele>
        <time>2024-04-14T07:27:56.000Z</time>
      </trkpt>
      <trkpt lat="48.37887" lon="2.39359">
        <ele>77.400001525879</ele>
        <time>2024-04-14T07:27:59.000Z</time>
      </trkpt>
      <trkpt lat="48.37861" lon="2.39339">
        <ele>77.400001525879</ele>
        <time>2024-04-14T07:28:06.000Z</time>
      </trkpt>
      <trkpt lat="48.37837" lon="2.39337">
        <ele>77.599998474121</ele>
        <time>2024-04-14T07:28:12.000Z</time>
      </trkpt>
      <trkpt lat="48.37799" lon="2.39339">
        <ele>78</ele>
        <time>2024-04-14T07:28:20.000Z</time>
      </trkpt>
      <trkpt lat="48.37795" lon="2.3934">
        <ele>78.199996948242</ele>
        <time>2024-04-14T07:28:21.000Z</time>
      </trkpt>
      <trkpt lat="48.37784" lon="2.39348">
        <ele>78.400001525879</ele>
        <time>2024-04-14T07:28:24.000Z</time>
      </trkpt>
      <trkpt lat="48.37777" lon="2.39363">
        <ele>78.800003051758</ele>
        <time>2024-04-14T07:28:27.000Z</time>
      </trkpt>
      <trkpt lat="48.37772" lon="2.39374">
        <ele>79.400001525879</ele>
        <time>2024-04-14T07:28:29.000Z</time>
      </trkpt>
      <trkpt lat="48.3777" lon="2.3938">
        <ele>79.400001525879</ele>
        <time>2024-04-14T07:28:30.000Z</time>
      </trkpt>
      <trkpt lat="48.37753" lon="2.39426">
        <ele>80</ele>
        <time>2024-04-14T07:28:38.000Z</time>
      </trkpt>
      <trkpt lat="48.37744" lon="2.39449">
        <ele>80.599998474121</ele>
        <time>2024-04-14T07:28:42.000Z</time>
      </trkpt>
      <trkpt lat="48.37737" lon="2.39471">
        <ele>81.599998474121</ele>
        <time>2024-04-14T07:28:46.000Z</time>
      </trkpt>
      <trkpt lat="48.3773" lon="2.39502">
        <ele>82.599998474121</ele>
        <time>2024-04-14T07:28:52.000Z</time>
      </trkpt>
      <trkpt lat="48.37728" lon="2.39513">
        <ele>83.199996948242</ele>
        <time>2024-04-14T07:28:54.000Z</time>
      </trkpt>
      <trkpt lat="48.37727" lon="2.39534">
        <ele>83.800003051758</ele>
        <time>2024-04-14T07:28:58.000Z</time>
      </trkpt>
      <trkpt lat="48.37727" lon="2.39543">
        <ele>84.199996948242</ele>
        <time>2024-04-14T07:29:00.000Z</time>
      </trkpt>
      <trkpt lat="48.37731" lon="2.39567">
        <ele>84.800003051758</ele>
        <time>2024-04-14T07:29:05.000Z</time>
      </trkpt>
      <trkpt lat="48.37733" lon="2.39572">
        <ele>85</ele>
        <time>2024-04-14T07:29:06.000Z</time>
      </trkpt>
      <trkpt lat="48.37737" lon="2.3958">
        <ele>86</ele>
        <time>2024-04-14T07:29:08.000Z</time>
      </trkpt>
      <trkpt lat="48.37745" lon="2.39597">
        <ele>87</ele>
        <time>2024-04-14T07:29:12.000Z</time>
      </trkpt>
      <trkpt lat="48.37746" lon="2.39601">
        <ele>87.199996948242</ele>
        <time>2024-04-14T07:29:13.000Z</time>
      </trkpt>
      <trkpt lat="48.37752" lon="2.39614">
        <ele>88.400001525879</ele>
        <time>2024-04-14T07:29:16.000Z</time>
      </trkpt>
      <trkpt lat="48.37757" lon="2.39627">
        <ele>89.400001525879</ele>
        <time>2024-04-14T07:29:19.000Z</time>
      </trkpt>
      <trkpt lat="48.37759" lon="2.39631">
        <ele>89.400001525879</ele>
        <time>2024-04-14T07:29:20.000Z</time>
      </trkpt>
      <trkpt lat="48.37763" lon="2.39643">
        <ele>90.400001525879</ele>
        <time>2024-04-14T07:29:23.000Z</time>
      </trkpt>
      <trkpt lat="48.37767" lon="2.39654">
        <ele>91.199996948242</ele>
        <time>2024-04-14T07:29:26.000Z</time>
      </trkpt>
      <trkpt lat="48.37769" lon="2.39657">
        <ele>91.599998474121</ele>
        <time>2024-04-14T07:29:27.000Z</time>
      </trkpt>
      <trkpt lat="48.37776" lon="2.39671">
        <ele>92.800003051758</ele>
        <time>2024-04-14T07:29:31.000Z</time>
      </trkpt>
      <trkpt lat="48.37781" lon="2.39682">
        <ele>94</ele>
        <time>2024-04-14T07:29:34.000Z</time>
      </trkpt>
      <trkpt lat="48.37786" lon="2.39697">
        <ele>95.199996948242</ele>
        <time>2024-04-14T07:29:38.000Z</time>
      </trkpt>
      <trkpt lat="48.37788" lon="2.39708">
        <ele>95.800003051758</ele>
        <time>2024-04-14T07:29:41.000Z</time>
      </trkpt>
      <trkpt lat="48.3779" lon="2.39716">
        <ele>96.599998474121</ele>
        <time>2024-04-14T07:29:43.000Z</time>
      </trkpt>
      <trkpt lat="48.37795" lon="2.3973">
        <ele>97.599998474121</ele>
        <time>2024-04-14T07:29:47.000Z</time>
      </trkpt>
      <trkpt lat="48.37798" lon="2.39746">
        <ele>98.800003051758</ele>
        <time>2024-04-14T07:29:51.000Z</time>
      </trkpt>
      <trkpt lat="48.37799" lon="2.39749">
        <ele>99.199996948242</ele>
        <time>2024-04-14T07:29:52.000Z</time>
      </trkpt>
      <trkpt lat="48.37801" lon="2.39756">
        <ele>99.800003051758</ele>
        <time>2024-04-14T07:29:54.000Z</time>
      </trkpt>
      <trkpt lat="48.37804" lon="2.39767">
        <ele>101.19999694824</ele>
        <time>2024-04-14T07:29:57.000Z</time>
      </trkpt>
      <trkpt lat="48.37805" lon="2.39773">
        <ele>101.80000305176</ele>
        <time>2024-04-14T07:29:59.000Z</time>
      </trkpt>
      <trkpt lat="48.37807" lon="2.3978">
        <ele>102.40000152588</ele>
        <time>2024-04-14T07:30:01.000Z</time>
      </trkpt>
      <trkpt lat="48.3781" lon="2.39794">
        <ele>103.59999847412</ele>
        <time>2024-04-14T07:30:05.000Z</time>
      </trkpt>
      <trkpt lat="48.3781" lon="2.39801">
        <ele>104.19999694824</ele>
        <time>2024-04-14T07:30:07.000Z</time>
      </trkpt>
      <trkpt lat="48.37811" lon="2.39808">
        <ele>104.80000305176</ele>
        <time>2024-04-14T07:30:09.000Z</time>
      </trkpt>
      <trkpt lat="48.37813" lon="2.39821">
        <ele>106</ele>
        <time>2024-04-14T07:30:13.000Z</time>
      </trkpt>
      <trkpt lat="48.37814" lon="2.39824">
        <ele>106.19999694824</ele>
        <time>2024-04-14T07:30:14.000Z</time>
      </trkpt>
      <trkpt lat="48.37816" lon="2.39833">
        <ele>107</ele>
        <time>2024-04-14T07:30:17.000Z</time>
      </trkpt>
      <trkpt lat="48.37818" lon="2.39835">
        <ele>107.19999694824</ele>
        <time>2024-04-14T07:30:18.000Z</time>
      </trkpt>
      <trkpt lat="48.3782" lon="2.3984">
        <ele>108.19999694824</ele>
        <time>2024-04-14T07:30:20.000Z</time>
      </trkpt>
      <trkpt lat="48.37822" lon="2.39855">
        <ele>109.59999847412</ele>
        <time>2024-04-14T07:30:25.000Z</time>
      </trkpt>
      <trkpt lat="48.37823" lon="2.39861">
        <ele>110</ele>
        <time>2024-04-14T07:30:27.000Z</time>
      </trkpt>
      <trkpt lat="48.37824" lon="2.39867">
        <ele>110.80000305176</ele>
        <time>2024-04-14T07:30:29.000Z</time>
      </trkpt>
      <trkpt lat="48.37825" lon="2.39884">
        <ele>112</ele>
        <time>2024-04-14T07:30:34.000Z</time>
      </trkpt>
      <trkpt lat="48.37827" lon="2.39898">
        <ele>113</ele>
        <time>2024-04-14T07:30:38.000Z</time>
      </trkpt>
      <trkpt lat="48.37827" lon="2.39912">
        <ele>113.59999847412</ele>
        <time>2024-04-14T07:30:41.000Z</time>
      </trkpt>
      <trkpt lat="48.37828" lon="2.39921">
        <ele>114</ele>
        <time>2024-04-14T07:30:43.000Z</time>
      </trkpt>
      <trkpt lat="48.37827" lon="2.39943">
        <ele>115.19999694824</ele>
        <time>2024-04-14T07:30:48.000Z</time>
      </trkpt>
      <trkpt lat="48.37831" lon="2.39978">
        <ele>116.19999694824</ele>
        <time>2024-04-14T07:30:55.000Z</time>
      </trkpt>
      <trkpt lat="48.37837" lon="2.39997">
        <ele>117.40000152588</ele>
        <time>2024-04-14T07:30:59.000Z</time>
      </trkpt>
      <trkpt lat="48.3784" lon="2.40006">
        <ele>117.59999847412</ele>
        <time>2024-04-14T07:31:01.000Z</time>
      </trkpt>
      <trkpt lat="48.37848" lon="2.4003">
        <ele>118.59999847412</ele>
        <time>2024-04-14T07:31:06.000Z</time>
      </trkpt>
      <trkpt lat="48.37852" lon="2.4004">
        <ele>119</ele>
        <time>2024-04-14T07:31:08.000Z</time>
      </trkpt>
      <trkpt lat="48.37856" lon="2.40058">
        <ele>119.59999847412</ele>
        <time>2024-04-14T07:31:11.000Z</time>
      </trkpt>
      <trkpt lat="48.37858" lon="2.40071">
        <ele>119.59999847412</ele>
        <time>2024-04-14T07:31:13.000Z</time>
      </trkpt>
      <trkpt lat="48.37867" lon="2.40118">
        <ele>120.40000152588</ele>
        <time>2024-04-14T07:31:20.000Z</time>
      </trkpt>
      <trkpt lat="48.37872" lon="2.40144">
        <ele>120.80000305176</ele>
        <time>2024-04-14T07:31:24.000Z</time>
      </trkpt>
      <trkpt lat="48.37877" lon="2.40176">
        <ele>121.59999847412</ele>
        <time>2024-04-14T07:31:29.000Z</time>
      </trkpt>
      <trkpt lat="48.37879" lon="2.40195">
        <ele>122.19999694824</ele>
        <time>2024-04-14T07:31:32.000Z</time>
      </trkpt>
      <trkpt lat="48.37881" lon="2.40219">
        <ele>123.19999694824</ele>
        <time>2024-04-14T07:31:36.000Z</time>
      </trkpt>
      <trkpt lat="48.37885" lon="2.40236">
        <ele>124.40000152588</ele>
        <time>2024-04-14T07:31:39.000Z</time>
      </trkpt>
      <trkpt lat="48.37891" lon="2.40258">
        <ele>125.59999847412</ele>
        <time>2024-04-14T07:31:43.000Z</time>
      </trkpt>
      <trkpt lat="48.37897" lon="2.40273">
        <ele>126.19999694824</ele>
        <time>2024-04-14T07:31:46.000Z</time>
      </trkpt>
      <trkpt lat="48.37903" lon="2.40281">
        <ele>126.19999694824</ele>
        <time>2024-04-14T07:31:48.000Z</time>
      </trkpt>
      <trkpt lat="48.37909" lon="2.4029">
        <ele>126.80000305176</ele>
        <time>2024-04-14T07:31:50.000Z</time>
      </trkpt>
      <trkpt lat="48.3793" lon="2.40319">
        <ele>127.80000305176</ele>
        <time>2024-04-14T07:31:57.000Z</time>
      </trkpt>
      <trkpt lat="48.37954" lon="2.40354">
        <ele>129</ele>
        <time>2024-04-14T07:32:05.000Z</time>
      </trkpt>
      <trkpt lat="48.3796" lon="2.40364">
        <ele>129.19999694824</ele>
        <time>2024-04-14T07:32:07.000Z</time>
      </trkpt>
      <trkpt lat="48.37978" lon="2.40392">
        <ele>130</ele>
        <time>2024-04-14T07:32:13.000Z</time>
      </trkpt>
      <trkpt lat="48.37986" lon="2.40402">
        <ele>130.39999389648</ele>
        <time>2024-04-14T07:32:15.000Z</time>
      </trkpt>
      <trkpt lat="48.38013" lon="2.40429">
        <ele>130.19999694824</ele>
        <time>2024-04-14T07:32:21.000Z</time>
      </trkpt>
      <trkpt lat="48.3806" lon="2.40476">
        <ele>130.60000610352</ele>
        <time>2024-04-14T07:32:31.000Z</time>
      </trkpt>
      <trkpt lat="48.38064" lon="2.40482">
        <ele>130.80000305176</ele>
        <time>2024-04-14T07:32:32.000Z</time>
      </trkpt>
      <trkpt lat="48.38073" lon="2.40502">
        <ele>131</ele>
        <time>2024-04-14T07:32:35.000Z</time>
      </trkpt>
      <trkpt lat="48.38076" lon="2.40508">
        <ele>131.60000610352</ele>
        <time>2024-04-14T07:32:36.000Z</time>
      </trkpt>
      <trkpt lat="48.38088" lon="2.40521">
        <ele>132</ele>
        <time>2024-04-14T07:32:39.000Z</time>
      </trkpt>
      <trkpt lat="48.38096" lon="2.4053">
        <ele>132.80000305176</ele>
        <time>2024-04-14T07:32:41.000Z</time>
      </trkpt>
      <trkpt lat="48.38099" lon="2.40536">
        <ele>133.19999694824</ele>
        <time>2024-04-14T07:32:42.000Z</time>
      </trkpt>
      <trkpt lat="48.3811" lon="2.40562">
        <ele>133.19999694824</ele>
        <time>2024-04-14T07:32:46.000Z</time>
      </trkpt>
      <trkpt lat="48.38127" lon="2.40613">
        <ele>133.80000305176</ele>
        <time>2024-04-14T07:32:53.000Z</time>
      </trkpt>
      <trkpt lat="48.38132" lon="2.40627">
        <ele>134.19999694824</ele>
        <time>2024-04-14T07:32:55.000Z</time>
      </trkpt>
      <trkpt lat="48.38142" lon="2.40655">
        <ele>134</ele>
        <time>2024-04-14T07:32:59.000Z</time>
      </trkpt>
      <trkpt lat="48.38166" lon="2.40729">
        <ele>134.80000305176</ele>
        <time>2024-04-14T07:33:09.000Z</time>
      </trkpt>
      <trkpt lat="48.38171" lon="2.40743">
        <ele>134.80000305176</ele>
        <time>2024-04-14T07:33:11.000Z</time>
      </trkpt>
      <trkpt lat="48.38178" lon="2.40764">
        <ele>135.39999389648</ele>
        <time>2024-04-14T07:33:14.000Z</time>
      </trkpt>
      <trkpt lat="48.3819" lon="2.40799">
        <ele>135.80000305176</ele>
        <time>2024-04-14T07:33:19.000Z</time>
      </trkpt>
      <trkpt lat="48.38211" lon="2.40862">
        <ele>136.39999389648</ele>
        <time>2024-04-14T07:33:28.000Z</time>
      </trkpt>
      <trkpt lat="48.38213" lon="2.4087">
        <ele>136.60000610352</ele>
        <time>2024-04-14T07:33:29.000Z</time>
      </trkpt>
      <trkpt lat="48.38239" lon="2.40949">
        <ele>137</ele>
        <time>2024-04-14T07:33:40.000Z</time>
      </trkpt>
      <trkpt lat="48.38241" lon="2.40956">
        <ele>137.39999389648</ele>
        <time>2024-04-14T07:33:41.000Z</time>
      </trkpt>
      <trkpt lat="48.38258" lon="2.41005">
        <ele>137.80000305176</ele>
        <time>2024-04-14T07:33:48.000Z</time>
      </trkpt>
      <trkpt lat="48.38262" lon="2.41011">
        <ele>137.60000610352</ele>
        <time>2024-04-14T07:33:49.000Z</time>
      </trkpt>
      <trkpt lat="48.38272" lon="2.41012">
        <ele>137.80000305176</ele>
        <time>2024-04-14T07:33:51.000Z</time>
      </trkpt>
      <trkpt lat="48.38283" lon="2.41006">
        <ele>137.19999694824</ele>
        <time>2024-04-14T07:33:53.000Z</time>
      </trkpt>
      <trkpt lat="48.38306" lon="2.40993">
        <ele>137.19999694824</ele>
        <time>2024-04-14T07:33:57.000Z</time>
      </trkpt>
      <trkpt lat="48.3835" lon="2.40971">
        <ele>136.39999389648</ele>
        <time>2024-04-14T07:34:04.000Z</time>
      </trkpt>
      <trkpt lat="48.38371" lon="2.40961">
        <ele>136.39999389648</ele>
        <time>2024-04-14T07:34:07.000Z</time>
      </trkpt>
      <trkpt lat="48.38392" lon="2.40951">
        <ele>136.19999694824</ele>
        <time>2024-04-14T07:34:10.000Z</time>
      </trkpt>
      <trkpt lat="48.38428" lon="2.40932">
        <ele>135</ele>
        <time>2024-04-14T07:34:15.000Z</time>
      </trkpt>
      <trkpt lat="48.3848" lon="2.40906">
        <ele>134.39999389648</ele>
        <time>2024-04-14T07:34:22.000Z</time>
      </trkpt>
      <trkpt lat="48.38487" lon="2.40902">
        <ele>134.19999694824</ele>
        <time>2024-04-14T07:34:23.000Z</time>
      </trkpt>
      <trkpt lat="48.38494" lon="2.40899">
        <ele>133.80000305176</ele>
        <time>2024-04-14T07:34:24.000Z</time>
      </trkpt>
      <trkpt lat="48.38536" lon="2.40877">
        <ele>133</ele>
        <time>2024-04-14T07:34:30.000Z</time>
      </trkpt>
      <trkpt lat="48.38555" lon="2.40866">
        <ele>132.39999389648</ele>
        <time>2024-04-14T07:34:33.000Z</time>
      </trkpt>
      <trkpt lat="48.38583" lon="2.40849">
        <ele>133</ele>
        <time>2024-04-14T07:34:38.000Z</time>
      </trkpt>
      <trkpt lat="48.38614" lon="2.40833">
        <ele>133.60000610352</ele>
        <time>2024-04-14T07:34:44.000Z</time>
      </trkpt>
      <trkpt lat="48.38629" lon="2.40826">
        <ele>133.80000305176</ele>
        <time>2024-04-14T07:34:47.000Z</time>
      </trkpt>
      <trkpt lat="48.38681" lon="2.40802">
        <ele>133.19999694824</ele>
        <time>2024-04-14T07:34:57.000Z</time>
      </trkpt>
      <trkpt lat="48.38693" lon="2.40797">
        <ele>134.39999389648</ele>
        <time>2024-04-14T07:35:00.000Z</time>
      </trkpt>
      <trkpt lat="48.38695" lon="2.40793">
        <ele>134.80000305176</ele>
        <time>2024-04-14T07:35:01.000Z</time>
      </trkpt>
      <trkpt lat="48.38697" lon="2.40788">
        <ele>134.60000610352</ele>
        <time>2024-04-14T07:35:02.000Z</time>
      </trkpt>
      <trkpt lat="48.38697" lon="2.40767">
        <ele>134.19999694824</ele>
        <time>2024-04-14T07:35:05.000Z</time>
      </trkpt>
      <trkpt lat="48.38691" lon="2.40721">
        <ele>134</ele>
        <time>2024-04-14T07:35:11.000Z</time>
      </trkpt>
      <trkpt lat="48.38687" lon="2.40688">
        <ele>133.60000610352</ele>
        <time>2024-04-14T07:35:15.000Z</time>
      </trkpt>
      <trkpt lat="48.38682" lon="2.40647">
        <ele>133.19999694824</ele>
        <time>2024-04-14T07:35:20.000Z</time>
      </trkpt>
      <trkpt lat="48.38671" lon="2.40562">
        <ele>133.39999389648</ele>
        <time>2024-04-14T07:35:29.000Z</time>
      </trkpt>
      <trkpt lat="48.38662" lon="2.40489">
        <ele>132.80000305176</ele>
        <time>2024-04-14T07:35:37.000Z</time>
      </trkpt>
      <trkpt lat="48.38656" lon="2.40461">
        <ele>132.80000305176</ele>
        <time>2024-04-14T07:35:41.000Z</time>
      </trkpt>
      <trkpt lat="48.38656" lon="2.40455">
        <ele>132.80000305176</ele>
        <time>2024-04-14T07:35:42.000Z</time>
      </trkpt>
      <trkpt lat="48.38663" lon="2.40433">
        <ele>133.19999694824</ele>
        <time>2024-04-14T07:35:46.000Z</time>
      </trkpt>
      <trkpt lat="48.38662" lon="2.40411">
        <ele>133.60000610352</ele>
        <time>2024-04-14T07:35:49.000Z</time>
      </trkpt>
      <trkpt lat="48.38655" lon="2.40357">
        <ele>133.80000305176</ele>
        <time>2024-04-14T07:35:56.000Z</time>
      </trkpt>
      <trkpt lat="48.3865" lon="2.40318">
        <ele>133.60000610352</ele>
        <time>2024-04-14T07:36:02.000Z</time>
      </trkpt>
      <trkpt lat="48.3865" lon="2.40304">
        <ele>133.19999694824</ele>
        <time>2024-04-14T07:36:05.000Z</time>
      </trkpt>
      <trkpt lat="48.38652" lon="2.40301">
        <ele>133.19999694824</ele>
        <time>2024-04-14T07:36:06.000Z</time>
      </trkpt>
      <trkpt lat="48.3867" lon="2.40295">
        <ele>133.39999389648</ele>
        <time>2024-04-14T07:36:10.000Z</time>
      </trkpt>
      <trkpt lat="48.38676" lon="2.40294">
        <ele>133.60000610352</ele>
        <time>2024-04-14T07:36:11.000Z</time>
      </trkpt>
      <trkpt lat="48.38708" lon="2.40289">
        <ele>134</ele>
        <time>2024-04-14T07:36:17.000Z</time>
      </trkpt>
      <trkpt lat="48.38752" lon="2.40282">
        <ele>133.80000305176</ele>
        <time>2024-04-14T07:36:25.000Z</time>
      </trkpt>
      <trkpt lat="48.38788" lon="2.40274">
        <ele>133.39999389648</ele>
        <time>2024-04-14T07:36:32.000Z</time>
      </trkpt>
      <trkpt lat="48.38804" lon="2.40271">
        <ele>134</ele>
        <time>2024-04-14T07:36:37.000Z</time>
      </trkpt>
      <trkpt lat="48.38809" lon="2.40268">
        <ele>134</ele>
        <time>2024-04-14T07:36:42.000Z</time>
      </trkpt>
      <trkpt lat="48.38812" lon="2.40272">
        <ele>134.19999694824</ele>
        <time>2024-04-14T07:36:46.000Z</time>
      </trkpt>
      <trkpt lat="48.38812" lon="2.40276">
        <ele>134.39999389648</ele>
        <time>2024-04-14T07:36:48.000Z</time>
      </trkpt>
      <trkpt lat="48.38816" lon="2.40278">
        <ele>134.60000610352</ele>
        <time>2024-04-14T07:36:51.000Z</time>
      </trkpt>
      <trkpt lat="48.38818" lon="2.40277">
        <ele>134.60000610352</ele>
        <time>2024-04-14T07:36:52.000Z</time>
      </trkpt>
      <trkpt lat="48.38829" lon="2.40281">
        <ele>134.60000610352</ele>
        <time>2024-04-14T07:36:56.000Z</time>
      </trkpt>
      <trkpt lat="48.38849" lon="2.40288">
        <ele>135</ele>
        <time>2024-04-14T07:37:03.000Z</time>
      </trkpt>
      <trkpt lat="48.38874" lon="2.40282">
        <ele>134.80000305176</ele>
        <time>2024-04-14T07:37:09.000Z</time>
      </trkpt>
      <trkpt lat="48.38897" lon="2.40279">
        <ele>134.60000610352</ele>
        <time>2024-04-14T07:37:16.000Z</time>
      </trkpt>
      <trkpt lat="48.38907" lon="2.40284">
        <ele>134.39999389648</ele>
        <time>2024-04-14T07:37:22.000Z</time>
      </trkpt>
      <trkpt lat="48.38911" lon="2.40287">
        <ele>134.39999389648</ele>
        <time>2024-04-14T07:37:24.000Z</time>
      </trkpt>
      <trkpt lat="48.3892" lon="2.40292">
        <ele>134.39999389648</ele>
        <time>2024-04-14T07:37:28.000Z</time>
      </trkpt>
      <trkpt lat="48.38929" lon="2.40294">
        <ele>134.19999694824</ele>
        <time>2024-04-14T07:37:33.000Z</time>
      </trkpt>
      <trkpt lat="48.38939" lon="2.40292">
        <ele>134</ele>
        <time>2024-04-14T07:37:35.000Z</time>
      </trkpt>
      <trkpt lat="48.38947" lon="2.40291">
        <ele>133.80000305176</ele>
        <time>2024-04-14T07:37:39.000Z</time>
      </trkpt>
      <trkpt lat="48.38949" lon="2.40291">
        <ele>133.60000610352</ele>
        <time>2024-04-14T07:37:43.000Z</time>
      </trkpt>
      <trkpt lat="48.38949" lon="2.40291">
        <ele>133.60000610352</ele>
        <time>2024-04-14T07:37:45.000Z</time>
      </trkpt>
      <trkpt lat="48.3895" lon="2.40291">
        <ele>133.39999389648</ele>
        <time>2024-04-14T07:38:00.000Z</time>
      </trkpt>
      <trkpt lat="48.38966" lon="2.40289">
        <ele>133.39999389648</ele>
        <time>2024-04-14T07:38:06.000Z</time>
      </trkpt>
      <trkpt lat="48.38983" lon="2.40294">
        <ele>132.60000610352</ele>
        <time>2024-04-14T07:38:11.000Z</time>
      </trkpt>
      <trkpt lat="48.38994" lon="2.40295">
        <ele>132.60000610352</ele>
        <time>2024-04-14T07:38:14.000Z</time>
      </trkpt>
      <trkpt lat="48.38999" lon="2.40295">
        <ele>132.39999389648</ele>
        <time>2024-04-14T07:38:16.000Z</time>
      </trkpt>
      <trkpt lat="48.39015" lon="2.4029">
        <ele>131.60000610352</ele>
        <time>2024-04-14T07:38:22.000Z</time>
      </trkpt>
      <trkpt lat="48.39018" lon="2.40289">
        <ele>131.39999389648</ele>
        <time>2024-04-14T07:38:23.000Z</time>
      </trkpt>
      <trkpt lat="48.39026" lon="2.4029">
        <ele>131.39999389648</ele>
        <time>2024-04-14T07:38:29.000Z</time>
      </trkpt>
      <trkpt lat="48.39033" lon="2.40288">
        <ele>131.39999389648</ele>
        <time>2024-04-14T07:38:35.000Z</time>
      </trkpt>
      <trkpt lat="48.39037" lon="2.40285">
        <ele>131</ele>
        <time>2024-04-14T07:38:41.000Z</time>
      </trkpt>
      <trkpt lat="48.39037" lon="2.40285">
        <ele>131</ele>
        <time>2024-04-14T07:38:54.000Z</time>
      </trkpt>
      <trkpt lat="48.39041" lon="2.40282">
        <ele>131.19999694824</ele>
        <time>2024-04-14T07:39:01.000Z</time>
      </trkpt>
      <trkpt lat="48.39056" lon="2.40272">
        <ele>130.39999389648</ele>
        <time>2024-04-14T07:39:07.000Z</time>
      </trkpt>
      <trkpt lat="48.39073" lon="2.40261">
        <ele>129.60000610352</ele>
        <time>2024-04-14T07:39:14.000Z</time>
      </trkpt>
      <trkpt lat="48.39077" lon="2.40258">
        <ele>129.39999389648</ele>
        <time>2024-04-14T07:39:15.000Z</time>
      </trkpt>
      <trkpt lat="48.39092" lon="2.4025">
        <ele>128.60000610352</ele>
        <time>2024-04-14T07:39:20.000Z</time>
      </trkpt>
      <trkpt lat="48.39095" lon="2.40249">
        <ele>128.39999389648</ele>
        <time>2024-04-14T07:39:21.000Z</time>
      </trkpt>
      <trkpt lat="48.39111" lon="2.40249">
        <ele>127.59999847412</ele>
        <time>2024-04-14T07:39:26.000Z</time>
      </trkpt>
      <trkpt lat="48.39115" lon="2.4025">
        <ele>127.40000152588</ele>
        <time>2024-04-14T07:39:28.000Z</time>
      </trkpt>
      <trkpt lat="48.39119" lon="2.40255">
        <ele>127</ele>
        <time>2024-04-14T07:39:30.000Z</time>
      </trkpt>
      <trkpt lat="48.39126" lon="2.40257">
        <ele>126.19999694824</ele>
        <time>2024-04-14T07:39:34.000Z</time>
      </trkpt>
      <trkpt lat="48.39129" lon="2.40256">
        <ele>126.19999694824</ele>
        <time>2024-04-14T07:39:35.000Z</time>
      </trkpt>
      <trkpt lat="48.39143" lon="2.40252">
        <ele>125.19999694824</ele>
        <time>2024-04-14T07:39:39.000Z</time>
      </trkpt>
      <trkpt lat="48.39152" lon="2.40246">
        <ele>124.59999847412</ele>
        <time>2024-04-14T07:39:41.000Z</time>
      </trkpt>
      <trkpt lat="48.39157" lon="2.4024">
        <ele>124</ele>
        <time>2024-04-14T07:39:43.000Z</time>
      </trkpt>
      <trkpt lat="48.3916" lon="2.40224">
        <ele>123.19999694824</ele>
        <time>2024-04-14T07:39:46.000Z</time>
      </trkpt>
      <trkpt lat="48.39158" lon="2.40211">
        <ele>123</ele>
        <time>2024-04-14T07:39:48.000Z</time>
      </trkpt>
      <trkpt lat="48.39156" lon="2.4019">
        <ele>122.80000305176</ele>
        <time>2024-04-14T07:39:51.000Z</time>
      </trkpt>
      <trkpt lat="48.39152" lon="2.40177">
        <ele>122.40000152588</ele>
        <time>2024-04-14T07:39:53.000Z</time>
      </trkpt>
      <trkpt lat="48.39142" lon="2.40149">
        <ele>121.59999847412</ele>
        <time>2024-04-14T07:39:57.000Z</time>
      </trkpt>
      <trkpt lat="48.39138" lon="2.40134">
        <ele>121.40000152588</ele>
        <time>2024-04-14T07:39:59.000Z</time>
      </trkpt>
      <trkpt lat="48.39125" lon="2.40088">
        <ele>120.59999847412</ele>
        <time>2024-04-14T07:40:06.000Z</time>
      </trkpt>
      <trkpt lat="48.39125" lon="2.40082">
        <ele>120.59999847412</ele>
        <time>2024-04-14T07:40:07.000Z</time>
      </trkpt>
      <trkpt lat="48.39122" lon="2.40053">
        <ele>120.40000152588</ele>
        <time>2024-04-14T07:40:12.000Z</time>
      </trkpt>
      <trkpt lat="48.39114" lon="2.40011">
        <ele>121.59999847412</ele>
        <time>2024-04-14T07:40:19.000Z</time>
      </trkpt>
      <trkpt lat="48.3911" lon="2.39993">
        <ele>122.80000305176</ele>
        <time>2024-04-14T07:40:22.000Z</time>
      </trkpt>
      <trkpt lat="48.39105" lon="2.39976">
        <ele>123.40000152588</ele>
        <time>2024-04-14T07:40:25.000Z</time>
      </trkpt>
      <trkpt lat="48.39103" lon="2.39965">
        <ele>124</ele>
        <time>2024-04-14T07:40:27.000Z</time>
      </trkpt>
      <trkpt lat="48.39097" lon="2.39938">
        <ele>125</ele>
        <time>2024-04-14T07:40:32.000Z</time>
      </trkpt>
      <trkpt lat="48.39086" lon="2.39902">
        <ele>125.80000305176</ele>
        <time>2024-04-14T07:40:39.000Z</time>
      </trkpt>
      <trkpt lat="48.39079" lon="2.39877">
        <ele>126.19999694824</ele>
        <time>2024-04-14T07:40:44.000Z</time>
      </trkpt>
      <trkpt lat="48.39078" lon="2.39872">
        <ele>126.40000152588</ele>
        <time>2024-04-14T07:40:45.000Z</time>
      </trkpt>
      <trkpt lat="48.39068" lon="2.39827">
        <ele>126.59999847412</ele>
        <time>2024-04-14T07:40:53.000Z</time>
      </trkpt>
      <trkpt lat="48.3905" lon="2.39768">
        <ele>125</ele>
        <time>2024-04-14T07:41:02.000Z</time>
      </trkpt>
      <trkpt lat="48.3904" lon="2.39737">
        <ele>125.40000152588</ele>
        <time>2024-04-14T07:41:07.000Z</time>
      </trkpt>
      <trkpt lat="48.39025" lon="2.39705">
        <ele>126</ele>
        <time>2024-04-14T07:41:13.000Z</time>
      </trkpt>
      <trkpt lat="48.39022" lon="2.39701">
        <ele>126.19999694824</ele>
        <time>2024-04-14T07:41:14.000Z</time>
      </trkpt>
      <trkpt lat="48.39017" lon="2.39698">
        <ele>126</ele>
        <time>2024-04-14T07:41:15.000Z</time>
      </trkpt>
      <trkpt lat="48.3901" lon="2.39691">
        <ele>126</ele>
        <time>2024-04-14T07:41:17.000Z</time>
      </trkpt>
      <trkpt lat="48.38996" lon="2.39668">
        <ele>125.59999847412</ele>
        <time>2024-04-14T07:41:22.000Z</time>
      </trkpt>
      <trkpt lat="48.38993" lon="2.39664">
        <ele>125.40000152588</ele>
        <time>2024-04-14T07:41:23.000Z</time>
      </trkpt>
      <trkpt lat="48.38983" lon="2.39648">
        <ele>124.80000305176</ele>
        <time>2024-04-14T07:41:26.000Z</time>
      </trkpt>
      <trkpt lat="48.38981" lon="2.39641">
        <ele>124.19999694824</ele>
        <time>2024-04-14T07:41:27.000Z</time>
      </trkpt>
      <trkpt lat="48.38981" lon="2.39632">
        <ele>123.80000305176</ele>
        <time>2024-04-14T07:41:28.000Z</time>
      </trkpt>
      <trkpt lat="48.38983" lon="2.39615">
        <ele>123.40000152588</ele>
        <time>2024-04-14T07:41:30.000Z</time>
      </trkpt>
      <trkpt lat="48.3899" lon="2.39601">
        <ele>122.59999847412</ele>
        <time>2024-04-14T07:41:32.000Z</time>
      </trkpt>
      <trkpt lat="48.38996" lon="2.39594">
        <ele>121.80000305176</ele>
        <time>2024-04-14T07:41:33.000Z</time>
      </trkpt>
      <trkpt lat="48.39007" lon="2.39587">
        <ele>121.19999694824</ele>
        <time>2024-04-14T07:41:35.000Z</time>
      </trkpt>
      <trkpt lat="48.39013" lon="2.39584">
        <ele>121.19999694824</ele>
        <time>2024-04-14T07:41:36.000Z</time>
      </trkpt>
      <trkpt lat="48.39021" lon="2.39584">
        <ele>121.40000152588</ele>
        <time>2024-04-14T07:41:38.000Z</time>
      </trkpt>
      <trkpt lat="48.39024" lon="2.39585">
        <ele>121.40000152588</ele>
        <time>2024-04-14T07:41:39.000Z</time>
      </trkpt>
      <trkpt lat="48.39026" lon="2.39586">
        <ele>121.40000152588</ele>
        <time>2024-04-14T07:41:40.000Z</time>
      </trkpt>
      <trkpt lat="48.3903" lon="2.39587">
        <ele>121.40000152588</ele>
        <time>2024-04-14T07:41:43.000Z</time>
      </trkpt>
      <trkpt lat="48.39038" lon="2.39589">
        <ele>121.59999847412</ele>
        <time>2024-04-14T07:41:48.000Z</time>
      </trkpt>
      <trkpt lat="48.39039" lon="2.39588">
        <ele>121.40000152588</ele>
        <time>2024-04-14T07:41:49.000Z</time>
      </trkpt>
      <trkpt lat="48.39041" lon="2.3958">
        <ele>121.40000152588</ele>
        <time>2024-04-14T07:41:54.000Z</time>
      </trkpt>
      <trkpt lat="48.39041" lon="2.39577">
        <ele>121.40000152588</ele>
        <time>2024-04-14T07:41:55.000Z</time>
      </trkpt>
      <trkpt lat="48.39041" lon="2.39574">
        <ele>121.19999694824</ele>
        <time>2024-04-14T07:42:00.000Z</time>
      </trkpt>
      <trkpt lat="48.39041" lon="2.39574">
        <ele>121.19999694824</ele>
        <time>2024-04-14T07:42:08.000Z</time>
      </trkpt>
      <trkpt lat="48.39039" lon="2.39572">
        <ele>121</ele>
        <time>2024-04-14T07:42:13.000Z</time>
      </trkpt>
      <trkpt lat="48.39037" lon="2.39571">
        <ele>121</ele>
        <time>2024-04-14T07:42:14.000Z</time>
      </trkpt>
      <trkpt lat="48.39034" lon="2.39569">
        <ele>120.59999847412</ele>
        <time>2024-04-14T07:42:16.000Z</time>
      </trkpt>
      <trkpt lat="48.39031" lon="2.39568">
        <ele>120.19999694824</ele>
        <time>2024-04-14T07:42:17.000Z</time>
      </trkpt>
      <trkpt lat="48.39029" lon="2.39568">
        <ele>120</ele>
        <time>2024-04-14T07:42:18.000Z</time>
      </trkpt>
      <trkpt lat="48.39025" lon="2.39567">
        <ele>119.80000305176</ele>
        <time>2024-04-14T07:42:23.000Z</time>
      </trkpt>
      <trkpt lat="48.39025" lon="2.39567">
        <ele>119.80000305176</ele>
        <time>2024-04-14T07:42:31.000Z</time>
      </trkpt>
      <trkpt lat="48.39025" lon="2.39568">
        <ele>120</ele>
        <time>2024-04-14T07:42:35.000Z</time>
      </trkpt>
      <trkpt lat="48.39025" lon="2.39568">
        <ele>120.19999694824</ele>
        <time>2024-04-14T07:42:43.000Z</time>
      </trkpt>
      <trkpt lat="48.39025" lon="2.39568">
        <ele>119.80000305176</ele>
        <time>2024-04-14T07:42:51.000Z</time>
      </trkpt>
      <trkpt lat="48.39021" lon="2.39568">
        <ele>119</ele>
        <time>2024-04-14T07:42:53.000Z</time>
      </trkpt>
      <trkpt lat="48.39018" lon="2.39567">
        <ele>118</ele>
        <time>2024-04-14T07:42:54.000Z</time>
      </trkpt>
      <trkpt lat="48.39015" lon="2.39566">
        <ele>116.59999847412</ele>
        <time>2024-04-14T07:42:55.000Z</time>
      </trkpt>
      <trkpt lat="48.39015" lon="2.39566">
        <ele>115.19999694824</ele>
        <time>2024-04-14T07:42:56.000Z</time>
      </trkpt>
      <trkpt lat="48.39013" lon="2.39563">
        <ele>114.59999847412</ele>
        <time>2024-04-14T07:42:58.000Z</time>
      </trkpt>
      <trkpt lat="48.39012" lon="2.39561">
        <ele>114.59999847412</ele>
        <time>2024-04-14T07:43:06.000Z</time>
      </trkpt>
      <trkpt lat="48.39013" lon="2.39556">
        <ele>114</ele>
        <time>2024-04-14T07:43:11.000Z</time>
      </trkpt>
      <trkpt lat="48.39013" lon="2.39554">
        <ele>113.19999694824</ele>
        <time>2024-04-14T07:43:12.000Z</time>
      </trkpt>
      <trkpt lat="48.39014" lon="2.39551">
        <ele>112.19999694824</ele>
        <time>2024-04-14T07:43:13.000Z</time>
      </trkpt>
      <trkpt lat="48.39015" lon="2.39546">
        <ele>110</ele>
        <time>2024-04-14T07:43:15.000Z</time>
      </trkpt>
      <trkpt lat="48.39017" lon="2.39542">
        <ele>108.19999694824</ele>
        <time>2024-04-14T07:43:17.000Z</time>
      </trkpt>
      <trkpt lat="48.39018" lon="2.3954">
        <ele>107.40000152588</ele>
        <time>2024-04-14T07:43:18.000Z</time>
      </trkpt>
      <trkpt lat="48.39018" lon="2.39538">
        <ele>106.80000305176</ele>
        <time>2024-04-14T07:43:19.000Z</time>
      </trkpt>
      <trkpt lat="48.39019" lon="2.39536">
        <ele>105.80000305176</ele>
        <time>2024-04-14T07:43:20.000Z</time>
      </trkpt>
      <trkpt lat="48.3902" lon="2.39533">
        <ele>104.80000305176</ele>
        <time>2024-04-14T07:43:21.000Z</time>
      </trkpt>
      <trkpt lat="48.39021" lon="2.39532">
        <ele>103.80000305176</ele>
        <time>2024-04-14T07:43:22.000Z</time>
      </trkpt>
      <trkpt lat="48.39022" lon="2.39529">
        <ele>102.80000305176</ele>
        <time>2024-04-14T07:43:23.000Z</time>
      </trkpt>
      <trkpt lat="48.39022" lon="2.39527">
        <ele>101.80000305176</ele>
        <time>2024-04-14T07:43:24.000Z</time>
      </trkpt>
      <trkpt lat="48.39021" lon="2.39526">
        <ele>101</ele>
        <time>2024-04-14T07:43:25.000Z</time>
      </trkpt>
      <trkpt lat="48.3902" lon="2.39523">
        <ele>99.400001525879</ele>
        <time>2024-04-14T07:43:27.000Z</time>
      </trkpt>
      <trkpt lat="48.39018" lon="2.39522">
        <ele>98.199996948242</ele>
        <time>2024-04-14T07:43:28.000Z</time>
      </trkpt>
      <trkpt lat="48.39016" lon="2.39519">
        <ele>96.599998474121</ele>
        <time>2024-04-14T07:43:30.000Z</time>
      </trkpt>
      <trkpt lat="48.39012" lon="2.39516">
        <ele>95.400001525879</ele>
        <time>2024-04-14T07:43:32.000Z</time>
      </trkpt>
      <trkpt lat="48.39009" lon="2.39516">
        <ele>95.199996948242</ele>
        <time>2024-04-14T07:43:37.000Z</time>
      </trkpt>
      <trkpt lat="48.39009" lon="2.39516">
        <ele>95.199996948242</ele>
        <time>2024-04-14T07:43:50.000Z</time>
      </trkpt>
      <trkpt lat="48.39009" lon="2.39516">
        <ele>95.199996948242</ele>
        <time>2024-04-14T07:43:57.000Z</time>
      </trkpt>
      <trkpt lat="48.39009" lon="2.39516">
        <ele>95.199996948242</ele>
        <time>2024-04-14T07:44:06.000Z</time>
      </trkpt>
      <trkpt lat="48.39011" lon="2.39514">
        <ele>95.400001525879</ele>
        <time>2024-04-14T07:44:14.000Z</time>
      </trkpt>
      <trkpt lat="48.39013" lon="2.39513">
        <ele>95.400001525879</ele>
        <time>2024-04-14T07:44:15.000Z</time>
      </trkpt>
      <trkpt lat="48.39025" lon="2.39512">
        <ele>95.800003051758</ele>
        <time>2024-04-14T07:44:21.000Z</time>
      </trkpt>
      <trkpt lat="48.39044" lon="2.39512">
        <ele>96.400001525879</ele>
        <time>2024-04-14T07:44:27.000Z</time>
      </trkpt>
      <trkpt lat="48.3905" lon="2.39512">
        <ele>96.599998474121</ele>
        <time>2024-04-14T07:44:29.000Z</time>
      </trkpt>
      <trkpt lat="48.39073" lon="2.39514">
        <ele>97.199996948242</ele>
        <time>2024-04-14T07:44:35.000Z</time>
      </trkpt>
      <trkpt lat="48.3909" lon="2.39519">
        <ele>97.800003051758</ele>
        <time>2024-04-14T07:44:39.000Z</time>
      </trkpt>
      <trkpt lat="48.39103" lon="2.39525">
        <ele>97.800003051758</ele>
        <time>2024-04-14T07:44:42.000Z</time>
      </trkpt>
      <trkpt lat="48.39121" lon="2.39538">
        <ele>97.800003051758</ele>
        <time>2024-04-14T07:44:46.000Z</time>
      </trkpt>
      <trkpt lat="48.3913" lon="2.39547">
        <ele>98</ele>
        <time>2024-04-14T07:44:48.000Z</time>
      </trkpt>
      <trkpt lat="48.39157" lon="2.39589">
        <ele>98.400001525879</ele>
        <time>2024-04-14T07:44:55.000Z</time>
      </trkpt>
      <trkpt lat="48.39165" lon="2.39607">
        <ele>98.800003051758</ele>
        <time>2024-04-14T07:44:58.000Z</time>
      </trkpt>
      <trkpt lat="48.39168" lon="2.39615">
        <ele>99</ele>
        <time>2024-04-14T07:45:00.000Z</time>
      </trkpt>
      <trkpt lat="48.39174" lon="2.39619">
        <ele>99</ele>
        <time>2024-04-14T07:45:04.000Z</time>
      </trkpt>
      <trkpt lat="48.3918" lon="2.39631">
        <ele>97.400001525879</ele>
        <time>2024-04-14T07:45:08.000Z</time>
      </trkpt>
      <trkpt lat="48.39181" lon="2.39635">
        <ele>95.199996948242</ele>
        <time>2024-04-14T07:45:09.000Z</time>
      </trkpt>
      <trkpt lat="48.39188" lon="2.39645">
        <ele>93.599998474121</ele>
        <time>2024-04-14T07:45:11.000Z</time>
      </trkpt>
      <trkpt lat="48.39195" lon="2.39647">
        <ele>92</ele>
        <time>2024-04-14T07:45:13.000Z</time>
      </trkpt>
      <trkpt lat="48.392" lon="2.39638">
        <ele>90.599998474121</ele>
        <time>2024-04-14T07:45:15.000Z</time>
      </trkpt>
      <trkpt lat="48.392" lon="2.39632">
        <ele>90.199996948242</ele>
        <time>2024-04-14T07:45:16.000Z</time>
      </trkpt>
      <trkpt lat="48.392" lon="2.39628">
        <ele>89.400001525879</ele>
        <time>2024-04-14T07:45:17.000Z</time>
      </trkpt>
      <trkpt lat="48.392" lon="2.39626">
        <ele>88.599998474121</ele>
        <time>2024-04-14T07:45:19.000Z</time>
      </trkpt>
      <trkpt lat="48.392" lon="2.39625">
        <ele>88.400001525879</ele>
        <time>2024-04-14T07:45:20.000Z</time>
      </trkpt>
      <trkpt lat="48.392" lon="2.39625">
        <ele>88.400001525879</ele>
        <time>2024-04-14T07:45:27.000Z</time>
      </trkpt>
      <trkpt lat="48.39201" lon="2.39615">
        <ele>87.400001525879</ele>
        <time>2024-04-14T07:45:32.000Z</time>
      </trkpt>
      <trkpt lat="48.39202" lon="2.39609">
        <ele>86.800003051758</ele>
        <time>2024-04-14T07:45:33.000Z</time>
      </trkpt>
      <trkpt lat="48.39208" lon="2.396">
        <ele>85.599998474121</ele>
        <time>2024-04-14T07:45:35.000Z</time>
      </trkpt>
      <trkpt lat="48.39212" lon="2.396">
        <ele>85</ele>
        <time>2024-04-14T07:45:36.000Z</time>
      </trkpt>
      <trkpt lat="48.39215" lon="2.39603">
        <ele>84.199996948242</ele>
        <time>2024-04-14T07:45:37.000Z</time>
      </trkpt>
      <trkpt lat="48.39221" lon="2.39613">
        <ele>83</ele>
        <time>2024-04-14T07:45:39.000Z</time>
      </trkpt>
      <trkpt lat="48.39222" lon="2.39616">
        <ele>82.800003051758</ele>
        <time>2024-04-14T07:45:40.000Z</time>
      </trkpt>
      <trkpt lat="48.39226" lon="2.39623">
        <ele>82</ele>
        <time>2024-04-14T07:45:42.000Z</time>
      </trkpt>
      <trkpt lat="48.39227" lon="2.39625">
        <ele>81.599998474121</ele>
        <time>2024-04-14T07:45:43.000Z</time>
      </trkpt>
      <trkpt lat="48.39228" lon="2.39625">
        <ele>81</ele>
        <time>2024-04-14T07:45:45.000Z</time>
      </trkpt>
      <trkpt lat="48.39228" lon="2.39626">
        <ele>80.800003051758</ele>
        <time>2024-04-14T07:45:48.000Z</time>
      </trkpt>
      <trkpt lat="48.39229" lon="2.39629">
        <ele>80.800003051758</ele>
        <time>2024-04-14T07:45:56.000Z</time>
      </trkpt>
      <trkpt lat="48.39235" lon="2.39641">
        <ele>80.599998474121</ele>
        <time>2024-04-14T07:46:00.000Z</time>
      </trkpt>
      <trkpt lat="48.39236" lon="2.39648">
        <ele>80</ele>
        <time>2024-04-14T07:46:02.000Z</time>
      </trkpt>
      <trkpt lat="48.3924" lon="2.39661">
        <ele>80.199996948242</ele>
        <time>2024-04-14T07:46:05.000Z</time>
      </trkpt>
      <trkpt lat="48.39243" lon="2.39673">
        <ele>79.599998474121</ele>
        <time>2024-04-14T07:46:07.000Z</time>
      </trkpt>
      <trkpt lat="48.39244" lon="2.39686">
        <ele>79</ele>
        <time>2024-04-14T07:46:09.000Z</time>
      </trkpt>
      <trkpt lat="48.39244" lon="2.39719">
        <ele>80.599998474121</ele>
        <time>2024-04-14T07:46:14.000Z</time>
      </trkpt>
      <trkpt lat="48.39253" lon="2.39741">
        <ele>80.400001525879</ele>
        <time>2024-04-14T07:46:18.000Z</time>
      </trkpt>
      <trkpt lat="48.39257" lon="2.39766">
        <ele>79.800003051758</ele>
        <time>2024-04-14T07:46:22.000Z</time>
      </trkpt>
      <trkpt lat="48.39257" lon="2.39772">
        <ele>80</ele>
        <time>2024-04-14T07:46:23.000Z</time>
      </trkpt>
      <trkpt lat="48.39259" lon="2.39793">
        <ele>78.599998474121</ele>
        <time>2024-04-14T07:46:26.000Z</time>
      </trkpt>
      <trkpt lat="48.39261" lon="2.398">
        <ele>78.599998474121</ele>
        <time>2024-04-14T07:46:27.000Z</time>
      </trkpt>
      <trkpt lat="48.39262" lon="2.3982">
        <ele>78.400001525879</ele>
        <time>2024-04-14T07:46:31.000Z</time>
      </trkpt>
      <trkpt lat="48.39251" lon="2.39828">
        <ele>79.199996948242</ele>
        <time>2024-04-14T07:46:35.000Z</time>
      </trkpt>
      <trkpt lat="48.39246" lon="2.39836">
        <ele>79.800003051758</ele>
        <time>2024-04-14T07:46:37.000Z</time>
      </trkpt>
      <trkpt lat="48.39244" lon="2.39847">
        <ele>80.199996948242</ele>
        <time>2024-04-14T07:46:39.000Z</time>
      </trkpt>
      <trkpt lat="48.39243" lon="2.39853">
        <ele>80.599998474121</ele>
        <time>2024-04-14T07:46:40.000Z</time>
      </trkpt>
      <trkpt lat="48.39242" lon="2.39859">
        <ele>80.800003051758</ele>
        <time>2024-04-14T07:46:41.000Z</time>
      </trkpt>
      <trkpt lat="48.39241" lon="2.39882">
        <ele>82</ele>
        <time>2024-04-14T07:46:45.000Z</time>
      </trkpt>
      <trkpt lat="48.39239" lon="2.39901">
        <ele>81.599998474121</ele>
        <time>2024-04-14T07:46:48.000Z</time>
      </trkpt>
      <trkpt lat="48.39234" lon="2.3995">
        <ele>82.599998474121</ele>
        <time>2024-04-14T07:46:56.000Z</time>
      </trkpt>
      <trkpt lat="48.39236" lon="2.39956">
        <ele>82.800003051758</ele>
        <time>2024-04-14T07:46:58.000Z</time>
      </trkpt>
      <trkpt lat="48.39239" lon="2.39956">
        <ele>82</ele>
        <time>2024-04-14T07:47:00.000Z</time>
      </trkpt>
      <trkpt lat="48.39254" lon="2.39952">
        <ele>80.800003051758</ele>
        <time>2024-04-14T07:47:04.000Z</time>
      </trkpt>
      <trkpt lat="48.3926" lon="2.39951">
        <ele>80.400001525879</ele>
        <time>2024-04-14T07:47:05.000Z</time>
      </trkpt>
      <trkpt lat="48.39278" lon="2.39953">
        <ele>80</ele>
        <time>2024-04-14T07:47:08.000Z</time>
      </trkpt>
      <trkpt lat="48.39283" lon="2.39956">
        <ele>79.800003051758</ele>
        <time>2024-04-14T07:47:09.000Z</time>
      </trkpt>
      <trkpt lat="48.39287" lon="2.39958">
        <ele>79.800003051758</ele>
        <time>2024-04-14T07:47:10.000Z</time>
      </trkpt>
      <trkpt lat="48.39309" lon="2.39964">
        <ele>79.199996948242</ele>
        <time>2024-04-14T07:47:15.000Z</time>
      </trkpt>
      <trkpt lat="48.39314" lon="2.39969">
        <ele>78.800003051758</ele>
        <time>2024-04-14T07:47:16.000Z</time>
      </trkpt>
      <trkpt lat="48.39323" lon="2.39976">
        <ele>78.800003051758</ele>
        <time>2024-04-14T07:47:18.000Z</time>
      </trkpt>
      <trkpt lat="48.39334" lon="2.39981">
        <ele>78.400001525879</ele>
        <time>2024-04-14T07:47:20.000Z</time>
      </trkpt>
      <trkpt lat="48.39344" lon="2.39988">
        <ele>77.800003051758</ele>
        <time>2024-04-14T07:47:22.000Z</time>
      </trkpt>
      <trkpt lat="48.39355" lon="2.39988">
        <ele>77.199996948242</ele>
        <time>2024-04-14T07:47:24.000Z</time>
      </trkpt>
      <trkpt lat="48.39359" lon="2.39989">
        <ele>76.599998474121</ele>
        <time>2024-04-14T07:47:25.000Z</time>
      </trkpt>
      <trkpt lat="48.39365" lon="2.39997">
        <ele>76</ele>
        <time>2024-04-14T07:47:27.000Z</time>
      </trkpt>
      <trkpt lat="48.39365" lon="2.40012">
        <ele>76.599998474121</ele>
        <time>2024-04-14T07:47:30.000Z</time>
      </trkpt>
      <trkpt lat="48.39365" lon="2.40017">
        <ele>76.800003051758</ele>
        <time>2024-04-14T07:47:31.000Z</time>
      </trkpt>
      <trkpt lat="48.39366" lon="2.40033">
        <ele>78</ele>
        <time>2024-04-14T07:47:34.000Z</time>
      </trkpt>
      <trkpt lat="48.39368" lon="2.40056">
        <ele>79</ele>
        <time>2024-04-14T07:47:38.000Z</time>
      </trkpt>
      <trkpt lat="48.39368" lon="2.40061">
        <ele>79.199996948242</ele>
        <time>2024-04-14T07:47:39.000Z</time>
      </trkpt>
      <trkpt lat="48.39368" lon="2.40079">
        <ele>80</ele>
        <time>2024-04-14T07:47:43.000Z</time>
      </trkpt>
      <trkpt lat="48.39367" lon="2.40083">
        <ele>80.400001525879</ele>
        <time>2024-04-14T07:47:44.000Z</time>
      </trkpt>
      <trkpt lat="48.39362" lon="2.40101">
        <ele>81.599998474121</ele>
        <time>2024-04-14T07:47:48.000Z</time>
      </trkpt>
      <trkpt lat="48.39361" lon="2.40104">
        <ele>81.599998474121</ele>
        <time>2024-04-14T07:47:49.000Z</time>
      </trkpt>
      <trkpt lat="48.39356" lon="2.40111">
        <ele>82.599998474121</ele>
        <time>2024-04-14T07:47:52.000Z</time>
      </trkpt>
      <trkpt lat="48.39352" lon="2.40115">
        <ele>83</ele>
        <time>2024-04-14T07:47:54.000Z</time>
      </trkpt>
      <trkpt lat="48.39346" lon="2.40123">
        <ele>83.599998474121</ele>
        <time>2024-04-14T07:47:57.000Z</time>
      </trkpt>
      <trkpt lat="48.39339" lon="2.40132">
        <ele>84.599998474121</ele>
        <time>2024-04-14T07:48:01.000Z</time>
      </trkpt>
      <trkpt lat="48.39336" lon="2.40136">
        <ele>85.800003051758</ele>
        <time>2024-04-14T07:48:04.000Z</time>
      </trkpt>
      <trkpt lat="48.39334" lon="2.4014">
        <ele>86.800003051758</ele>
        <time>2024-04-14T07:48:08.000Z</time>
      </trkpt>
      <trkpt lat="48.39332" lon="2.40143">
        <ele>87</ele>
        <time>2024-04-14T07:48:09.000Z</time>
      </trkpt>
      <trkpt lat="48.39325" lon="2.40151">
        <ele>88.199996948242</ele>
        <time>2024-04-14T07:48:15.000Z</time>
      </trkpt>
      <trkpt lat="48.39321" lon="2.40155">
        <ele>89</ele>
        <time>2024-04-14T07:48:18.000Z</time>
      </trkpt>
      <trkpt lat="48.39321" lon="2.40155">
        <ele>89.400001525879</ele>
        <time>2024-04-14T07:48:19.000Z</time>
      </trkpt>
      <trkpt lat="48.39317" lon="2.40158">
        <ele>90.599998474121</ele>
        <time>2024-04-14T07:48:21.000Z</time>
      </trkpt>
      <trkpt lat="48.39317" lon="2.40159">
        <ele>91.800003051758</ele>
        <time>2024-04-14T07:48:25.000Z</time>
      </trkpt>
      <trkpt lat="48.39313" lon="2.40166">
        <ele>93</ele>
        <time>2024-04-14T07:48:30.000Z</time>
      </trkpt>
      <trkpt lat="48.39309" lon="2.40173">
        <ele>94.400001525879</ele>
        <time>2024-04-14T07:48:35.000Z</time>
      </trkpt>
      <trkpt lat="48.39303" lon="2.4018">
        <ele>95.400001525879</ele>
        <time>2024-04-14T07:48:39.000Z</time>
      </trkpt>
      <trkpt lat="48.39298" lon="2.40186">
        <ele>96.599998474121</ele>
        <time>2024-04-14T07:48:43.000Z</time>
      </trkpt>
      <trkpt lat="48.39293" lon="2.40191">
        <ele>98</ele>
        <time>2024-04-14T07:48:47.000Z</time>
      </trkpt>
      <trkpt lat="48.39287" lon="2.40199">
        <ele>99</ele>
        <time>2024-04-14T07:48:51.000Z</time>
      </trkpt>
      <trkpt lat="48.39285" lon="2.40201">
        <ele>99.599998474121</ele>
        <time>2024-04-14T07:48:53.000Z</time>
      </trkpt>
      <trkpt lat="48.39282" lon="2.40205">
        <ele>100.19999694824</ele>
        <time>2024-04-14T07:48:55.000Z</time>
      </trkpt>
      <trkpt lat="48.39277" lon="2.40214">
        <ele>101.40000152588</ele>
        <time>2024-04-14T07:48:59.000Z</time>
      </trkpt>
      <trkpt lat="48.39276" lon="2.40216">
        <ele>101.59999847412</ele>
        <time>2024-04-14T07:49:00.000Z</time>
      </trkpt>
      <trkpt lat="48.39273" lon="2.4022">
        <ele>102.59999847412</ele>
        <time>2024-04-14T07:49:04.000Z</time>
      </trkpt>
      <trkpt lat="48.39269" lon="2.40226">
        <ele>103.19999694824</ele>
        <time>2024-04-14T07:49:07.000Z</time>
      </trkpt>
      <trkpt lat="48.39267" lon="2.40229">
        <ele>103.59999847412</ele>
        <time>2024-04-14T07:49:09.000Z</time>
      </trkpt>
      <trkpt lat="48.39262" lon="2.40235">
        <ele>104.59999847412</ele>
        <time>2024-04-14T07:49:14.000Z</time>
      </trkpt>
      <trkpt lat="48.39262" lon="2.40238">
        <ele>104.59999847412</ele>
        <time>2024-04-14T07:49:15.000Z</time>
      </trkpt>
      <trkpt lat="48.39261" lon="2.40252">
        <ele>104.80000305176</ele>
        <time>2024-04-14T07:49:21.000Z</time>
      </trkpt>
      <trkpt lat="48.39261" lon="2.40255">
        <ele>104.80000305176</ele>
        <time>2024-04-14T07:49:22.000Z</time>
      </trkpt>
      <trkpt lat="48.39261" lon="2.40272">
        <ele>105.19999694824</ele>
        <time>2024-04-14T07:49:28.000Z</time>
      </trkpt>
      <trkpt lat="48.39263" lon="2.40292">
        <ele>105.80000305176</ele>
        <time>2024-04-14T07:49:34.000Z</time>
      </trkpt>
      <trkpt lat="48.39263" lon="2.40296">
        <ele>105.80000305176</ele>
        <time>2024-04-14T07:49:35.000Z</time>
      </trkpt>
      <trkpt lat="48.39267" lon="2.40318">
        <ele>106.40000152588</ele>
        <time>2024-04-14T07:49:41.000Z</time>
      </trkpt>
      <trkpt lat="48.3927" lon="2.40346">
        <ele>107</ele>
        <time>2024-04-14T07:49:47.000Z</time>
      </trkpt>
      <trkpt lat="48.39272" lon="2.40357">
        <ele>107.19999694824</ele>
        <time>2024-04-14T07:49:49.000Z</time>
      </trkpt>
      <trkpt lat="48.39277" lon="2.40396">
        <ele>108</ele>
        <time>2024-04-14T07:49:56.000Z</time>
      </trkpt>
      <trkpt lat="48.39278" lon="2.40401">
        <ele>108</ele>
        <time>2024-04-14T07:49:57.000Z</time>
      </trkpt>
      <trkpt lat="48.39282" lon="2.40437">
        <ele>109.19999694824</ele>
        <time>2024-04-14T07:50:03.000Z</time>
      </trkpt>
      <trkpt lat="48.39283" lon="2.40442">
        <ele>109.19999694824</ele>
        <time>2024-04-14T07:50:04.000Z</time>
      </trkpt>
      <trkpt lat="48.39282" lon="2.40471">
        <ele>110.19999694824</ele>
        <time>2024-04-14T07:50:09.000Z</time>
      </trkpt>
      <trkpt lat="48.39282" lon="2.40476">
        <ele>110.19999694824</ele>
        <time>2024-04-14T07:50:10.000Z</time>
      </trkpt>
      <trkpt lat="48.39277" lon="2.40505">
        <ele>111.19999694824</ele>
        <time>2024-04-14T07:50:15.000Z</time>
      </trkpt>
      <trkpt lat="48.39272" lon="2.40521">
        <ele>111.59999847412</ele>
        <time>2024-04-14T07:50:18.000Z</time>
      </trkpt>
      <trkpt lat="48.39261" lon="2.40545">
        <ele>112.59999847412</ele>
        <time>2024-04-14T07:50:22.000Z</time>
      </trkpt>
      <trkpt lat="48.39251" lon="2.40561">
        <ele>113</ele>
        <time>2024-04-14T07:50:25.000Z</time>
      </trkpt>
      <trkpt lat="48.39237" lon="2.40585">
        <ele>113.80000305176</ele>
        <time>2024-04-14T07:50:29.000Z</time>
      </trkpt>
      <trkpt lat="48.39224" lon="2.40609">
        <ele>114.40000152588</ele>
        <time>2024-04-14T07:50:33.000Z</time>
      </trkpt>
      <trkpt lat="48.39217" lon="2.40621">
        <ele>114.80000305176</ele>
        <time>2024-04-14T07:50:35.000Z</time>
      </trkpt>
      <trkpt lat="48.39203" lon="2.4065">
        <ele>115.59999847412</ele>
        <time>2024-04-14T07:50:40.000Z</time>
      </trkpt>
      <trkpt lat="48.392" lon="2.40655">
        <ele>116</ele>
        <time>2024-04-14T07:50:41.000Z</time>
      </trkpt>
      <trkpt lat="48.3919" lon="2.40686">
        <ele>117</ele>
        <time>2024-04-14T07:50:46.000Z</time>
      </trkpt>
      <trkpt lat="48.39189" lon="2.40693">
        <ele>117</ele>
        <time>2024-04-14T07:50:47.000Z</time>
      </trkpt>
      <trkpt lat="48.39186" lon="2.4073">
        <ele>118</ele>
        <time>2024-04-14T07:50:52.000Z</time>
      </trkpt>
      <trkpt lat="48.39186" lon="2.40752">
        <ele>118.40000152588</ele>
        <time>2024-04-14T07:50:55.000Z</time>
      </trkpt>
      <trkpt lat="48.39188" lon="2.40775">
        <ele>119.19999694824</ele>
        <time>2024-04-14T07:50:58.000Z</time>
      </trkpt>
      <trkpt lat="48.39191" lon="2.40797">
        <ele>119.59999847412</ele>
        <time>2024-04-14T07:51:01.000Z</time>
      </trkpt>
      <trkpt lat="48.39193" lon="2.40804">
        <ele>119.80000305176</ele>
        <time>2024-04-14T07:51:02.000Z</time>
      </trkpt>
      <trkpt lat="48.39195" lon="2.40811">
        <ele>120</ele>
        <time>2024-04-14T07:51:03.000Z</time>
      </trkpt>
      <trkpt lat="48.39197" lon="2.40817">
        <ele>120.40000152588</ele>
        <time>2024-04-14T07:51:04.000Z</time>
      </trkpt>
      <trkpt lat="48.39208" lon="2.40843">
        <ele>120.80000305176</ele>
        <time>2024-04-14T07:51:08.000Z</time>
      </trkpt>
      <trkpt lat="48.39213" lon="2.40857">
        <ele>121.59999847412</ele>
        <time>2024-04-14T07:51:10.000Z</time>
      </trkpt>
      <trkpt lat="48.39227" lon="2.40893">
        <ele>122.59999847412</ele>
        <time>2024-04-14T07:51:15.000Z</time>
      </trkpt>
      <trkpt lat="48.39229" lon="2.409">
        <ele>122.59999847412</ele>
        <time>2024-04-14T07:51:16.000Z</time>
      </trkpt>
      <trkpt lat="48.39239" lon="2.40929">
        <ele>123.59999847412</ele>
        <time>2024-04-14T07:51:20.000Z</time>
      </trkpt>
      <trkpt lat="48.39251" lon="2.40955">
        <ele>124.19999694824</ele>
        <time>2024-04-14T07:51:24.000Z</time>
      </trkpt>
      <trkpt lat="48.39256" lon="2.4096">
        <ele>124.59999847412</ele>
        <time>2024-04-14T07:51:25.000Z</time>
      </trkpt>
      <trkpt lat="48.3927" lon="2.40971">
        <ele>125.40000152588</ele>
        <time>2024-04-14T07:51:28.000Z</time>
      </trkpt>
      <trkpt lat="48.39274" lon="2.40976">
        <ele>125.80000305176</ele>
        <time>2024-04-14T07:51:29.000Z</time>
      </trkpt>
      <trkpt lat="48.39281" lon="2.40987">
        <ele>126.80000305176</ele>
        <time>2024-04-14T07:51:31.000Z</time>
      </trkpt>
      <trkpt lat="48.39286" lon="2.41">
        <ele>127.40000152588</ele>
        <time>2024-04-14T07:51:33.000Z</time>
      </trkpt>
      <trkpt lat="48.39289" lon="2.41007">
        <ele>127.59999847412</ele>
        <time>2024-04-14T07:51:34.000Z</time>
      </trkpt>
      <trkpt lat="48.39291" lon="2.41013">
        <ele>128.39999389648</ele>
        <time>2024-04-14T07:51:35.000Z</time>
      </trkpt>
      <trkpt lat="48.39296" lon="2.41025">
        <ele>128.39999389648</ele>
        <time>2024-04-14T07:51:37.000Z</time>
      </trkpt>
      <trkpt lat="48.39303" lon="2.41036">
        <ele>128.60000610352</ele>
        <time>2024-04-14T07:51:39.000Z</time>
      </trkpt>
      <trkpt lat="48.39307" lon="2.41041">
        <ele>128.80000305176</ele>
        <time>2024-04-14T07:51:40.000Z</time>
      </trkpt>
      <trkpt lat="48.39319" lon="2.41057">
        <ele>129.60000610352</ele>
        <time>2024-04-14T07:51:43.000Z</time>
      </trkpt>
      <trkpt lat="48.39327" lon="2.41069">
        <ele>130</ele>
        <time>2024-04-14T07:51:45.000Z</time>
      </trkpt>
      <trkpt lat="48.3936" lon="2.4111">
        <ele>130.80000305176</ele>
        <time>2024-04-14T07:51:53.000Z</time>
      </trkpt>
      <trkpt lat="48.39365" lon="2.41115">
        <ele>131</ele>
        <time>2024-04-14T07:51:54.000Z</time>
      </trkpt>
      <trkpt lat="48.39395" lon="2.41144">
        <ele>131.80000305176</ele>
        <time>2024-04-14T07:52:00.000Z</time>
      </trkpt>
      <trkpt lat="48.39415" lon="2.4117">
        <ele>131.80000305176</ele>
        <time>2024-04-14T07:52:04.000Z</time>
      </trkpt>
      <trkpt lat="48.39425" lon="2.41181">
        <ele>132.19999694824</ele>
        <time>2024-04-14T07:52:06.000Z</time>
      </trkpt>
      <trkpt lat="48.3947" lon="2.41227">
        <ele>132.39999389648</ele>
        <time>2024-04-14T07:52:14.000Z</time>
      </trkpt>
      <trkpt lat="48.3952" lon="2.41277">
        <ele>132.60000610352</ele>
        <time>2024-04-14T07:52:23.000Z</time>
      </trkpt>
      <trkpt lat="48.39558" lon="2.41309">
        <ele>132</ele>
        <time>2024-04-14T07:52:30.000Z</time>
      </trkpt>
      <trkpt lat="48.39592" lon="2.41337">
        <ele>131</ele>
        <time>2024-04-14T07:52:37.000Z</time>
      </trkpt>
      <trkpt lat="48.39599" lon="2.41345">
        <ele>130.80000305176</ele>
        <time>2024-04-14T07:52:39.000Z</time>
      </trkpt>
      <trkpt lat="48.39603" lon="2.41355">
        <ele>131</ele>
        <time>2024-04-14T07:52:41.000Z</time>
      </trkpt>
      <trkpt lat="48.39603" lon="2.41374">
        <ele>131</ele>
        <time>2024-04-14T07:52:44.000Z</time>
      </trkpt>
      <trkpt lat="48.39599" lon="2.41389">
        <ele>131.19999694824</ele>
        <time>2024-04-14T07:52:46.000Z</time>
      </trkpt>
      <trkpt lat="48.39594" lon="2.41414">
        <ele>131.60000610352</ele>
        <time>2024-04-14T07:52:49.000Z</time>
      </trkpt>
      <trkpt lat="48.3959" lon="2.41462">
        <ele>132</ele>
        <time>2024-04-14T07:52:55.000Z</time>
      </trkpt>
      <trkpt lat="48.39593" lon="2.41541">
        <ele>132.80000305176</ele>
        <time>2024-04-14T07:53:04.000Z</time>
      </trkpt>
      <trkpt lat="48.39594" lon="2.41566">
        <ele>133</ele>
        <time>2024-04-14T07:53:07.000Z</time>
      </trkpt>
      <trkpt lat="48.39595" lon="2.41609">
        <ele>133.80000305176</ele>
        <time>2024-04-14T07:53:12.000Z</time>
      </trkpt>
      <trkpt lat="48.39596" lon="2.41635">
        <ele>134</ele>
        <time>2024-04-14T07:53:15.000Z</time>
      </trkpt>
      <trkpt lat="48.39601" lon="2.41679">
        <ele>134.80000305176</ele>
        <time>2024-04-14T07:53:20.000Z</time>
      </trkpt>
      <trkpt lat="48.39604" lon="2.41705">
        <ele>135.19999694824</ele>
        <time>2024-04-14T07:53:23.000Z</time>
      </trkpt>
      <trkpt lat="48.39609" lon="2.41758">
        <ele>136</ele>
        <time>2024-04-14T07:53:29.000Z</time>
      </trkpt>
      <trkpt lat="48.3961" lon="2.41776">
        <ele>136.39999389648</ele>
        <time>2024-04-14T07:53:31.000Z</time>
      </trkpt>
      <trkpt lat="48.39613" lon="2.41821">
        <ele>137.39999389648</ele>
        <time>2024-04-14T07:53:36.000Z</time>
      </trkpt>
      <trkpt lat="48.39622" lon="2.41887">
        <ele>137.80000305176</ele>
        <time>2024-04-14T07:53:43.000Z</time>
      </trkpt>
      <trkpt lat="48.39635" lon="2.41972">
        <ele>137.80000305176</ele>
        <time>2024-04-14T07:53:52.000Z</time>
      </trkpt>
      <trkpt lat="48.39647" lon="2.42059">
        <ele>138.39999389648</ele>
        <time>2024-04-14T07:54:01.000Z</time>
      </trkpt>
      <trkpt lat="48.39659" lon="2.42147">
        <ele>137.60000610352</ele>
        <time>2024-04-14T07:54:10.000Z</time>
      </trkpt>
      <trkpt lat="48.39665" lon="2.42201">
        <ele>137.80000305176</ele>
        <time>2024-04-14T07:54:16.000Z</time>
      </trkpt>
      <trkpt lat="48.39665" lon="2.42208">
        <ele>137.60000610352</ele>
        <time>2024-04-14T07:54:17.000Z</time>
      </trkpt>
      <trkpt lat="48.39657" lon="2.42228">
        <ele>137.39999389648</ele>
        <time>2024-04-14T07:54:20.000Z</time>
      </trkpt>
      <trkpt lat="48.3965" lon="2.42254">
        <ele>137.39999389648</ele>
        <time>2024-04-14T07:54:24.000Z</time>
      </trkpt>
      <trkpt lat="48.3965" lon="2.4226">
        <ele>137.39999389648</ele>
        <time>2024-04-14T07:54:25.000Z</time>
      </trkpt>
      <trkpt lat="48.39655" lon="2.42274">
        <ele>137.60000610352</ele>
        <time>2024-04-14T07:54:28.000Z</time>
      </trkpt>
      <trkpt lat="48.39669" lon="2.42279">
        <ele>137.60000610352</ele>
        <time>2024-04-14T07:54:31.000Z</time>
      </trkpt>
      <trkpt lat="48.39674" lon="2.4228">
        <ele>137.39999389648</ele>
        <time>2024-04-14T07:54:32.000Z</time>
      </trkpt>
      <trkpt lat="48.39691" lon="2.42271">
        <ele>137</ele>
        <time>2024-04-14T07:54:35.000Z</time>
      </trkpt>
      <trkpt lat="48.397" lon="2.42261">
        <ele>136.60000610352</ele>
        <time>2024-04-14T07:54:37.000Z</time>
      </trkpt>
      <trkpt lat="48.39705" lon="2.42256">
        <ele>136.39999389648</ele>
        <time>2024-04-14T07:54:38.000Z</time>
      </trkpt>
      <trkpt lat="48.39711" lon="2.42253">
        <ele>136.39999389648</ele>
        <time>2024-04-14T07:54:39.000Z</time>
      </trkpt>
      <trkpt lat="48.39739" lon="2.42245">
        <ele>137.19999694824</ele>
        <time>2024-04-14T07:54:44.000Z</time>
      </trkpt>
      <trkpt lat="48.39785" lon="2.42239">
        <ele>137</ele>
        <time>2024-04-14T07:54:52.000Z</time>
      </trkpt>
      <trkpt lat="48.39806" lon="2.42234">
        <ele>137</ele>
        <time>2024-04-14T07:54:57.000Z</time>
      </trkpt>
      <trkpt lat="48.39821" lon="2.42229">
        <ele>137</ele>
        <time>2024-04-14T07:55:01.000Z</time>
      </trkpt>
      <trkpt lat="48.39829" lon="2.42226">
        <ele>136.80000305176</ele>
        <time>2024-04-14T07:55:03.000Z</time>
      </trkpt>
      <trkpt lat="48.39854" lon="2.42216">
        <ele>136.60000610352</ele>
        <time>2024-04-14T07:55:08.000Z</time>
      </trkpt>
      <trkpt lat="48.3986" lon="2.42214">
        <ele>136.60000610352</ele>
        <time>2024-04-14T07:55:09.000Z</time>
      </trkpt>
      <trkpt lat="48.39895" lon="2.42191">
        <ele>135.19999694824</ele>
        <time>2024-04-14T07:55:15.000Z</time>
      </trkpt>
      <trkpt lat="48.39916" lon="2.42169">
        <ele>136.39999389648</ele>
        <time>2024-04-14T07:55:19.000Z</time>
      </trkpt>
      <trkpt lat="48.39931" lon="2.42152">
        <ele>136.19999694824</ele>
        <time>2024-04-14T07:55:22.000Z</time>
      </trkpt>
      <trkpt lat="48.39949" lon="2.42128">
        <ele>135.19999694824</ele>
        <time>2024-04-14T07:55:26.000Z</time>
      </trkpt>
      <trkpt lat="48.39963" lon="2.42102">
        <ele>136.19999694824</ele>
        <time>2024-04-14T07:55:30.000Z</time>
      </trkpt>
      <trkpt lat="48.39966" lon="2.42096">
        <ele>136.39999389648</ele>
        <time>2024-04-14T07:55:31.000Z</time>
      </trkpt>
      <trkpt lat="48.39978" lon="2.42078">
        <ele>135.60000610352</ele>
        <time>2024-04-14T07:55:35.000Z</time>
      </trkpt>
      <trkpt lat="48.39982" lon="2.42067">
        <ele>135.80000305176</ele>
        <time>2024-04-14T07:55:39.000Z</time>
      </trkpt>
      <trkpt lat="48.39981" lon="2.42067">
        <ele>135.60000610352</ele>
        <time>2024-04-14T07:55:43.000Z</time>
      </trkpt>
      <trkpt lat="48.39981" lon="2.42067">
        <ele>135.39999389648</ele>
        <time>2024-04-14T07:55:45.000Z</time>
      </trkpt>
      <trkpt lat="48.39981" lon="2.42067">
        <ele>135.19999694824</ele>
        <time>2024-04-14T07:55:56.000Z</time>
      </trkpt>
      <trkpt lat="48.39981" lon="2.42067">
        <ele>135.19999694824</ele>
        <time>2024-04-14T07:56:11.000Z</time>
      </trkpt>
      <trkpt lat="48.39981" lon="2.42067">
        <ele>135.39999389648</ele>
        <time>2024-04-14T07:56:23.000Z</time>
      </trkpt>
      <trkpt lat="48.39981" lon="2.42067">
        <ele>135.39999389648</ele>
        <time>2024-04-14T07:56:36.000Z</time>
      </trkpt>
      <trkpt lat="48.39981" lon="2.42067">
        <ele>135.39999389648</ele>
        <time>2024-04-14T07:56:48.000Z</time>
      </trkpt>
      <trkpt lat="48.39981" lon="2.42067">
        <ele>135.39999389648</ele>
        <time>2024-04-14T07:57:04.000Z</time>
      </trkpt>
      <trkpt lat="48.39981" lon="2.42067">
        <ele>135.39999389648</ele>
        <time>2024-04-14T07:57:11.000Z</time>
      </trkpt>
      <trkpt lat="48.39981" lon="2.42067">
        <ele>135.60000610352</ele>
        <time>2024-04-14T07:57:16.000Z</time>
      </trkpt>
      <trkpt lat="48.39981" lon="2.42067">
        <ele>135.60000610352</ele>
        <time>2024-04-14T07:57:28.000Z</time>
      </trkpt>
      <trkpt lat="48.39981" lon="2.42067">
        <ele>135.60000610352</ele>
        <time>2024-04-14T07:57:44.000Z</time>
      </trkpt>
      <trkpt lat="48.39981" lon="2.42067">
        <ele>135.80000305176</ele>
        <time>2024-04-14T07:57:56.000Z</time>
      </trkpt>
      <trkpt lat="48.39981" lon="2.42067">
        <ele>136</ele>
        <time>2024-04-14T07:58:11.000Z</time>
      </trkpt>
      <trkpt lat="48.39981" lon="2.42067">
        <ele>135.80000305176</ele>
        <time>2024-04-14T07:58:24.000Z</time>
      </trkpt>
      <trkpt lat="48.39981" lon="2.42067">
        <ele>135.80000305176</ele>
        <time>2024-04-14T07:58:35.000Z</time>
      </trkpt>
      <trkpt lat="48.39981" lon="2.42067">
        <ele>136</ele>
        <time>2024-04-14T07:58:49.000Z</time>
      </trkpt>
      <trkpt lat="48.39981" lon="2.42067">
        <ele>135.80000305176</ele>
        <time>2024-04-14T07:58:59.000Z</time>
      </trkpt>
      <trkpt lat="48.39981" lon="2.42067">
        <ele>135.80000305176</ele>
        <time>2024-04-14T07:59:11.000Z</time>
      </trkpt>
      <trkpt lat="48.39981" lon="2.42067">
        <ele>136.19999694824</ele>
        <time>2024-04-14T07:59:22.000Z</time>
      </trkpt>
      <trkpt lat="48.39981" lon="2.42067">
        <ele>136.39999389648</ele>
        <time>2024-04-14T07:59:29.000Z</time>
      </trkpt>
      <trkpt lat="48.39981" lon="2.42067">
        <ele>136.19999694824</ele>
        <time>2024-04-14T07:59:36.000Z</time>
      </trkpt>
      <trkpt lat="48.39981" lon="2.42067">
        <ele>136</ele>
        <time>2024-04-14T07:59:50.000Z</time>
      </trkpt>
      <trkpt lat="48.39981" lon="2.42067">
        <ele>136.39999389648</ele>
        <time>2024-04-14T08:00:03.000Z</time>
      </trkpt>
      <trkpt lat="48.39981" lon="2.42067">
        <ele>136.39999389648</ele>
        <time>2024-04-14T08:00:06.000Z</time>
      </trkpt>
      <trkpt lat="48.39981" lon="2.42067">
        <ele>136.19999694824</ele>
        <time>2024-04-14T08:00:20.000Z</time>
      </trkpt>
      <trkpt lat="48.39981" lon="2.42068">
        <ele>136</ele>
        <time>2024-04-14T08:00:36.000Z</time>
      </trkpt>
      <trkpt lat="48.39981" lon="2.42068">
        <ele>136</ele>
        <time>2024-04-14T08:00:51.000Z</time>
      </trkpt>
      <trkpt lat="48.39981" lon="2.42068">
        <ele>136</ele>
        <time>2024-04-14T08:01:07.000Z</time>
      </trkpt>
      <trkpt lat="48.39981" lon="2.42068">
        <ele>136</ele>
        <time>2024-04-14T08:01:22.000Z</time>
      </trkpt>
      <trkpt lat="48.39981" lon="2.42068">
        <ele>136</ele>
        <time>2024-04-14T08:01:38.000Z</time>
      </trkpt>
      <trkpt lat="48.39981" lon="2.42068">
        <ele>136.19999694824</ele>
        <time>2024-04-14T08:01:53.000Z</time>
      </trkpt>
      <trkpt lat="48.39981" lon="2.42068">
        <ele>136.19999694824</ele>
        <time>2024-04-14T08:02:09.000Z</time>
      </trkpt>
      <trkpt lat="48.39981" lon="2.42068">
        <ele>136.19999694824</ele>
        <time>2024-04-14T08:02:15.000Z</time>
      </trkpt>
      <trkpt lat="48.39981" lon="2.42068">
        <ele>136.19999694824</ele>
        <time>2024-04-14T08:02:18.000Z</time>
      </trkpt>
      <trkpt lat="48.39982" lon="2.42068">
        <ele>136.19999694824</ele>
        <time>2024-04-14T08:02:29.000Z</time>
      </trkpt>
      <trkpt lat="48.39982" lon="2.42068">
        <ele>136.39999389648</ele>
        <time>2024-04-14T08:02:48.000Z</time>
      </trkpt>
      <trkpt lat="48.39982" lon="2.42068">
        <ele>136.60000610352</ele>
        <time>2024-04-14T08:03:04.000Z</time>
      </trkpt>
      <trkpt lat="48.39982" lon="2.42068">
        <ele>136.80000305176</ele>
        <time>2024-04-14T08:03:16.000Z</time>
      </trkpt>
      <trkpt lat="48.39982" lon="2.42068">
        <ele>136.80000305176</ele>
        <time>2024-04-14T08:03:32.000Z</time>
      </trkpt>
      <trkpt lat="48.39981" lon="2.42068">
        <ele>136.60000610352</ele>
        <time>2024-04-14T08:03:46.000Z</time>
      </trkpt>
      <trkpt lat="48.39981" lon="2.42068">
        <ele>136.60000610352</ele>
        <time>2024-04-14T08:03:59.000Z</time>
      </trkpt>
      <trkpt lat="48.39981" lon="2.42068">
        <ele>136.80000305176</ele>
        <time>2024-04-14T08:04:08.000Z</time>
      </trkpt>
      <trkpt lat="48.39981" lon="2.42068">
        <ele>136.80000305176</ele>
        <time>2024-04-14T08:04:11.000Z</time>
      </trkpt>
      <trkpt lat="48.39983" lon="2.42069">
        <ele>137.19999694824</ele>
        <time>2024-04-14T08:04:23.000Z</time>
      </trkpt>
      <trkpt lat="48.39983" lon="2.42069">
        <ele>137.39999389648</ele>
        <time>2024-04-14T08:04:26.000Z</time>
      </trkpt>
      <trkpt lat="48.39983" lon="2.42069">
        <ele>137.60000610352</ele>
        <time>2024-04-14T08:04:31.000Z</time>
      </trkpt>
      <trkpt lat="48.39983" lon="2.42069">
        <ele>137.60000610352</ele>
        <time>2024-04-14T08:04:39.000Z</time>
      </trkpt>
      <trkpt lat="48.39982" lon="2.42068">
        <ele>137.80000305176</ele>
        <time>2024-04-14T08:04:55.000Z</time>
      </trkpt>
      <trkpt lat="48.39982" lon="2.42066">
        <ele>137.60000610352</ele>
        <time>2024-04-14T08:04:56.000Z</time>
      </trkpt>
      <trkpt lat="48.39979" lon="2.42053">
        <ele>137.60000610352</ele>
        <time>2024-04-14T08:04:59.000Z</time>
      </trkpt>
      <trkpt lat="48.3998" lon="2.4202">
        <ele>138</ele>
        <time>2024-04-14T08:05:04.000Z</time>
      </trkpt>
      <trkpt lat="48.39982" lon="2.41964">
        <ele>137.19999694824</ele>
        <time>2024-04-14T08:05:11.000Z</time>
      </trkpt>
      <trkpt lat="48.39984" lon="2.41903">
        <ele>137.19999694824</ele>
        <time>2024-04-14T08:05:19.000Z</time>
      </trkpt>
      <trkpt lat="48.39986" lon="2.4184">
        <ele>137</ele>
        <time>2024-04-14T08:05:27.000Z</time>
      </trkpt>
      <trkpt lat="48.39988" lon="2.41778">
        <ele>136.39999389648</ele>
        <time>2024-04-14T08:05:34.000Z</time>
      </trkpt>
      <trkpt lat="48.39988" lon="2.41743">
        <ele>136</ele>
        <time>2024-04-14T08:05:38.000Z</time>
      </trkpt>
      <trkpt lat="48.39988" lon="2.41713">
        <ele>135.60000610352</ele>
        <time>2024-04-14T08:05:42.000Z</time>
      </trkpt>
      <trkpt lat="48.39991" lon="2.41709">
        <ele>135.39999389648</ele>
        <time>2024-04-14T08:05:43.000Z</time>
      </trkpt>
      <trkpt lat="48.4" lon="2.41709">
        <ele>135.80000305176</ele>
        <time>2024-04-14T08:05:46.000Z</time>
      </trkpt>
      <trkpt lat="48.40008" lon="2.41712">
        <ele>135</ele>
        <time>2024-04-14T08:05:48.000Z</time>
      </trkpt>
      <trkpt lat="48.40023" lon="2.41714">
        <ele>134.80000305176</ele>
        <time>2024-04-14T08:05:51.000Z</time>
      </trkpt>
      <trkpt lat="48.40046" lon="2.41713">
        <ele>134.39999389648</ele>
        <time>2024-04-14T08:05:55.000Z</time>
      </trkpt>
      <trkpt lat="48.40063" lon="2.41712">
        <ele>133.80000305176</ele>
        <time>2024-04-14T08:05:58.000Z</time>
      </trkpt>
      <trkpt lat="48.40101" lon="2.41709">
        <ele>133.19999694824</ele>
        <time>2024-04-14T08:06:04.000Z</time>
      </trkpt>
      <trkpt lat="48.40114" lon="2.41708">
        <ele>133</ele>
        <time>2024-04-14T08:06:06.000Z</time>
      </trkpt>
      <trkpt lat="48.40164" lon="2.41707">
        <ele>132.60000610352</ele>
        <time>2024-04-14T08:06:14.000Z</time>
      </trkpt>
      <trkpt lat="48.40181" lon="2.41704">
        <ele>132.39999389648</ele>
        <time>2024-04-14T08:06:17.000Z</time>
      </trkpt>
      <trkpt lat="48.40186" lon="2.41703">
        <ele>132.19999694824</ele>
        <time>2024-04-14T08:06:18.000Z</time>
      </trkpt>
      <trkpt lat="48.40192" lon="2.41703">
        <ele>132.19999694824</ele>
        <time>2024-04-14T08:06:19.000Z</time>
      </trkpt>
      <trkpt lat="48.40229" lon="2.417">
        <ele>132.19999694824</ele>
        <time>2024-04-14T08:06:26.000Z</time>
      </trkpt>
      <trkpt lat="48.40264" lon="2.41698">
        <ele>133.19999694824</ele>
        <time>2024-04-14T08:06:33.000Z</time>
      </trkpt>
      <trkpt lat="48.40297" lon="2.41696">
        <ele>133.60000610352</ele>
        <time>2024-04-14T08:06:39.000Z</time>
      </trkpt>
      <trkpt lat="48.40308" lon="2.41695">
        <ele>133.80000305176</ele>
        <time>2024-04-14T08:06:41.000Z</time>
      </trkpt>
      <trkpt lat="48.40321" lon="2.41682">
        <ele>133.80000305176</ele>
        <time>2024-04-14T08:06:44.000Z</time>
      </trkpt>
      <trkpt lat="48.40327" lon="2.41661">
        <ele>133.80000305176</ele>
        <time>2024-04-14T08:06:47.000Z</time>
      </trkpt>
      <trkpt lat="48.40324" lon="2.41653">
        <ele>133.60000610352</ele>
        <time>2024-04-14T08:06:48.000Z</time>
      </trkpt>
      <trkpt lat="48.40322" lon="2.41648">
        <ele>133.39999389648</ele>
        <time>2024-04-14T08:06:49.000Z</time>
      </trkpt>
      <trkpt lat="48.40308" lon="2.4163">
        <ele>133.39999389648</ele>
        <time>2024-04-14T08:06:52.000Z</time>
      </trkpt>
      <trkpt lat="48.40304" lon="2.41623">
        <ele>133</ele>
        <time>2024-04-14T08:06:53.000Z</time>
      </trkpt>
      <trkpt lat="48.40294" lon="2.416">
        <ele>132.80000305176</ele>
        <time>2024-04-14T08:06:56.000Z</time>
      </trkpt>
      <trkpt lat="48.40283" lon="2.41569">
        <ele>132</ele>
        <time>2024-04-14T08:07:00.000Z</time>
      </trkpt>
      <trkpt lat="48.4028" lon="2.41552">
        <ele>131.19999694824</ele>
        <time>2024-04-14T08:07:02.000Z</time>
      </trkpt>
      <trkpt lat="48.40278" lon="2.41544">
        <ele>131</ele>
        <time>2024-04-14T08:07:03.000Z</time>
      </trkpt>
      <trkpt lat="48.40269" lon="2.41521">
        <ele>131.60000610352</ele>
        <time>2024-04-14T08:07:06.000Z</time>
      </trkpt>
      <trkpt lat="48.40263" lon="2.41495">
        <ele>131.60000610352</ele>
        <time>2024-04-14T08:07:09.000Z</time>
      </trkpt>
      <trkpt lat="48.40262" lon="2.41479">
        <ele>131.60000610352</ele>
        <time>2024-04-14T08:07:11.000Z</time>
      </trkpt>
      <trkpt lat="48.40261" lon="2.41447">
        <ele>131.19999694824</ele>
        <time>2024-04-14T08:07:15.000Z</time>
      </trkpt>
      <trkpt lat="48.40257" lon="2.41442">
        <ele>131.19999694824</ele>
        <time>2024-04-14T08:07:16.000Z</time>
      </trkpt>
      <trkpt lat="48.40242" lon="2.4142">
        <ele>131.39999389648</ele>
        <time>2024-04-14T08:07:20.000Z</time>
      </trkpt>
      <trkpt lat="48.40235" lon="2.4139">
        <ele>130.80000305176</ele>
        <time>2024-04-14T08:07:24.000Z</time>
      </trkpt>
      <trkpt lat="48.40234" lon="2.41381">
        <ele>130.60000610352</ele>
        <time>2024-04-14T08:07:25.000Z</time>
      </trkpt>
      <trkpt lat="48.40229" lon="2.41357">
        <ele>131</ele>
        <time>2024-04-14T08:07:28.000Z</time>
      </trkpt>
      <trkpt lat="48.40224" lon="2.41346">
        <ele>130.80000305176</ele>
        <time>2024-04-14T08:07:30.000Z</time>
      </trkpt>
      <trkpt lat="48.40215" lon="2.41328">
        <ele>131</ele>
        <time>2024-04-14T08:07:34.000Z</time>
      </trkpt>
      <trkpt lat="48.40213" lon="2.41325">
        <ele>131</ele>
        <time>2024-04-14T08:07:35.000Z</time>
      </trkpt>
      <trkpt lat="48.40198" lon="2.41325">
        <ele>130.60000610352</ele>
        <time>2024-04-14T08:07:39.000Z</time>
      </trkpt>
      <trkpt lat="48.4018" lon="2.41328">
        <ele>130</ele>
        <time>2024-04-14T08:07:44.000Z</time>
      </trkpt>
      <trkpt lat="48.40174" lon="2.41323">
        <ele>129.60000610352</ele>
        <time>2024-04-14T08:07:46.000Z</time>
      </trkpt>
      <trkpt lat="48.40165" lon="2.41322">
        <ele>129.60000610352</ele>
        <time>2024-04-14T08:07:49.000Z</time>
      </trkpt>
      <trkpt lat="48.4016" lon="2.41319">
        <ele>129</ele>
        <time>2024-04-14T08:07:52.000Z</time>
      </trkpt>
      <trkpt lat="48.40159" lon="2.41316">
        <ele>128.80000305176</ele>
        <time>2024-04-14T08:07:53.000Z</time>
      </trkpt>
      <trkpt lat="48.40156" lon="2.41311">
        <ele>128.60000610352</ele>
        <time>2024-04-14T08:07:55.000Z</time>
      </trkpt>
      <trkpt lat="48.40151" lon="2.41305">
        <ele>127.19999694824</ele>
        <time>2024-04-14T08:07:58.000Z</time>
      </trkpt>
      <trkpt lat="48.40151" lon="2.41303">
        <ele>126.59999847412</ele>
        <time>2024-04-14T08:07:59.000Z</time>
      </trkpt>
      <trkpt lat="48.4015" lon="2.41301">
        <ele>126.40000152588</ele>
        <time>2024-04-14T08:08:02.000Z</time>
      </trkpt>
      <trkpt lat="48.40149" lon="2.41297">
        <ele>126.19999694824</ele>
        <time>2024-04-14T08:08:07.000Z</time>
      </trkpt>
      <trkpt lat="48.40147" lon="2.41296">
        <ele>125.80000305176</ele>
        <time>2024-04-14T08:08:13.000Z</time>
      </trkpt>
      <trkpt lat="48.40145" lon="2.41292">
        <ele>125.80000305176</ele>
        <time>2024-04-14T08:08:19.000Z</time>
      </trkpt>
      <trkpt lat="48.40145" lon="2.41287">
        <ele>125.19999694824</ele>
        <time>2024-04-14T08:08:24.000Z</time>
      </trkpt>
      <trkpt lat="48.40145" lon="2.41286">
        <ele>124.80000305176</ele>
        <time>2024-04-14T08:08:25.000Z</time>
      </trkpt>
      <trkpt lat="48.40144" lon="2.41287">
        <ele>124.40000152588</ele>
        <time>2024-04-14T08:08:26.000Z</time>
      </trkpt>
      <trkpt lat="48.40144" lon="2.41284">
        <ele>123.59999847412</ele>
        <time>2024-04-14T08:08:28.000Z</time>
      </trkpt>
      <trkpt lat="48.40143" lon="2.41283">
        <ele>123.40000152588</ele>
        <time>2024-04-14T08:08:32.000Z</time>
      </trkpt>
      <trkpt lat="48.40143" lon="2.4128">
        <ele>122.40000152588</ele>
        <time>2024-04-14T08:08:37.000Z</time>
      </trkpt>
      <trkpt lat="48.40142" lon="2.41278">
        <ele>122</ele>
        <time>2024-04-14T08:08:38.000Z</time>
      </trkpt>
      <trkpt lat="48.40141" lon="2.41277">
        <ele>121.19999694824</ele>
        <time>2024-04-14T08:08:40.000Z</time>
      </trkpt>
      <trkpt lat="48.40141" lon="2.41271">
        <ele>120</ele>
        <time>2024-04-14T08:08:43.000Z</time>
      </trkpt>
      <trkpt lat="48.40141" lon="2.41269">
        <ele>119.59999847412</ele>
        <time>2024-04-14T08:08:44.000Z</time>
      </trkpt>
      <trkpt lat="48.40141" lon="2.41269">
        <ele>119</ele>
        <time>2024-04-14T08:08:46.000Z</time>
      </trkpt>
      <trkpt lat="48.4014" lon="2.41263">
        <ele>118.40000152588</ele>
        <time>2024-04-14T08:08:48.000Z</time>
      </trkpt>
      <trkpt lat="48.40139" lon="2.4126">
        <ele>117.40000152588</ele>
        <time>2024-04-14T08:08:49.000Z</time>
      </trkpt>
      <trkpt lat="48.40138" lon="2.41258">
        <ele>116.80000305176</ele>
        <time>2024-04-14T08:08:50.000Z</time>
      </trkpt>
      <trkpt lat="48.40137" lon="2.41256">
        <ele>116.19999694824</ele>
        <time>2024-04-14T08:08:51.000Z</time>
      </trkpt>
      <trkpt lat="48.40137" lon="2.41255">
        <ele>115.80000305176</ele>
        <time>2024-04-14T08:08:52.000Z</time>
      </trkpt>
      <trkpt lat="48.40136" lon="2.41254">
        <ele>115.19999694824</ele>
        <time>2024-04-14T08:08:55.000Z</time>
      </trkpt>
      <trkpt lat="48.40134" lon="2.4125">
        <ele>114</ele>
        <time>2024-04-14T08:08:59.000Z</time>
      </trkpt>
      <trkpt lat="48.40134" lon="2.4125">
        <ele>113.80000305176</ele>
        <time>2024-04-14T08:09:01.000Z</time>
      </trkpt>
      <trkpt lat="48.40134" lon="2.4125">
        <ele>113.80000305176</ele>
        <time>2024-04-14T08:09:12.000Z</time>
      </trkpt>
      <trkpt lat="48.40134" lon="2.41249">
        <ele>113.80000305176</ele>
        <time>2024-04-14T08:09:18.000Z</time>
      </trkpt>
      <trkpt lat="48.40133" lon="2.41248">
        <ele>113.40000152588</ele>
        <time>2024-04-14T08:09:24.000Z</time>
      </trkpt>
      <trkpt lat="48.40133" lon="2.41247">
        <ele>113</ele>
        <time>2024-04-14T08:09:26.000Z</time>
      </trkpt>
      <trkpt lat="48.40133" lon="2.41247">
        <ele>112.59999847412</ele>
        <time>2024-04-14T08:09:30.000Z</time>
      </trkpt>
      <trkpt lat="48.40133" lon="2.41244">
        <ele>112</ele>
        <time>2024-04-14T08:09:34.000Z</time>
      </trkpt>
      <trkpt lat="48.40133" lon="2.41241">
        <ele>111.59999847412</ele>
        <time>2024-04-14T08:09:36.000Z</time>
      </trkpt>
      <trkpt lat="48.40134" lon="2.41239">
        <ele>111</ele>
        <time>2024-04-14T08:09:37.000Z</time>
      </trkpt>
      <trkpt lat="48.40135" lon="2.41236">
        <ele>110</ele>
        <time>2024-04-14T08:09:41.000Z</time>
      </trkpt>
      <trkpt lat="48.40135" lon="2.41236">
        <ele>110</ele>
        <time>2024-04-14T08:09:51.000Z</time>
      </trkpt>
      <trkpt lat="48.40135" lon="2.41236">
        <ele>110</ele>
        <time>2024-04-14T08:09:53.000Z</time>
      </trkpt>
      <trkpt lat="48.40135" lon="2.41236">
        <ele>110</ele>
        <time>2024-04-14T08:09:59.000Z</time>
      </trkpt>
      <trkpt lat="48.40136" lon="2.41233">
        <ele>109.80000305176</ele>
        <time>2024-04-14T08:10:06.000Z</time>
      </trkpt>
      <trkpt lat="48.40136" lon="2.41233">
        <ele>109.40000152588</ele>
        <time>2024-04-14T08:10:08.000Z</time>
      </trkpt>
      <trkpt lat="48.40135" lon="2.4123">
        <ele>108.40000152588</ele>
        <time>2024-04-14T08:10:12.000Z</time>
      </trkpt>
      <trkpt lat="48.40134" lon="2.41226">
        <ele>107.59999847412</ele>
        <time>2024-04-14T08:10:14.000Z</time>
      </trkpt>
      <trkpt lat="48.40134" lon="2.41224">
        <ele>107.40000152588</ele>
        <time>2024-04-14T08:10:15.000Z</time>
      </trkpt>
      <trkpt lat="48.40136" lon="2.41216">
        <ele>106.19999694824</ele>
        <time>2024-04-14T08:10:19.000Z</time>
      </trkpt>
      <trkpt lat="48.40139" lon="2.41212">
        <ele>105.59999847412</ele>
        <time>2024-04-14T08:10:21.000Z</time>
      </trkpt>
      <trkpt lat="48.40141" lon="2.41207">
        <ele>105</ele>
        <time>2024-04-14T08:10:23.000Z</time>
      </trkpt>
      <trkpt lat="48.40141" lon="2.41205">
        <ele>104.59999847412</ele>
        <time>2024-04-14T08:10:24.000Z</time>
      </trkpt>
      <trkpt lat="48.40142" lon="2.41204">
        <ele>103.80000305176</ele>
        <time>2024-04-14T08:10:25.000Z</time>
      </trkpt>
      <trkpt lat="48.40144" lon="2.41201">
        <ele>102.59999847412</ele>
        <time>2024-04-14T08:10:27.000Z</time>
      </trkpt>
      <trkpt lat="48.40144" lon="2.412">
        <ele>101.80000305176</ele>
        <time>2024-04-14T08:10:29.000Z</time>
      </trkpt>
      <trkpt lat="48.40146" lon="2.412">
        <ele>101.59999847412</ele>
        <time>2024-04-14T08:10:33.000Z</time>
      </trkpt>
      <trkpt lat="48.40146" lon="2.412">
        <ele>101.40000152588</ele>
        <time>2024-04-14T08:10:35.000Z</time>
      </trkpt>
      <trkpt lat="48.40146" lon="2.412">
        <ele>101.40000152588</ele>
        <time>2024-04-14T08:10:53.000Z</time>
      </trkpt>
      <trkpt lat="48.40146" lon="2.412">
        <ele>102</ele>
        <time>2024-04-14T08:11:01.000Z</time>
      </trkpt>
      <trkpt lat="48.40147" lon="2.412">
        <ele>102</ele>
        <time>2024-04-14T08:11:14.000Z</time>
      </trkpt>
      <trkpt lat="48.40147" lon="2.4119">
        <ele>100.40000152588</ele>
        <time>2024-04-14T08:11:22.000Z</time>
      </trkpt>
      <trkpt lat="48.40147" lon="2.41182">
        <ele>99</ele>
        <time>2024-04-14T08:11:24.000Z</time>
      </trkpt>
      <trkpt lat="48.40144" lon="2.41174">
        <ele>98</ele>
        <time>2024-04-14T08:11:26.000Z</time>
      </trkpt>
      <trkpt lat="48.40143" lon="2.4117">
        <ele>97.800003051758</ele>
        <time>2024-04-14T08:11:27.000Z</time>
      </trkpt>
      <trkpt lat="48.40142" lon="2.41159">
        <ele>96.599998474121</ele>
        <time>2024-04-14T08:11:29.000Z</time>
      </trkpt>
      <trkpt lat="48.40141" lon="2.41146">
        <ele>94.800003051758</ele>
        <time>2024-04-14T08:11:31.000Z</time>
      </trkpt>
      <trkpt lat="48.40138" lon="2.41135">
        <ele>93.400001525879</ele>
        <time>2024-04-14T08:11:33.000Z</time>
      </trkpt>
      <trkpt lat="48.40132" lon="2.41123">
        <ele>91.599998474121</ele>
        <time>2024-04-14T08:11:35.000Z</time>
      </trkpt>
      <trkpt lat="48.40128" lon="2.41118">
        <ele>90.800003051758</ele>
        <time>2024-04-14T08:11:36.000Z</time>
      </trkpt>
      <trkpt lat="48.40126" lon="2.41113">
        <ele>90.199996948242</ele>
        <time>2024-04-14T08:11:37.000Z</time>
      </trkpt>
      <trkpt lat="48.40126" lon="2.41109">
        <ele>90.199996948242</ele>
        <time>2024-04-14T08:11:38.000Z</time>
      </trkpt>
      <trkpt lat="48.40125" lon="2.41107">
        <ele>89.800003051758</ele>
        <time>2024-04-14T08:11:39.000Z</time>
      </trkpt>
      <trkpt lat="48.40125" lon="2.41105">
        <ele>89.199996948242</ele>
        <time>2024-04-14T08:11:41.000Z</time>
      </trkpt>
      <trkpt lat="48.40129" lon="2.41102">
        <ele>88.599998474121</ele>
        <time>2024-04-14T08:11:43.000Z</time>
      </trkpt>
      <trkpt lat="48.40146" lon="2.41093">
        <ele>88.400001525879</ele>
        <time>2024-04-14T08:11:47.000Z</time>
      </trkpt>
      <trkpt lat="48.4015" lon="2.4109">
        <ele>88</ele>
        <time>2024-04-14T08:11:48.000Z</time>
      </trkpt>
      <trkpt lat="48.4017" lon="2.41081">
        <ele>87</ele>
        <time>2024-04-14T08:11:54.000Z</time>
      </trkpt>
      <trkpt lat="48.40179" lon="2.41082">
        <ele>87</ele>
        <time>2024-04-14T08:11:59.000Z</time>
      </trkpt>
      <trkpt lat="48.4018" lon="2.41079">
        <ele>87</ele>
        <time>2024-04-14T08:12:05.000Z</time>
      </trkpt>
      <trkpt lat="48.40179" lon="2.41078">
        <ele>87</ele>
        <time>2024-04-14T08:12:15.000Z</time>
      </trkpt>
      <trkpt lat="48.40182" lon="2.41075">
        <ele>86.599998474121</ele>
        <time>2024-04-14T08:12:21.000Z</time>
      </trkpt>
      <trkpt lat="48.40183" lon="2.41074">
        <ele>86.400001525879</ele>
        <time>2024-04-14T08:12:22.000Z</time>
      </trkpt>
      <trkpt lat="48.40198" lon="2.41061">
        <ele>86.199996948242</ele>
        <time>2024-04-14T08:12:28.000Z</time>
      </trkpt>
      <trkpt lat="48.40211" lon="2.41053">
        <ele>86.400001525879</ele>
        <time>2024-04-14T08:12:33.000Z</time>
      </trkpt>
      <trkpt lat="48.40225" lon="2.41041">
        <ele>85.800003051758</ele>
        <time>2024-04-14T08:12:38.000Z</time>
      </trkpt>
      <trkpt lat="48.40228" lon="2.41039">
        <ele>85.599998474121</ele>
        <time>2024-04-14T08:12:39.000Z</time>
      </trkpt>
      <trkpt lat="48.40246" lon="2.41034">
        <ele>86.199996948242</ele>
        <time>2024-04-14T08:12:44.000Z</time>
      </trkpt>
      <trkpt lat="48.40267" lon="2.41017">
        <ele>85.400001525879</ele>
        <time>2024-04-14T08:12:50.000Z</time>
      </trkpt>
      <trkpt lat="48.40271" lon="2.41012">
        <ele>85</ele>
        <time>2024-04-14T08:12:51.000Z</time>
      </trkpt>
      <trkpt lat="48.40279" lon="2.41005">
        <ele>84.599998474121</ele>
        <time>2024-04-14T08:12:53.000Z</time>
      </trkpt>
      <trkpt lat="48.40286" lon="2.40999">
        <ele>84</ele>
        <time>2024-04-14T08:12:55.000Z</time>
      </trkpt>
      <trkpt lat="48.40303" lon="2.40996">
        <ele>83.599998474121</ele>
        <time>2024-04-14T08:12:59.000Z</time>
      </trkpt>
      <trkpt lat="48.40307" lon="2.40996">
        <ele>83.599998474121</ele>
        <time>2024-04-14T08:13:00.000Z</time>
      </trkpt>
      <trkpt lat="48.40326" lon="2.40999">
        <ele>84.199996948242</ele>
        <time>2024-04-14T08:13:05.000Z</time>
      </trkpt>
      <trkpt lat="48.40345" lon="2.41001">
        <ele>84.199996948242</ele>
        <time>2024-04-14T08:13:10.000Z</time>
      </trkpt>
      <trkpt lat="48.40355" lon="2.41001">
        <ele>83.599998474121</ele>
        <time>2024-04-14T08:13:12.000Z</time>
      </trkpt>
      <trkpt lat="48.40366" lon="2.41003">
        <ele>82.400001525879</ele>
        <time>2024-04-14T08:13:14.000Z</time>
      </trkpt>
      <trkpt lat="48.4037" lon="2.41001">
        <ele>81</ele>
        <time>2024-04-14T08:13:15.000Z</time>
      </trkpt>
      <trkpt lat="48.40379" lon="2.41004">
        <ele>79.199996948242</ele>
        <time>2024-04-14T08:13:17.000Z</time>
      </trkpt>
      <trkpt lat="48.40388" lon="2.41007">
        <ele>78.800003051758</ele>
        <time>2024-04-14T08:13:19.000Z</time>
      </trkpt>
      <trkpt lat="48.40393" lon="2.41011">
        <ele>78.400001525879</ele>
        <time>2024-04-14T08:13:20.000Z</time>
      </trkpt>
      <trkpt lat="48.40398" lon="2.41018">
        <ele>79</ele>
        <time>2024-04-14T08:13:22.000Z</time>
      </trkpt>
      <trkpt lat="48.40405" lon="2.41024">
        <ele>78.400001525879</ele>
        <time>2024-04-14T08:13:26.000Z</time>
      </trkpt>
      <trkpt lat="48.40407" lon="2.41027">
        <ele>78</ele>
        <time>2024-04-14T08:13:27.000Z</time>
      </trkpt>
      <trkpt lat="48.40416" lon="2.4104">
        <ele>77.800003051758</ele>
        <time>2024-04-14T08:13:32.000Z</time>
      </trkpt>
      <trkpt lat="48.40423" lon="2.41042">
        <ele>77.800003051758</ele>
        <time>2024-04-14T08:13:36.000Z</time>
      </trkpt>
      <trkpt lat="48.40429" lon="2.41041">
        <ele>77</ele>
        <time>2024-04-14T08:13:39.000Z</time>
      </trkpt>
      <trkpt lat="48.40432" lon="2.41045">
        <ele>76.800003051758</ele>
        <time>2024-04-14T08:13:41.000Z</time>
      </trkpt>
      <trkpt lat="48.40433" lon="2.41054">
        <ele>77.199996948242</ele>
        <time>2024-04-14T08:13:44.000Z</time>
      </trkpt>
      <trkpt lat="48.40434" lon="2.41065">
        <ele>77.199996948242</ele>
        <time>2024-04-14T08:13:48.000Z</time>
      </trkpt>
      <trkpt lat="48.40436" lon="2.41082">
        <ele>77.800003051758</ele>
        <time>2024-04-14T08:13:54.000Z</time>
      </trkpt>
      <trkpt lat="48.40437" lon="2.41084">
        <ele>78.199996948242</ele>
        <time>2024-04-14T08:13:57.000Z</time>
      </trkpt>
      <trkpt lat="48.40438" lon="2.41088">
        <ele>78.199996948242</ele>
        <time>2024-04-14T08:14:01.000Z</time>
      </trkpt>
      <trkpt lat="48.40438" lon="2.41088">
        <ele>78.400001525879</ele>
        <time>2024-04-14T08:14:14.000Z</time>
      </trkpt>
      <trkpt lat="48.40438" lon="2.41088">
        <ele>78.599998474121</ele>
        <time>2024-04-14T08:14:23.000Z</time>
      </trkpt>
      <trkpt lat="48.40438" lon="2.41087">
        <ele>78.199996948242</ele>
        <time>2024-04-14T08:14:33.000Z</time>
      </trkpt>
      <trkpt lat="48.40441" lon="2.41088">
        <ele>78</ele>
        <time>2024-04-14T08:14:38.000Z</time>
      </trkpt>
      <trkpt lat="48.40441" lon="2.411">
        <ele>78.400001525879</ele>
        <time>2024-04-14T08:14:45.000Z</time>
      </trkpt>
      <trkpt lat="48.4044" lon="2.41112">
        <ele>79.599998474121</ele>
        <time>2024-04-14T08:14:49.000Z</time>
      </trkpt>
      <trkpt lat="48.40438" lon="2.41121">
        <ele>80.599998474121</ele>
        <time>2024-04-14T08:14:52.000Z</time>
      </trkpt>
      <trkpt lat="48.40433" lon="2.41137">
        <ele>81.400001525879</ele>
        <time>2024-04-14T08:14:58.000Z</time>
      </trkpt>
      <trkpt lat="48.40433" lon="2.41141">
        <ele>81.400001525879</ele>
        <time>2024-04-14T08:15:04.000Z</time>
      </trkpt>
      <trkpt lat="48.40433" lon="2.41144">
        <ele>81.400001525879</ele>
        <time>2024-04-14T08:15:05.000Z</time>
      </trkpt>
      <trkpt lat="48.40432" lon="2.41154">
        <ele>81.599998474121</ele>
        <time>2024-04-14T08:15:08.000Z</time>
      </trkpt>
      <trkpt lat="48.40432" lon="2.41157">
        <ele>81.599998474121</ele>
        <time>2024-04-14T08:15:09.000Z</time>
      </trkpt>
      <trkpt lat="48.4043" lon="2.41163">
        <ele>81.599998474121</ele>
        <time>2024-04-14T08:15:12.000Z</time>
      </trkpt>
      <trkpt lat="48.40431" lon="2.41168">
        <ele>81.599998474121</ele>
        <time>2024-04-14T08:15:22.000Z</time>
      </trkpt>
      <trkpt lat="48.4043" lon="2.41172">
        <ele>82</ele>
        <time>2024-04-14T08:15:31.000Z</time>
      </trkpt>
      <trkpt lat="48.40427" lon="2.41189">
        <ele>82.800003051758</ele>
        <time>2024-04-14T08:15:37.000Z</time>
      </trkpt>
      <trkpt lat="48.40426" lon="2.41217">
        <ele>83.199996948242</ele>
        <time>2024-04-14T08:15:43.000Z</time>
      </trkpt>
      <trkpt lat="48.40421" lon="2.41233">
        <ele>83.199996948242</ele>
        <time>2024-04-14T08:15:47.000Z</time>
      </trkpt>
      <trkpt lat="48.40419" lon="2.41235">
        <ele>83.400001525879</ele>
        <time>2024-04-14T08:15:48.000Z</time>
      </trkpt>
      <trkpt lat="48.40417" lon="2.41235">
        <ele>84</ele>
        <time>2024-04-14T08:15:50.000Z</time>
      </trkpt>
      <trkpt lat="48.40416" lon="2.41235">
        <ele>84.199996948242</ele>
        <time>2024-04-14T08:15:51.000Z</time>
      </trkpt>
      <trkpt lat="48.40413" lon="2.41232">
        <ele>84.199996948242</ele>
        <time>2024-04-14T08:15:53.000Z</time>
      </trkpt>
      <trkpt lat="48.4041" lon="2.41222">
        <ele>84.800003051758</ele>
        <time>2024-04-14T08:15:57.000Z</time>
      </trkpt>
      <trkpt lat="48.40409" lon="2.41219">
        <ele>85</ele>
        <time>2024-04-14T08:15:58.000Z</time>
      </trkpt>
      <trkpt lat="48.40406" lon="2.41209">
        <ele>86.199996948242</ele>
        <time>2024-04-14T08:16:02.000Z</time>
      </trkpt>
      <trkpt lat="48.40401" lon="2.41203">
        <ele>86.800003051758</ele>
        <time>2024-04-14T08:16:06.000Z</time>
      </trkpt>
      <trkpt lat="48.40399" lon="2.41205">
        <ele>87.199996948242</ele>
        <time>2024-04-14T08:16:10.000Z</time>
      </trkpt>
      <trkpt lat="48.40399" lon="2.41204">
        <ele>87.400001525879</ele>
        <time>2024-04-14T08:16:12.000Z</time>
      </trkpt>
      <trkpt lat="48.40396" lon="2.41198">
        <ele>88.400001525879</ele>
        <time>2024-04-14T08:16:17.000Z</time>
      </trkpt>
      <trkpt lat="48.40392" lon="2.41195">
        <ele>89.199996948242</ele>
        <time>2024-04-14T08:16:19.000Z</time>
      </trkpt>
      <trkpt lat="48.40391" lon="2.41196">
        <ele>89.800003051758</ele>
        <time>2024-04-14T08:16:20.000Z</time>
      </trkpt>
      <trkpt lat="48.40387" lon="2.412">
        <ele>90.800003051758</ele>
        <time>2024-04-14T08:16:26.000Z</time>
      </trkpt>
      <trkpt lat="48.40386" lon="2.41205">
        <ele>91</ele>
        <time>2024-04-14T08:16:33.000Z</time>
      </trkpt>
      <trkpt lat="48.40384" lon="2.41212">
        <ele>91.199996948242</ele>
        <time>2024-04-14T08:16:37.000Z</time>
      </trkpt>
      <trkpt lat="48.40383" lon="2.4122">
        <ele>90.800003051758</ele>
        <time>2024-04-14T08:16:39.000Z</time>
      </trkpt>
      <trkpt lat="48.40379" lon="2.41239">
        <ele>89.800003051758</ele>
        <time>2024-04-14T08:16:45.000Z</time>
      </trkpt>
      <trkpt lat="48.40375" lon="2.4125">
        <ele>90</ele>
        <time>2024-04-14T08:16:51.000Z</time>
      </trkpt>
      <trkpt lat="48.40373" lon="2.4125">
        <ele>90.400001525879</ele>
        <time>2024-04-14T08:16:52.000Z</time>
      </trkpt>
      <trkpt lat="48.40369" lon="2.41246">
        <ele>90.800003051758</ele>
        <time>2024-04-14T08:16:55.000Z</time>
      </trkpt>
      <trkpt lat="48.40367" lon="2.41241">
        <ele>91.199996948242</ele>
        <time>2024-04-14T08:16:57.000Z</time>
      </trkpt>
      <trkpt lat="48.40362" lon="2.41233">
        <ele>92</ele>
        <time>2024-04-14T08:17:00.000Z</time>
      </trkpt>
      <trkpt lat="48.40359" lon="2.41228">
        <ele>93.199996948242</ele>
        <time>2024-04-14T08:17:03.000Z</time>
      </trkpt>
      <trkpt lat="48.40358" lon="2.41226">
        <ele>94</ele>
        <time>2024-04-14T08:17:05.000Z</time>
      </trkpt>
      <trkpt lat="48.40356" lon="2.41223">
        <ele>94.199996948242</ele>
        <time>2024-04-14T08:17:06.000Z</time>
      </trkpt>
      <trkpt lat="48.4035" lon="2.41218">
        <ele>95.400001525879</ele>
        <time>2024-04-14T08:17:10.000Z</time>
      </trkpt>
      <trkpt lat="48.40347" lon="2.41216">
        <ele>96.800003051758</ele>
        <time>2024-04-14T08:17:13.000Z</time>
      </trkpt>
      <trkpt lat="48.40344" lon="2.41209">
        <ele>98.199996948242</ele>
        <time>2024-04-14T08:17:18.000Z</time>
      </trkpt>
      <trkpt lat="48.40343" lon="2.41207">
        <ele>98.400001525879</ele>
        <time>2024-04-14T08:17:19.000Z</time>
      </trkpt>
      <trkpt lat="48.40341" lon="2.41205">
        <ele>99.199996948242</ele>
        <time>2024-04-14T08:17:21.000Z</time>
      </trkpt>
      <trkpt lat="48.4034" lon="2.412">
        <ele>100.19999694824</ele>
        <time>2024-04-14T08:17:24.000Z</time>
      </trkpt>
      <trkpt lat="48.40339" lon="2.41196">
        <ele>101</ele>
        <time>2024-04-14T08:17:26.000Z</time>
      </trkpt>
      <trkpt lat="48.40339" lon="2.41196">
        <ele>101.19999694824</ele>
        <time>2024-04-14T08:17:27.000Z</time>
      </trkpt>
      <trkpt lat="48.40336" lon="2.41188">
        <ele>102.40000152588</ele>
        <time>2024-04-14T08:17:31.000Z</time>
      </trkpt>
      <trkpt lat="48.40335" lon="2.41186">
        <ele>102.80000305176</ele>
        <time>2024-04-14T08:17:32.000Z</time>
      </trkpt>
      <trkpt lat="48.40334" lon="2.41185">
        <ele>103.80000305176</ele>
        <time>2024-04-14T08:17:34.000Z</time>
      </trkpt>
      <trkpt lat="48.40329" lon="2.41182">
        <ele>105.40000152588</ele>
        <time>2024-04-14T08:17:37.000Z</time>
      </trkpt>
      <trkpt lat="48.40325" lon="2.41175">
        <ele>105.80000305176</ele>
        <time>2024-04-14T08:17:42.000Z</time>
      </trkpt>
      <trkpt lat="48.40324" lon="2.41174">
        <ele>106</ele>
        <time>2024-04-14T08:17:48.000Z</time>
      </trkpt>
      <trkpt lat="48.40323" lon="2.41174">
        <ele>106</ele>
        <time>2024-04-14T08:17:54.000Z</time>
      </trkpt>
      <trkpt lat="48.4032" lon="2.41175">
        <ele>105.80000305176</ele>
        <time>2024-04-14T08:17:59.000Z</time>
      </trkpt>
      <trkpt lat="48.40312" lon="2.41177">
        <ele>105.19999694824</ele>
        <time>2024-04-14T08:18:03.000Z</time>
      </trkpt>
      <trkpt lat="48.40306" lon="2.4118">
        <ele>106.19999694824</ele>
        <time>2024-04-14T08:18:09.000Z</time>
      </trkpt>
      <trkpt lat="48.40305" lon="2.41181">
        <ele>106.40000152588</ele>
        <time>2024-04-14T08:18:12.000Z</time>
      </trkpt>
      <trkpt lat="48.40305" lon="2.41181">
        <ele>106.40000152588</ele>
        <time>2024-04-14T08:18:15.000Z</time>
      </trkpt>
      <trkpt lat="48.40305" lon="2.41181">
        <ele>106.40000152588</ele>
        <time>2024-04-14T08:18:17.000Z</time>
      </trkpt>
      <trkpt lat="48.40302" lon="2.41178">
        <ele>106.40000152588</ele>
        <time>2024-04-14T08:18:20.000Z</time>
      </trkpt>
      <trkpt lat="48.40299" lon="2.41176">
        <ele>106.19999694824</ele>
        <time>2024-04-14T08:18:23.000Z</time>
      </trkpt>
      <trkpt lat="48.40297" lon="2.41177">
        <ele>106.80000305176</ele>
        <time>2024-04-14T08:18:26.000Z</time>
      </trkpt>
      <trkpt lat="48.40295" lon="2.4118">
        <ele>107.40000152588</ele>
        <time>2024-04-14T08:18:29.000Z</time>
      </trkpt>
      <trkpt lat="48.40295" lon="2.4118">
        <ele>107.80000305176</ele>
        <time>2024-04-14T08:18:31.000Z</time>
      </trkpt>
      <trkpt lat="48.40294" lon="2.41184">
        <ele>108.19999694824</ele>
        <time>2024-04-14T08:18:38.000Z</time>
      </trkpt>
      <trkpt lat="48.40293" lon="2.41187">
        <ele>108.80000305176</ele>
        <time>2024-04-14T08:18:40.000Z</time>
      </trkpt>
      <trkpt lat="48.40291" lon="2.41191">
        <ele>110</ele>
        <time>2024-04-14T08:18:44.000Z</time>
      </trkpt>
      <trkpt lat="48.40291" lon="2.41191">
        <ele>110.19999694824</ele>
        <time>2024-04-14T08:18:45.000Z</time>
      </trkpt>
      <trkpt lat="48.4029" lon="2.41196">
        <ele>111.19999694824</ele>
        <time>2024-04-14T08:18:48.000Z</time>
      </trkpt>
      <trkpt lat="48.40289" lon="2.41201">
        <ele>112.40000152588</ele>
        <time>2024-04-14T08:18:53.000Z</time>
      </trkpt>
      <trkpt lat="48.40289" lon="2.41205">
        <ele>112.80000305176</ele>
        <time>2024-04-14T08:19:01.000Z</time>
      </trkpt>
      <trkpt lat="48.40289" lon="2.41209">
        <ele>113.19999694824</ele>
        <time>2024-04-14T08:19:08.000Z</time>
      </trkpt>
      <trkpt lat="48.40289" lon="2.41209">
        <ele>113.40000152588</ele>
        <time>2024-04-14T08:19:21.000Z</time>
      </trkpt>
      <trkpt lat="48.40289" lon="2.41209">
        <ele>113.40000152588</ele>
        <time>2024-04-14T08:19:26.000Z</time>
      </trkpt>
      <trkpt lat="48.40289" lon="2.41209">
        <ele>113.40000152588</ele>
        <time>2024-04-14T08:19:37.000Z</time>
      </trkpt>
      <trkpt lat="48.40292" lon="2.41216">
        <ele>113</ele>
        <time>2024-04-14T08:19:44.000Z</time>
      </trkpt>
      <trkpt lat="48.40294" lon="2.41222">
        <ele>111.80000305176</ele>
        <time>2024-04-14T08:19:46.000Z</time>
      </trkpt>
      <trkpt lat="48.40297" lon="2.41229">
        <ele>110.59999847412</ele>
        <time>2024-04-14T08:19:48.000Z</time>
      </trkpt>
      <trkpt lat="48.40299" lon="2.41232">
        <ele>110</ele>
        <time>2024-04-14T08:19:49.000Z</time>
      </trkpt>
      <trkpt lat="48.40301" lon="2.41233">
        <ele>109.19999694824</ele>
        <time>2024-04-14T08:19:50.000Z</time>
      </trkpt>
      <trkpt lat="48.40304" lon="2.41234">
        <ele>108.19999694824</ele>
        <time>2024-04-14T08:19:51.000Z</time>
      </trkpt>
      <trkpt lat="48.40309" lon="2.41233">
        <ele>106.19999694824</ele>
        <time>2024-04-14T08:19:53.000Z</time>
      </trkpt>
      <trkpt lat="48.40313" lon="2.41231">
        <ele>104.40000152588</ele>
        <time>2024-04-14T08:19:55.000Z</time>
      </trkpt>
      <trkpt lat="48.40318" lon="2.41233">
        <ele>102.80000305176</ele>
        <time>2024-04-14T08:19:57.000Z</time>
      </trkpt>
      <trkpt lat="48.40322" lon="2.41233">
        <ele>101.19999694824</ele>
        <time>2024-04-14T08:19:59.000Z</time>
      </trkpt>
      <trkpt lat="48.40326" lon="2.41237">
        <ele>99.400001525879</ele>
        <time>2024-04-14T08:20:01.000Z</time>
      </trkpt>
      <trkpt lat="48.40328" lon="2.41241">
        <ele>97.599998474121</ele>
        <time>2024-04-14T08:20:02.000Z</time>
      </trkpt>
      <trkpt lat="48.40331" lon="2.41249">
        <ele>96.199996948242</ele>
        <time>2024-04-14T08:20:04.000Z</time>
      </trkpt>
      <trkpt lat="48.40332" lon="2.41253">
        <ele>95.599998474121</ele>
        <time>2024-04-14T08:20:05.000Z</time>
      </trkpt>
      <trkpt lat="48.40335" lon="2.41258">
        <ele>94.800003051758</ele>
        <time>2024-04-14T08:20:06.000Z</time>
      </trkpt>
      <trkpt lat="48.40341" lon="2.41265">
        <ele>93.199996948242</ele>
        <time>2024-04-14T08:20:08.000Z</time>
      </trkpt>
      <trkpt lat="48.40345" lon="2.41267">
        <ele>92.599998474121</ele>
        <time>2024-04-14T08:20:09.000Z</time>
      </trkpt>
      <trkpt lat="48.4035" lon="2.4127">
        <ele>92.199996948242</ele>
        <time>2024-04-14T08:20:10.000Z</time>
      </trkpt>
      <trkpt lat="48.40361" lon="2.41278">
        <ele>91</ele>
        <time>2024-04-14T08:20:12.000Z</time>
      </trkpt>
      <trkpt lat="48.40366" lon="2.41284">
        <ele>90.199996948242</ele>
        <time>2024-04-14T08:20:13.000Z</time>
      </trkpt>
      <trkpt lat="48.40371" lon="2.4129">
        <ele>89.599998474121</ele>
        <time>2024-04-14T08:20:14.000Z</time>
      </trkpt>
      <trkpt lat="48.40378" lon="2.41303">
        <ele>89.400001525879</ele>
        <time>2024-04-14T08:20:16.000Z</time>
      </trkpt>
      <trkpt lat="48.40387" lon="2.41322">
        <ele>88.599998474121</ele>
        <time>2024-04-14T08:20:20.000Z</time>
      </trkpt>
      <trkpt lat="48.4039" lon="2.41326">
        <ele>87.800003051758</ele>
        <time>2024-04-14T08:20:21.000Z</time>
      </trkpt>
      <trkpt lat="48.40392" lon="2.4133">
        <ele>87.400001525879</ele>
        <time>2024-04-14T08:20:22.000Z</time>
      </trkpt>
      <trkpt lat="48.40396" lon="2.41338">
        <ele>87.800003051758</ele>
        <time>2024-04-14T08:20:25.000Z</time>
      </trkpt>
      <trkpt lat="48.40404" lon="2.41345">
        <ele>85.800003051758</ele>
        <time>2024-04-14T08:20:28.000Z</time>
      </trkpt>
      <trkpt lat="48.40412" lon="2.41351">
        <ele>84.599998474121</ele>
        <time>2024-04-14T08:20:30.000Z</time>
      </trkpt>
      <trkpt lat="48.40422" lon="2.41352">
        <ele>84.199996948242</ele>
        <time>2024-04-14T08:20:33.000Z</time>
      </trkpt>
      <trkpt lat="48.40432" lon="2.41344">
        <ele>83.199996948242</ele>
        <time>2024-04-14T08:20:37.000Z</time>
      </trkpt>
      <trkpt lat="48.40434" lon="2.41348">
        <ele>82.199996948242</ele>
        <time>2024-04-14T08:20:39.000Z</time>
      </trkpt>
      <trkpt lat="48.40435" lon="2.41352">
        <ele>82</ele>
        <time>2024-04-14T08:20:40.000Z</time>
      </trkpt>
      <trkpt lat="48.40436" lon="2.41385">
        <ele>82.800003051758</ele>
        <time>2024-04-14T08:20:47.000Z</time>
      </trkpt>
      <trkpt lat="48.40437" lon="2.41402">
        <ele>83.599998474121</ele>
        <time>2024-04-14T08:20:50.000Z</time>
      </trkpt>
      <trkpt lat="48.40436" lon="2.41416">
        <ele>83.800003051758</ele>
        <time>2024-04-14T08:20:53.000Z</time>
      </trkpt>
      <trkpt lat="48.40434" lon="2.41425">
        <ele>84.400001525879</ele>
        <time>2024-04-14T08:20:58.000Z</time>
      </trkpt>
      <trkpt lat="48.40434" lon="2.41425">
        <ele>84.400001525879</ele>
        <time>2024-04-14T08:21:07.000Z</time>
      </trkpt>
      <trkpt lat="48.40434" lon="2.41425">
        <ele>84.400001525879</ele>
        <time>2024-04-14T08:21:17.000Z</time>
      </trkpt>
      <trkpt lat="48.40434" lon="2.41425">
        <ele>84.599998474121</ele>
        <time>2024-04-14T08:21:23.000Z</time>
      </trkpt>
      <trkpt lat="48.40434" lon="2.41425">
        <ele>84.400001525879</ele>
        <time>2024-04-14T08:21:32.000Z</time>
      </trkpt>
      <trkpt lat="48.40434" lon="2.41431">
        <ele>84.599998474121</ele>
        <time>2024-04-14T08:21:33.000Z</time>
      </trkpt>
      <trkpt lat="48.4043" lon="2.4145">
        <ele>85.199996948242</ele>
        <time>2024-04-14T08:21:37.000Z</time>
      </trkpt>
      <trkpt lat="48.40429" lon="2.41457">
        <ele>85.599998474121</ele>
        <time>2024-04-14T08:21:39.000Z</time>
      </trkpt>
      <trkpt lat="48.40428" lon="2.41462">
        <ele>85.599998474121</ele>
        <time>2024-04-14T08:21:40.000Z</time>
      </trkpt>
      <trkpt lat="48.40425" lon="2.41476">
        <ele>86.599998474121</ele>
        <time>2024-04-14T08:21:43.000Z</time>
      </trkpt>
      <trkpt lat="48.40425" lon="2.41479">
        <ele>86.800003051758</ele>
        <time>2024-04-14T08:21:44.000Z</time>
      </trkpt>
      <trkpt lat="48.4042" lon="2.41497">
        <ele>88</ele>
        <time>2024-04-14T08:21:49.000Z</time>
      </trkpt>
      <trkpt lat="48.40419" lon="2.41501">
        <ele>88.199996948242</ele>
        <time>2024-04-14T08:21:50.000Z</time>
      </trkpt>
      <trkpt lat="48.40417" lon="2.41516">
        <ele>89.199996948242</ele>
        <time>2024-04-14T08:21:54.000Z</time>
      </trkpt>
      <trkpt lat="48.40417" lon="2.41523">
        <ele>89.800003051758</ele>
        <time>2024-04-14T08:21:56.000Z</time>
      </trkpt>
      <trkpt lat="48.40415" lon="2.41528">
        <ele>90.400001525879</ele>
        <time>2024-04-14T08:21:58.000Z</time>
      </trkpt>
      <trkpt lat="48.40411" lon="2.41542">
        <ele>91.599998474121</ele>
        <time>2024-04-14T08:22:02.000Z</time>
      </trkpt>
      <trkpt lat="48.4041" lon="2.41544">
        <ele>91.800003051758</ele>
        <time>2024-04-14T08:22:03.000Z</time>
      </trkpt>
      <trkpt lat="48.40408" lon="2.4156">
        <ele>93</ele>
        <time>2024-04-14T08:22:08.000Z</time>
      </trkpt>
      <trkpt lat="48.40407" lon="2.41568">
        <ele>93.400001525879</ele>
        <time>2024-04-14T08:22:10.000Z</time>
      </trkpt>
      <trkpt lat="48.40406" lon="2.41582">
        <ele>94</ele>
        <time>2024-04-14T08:22:14.000Z</time>
      </trkpt>
      <trkpt lat="48.40407" lon="2.41584">
        <ele>94.199996948242</ele>
        <time>2024-04-14T08:22:15.000Z</time>
      </trkpt>
      <trkpt lat="48.40408" lon="2.41586">
        <ele>94.400001525879</ele>
        <time>2024-04-14T08:22:16.000Z</time>
      </trkpt>
      <trkpt lat="48.40408" lon="2.41598">
        <ele>95</ele>
        <time>2024-04-14T08:22:21.000Z</time>
      </trkpt>
      <trkpt lat="48.40407" lon="2.416">
        <ele>95.400001525879</ele>
        <time>2024-04-14T08:22:22.000Z</time>
      </trkpt>
      <trkpt lat="48.40406" lon="2.4161">
        <ele>96.599998474121</ele>
        <time>2024-04-14T08:22:26.000Z</time>
      </trkpt>
      <trkpt lat="48.40406" lon="2.41613">
        <ele>96.599998474121</ele>
        <time>2024-04-14T08:22:27.000Z</time>
      </trkpt>
      <trkpt lat="48.40404" lon="2.41624">
        <ele>97.599998474121</ele>
        <time>2024-04-14T08:22:31.000Z</time>
      </trkpt>
      <trkpt lat="48.40403" lon="2.41633">
        <ele>98</ele>
        <time>2024-04-14T08:22:34.000Z</time>
      </trkpt>
      <trkpt lat="48.40402" lon="2.41638">
        <ele>98.599998474121</ele>
        <time>2024-04-14T08:22:36.000Z</time>
      </trkpt>
      <trkpt lat="48.40401" lon="2.41649">
        <ele>99.599998474121</ele>
        <time>2024-04-14T08:22:41.000Z</time>
      </trkpt>
      <trkpt lat="48.40401" lon="2.41651">
        <ele>99.800003051758</ele>
        <time>2024-04-14T08:22:42.000Z</time>
      </trkpt>
      <trkpt lat="48.404" lon="2.41662">
        <ele>100.80000305176</ele>
        <time>2024-04-14T08:22:46.000Z</time>
      </trkpt>
      <trkpt lat="48.404" lon="2.41672">
        <ele>102.19999694824</ele>
        <time>2024-04-14T08:22:51.000Z</time>
      </trkpt>
      <trkpt lat="48.40401" lon="2.41683">
        <ele>103.19999694824</ele>
        <time>2024-04-14T08:22:58.000Z</time>
      </trkpt>
      <trkpt lat="48.40402" lon="2.41687">
        <ele>103.80000305176</ele>
        <time>2024-04-14T08:22:59.000Z</time>
      </trkpt>
      <trkpt lat="48.40402" lon="2.41692">
        <ele>104.59999847412</ele>
        <time>2024-04-14T08:23:01.000Z</time>
      </trkpt>
      <trkpt lat="48.404" lon="2.41704">
        <ele>106</ele>
        <time>2024-04-14T08:23:07.000Z</time>
      </trkpt>
      <trkpt lat="48.40399" lon="2.41706">
        <ele>106.19999694824</ele>
        <time>2024-04-14T08:23:08.000Z</time>
      </trkpt>
      <trkpt lat="48.40398" lon="2.41714">
        <ele>107.19999694824</ele>
        <time>2024-04-14T08:23:13.000Z</time>
      </trkpt>
      <trkpt lat="48.40395" lon="2.4172">
        <ele>108.19999694824</ele>
        <time>2024-04-14T08:23:16.000Z</time>
      </trkpt>
      <trkpt lat="48.40393" lon="2.41725">
        <ele>109.19999694824</ele>
        <time>2024-04-14T08:23:20.000Z</time>
      </trkpt>
      <trkpt lat="48.4039" lon="2.41731">
        <ele>110.40000152588</ele>
        <time>2024-04-14T08:23:24.000Z</time>
      </trkpt>
      <trkpt lat="48.40388" lon="2.41738">
        <ele>111.59999847412</ele>
        <time>2024-04-14T08:23:28.000Z</time>
      </trkpt>
      <trkpt lat="48.40388" lon="2.41746">
        <ele>112</ele>
        <time>2024-04-14T08:23:32.000Z</time>
      </trkpt>
      <trkpt lat="48.40386" lon="2.41752">
        <ele>112.59999847412</ele>
        <time>2024-04-14T08:23:37.000Z</time>
      </trkpt>
      <trkpt lat="48.40385" lon="2.41755">
        <ele>113.40000152588</ele>
        <time>2024-04-14T08:23:39.000Z</time>
      </trkpt>
      <trkpt lat="48.40384" lon="2.41757">
        <ele>113.59999847412</ele>
        <time>2024-04-14T08:23:40.000Z</time>
      </trkpt>
      <trkpt lat="48.40384" lon="2.41764">
        <ele>114.59999847412</ele>
        <time>2024-04-14T08:23:44.000Z</time>
      </trkpt>
      <trkpt lat="48.40384" lon="2.4177">
        <ele>115.19999694824</ele>
        <time>2024-04-14T08:23:48.000Z</time>
      </trkpt>
      <trkpt lat="48.40383" lon="2.41773">
        <ele>115.80000305176</ele>
        <time>2024-04-14T08:23:50.000Z</time>
      </trkpt>
      <trkpt lat="48.40383" lon="2.4178">
        <ele>116.80000305176</ele>
        <time>2024-04-14T08:23:54.000Z</time>
      </trkpt>
      <trkpt lat="48.40381" lon="2.41785">
        <ele>117.80000305176</ele>
        <time>2024-04-14T08:23:57.000Z</time>
      </trkpt>
      <trkpt lat="48.40381" lon="2.41787">
        <ele>118</ele>
        <time>2024-04-14T08:23:58.000Z</time>
      </trkpt>
      <trkpt lat="48.40381" lon="2.41794">
        <ele>120</ele>
        <time>2024-04-14T08:24:02.000Z</time>
      </trkpt>
      <trkpt lat="48.40381" lon="2.41796">
        <ele>120.19999694824</ele>
        <time>2024-04-14T08:24:03.000Z</time>
      </trkpt>
      <trkpt lat="48.4038" lon="2.418">
        <ele>121</ele>
        <time>2024-04-14T08:24:06.000Z</time>
      </trkpt>
      <trkpt lat="48.40377" lon="2.41804">
        <ele>122</ele>
        <time>2024-04-14T08:24:10.000Z</time>
      </trkpt>
      <trkpt lat="48.40376" lon="2.41811">
        <ele>123.59999847412</ele>
        <time>2024-04-14T08:24:13.000Z</time>
      </trkpt>
      <trkpt lat="48.40376" lon="2.41816">
        <ele>124.80000305176</ele>
        <time>2024-04-14T08:24:16.000Z</time>
      </trkpt>
      <trkpt lat="48.40376" lon="2.41817">
        <ele>125.19999694824</ele>
        <time>2024-04-14T08:24:17.000Z</time>
      </trkpt>
      <trkpt lat="48.40375" lon="2.41819">
        <ele>126</ele>
        <time>2024-04-14T08:24:20.000Z</time>
      </trkpt>
      <trkpt lat="48.40376" lon="2.41822">
        <ele>127.19999694824</ele>
        <time>2024-04-14T08:24:24.000Z</time>
      </trkpt>
      <trkpt lat="48.40376" lon="2.41822">
        <ele>127.19999694824</ele>
        <time>2024-04-14T08:24:25.000Z</time>
      </trkpt>
      <trkpt lat="48.40375" lon="2.41829">
        <ele>128.39999389648</ele>
        <time>2024-04-14T08:24:31.000Z</time>
      </trkpt>
      <trkpt lat="48.40375" lon="2.4183">
        <ele>128.80000305176</ele>
        <time>2024-04-14T08:24:32.000Z</time>
      </trkpt>
      <trkpt lat="48.40372" lon="2.41834">
        <ele>129.60000610352</ele>
        <time>2024-04-14T08:24:35.000Z</time>
      </trkpt>
      <trkpt lat="48.4037" lon="2.41839">
        <ele>130.80000305176</ele>
        <time>2024-04-14T08:24:39.000Z</time>
      </trkpt>
      <trkpt lat="48.40369" lon="2.41845">
        <ele>131.80000305176</ele>
        <time>2024-04-14T08:24:48.000Z</time>
      </trkpt>
      <trkpt lat="48.40368" lon="2.41846">
        <ele>132</ele>
        <time>2024-04-14T08:24:49.000Z</time>
      </trkpt>
      <trkpt lat="48.40367" lon="2.41847">
        <ele>132</ele>
        <time>2024-04-14T08:24:50.000Z</time>
      </trkpt>
      <trkpt lat="48.40364" lon="2.41852">
        <ele>132</ele>
        <time>2024-04-14T08:24:54.000Z</time>
      </trkpt>
      <trkpt lat="48.40361" lon="2.4186">
        <ele>132.80000305176</ele>
        <time>2024-04-14T08:25:01.000Z</time>
      </trkpt>
      <trkpt lat="48.4036" lon="2.41862">
        <ele>133</ele>
        <time>2024-04-14T08:25:02.000Z</time>
      </trkpt>
      <trkpt lat="48.40358" lon="2.41869">
        <ele>133.19999694824</ele>
        <time>2024-04-14T08:25:07.000Z</time>
      </trkpt>
      <trkpt lat="48.40352" lon="2.41879">
        <ele>134</ele>
        <time>2024-04-14T08:25:14.000Z</time>
      </trkpt>
      <trkpt lat="48.40343" lon="2.41893">
        <ele>134.19999694824</ele>
        <time>2024-04-14T08:25:20.000Z</time>
      </trkpt>
      <trkpt lat="48.4034" lon="2.41908">
        <ele>134.39999389648</ele>
        <time>2024-04-14T08:25:24.000Z</time>
      </trkpt>
      <trkpt lat="48.40341" lon="2.41916">
        <ele>134.39999389648</ele>
        <time>2024-04-14T08:25:28.000Z</time>
      </trkpt>
      <trkpt lat="48.40342" lon="2.41919">
        <ele>134.60000610352</ele>
        <time>2024-04-14T08:25:36.000Z</time>
      </trkpt>
      <trkpt lat="48.40346" lon="2.41923">
        <ele>134.60000610352</ele>
        <time>2024-04-14T08:25:44.000Z</time>
      </trkpt>
      <trkpt lat="48.40362" lon="2.41938">
        <ele>134.80000305176</ele>
        <time>2024-04-14T08:25:50.000Z</time>
      </trkpt>
      <trkpt lat="48.40375" lon="2.4195">
        <ele>135</ele>
        <time>2024-04-14T08:25:54.000Z</time>
      </trkpt>
      <trkpt lat="48.40382" lon="2.41958">
        <ele>135.19999694824</ele>
        <time>2024-04-14T08:25:56.000Z</time>
      </trkpt>
      <trkpt lat="48.40385" lon="2.41963">
        <ele>135.19999694824</ele>
        <time>2024-04-14T08:25:57.000Z</time>
      </trkpt>
      <trkpt lat="48.40402" lon="2.41988">
        <ele>136</ele>
        <time>2024-04-14T08:26:02.000Z</time>
      </trkpt>
      <trkpt lat="48.40406" lon="2.41992">
        <ele>136</ele>
        <time>2024-04-14T08:26:03.000Z</time>
      </trkpt>
      <trkpt lat="48.40416" lon="2.41997">
        <ele>135.80000305176</ele>
        <time>2024-04-14T08:26:05.000Z</time>
      </trkpt>
      <trkpt lat="48.40439" lon="2.42004">
        <ele>135.60000610352</ele>
        <time>2024-04-14T08:26:09.000Z</time>
      </trkpt>
      <trkpt lat="48.4047" lon="2.42018">
        <ele>135</ele>
        <time>2024-04-14T08:26:15.000Z</time>
      </trkpt>
      <trkpt lat="48.40489" lon="2.42011">
        <ele>134.80000305176</ele>
        <time>2024-04-14T08:26:19.000Z</time>
      </trkpt>
      <trkpt lat="48.405" lon="2.42007">
        <ele>134.80000305176</ele>
        <time>2024-04-14T08:26:21.000Z</time>
      </trkpt>
      <trkpt lat="48.40511" lon="2.42013">
        <ele>134.60000610352</ele>
        <time>2024-04-14T08:26:23.000Z</time>
      </trkpt>
      <trkpt lat="48.4052" lon="2.42034">
        <ele>134.80000305176</ele>
        <time>2024-04-14T08:26:26.000Z</time>
      </trkpt>
      <trkpt lat="48.40522" lon="2.42042">
        <ele>134.80000305176</ele>
        <time>2024-04-14T08:26:27.000Z</time>
      </trkpt>
      <trkpt lat="48.4053" lon="2.42087">
        <ele>134.39999389648</ele>
        <time>2024-04-14T08:26:32.000Z</time>
      </trkpt>
      <trkpt lat="48.4053" lon="2.42144">
        <ele>134.60000610352</ele>
        <time>2024-04-14T08:26:38.000Z</time>
      </trkpt>
      <trkpt lat="48.4053" lon="2.42163">
        <ele>134.60000610352</ele>
        <time>2024-04-14T08:26:40.000Z</time>
      </trkpt>
      <trkpt lat="48.40532" lon="2.42182">
        <ele>134</ele>
        <time>2024-04-14T08:26:42.000Z</time>
      </trkpt>
      <trkpt lat="48.40534" lon="2.42191">
        <ele>133.80000305176</ele>
        <time>2024-04-14T08:26:43.000Z</time>
      </trkpt>
      <trkpt lat="48.4054" lon="2.42208">
        <ele>134</ele>
        <time>2024-04-14T08:26:45.000Z</time>
      </trkpt>
      <trkpt lat="48.40547" lon="2.42225">
        <ele>134.19999694824</ele>
        <time>2024-04-14T08:26:47.000Z</time>
      </trkpt>
      <trkpt lat="48.40575" lon="2.42281">
        <ele>133.80000305176</ele>
        <time>2024-04-14T08:26:54.000Z</time>
      </trkpt>
      <trkpt lat="48.4058" lon="2.42286">
        <ele>133.80000305176</ele>
        <time>2024-04-14T08:26:55.000Z</time>
      </trkpt>
      <trkpt lat="48.406" lon="2.42291">
        <ele>133.60000610352</ele>
        <time>2024-04-14T08:26:58.000Z</time>
      </trkpt>
      <trkpt lat="48.40629" lon="2.42283">
        <ele>133.39999389648</ele>
        <time>2024-04-14T08:27:02.000Z</time>
      </trkpt>
      <trkpt lat="48.4065" lon="2.42262">
        <ele>133.19999694824</ele>
        <time>2024-04-14T08:27:06.000Z</time>
      </trkpt>
      <trkpt lat="48.40668" lon="2.4227">
        <ele>132.80000305176</ele>
        <time>2024-04-14T08:27:09.000Z</time>
      </trkpt>
      <trkpt lat="48.40674" lon="2.42274">
        <ele>133</ele>
        <time>2024-04-14T08:27:10.000Z</time>
      </trkpt>
      <trkpt lat="48.4068" lon="2.42278">
        <ele>133</ele>
        <time>2024-04-14T08:27:11.000Z</time>
      </trkpt>
      <trkpt lat="48.40698" lon="2.42285">
        <ele>133</ele>
        <time>2024-04-14T08:27:14.000Z</time>
      </trkpt>
      <trkpt lat="48.40735" lon="2.42299">
        <ele>134</ele>
        <time>2024-04-14T08:27:20.000Z</time>
      </trkpt>
      <trkpt lat="48.40779" lon="2.42316">
        <ele>134</ele>
        <time>2024-04-14T08:27:27.000Z</time>
      </trkpt>
      <trkpt lat="48.40814" lon="2.42343">
        <ele>134.19999694824</ele>
        <time>2024-04-14T08:27:33.000Z</time>
      </trkpt>
      <trkpt lat="48.40857" lon="2.42369">
        <ele>134.39999389648</ele>
        <time>2024-04-14T08:27:40.000Z</time>
      </trkpt>
      <trkpt lat="48.40876" lon="2.42368">
        <ele>134.39999389648</ele>
        <time>2024-04-14T08:27:43.000Z</time>
      </trkpt>
      <trkpt lat="48.4088" lon="2.42364">
        <ele>134.19999694824</ele>
        <time>2024-04-14T08:27:44.000Z</time>
      </trkpt>
      <trkpt lat="48.40882" lon="2.42354">
        <ele>134</ele>
        <time>2024-04-14T08:27:46.000Z</time>
      </trkpt>
      <trkpt lat="48.40871" lon="2.42337">
        <ele>134.39999389648</ele>
        <time>2024-04-14T08:27:50.000Z</time>
      </trkpt>
      <trkpt lat="48.40867" lon="2.42333">
        <ele>134.39999389648</ele>
        <time>2024-04-14T08:27:51.000Z</time>
      </trkpt>
      <trkpt lat="48.40863" lon="2.42329">
        <ele>134.60000610352</ele>
        <time>2024-04-14T08:27:52.000Z</time>
      </trkpt>
      <trkpt lat="48.40853" lon="2.42314">
        <ele>134.19999694824</ele>
        <time>2024-04-14T08:27:55.000Z</time>
      </trkpt>
      <trkpt lat="48.40847" lon="2.423">
        <ele>134.80000305176</ele>
        <time>2024-04-14T08:27:58.000Z</time>
      </trkpt>
      <trkpt lat="48.40844" lon="2.42296">
        <ele>134.80000305176</ele>
        <time>2024-04-14T08:27:59.000Z</time>
      </trkpt>
      <trkpt lat="48.4084" lon="2.42276">
        <ele>135.19999694824</ele>
        <time>2024-04-14T08:28:03.000Z</time>
      </trkpt>
      <trkpt lat="48.40841" lon="2.42253">
        <ele>135</ele>
        <time>2024-04-14T08:28:07.000Z</time>
      </trkpt>
      <trkpt lat="48.4084" lon="2.42247">
        <ele>134.60000610352</ele>
        <time>2024-04-14T08:28:08.000Z</time>
      </trkpt>
      <trkpt lat="48.40837" lon="2.42227">
        <ele>134.60000610352</ele>
        <time>2024-04-14T08:28:11.000Z</time>
      </trkpt>
      <trkpt lat="48.40834" lon="2.42221">
        <ele>134.80000305176</ele>
        <time>2024-04-14T08:28:12.000Z</time>
      </trkpt>
      <trkpt lat="48.40827" lon="2.42201">
        <ele>134.60000610352</ele>
        <time>2024-04-14T08:28:15.000Z</time>
      </trkpt>
      <trkpt lat="48.40823" lon="2.42195">
        <ele>134.60000610352</ele>
        <time>2024-04-14T08:28:16.000Z</time>
      </trkpt>
      <trkpt lat="48.40819" lon="2.4219">
        <ele>134.39999389648</ele>
        <time>2024-04-14T08:28:17.000Z</time>
      </trkpt>
      <trkpt lat="48.40803" lon="2.42174">
        <ele>134.39999389648</ele>
        <time>2024-04-14T08:28:21.000Z</time>
      </trkpt>
      <trkpt lat="48.4079" lon="2.42142">
        <ele>134</ele>
        <time>2024-04-14T08:28:26.000Z</time>
      </trkpt>
      <trkpt lat="48.40788" lon="2.42135">
        <ele>133.80000305176</ele>
        <time>2024-04-14T08:28:27.000Z</time>
      </trkpt>
      <trkpt lat="48.40785" lon="2.42122">
        <ele>133.60000610352</ele>
        <time>2024-04-14T08:28:29.000Z</time>
      </trkpt>
      <trkpt lat="48.40782" lon="2.42115">
        <ele>133.80000305176</ele>
        <time>2024-04-14T08:28:30.000Z</time>
      </trkpt>
      <trkpt lat="48.40778" lon="2.42109">
        <ele>133.60000610352</ele>
        <time>2024-04-14T08:28:31.000Z</time>
      </trkpt>
      <trkpt lat="48.40763" lon="2.42088">
        <ele>133.60000610352</ele>
        <time>2024-04-14T08:28:35.000Z</time>
      </trkpt>
      <trkpt lat="48.4076" lon="2.42085">
        <ele>133.60000610352</ele>
        <time>2024-04-14T08:28:36.000Z</time>
      </trkpt>
      <trkpt lat="48.40749" lon="2.42084">
        <ele>133.60000610352</ele>
        <time>2024-04-14T08:28:40.000Z</time>
      </trkpt>
      <trkpt lat="48.40744" lon="2.42085">
        <ele>132</ele>
        <time>2024-04-14T08:28:42.000Z</time>
      </trkpt>
      <trkpt lat="48.40741" lon="2.42084">
        <ele>130.80000305176</ele>
        <time>2024-04-14T08:28:43.000Z</time>
      </trkpt>
      <trkpt lat="48.40738" lon="2.42084">
        <ele>129.39999389648</ele>
        <time>2024-04-14T08:28:44.000Z</time>
      </trkpt>
      <trkpt lat="48.40735" lon="2.42085">
        <ele>128</ele>
        <time>2024-04-14T08:28:45.000Z</time>
      </trkpt>
      <trkpt lat="48.40731" lon="2.42088">
        <ele>126.40000152588</ele>
        <time>2024-04-14T08:28:46.000Z</time>
      </trkpt>
      <trkpt lat="48.40727" lon="2.42089">
        <ele>124.80000305176</ele>
        <time>2024-04-14T08:28:47.000Z</time>
      </trkpt>
      <trkpt lat="48.40723" lon="2.42089">
        <ele>123.40000152588</ele>
        <time>2024-04-14T08:28:48.000Z</time>
      </trkpt>
      <trkpt lat="48.40716" lon="2.42084">
        <ele>121.19999694824</ele>
        <time>2024-04-14T08:28:50.000Z</time>
      </trkpt>
      <trkpt lat="48.40714" lon="2.42081">
        <ele>121.19999694824</ele>
        <time>2024-04-14T08:28:51.000Z</time>
      </trkpt>
      <trkpt lat="48.40712" lon="2.42069">
        <ele>121.19999694824</ele>
        <time>2024-04-14T08:28:53.000Z</time>
      </trkpt>
      <trkpt lat="48.40709" lon="2.42061">
        <ele>120.40000152588</ele>
        <time>2024-04-14T08:28:54.000Z</time>
      </trkpt>
      <trkpt lat="48.40707" lon="2.42053">
        <ele>119.19999694824</ele>
        <time>2024-04-14T08:28:55.000Z</time>
      </trkpt>
      <trkpt lat="48.40705" lon="2.42044">
        <ele>118.19999694824</ele>
        <time>2024-04-14T08:28:56.000Z</time>
      </trkpt>
      <trkpt lat="48.40707" lon="2.42026">
        <ele>117.19999694824</ele>
        <time>2024-04-14T08:28:58.000Z</time>
      </trkpt>
      <trkpt lat="48.40716" lon="2.41998">
        <ele>116.19999694824</ele>
        <time>2024-04-14T08:29:01.000Z</time>
      </trkpt>
      <trkpt lat="48.40721" lon="2.41988">
        <ele>116</ele>
        <time>2024-04-14T08:29:02.000Z</time>
      </trkpt>
      <trkpt lat="48.40724" lon="2.4198">
        <ele>115</ele>
        <time>2024-04-14T08:29:03.000Z</time>
      </trkpt>
      <trkpt lat="48.40727" lon="2.41974">
        <ele>114</ele>
        <time>2024-04-14T08:29:04.000Z</time>
      </trkpt>
      <trkpt lat="48.40732" lon="2.41964">
        <ele>113</ele>
        <time>2024-04-14T08:29:06.000Z</time>
      </trkpt>
      <trkpt lat="48.40734" lon="2.41959">
        <ele>112.40000152588</ele>
        <time>2024-04-14T08:29:07.000Z</time>
      </trkpt>
      <trkpt lat="48.40736" lon="2.41953">
        <ele>111.19999694824</ele>
        <time>2024-04-14T08:29:08.000Z</time>
      </trkpt>
      <trkpt lat="48.40739" lon="2.41946">
        <ele>110</ele>
        <time>2024-04-14T08:29:09.000Z</time>
      </trkpt>
      <trkpt lat="48.4074" lon="2.41938">
        <ele>108.80000305176</ele>
        <time>2024-04-14T08:29:10.000Z</time>
      </trkpt>
      <trkpt lat="48.40741" lon="2.4193">
        <ele>107.19999694824</ele>
        <time>2024-04-14T08:29:11.000Z</time>
      </trkpt>
      <trkpt lat="48.40741" lon="2.41922">
        <ele>105.59999847412</ele>
        <time>2024-04-14T08:29:12.000Z</time>
      </trkpt>
      <trkpt lat="48.40743" lon="2.41913">
        <ele>103.80000305176</ele>
        <time>2024-04-14T08:29:13.000Z</time>
      </trkpt>
      <trkpt lat="48.40747" lon="2.419">
        <ele>103.40000152588</ele>
        <time>2024-04-14T08:29:15.000Z</time>
      </trkpt>
      <trkpt lat="48.40753" lon="2.41892">
        <ele>102.19999694824</ele>
        <time>2024-04-14T08:29:17.000Z</time>
      </trkpt>
      <trkpt lat="48.40757" lon="2.41888">
        <ele>101.19999694824</ele>
        <time>2024-04-14T08:29:18.000Z</time>
      </trkpt>
      <trkpt lat="48.40761" lon="2.41887">
        <ele>100.19999694824</ele>
        <time>2024-04-14T08:29:19.000Z</time>
      </trkpt>
      <trkpt lat="48.40766" lon="2.41885">
        <ele>99</ele>
        <time>2024-04-14T08:29:20.000Z</time>
      </trkpt>
      <trkpt lat="48.40776" lon="2.41884">
        <ele>97.400001525879</ele>
        <time>2024-04-14T08:29:22.000Z</time>
      </trkpt>
      <trkpt lat="48.40785" lon="2.41878">
        <ele>95.400001525879</ele>
        <time>2024-04-14T08:29:24.000Z</time>
      </trkpt>
      <trkpt lat="48.40788" lon="2.41871">
        <ele>94.400001525879</ele>
        <time>2024-04-14T08:29:25.000Z</time>
      </trkpt>
      <trkpt lat="48.4079" lon="2.41864">
        <ele>93.400001525879</ele>
        <time>2024-04-14T08:29:26.000Z</time>
      </trkpt>
      <trkpt lat="48.40793" lon="2.41856">
        <ele>92.199996948242</ele>
        <time>2024-04-14T08:29:27.000Z</time>
      </trkpt>
      <trkpt lat="48.40797" lon="2.4185">
        <ele>91</ele>
        <time>2024-04-14T08:29:28.000Z</time>
      </trkpt>
      <trkpt lat="48.40802" lon="2.41847">
        <ele>90</ele>
        <time>2024-04-14T08:29:29.000Z</time>
      </trkpt>
      <trkpt lat="48.40811" lon="2.41842">
        <ele>89.199996948242</ele>
        <time>2024-04-14T08:29:31.000Z</time>
      </trkpt>
      <trkpt lat="48.40816" lon="2.4184">
        <ele>88.400001525879</ele>
        <time>2024-04-14T08:29:32.000Z</time>
      </trkpt>
      <trkpt lat="48.40821" lon="2.41838">
        <ele>88</ele>
        <time>2024-04-14T08:29:33.000Z</time>
      </trkpt>
      <trkpt lat="48.40825" lon="2.41834">
        <ele>87.400001525879</ele>
        <time>2024-04-14T08:29:34.000Z</time>
      </trkpt>
      <trkpt lat="48.4083" lon="2.41829">
        <ele>87.199996948242</ele>
        <time>2024-04-14T08:29:35.000Z</time>
      </trkpt>
      <trkpt lat="48.40841" lon="2.41808">
        <ele>85.800003051758</ele>
        <time>2024-04-14T08:29:38.000Z</time>
      </trkpt>
      <trkpt lat="48.40846" lon="2.41793">
        <ele>85</ele>
        <time>2024-04-14T08:29:40.000Z</time>
      </trkpt>
      <trkpt lat="48.40847" lon="2.41786">
        <ele>84.800003051758</ele>
        <time>2024-04-14T08:29:41.000Z</time>
      </trkpt>
      <trkpt lat="48.40846" lon="2.41779">
        <ele>84.599998474121</ele>
        <time>2024-04-14T08:29:42.000Z</time>
      </trkpt>
      <trkpt lat="48.4083" lon="2.41754">
        <ele>84.199996948242</ele>
        <time>2024-04-14T08:29:46.000Z</time>
      </trkpt>
      <trkpt lat="48.40825" lon="2.41748">
        <ele>84.199996948242</ele>
        <time>2024-04-14T08:29:47.000Z</time>
      </trkpt>
      <trkpt lat="48.40795" lon="2.41711">
        <ele>84.400001525879</ele>
        <time>2024-04-14T08:29:53.000Z</time>
      </trkpt>
      <trkpt lat="48.40776" lon="2.41683">
        <ele>83.599998474121</ele>
        <time>2024-04-14T08:29:57.000Z</time>
      </trkpt>
      <trkpt lat="48.40765" lon="2.41669">
        <ele>83.400001525879</ele>
        <time>2024-04-14T08:29:59.000Z</time>
      </trkpt>
      <trkpt lat="48.4073" lon="2.41621">
        <ele>82.400001525879</ele>
        <time>2024-04-14T08:30:06.000Z</time>
      </trkpt>
      <trkpt lat="48.40722" lon="2.41601">
        <ele>82.599998474121</ele>
        <time>2024-04-14T08:30:10.000Z</time>
      </trkpt>
      <trkpt lat="48.40728" lon="2.41593">
        <ele>82</ele>
        <time>2024-04-14T08:30:13.000Z</time>
      </trkpt>
      <trkpt lat="48.40734" lon="2.41593">
        <ele>82</ele>
        <time>2024-04-14T08:30:15.000Z</time>
      </trkpt>
      <trkpt lat="48.40744" lon="2.41588">
        <ele>83.199996948242</ele>
        <time>2024-04-14T08:30:18.000Z</time>
      </trkpt>
      <trkpt lat="48.40766" lon="2.41566">
        <ele>83.599998474121</ele>
        <time>2024-04-14T08:30:24.000Z</time>
      </trkpt>
      <trkpt lat="48.40769" lon="2.41562">
        <ele>83.800003051758</ele>
        <time>2024-04-14T08:30:25.000Z</time>
      </trkpt>
      <trkpt lat="48.4079" lon="2.41546">
        <ele>84.400001525879</ele>
        <time>2024-04-14T08:30:31.000Z</time>
      </trkpt>
      <trkpt lat="48.40794" lon="2.41544">
        <ele>84.599998474121</ele>
        <time>2024-04-14T08:30:32.000Z</time>
      </trkpt>
      <trkpt lat="48.40812" lon="2.41535">
        <ele>85.400001525879</ele>
        <time>2024-04-14T08:30:37.000Z</time>
      </trkpt>
      <trkpt lat="48.40825" lon="2.41525">
        <ele>85.800003051758</ele>
        <time>2024-04-14T08:30:41.000Z</time>
      </trkpt>
      <trkpt lat="48.40827" lon="2.41521">
        <ele>86</ele>
        <time>2024-04-14T08:30:42.000Z</time>
      </trkpt>
      <trkpt lat="48.40828" lon="2.41505">
        <ele>86</ele>
        <time>2024-04-14T08:30:45.000Z</time>
      </trkpt>
      <trkpt lat="48.40825" lon="2.41489">
        <ele>86.199996948242</ele>
        <time>2024-04-14T08:30:48.000Z</time>
      </trkpt>
      <trkpt lat="48.40822" lon="2.41479">
        <ele>86.400001525879</ele>
        <time>2024-04-14T08:30:50.000Z</time>
      </trkpt>
      <trkpt lat="48.40817" lon="2.41468">
        <ele>86.599998474121</ele>
        <time>2024-04-14T08:30:53.000Z</time>
      </trkpt>
      <trkpt lat="48.40811" lon="2.41464">
        <ele>86.800003051758</ele>
        <time>2024-04-14T08:30:55.000Z</time>
      </trkpt>
      <trkpt lat="48.40806" lon="2.41456">
        <ele>86.599998474121</ele>
        <time>2024-04-14T08:30:57.000Z</time>
      </trkpt>
      <trkpt lat="48.40797" lon="2.41432">
        <ele>87</ele>
        <time>2024-04-14T08:31:02.000Z</time>
      </trkpt>
      <trkpt lat="48.40787" lon="2.41407">
        <ele>87.400001525879</ele>
        <time>2024-04-14T08:31:07.000Z</time>
      </trkpt>
      <trkpt lat="48.40787" lon="2.41402">
        <ele>88</ele>
        <time>2024-04-14T08:31:08.000Z</time>
      </trkpt>
      <trkpt lat="48.40789" lon="2.41392">
        <ele>88.800003051758</ele>
        <time>2024-04-14T08:31:10.000Z</time>
      </trkpt>
      <trkpt lat="48.4079" lon="2.41389">
        <ele>89</ele>
        <time>2024-04-14T08:31:11.000Z</time>
      </trkpt>
      <trkpt lat="48.40789" lon="2.41377">
        <ele>90.199996948242</ele>
        <time>2024-04-14T08:31:14.000Z</time>
      </trkpt>
      <trkpt lat="48.40786" lon="2.41373">
        <ele>90.400001525879</ele>
        <time>2024-04-14T08:31:15.000Z</time>
      </trkpt>
      <trkpt lat="48.40784" lon="2.4137">
        <ele>90.400001525879</ele>
        <time>2024-04-14T08:31:16.000Z</time>
      </trkpt>
      <trkpt lat="48.40772" lon="2.41343">
        <ele>90.400001525879</ele>
        <time>2024-04-14T08:31:22.000Z</time>
      </trkpt>
      <trkpt lat="48.40765" lon="2.41315">
        <ele>90</ele>
        <time>2024-04-14T08:31:27.000Z</time>
      </trkpt>
      <trkpt lat="48.40757" lon="2.41301">
        <ele>89.599998474121</ele>
        <time>2024-04-14T08:31:30.000Z</time>
      </trkpt>
      <trkpt lat="48.40755" lon="2.41297">
        <ele>89.400001525879</ele>
        <time>2024-04-14T08:31:31.000Z</time>
      </trkpt>
      <trkpt lat="48.40756" lon="2.41294">
        <ele>89.400001525879</ele>
        <time>2024-04-14T08:31:32.000Z</time>
      </trkpt>
      <trkpt lat="48.40762" lon="2.41294">
        <ele>89.400001525879</ele>
        <time>2024-04-14T08:31:34.000Z</time>
      </trkpt>
      <trkpt lat="48.40774" lon="2.41285">
        <ele>90</ele>
        <time>2024-04-14T08:31:38.000Z</time>
      </trkpt>
      <trkpt lat="48.40772" lon="2.41268">
        <ele>89.199996948242</ele>
        <time>2024-04-14T08:31:41.000Z</time>
      </trkpt>
      <trkpt lat="48.40773" lon="2.41262">
        <ele>89.599998474121</ele>
        <time>2024-04-14T08:31:42.000Z</time>
      </trkpt>
      <trkpt lat="48.40773" lon="2.41242">
        <ele>90.199996948242</ele>
        <time>2024-04-14T08:31:45.000Z</time>
      </trkpt>
      <trkpt lat="48.40773" lon="2.41236">
        <ele>90</ele>
        <time>2024-04-14T08:31:46.000Z</time>
      </trkpt>
      <trkpt lat="48.40772" lon="2.41216">
        <ele>89.599998474121</ele>
        <time>2024-04-14T08:31:50.000Z</time>
      </trkpt>
      <trkpt lat="48.40786" lon="2.41191">
        <ele>89.800003051758</ele>
        <time>2024-04-14T08:31:55.000Z</time>
      </trkpt>
      <trkpt lat="48.40789" lon="2.41185">
        <ele>89.800003051758</ele>
        <time>2024-04-14T08:31:56.000Z</time>
      </trkpt>
      <trkpt lat="48.40801" lon="2.41177">
        <ele>89.800003051758</ele>
        <time>2024-04-14T08:31:59.000Z</time>
      </trkpt>
      <trkpt lat="48.40805" lon="2.41169">
        <ele>91.199996948242</ele>
        <time>2024-04-14T08:32:01.000Z</time>
      </trkpt>
      <trkpt lat="48.40807" lon="2.41158">
        <ele>91.199996948242</ele>
        <time>2024-04-14T08:32:03.000Z</time>
      </trkpt>
      <trkpt lat="48.40801" lon="2.41139">
        <ele>90.400001525879</ele>
        <time>2024-04-14T08:32:07.000Z</time>
      </trkpt>
      <trkpt lat="48.40798" lon="2.41134">
        <ele>90</ele>
        <time>2024-04-14T08:32:08.000Z</time>
      </trkpt>
      <trkpt lat="48.40787" lon="2.4112">
        <ele>90.400001525879</ele>
        <time>2024-04-14T08:32:12.000Z</time>
      </trkpt>
      <trkpt lat="48.40786" lon="2.41114">
        <ele>90.800003051758</ele>
        <time>2024-04-14T08:32:14.000Z</time>
      </trkpt>
      <trkpt lat="48.40787" lon="2.41106">
        <ele>91</ele>
        <time>2024-04-14T08:32:16.000Z</time>
      </trkpt>
      <trkpt lat="48.40789" lon="2.41102">
        <ele>91.199996948242</ele>
        <time>2024-04-14T08:32:17.000Z</time>
      </trkpt>
      <trkpt lat="48.40796" lon="2.41096">
        <ele>91.400001525879</ele>
        <time>2024-04-14T08:32:19.000Z</time>
      </trkpt>
      <trkpt lat="48.40799" lon="2.41093">
        <ele>91.599998474121</ele>
        <time>2024-04-14T08:32:20.000Z</time>
      </trkpt>
      <trkpt lat="48.40801" lon="2.41087">
        <ele>91.800003051758</ele>
        <time>2024-04-14T08:32:21.000Z</time>
      </trkpt>
      <trkpt lat="48.40802" lon="2.41075">
        <ele>91.400001525879</ele>
        <time>2024-04-14T08:32:23.000Z</time>
      </trkpt>
      <trkpt lat="48.40803" lon="2.41061">
        <ele>90.199996948242</ele>
        <time>2024-04-14T08:32:25.000Z</time>
      </trkpt>
      <trkpt lat="48.40807" lon="2.4105">
        <ele>90.199996948242</ele>
        <time>2024-04-14T08:32:27.000Z</time>
      </trkpt>
      <trkpt lat="48.40804" lon="2.41038">
        <ele>89.599998474121</ele>
        <time>2024-04-14T08:32:30.000Z</time>
      </trkpt>
      <trkpt lat="48.40798" lon="2.41025">
        <ele>88.800003051758</ele>
        <time>2024-04-14T08:32:33.000Z</time>
      </trkpt>
      <trkpt lat="48.40793" lon="2.41016">
        <ele>88.599998474121</ele>
        <time>2024-04-14T08:32:35.000Z</time>
      </trkpt>
      <trkpt lat="48.40788" lon="2.40999">
        <ele>88</ele>
        <time>2024-04-14T08:32:38.000Z</time>
      </trkpt>
      <trkpt lat="48.40788" lon="2.40993">
        <ele>87.800003051758</ele>
        <time>2024-04-14T08:32:39.000Z</time>
      </trkpt>
      <trkpt lat="48.40789" lon="2.40987">
        <ele>88</ele>
        <time>2024-04-14T08:32:40.000Z</time>
      </trkpt>
      <trkpt lat="48.40791" lon="2.40976">
        <ele>88</ele>
        <time>2024-04-14T08:32:42.000Z</time>
      </trkpt>
      <trkpt lat="48.40794" lon="2.40966">
        <ele>87.800003051758</ele>
        <time>2024-04-14T08:32:45.000Z</time>
      </trkpt>
      <trkpt lat="48.40807" lon="2.40951">
        <ele>88.599998474121</ele>
        <time>2024-04-14T08:32:50.000Z</time>
      </trkpt>
      <trkpt lat="48.40811" lon="2.40949">
        <ele>89.199996948242</ele>
        <time>2024-04-14T08:32:51.000Z</time>
      </trkpt>
      <trkpt lat="48.40818" lon="2.40941">
        <ele>89.800003051758</ele>
        <time>2024-04-14T08:32:53.000Z</time>
      </trkpt>
      <trkpt lat="48.40819" lon="2.40931">
        <ele>90.400001525879</ele>
        <time>2024-04-14T08:32:55.000Z</time>
      </trkpt>
      <trkpt lat="48.40818" lon="2.40925">
        <ele>90.199996948242</ele>
        <time>2024-04-14T08:32:56.000Z</time>
      </trkpt>
      <trkpt lat="48.4081" lon="2.40903">
        <ele>89.599998474121</ele>
        <time>2024-04-14T08:32:59.000Z</time>
      </trkpt>
      <trkpt lat="48.40807" lon="2.40896">
        <ele>89.400001525879</ele>
        <time>2024-04-14T08:33:00.000Z</time>
      </trkpt>
      <trkpt lat="48.40796" lon="2.40872">
        <ele>89.199996948242</ele>
        <time>2024-04-14T08:33:03.000Z</time>
      </trkpt>
      <trkpt lat="48.40778" lon="2.40835">
        <ele>89</ele>
        <time>2024-04-14T08:33:08.000Z</time>
      </trkpt>
      <trkpt lat="48.40773" lon="2.40828">
        <ele>89.199996948242</ele>
        <time>2024-04-14T08:33:09.000Z</time>
      </trkpt>
      <trkpt lat="48.40746" lon="2.40798">
        <ele>88.800003051758</ele>
        <time>2024-04-14T08:33:14.000Z</time>
      </trkpt>
      <trkpt lat="48.40741" lon="2.40791">
        <ele>88.199996948242</ele>
        <time>2024-04-14T08:33:15.000Z</time>
      </trkpt>
      <trkpt lat="48.4071" lon="2.40758">
        <ele>87</ele>
        <time>2024-04-14T08:33:20.000Z</time>
      </trkpt>
      <trkpt lat="48.40686" lon="2.40733">
        <ele>85.800003051758</ele>
        <time>2024-04-14T08:33:24.000Z</time>
      </trkpt>
      <trkpt lat="48.40662" lon="2.40709">
        <ele>85.199996948242</ele>
        <time>2024-04-14T08:33:28.000Z</time>
      </trkpt>
      <trkpt lat="48.40656" lon="2.40704">
        <ele>84.599998474121</ele>
        <time>2024-04-14T08:33:29.000Z</time>
      </trkpt>
      <trkpt lat="48.40627" lon="2.40677">
        <ele>83.400001525879</ele>
        <time>2024-04-14T08:33:34.000Z</time>
      </trkpt>
      <trkpt lat="48.40621" lon="2.40672">
        <ele>82.599998474121</ele>
        <time>2024-04-14T08:33:35.000Z</time>
      </trkpt>
      <trkpt lat="48.40615" lon="2.40668">
        <ele>82.199996948242</ele>
        <time>2024-04-14T08:33:36.000Z</time>
      </trkpt>
      <trkpt lat="48.40582" lon="2.40639">
        <ele>81</ele>
        <time>2024-04-14T08:33:42.000Z</time>
      </trkpt>
      <trkpt lat="48.40559" lon="2.4062">
        <ele>79.599998474121</ele>
        <time>2024-04-14T08:33:46.000Z</time>
      </trkpt>
      <trkpt lat="48.40543" lon="2.40608">
        <ele>79.599998474121</ele>
        <time>2024-04-14T08:33:49.000Z</time>
      </trkpt>
      <trkpt lat="48.40535" lon="2.406">
        <ele>79.400001525879</ele>
        <time>2024-04-14T08:33:52.000Z</time>
      </trkpt>
      <trkpt lat="48.40539" lon="2.40598">
        <ele>79.400001525879</ele>
        <time>2024-04-14T08:33:55.000Z</time>
      </trkpt>
      <trkpt lat="48.40543" lon="2.40599">
        <ele>79.599998474121</ele>
        <time>2024-04-14T08:33:57.000Z</time>
      </trkpt>
      <trkpt lat="48.40553" lon="2.40596">
        <ele>80</ele>
        <time>2024-04-14T08:34:00.000Z</time>
      </trkpt>
      <trkpt lat="48.40579" lon="2.40585">
        <ele>80.599998474121</ele>
        <time>2024-04-14T08:34:07.000Z</time>
      </trkpt>
      <trkpt lat="48.40583" lon="2.40584">
        <ele>81</ele>
        <time>2024-04-14T08:34:08.000Z</time>
      </trkpt>
      <trkpt lat="48.40603" lon="2.40571">
        <ele>82</ele>
        <time>2024-04-14T08:34:13.000Z</time>
      </trkpt>
      <trkpt lat="48.40629" lon="2.40556">
        <ele>83.199996948242</ele>
        <time>2024-04-14T08:34:20.000Z</time>
      </trkpt>
      <trkpt lat="48.40649" lon="2.40544">
        <ele>84.199996948242</ele>
        <time>2024-04-14T08:34:26.000Z</time>
      </trkpt>
      <trkpt lat="48.40655" lon="2.40541">
        <ele>85.400001525879</ele>
        <time>2024-04-14T08:34:28.000Z</time>
      </trkpt>
      <trkpt lat="48.40671" lon="2.40531">
        <ele>86.400001525879</ele>
        <time>2024-04-14T08:34:33.000Z</time>
      </trkpt>
      <trkpt lat="48.40677" lon="2.40526">
        <ele>86.599998474121</ele>
        <time>2024-04-14T08:34:35.000Z</time>
      </trkpt>
      <trkpt lat="48.40685" lon="2.40519">
        <ele>87.400001525879</ele>
        <time>2024-04-14T08:34:38.000Z</time>
      </trkpt>
      <trkpt lat="48.40694" lon="2.40514">
        <ele>88.199996948242</ele>
        <time>2024-04-14T08:34:42.000Z</time>
      </trkpt>
      <trkpt lat="48.40696" lon="2.40513">
        <ele>88.599998474121</ele>
        <time>2024-04-14T08:34:43.000Z</time>
      </trkpt>
      <trkpt lat="48.40704" lon="2.40508">
        <ele>89.599998474121</ele>
        <time>2024-04-14T08:34:47.000Z</time>
      </trkpt>
      <trkpt lat="48.4071" lon="2.40505">
        <ele>90.400001525879</ele>
        <time>2024-04-14T08:34:50.000Z</time>
      </trkpt>
      <trkpt lat="48.40713" lon="2.40505">
        <ele>90.800003051758</ele>
        <time>2024-04-14T08:34:51.000Z</time>
      </trkpt>
      <trkpt lat="48.40723" lon="2.405">
        <ele>91.800003051758</ele>
        <time>2024-04-14T08:34:55.000Z</time>
      </trkpt>
      <trkpt lat="48.40729" lon="2.40496">
        <ele>92.599998474121</ele>
        <time>2024-04-14T08:34:59.000Z</time>
      </trkpt>
      <trkpt lat="48.4073" lon="2.40495">
        <ele>92.800003051758</ele>
        <time>2024-04-14T08:35:00.000Z</time>
      </trkpt>
      <trkpt lat="48.40734" lon="2.40494">
        <ele>94</ele>
        <time>2024-04-14T08:35:04.000Z</time>
      </trkpt>
      <trkpt lat="48.40736" lon="2.40494">
        <ele>94.400001525879</ele>
        <time>2024-04-14T08:35:06.000Z</time>
      </trkpt>
      <trkpt lat="48.40738" lon="2.40492">
        <ele>95.199996948242</ele>
        <time>2024-04-14T08:35:09.000Z</time>
      </trkpt>
      <trkpt lat="48.40743" lon="2.40487">
        <ele>96.199996948242</ele>
        <time>2024-04-14T08:35:14.000Z</time>
      </trkpt>
      <trkpt lat="48.40743" lon="2.40486">
        <ele>96.400001525879</ele>
        <time>2024-04-14T08:35:24.000Z</time>
      </trkpt>
      <trkpt lat="48.40746" lon="2.40481">
        <ele>97.400001525879</ele>
        <time>2024-04-14T08:35:30.000Z</time>
      </trkpt>
      <trkpt lat="48.4075" lon="2.40475">
        <ele>98.400001525879</ele>
        <time>2024-04-14T08:35:34.000Z</time>
      </trkpt>
      <trkpt lat="48.40757" lon="2.40468">
        <ele>99.599998474121</ele>
        <time>2024-04-14T08:35:39.000Z</time>
      </trkpt>
      <trkpt lat="48.40758" lon="2.40467">
        <ele>100.40000152588</ele>
        <time>2024-04-14T08:35:40.000Z</time>
      </trkpt>
      <trkpt lat="48.4076" lon="2.40467">
        <ele>100.80000305176</ele>
        <time>2024-04-14T08:35:41.000Z</time>
      </trkpt>
      <trkpt lat="48.40763" lon="2.40466">
        <ele>101</ele>
        <time>2024-04-14T08:35:43.000Z</time>
      </trkpt>
      <trkpt lat="48.40768" lon="2.40468">
        <ele>102</ele>
        <time>2024-04-14T08:35:46.000Z</time>
      </trkpt>
      <trkpt lat="48.40773" lon="2.40471">
        <ele>103.19999694824</ele>
        <time>2024-04-14T08:35:50.000Z</time>
      </trkpt>
      <trkpt lat="48.40777" lon="2.40475">
        <ele>104.19999694824</ele>
        <time>2024-04-14T08:35:54.000Z</time>
      </trkpt>
      <trkpt lat="48.40779" lon="2.40475">
        <ele>104.59999847412</ele>
        <time>2024-04-14T08:35:55.000Z</time>
      </trkpt>
      <trkpt lat="48.40784" lon="2.40474">
        <ele>105.59999847412</ele>
        <time>2024-04-14T08:35:59.000Z</time>
      </trkpt>
      <trkpt lat="48.40788" lon="2.40475">
        <ele>106.40000152588</ele>
        <time>2024-04-14T08:36:02.000Z</time>
      </trkpt>
      <trkpt lat="48.40789" lon="2.40475">
        <ele>107.19999694824</ele>
        <time>2024-04-14T08:36:04.000Z</time>
      </trkpt>
      <trkpt lat="48.40795" lon="2.40473">
        <ele>108.19999694824</ele>
        <time>2024-04-14T08:36:09.000Z</time>
      </trkpt>
      <trkpt lat="48.40797" lon="2.40472">
        <ele>108.40000152588</ele>
        <time>2024-04-14T08:36:10.000Z</time>
      </trkpt>
      <trkpt lat="48.408" lon="2.40469">
        <ele>109.40000152588</ele>
        <time>2024-04-14T08:36:14.000Z</time>
      </trkpt>
      <trkpt lat="48.40803" lon="2.40466">
        <ele>110.40000152588</ele>
        <time>2024-04-14T08:36:17.000Z</time>
      </trkpt>
      <trkpt lat="48.40804" lon="2.40465">
        <ele>110.59999847412</ele>
        <time>2024-04-14T08:36:18.000Z</time>
      </trkpt>
      <trkpt lat="48.40808" lon="2.40463">
        <ele>111.80000305176</ele>
        <time>2024-04-14T08:36:22.000Z</time>
      </trkpt>
      <trkpt lat="48.40812" lon="2.40464">
        <ele>112.59999847412</ele>
        <time>2024-04-14T08:36:25.000Z</time>
      </trkpt>
      <trkpt lat="48.40813" lon="2.40465">
        <ele>113</ele>
        <time>2024-04-14T08:36:26.000Z</time>
      </trkpt>
      <trkpt lat="48.40816" lon="2.40467">
        <ele>114</ele>
        <time>2024-04-14T08:36:29.000Z</time>
      </trkpt>
      <trkpt lat="48.4082" lon="2.40468">
        <ele>114.80000305176</ele>
        <time>2024-04-14T08:36:32.000Z</time>
      </trkpt>
      <trkpt lat="48.40821" lon="2.40469">
        <ele>115</ele>
        <time>2024-04-14T08:36:33.000Z</time>
      </trkpt>
      <trkpt lat="48.40824" lon="2.40474">
        <ele>116.19999694824</ele>
        <time>2024-04-14T08:36:38.000Z</time>
      </trkpt>
      <trkpt lat="48.40825" lon="2.40475">
        <ele>116.59999847412</ele>
        <time>2024-04-14T08:36:39.000Z</time>
      </trkpt>
      <trkpt lat="48.40828" lon="2.40479">
        <ele>117.40000152588</ele>
        <time>2024-04-14T08:36:42.000Z</time>
      </trkpt>
      <trkpt lat="48.40833" lon="2.40485">
        <ele>118.40000152588</ele>
        <time>2024-04-14T08:36:46.000Z</time>
      </trkpt>
      <trkpt lat="48.40836" lon="2.4049">
        <ele>119.19999694824</ele>
        <time>2024-04-14T08:36:49.000Z</time>
      </trkpt>
      <trkpt lat="48.40838" lon="2.40492">
        <ele>119.59999847412</ele>
        <time>2024-04-14T08:36:51.000Z</time>
      </trkpt>
      <trkpt lat="48.40842" lon="2.40497">
        <ele>120.40000152588</ele>
        <time>2024-04-14T08:36:56.000Z</time>
      </trkpt>
      <trkpt lat="48.40845" lon="2.40499">
        <ele>120.59999847412</ele>
        <time>2024-04-14T08:36:58.000Z</time>
      </trkpt>
      <trkpt lat="48.40847" lon="2.405">
        <ele>120.59999847412</ele>
        <time>2024-04-14T08:36:59.000Z</time>
      </trkpt>
      <trkpt lat="48.40854" lon="2.40507">
        <ele>121.59999847412</ele>
        <time>2024-04-14T08:37:04.000Z</time>
      </trkpt>
      <trkpt lat="48.40856" lon="2.40509">
        <ele>121.80000305176</ele>
        <time>2024-04-14T08:37:05.000Z</time>
      </trkpt>
      <trkpt lat="48.40866" lon="2.40513">
        <ele>122.80000305176</ele>
        <time>2024-04-14T08:37:12.000Z</time>
      </trkpt>
      <trkpt lat="48.40872" lon="2.40514">
        <ele>124</ele>
        <time>2024-04-14T08:37:16.000Z</time>
      </trkpt>
      <trkpt lat="48.40878" lon="2.40515">
        <ele>125.19999694824</ele>
        <time>2024-04-14T08:37:20.000Z</time>
      </trkpt>
      <trkpt lat="48.40879" lon="2.40515">
        <ele>125.40000152588</ele>
        <time>2024-04-14T08:37:21.000Z</time>
      </trkpt>
      <trkpt lat="48.40885" lon="2.40516">
        <ele>126.19999694824</ele>
        <time>2024-04-14T08:37:24.000Z</time>
      </trkpt>
      <trkpt lat="48.40889" lon="2.40515">
        <ele>126.59999847412</ele>
        <time>2024-04-14T08:37:26.000Z</time>
      </trkpt>
      <trkpt lat="48.40893" lon="2.40514">
        <ele>127.40000152588</ele>
        <time>2024-04-14T08:37:28.000Z</time>
      </trkpt>
      <trkpt lat="48.40895" lon="2.40513">
        <ele>127.59999847412</ele>
        <time>2024-04-14T08:37:29.000Z</time>
      </trkpt>
      <trkpt lat="48.409" lon="2.40511">
        <ele>128.39999389648</ele>
        <time>2024-04-14T08:37:32.000Z</time>
      </trkpt>
      <trkpt lat="48.40906" lon="2.40508">
        <ele>129.60000610352</ele>
        <time>2024-04-14T08:37:36.000Z</time>
      </trkpt>
      <trkpt lat="48.40909" lon="2.40507">
        <ele>130.19999694824</ele>
        <time>2024-04-14T08:37:38.000Z</time>
      </trkpt>
      <trkpt lat="48.40909" lon="2.40506">
        <ele>131</ele>
        <time>2024-04-14T08:37:40.000Z</time>
      </trkpt>
      <trkpt lat="48.40916" lon="2.40506">
        <ele>132</ele>
        <time>2024-04-14T08:37:44.000Z</time>
      </trkpt>
      <trkpt lat="48.40918" lon="2.40507">
        <ele>132.19999694824</ele>
        <time>2024-04-14T08:37:45.000Z</time>
      </trkpt>
      <trkpt lat="48.40925" lon="2.40515">
        <ele>132.60000610352</ele>
        <time>2024-04-14T08:37:49.000Z</time>
      </trkpt>
      <trkpt lat="48.40928" lon="2.40518">
        <ele>133.19999694824</ele>
        <time>2024-04-14T08:37:51.000Z</time>
      </trkpt>
      <trkpt lat="48.40933" lon="2.40519">
        <ele>133.19999694824</ele>
        <time>2024-04-14T08:37:53.000Z</time>
      </trkpt>
      <trkpt lat="48.40959" lon="2.40518">
        <ele>134</ele>
        <time>2024-04-14T08:38:01.000Z</time>
      </trkpt>
      <trkpt lat="48.40963" lon="2.40518">
        <ele>134.19999694824</ele>
        <time>2024-04-14T08:38:02.000Z</time>
      </trkpt>
      <trkpt lat="48.4098" lon="2.40509">
        <ele>134.39999389648</ele>
        <time>2024-04-14T08:38:07.000Z</time>
      </trkpt>
      <trkpt lat="48.40996" lon="2.4049">
        <ele>134.80000305176</ele>
        <time>2024-04-14T08:38:13.000Z</time>
      </trkpt>
      <trkpt lat="48.41013" lon="2.40467">
        <ele>135</ele>
        <time>2024-04-14T08:38:19.000Z</time>
      </trkpt>
      <trkpt lat="48.41024" lon="2.40453">
        <ele>135</ele>
        <time>2024-04-14T08:38:24.000Z</time>
      </trkpt>
      <trkpt lat="48.41038" lon="2.40429">
        <ele>135</ele>
        <time>2024-04-14T08:38:29.000Z</time>
      </trkpt>
      <trkpt lat="48.4105" lon="2.4042">
        <ele>134.60000610352</ele>
        <time>2024-04-14T08:38:33.000Z</time>
      </trkpt>
      <trkpt lat="48.41068" lon="2.40433">
        <ele>133.80000305176</ele>
        <time>2024-04-14T08:38:37.000Z</time>
      </trkpt>
      <trkpt lat="48.41076" lon="2.40442">
        <ele>133</ele>
        <time>2024-04-14T08:38:39.000Z</time>
      </trkpt>
      <trkpt lat="48.4108" lon="2.40447">
        <ele>132.60000610352</ele>
        <time>2024-04-14T08:38:40.000Z</time>
      </trkpt>
      <trkpt lat="48.41083" lon="2.40459">
        <ele>132.39999389648</ele>
        <time>2024-04-14T08:38:42.000Z</time>
      </trkpt>
      <trkpt lat="48.41085" lon="2.40484">
        <ele>133</ele>
        <time>2024-04-14T08:38:46.000Z</time>
      </trkpt>
      <trkpt lat="48.41087" lon="2.40499">
        <ele>133</ele>
        <time>2024-04-14T08:38:49.000Z</time>
      </trkpt>
      <trkpt lat="48.41089" lon="2.40501">
        <ele>132.60000610352</ele>
        <time>2024-04-14T08:38:50.000Z</time>
      </trkpt>
      <trkpt lat="48.41093" lon="2.40506">
        <ele>131.80000305176</ele>
        <time>2024-04-14T08:38:52.000Z</time>
      </trkpt>
      <trkpt lat="48.41102" lon="2.40512">
        <ele>130.39999389648</ele>
        <time>2024-04-14T08:38:56.000Z</time>
      </trkpt>
      <trkpt lat="48.41104" lon="2.40514">
        <ele>130</ele>
        <time>2024-04-14T08:38:57.000Z</time>
      </trkpt>
      <trkpt lat="48.41111" lon="2.4052">
        <ele>129.19999694824</ele>
        <time>2024-04-14T08:39:00.000Z</time>
      </trkpt>
      <trkpt lat="48.41117" lon="2.40528">
        <ele>128.60000610352</ele>
        <time>2024-04-14T08:39:03.000Z</time>
      </trkpt>
      <trkpt lat="48.41119" lon="2.40535">
        <ele>128</ele>
        <time>2024-04-14T08:39:05.000Z</time>
      </trkpt>
      <trkpt lat="48.41124" lon="2.40543">
        <ele>127.59999847412</ele>
        <time>2024-04-14T08:39:09.000Z</time>
      </trkpt>
      <trkpt lat="48.41127" lon="2.40544">
        <ele>127</ele>
        <time>2024-04-14T08:39:14.000Z</time>
      </trkpt>
      <trkpt lat="48.41127" lon="2.40544">
        <ele>127</ele>
        <time>2024-04-14T08:39:15.000Z</time>
      </trkpt>
      <trkpt lat="48.41128" lon="2.40537">
        <ele>126.59999847412</ele>
        <time>2024-04-14T08:39:20.000Z</time>
      </trkpt>
      <trkpt lat="48.41133" lon="2.40529">
        <ele>126</ele>
        <time>2024-04-14T08:39:23.000Z</time>
      </trkpt>
      <trkpt lat="48.41139" lon="2.40522">
        <ele>124.19999694824</ele>
        <time>2024-04-14T08:39:25.000Z</time>
      </trkpt>
      <trkpt lat="48.41144" lon="2.40514">
        <ele>122.59999847412</ele>
        <time>2024-04-14T08:39:27.000Z</time>
      </trkpt>
      <trkpt lat="48.41149" lon="2.40507">
        <ele>121</ele>
        <time>2024-04-14T08:39:29.000Z</time>
      </trkpt>
      <trkpt lat="48.41151" lon="2.40502">
        <ele>120.19999694824</ele>
        <time>2024-04-14T08:39:30.000Z</time>
      </trkpt>
      <trkpt lat="48.41153" lon="2.40497">
        <ele>119.19999694824</ele>
        <time>2024-04-14T08:39:31.000Z</time>
      </trkpt>
      <trkpt lat="48.41156" lon="2.4049">
        <ele>118</ele>
        <time>2024-04-14T08:39:32.000Z</time>
      </trkpt>
      <trkpt lat="48.41158" lon="2.40484">
        <ele>116.80000305176</ele>
        <time>2024-04-14T08:39:33.000Z</time>
      </trkpt>
      <trkpt lat="48.41161" lon="2.40472">
        <ele>114.80000305176</ele>
        <time>2024-04-14T08:39:35.000Z</time>
      </trkpt>
      <trkpt lat="48.41163" lon="2.40465">
        <ele>112.59999847412</ele>
        <time>2024-04-14T08:39:37.000Z</time>
      </trkpt>
      <trkpt lat="48.41163" lon="2.40465">
        <ele>112</ele>
        <time>2024-04-14T08:39:38.000Z</time>
      </trkpt>
      <trkpt lat="48.41164" lon="2.40467">
        <ele>111.59999847412</ele>
        <time>2024-04-14T08:39:39.000Z</time>
      </trkpt>
      <trkpt lat="48.41166" lon="2.4047">
        <ele>110</ele>
        <time>2024-04-14T08:39:41.000Z</time>
      </trkpt>
      <trkpt lat="48.41171" lon="2.4047">
        <ele>108.19999694824</ele>
        <time>2024-04-14T08:39:43.000Z</time>
      </trkpt>
      <trkpt lat="48.41173" lon="2.40468">
        <ele>107</ele>
        <time>2024-04-14T08:39:44.000Z</time>
      </trkpt>
      <trkpt lat="48.41177" lon="2.40463">
        <ele>105.19999694824</ele>
        <time>2024-04-14T08:39:46.000Z</time>
      </trkpt>
      <trkpt lat="48.41181" lon="2.4046">
        <ele>103.59999847412</ele>
        <time>2024-04-14T08:39:48.000Z</time>
      </trkpt>
      <trkpt lat="48.41183" lon="2.40461">
        <ele>102.59999847412</ele>
        <time>2024-04-14T08:39:49.000Z</time>
      </trkpt>
      <trkpt lat="48.41186" lon="2.40461">
        <ele>102</ele>
        <time>2024-04-14T08:39:50.000Z</time>
      </trkpt>
      <trkpt lat="48.41192" lon="2.4046">
        <ele>100.59999847412</ele>
        <time>2024-04-14T08:39:52.000Z</time>
      </trkpt>
      <trkpt lat="48.41197" lon="2.40456">
        <ele>99</ele>
        <time>2024-04-14T08:39:54.000Z</time>
      </trkpt>
      <trkpt lat="48.41201" lon="2.40455">
        <ele>97.400001525879</ele>
        <time>2024-04-14T08:39:56.000Z</time>
      </trkpt>
      <trkpt lat="48.41207" lon="2.40453">
        <ele>95.599998474121</ele>
        <time>2024-04-14T08:39:58.000Z</time>
      </trkpt>
      <trkpt lat="48.41209" lon="2.40451">
        <ele>94.599998474121</ele>
        <time>2024-04-14T08:39:59.000Z</time>
      </trkpt>
      <trkpt lat="48.41215" lon="2.40451">
        <ele>92.800003051758</ele>
        <time>2024-04-14T08:40:01.000Z</time>
      </trkpt>
      <trkpt lat="48.41222" lon="2.40454">
        <ele>91</ele>
        <time>2024-04-14T08:40:03.000Z</time>
      </trkpt>
      <trkpt lat="48.41223" lon="2.40458">
        <ele>90.599998474121</ele>
        <time>2024-04-14T08:40:04.000Z</time>
      </trkpt>
      <trkpt lat="48.41225" lon="2.40467">
        <ele>91.400001525879</ele>
        <time>2024-04-14T08:40:06.000Z</time>
      </trkpt>
      <trkpt lat="48.41227" lon="2.40477">
        <ele>91.599998474121</ele>
        <time>2024-04-14T08:40:09.000Z</time>
      </trkpt>
      <trkpt lat="48.41229" lon="2.40483">
        <ele>91.800003051758</ele>
        <time>2024-04-14T08:40:11.000Z</time>
      </trkpt>
      <trkpt lat="48.41229" lon="2.4049">
        <ele>92</ele>
        <time>2024-04-14T08:40:14.000Z</time>
      </trkpt>
      <trkpt lat="48.4123" lon="2.40494">
        <ele>92.199996948242</ele>
        <time>2024-04-14T08:40:17.000Z</time>
      </trkpt>
      <trkpt lat="48.41234" lon="2.40508">
        <ele>92.800003051758</ele>
        <time>2024-04-14T08:40:23.000Z</time>
      </trkpt>
      <trkpt lat="48.41244" lon="2.40512">
        <ele>92.400001525879</ele>
        <time>2024-04-14T08:40:28.000Z</time>
      </trkpt>
      <trkpt lat="48.41265" lon="2.40503">
        <ele>90.800003051758</ele>
        <time>2024-04-14T08:40:33.000Z</time>
      </trkpt>
      <trkpt lat="48.41276" lon="2.40502">
        <ele>89.400001525879</ele>
        <time>2024-04-14T08:40:35.000Z</time>
      </trkpt>
      <trkpt lat="48.41281" lon="2.40505">
        <ele>88.800003051758</ele>
        <time>2024-04-14T08:40:36.000Z</time>
      </trkpt>
      <trkpt lat="48.4129" lon="2.40525">
        <ele>88.599998474121</ele>
        <time>2024-04-14T08:40:39.000Z</time>
      </trkpt>
      <trkpt lat="48.41294" lon="2.40547">
        <ele>89.199996948242</ele>
        <time>2024-04-14T08:40:42.000Z</time>
      </trkpt>
      <trkpt lat="48.41296" lon="2.40555">
        <ele>89.400001525879</ele>
        <time>2024-04-14T08:40:43.000Z</time>
      </trkpt>
      <trkpt lat="48.41298" lon="2.40563">
        <ele>89.599998474121</ele>
        <time>2024-04-14T08:40:44.000Z</time>
      </trkpt>
      <trkpt lat="48.4131" lon="2.40587">
        <ele>89.400001525879</ele>
        <time>2024-04-14T08:40:47.000Z</time>
      </trkpt>
      <trkpt lat="48.41314" lon="2.40597">
        <ele>89</ele>
        <time>2024-04-14T08:40:48.000Z</time>
      </trkpt>
      <trkpt lat="48.41341" lon="2.40666">
        <ele>89</ele>
        <time>2024-04-14T08:40:55.000Z</time>
      </trkpt>
      <trkpt lat="48.41356" lon="2.4071">
        <ele>90</ele>
        <time>2024-04-14T08:41:00.000Z</time>
      </trkpt>
      <trkpt lat="48.41363" lon="2.40724">
        <ele>91</ele>
        <time>2024-04-14T08:41:02.000Z</time>
      </trkpt>
      <trkpt lat="48.41374" lon="2.40746">
        <ele>91</ele>
        <time>2024-04-14T08:41:05.000Z</time>
      </trkpt>
      <trkpt lat="48.41404" lon="2.40803">
        <ele>92.199996948242</ele>
        <time>2024-04-14T08:41:13.000Z</time>
      </trkpt>
      <trkpt lat="48.41417" lon="2.40818">
        <ele>91.800003051758</ele>
        <time>2024-04-14T08:41:16.000Z</time>
      </trkpt>
      <trkpt lat="48.41421" lon="2.40826">
        <ele>91.800003051758</ele>
        <time>2024-04-14T08:41:17.000Z</time>
      </trkpt>
      <trkpt lat="48.41458" lon="2.40886">
        <ele>91.800003051758</ele>
        <time>2024-04-14T08:41:25.000Z</time>
      </trkpt>
      <trkpt lat="48.41485" lon="2.40939">
        <ele>91.400001525879</ele>
        <time>2024-04-14T08:41:32.000Z</time>
      </trkpt>
      <trkpt lat="48.41513" lon="2.40986">
        <ele>92.599998474121</ele>
        <time>2024-04-14T08:41:39.000Z</time>
      </trkpt>
      <trkpt lat="48.41521" lon="2.41">
        <ele>93.199996948242</ele>
        <time>2024-04-14T08:41:41.000Z</time>
      </trkpt>
      <trkpt lat="48.41524" lon="2.41008">
        <ele>93.400001525879</ele>
        <time>2024-04-14T08:41:42.000Z</time>
      </trkpt>
      <trkpt lat="48.41528" lon="2.41025">
        <ele>93.800003051758</ele>
        <time>2024-04-14T08:41:44.000Z</time>
      </trkpt>
      <trkpt lat="48.41533" lon="2.41047">
        <ele>94.599998474121</ele>
        <time>2024-04-14T08:41:47.000Z</time>
      </trkpt>
      <trkpt lat="48.41536" lon="2.41066">
        <ele>95.400001525879</ele>
        <time>2024-04-14T08:41:50.000Z</time>
      </trkpt>
      <trkpt lat="48.41538" lon="2.41071">
        <ele>95.800003051758</ele>
        <time>2024-04-14T08:41:51.000Z</time>
      </trkpt>
      <trkpt lat="48.41547" lon="2.4109">
        <ele>97</ele>
        <time>2024-04-14T08:41:55.000Z</time>
      </trkpt>
      <trkpt lat="48.41552" lon="2.41105">
        <ele>98.199996948242</ele>
        <time>2024-04-14T08:41:59.000Z</time>
      </trkpt>
      <trkpt lat="48.41553" lon="2.41116">
        <ele>99.199996948242</ele>
        <time>2024-04-14T08:42:03.000Z</time>
      </trkpt>
      <trkpt lat="48.41555" lon="2.41125">
        <ele>100.19999694824</ele>
        <time>2024-04-14T08:42:06.000Z</time>
      </trkpt>
      <trkpt lat="48.41555" lon="2.41128">
        <ele>100.59999847412</ele>
        <time>2024-04-14T08:42:07.000Z</time>
      </trkpt>
      <trkpt lat="48.4156" lon="2.41137">
        <ele>101.59999847412</ele>
        <time>2024-04-14T08:42:10.000Z</time>
      </trkpt>
      <trkpt lat="48.41563" lon="2.41142">
        <ele>102</ele>
        <time>2024-04-14T08:42:12.000Z</time>
      </trkpt>
      <trkpt lat="48.41565" lon="2.41149">
        <ele>102.80000305176</ele>
        <time>2024-04-14T08:42:14.000Z</time>
      </trkpt>
      <trkpt lat="48.41567" lon="2.41164">
        <ele>103.40000152588</ele>
        <time>2024-04-14T08:42:18.000Z</time>
      </trkpt>
      <trkpt lat="48.41567" lon="2.41171">
        <ele>103.80000305176</ele>
        <time>2024-04-14T08:42:20.000Z</time>
      </trkpt>
      <trkpt lat="48.41567" lon="2.41187">
        <ele>104.80000305176</ele>
        <time>2024-04-14T08:42:25.000Z</time>
      </trkpt>
      <trkpt lat="48.41567" lon="2.4119">
        <ele>104.80000305176</ele>
        <time>2024-04-14T08:42:26.000Z</time>
      </trkpt>
      <trkpt lat="48.41567" lon="2.41203">
        <ele>106</ele>
        <time>2024-04-14T08:42:30.000Z</time>
      </trkpt>
      <trkpt lat="48.41567" lon="2.4121">
        <ele>106.59999847412</ele>
        <time>2024-04-14T08:42:32.000Z</time>
      </trkpt>
      <trkpt lat="48.41567" lon="2.4122">
        <ele>107.19999694824</ele>
        <time>2024-04-14T08:42:35.000Z</time>
      </trkpt>
      <trkpt lat="48.41567" lon="2.41231">
        <ele>107.80000305176</ele>
        <time>2024-04-14T08:42:38.000Z</time>
      </trkpt>
      <trkpt lat="48.41569" lon="2.41242">
        <ele>108.19999694824</ele>
        <time>2024-04-14T08:42:41.000Z</time>
      </trkpt>
      <trkpt lat="48.4157" lon="2.41254">
        <ele>109.59999847412</ele>
        <time>2024-04-14T08:42:45.000Z</time>
      </trkpt>
      <trkpt lat="48.41571" lon="2.41257">
        <ele>109.80000305176</ele>
        <time>2024-04-14T08:42:46.000Z</time>
      </trkpt>
      <trkpt lat="48.41571" lon="2.41267">
        <ele>110.59999847412</ele>
        <time>2024-04-14T08:42:49.000Z</time>
      </trkpt>
      <trkpt lat="48.4157" lon="2.41278">
        <ele>112</ele>
        <time>2024-04-14T08:42:52.000Z</time>
      </trkpt>
      <trkpt lat="48.41569" lon="2.4129">
        <ele>113</ele>
        <time>2024-04-14T08:42:56.000Z</time>
      </trkpt>
      <trkpt lat="48.4157" lon="2.41296">
        <ele>113.59999847412</ele>
        <time>2024-04-14T08:42:58.000Z</time>
      </trkpt>
      <trkpt lat="48.41569" lon="2.41301">
        <ele>114</ele>
        <time>2024-04-14T08:43:00.000Z</time>
      </trkpt>
      <trkpt lat="48.41569" lon="2.41318">
        <ele>115.19999694824</ele>
        <time>2024-04-14T08:43:05.000Z</time>
      </trkpt>
      <trkpt lat="48.41569" lon="2.41321">
        <ele>115.59999847412</ele>
        <time>2024-04-14T08:43:06.000Z</time>
      </trkpt>
      <trkpt lat="48.41569" lon="2.41328">
        <ele>116.40000152588</ele>
        <time>2024-04-14T08:43:09.000Z</time>
      </trkpt>
      <trkpt lat="48.4157" lon="2.41337">
        <ele>117</ele>
        <time>2024-04-14T08:43:12.000Z</time>
      </trkpt>
      <trkpt lat="48.4157" lon="2.41344">
        <ele>117.59999847412</ele>
        <time>2024-04-14T08:43:14.000Z</time>
      </trkpt>
      <trkpt lat="48.41573" lon="2.41355">
        <ele>118.59999847412</ele>
        <time>2024-04-14T08:43:18.000Z</time>
      </trkpt>
      <trkpt lat="48.41573" lon="2.41359">
        <ele>118.80000305176</ele>
        <time>2024-04-14T08:43:19.000Z</time>
      </trkpt>
      <trkpt lat="48.41574" lon="2.41368">
        <ele>119.80000305176</ele>
        <time>2024-04-14T08:43:22.000Z</time>
      </trkpt>
      <trkpt lat="48.41574" lon="2.4138">
        <ele>120.80000305176</ele>
        <time>2024-04-14T08:43:26.000Z</time>
      </trkpt>
      <trkpt lat="48.41574" lon="2.41383">
        <ele>121</ele>
        <time>2024-04-14T08:43:27.000Z</time>
      </trkpt>
      <trkpt lat="48.41574" lon="2.41396">
        <ele>122</ele>
        <time>2024-04-14T08:43:31.000Z</time>
      </trkpt>
      <trkpt lat="48.41575" lon="2.41403">
        <ele>122.59999847412</ele>
        <time>2024-04-14T08:43:34.000Z</time>
      </trkpt>
      <trkpt lat="48.41578" lon="2.41405">
        <ele>123.19999694824</ele>
        <time>2024-04-14T08:43:37.000Z</time>
      </trkpt>
      <trkpt lat="48.41581" lon="2.41406">
        <ele>123.40000152588</ele>
        <time>2024-04-14T08:43:39.000Z</time>
      </trkpt>
      <trkpt lat="48.41584" lon="2.41403">
        <ele>123.40000152588</ele>
        <time>2024-04-14T08:43:41.000Z</time>
      </trkpt>
      <trkpt lat="48.41589" lon="2.41394">
        <ele>123.19999694824</ele>
        <time>2024-04-14T08:43:44.000Z</time>
      </trkpt>
      <trkpt lat="48.4159" lon="2.41386">
        <ele>122.40000152588</ele>
        <time>2024-04-14T08:43:49.000Z</time>
      </trkpt>
      <trkpt lat="48.41591" lon="2.41377">
        <ele>122.80000305176</ele>
        <time>2024-04-14T08:43:57.000Z</time>
      </trkpt>
      <trkpt lat="48.41589" lon="2.41373">
        <ele>122.40000152588</ele>
        <time>2024-04-14T08:43:59.000Z</time>
      </trkpt>
      <trkpt lat="48.41588" lon="2.41368">
        <ele>122</ele>
        <time>2024-04-14T08:44:01.000Z</time>
      </trkpt>
      <trkpt lat="48.41588" lon="2.41363">
        <ele>122</ele>
        <time>2024-04-14T08:44:02.000Z</time>
      </trkpt>
      <trkpt lat="48.41586" lon="2.41353">
        <ele>121.40000152588</ele>
        <time>2024-04-14T08:44:05.000Z</time>
      </trkpt>
      <trkpt lat="48.41584" lon="2.41349">
        <ele>120.80000305176</ele>
        <time>2024-04-14T08:44:06.000Z</time>
      </trkpt>
      <trkpt lat="48.41583" lon="2.4134">
        <ele>120</ele>
        <time>2024-04-14T08:44:08.000Z</time>
      </trkpt>
      <trkpt lat="48.41585" lon="2.41336">
        <ele>120.59999847412</ele>
        <time>2024-04-14T08:44:09.000Z</time>
      </trkpt>
      <trkpt lat="48.41586" lon="2.41319">
        <ele>120.19999694824</ele>
        <time>2024-04-14T08:44:13.000Z</time>
      </trkpt>
      <trkpt lat="48.41585" lon="2.41314">
        <ele>119.59999847412</ele>
        <time>2024-04-14T08:44:14.000Z</time>
      </trkpt>
      <trkpt lat="48.41587" lon="2.41302">
        <ele>118.80000305176</ele>
        <time>2024-04-14T08:44:17.000Z</time>
      </trkpt>
      <trkpt lat="48.41591" lon="2.4129">
        <ele>119.80000305176</ele>
        <time>2024-04-14T08:44:22.000Z</time>
      </trkpt>
      <trkpt lat="48.41591" lon="2.41287">
        <ele>119.80000305176</ele>
        <time>2024-04-14T08:44:23.000Z</time>
      </trkpt>
      <trkpt lat="48.41592" lon="2.41269">
        <ele>118.80000305176</ele>
        <time>2024-04-14T08:44:27.000Z</time>
      </trkpt>
      <trkpt lat="48.41593" lon="2.41268">
        <ele>117.80000305176</ele>
        <time>2024-04-14T08:44:28.000Z</time>
      </trkpt>
      <trkpt lat="48.4159" lon="2.41267">
        <ele>117.19999694824</ele>
        <time>2024-04-14T08:44:29.000Z</time>
      </trkpt>
      <trkpt lat="48.41588" lon="2.41266">
        <ele>116</ele>
        <time>2024-04-14T08:44:30.000Z</time>
      </trkpt>
      <trkpt lat="48.41587" lon="2.41257">
        <ele>115</ele>
        <time>2024-04-14T08:44:32.000Z</time>
      </trkpt>
      <trkpt lat="48.41586" lon="2.41253">
        <ele>114.80000305176</ele>
        <time>2024-04-14T08:44:33.000Z</time>
      </trkpt>
      <trkpt lat="48.41583" lon="2.41244">
        <ele>114</ele>
        <time>2024-04-14T08:44:35.000Z</time>
      </trkpt>
      <trkpt lat="48.41582" lon="2.41238">
        <ele>113.40000152588</ele>
        <time>2024-04-14T08:44:36.000Z</time>
      </trkpt>
      <trkpt lat="48.41581" lon="2.41231">
        <ele>112.80000305176</ele>
        <time>2024-04-14T08:44:37.000Z</time>
      </trkpt>
      <trkpt lat="48.41582" lon="2.4122">
        <ele>111.40000152588</ele>
        <time>2024-04-14T08:44:39.000Z</time>
      </trkpt>
      <trkpt lat="48.41581" lon="2.41206">
        <ele>111</ele>
        <time>2024-04-14T08:44:41.000Z</time>
      </trkpt>
      <trkpt lat="48.4158" lon="2.41191">
        <ele>110.19999694824</ele>
        <time>2024-04-14T08:44:43.000Z</time>
      </trkpt>
      <trkpt lat="48.4158" lon="2.41184">
        <ele>109.80000305176</ele>
        <time>2024-04-14T08:44:44.000Z</time>
      </trkpt>
      <trkpt lat="48.4158" lon="2.4117">
        <ele>109.19999694824</ele>
        <time>2024-04-14T08:44:46.000Z</time>
      </trkpt>
      <trkpt lat="48.41579" lon="2.41149">
        <ele>108.40000152588</ele>
        <time>2024-04-14T08:44:49.000Z</time>
      </trkpt>
      <trkpt lat="48.41579" lon="2.41135">
        <ele>108</ele>
        <time>2024-04-14T08:44:51.000Z</time>
      </trkpt>
      <trkpt lat="48.41581" lon="2.41128">
        <ele>108</ele>
        <time>2024-04-14T08:44:52.000Z</time>
      </trkpt>
      <trkpt lat="48.41582" lon="2.41108">
        <ele>107</ele>
        <time>2024-04-14T08:44:56.000Z</time>
      </trkpt>
      <trkpt lat="48.4158" lon="2.41105">
        <ele>106.19999694824</ele>
        <time>2024-04-14T08:44:57.000Z</time>
      </trkpt>
      <trkpt lat="48.41575" lon="2.411">
        <ele>104.59999847412</ele>
        <time>2024-04-14T08:44:59.000Z</time>
      </trkpt>
      <trkpt lat="48.41578" lon="2.41095">
        <ele>103.80000305176</ele>
        <time>2024-04-14T08:45:01.000Z</time>
      </trkpt>
      <trkpt lat="48.41589" lon="2.41083">
        <ele>104.40000152588</ele>
        <time>2024-04-14T08:45:05.000Z</time>
      </trkpt>
      <trkpt lat="48.41595" lon="2.41075">
        <ele>105.80000305176</ele>
        <time>2024-04-14T08:45:08.000Z</time>
      </trkpt>
      <trkpt lat="48.41595" lon="2.41072">
        <ele>105.59999847412</ele>
        <time>2024-04-14T08:45:09.000Z</time>
      </trkpt>
      <trkpt lat="48.41591" lon="2.41066">
        <ele>104.59999847412</ele>
        <time>2024-04-14T08:45:11.000Z</time>
      </trkpt>
      <trkpt lat="48.41593" lon="2.41059">
        <ele>103.19999694824</ele>
        <time>2024-04-14T08:45:13.000Z</time>
      </trkpt>
      <trkpt lat="48.41601" lon="2.41047">
        <ele>104.80000305176</ele>
        <time>2024-04-14T08:45:16.000Z</time>
      </trkpt>
      <trkpt lat="48.41603" lon="2.41039">
        <ele>106</ele>
        <time>2024-04-14T08:45:18.000Z</time>
      </trkpt>
      <trkpt lat="48.41605" lon="2.41036">
        <ele>106</ele>
        <time>2024-04-14T08:45:19.000Z</time>
      </trkpt>
      <trkpt lat="48.41612" lon="2.41028">
        <ele>107.19999694824</ele>
        <time>2024-04-14T08:45:22.000Z</time>
      </trkpt>
      <trkpt lat="48.41621" lon="2.41019">
        <ele>107.40000152588</ele>
        <time>2024-04-14T08:45:25.000Z</time>
      </trkpt>
      <trkpt lat="48.41629" lon="2.41002">
        <ele>107.19999694824</ele>
        <time>2024-04-14T08:45:29.000Z</time>
      </trkpt>
      <trkpt lat="48.41642" lon="2.40987">
        <ele>106.40000152588</ele>
        <time>2024-04-14T08:45:33.000Z</time>
      </trkpt>
      <trkpt lat="48.41657" lon="2.40969">
        <ele>107.80000305176</ele>
        <time>2024-04-14T08:45:39.000Z</time>
      </trkpt>
      <trkpt lat="48.41663" lon="2.40961">
        <ele>107.19999694824</ele>
        <time>2024-04-14T08:45:42.000Z</time>
      </trkpt>
      <trkpt lat="48.41663" lon="2.40958">
        <ele>106.80000305176</ele>
        <time>2024-04-14T08:45:43.000Z</time>
      </trkpt>
      <trkpt lat="48.41659" lon="2.40953">
        <ele>106</ele>
        <time>2024-04-14T08:45:45.000Z</time>
      </trkpt>
      <trkpt lat="48.41656" lon="2.4095">
        <ele>105.59999847412</ele>
        <time>2024-04-14T08:45:46.000Z</time>
      </trkpt>
      <trkpt lat="48.41654" lon="2.40946">
        <ele>105</ele>
        <time>2024-04-14T08:45:47.000Z</time>
      </trkpt>
      <trkpt lat="48.41652" lon="2.40936">
        <ele>103.40000152588</ele>
        <time>2024-04-14T08:45:49.000Z</time>
      </trkpt>
      <trkpt lat="48.41652" lon="2.4093">
        <ele>103</ele>
        <time>2024-04-14T08:45:50.000Z</time>
      </trkpt>
      <trkpt lat="48.41654" lon="2.40916">
        <ele>101.59999847412</ele>
        <time>2024-04-14T08:45:53.000Z</time>
      </trkpt>
      <trkpt lat="48.41655" lon="2.40912">
        <ele>101</ele>
        <time>2024-04-14T08:45:54.000Z</time>
      </trkpt>
      <trkpt lat="48.41655" lon="2.40906">
        <ele>100.40000152588</ele>
        <time>2024-04-14T08:45:55.000Z</time>
      </trkpt>
      <trkpt lat="48.41655" lon="2.40893">
        <ele>99</ele>
        <time>2024-04-14T08:45:57.000Z</time>
      </trkpt>
      <trkpt lat="48.41655" lon="2.40886">
        <ele>98.400001525879</ele>
        <time>2024-04-14T08:45:58.000Z</time>
      </trkpt>
      <trkpt lat="48.41656" lon="2.40873">
        <ele>98</ele>
        <time>2024-04-14T08:46:00.000Z</time>
      </trkpt>
      <trkpt lat="48.41658" lon="2.40857">
        <ele>96.400001525879</ele>
        <time>2024-04-14T08:46:02.000Z</time>
      </trkpt>
      <trkpt lat="48.4166" lon="2.40841">
        <ele>94.599998474121</ele>
        <time>2024-04-14T08:46:04.000Z</time>
      </trkpt>
      <trkpt lat="48.41663" lon="2.40834">
        <ele>93.400001525879</ele>
        <time>2024-04-14T08:46:05.000Z</time>
      </trkpt>
      <trkpt lat="48.41667" lon="2.40819">
        <ele>92</ele>
        <time>2024-04-14T08:46:07.000Z</time>
      </trkpt>
      <trkpt lat="48.4167" lon="2.40812">
        <ele>91.199996948242</ele>
        <time>2024-04-14T08:46:08.000Z</time>
      </trkpt>
      <trkpt lat="48.41673" lon="2.40806">
        <ele>90.400001525879</ele>
        <time>2024-04-14T08:46:09.000Z</time>
      </trkpt>
      <trkpt lat="48.4168" lon="2.40804">
        <ele>89.199996948242</ele>
        <time>2024-04-14T08:46:11.000Z</time>
      </trkpt>
      <trkpt lat="48.41683" lon="2.40806">
        <ele>89.199996948242</ele>
        <time>2024-04-14T08:46:12.000Z</time>
      </trkpt>
      <trkpt lat="48.41695" lon="2.40822">
        <ele>90</ele>
        <time>2024-04-14T08:46:16.000Z</time>
      </trkpt>
      <trkpt lat="48.41697" lon="2.40827">
        <ele>90.400001525879</ele>
        <time>2024-04-14T08:46:17.000Z</time>
      </trkpt>
      <trkpt lat="48.41698" lon="2.40835">
        <ele>92</ele>
        <time>2024-04-14T08:46:19.000Z</time>
      </trkpt>
      <trkpt lat="48.41699" lon="2.40842">
        <ele>93.199996948242</ele>
        <time>2024-04-14T08:46:21.000Z</time>
      </trkpt>
      <trkpt lat="48.41701" lon="2.4085">
        <ele>94.400001525879</ele>
        <time>2024-04-14T08:46:23.000Z</time>
      </trkpt>
      <trkpt lat="48.41702" lon="2.40857">
        <ele>95.400001525879</ele>
        <time>2024-04-14T08:46:25.000Z</time>
      </trkpt>
      <trkpt lat="48.41703" lon="2.40862">
        <ele>96.400001525879</ele>
        <time>2024-04-14T08:46:27.000Z</time>
      </trkpt>
      <trkpt lat="48.41704" lon="2.40864">
        <ele>96.800003051758</ele>
        <time>2024-04-14T08:46:28.000Z</time>
      </trkpt>
      <trkpt lat="48.41706" lon="2.40868">
        <ele>97.199996948242</ele>
        <time>2024-04-14T08:46:30.000Z</time>
      </trkpt>
      <trkpt lat="48.41708" lon="2.40873">
        <ele>97.599998474121</ele>
        <time>2024-04-14T08:46:33.000Z</time>
      </trkpt>
      <trkpt lat="48.41708" lon="2.40872">
        <ele>97.800003051758</ele>
        <time>2024-04-14T08:46:34.000Z</time>
      </trkpt>
      <trkpt lat="48.41714" lon="2.40883">
        <ele>98.800003051758</ele>
        <time>2024-04-14T08:46:39.000Z</time>
      </trkpt>
      <trkpt lat="48.41718" lon="2.40887">
        <ele>100</ele>
        <time>2024-04-14T08:46:42.000Z</time>
      </trkpt>
      <trkpt lat="48.41723" lon="2.40894">
        <ele>101.19999694824</ele>
        <time>2024-04-14T08:46:46.000Z</time>
      </trkpt>
      <trkpt lat="48.41726" lon="2.40896">
        <ele>101.80000305176</ele>
        <time>2024-04-14T08:46:48.000Z</time>
      </trkpt>
      <trkpt lat="48.41728" lon="2.40898">
        <ele>102.19999694824</ele>
        <time>2024-04-14T08:46:50.000Z</time>
      </trkpt>
      <trkpt lat="48.41732" lon="2.40903">
        <ele>103.40000152588</ele>
        <time>2024-04-14T08:46:53.000Z</time>
      </trkpt>
      <trkpt lat="48.41734" lon="2.40906">
        <ele>104</ele>
        <time>2024-04-14T08:46:55.000Z</time>
      </trkpt>
      <trkpt lat="48.41736" lon="2.40908">
        <ele>104.40000152588</ele>
        <time>2024-04-14T08:46:57.000Z</time>
      </trkpt>
      <trkpt lat="48.4174" lon="2.40911">
        <ele>105.59999847412</ele>
        <time>2024-04-14T08:47:01.000Z</time>
      </trkpt>
      <trkpt lat="48.4174" lon="2.40911">
        <ele>105.80000305176</ele>
        <time>2024-04-14T08:47:02.000Z</time>
      </trkpt>
      <trkpt lat="48.41745" lon="2.40913">
        <ele>106.80000305176</ele>
        <time>2024-04-14T08:47:05.000Z</time>
      </trkpt>
      <trkpt lat="48.4175" lon="2.40914">
        <ele>107.80000305176</ele>
        <time>2024-04-14T08:47:09.000Z</time>
      </trkpt>
      <trkpt lat="48.41761" lon="2.40919">
        <ele>108.80000305176</ele>
        <time>2024-04-14T08:47:16.000Z</time>
      </trkpt>
      <trkpt lat="48.41765" lon="2.40919">
        <ele>108.19999694824</ele>
        <time>2024-04-14T08:47:17.000Z</time>
      </trkpt>
      <trkpt lat="48.41771" lon="2.40919">
        <ele>106.59999847412</ele>
        <time>2024-04-14T08:47:19.000Z</time>
      </trkpt>
      <trkpt lat="48.41774" lon="2.40919">
        <ele>105.80000305176</ele>
        <time>2024-04-14T08:47:20.000Z</time>
      </trkpt>
      <trkpt lat="48.4178" lon="2.40925">
        <ele>105.19999694824</ele>
        <time>2024-04-14T08:47:21.000Z</time>
      </trkpt>
      <trkpt lat="48.41786" lon="2.40937">
        <ele>105.40000152588</ele>
        <time>2024-04-14T08:47:23.000Z</time>
      </trkpt>
      <trkpt lat="48.41791" lon="2.40945">
        <ele>105.59999847412</ele>
        <time>2024-04-14T08:47:25.000Z</time>
      </trkpt>
      <trkpt lat="48.41795" lon="2.40958">
        <ele>105.59999847412</ele>
        <time>2024-04-14T08:47:28.000Z</time>
      </trkpt>
      <trkpt lat="48.41801" lon="2.40973">
        <ele>106.40000152588</ele>
        <time>2024-04-14T08:47:32.000Z</time>
      </trkpt>
      <trkpt lat="48.41804" lon="2.40981">
        <ele>106.59999847412</ele>
        <time>2024-04-14T08:47:34.000Z</time>
      </trkpt>
      <trkpt lat="48.41817" lon="2.40996">
        <ele>106.19999694824</ele>
        <time>2024-04-14T08:47:39.000Z</time>
      </trkpt>
      <trkpt lat="48.41825" lon="2.41006">
        <ele>106.59999847412</ele>
        <time>2024-04-14T08:47:43.000Z</time>
      </trkpt>
      <trkpt lat="48.41829" lon="2.41004">
        <ele>106.59999847412</ele>
        <time>2024-04-14T08:47:45.000Z</time>
      </trkpt>
      <trkpt lat="48.41833" lon="2.40998">
        <ele>106.59999847412</ele>
        <time>2024-04-14T08:47:47.000Z</time>
      </trkpt>
      <trkpt lat="48.4185" lon="2.40991">
        <ele>107</ele>
        <time>2024-04-14T08:47:53.000Z</time>
      </trkpt>
      <trkpt lat="48.4186" lon="2.40991">
        <ele>107.40000152588</ele>
        <time>2024-04-14T08:47:57.000Z</time>
      </trkpt>
      <trkpt lat="48.41861" lon="2.40992">
        <ele>107.59999847412</ele>
        <time>2024-04-14T08:47:58.000Z</time>
      </trkpt>
      <trkpt lat="48.41866" lon="2.40998">
        <ele>108</ele>
        <time>2024-04-14T08:48:03.000Z</time>
      </trkpt>
      <trkpt lat="48.41868" lon="2.40997">
        <ele>108.19999694824</ele>
        <time>2024-04-14T08:48:04.000Z</time>
      </trkpt>
      <trkpt lat="48.4187" lon="2.40995">
        <ele>108.80000305176</ele>
        <time>2024-04-14T08:48:05.000Z</time>
      </trkpt>
      <trkpt lat="48.41876" lon="2.40991">
        <ele>109.19999694824</ele>
        <time>2024-04-14T08:48:07.000Z</time>
      </trkpt>
      <trkpt lat="48.41884" lon="2.40988">
        <ele>110</ele>
        <time>2024-04-14T08:48:09.000Z</time>
      </trkpt>
      <trkpt lat="48.41887" lon="2.40987">
        <ele>110</ele>
        <time>2024-04-14T08:48:10.000Z</time>
      </trkpt>
      <trkpt lat="48.41897" lon="2.40985">
        <ele>111.40000152588</ele>
        <time>2024-04-14T08:48:13.000Z</time>
      </trkpt>
      <trkpt lat="48.41908" lon="2.4098">
        <ele>112.80000305176</ele>
        <time>2024-04-14T08:48:17.000Z</time>
      </trkpt>
      <trkpt lat="48.41918" lon="2.40974">
        <ele>114</ele>
        <time>2024-04-14T08:48:21.000Z</time>
      </trkpt>
      <trkpt lat="48.41936" lon="2.40966">
        <ele>114.40000152588</ele>
        <time>2024-04-14T08:48:28.000Z</time>
      </trkpt>
      <trkpt lat="48.41956" lon="2.40948">
        <ele>114.80000305176</ele>
        <time>2024-04-14T08:48:34.000Z</time>
      </trkpt>
      <trkpt lat="48.41959" lon="2.40945">
        <ele>115.19999694824</ele>
        <time>2024-04-14T08:48:35.000Z</time>
      </trkpt>
      <trkpt lat="48.41974" lon="2.40932">
        <ele>115.80000305176</ele>
        <time>2024-04-14T08:48:41.000Z</time>
      </trkpt>
      <trkpt lat="48.41988" lon="2.40919">
        <ele>115.59999847412</ele>
        <time>2024-04-14T08:48:47.000Z</time>
      </trkpt>
      <trkpt lat="48.42005" lon="2.40907">
        <ele>114.19999694824</ele>
        <time>2024-04-14T08:48:53.000Z</time>
      </trkpt>
      <trkpt lat="48.42007" lon="2.40905">
        <ele>114</ele>
        <time>2024-04-14T08:48:54.000Z</time>
      </trkpt>
      <trkpt lat="48.42012" lon="2.40904">
        <ele>112.59999847412</ele>
        <time>2024-04-14T08:48:56.000Z</time>
      </trkpt>
      <trkpt lat="48.42016" lon="2.40903">
        <ele>111.40000152588</ele>
        <time>2024-04-14T08:48:57.000Z</time>
      </trkpt>
      <trkpt lat="48.4202" lon="2.40902">
        <ele>109.59999847412</ele>
        <time>2024-04-14T08:48:58.000Z</time>
      </trkpt>
      <trkpt lat="48.42024" lon="2.40901">
        <ele>108.40000152588</ele>
        <time>2024-04-14T08:48:59.000Z</time>
      </trkpt>
      <trkpt lat="48.42031" lon="2.40894">
        <ele>107.19999694824</ele>
        <time>2024-04-14T08:49:00.000Z</time>
      </trkpt>
      <trkpt lat="48.42035" lon="2.40885">
        <ele>105.40000152588</ele>
        <time>2024-04-14T08:49:02.000Z</time>
      </trkpt>
      <trkpt lat="48.42036" lon="2.40879">
        <ele>104.40000152588</ele>
        <time>2024-04-14T08:49:03.000Z</time>
      </trkpt>
      <trkpt lat="48.42038" lon="2.40869">
        <ele>103.19999694824</ele>
        <time>2024-04-14T08:49:05.000Z</time>
      </trkpt>
      <trkpt lat="48.42039" lon="2.40869">
        <ele>103</ele>
        <time>2024-04-14T08:49:06.000Z</time>
      </trkpt>
      <trkpt lat="48.42041" lon="2.40868">
        <ele>103</ele>
        <time>2024-04-14T08:49:07.000Z</time>
      </trkpt>
      <trkpt lat="48.4205" lon="2.40872">
        <ele>103</ele>
        <time>2024-04-14T08:49:11.000Z</time>
      </trkpt>
      <trkpt lat="48.42052" lon="2.40874">
        <ele>103.19999694824</ele>
        <time>2024-04-14T08:49:12.000Z</time>
      </trkpt>
      <trkpt lat="48.42065" lon="2.40886">
        <ele>102.80000305176</ele>
        <time>2024-04-14T08:49:16.000Z</time>
      </trkpt>
      <trkpt lat="48.42078" lon="2.40903">
        <ele>104.80000305176</ele>
        <time>2024-04-14T08:49:20.000Z</time>
      </trkpt>
      <trkpt lat="48.42084" lon="2.40908">
        <ele>106.19999694824</ele>
        <time>2024-04-14T08:49:22.000Z</time>
      </trkpt>
      <trkpt lat="48.42086" lon="2.40911">
        <ele>106.80000305176</ele>
        <time>2024-04-14T08:49:23.000Z</time>
      </trkpt>
      <trkpt lat="48.42089" lon="2.40914">
        <ele>107.40000152588</ele>
        <time>2024-04-14T08:49:24.000Z</time>
      </trkpt>
      <trkpt lat="48.42101" lon="2.40921">
        <ele>108.59999847412</ele>
        <time>2024-04-14T08:49:28.000Z</time>
      </trkpt>
      <trkpt lat="48.42103" lon="2.40921">
        <ele>109</ele>
        <time>2024-04-14T08:49:29.000Z</time>
      </trkpt>
      <trkpt lat="48.42107" lon="2.40918">
        <ele>110</ele>
        <time>2024-04-14T08:49:31.000Z</time>
      </trkpt>
      <trkpt lat="48.42108" lon="2.40914">
        <ele>110.59999847412</ele>
        <time>2024-04-14T08:49:33.000Z</time>
      </trkpt>
      <trkpt lat="48.4211" lon="2.40908">
        <ele>110.40000152588</ele>
        <time>2024-04-14T08:49:35.000Z</time>
      </trkpt>
      <trkpt lat="48.42109" lon="2.40896">
        <ele>110.59999847412</ele>
        <time>2024-04-14T08:49:38.000Z</time>
      </trkpt>
      <trkpt lat="48.42108" lon="2.40867">
        <ele>109.59999847412</ele>
        <time>2024-04-14T08:49:44.000Z</time>
      </trkpt>
      <trkpt lat="48.42105" lon="2.40862">
        <ele>109</ele>
        <time>2024-04-14T08:49:46.000Z</time>
      </trkpt>
      <trkpt lat="48.42103" lon="2.40861">
        <ele>107.80000305176</ele>
        <time>2024-04-14T08:49:47.000Z</time>
      </trkpt>
      <trkpt lat="48.42101" lon="2.40858">
        <ele>106.80000305176</ele>
        <time>2024-04-14T08:49:48.000Z</time>
      </trkpt>
      <trkpt lat="48.42098" lon="2.40848">
        <ele>106.19999694824</ele>
        <time>2024-04-14T08:49:49.000Z</time>
      </trkpt>
      <trkpt lat="48.42092" lon="2.4083">
        <ele>105.80000305176</ele>
        <time>2024-04-14T08:49:51.000Z</time>
      </trkpt>
      <trkpt lat="48.4209" lon="2.40821">
        <ele>105</ele>
        <time>2024-04-14T08:49:52.000Z</time>
      </trkpt>
      <trkpt lat="48.4209" lon="2.40812">
        <ele>103.80000305176</ele>
        <time>2024-04-14T08:49:53.000Z</time>
      </trkpt>
      <trkpt lat="48.4209" lon="2.40803">
        <ele>102.59999847412</ele>
        <time>2024-04-14T08:49:54.000Z</time>
      </trkpt>
      <trkpt lat="48.4209" lon="2.40795">
        <ele>101.40000152588</ele>
        <time>2024-04-14T08:49:55.000Z</time>
      </trkpt>
      <trkpt lat="48.42092" lon="2.40777">
        <ele>100</ele>
        <time>2024-04-14T08:49:57.000Z</time>
      </trkpt>
      <trkpt lat="48.42092" lon="2.40762">
        <ele>98.199996948242</ele>
        <time>2024-04-14T08:49:59.000Z</time>
      </trkpt>
      <trkpt lat="48.42093" lon="2.40754">
        <ele>97</ele>
        <time>2024-04-14T08:50:00.000Z</time>
      </trkpt>
      <trkpt lat="48.42096" lon="2.40739">
        <ele>95.400001525879</ele>
        <time>2024-04-14T08:50:02.000Z</time>
      </trkpt>
      <trkpt lat="48.42097" lon="2.40734">
        <ele>94.400001525879</ele>
        <time>2024-04-14T08:50:03.000Z</time>
      </trkpt>
      <trkpt lat="48.42099" lon="2.40727">
        <ele>93.800003051758</ele>
        <time>2024-04-14T08:50:04.000Z</time>
      </trkpt>
      <trkpt lat="48.42101" lon="2.40722">
        <ele>93.199996948242</ele>
        <time>2024-04-14T08:50:05.000Z</time>
      </trkpt>
      <trkpt lat="48.42104" lon="2.40715">
        <ele>92.800003051758</ele>
        <time>2024-04-14T08:50:06.000Z</time>
      </trkpt>
      <trkpt lat="48.42104" lon="2.40704">
        <ele>91.800003051758</ele>
        <time>2024-04-14T08:50:08.000Z</time>
      </trkpt>
      <trkpt lat="48.42102" lon="2.40699">
        <ele>91.199996948242</ele>
        <time>2024-04-14T08:50:09.000Z</time>
      </trkpt>
      <trkpt lat="48.42097" lon="2.40688">
        <ele>90.400001525879</ele>
        <time>2024-04-14T08:50:11.000Z</time>
      </trkpt>
      <trkpt lat="48.42093" lon="2.40681">
        <ele>90</ele>
        <time>2024-04-14T08:50:12.000Z</time>
      </trkpt>
      <trkpt lat="48.42092" lon="2.4067">
        <ele>89.599998474121</ele>
        <time>2024-04-14T08:50:14.000Z</time>
      </trkpt>
      <trkpt lat="48.42091" lon="2.40667">
        <ele>89.199996948242</ele>
        <time>2024-04-14T08:50:15.000Z</time>
      </trkpt>
      <trkpt lat="48.42092" lon="2.40664">
        <ele>88.800003051758</ele>
        <time>2024-04-14T08:50:16.000Z</time>
      </trkpt>
      <trkpt lat="48.42098" lon="2.40654">
        <ele>88.400001525879</ele>
        <time>2024-04-14T08:50:19.000Z</time>
      </trkpt>
      <trkpt lat="48.42103" lon="2.40638">
        <ele>87.800003051758</ele>
        <time>2024-04-14T08:50:22.000Z</time>
      </trkpt>
      <trkpt lat="48.42108" lon="2.40625">
        <ele>86.800003051758</ele>
        <time>2024-04-14T08:50:24.000Z</time>
      </trkpt>
      <trkpt lat="48.42111" lon="2.40606">
        <ele>85.599998474121</ele>
        <time>2024-04-14T08:50:27.000Z</time>
      </trkpt>
      <trkpt lat="48.42111" lon="2.4059">
        <ele>84.199996948242</ele>
        <time>2024-04-14T08:50:29.000Z</time>
      </trkpt>
      <trkpt lat="48.42111" lon="2.40576">
        <ele>84.599998474121</ele>
        <time>2024-04-14T08:50:31.000Z</time>
      </trkpt>
      <trkpt lat="48.42116" lon="2.40561">
        <ele>85.199996948242</ele>
        <time>2024-04-14T08:50:34.000Z</time>
      </trkpt>
      <trkpt lat="48.42121" lon="2.40554">
        <ele>86.800003051758</ele>
        <time>2024-04-14T08:50:36.000Z</time>
      </trkpt>
      <trkpt lat="48.42123" lon="2.4055">
        <ele>87.400001525879</ele>
        <time>2024-04-14T08:50:37.000Z</time>
      </trkpt>
      <trkpt lat="48.42128" lon="2.40543">
        <ele>88</ele>
        <time>2024-04-14T08:50:39.000Z</time>
      </trkpt>
      <trkpt lat="48.42142" lon="2.4052">
        <ele>87.800003051758</ele>
        <time>2024-04-14T08:50:43.000Z</time>
      </trkpt>
      <trkpt lat="48.42145" lon="2.40512">
        <ele>87.800003051758</ele>
        <time>2024-04-14T08:50:44.000Z</time>
      </trkpt>
      <trkpt lat="48.42157" lon="2.40478">
        <ele>86.599998474121</ele>
        <time>2024-04-14T08:50:48.000Z</time>
      </trkpt>
      <trkpt lat="48.42156" lon="2.4047">
        <ele>86</ele>
        <time>2024-04-14T08:50:49.000Z</time>
      </trkpt>
      <trkpt lat="48.42156" lon="2.40462">
        <ele>85.599998474121</ele>
        <time>2024-04-14T08:50:50.000Z</time>
      </trkpt>
      <trkpt lat="48.4216" lon="2.40446">
        <ele>85.599998474121</ele>
        <time>2024-04-14T08:50:53.000Z</time>
      </trkpt>
      <trkpt lat="48.42163" lon="2.4044">
        <ele>85.800003051758</ele>
        <time>2024-04-14T08:50:54.000Z</time>
      </trkpt>
      <trkpt lat="48.42173" lon="2.40425">
        <ele>86.599998474121</ele>
        <time>2024-04-14T08:50:57.000Z</time>
      </trkpt>
      <trkpt lat="48.42184" lon="2.40407">
        <ele>86.400001525879</ele>
        <time>2024-04-14T08:51:00.000Z</time>
      </trkpt>
      <trkpt lat="48.42194" lon="2.4039">
        <ele>86.599998474121</ele>
        <time>2024-04-14T08:51:03.000Z</time>
      </trkpt>
      <trkpt lat="48.42197" lon="2.40384">
        <ele>86.599998474121</ele>
        <time>2024-04-14T08:51:04.000Z</time>
      </trkpt>
      <trkpt lat="48.42202" lon="2.40371">
        <ele>86.199996948242</ele>
        <time>2024-04-14T08:51:06.000Z</time>
      </trkpt>
      <trkpt lat="48.422" lon="2.40361">
        <ele>85.199996948242</ele>
        <time>2024-04-14T08:51:08.000Z</time>
      </trkpt>
      <trkpt lat="48.42189" lon="2.40347">
        <ele>84.199996948242</ele>
        <time>2024-04-14T08:51:11.000Z</time>
      </trkpt>
      <trkpt lat="48.42185" lon="2.40342">
        <ele>83.599998474121</ele>
        <time>2024-04-14T08:51:12.000Z</time>
      </trkpt>
      <trkpt lat="48.4218" lon="2.40336">
        <ele>83</ele>
        <time>2024-04-14T08:51:13.000Z</time>
      </trkpt>
      <trkpt lat="48.42157" lon="2.40309">
        <ele>81.400001525879</ele>
        <time>2024-04-14T08:51:17.000Z</time>
      </trkpt>
      <trkpt lat="48.42116" lon="2.40281">
        <ele>80.400001525879</ele>
        <time>2024-04-14T08:51:23.000Z</time>
      </trkpt>
      <trkpt lat="48.42081" lon="2.4026">
        <ele>79.599998474121</ele>
        <time>2024-04-14T08:51:28.000Z</time>
      </trkpt>
      <trkpt lat="48.42077" lon="2.40252">
        <ele>79.199996948242</ele>
        <time>2024-04-14T08:51:29.000Z</time>
      </trkpt>
      <trkpt lat="48.42062" lon="2.40213">
        <ele>79</ele>
        <time>2024-04-14T08:51:33.000Z</time>
      </trkpt>
      <trkpt lat="48.42041" lon="2.40161">
        <ele>78.599998474121</ele>
        <time>2024-04-14T08:51:39.000Z</time>
      </trkpt>
      <trkpt lat="48.42036" lon="2.40145">
        <ele>77.800003051758</ele>
        <time>2024-04-14T08:51:41.000Z</time>
      </trkpt>
      <trkpt lat="48.4203" lon="2.40123">
        <ele>77.199996948242</ele>
        <time>2024-04-14T08:51:44.000Z</time>
      </trkpt>
      <trkpt lat="48.42026" lon="2.40095">
        <ele>78.199996948242</ele>
        <time>2024-04-14T08:51:48.000Z</time>
      </trkpt>
      <trkpt lat="48.42028" lon="2.40081">
        <ele>78.599998474121</ele>
        <time>2024-04-14T08:51:50.000Z</time>
      </trkpt>
      <trkpt lat="48.42032" lon="2.40067">
        <ele>79</ele>
        <time>2024-04-14T08:51:52.000Z</time>
      </trkpt>
      <trkpt lat="48.42035" lon="2.40061">
        <ele>79.599998474121</ele>
        <time>2024-04-14T08:51:53.000Z</time>
      </trkpt>
      <trkpt lat="48.42036" lon="2.40055">
        <ele>80</ele>
        <time>2024-04-14T08:51:54.000Z</time>
      </trkpt>
      <trkpt lat="48.42038" lon="2.40049">
        <ele>80.199996948242</ele>
        <time>2024-04-14T08:51:55.000Z</time>
      </trkpt>
      <trkpt lat="48.42041" lon="2.40015">
        <ele>81.199996948242</ele>
        <time>2024-04-14T08:52:01.000Z</time>
      </trkpt>
      <trkpt lat="48.42037" lon="2.39997">
        <ele>81.800003051758</ele>
        <time>2024-04-14T08:52:07.000Z</time>
      </trkpt>
      <trkpt lat="48.4203" lon="2.39976">
        <ele>82</ele>
        <time>2024-04-14T08:52:14.000Z</time>
      </trkpt>
      <trkpt lat="48.42028" lon="2.39964">
        <ele>82.400001525879</ele>
        <time>2024-04-14T08:52:16.000Z</time>
      </trkpt>
      <trkpt lat="48.42028" lon="2.39953">
        <ele>82.599998474121</ele>
        <time>2024-04-14T08:52:18.000Z</time>
      </trkpt>
      <trkpt lat="48.42027" lon="2.39927">
        <ele>83.199996948242</ele>
        <time>2024-04-14T08:52:24.000Z</time>
      </trkpt>
      <trkpt lat="48.42027" lon="2.39925">
        <ele>83.599998474121</ele>
        <time>2024-04-14T08:52:25.000Z</time>
      </trkpt>
      <trkpt lat="48.42027" lon="2.39922">
        <ele>83.800003051758</ele>
        <time>2024-04-14T08:52:29.000Z</time>
      </trkpt>
      <trkpt lat="48.42027" lon="2.39922">
        <ele>83.800003051758</ele>
        <time>2024-04-14T08:52:43.000Z</time>
      </trkpt>
      <trkpt lat="48.42027" lon="2.39922">
        <ele>83.800003051758</ele>
        <time>2024-04-14T08:52:55.000Z</time>
      </trkpt>
      <trkpt lat="48.42027" lon="2.39922">
        <ele>83.800003051758</ele>
        <time>2024-04-14T08:53:11.000Z</time>
      </trkpt>
      <trkpt lat="48.42027" lon="2.39922">
        <ele>84</ele>
        <time>2024-04-14T08:53:24.000Z</time>
      </trkpt>
      <trkpt lat="48.42027" lon="2.39922">
        <ele>84</ele>
        <time>2024-04-14T08:53:39.000Z</time>
      </trkpt>
      <trkpt lat="48.42027" lon="2.39921">
        <ele>83.800003051758</ele>
        <time>2024-04-14T08:53:54.000Z</time>
      </trkpt>
      <trkpt lat="48.42027" lon="2.39921">
        <ele>83.800003051758</ele>
        <time>2024-04-14T08:54:10.000Z</time>
      </trkpt>
      <trkpt lat="48.42027" lon="2.39921">
        <ele>83.800003051758</ele>
        <time>2024-04-14T08:54:23.000Z</time>
      </trkpt>
      <trkpt lat="48.42027" lon="2.3992">
        <ele>83.800003051758</ele>
        <time>2024-04-14T08:54:34.000Z</time>
      </trkpt>
      <trkpt lat="48.42023" lon="2.39903">
        <ele>84.199996948242</ele>
        <time>2024-04-14T08:54:39.000Z</time>
      </trkpt>
      <trkpt lat="48.42019" lon="2.39891">
        <ele>84.599998474121</ele>
        <time>2024-04-14T08:54:41.000Z</time>
      </trkpt>
      <trkpt lat="48.42012" lon="2.39876">
        <ele>85.199996948242</ele>
        <time>2024-04-14T08:54:44.000Z</time>
      </trkpt>
      <trkpt lat="48.41996" lon="2.39847">
        <ele>85.199996948242</ele>
        <time>2024-04-14T08:54:50.000Z</time>
      </trkpt>
      <trkpt lat="48.41982" lon="2.39814">
        <ele>85.199996948242</ele>
        <time>2024-04-14T08:54:57.000Z</time>
      </trkpt>
      <trkpt lat="48.41977" lon="2.39773">
        <ele>85</ele>
        <time>2024-04-14T08:55:04.000Z</time>
      </trkpt>
      <trkpt lat="48.4197" lon="2.39742">
        <ele>85.599998474121</ele>
        <time>2024-04-14T08:55:10.000Z</time>
      </trkpt>
      <trkpt lat="48.41965" lon="2.39709">
        <ele>85.800003051758</ele>
        <time>2024-04-14T08:55:17.000Z</time>
      </trkpt>
      <trkpt lat="48.41964" lon="2.39708">
        <ele>85.800003051758</ele>
        <time>2024-04-14T08:55:18.000Z</time>
      </trkpt>
      <trkpt lat="48.41961" lon="2.39702">
        <ele>85.400001525879</ele>
        <time>2024-04-14T08:55:21.000Z</time>
      </trkpt>
      <trkpt lat="48.41961" lon="2.39698">
        <ele>85.400001525879</ele>
        <time>2024-04-14T08:55:22.000Z</time>
      </trkpt>
      <trkpt lat="48.41961" lon="2.39695">
        <ele>85.400001525879</ele>
        <time>2024-04-14T08:55:25.000Z</time>
      </trkpt>
      <trkpt lat="48.41962" lon="2.39692">
        <ele>85.599998474121</ele>
        <time>2024-04-14T08:55:26.000Z</time>
      </trkpt>
      <trkpt lat="48.41966" lon="2.39681">
        <ele>85.199996948242</ele>
        <time>2024-04-14T08:55:29.000Z</time>
      </trkpt>
      <trkpt lat="48.41967" lon="2.39677">
        <ele>85.199996948242</ele>
        <time>2024-04-14T08:55:34.000Z</time>
      </trkpt>
      <trkpt lat="48.41967" lon="2.39676">
        <ele>85</ele>
        <time>2024-04-14T08:55:44.000Z</time>
      </trkpt>
      <trkpt lat="48.41968" lon="2.39666">
        <ele>84.800003051758</ele>
        <time>2024-04-14T08:55:51.000Z</time>
      </trkpt>
      <trkpt lat="48.41968" lon="2.39657">
        <ele>84.599998474121</ele>
        <time>2024-04-14T08:55:55.000Z</time>
      </trkpt>
      <trkpt lat="48.41967" lon="2.39643">
        <ele>84.199996948242</ele>
        <time>2024-04-14T08:55:57.000Z</time>
      </trkpt>
      <trkpt lat="48.41958" lon="2.39607">
        <ele>83.400001525879</ele>
        <time>2024-04-14T08:56:02.000Z</time>
      </trkpt>
      <trkpt lat="48.41954" lon="2.39599">
        <ele>82.800003051758</ele>
        <time>2024-04-14T08:56:03.000Z</time>
      </trkpt>
      <trkpt lat="48.41948" lon="2.39584">
        <ele>81.800003051758</ele>
        <time>2024-04-14T08:56:05.000Z</time>
      </trkpt>
      <trkpt lat="48.41947" lon="2.39577">
        <ele>81.199996948242</ele>
        <time>2024-04-14T08:56:06.000Z</time>
      </trkpt>
      <trkpt lat="48.41946" lon="2.39568">
        <ele>80.800003051758</ele>
        <time>2024-04-14T08:56:07.000Z</time>
      </trkpt>
      <trkpt lat="48.41948" lon="2.39561">
        <ele>80.599998474121</ele>
        <time>2024-04-14T08:56:08.000Z</time>
      </trkpt>
      <trkpt lat="48.41953" lon="2.39545">
        <ele>80.599998474121</ele>
        <time>2024-04-14T08:56:10.000Z</time>
      </trkpt>
      <trkpt lat="48.41964" lon="2.39523">
        <ele>80.800003051758</ele>
        <time>2024-04-14T08:56:13.000Z</time>
      </trkpt>
      <trkpt lat="48.41969" lon="2.39516">
        <ele>81</ele>
        <time>2024-04-14T08:56:14.000Z</time>
      </trkpt>
      <trkpt lat="48.41974" lon="2.39509">
        <ele>81</ele>
        <time>2024-04-14T08:56:15.000Z</time>
      </trkpt>
      <trkpt lat="48.4198" lon="2.39502">
        <ele>81.800003051758</ele>
        <time>2024-04-14T08:56:16.000Z</time>
      </trkpt>
      <trkpt lat="48.42003" lon="2.39467">
        <ele>83</ele>
        <time>2024-04-14T08:56:21.000Z</time>
      </trkpt>
      <trkpt lat="48.42006" lon="2.39458">
        <ele>82.800003051758</ele>
        <time>2024-04-14T08:56:22.000Z</time>
      </trkpt>
      <trkpt lat="48.42021" lon="2.39421">
        <ele>81.599998474121</ele>
        <time>2024-04-14T08:56:26.000Z</time>
      </trkpt>
      <trkpt lat="48.42028" lon="2.39402">
        <ele>81</ele>
        <time>2024-04-14T08:56:28.000Z</time>
      </trkpt>
      <trkpt lat="48.4204" lon="2.39361">
        <ele>80.400001525879</ele>
        <time>2024-04-14T08:56:32.000Z</time>
      </trkpt>
      <trkpt lat="48.42045" lon="2.39342">
        <ele>80.199996948242</ele>
        <time>2024-04-14T08:56:34.000Z</time>
      </trkpt>
      <trkpt lat="48.42047" lon="2.39332">
        <ele>80</ele>
        <time>2024-04-14T08:56:35.000Z</time>
      </trkpt>
      <trkpt lat="48.42048" lon="2.39311">
        <ele>79.400001525879</ele>
        <time>2024-04-14T08:56:37.000Z</time>
      </trkpt>
      <trkpt lat="48.42049" lon="2.39301">
        <ele>79</ele>
        <time>2024-04-14T08:56:38.000Z</time>
      </trkpt>
      <trkpt lat="48.42055" lon="2.39261">
        <ele>78.400001525879</ele>
        <time>2024-04-14T08:56:42.000Z</time>
      </trkpt>
      <trkpt lat="48.42058" lon="2.39252">
        <ele>78.400001525879</ele>
        <time>2024-04-14T08:56:43.000Z</time>
      </trkpt>
      <trkpt lat="48.42068" lon="2.39226">
        <ele>78.199996948242</ele>
        <time>2024-04-14T08:56:46.000Z</time>
      </trkpt>
      <trkpt lat="48.42072" lon="2.39206">
        <ele>77.800003051758</ele>
        <time>2024-04-14T08:56:48.000Z</time>
      </trkpt>
      <trkpt lat="48.42076" lon="2.39188">
        <ele>77.400001525879</ele>
        <time>2024-04-14T08:56:50.000Z</time>
      </trkpt>
      <trkpt lat="48.42089" lon="2.39136">
        <ele>77.199996948242</ele>
        <time>2024-04-14T08:56:55.000Z</time>
      </trkpt>
      <trkpt lat="48.42105" lon="2.39088">
        <ele>76.199996948242</ele>
        <time>2024-04-14T08:57:00.000Z</time>
      </trkpt>
      <trkpt lat="48.42112" lon="2.3907">
        <ele>75.599998474121</ele>
        <time>2024-04-14T08:57:02.000Z</time>
      </trkpt>
      <trkpt lat="48.42123" lon="2.39043">
        <ele>75.199996948242</ele>
        <time>2024-04-14T08:57:05.000Z</time>
      </trkpt>
      <trkpt lat="48.42138" lon="2.39004">
        <ele>74.599998474121</ele>
        <time>2024-04-14T08:57:10.000Z</time>
      </trkpt>
      <trkpt lat="48.42142" lon="2.39">
        <ele>74.400001525879</ele>
        <time>2024-04-14T08:57:11.000Z</time>
      </trkpt>
      <trkpt lat="48.42151" lon="2.39003">
        <ele>74.400001525879</ele>
        <time>2024-04-14T08:57:13.000Z</time>
      </trkpt>
      <trkpt lat="48.42161" lon="2.39008">
        <ele>74.800003051758</ele>
        <time>2024-04-14T08:57:15.000Z</time>
      </trkpt>
      <trkpt lat="48.42178" lon="2.39017">
        <ele>75</ele>
        <time>2024-04-14T08:57:18.000Z</time>
      </trkpt>
      <trkpt lat="48.42226" lon="2.39042">
        <ele>74.599998474121</ele>
        <time>2024-04-14T08:57:26.000Z</time>
      </trkpt>
      <trkpt lat="48.42271" lon="2.39065">
        <ele>75</ele>
        <time>2024-04-14T08:57:34.000Z</time>
      </trkpt>
      <trkpt lat="48.42288" lon="2.39073">
        <ele>74.800003051758</ele>
        <time>2024-04-14T08:57:37.000Z</time>
      </trkpt>
      <trkpt lat="48.42304" lon="2.39086">
        <ele>74.800003051758</ele>
        <time>2024-04-14T08:57:40.000Z</time>
      </trkpt>
      <trkpt lat="48.42347" lon="2.39123">
        <ele>75</ele>
        <time>2024-04-14T08:57:48.000Z</time>
      </trkpt>
      <trkpt lat="48.42384" lon="2.39163">
        <ele>75</ele>
        <time>2024-04-14T08:57:55.000Z</time>
      </trkpt>
      <trkpt lat="48.42435" lon="2.39212">
        <ele>74.400001525879</ele>
        <time>2024-04-14T08:58:04.000Z</time>
      </trkpt>
      <trkpt lat="48.42472" lon="2.39247">
        <ele>74.599998474121</ele>
        <time>2024-04-14T08:58:11.000Z</time>
      </trkpt>
      <trkpt lat="48.4252" lon="2.39292">
        <ele>74.599998474121</ele>
        <time>2024-04-14T08:58:20.000Z</time>
      </trkpt>
      <trkpt lat="48.42565" lon="2.39342">
        <ele>74.800003051758</ele>
        <time>2024-04-14T08:58:29.000Z</time>
      </trkpt>
      <trkpt lat="48.42595" lon="2.39377">
        <ele>75.199996948242</ele>
        <time>2024-04-14T08:58:36.000Z</time>
      </trkpt>
      <trkpt lat="48.42603" lon="2.39381">
        <ele>75</ele>
        <time>2024-04-14T08:58:39.000Z</time>
      </trkpt>
      <trkpt lat="48.42608" lon="2.3937">
        <ele>75.400001525879</ele>
        <time>2024-04-14T08:58:43.000Z</time>
      </trkpt>
      <trkpt lat="48.42604" lon="2.39348">
        <ele>75.400001525879</ele>
        <time>2024-04-14T08:58:46.000Z</time>
      </trkpt>
      <trkpt lat="48.42602" lon="2.39324">
        <ele>75</ele>
        <time>2024-04-14T08:58:50.000Z</time>
      </trkpt>
      <trkpt lat="48.42606" lon="2.39322">
        <ele>75</ele>
        <time>2024-04-14T08:58:51.000Z</time>
      </trkpt>
      <trkpt lat="48.4262" lon="2.39315">
        <ele>76.199996948242</ele>
        <time>2024-04-14T08:58:54.000Z</time>
      </trkpt>
      <trkpt lat="48.42625" lon="2.39313">
        <ele>76.800003051758</ele>
        <time>2024-04-14T08:58:55.000Z</time>
      </trkpt>
      <trkpt lat="48.42671" lon="2.3929">
        <ele>76</ele>
        <time>2024-04-14T08:59:04.000Z</time>
      </trkpt>
      <trkpt lat="48.42706" lon="2.39272">
        <ele>77.400001525879</ele>
        <time>2024-04-14T08:59:11.000Z</time>
      </trkpt>
      <trkpt lat="48.42725" lon="2.39263">
        <ele>78.400001525879</ele>
        <time>2024-04-14T08:59:15.000Z</time>
      </trkpt>
      <trkpt lat="48.42729" lon="2.39261">
        <ele>78.599998474121</ele>
        <time>2024-04-14T08:59:16.000Z</time>
      </trkpt>
      <trkpt lat="48.42743" lon="2.39254">
        <ele>79.800003051758</ele>
        <time>2024-04-14T08:59:19.000Z</time>
      </trkpt>
      <trkpt lat="48.42761" lon="2.39245">
        <ele>80.800003051758</ele>
        <time>2024-04-14T08:59:23.000Z</time>
      </trkpt>
      <trkpt lat="48.42774" lon="2.39239">
        <ele>81.800003051758</ele>
        <time>2024-04-14T08:59:26.000Z</time>
      </trkpt>
      <trkpt lat="48.42779" lon="2.39237">
        <ele>81.800003051758</ele>
        <time>2024-04-14T08:59:27.000Z</time>
      </trkpt>
      <trkpt lat="48.42783" lon="2.39234">
        <ele>82</ele>
        <time>2024-04-14T08:59:28.000Z</time>
      </trkpt>
      <trkpt lat="48.42793" lon="2.39222">
        <ele>83</ele>
        <time>2024-04-14T08:59:31.000Z</time>
      </trkpt>
      <trkpt lat="48.42791" lon="2.39201">
        <ele>84</ele>
        <time>2024-04-14T08:59:34.000Z</time>
      </trkpt>
      <trkpt lat="48.42787" lon="2.39187">
        <ele>84</ele>
        <time>2024-04-14T08:59:36.000Z</time>
      </trkpt>
      <trkpt lat="48.42781" lon="2.39165">
        <ele>84</ele>
        <time>2024-04-14T08:59:39.000Z</time>
      </trkpt>
      <trkpt lat="48.42775" lon="2.3914">
        <ele>83</ele>
        <time>2024-04-14T08:59:42.000Z</time>
      </trkpt>
      <trkpt lat="48.42767" lon="2.39107">
        <ele>83</ele>
        <time>2024-04-14T08:59:46.000Z</time>
      </trkpt>
      <trkpt lat="48.4275" lon="2.39037">
        <ele>82.400001525879</ele>
        <time>2024-04-14T08:59:54.000Z</time>
      </trkpt>
      <trkpt lat="48.42742" lon="2.39001">
        <ele>82</ele>
        <time>2024-04-14T08:59:58.000Z</time>
      </trkpt>
      <trkpt lat="48.42734" lon="2.38965">
        <ele>81.599998474121</ele>
        <time>2024-04-14T09:00:02.000Z</time>
      </trkpt>
      <trkpt lat="48.42719" lon="2.38905">
        <ele>81</ele>
        <time>2024-04-14T09:00:08.000Z</time>
      </trkpt>
      <trkpt lat="48.42709" lon="2.38865">
        <ele>80.800003051758</ele>
        <time>2024-04-14T09:00:12.000Z</time>
      </trkpt>
      <trkpt lat="48.42701" lon="2.38835">
        <ele>79.199996948242</ele>
        <time>2024-04-14T09:00:15.000Z</time>
      </trkpt>
      <trkpt lat="48.42696" lon="2.38815">
        <ele>78.199996948242</ele>
        <time>2024-04-14T09:00:17.000Z</time>
      </trkpt>
      <trkpt lat="48.42693" lon="2.38805">
        <ele>78.199996948242</ele>
        <time>2024-04-14T09:00:18.000Z</time>
      </trkpt>
      <trkpt lat="48.42682" lon="2.38748">
        <ele>77.800003051758</ele>
        <time>2024-04-14T09:00:24.000Z</time>
      </trkpt>
      <trkpt lat="48.4269" lon="2.38733">
        <ele>77.599998474121</ele>
        <time>2024-04-14T09:00:26.000Z</time>
      </trkpt>
      <trkpt lat="48.42723" lon="2.38686">
        <ele>78.400001525879</ele>
        <time>2024-04-14T09:00:33.000Z</time>
      </trkpt>
      <trkpt lat="48.42759" lon="2.38633">
        <ele>79.400001525879</ele>
        <time>2024-04-14T09:00:41.000Z</time>
      </trkpt>
      <trkpt lat="48.42776" lon="2.38609">
        <ele>80.599998474121</ele>
        <time>2024-04-14T09:00:45.000Z</time>
      </trkpt>
      <trkpt lat="48.42793" lon="2.38584">
        <ele>81.400001525879</ele>
        <time>2024-04-14T09:00:49.000Z</time>
      </trkpt>
      <trkpt lat="48.42801" lon="2.38572">
        <ele>81.599998474121</ele>
        <time>2024-04-14T09:00:51.000Z</time>
      </trkpt>
      <trkpt lat="48.42829" lon="2.38536">
        <ele>82</ele>
        <time>2024-04-14T09:00:57.000Z</time>
      </trkpt>
      <trkpt lat="48.4287" lon="2.38482">
        <ele>81.400001525879</ele>
        <time>2024-04-14T09:01:06.000Z</time>
      </trkpt>
      <trkpt lat="48.42881" lon="2.38482">
        <ele>81.400001525879</ele>
        <time>2024-04-14T09:01:08.000Z</time>
      </trkpt>
      <trkpt lat="48.4289" lon="2.38503">
        <ele>81.400001525879</ele>
        <time>2024-04-14T09:01:11.000Z</time>
      </trkpt>
      <trkpt lat="48.42899" lon="2.38543">
        <ele>82.599998474121</ele>
        <time>2024-04-14T09:01:16.000Z</time>
      </trkpt>
      <trkpt lat="48.42907" lon="2.38573">
        <ele>83.800003051758</ele>
        <time>2024-04-14T09:01:20.000Z</time>
      </trkpt>
      <trkpt lat="48.42914" lon="2.38604">
        <ele>85</ele>
        <time>2024-04-14T09:01:24.000Z</time>
      </trkpt>
      <trkpt lat="48.42918" lon="2.38626">
        <ele>85.800003051758</ele>
        <time>2024-04-14T09:01:27.000Z</time>
      </trkpt>
      <trkpt lat="48.42919" lon="2.38633">
        <ele>86.199996948242</ele>
        <time>2024-04-14T09:01:28.000Z</time>
      </trkpt>
      <trkpt lat="48.42925" lon="2.38668">
        <ele>87.400001525879</ele>
        <time>2024-04-14T09:01:33.000Z</time>
      </trkpt>
      <trkpt lat="48.42927" lon="2.38682">
        <ele>88</ele>
        <time>2024-04-14T09:01:35.000Z</time>
      </trkpt>
      <trkpt lat="48.42928" lon="2.38688">
        <ele>88.199996948242</ele>
        <time>2024-04-14T09:01:36.000Z</time>
      </trkpt>
      <trkpt lat="48.42929" lon="2.38695">
        <ele>88.400001525879</ele>
        <time>2024-04-14T09:01:37.000Z</time>
      </trkpt>
      <trkpt lat="48.42931" lon="2.38721">
        <ele>89.800003051758</ele>
        <time>2024-04-14T09:01:41.000Z</time>
      </trkpt>
      <trkpt lat="48.42931" lon="2.38735">
        <ele>90.599998474121</ele>
        <time>2024-04-14T09:01:43.000Z</time>
      </trkpt>
      <trkpt lat="48.42932" lon="2.38741">
        <ele>90.800003051758</ele>
        <time>2024-04-14T09:01:44.000Z</time>
      </trkpt>
      <trkpt lat="48.42934" lon="2.38766">
        <ele>92</ele>
        <time>2024-04-14T09:01:48.000Z</time>
      </trkpt>
      <trkpt lat="48.42933" lon="2.38796">
        <ele>93.400001525879</ele>
        <time>2024-04-14T09:01:53.000Z</time>
      </trkpt>
      <trkpt lat="48.42933" lon="2.38814">
        <ele>94.199996948242</ele>
        <time>2024-04-14T09:01:56.000Z</time>
      </trkpt>
      <trkpt lat="48.42932" lon="2.3882">
        <ele>94.599998474121</ele>
        <time>2024-04-14T09:01:57.000Z</time>
      </trkpt>
      <trkpt lat="48.42931" lon="2.38837">
        <ele>95.400001525879</ele>
        <time>2024-04-14T09:02:00.000Z</time>
      </trkpt>
      <trkpt lat="48.42931" lon="2.3885">
        <ele>95.800003051758</ele>
        <time>2024-04-14T09:02:02.000Z</time>
      </trkpt>
      <trkpt lat="48.42935" lon="2.38872">
        <ele>96.800003051758</ele>
        <time>2024-04-14T09:02:06.000Z</time>
      </trkpt>
      <trkpt lat="48.42941" lon="2.38898">
        <ele>98</ele>
        <time>2024-04-14T09:02:11.000Z</time>
      </trkpt>
      <trkpt lat="48.42947" lon="2.38918">
        <ele>99.199996948242</ele>
        <time>2024-04-14T09:02:15.000Z</time>
      </trkpt>
      <trkpt lat="48.42956" lon="2.38936">
        <ele>100.40000152588</ele>
        <time>2024-04-14T09:02:19.000Z</time>
      </trkpt>
      <trkpt lat="48.4296" lon="2.38944">
        <ele>101</ele>
        <time>2024-04-14T09:02:21.000Z</time>
      </trkpt>
      <trkpt lat="48.42967" lon="2.38956">
        <ele>101.80000305176</ele>
        <time>2024-04-14T09:02:24.000Z</time>
      </trkpt>
      <trkpt lat="48.42974" lon="2.38966">
        <ele>103</ele>
        <time>2024-04-14T09:02:27.000Z</time>
      </trkpt>
      <trkpt lat="48.42978" lon="2.38974">
        <ele>103.80000305176</ele>
        <time>2024-04-14T09:02:29.000Z</time>
      </trkpt>
      <trkpt lat="48.42979" lon="2.38978">
        <ele>104.40000152588</ele>
        <time>2024-04-14T09:02:30.000Z</time>
      </trkpt>
      <trkpt lat="48.42982" lon="2.38989">
        <ele>105.59999847412</ele>
        <time>2024-04-14T09:02:33.000Z</time>
      </trkpt>
      <trkpt lat="48.42988" lon="2.39003">
        <ele>107</ele>
        <time>2024-04-14T09:02:37.000Z</time>
      </trkpt>
      <trkpt lat="48.42995" lon="2.39019">
        <ele>108</ele>
        <time>2024-04-14T09:02:41.000Z</time>
      </trkpt>
      <trkpt lat="48.43" lon="2.39031">
        <ele>108.80000305176</ele>
        <time>2024-04-14T09:02:44.000Z</time>
      </trkpt>
      <trkpt lat="48.43002" lon="2.39035">
        <ele>109.19999694824</ele>
        <time>2024-04-14T09:02:45.000Z</time>
      </trkpt>
      <trkpt lat="48.43011" lon="2.39046">
        <ele>110.59999847412</ele>
        <time>2024-04-14T09:02:49.000Z</time>
      </trkpt>
      <trkpt lat="48.43018" lon="2.39054">
        <ele>111.59999847412</ele>
        <time>2024-04-14T09:02:52.000Z</time>
      </trkpt>
      <trkpt lat="48.4302" lon="2.39058">
        <ele>111.80000305176</ele>
        <time>2024-04-14T09:02:53.000Z</time>
      </trkpt>
      <trkpt lat="48.43025" lon="2.39063">
        <ele>112.80000305176</ele>
        <time>2024-04-14T09:02:55.000Z</time>
      </trkpt>
      <trkpt lat="48.43032" lon="2.39071">
        <ele>113.80000305176</ele>
        <time>2024-04-14T09:02:58.000Z</time>
      </trkpt>
      <trkpt lat="48.43035" lon="2.39074">
        <ele>114.19999694824</ele>
        <time>2024-04-14T09:02:59.000Z</time>
      </trkpt>
      <trkpt lat="48.43041" lon="2.39084">
        <ele>115</ele>
        <time>2024-04-14T09:03:02.000Z</time>
      </trkpt>
      <trkpt lat="48.43049" lon="2.391">
        <ele>116.59999847412</ele>
        <time>2024-04-14T09:03:06.000Z</time>
      </trkpt>
      <trkpt lat="48.43052" lon="2.39109">
        <ele>117.59999847412</ele>
        <time>2024-04-14T09:03:09.000Z</time>
      </trkpt>
      <trkpt lat="48.43057" lon="2.39115">
        <ele>118.59999847412</ele>
        <time>2024-04-14T09:03:12.000Z</time>
      </trkpt>
      <trkpt lat="48.43064" lon="2.39118">
        <ele>120</ele>
        <time>2024-04-14T09:03:15.000Z</time>
      </trkpt>
      <trkpt lat="48.4307" lon="2.39122">
        <ele>121.59999847412</ele>
        <time>2024-04-14T09:03:18.000Z</time>
      </trkpt>
      <trkpt lat="48.4308" lon="2.39126">
        <ele>122.80000305176</ele>
        <time>2024-04-14T09:03:22.000Z</time>
      </trkpt>
      <trkpt lat="48.43085" lon="2.39127">
        <ele>123.19999694824</ele>
        <time>2024-04-14T09:03:24.000Z</time>
      </trkpt>
      <trkpt lat="48.4309" lon="2.39128">
        <ele>123.80000305176</ele>
        <time>2024-04-14T09:03:26.000Z</time>
      </trkpt>
      <trkpt lat="48.43099" lon="2.39132">
        <ele>125</ele>
        <time>2024-04-14T09:03:30.000Z</time>
      </trkpt>
      <trkpt lat="48.43104" lon="2.39133">
        <ele>125.80000305176</ele>
        <time>2024-04-14T09:03:32.000Z</time>
      </trkpt>
      <trkpt lat="48.43106" lon="2.39134">
        <ele>126.19999694824</ele>
        <time>2024-04-14T09:03:33.000Z</time>
      </trkpt>
      <trkpt lat="48.43115" lon="2.3914">
        <ele>127.40000152588</ele>
        <time>2024-04-14T09:03:37.000Z</time>
      </trkpt>
      <trkpt lat="48.43119" lon="2.39143">
        <ele>128</ele>
        <time>2024-04-14T09:03:39.000Z</time>
      </trkpt>
      <trkpt lat="48.43121" lon="2.39144">
        <ele>128.39999389648</ele>
        <time>2024-04-14T09:03:40.000Z</time>
      </trkpt>
      <trkpt lat="48.43126" lon="2.39146">
        <ele>129.80000305176</ele>
        <time>2024-04-14T09:03:43.000Z</time>
      </trkpt>
      <trkpt lat="48.43127" lon="2.39146">
        <ele>130.60000610352</ele>
        <time>2024-04-14T09:03:44.000Z</time>
      </trkpt>
      <trkpt lat="48.43128" lon="2.39145">
        <ele>130.80000305176</ele>
        <time>2024-04-14T09:03:45.000Z</time>
      </trkpt>
      <trkpt lat="48.43134" lon="2.39142">
        <ele>132.19999694824</ele>
        <time>2024-04-14T09:03:49.000Z</time>
      </trkpt>
      <trkpt lat="48.43141" lon="2.39136">
        <ele>133.19999694824</ele>
        <time>2024-04-14T09:03:53.000Z</time>
      </trkpt>
      <trkpt lat="48.43148" lon="2.39133">
        <ele>134.19999694824</ele>
        <time>2024-04-14T09:03:57.000Z</time>
      </trkpt>
      <trkpt lat="48.43158" lon="2.39126">
        <ele>135.19999694824</ele>
        <time>2024-04-14T09:04:02.000Z</time>
      </trkpt>
      <trkpt lat="48.4316" lon="2.39124">
        <ele>135.39999389648</ele>
        <time>2024-04-14T09:04:03.000Z</time>
      </trkpt>
      <trkpt lat="48.43167" lon="2.39118">
        <ele>136.60000610352</ele>
        <time>2024-04-14T09:04:07.000Z</time>
      </trkpt>
      <trkpt lat="48.43174" lon="2.39113">
        <ele>136.80000305176</ele>
        <time>2024-04-14T09:04:10.000Z</time>
      </trkpt>
      <trkpt lat="48.43181" lon="2.39109">
        <ele>137.60000610352</ele>
        <time>2024-04-14T09:04:13.000Z</time>
      </trkpt>
      <trkpt lat="48.43192" lon="2.39099">
        <ele>138.60000610352</ele>
        <time>2024-04-14T09:04:19.000Z</time>
      </trkpt>
      <trkpt lat="48.43194" lon="2.39098">
        <ele>138.80000305176</ele>
        <time>2024-04-14T09:04:20.000Z</time>
      </trkpt>
      <trkpt lat="48.4321" lon="2.39089">
        <ele>139.39999389648</ele>
        <time>2024-04-14T09:04:26.000Z</time>
      </trkpt>
      <trkpt lat="48.43212" lon="2.39088">
        <ele>139.60000610352</ele>
        <time>2024-04-14T09:04:32.000Z</time>
      </trkpt>
      <trkpt lat="48.43212" lon="2.39083">
        <ele>139.39999389648</ele>
        <time>2024-04-14T09:04:42.000Z</time>
      </trkpt>
      <trkpt lat="48.43212" lon="2.39081">
        <ele>139.39999389648</ele>
        <time>2024-04-14T09:04:43.000Z</time>
      </trkpt>
      <trkpt lat="48.4321" lon="2.39066">
        <ele>139.39999389648</ele>
        <time>2024-04-14T09:04:48.000Z</time>
      </trkpt>
      <trkpt lat="48.43206" lon="2.39043">
        <ele>139.80000305176</ele>
        <time>2024-04-14T09:04:54.000Z</time>
      </trkpt>
      <trkpt lat="48.43205" lon="2.39039">
        <ele>139.80000305176</ele>
        <time>2024-04-14T09:04:55.000Z</time>
      </trkpt>
      <trkpt lat="48.43198" lon="2.39011">
        <ele>140.19999694824</ele>
        <time>2024-04-14T09:05:03.000Z</time>
      </trkpt>
      <trkpt lat="48.43185" lon="2.38969">
        <ele>139.80000305176</ele>
        <time>2024-04-14T09:05:11.000Z</time>
      </trkpt>
      <trkpt lat="48.43172" lon="2.38928">
        <ele>139.80000305176</ele>
        <time>2024-04-14T09:05:18.000Z</time>
      </trkpt>
      <trkpt lat="48.43168" lon="2.38915">
        <ele>140.19999694824</ele>
        <time>2024-04-14T09:05:22.000Z</time>
      </trkpt>
      <trkpt lat="48.43167" lon="2.38911">
        <ele>140.19999694824</ele>
        <time>2024-04-14T09:05:24.000Z</time>
      </trkpt>
      <trkpt lat="48.43168" lon="2.38908">
        <ele>140.39999389648</ele>
        <time>2024-04-14T09:05:27.000Z</time>
      </trkpt>
      <trkpt lat="48.43172" lon="2.3891">
        <ele>140.60000610352</ele>
        <time>2024-04-14T09:05:30.000Z</time>
      </trkpt>
      <trkpt lat="48.43181" lon="2.38915">
        <ele>140.39999389648</ele>
        <time>2024-04-14T09:05:34.000Z</time>
      </trkpt>
      <trkpt lat="48.43183" lon="2.38915">
        <ele>140.19999694824</ele>
        <time>2024-04-14T09:05:40.000Z</time>
      </trkpt>
      <trkpt lat="48.43186" lon="2.38914">
        <ele>140.19999694824</ele>
        <time>2024-04-14T09:05:50.000Z</time>
      </trkpt>
      <trkpt lat="48.43189" lon="2.38913">
        <ele>140.60000610352</ele>
        <time>2024-04-14T09:05:56.000Z</time>
      </trkpt>
      <trkpt lat="48.4319" lon="2.38915">
        <ele>140.19999694824</ele>
        <time>2024-04-14T09:06:02.000Z</time>
      </trkpt>
      <trkpt lat="48.43193" lon="2.38913">
        <ele>140.60000610352</ele>
        <time>2024-04-14T09:06:08.000Z</time>
      </trkpt>
      <trkpt lat="48.43195" lon="2.38904">
        <ele>140.39999389648</ele>
        <time>2024-04-14T09:06:16.000Z</time>
      </trkpt>
      <trkpt lat="48.432" lon="2.38896">
        <ele>140.60000610352</ele>
        <time>2024-04-14T09:06:22.000Z</time>
      </trkpt>
      <trkpt lat="48.43197" lon="2.38888">
        <ele>140.39999389648</ele>
        <time>2024-04-14T09:06:30.000Z</time>
      </trkpt>
      <trkpt lat="48.43195" lon="2.38887">
        <ele>140.39999389648</ele>
        <time>2024-04-14T09:06:32.000Z</time>
      </trkpt>
      <trkpt lat="48.43191" lon="2.38879">
        <ele>140</ele>
        <time>2024-04-14T09:06:35.000Z</time>
      </trkpt>
      <trkpt lat="48.43188" lon="2.38869">
        <ele>140.39999389648</ele>
        <time>2024-04-14T09:06:40.000Z</time>
      </trkpt>
      <trkpt lat="48.43189" lon="2.38866">
        <ele>140.39999389648</ele>
        <time>2024-04-14T09:06:42.000Z</time>
      </trkpt>
      <trkpt lat="48.43191" lon="2.3886">
        <ele>140.39999389648</ele>
        <time>2024-04-14T09:06:45.000Z</time>
      </trkpt>
      <trkpt lat="48.43192" lon="2.38857">
        <ele>140.39999389648</ele>
        <time>2024-04-14T09:06:50.000Z</time>
      </trkpt>
      <trkpt lat="48.43194" lon="2.38854">
        <ele>140.19999694824</ele>
        <time>2024-04-14T09:06:57.000Z</time>
      </trkpt>
      <trkpt lat="48.43199" lon="2.38848">
        <ele>140.39999389648</ele>
        <time>2024-04-14T09:07:02.000Z</time>
      </trkpt>
      <trkpt lat="48.432" lon="2.38846">
        <ele>140.39999389648</ele>
        <time>2024-04-14T09:07:03.000Z</time>
      </trkpt>
      <trkpt lat="48.43211" lon="2.38839">
        <ele>140.19999694824</ele>
        <time>2024-04-14T09:07:08.000Z</time>
      </trkpt>
      <trkpt lat="48.43214" lon="2.38837">
        <ele>139.80000305176</ele>
        <time>2024-04-14T09:07:09.000Z</time>
      </trkpt>
      <trkpt lat="48.43226" lon="2.38831">
        <ele>139.39999389648</ele>
        <time>2024-04-14T09:07:13.000Z</time>
      </trkpt>
      <trkpt lat="48.43229" lon="2.38828">
        <ele>139.60000610352</ele>
        <time>2024-04-14T09:07:14.000Z</time>
      </trkpt>
      <trkpt lat="48.43241" lon="2.38809">
        <ele>138.39999389648</ele>
        <time>2024-04-14T09:07:18.000Z</time>
      </trkpt>
      <trkpt lat="48.43247" lon="2.38801">
        <ele>137.60000610352</ele>
        <time>2024-04-14T09:07:20.000Z</time>
      </trkpt>
      <trkpt lat="48.4325" lon="2.38796">
        <ele>137.39999389648</ele>
        <time>2024-04-14T09:07:21.000Z</time>
      </trkpt>
      <trkpt lat="48.43256" lon="2.38786">
        <ele>136</ele>
        <time>2024-04-14T09:07:24.000Z</time>
      </trkpt>
      <trkpt lat="48.43256" lon="2.38786">
        <ele>135.80000305176</ele>
        <time>2024-04-14T09:07:25.000Z</time>
      </trkpt>
      <trkpt lat="48.43251" lon="2.38788">
        <ele>135.80000305176</ele>
        <time>2024-04-14T09:07:27.000Z</time>
      </trkpt>
      <trkpt lat="48.43243" lon="2.38795">
        <ele>136.19999694824</ele>
        <time>2024-04-14T09:07:30.000Z</time>
      </trkpt>
      <trkpt lat="48.43234" lon="2.38801">
        <ele>137.19999694824</ele>
        <time>2024-04-14T09:07:33.000Z</time>
      </trkpt>
      <trkpt lat="48.43224" lon="2.38805">
        <ele>138.19999694824</ele>
        <time>2024-04-14T09:07:37.000Z</time>
      </trkpt>
      <trkpt lat="48.43214" lon="2.38812">
        <ele>139</ele>
        <time>2024-04-14T09:07:43.000Z</time>
      </trkpt>
      <trkpt lat="48.4321" lon="2.38811">
        <ele>139</ele>
        <time>2024-04-14T09:07:45.000Z</time>
      </trkpt>
      <trkpt lat="48.43205" lon="2.38805">
        <ele>138.60000610352</ele>
        <time>2024-04-14T09:07:48.000Z</time>
      </trkpt>
      <trkpt lat="48.43204" lon="2.38801">
        <ele>138.39999389648</ele>
        <time>2024-04-14T09:07:49.000Z</time>
      </trkpt>
      <trkpt lat="48.43197" lon="2.38777">
        <ele>137.39999389648</ele>
        <time>2024-04-14T09:07:55.000Z</time>
      </trkpt>
      <trkpt lat="48.43197" lon="2.38771">
        <ele>137</ele>
        <time>2024-04-14T09:07:56.000Z</time>
      </trkpt>
      <trkpt lat="48.43194" lon="2.38749">
        <ele>135.60000610352</ele>
        <time>2024-04-14T09:07:59.000Z</time>
      </trkpt>
      <trkpt lat="48.43194" lon="2.38735">
        <ele>134.19999694824</ele>
        <time>2024-04-14T09:08:01.000Z</time>
      </trkpt>
      <trkpt lat="48.43194" lon="2.38729">
        <ele>133.19999694824</ele>
        <time>2024-04-14T09:08:02.000Z</time>
      </trkpt>
      <trkpt lat="48.43197" lon="2.38723">
        <ele>132</ele>
        <time>2024-04-14T09:08:03.000Z</time>
      </trkpt>
      <trkpt lat="48.43202" lon="2.38718">
        <ele>131</ele>
        <time>2024-04-14T09:08:04.000Z</time>
      </trkpt>
      <trkpt lat="48.43205" lon="2.38715">
        <ele>130.19999694824</ele>
        <time>2024-04-14T09:08:05.000Z</time>
      </trkpt>
      <trkpt lat="48.43207" lon="2.38714">
        <ele>129.60000610352</ele>
        <time>2024-04-14T09:08:06.000Z</time>
      </trkpt>
      <trkpt lat="48.43217" lon="2.38717">
        <ele>129.80000305176</ele>
        <time>2024-04-14T09:08:09.000Z</time>
      </trkpt>
      <trkpt lat="48.43241" lon="2.38727">
        <ele>130.39999389648</ele>
        <time>2024-04-14T09:08:15.000Z</time>
      </trkpt>
      <trkpt lat="48.4325" lon="2.3873">
        <ele>130.60000610352</ele>
        <time>2024-04-14T09:08:17.000Z</time>
      </trkpt>
      <trkpt lat="48.43261" lon="2.38736">
        <ele>132</ele>
        <time>2024-04-14T09:08:20.000Z</time>
      </trkpt>
      <trkpt lat="48.43275" lon="2.38735">
        <ele>133.19999694824</ele>
        <time>2024-04-14T09:08:24.000Z</time>
      </trkpt>
      <trkpt lat="48.43278" lon="2.38737">
        <ele>133.39999389648</ele>
        <time>2024-04-14T09:08:25.000Z</time>
      </trkpt>
      <trkpt lat="48.43285" lon="2.38739">
        <ele>134.19999694824</ele>
        <time>2024-04-14T09:08:27.000Z</time>
      </trkpt>
      <trkpt lat="48.43295" lon="2.38741">
        <ele>135.19999694824</ele>
        <time>2024-04-14T09:08:30.000Z</time>
      </trkpt>
      <trkpt lat="48.43303" lon="2.3874">
        <ele>136</ele>
        <time>2024-04-14T09:08:32.000Z</time>
      </trkpt>
      <trkpt lat="48.43307" lon="2.38738">
        <ele>136.39999389648</ele>
        <time>2024-04-14T09:08:33.000Z</time>
      </trkpt>
      <trkpt lat="48.43325" lon="2.38737">
        <ele>137.39999389648</ele>
        <time>2024-04-14T09:08:38.000Z</time>
      </trkpt>
      <trkpt lat="48.43327" lon="2.3874">
        <ele>137.60000610352</ele>
        <time>2024-04-14T09:08:39.000Z</time>
      </trkpt>
      <trkpt lat="48.43335" lon="2.38758">
        <ele>138.60000610352</ele>
        <time>2024-04-14T09:08:43.000Z</time>
      </trkpt>
      <trkpt lat="48.43336" lon="2.38762">
        <ele>138.80000305176</ele>
        <time>2024-04-14T09:08:44.000Z</time>
      </trkpt>
      <trkpt lat="48.43343" lon="2.38782">
        <ele>139.60000610352</ele>
        <time>2024-04-14T09:08:49.000Z</time>
      </trkpt>
      <trkpt lat="48.43354" lon="2.3877">
        <ele>139.60000610352</ele>
        <time>2024-04-14T09:08:54.000Z</time>
      </trkpt>
      <trkpt lat="48.43356" lon="2.38766">
        <ele>139.60000610352</ele>
        <time>2024-04-14T09:08:55.000Z</time>
      </trkpt>
      <trkpt lat="48.43366" lon="2.38751">
        <ele>139</ele>
        <time>2024-04-14T09:09:00.000Z</time>
      </trkpt>
      <trkpt lat="48.43371" lon="2.38742">
        <ele>138.60000610352</ele>
        <time>2024-04-14T09:09:02.000Z</time>
      </trkpt>
      <trkpt lat="48.43376" lon="2.38735">
        <ele>138</ele>
        <time>2024-04-14T09:09:04.000Z</time>
      </trkpt>
      <trkpt lat="48.43379" lon="2.38734">
        <ele>137.60000610352</ele>
        <time>2024-04-14T09:09:05.000Z</time>
      </trkpt>
      <trkpt lat="48.43383" lon="2.38734">
        <ele>137.39999389648</ele>
        <time>2024-04-14T09:09:06.000Z</time>
      </trkpt>
      <trkpt lat="48.43394" lon="2.38734">
        <ele>136</ele>
        <time>2024-04-14T09:09:09.000Z</time>
      </trkpt>
      <trkpt lat="48.434" lon="2.38731">
        <ele>134.60000610352</ele>
        <time>2024-04-14T09:09:11.000Z</time>
      </trkpt>
      <trkpt lat="48.43406" lon="2.38733">
        <ele>133</ele>
        <time>2024-04-14T09:09:13.000Z</time>
      </trkpt>
      <trkpt lat="48.43408" lon="2.38735">
        <ele>132.60000610352</ele>
        <time>2024-04-14T09:09:14.000Z</time>
      </trkpt>
      <trkpt lat="48.43413" lon="2.38742">
        <ele>132</ele>
        <time>2024-04-14T09:09:16.000Z</time>
      </trkpt>
      <trkpt lat="48.43417" lon="2.38756">
        <ele>132.60000610352</ele>
        <time>2024-04-14T09:09:19.000Z</time>
      </trkpt>
      <trkpt lat="48.43426" lon="2.38781">
        <ele>132.80000305176</ele>
        <time>2024-04-14T09:09:24.000Z</time>
      </trkpt>
      <trkpt lat="48.43434" lon="2.38791">
        <ele>130.19999694824</ele>
        <time>2024-04-14T09:09:27.000Z</time>
      </trkpt>
      <trkpt lat="48.43438" lon="2.38791">
        <ele>128.80000305176</ele>
        <time>2024-04-14T09:09:28.000Z</time>
      </trkpt>
      <trkpt lat="48.43441" lon="2.3879">
        <ele>127.19999694824</ele>
        <time>2024-04-14T09:09:29.000Z</time>
      </trkpt>
      <trkpt lat="48.43444" lon="2.3879">
        <ele>125.40000152588</ele>
        <time>2024-04-14T09:09:30.000Z</time>
      </trkpt>
      <trkpt lat="48.43446" lon="2.38792">
        <ele>124.19999694824</ele>
        <time>2024-04-14T09:09:31.000Z</time>
      </trkpt>
      <trkpt lat="48.43448" lon="2.38793">
        <ele>123</ele>
        <time>2024-04-14T09:09:32.000Z</time>
      </trkpt>
      <trkpt lat="48.43451" lon="2.38795">
        <ele>122</ele>
        <time>2024-04-14T09:09:33.000Z</time>
      </trkpt>
      <trkpt lat="48.43455" lon="2.38796">
        <ele>120.59999847412</ele>
        <time>2024-04-14T09:09:34.000Z</time>
      </trkpt>
      <trkpt lat="48.43459" lon="2.38796">
        <ele>119.19999694824</ele>
        <time>2024-04-14T09:09:35.000Z</time>
      </trkpt>
      <trkpt lat="48.43462" lon="2.38795">
        <ele>117.59999847412</ele>
        <time>2024-04-14T09:09:36.000Z</time>
      </trkpt>
      <trkpt lat="48.43469" lon="2.38795">
        <ele>116.19999694824</ele>
        <time>2024-04-14T09:09:38.000Z</time>
      </trkpt>
      <trkpt lat="48.43477" lon="2.38799">
        <ele>116.80000305176</ele>
        <time>2024-04-14T09:09:41.000Z</time>
      </trkpt>
      <trkpt lat="48.4348" lon="2.38802">
        <ele>117.59999847412</ele>
        <time>2024-04-14T09:09:42.000Z</time>
      </trkpt>
      <trkpt lat="48.43487" lon="2.38821">
        <ele>118.80000305176</ele>
        <time>2024-04-14T09:09:45.000Z</time>
      </trkpt>
      <trkpt lat="48.43492" lon="2.38839">
        <ele>120</ele>
        <time>2024-04-14T09:09:48.000Z</time>
      </trkpt>
      <trkpt lat="48.43495" lon="2.3885">
        <ele>121</ele>
        <time>2024-04-14T09:09:51.000Z</time>
      </trkpt>
      <trkpt lat="48.43496" lon="2.38854">
        <ele>121.40000152588</ele>
        <time>2024-04-14T09:09:52.000Z</time>
      </trkpt>
      <trkpt lat="48.43496" lon="2.3886">
        <ele>122.40000152588</ele>
        <time>2024-04-14T09:09:54.000Z</time>
      </trkpt>
      <trkpt lat="48.43495" lon="2.38865">
        <ele>123.59999847412</ele>
        <time>2024-04-14T09:09:56.000Z</time>
      </trkpt>
      <trkpt lat="48.43494" lon="2.38867">
        <ele>124</ele>
        <time>2024-04-14T09:09:57.000Z</time>
      </trkpt>
      <trkpt lat="48.43491" lon="2.3887">
        <ele>125</ele>
        <time>2024-04-14T09:09:59.000Z</time>
      </trkpt>
      <trkpt lat="48.43487" lon="2.38876">
        <ele>126.40000152588</ele>
        <time>2024-04-14T09:10:02.000Z</time>
      </trkpt>
      <trkpt lat="48.43484" lon="2.38881">
        <ele>127.80000305176</ele>
        <time>2024-04-14T09:10:05.000Z</time>
      </trkpt>
      <trkpt lat="48.43484" lon="2.38883">
        <ele>129</ele>
        <time>2024-04-14T09:10:06.000Z</time>
      </trkpt>
      <trkpt lat="48.43481" lon="2.38888">
        <ele>130.19999694824</ele>
        <time>2024-04-14T09:10:09.000Z</time>
      </trkpt>
      <trkpt lat="48.43478" lon="2.38892">
        <ele>131</ele>
        <time>2024-04-14T09:10:11.000Z</time>
      </trkpt>
      <trkpt lat="48.43477" lon="2.38893">
        <ele>131.39999389648</ele>
        <time>2024-04-14T09:10:12.000Z</time>
      </trkpt>
      <trkpt lat="48.43475" lon="2.38895">
        <ele>131.80000305176</ele>
        <time>2024-04-14T09:10:13.000Z</time>
      </trkpt>
      <trkpt lat="48.43474" lon="2.38898">
        <ele>132.80000305176</ele>
        <time>2024-04-14T09:10:15.000Z</time>
      </trkpt>
      <trkpt lat="48.43473" lon="2.38903">
        <ele>133.80000305176</ele>
        <time>2024-04-14T09:10:17.000Z</time>
      </trkpt>
      <trkpt lat="48.43473" lon="2.38905">
        <ele>134</ele>
        <time>2024-04-14T09:10:18.000Z</time>
      </trkpt>
      <trkpt lat="48.43472" lon="2.38908">
        <ele>134.19999694824</ele>
        <time>2024-04-14T09:10:19.000Z</time>
      </trkpt>
      <trkpt lat="48.43469" lon="2.38918">
        <ele>135.19999694824</ele>
        <time>2024-04-14T09:10:23.000Z</time>
      </trkpt>
      <trkpt lat="48.43468" lon="2.38918">
        <ele>135.60000610352</ele>
        <time>2024-04-14T09:10:25.000Z</time>
      </trkpt>
      <trkpt lat="48.43468" lon="2.38916">
        <ele>135.39999389648</ele>
        <time>2024-04-14T09:10:26.000Z</time>
      </trkpt>
      <trkpt lat="48.43467" lon="2.38901">
        <ele>135.39999389648</ele>
        <time>2024-04-14T09:10:31.000Z</time>
      </trkpt>
      <trkpt lat="48.43457" lon="2.38892">
        <ele>135.60000610352</ele>
        <time>2024-04-14T09:10:37.000Z</time>
      </trkpt>
      <trkpt lat="48.43449" lon="2.38891">
        <ele>136</ele>
        <time>2024-04-14T09:10:40.000Z</time>
      </trkpt>
      <trkpt lat="48.43441" lon="2.3889">
        <ele>136.39999389648</ele>
        <time>2024-04-14T09:10:43.000Z</time>
      </trkpt>
      <trkpt lat="48.43439" lon="2.38889">
        <ele>136.60000610352</ele>
        <time>2024-04-14T09:10:44.000Z</time>
      </trkpt>
      <trkpt lat="48.43429" lon="2.38888">
        <ele>137.60000610352</ele>
        <time>2024-04-14T09:10:48.000Z</time>
      </trkpt>
      <trkpt lat="48.43417" lon="2.38887">
        <ele>138.60000610352</ele>
        <time>2024-04-14T09:10:53.000Z</time>
      </trkpt>
      <trkpt lat="48.43403" lon="2.38888">
        <ele>139.60000610352</ele>
        <time>2024-04-14T09:11:00.000Z</time>
      </trkpt>
      <trkpt lat="48.43388" lon="2.38888">
        <ele>140.19999694824</ele>
        <time>2024-04-14T09:11:09.000Z</time>
      </trkpt>
      <trkpt lat="48.43383" lon="2.38888">
        <ele>139.60000610352</ele>
        <time>2024-04-14T09:11:15.000Z</time>
      </trkpt>
      <trkpt lat="48.43383" lon="2.38888">
        <ele>139.39999389648</ele>
        <time>2024-04-14T09:11:29.000Z</time>
      </trkpt>
      <trkpt lat="48.43383" lon="2.38888">
        <ele>140.39999389648</ele>
        <time>2024-04-14T09:11:39.000Z</time>
      </trkpt>
      <trkpt lat="48.43383" lon="2.38888">
        <ele>140.39999389648</ele>
        <time>2024-04-14T09:11:52.000Z</time>
      </trkpt>
      <trkpt lat="48.43382" lon="2.38888">
        <ele>140.39999389648</ele>
        <time>2024-04-14T09:12:07.000Z</time>
      </trkpt>
      <trkpt lat="48.43382" lon="2.38888">
        <ele>140.39999389648</ele>
        <time>2024-04-14T09:12:17.000Z</time>
      </trkpt>
      <trkpt lat="48.43382" lon="2.38888">
        <ele>140.60000610352</ele>
        <time>2024-04-14T09:12:29.000Z</time>
      </trkpt>
      <trkpt lat="48.4338" lon="2.38887">
        <ele>140.60000610352</ele>
        <time>2024-04-14T09:12:30.000Z</time>
      </trkpt>
      <trkpt lat="48.4338" lon="2.38886">
        <ele>140.80000305176</ele>
        <time>2024-04-14T09:12:38.000Z</time>
      </trkpt>
      <trkpt lat="48.4338" lon="2.38885">
        <ele>140.60000610352</ele>
        <time>2024-04-14T09:12:46.000Z</time>
      </trkpt>
      <trkpt lat="48.43379" lon="2.38883">
        <ele>140.60000610352</ele>
        <time>2024-04-14T09:12:47.000Z</time>
      </trkpt>
      <trkpt lat="48.43372" lon="2.38873">
        <ele>140.80000305176</ele>
        <time>2024-04-14T09:12:52.000Z</time>
      </trkpt>
      <trkpt lat="48.43364" lon="2.38869">
        <ele>140.80000305176</ele>
        <time>2024-04-14T09:12:55.000Z</time>
      </trkpt>
      <trkpt lat="48.4336" lon="2.3887">
        <ele>140.80000305176</ele>
        <time>2024-04-14T09:12:56.000Z</time>
      </trkpt>
      <trkpt lat="48.43352" lon="2.38873">
        <ele>141</ele>
        <time>2024-04-14T09:12:58.000Z</time>
      </trkpt>
      <trkpt lat="48.43331" lon="2.38878">
        <ele>140.60000610352</ele>
        <time>2024-04-14T09:13:03.000Z</time>
      </trkpt>
      <trkpt lat="48.43313" lon="2.38878">
        <ele>141.19999694824</ele>
        <time>2024-04-14T09:13:08.000Z</time>
      </trkpt>
      <trkpt lat="48.43306" lon="2.38882">
        <ele>141.19999694824</ele>
        <time>2024-04-14T09:13:10.000Z</time>
      </trkpt>
      <trkpt lat="48.43302" lon="2.38888">
        <ele>140.80000305176</ele>
        <time>2024-04-14T09:13:12.000Z</time>
      </trkpt>
      <trkpt lat="48.43297" lon="2.38897">
        <ele>140.80000305176</ele>
        <time>2024-04-14T09:13:14.000Z</time>
      </trkpt>
      <trkpt lat="48.43291" lon="2.38912">
        <ele>140.80000305176</ele>
        <time>2024-04-14T09:13:17.000Z</time>
      </trkpt>
      <trkpt lat="48.43282" lon="2.38953">
        <ele>141.19999694824</ele>
        <time>2024-04-14T09:13:24.000Z</time>
      </trkpt>
      <trkpt lat="48.43294" lon="2.38973">
        <ele>141.39999389648</ele>
        <time>2024-04-14T09:13:29.000Z</time>
      </trkpt>
      <trkpt lat="48.43307" lon="2.38982">
        <ele>141.39999389648</ele>
        <time>2024-04-14T09:13:33.000Z</time>
      </trkpt>
      <trkpt lat="48.43311" lon="2.38989">
        <ele>141.19999694824</ele>
        <time>2024-04-14T09:13:35.000Z</time>
      </trkpt>
      <trkpt lat="48.43322" lon="2.39014">
        <ele>141.60000610352</ele>
        <time>2024-04-14T09:13:39.000Z</time>
      </trkpt>
      <trkpt lat="48.43328" lon="2.3903">
        <ele>141.60000610352</ele>
        <time>2024-04-14T09:13:41.000Z</time>
      </trkpt>
      <trkpt lat="48.43333" lon="2.39053">
        <ele>141.60000610352</ele>
        <time>2024-04-14T09:13:44.000Z</time>
      </trkpt>
      <trkpt lat="48.43334" lon="2.3906">
        <ele>141.80000305176</ele>
        <time>2024-04-14T09:13:45.000Z</time>
      </trkpt>
      <trkpt lat="48.43342" lon="2.39083">
        <ele>141.39999389648</ele>
        <time>2024-04-14T09:13:49.000Z</time>
      </trkpt>
      <trkpt lat="48.43353" lon="2.39106">
        <ele>141.60000610352</ele>
        <time>2024-04-14T09:13:54.000Z</time>
      </trkpt>
      <trkpt lat="48.43352" lon="2.39123">
        <ele>141.60000610352</ele>
        <time>2024-04-14T09:13:58.000Z</time>
      </trkpt>
      <trkpt lat="48.43344" lon="2.39142">
        <ele>141.80000305176</ele>
        <time>2024-04-14T09:14:03.000Z</time>
      </trkpt>
      <trkpt lat="48.43342" lon="2.39147">
        <ele>141.80000305176</ele>
        <time>2024-04-14T09:14:04.000Z</time>
      </trkpt>
      <trkpt lat="48.43329" lon="2.39166">
        <ele>141.39999389648</ele>
        <time>2024-04-14T09:14:09.000Z</time>
      </trkpt>
      <trkpt lat="48.43316" lon="2.39175">
        <ele>141</ele>
        <time>2024-04-14T09:14:13.000Z</time>
      </trkpt>
      <trkpt lat="48.43313" lon="2.39175">
        <ele>140.80000305176</ele>
        <time>2024-04-14T09:14:14.000Z</time>
      </trkpt>
      <trkpt lat="48.43301" lon="2.3917">
        <ele>141.39999389648</ele>
        <time>2024-04-14T09:14:18.000Z</time>
      </trkpt>
      <trkpt lat="48.43296" lon="2.39167">
        <ele>141</ele>
        <time>2024-04-14T09:14:21.000Z</time>
      </trkpt>
      <trkpt lat="48.43291" lon="2.39168">
        <ele>141</ele>
        <time>2024-04-14T09:14:23.000Z</time>
      </trkpt>
      <trkpt lat="48.43286" lon="2.39169">
        <ele>141.19999694824</ele>
        <time>2024-04-14T09:14:25.000Z</time>
      </trkpt>
      <trkpt lat="48.43271" lon="2.39173">
        <ele>141.19999694824</ele>
        <time>2024-04-14T09:14:29.000Z</time>
      </trkpt>
      <trkpt lat="48.43249" lon="2.39184">
        <ele>140.80000305176</ele>
        <time>2024-04-14T09:14:34.000Z</time>
      </trkpt>
      <trkpt lat="48.43233" lon="2.39178">
        <ele>140</ele>
        <time>2024-04-14T09:14:38.000Z</time>
      </trkpt>
      <trkpt lat="48.43223" lon="2.39155">
        <ele>139.80000305176</ele>
        <time>2024-04-14T09:14:42.000Z</time>
      </trkpt>
      <trkpt lat="48.43217" lon="2.39149">
        <ele>139.39999389648</ele>
        <time>2024-04-14T09:14:44.000Z</time>
      </trkpt>
      <trkpt lat="48.43203" lon="2.39147">
        <ele>138.80000305176</ele>
        <time>2024-04-14T09:14:47.000Z</time>
      </trkpt>
      <trkpt lat="48.43198" lon="2.39148">
        <ele>138.19999694824</ele>
        <time>2024-04-14T09:14:48.000Z</time>
      </trkpt>
      <trkpt lat="48.43187" lon="2.39156">
        <ele>136.60000610352</ele>
        <time>2024-04-14T09:14:50.000Z</time>
      </trkpt>
      <trkpt lat="48.43183" lon="2.39167">
        <ele>136</ele>
        <time>2024-04-14T09:14:51.000Z</time>
      </trkpt>
      <trkpt lat="48.43181" lon="2.39175">
        <ele>135.80000305176</ele>
        <time>2024-04-14T09:14:52.000Z</time>
      </trkpt>
      <trkpt lat="48.4318" lon="2.39189">
        <ele>137.60000610352</ele>
        <time>2024-04-14T09:14:56.000Z</time>
      </trkpt>
      <trkpt lat="48.43181" lon="2.39191">
        <ele>138</ele>
        <time>2024-04-14T09:14:57.000Z</time>
      </trkpt>
      <trkpt lat="48.43184" lon="2.39194">
        <ele>138.80000305176</ele>
        <time>2024-04-14T09:14:59.000Z</time>
      </trkpt>
      <trkpt lat="48.43189" lon="2.39195">
        <ele>139.39999389648</ele>
        <time>2024-04-14T09:15:01.000Z</time>
      </trkpt>
      <trkpt lat="48.43193" lon="2.39196">
        <ele>139.60000610352</ele>
        <time>2024-04-14T09:15:02.000Z</time>
      </trkpt>
      <trkpt lat="48.43201" lon="2.39196">
        <ele>140</ele>
        <time>2024-04-14T09:15:03.000Z</time>
      </trkpt>
      <trkpt lat="48.43217" lon="2.39196">
        <ele>140.60000610352</ele>
        <time>2024-04-14T09:15:05.000Z</time>
      </trkpt>
      <trkpt lat="48.43224" lon="2.39196">
        <ele>140.80000305176</ele>
        <time>2024-04-14T09:15:06.000Z</time>
      </trkpt>
      <trkpt lat="48.43231" lon="2.39195">
        <ele>141</ele>
        <time>2024-04-14T09:15:07.000Z</time>
      </trkpt>
      <trkpt lat="48.4327" lon="2.39194">
        <ele>141.39999389648</ele>
        <time>2024-04-14T09:15:13.000Z</time>
      </trkpt>
      <trkpt lat="48.433" lon="2.39195">
        <ele>141.19999694824</ele>
        <time>2024-04-14T09:15:19.000Z</time>
      </trkpt>
      <trkpt lat="48.43303" lon="2.39197">
        <ele>141.19999694824</ele>
        <time>2024-04-14T09:15:20.000Z</time>
      </trkpt>
      <trkpt lat="48.43307" lon="2.39201">
        <ele>141</ele>
        <time>2024-04-14T09:15:22.000Z</time>
      </trkpt>
      <trkpt lat="48.43308" lon="2.39216">
        <ele>141.19999694824</ele>
        <time>2024-04-14T09:15:27.000Z</time>
      </trkpt>
      <trkpt lat="48.43307" lon="2.3922">
        <ele>141.39999389648</ele>
        <time>2024-04-14T09:15:28.000Z</time>
      </trkpt>
      <trkpt lat="48.43303" lon="2.39251">
        <ele>141.60000610352</ele>
        <time>2024-04-14T09:15:33.000Z</time>
      </trkpt>
      <trkpt lat="48.43299" lon="2.39281">
        <ele>141.80000305176</ele>
        <time>2024-04-14T09:15:38.000Z</time>
      </trkpt>
      <trkpt lat="48.43296" lon="2.39284">
        <ele>142</ele>
        <time>2024-04-14T09:15:39.000Z</time>
      </trkpt>
      <trkpt lat="48.43285" lon="2.39289">
        <ele>141.39999389648</ele>
        <time>2024-04-14T09:15:42.000Z</time>
      </trkpt>
      <trkpt lat="48.43276" lon="2.39292">
        <ele>141.19999694824</ele>
        <time>2024-04-14T09:15:44.000Z</time>
      </trkpt>
      <trkpt lat="48.43265" lon="2.39297">
        <ele>140.60000610352</ele>
        <time>2024-04-14T09:15:46.000Z</time>
      </trkpt>
      <trkpt lat="48.43257" lon="2.39306">
        <ele>140.60000610352</ele>
        <time>2024-04-14T09:15:48.000Z</time>
      </trkpt>
      <trkpt lat="48.43249" lon="2.39322">
        <ele>140.80000305176</ele>
        <time>2024-04-14T09:15:51.000Z</time>
      </trkpt>
      <trkpt lat="48.43246" lon="2.39327">
        <ele>140.80000305176</ele>
        <time>2024-04-14T09:15:52.000Z</time>
      </trkpt>
      <trkpt lat="48.43238" lon="2.39347">
        <ele>140</ele>
        <time>2024-04-14T09:15:56.000Z</time>
      </trkpt>
      <trkpt lat="48.43234" lon="2.39363">
        <ele>140</ele>
        <time>2024-04-14T09:15:59.000Z</time>
      </trkpt>
      <trkpt lat="48.43226" lon="2.39391">
        <ele>139.60000610352</ele>
        <time>2024-04-14T09:16:04.000Z</time>
      </trkpt>
      <trkpt lat="48.43222" lon="2.39417">
        <ele>138.80000305176</ele>
        <time>2024-04-14T09:16:08.000Z</time>
      </trkpt>
      <trkpt lat="48.43219" lon="2.39429">
        <ele>138.60000610352</ele>
        <time>2024-04-14T09:16:10.000Z</time>
      </trkpt>
      <trkpt lat="48.43216" lon="2.39438">
        <ele>138</ele>
        <time>2024-04-14T09:16:12.000Z</time>
      </trkpt>
      <trkpt lat="48.43213" lon="2.3944">
        <ele>138</ele>
        <time>2024-04-14T09:16:14.000Z</time>
      </trkpt>
      <trkpt lat="48.43211" lon="2.3944">
        <ele>137.80000305176</ele>
        <time>2024-04-14T09:16:15.000Z</time>
      </trkpt>
      <trkpt lat="48.43206" lon="2.39432">
        <ele>137.60000610352</ele>
        <time>2024-04-14T09:16:18.000Z</time>
      </trkpt>
      <trkpt lat="48.43207" lon="2.39406">
        <ele>137.19999694824</ele>
        <time>2024-04-14T09:16:22.000Z</time>
      </trkpt>
      <trkpt lat="48.43211" lon="2.39366">
        <ele>137.80000305176</ele>
        <time>2024-04-14T09:16:28.000Z</time>
      </trkpt>
      <trkpt lat="48.43209" lon="2.39357">
        <ele>137.19999694824</ele>
        <time>2024-04-14T09:16:30.000Z</time>
      </trkpt>
      <trkpt lat="48.43206" lon="2.39354">
        <ele>136.80000305176</ele>
        <time>2024-04-14T09:16:31.000Z</time>
      </trkpt>
      <trkpt lat="48.43196" lon="2.39334">
        <ele>136.19999694824</ele>
        <time>2024-04-14T09:16:35.000Z</time>
      </trkpt>
      <trkpt lat="48.43189" lon="2.39326">
        <ele>135.60000610352</ele>
        <time>2024-04-14T09:16:37.000Z</time>
      </trkpt>
      <trkpt lat="48.43176" lon="2.39312">
        <ele>135.39999389648</ele>
        <time>2024-04-14T09:16:40.000Z</time>
      </trkpt>
      <trkpt lat="48.43163" lon="2.39309">
        <ele>134.60000610352</ele>
        <time>2024-04-14T09:16:43.000Z</time>
      </trkpt>
      <trkpt lat="48.4316" lon="2.39313">
        <ele>134.19999694824</ele>
        <time>2024-04-14T09:16:44.000Z</time>
      </trkpt>
      <trkpt lat="48.43155" lon="2.39317">
        <ele>133.60000610352</ele>
        <time>2024-04-14T09:16:45.000Z</time>
      </trkpt>
      <trkpt lat="48.43147" lon="2.39329">
        <ele>133.19999694824</ele>
        <time>2024-04-14T09:16:47.000Z</time>
      </trkpt>
      <trkpt lat="48.43145" lon="2.39335">
        <ele>133.39999389648</ele>
        <time>2024-04-14T09:16:48.000Z</time>
      </trkpt>
      <trkpt lat="48.43146" lon="2.39352">
        <ele>133.19999694824</ele>
        <time>2024-04-14T09:16:50.000Z</time>
      </trkpt>
      <trkpt lat="48.43148" lon="2.39368">
        <ele>133.19999694824</ele>
        <time>2024-04-14T09:16:52.000Z</time>
      </trkpt>
      <trkpt lat="48.43153" lon="2.39394">
        <ele>133.80000305176</ele>
        <time>2024-04-14T09:16:55.000Z</time>
      </trkpt>
      <trkpt lat="48.43164" lon="2.39446">
        <ele>134.60000610352</ele>
        <time>2024-04-14T09:17:01.000Z</time>
      </trkpt>
      <trkpt lat="48.43167" lon="2.39454">
        <ele>134.80000305176</ele>
        <time>2024-04-14T09:17:02.000Z</time>
      </trkpt>
      <trkpt lat="48.43183" lon="2.39506">
        <ele>134.80000305176</ele>
        <time>2024-04-14T09:17:09.000Z</time>
      </trkpt>
      <trkpt lat="48.43192" lon="2.39535">
        <ele>135</ele>
        <time>2024-04-14T09:17:13.000Z</time>
      </trkpt>
      <trkpt lat="48.43199" lon="2.39547">
        <ele>135.60000610352</ele>
        <time>2024-04-14T09:17:15.000Z</time>
      </trkpt>
      <trkpt lat="48.43214" lon="2.39577">
        <ele>135.39999389648</ele>
        <time>2024-04-14T09:17:20.000Z</time>
      </trkpt>
      <trkpt lat="48.43239" lon="2.39597">
        <ele>136.39999389648</ele>
        <time>2024-04-14T09:17:26.000Z</time>
      </trkpt>
      <trkpt lat="48.43264" lon="2.39603">
        <ele>137</ele>
        <time>2024-04-14T09:17:31.000Z</time>
      </trkpt>
      <trkpt lat="48.43294" lon="2.39606">
        <ele>136.39999389648</ele>
        <time>2024-04-14T09:17:37.000Z</time>
      </trkpt>
      <trkpt lat="48.43309" lon="2.39613">
        <ele>136.19999694824</ele>
        <time>2024-04-14T09:17:40.000Z</time>
      </trkpt>
      <trkpt lat="48.4332" lon="2.39623">
        <ele>135.80000305176</ele>
        <time>2024-04-14T09:17:42.000Z</time>
      </trkpt>
      <trkpt lat="48.4333" lon="2.39636">
        <ele>134.39999389648</ele>
        <time>2024-04-14T09:17:44.000Z</time>
      </trkpt>
      <trkpt lat="48.43341" lon="2.39668">
        <ele>134.19999694824</ele>
        <time>2024-04-14T09:17:48.000Z</time>
      </trkpt>
      <trkpt lat="48.43344" lon="2.39687">
        <ele>134.39999389648</ele>
        <time>2024-04-14T09:17:50.000Z</time>
      </trkpt>
      <trkpt lat="48.43347" lon="2.39715">
        <ele>135.19999694824</ele>
        <time>2024-04-14T09:17:53.000Z</time>
      </trkpt>
      <trkpt lat="48.43351" lon="2.39733">
        <ele>135.80000305176</ele>
        <time>2024-04-14T09:17:55.000Z</time>
      </trkpt>
      <trkpt lat="48.43358" lon="2.39754">
        <ele>137</ele>
        <time>2024-04-14T09:17:58.000Z</time>
      </trkpt>
      <trkpt lat="48.43372" lon="2.39791">
        <ele>137.39999389648</ele>
        <time>2024-04-14T09:18:04.000Z</time>
      </trkpt>
      <trkpt lat="48.43373" lon="2.39798">
        <ele>137.60000610352</ele>
        <time>2024-04-14T09:18:05.000Z</time>
      </trkpt>
      <trkpt lat="48.4339" lon="2.39841">
        <ele>137.80000305176</ele>
        <time>2024-04-14T09:18:11.000Z</time>
      </trkpt>
      <trkpt lat="48.43397" lon="2.39857">
        <ele>138</ele>
        <time>2024-04-14T09:18:13.000Z</time>
      </trkpt>
      <trkpt lat="48.4341" lon="2.39884">
        <ele>138.39999389648</ele>
        <time>2024-04-14T09:18:17.000Z</time>
      </trkpt>
      <trkpt lat="48.43414" lon="2.3989">
        <ele>138.39999389648</ele>
        <time>2024-04-14T09:18:18.000Z</time>
      </trkpt>
      <trkpt lat="48.43436" lon="2.39932">
        <ele>138.39999389648</ele>
        <time>2024-04-14T09:18:24.000Z</time>
      </trkpt>
      <trkpt lat="48.43441" lon="2.39949">
        <ele>138.39999389648</ele>
        <time>2024-04-14T09:18:26.000Z</time>
      </trkpt>
      <trkpt lat="48.43446" lon="2.39975">
        <ele>138.60000610352</ele>
        <time>2024-04-14T09:18:29.000Z</time>
      </trkpt>
      <trkpt lat="48.43449" lon="2.39991">
        <ele>139.19999694824</ele>
        <time>2024-04-14T09:18:31.000Z</time>
      </trkpt>
      <trkpt lat="48.43451" lon="2.40031">
        <ele>139.80000305176</ele>
        <time>2024-04-14T09:18:36.000Z</time>
      </trkpt>
      <trkpt lat="48.43458" lon="2.40093">
        <ele>139.60000610352</ele>
        <time>2024-04-14T09:18:43.000Z</time>
      </trkpt>
      <trkpt lat="48.43465" lon="2.40118">
        <ele>140.19999694824</ele>
        <time>2024-04-14T09:18:46.000Z</time>
      </trkpt>
      <trkpt lat="48.43471" lon="2.40142">
        <ele>141</ele>
        <time>2024-04-14T09:18:49.000Z</time>
      </trkpt>
      <trkpt lat="48.43473" lon="2.40151">
        <ele>141.19999694824</ele>
        <time>2024-04-14T09:18:50.000Z</time>
      </trkpt>
      <trkpt lat="48.43474" lon="2.40168">
        <ele>141.19999694824</ele>
        <time>2024-04-14T09:18:52.000Z</time>
      </trkpt>
      <trkpt lat="48.43475" lon="2.40186">
        <ele>141.60000610352</ele>
        <time>2024-04-14T09:18:54.000Z</time>
      </trkpt>
      <trkpt lat="48.43475" lon="2.40213">
        <ele>141.39999389648</ele>
        <time>2024-04-14T09:18:57.000Z</time>
      </trkpt>
      <trkpt lat="48.43477" lon="2.40241">
        <ele>141</ele>
        <time>2024-04-14T09:19:00.000Z</time>
      </trkpt>
      <trkpt lat="48.4348" lon="2.40269">
        <ele>141.19999694824</ele>
        <time>2024-04-14T09:19:03.000Z</time>
      </trkpt>
      <trkpt lat="48.43484" lon="2.40284">
        <ele>141</ele>
        <time>2024-04-14T09:19:05.000Z</time>
      </trkpt>
      <trkpt lat="48.4349" lon="2.403">
        <ele>140.80000305176</ele>
        <time>2024-04-14T09:19:08.000Z</time>
      </trkpt>
      <trkpt lat="48.43493" lon="2.40309">
        <ele>140.60000610352</ele>
        <time>2024-04-14T09:19:10.000Z</time>
      </trkpt>
      <trkpt lat="48.43493" lon="2.40314">
        <ele>140.39999389648</ele>
        <time>2024-04-14T09:19:11.000Z</time>
      </trkpt>
      <trkpt lat="48.43492" lon="2.40316">
        <ele>140.19999694824</ele>
        <time>2024-04-14T09:19:12.000Z</time>
      </trkpt>
      <trkpt lat="48.43491" lon="2.40319">
        <ele>139.80000305176</ele>
        <time>2024-04-14T09:19:13.000Z</time>
      </trkpt>
      <trkpt lat="48.43484" lon="2.40321">
        <ele>139.19999694824</ele>
        <time>2024-04-14T09:19:16.000Z</time>
      </trkpt>
      <trkpt lat="48.43481" lon="2.4032">
        <ele>139</ele>
        <time>2024-04-14T09:19:17.000Z</time>
      </trkpt>
      <trkpt lat="48.43471" lon="2.40333">
        <ele>138.60000610352</ele>
        <time>2024-04-14T09:19:21.000Z</time>
      </trkpt>
      <trkpt lat="48.4347" lon="2.40337">
        <ele>138</ele>
        <time>2024-04-14T09:19:22.000Z</time>
      </trkpt>
      <trkpt lat="48.43466" lon="2.40346">
        <ele>137.39999389648</ele>
        <time>2024-04-14T09:19:24.000Z</time>
      </trkpt>
      <trkpt lat="48.43466" lon="2.40351">
        <ele>137</ele>
        <time>2024-04-14T09:19:25.000Z</time>
      </trkpt>
      <trkpt lat="48.43467" lon="2.40358">
        <ele>136.19999694824</ele>
        <time>2024-04-14T09:19:26.000Z</time>
      </trkpt>
      <trkpt lat="48.43467" lon="2.40365">
        <ele>135.80000305176</ele>
        <time>2024-04-14T09:19:27.000Z</time>
      </trkpt>
      <trkpt lat="48.43464" lon="2.40378">
        <ele>135.80000305176</ele>
        <time>2024-04-14T09:19:29.000Z</time>
      </trkpt>
      <trkpt lat="48.43463" lon="2.40384">
        <ele>135.39999389648</ele>
        <time>2024-04-14T09:19:30.000Z</time>
      </trkpt>
      <trkpt lat="48.43463" lon="2.40392">
        <ele>134.80000305176</ele>
        <time>2024-04-14T09:19:32.000Z</time>
      </trkpt>
      <trkpt lat="48.43463" lon="2.40395">
        <ele>134.39999389648</ele>
        <time>2024-04-14T09:19:33.000Z</time>
      </trkpt>
      <trkpt lat="48.43463" lon="2.40399">
        <ele>133.39999389648</ele>
        <time>2024-04-14T09:19:34.000Z</time>
      </trkpt>
      <trkpt lat="48.43464" lon="2.40403">
        <ele>132.39999389648</ele>
        <time>2024-04-14T09:19:35.000Z</time>
      </trkpt>
      <trkpt lat="48.43464" lon="2.40405">
        <ele>131.39999389648</ele>
        <time>2024-04-14T09:19:36.000Z</time>
      </trkpt>
      <trkpt lat="48.43464" lon="2.40408">
        <ele>130.39999389648</ele>
        <time>2024-04-14T09:19:37.000Z</time>
      </trkpt>
      <trkpt lat="48.43463" lon="2.40412">
        <ele>129</ele>
        <time>2024-04-14T09:19:38.000Z</time>
      </trkpt>
      <trkpt lat="48.43462" lon="2.40415">
        <ele>127.59999847412</ele>
        <time>2024-04-14T09:19:39.000Z</time>
      </trkpt>
      <trkpt lat="48.43461" lon="2.40417">
        <ele>126</ele>
        <time>2024-04-14T09:19:40.000Z</time>
      </trkpt>
      <trkpt lat="48.43458" lon="2.40418">
        <ele>125</ele>
        <time>2024-04-14T09:19:41.000Z</time>
      </trkpt>
      <trkpt lat="48.43455" lon="2.40418">
        <ele>124.59999847412</ele>
        <time>2024-04-14T09:19:42.000Z</time>
      </trkpt>
      <trkpt lat="48.43446" lon="2.4042">
        <ele>124</ele>
        <time>2024-04-14T09:19:47.000Z</time>
      </trkpt>
      <trkpt lat="48.43445" lon="2.40421">
        <ele>123.59999847412</ele>
        <time>2024-04-14T09:19:56.000Z</time>
      </trkpt>
      <trkpt lat="48.43445" lon="2.40421">
        <ele>123.59999847412</ele>
        <time>2024-04-14T09:20:13.000Z</time>
      </trkpt>
      <trkpt lat="48.43444" lon="2.40421">
        <ele>123.59999847412</ele>
        <time>2024-04-14T09:20:30.000Z</time>
      </trkpt>
      <trkpt lat="48.43438" lon="2.40422">
        <ele>122.59999847412</ele>
        <time>2024-04-14T09:20:32.000Z</time>
      </trkpt>
      <trkpt lat="48.43433" lon="2.40422">
        <ele>122</ele>
        <time>2024-04-14T09:20:33.000Z</time>
      </trkpt>
      <trkpt lat="48.43429" lon="2.40422">
        <ele>121.19999694824</ele>
        <time>2024-04-14T09:20:34.000Z</time>
      </trkpt>
      <trkpt lat="48.43426" lon="2.40424">
        <ele>120.19999694824</ele>
        <time>2024-04-14T09:20:35.000Z</time>
      </trkpt>
      <trkpt lat="48.4342" lon="2.40427">
        <ele>118.40000152588</ele>
        <time>2024-04-14T09:20:37.000Z</time>
      </trkpt>
      <trkpt lat="48.43413" lon="2.4043">
        <ele>116.40000152588</ele>
        <time>2024-04-14T09:20:39.000Z</time>
      </trkpt>
      <trkpt lat="48.4341" lon="2.40428">
        <ele>115.19999694824</ele>
        <time>2024-04-14T09:20:40.000Z</time>
      </trkpt>
      <trkpt lat="48.43407" lon="2.40427">
        <ele>114</ele>
        <time>2024-04-14T09:20:41.000Z</time>
      </trkpt>
      <trkpt lat="48.43403" lon="2.40424">
        <ele>113</ele>
        <time>2024-04-14T09:20:42.000Z</time>
      </trkpt>
      <trkpt lat="48.43401" lon="2.40419">
        <ele>112.59999847412</ele>
        <time>2024-04-14T09:20:43.000Z</time>
      </trkpt>
      <trkpt lat="48.43399" lon="2.40413">
        <ele>112.59999847412</ele>
        <time>2024-04-14T09:20:44.000Z</time>
      </trkpt>
      <trkpt lat="48.43398" lon="2.40408">
        <ele>113.80000305176</ele>
        <time>2024-04-14T09:20:47.000Z</time>
      </trkpt>
      <trkpt lat="48.43397" lon="2.40406">
        <ele>113.80000305176</ele>
        <time>2024-04-14T09:20:53.000Z</time>
      </trkpt>
      <trkpt lat="48.43397" lon="2.40406">
        <ele>113.80000305176</ele>
        <time>2024-04-14T09:21:05.000Z</time>
      </trkpt>
      <trkpt lat="48.43397" lon="2.40406">
        <ele>114</ele>
        <time>2024-04-14T09:21:08.000Z</time>
      </trkpt>
      <trkpt lat="48.43397" lon="2.40405">
        <ele>113.80000305176</ele>
        <time>2024-04-14T09:21:11.000Z</time>
      </trkpt>
      <trkpt lat="48.43397" lon="2.40405">
        <ele>114</ele>
        <time>2024-04-14T09:21:25.000Z</time>
      </trkpt>
      <trkpt lat="48.43397" lon="2.40405">
        <ele>114</ele>
        <time>2024-04-14T09:21:41.000Z</time>
      </trkpt>
      <trkpt lat="48.43396" lon="2.40405">
        <ele>114</ele>
        <time>2024-04-14T09:21:51.000Z</time>
      </trkpt>
      <trkpt lat="48.43393" lon="2.40401">
        <ele>113.80000305176</ele>
        <time>2024-04-14T09:21:57.000Z</time>
      </trkpt>
      <trkpt lat="48.43388" lon="2.40392">
        <ele>113.59999847412</ele>
        <time>2024-04-14T09:22:03.000Z</time>
      </trkpt>
      <trkpt lat="48.43388" lon="2.40392">
        <ele>113.59999847412</ele>
        <time>2024-04-14T09:22:20.000Z</time>
      </trkpt>
      <trkpt lat="48.43388" lon="2.40392">
        <ele>113.40000152588</ele>
        <time>2024-04-14T09:22:36.000Z</time>
      </trkpt>
      <trkpt lat="48.43388" lon="2.40391">
        <ele>113.40000152588</ele>
        <time>2024-04-14T09:22:53.000Z</time>
      </trkpt>
      <trkpt lat="48.43388" lon="2.40391">
        <ele>113.80000305176</ele>
        <time>2024-04-14T09:23:10.000Z</time>
      </trkpt>
      <trkpt lat="48.43387" lon="2.40391">
        <ele>113.59999847412</ele>
        <time>2024-04-14T09:23:26.000Z</time>
      </trkpt>
      <trkpt lat="48.43387" lon="2.40391">
        <ele>113.59999847412</ele>
        <time>2024-04-14T09:23:44.000Z</time>
      </trkpt>
      <trkpt lat="48.43387" lon="2.40391">
        <ele>113.59999847412</ele>
        <time>2024-04-14T09:24:00.000Z</time>
      </trkpt>
      <trkpt lat="48.43378" lon="2.40376">
        <ele>113.80000305176</ele>
        <time>2024-04-14T09:24:06.000Z</time>
      </trkpt>
      <trkpt lat="48.43374" lon="2.40368">
        <ele>115</ele>
        <time>2024-04-14T09:24:08.000Z</time>
      </trkpt>
      <trkpt lat="48.43371" lon="2.40356">
        <ele>116.40000152588</ele>
        <time>2024-04-14T09:24:11.000Z</time>
      </trkpt>
      <trkpt lat="48.43371" lon="2.40349">
        <ele>117.19999694824</ele>
        <time>2024-04-14T09:24:13.000Z</time>
      </trkpt>
      <trkpt lat="48.43372" lon="2.40345">
        <ele>117.40000152588</ele>
        <time>2024-04-14T09:24:14.000Z</time>
      </trkpt>
      <trkpt lat="48.43375" lon="2.40326">
        <ele>118.59999847412</ele>
        <time>2024-04-14T09:24:19.000Z</time>
      </trkpt>
      <trkpt lat="48.43375" lon="2.40323">
        <ele>119</ele>
        <time>2024-04-14T09:24:20.000Z</time>
      </trkpt>
      <trkpt lat="48.43375" lon="2.40313">
        <ele>119.80000305176</ele>
        <time>2024-04-14T09:24:23.000Z</time>
      </trkpt>
      <trkpt lat="48.43374" lon="2.40307">
        <ele>120.40000152588</ele>
        <time>2024-04-14T09:24:25.000Z</time>
      </trkpt>
      <trkpt lat="48.43372" lon="2.40303">
        <ele>121</ele>
        <time>2024-04-14T09:24:27.000Z</time>
      </trkpt>
      <trkpt lat="48.43371" lon="2.40295">
        <ele>122.19999694824</ele>
        <time>2024-04-14T09:24:30.000Z</time>
      </trkpt>
      <trkpt lat="48.43371" lon="2.40287">
        <ele>123.40000152588</ele>
        <time>2024-04-14T09:24:33.000Z</time>
      </trkpt>
      <trkpt lat="48.43371" lon="2.4028">
        <ele>124</ele>
        <time>2024-04-14T09:24:35.000Z</time>
      </trkpt>
      <trkpt lat="48.43371" lon="2.40278">
        <ele>124.59999847412</ele>
        <time>2024-04-14T09:24:36.000Z</time>
      </trkpt>
      <trkpt lat="48.43373" lon="2.40266">
        <ele>125.80000305176</ele>
        <time>2024-04-14T09:24:40.000Z</time>
      </trkpt>
      <trkpt lat="48.43374" lon="2.40259">
        <ele>126.59999847412</ele>
        <time>2024-04-14T09:24:43.000Z</time>
      </trkpt>
      <trkpt lat="48.43374" lon="2.40257">
        <ele>127</ele>
        <time>2024-04-14T09:24:44.000Z</time>
      </trkpt>
      <trkpt lat="48.43379" lon="2.4025">
        <ele>128</ele>
        <time>2024-04-14T09:24:49.000Z</time>
      </trkpt>
      <trkpt lat="48.43382" lon="2.40249">
        <ele>128.60000610352</ele>
        <time>2024-04-14T09:24:51.000Z</time>
      </trkpt>
      <trkpt lat="48.43383" lon="2.40248">
        <ele>128.80000305176</ele>
        <time>2024-04-14T09:24:52.000Z</time>
      </trkpt>
      <trkpt lat="48.43384" lon="2.40248">
        <ele>129.19999694824</ele>
        <time>2024-04-14T09:24:53.000Z</time>
      </trkpt>
      <trkpt lat="48.43389" lon="2.40242">
        <ele>130.19999694824</ele>
        <time>2024-04-14T09:24:57.000Z</time>
      </trkpt>
      <trkpt lat="48.43391" lon="2.4024">
        <ele>130.39999389648</ele>
        <time>2024-04-14T09:24:58.000Z</time>
      </trkpt>
      <trkpt lat="48.434" lon="2.40232">
        <ele>131.39999389648</ele>
        <time>2024-04-14T09:25:03.000Z</time>
      </trkpt>
      <trkpt lat="48.43404" lon="2.40228">
        <ele>132.19999694824</ele>
        <time>2024-04-14T09:25:05.000Z</time>
      </trkpt>
      <trkpt lat="48.43417" lon="2.40206">
        <ele>131.60000610352</ele>
        <time>2024-04-14T09:25:11.000Z</time>
      </trkpt>
      <trkpt lat="48.43424" lon="2.4018">
        <ele>132.80000305176</ele>
        <time>2024-04-14T09:25:17.000Z</time>
      </trkpt>
      <trkpt lat="48.43421" lon="2.40182">
        <ele>133.19999694824</ele>
        <time>2024-04-14T09:25:21.000Z</time>
      </trkpt>
      <trkpt lat="48.43412" lon="2.40183">
        <ele>132</ele>
        <time>2024-04-14T09:25:26.000Z</time>
      </trkpt>
      <trkpt lat="48.4341" lon="2.40181">
        <ele>131.60000610352</ele>
        <time>2024-04-14T09:25:27.000Z</time>
      </trkpt>
      <trkpt lat="48.434" lon="2.4018">
        <ele>131.60000610352</ele>
        <time>2024-04-14T09:25:32.000Z</time>
      </trkpt>
      <trkpt lat="48.43396" lon="2.40188">
        <ele>131.80000305176</ele>
        <time>2024-04-14T09:25:35.000Z</time>
      </trkpt>
      <trkpt lat="48.43393" lon="2.40188">
        <ele>132</ele>
        <time>2024-04-14T09:25:37.000Z</time>
      </trkpt>
      <trkpt lat="48.4339" lon="2.40186">
        <ele>132.19999694824</ele>
        <time>2024-04-14T09:25:38.000Z</time>
      </trkpt>
      <trkpt lat="48.43381" lon="2.40175">
        <ele>132</ele>
        <time>2024-04-14T09:25:41.000Z</time>
      </trkpt>
      <trkpt lat="48.43368" lon="2.40162">
        <ele>131.60000610352</ele>
        <time>2024-04-14T09:25:46.000Z</time>
      </trkpt>
      <trkpt lat="48.43359" lon="2.40141">
        <ele>131.80000305176</ele>
        <time>2024-04-14T09:25:51.000Z</time>
      </trkpt>
      <trkpt lat="48.43355" lon="2.40134">
        <ele>131.60000610352</ele>
        <time>2024-04-14T09:25:53.000Z</time>
      </trkpt>
      <trkpt lat="48.43352" lon="2.40133">
        <ele>131.39999389648</ele>
        <time>2024-04-14T09:25:54.000Z</time>
      </trkpt>
      <trkpt lat="48.43342" lon="2.40134">
        <ele>131.19999694824</ele>
        <time>2024-04-14T09:25:57.000Z</time>
      </trkpt>
      <trkpt lat="48.43339" lon="2.40136">
        <ele>131</ele>
        <time>2024-04-14T09:25:58.000Z</time>
      </trkpt>
      <trkpt lat="48.43335" lon="2.40146">
        <ele>130.39999389648</ele>
        <time>2024-04-14T09:26:01.000Z</time>
      </trkpt>
      <trkpt lat="48.43333" lon="2.40151">
        <ele>129.60000610352</ele>
        <time>2024-04-14T09:26:02.000Z</time>
      </trkpt>
      <trkpt lat="48.4333" lon="2.40155">
        <ele>129</ele>
        <time>2024-04-14T09:26:03.000Z</time>
      </trkpt>
      <trkpt lat="48.43324" lon="2.40165">
        <ele>129.39999389648</ele>
        <time>2024-04-14T09:26:07.000Z</time>
      </trkpt>
      <trkpt lat="48.43321" lon="2.40182">
        <ele>128</ele>
        <time>2024-04-14T09:26:12.000Z</time>
      </trkpt>
      <trkpt lat="48.4332" lon="2.40182">
        <ele>127.59999847412</ele>
        <time>2024-04-14T09:26:13.000Z</time>
      </trkpt>
      <trkpt lat="48.43315" lon="2.40179">
        <ele>126.59999847412</ele>
        <time>2024-04-14T09:26:15.000Z</time>
      </trkpt>
      <trkpt lat="48.43314" lon="2.40176">
        <ele>126</ele>
        <time>2024-04-14T09:26:16.000Z</time>
      </trkpt>
      <trkpt lat="48.43311" lon="2.40173">
        <ele>125.59999847412</ele>
        <time>2024-04-14T09:26:17.000Z</time>
      </trkpt>
      <trkpt lat="48.43307" lon="2.40161">
        <ele>123.80000305176</ele>
        <time>2024-04-14T09:26:20.000Z</time>
      </trkpt>
      <trkpt lat="48.43306" lon="2.40152">
        <ele>122.19999694824</ele>
        <time>2024-04-14T09:26:22.000Z</time>
      </trkpt>
      <trkpt lat="48.43305" lon="2.4015">
        <ele>121.40000152588</ele>
        <time>2024-04-14T09:26:23.000Z</time>
      </trkpt>
      <trkpt lat="48.43303" lon="2.40149">
        <ele>120.59999847412</ele>
        <time>2024-04-14T09:26:24.000Z</time>
      </trkpt>
      <trkpt lat="48.43299" lon="2.40148">
        <ele>119.19999694824</ele>
        <time>2024-04-14T09:26:26.000Z</time>
      </trkpt>
      <trkpt lat="48.43296" lon="2.40147">
        <ele>117.59999847412</ele>
        <time>2024-04-14T09:26:28.000Z</time>
      </trkpt>
      <trkpt lat="48.43293" lon="2.40145">
        <ele>116.19999694824</ele>
        <time>2024-04-14T09:26:30.000Z</time>
      </trkpt>
      <trkpt lat="48.43291" lon="2.40146">
        <ele>115.59999847412</ele>
        <time>2024-04-14T09:26:31.000Z</time>
      </trkpt>
      <trkpt lat="48.4329" lon="2.40147">
        <ele>114.19999694824</ele>
        <time>2024-04-14T09:26:32.000Z</time>
      </trkpt>
      <trkpt lat="48.43288" lon="2.4015">
        <ele>113.19999694824</ele>
        <time>2024-04-14T09:26:34.000Z</time>
      </trkpt>
      <trkpt lat="48.43286" lon="2.4015">
        <ele>112.59999847412</ele>
        <time>2024-04-14T09:26:35.000Z</time>
      </trkpt>
      <trkpt lat="48.43287" lon="2.4015">
        <ele>112.19999694824</ele>
        <time>2024-04-14T09:26:36.000Z</time>
      </trkpt>
      <trkpt lat="48.43284" lon="2.4015">
        <ele>111.80000305176</ele>
        <time>2024-04-14T09:26:43.000Z</time>
      </trkpt>
      <trkpt lat="48.43284" lon="2.4015">
        <ele>111.59999847412</ele>
        <time>2024-04-14T09:26:51.000Z</time>
      </trkpt>
      <trkpt lat="48.43284" lon="2.4015">
        <ele>111.59999847412</ele>
        <time>2024-04-14T09:26:56.000Z</time>
      </trkpt>
      <trkpt lat="48.43284" lon="2.4015">
        <ele>111.59999847412</ele>
        <time>2024-04-14T09:27:11.000Z</time>
      </trkpt>
      <trkpt lat="48.43284" lon="2.4015">
        <ele>111.80000305176</ele>
        <time>2024-04-14T09:27:27.000Z</time>
      </trkpt>
      <trkpt lat="48.43283" lon="2.40144">
        <ele>111.59999847412</ele>
        <time>2024-04-14T09:27:30.000Z</time>
      </trkpt>
      <trkpt lat="48.43283" lon="2.4014">
        <ele>111.19999694824</ele>
        <time>2024-04-14T09:27:31.000Z</time>
      </trkpt>
      <trkpt lat="48.43281" lon="2.40121">
        <ele>110.19999694824</ele>
        <time>2024-04-14T09:27:35.000Z</time>
      </trkpt>
      <trkpt lat="48.43279" lon="2.40115">
        <ele>109.80000305176</ele>
        <time>2024-04-14T09:27:36.000Z</time>
      </trkpt>
      <trkpt lat="48.43272" lon="2.40091">
        <ele>109.19999694824</ele>
        <time>2024-04-14T09:27:40.000Z</time>
      </trkpt>
      <trkpt lat="48.43267" lon="2.40079">
        <ele>109</ele>
        <time>2024-04-14T09:27:42.000Z</time>
      </trkpt>
      <trkpt lat="48.43245" lon="2.40047">
        <ele>108.19999694824</ele>
        <time>2024-04-14T09:27:48.000Z</time>
      </trkpt>
      <trkpt lat="48.4324" lon="2.40043">
        <ele>108.40000152588</ele>
        <time>2024-04-14T09:27:49.000Z</time>
      </trkpt>
      <trkpt lat="48.4323" lon="2.40043">
        <ele>108.19999694824</ele>
        <time>2024-04-14T09:27:51.000Z</time>
      </trkpt>
      <trkpt lat="48.43225" lon="2.40044">
        <ele>107.80000305176</ele>
        <time>2024-04-14T09:27:52.000Z</time>
      </trkpt>
      <trkpt lat="48.43214" lon="2.40049">
        <ele>105.80000305176</ele>
        <time>2024-04-14T09:27:54.000Z</time>
      </trkpt>
      <trkpt lat="48.43208" lon="2.40054">
        <ele>105.59999847412</ele>
        <time>2024-04-14T09:27:55.000Z</time>
      </trkpt>
      <trkpt lat="48.43202" lon="2.40058">
        <ele>104.59999847412</ele>
        <time>2024-04-14T09:27:56.000Z</time>
      </trkpt>
      <trkpt lat="48.43189" lon="2.40068">
        <ele>103</ele>
        <time>2024-04-14T09:27:58.000Z</time>
      </trkpt>
      <trkpt lat="48.43168" lon="2.40077">
        <ele>102.59999847412</ele>
        <time>2024-04-14T09:28:00.000Z</time>
      </trkpt>
      <trkpt lat="48.43154" lon="2.4008">
        <ele>102.40000152588</ele>
        <time>2024-04-14T09:28:01.000Z</time>
      </trkpt>
      <trkpt lat="48.43129" lon="2.40087">
        <ele>101.40000152588</ele>
        <time>2024-04-14T09:28:03.000Z</time>
      </trkpt>
      <trkpt lat="48.43116" lon="2.40091">
        <ele>100</ele>
        <time>2024-04-14T09:28:04.000Z</time>
      </trkpt>
      <trkpt lat="48.43093" lon="2.40098">
        <ele>98.800003051758</ele>
        <time>2024-04-14T09:28:06.000Z</time>
      </trkpt>
      <trkpt lat="48.43058" lon="2.4011">
        <ele>97.599998474121</ele>
        <time>2024-04-14T09:28:09.000Z</time>
      </trkpt>
      <trkpt lat="48.43025" lon="2.40128">
        <ele>96</ele>
        <time>2024-04-14T09:28:12.000Z</time>
      </trkpt>
      <trkpt lat="48.43001" lon="2.4014">
        <ele>94.400001525879</ele>
        <time>2024-04-14T09:28:14.000Z</time>
      </trkpt>
      <trkpt lat="48.42979" lon="2.40149">
        <ele>92.400001525879</ele>
        <time>2024-04-14T09:28:16.000Z</time>
      </trkpt>
      <trkpt lat="48.42967" lon="2.40152">
        <ele>91.400001525879</ele>
        <time>2024-04-14T09:28:17.000Z</time>
      </trkpt>
      <trkpt lat="48.42956" lon="2.40154">
        <ele>91</ele>
        <time>2024-04-14T09:28:18.000Z</time>
      </trkpt>
      <trkpt lat="48.42945" lon="2.40155">
        <ele>90</ele>
        <time>2024-04-14T09:28:19.000Z</time>
      </trkpt>
      <trkpt lat="48.42904" lon="2.40153">
        <ele>88.400001525879</ele>
        <time>2024-04-14T09:28:23.000Z</time>
      </trkpt>
      <trkpt lat="48.42868" lon="2.40161">
        <ele>87.400001525879</ele>
        <time>2024-04-14T09:28:27.000Z</time>
      </trkpt>
      <trkpt lat="48.42859" lon="2.40163">
        <ele>87</ele>
        <time>2024-04-14T09:28:28.000Z</time>
      </trkpt>
      <trkpt lat="48.42842" lon="2.40167">
        <ele>85.800003051758</ele>
        <time>2024-04-14T09:28:30.000Z</time>
      </trkpt>
      <trkpt lat="48.42815" lon="2.40171">
        <ele>84.800003051758</ele>
        <time>2024-04-14T09:28:33.000Z</time>
      </trkpt>
      <trkpt lat="48.42806" lon="2.40172">
        <ele>84.400001525879</ele>
        <time>2024-04-14T09:28:34.000Z</time>
      </trkpt>
      <trkpt lat="48.42789" lon="2.40172">
        <ele>83.400001525879</ele>
        <time>2024-04-14T09:28:36.000Z</time>
      </trkpt>
      <trkpt lat="48.42781" lon="2.40171">
        <ele>83.400001525879</ele>
        <time>2024-04-14T09:28:37.000Z</time>
      </trkpt>
      <trkpt lat="48.42774" lon="2.40167">
        <ele>83</ele>
        <time>2024-04-14T09:28:38.000Z</time>
      </trkpt>
      <trkpt lat="48.42762" lon="2.40158">
        <ele>82.800003051758</ele>
        <time>2024-04-14T09:28:40.000Z</time>
      </trkpt>
      <trkpt lat="48.42759" lon="2.4015">
        <ele>82.599998474121</ele>
        <time>2024-04-14T09:28:41.000Z</time>
      </trkpt>
      <trkpt lat="48.42758" lon="2.40142">
        <ele>82.400001525879</ele>
        <time>2024-04-14T09:28:42.000Z</time>
      </trkpt>
      <trkpt lat="48.42762" lon="2.40126">
        <ele>82.800003051758</ele>
        <time>2024-04-14T09:28:43.000Z</time>
      </trkpt>
      <trkpt lat="48.42765" lon="2.40085">
        <ele>82.400001525879</ele>
        <time>2024-04-14T09:28:46.000Z</time>
      </trkpt>
      <trkpt lat="48.42766" lon="2.40071">
        <ele>82.199996948242</ele>
        <time>2024-04-14T09:28:47.000Z</time>
      </trkpt>
      <trkpt lat="48.42767" lon="2.39982">
        <ele>81.400001525879</ele>
        <time>2024-04-14T09:28:54.000Z</time>
      </trkpt>
      <trkpt lat="48.42766" lon="2.3997">
        <ele>81.400001525879</ele>
        <time>2024-04-14T09:28:55.000Z</time>
      </trkpt>
      <trkpt lat="48.42757" lon="2.39893">
        <ele>80.400001525879</ele>
        <time>2024-04-14T09:29:02.000Z</time>
      </trkpt>
      <trkpt lat="48.42754" lon="2.39873">
        <ele>80.199996948242</ele>
        <time>2024-04-14T09:29:04.000Z</time>
      </trkpt>
      <trkpt lat="48.42749" lon="2.39839">
        <ele>79.599998474121</ele>
        <time>2024-04-14T09:29:08.000Z</time>
      </trkpt>
      <trkpt lat="48.4274" lon="2.39834">
        <ele>79.199996948242</ele>
        <time>2024-04-14T09:29:11.000Z</time>
      </trkpt>
      <trkpt lat="48.42735" lon="2.39833">
        <ele>79.199996948242</ele>
        <time>2024-04-14T09:29:16.000Z</time>
      </trkpt>
      <trkpt lat="48.42732" lon="2.39835">
        <ele>79</ele>
        <time>2024-04-14T09:29:24.000Z</time>
      </trkpt>
      <trkpt lat="48.42731" lon="2.39836">
        <ele>79</ele>
        <time>2024-04-14T09:29:32.000Z</time>
      </trkpt>
      <trkpt lat="48.42725" lon="2.39836">
        <ele>78</ele>
        <time>2024-04-14T09:29:39.000Z</time>
      </trkpt>
      <trkpt lat="48.42718" lon="2.39838">
        <ele>79.400001525879</ele>
        <time>2024-04-14T09:29:45.000Z</time>
      </trkpt>
      <trkpt lat="48.42712" lon="2.39843">
        <ele>79.400001525879</ele>
        <time>2024-04-14T09:29:50.000Z</time>
      </trkpt>
      <trkpt lat="48.42708" lon="2.39843">
        <ele>79.599998474121</ele>
        <time>2024-04-14T09:29:52.000Z</time>
      </trkpt>
      <trkpt lat="48.42697" lon="2.39839">
        <ele>80.400001525879</ele>
        <time>2024-04-14T09:29:58.000Z</time>
      </trkpt>
      <trkpt lat="48.42692" lon="2.3984">
        <ele>80.599998474121</ele>
        <time>2024-04-14T09:30:00.000Z</time>
      </trkpt>
      <trkpt lat="48.42689" lon="2.39848">
        <ele>80.800003051758</ele>
        <time>2024-04-14T09:30:02.000Z</time>
      </trkpt>
      <trkpt lat="48.42688" lon="2.39871">
        <ele>81.199996948242</ele>
        <time>2024-04-14T09:30:06.000Z</time>
      </trkpt>
      <trkpt lat="48.42687" lon="2.39877">
        <ele>81.199996948242</ele>
        <time>2024-04-14T09:30:07.000Z</time>
      </trkpt>
      <trkpt lat="48.42686" lon="2.39892">
        <ele>81.599998474121</ele>
        <time>2024-04-14T09:30:09.000Z</time>
      </trkpt>
      <trkpt lat="48.42686" lon="2.39899">
        <ele>81.800003051758</ele>
        <time>2024-04-14T09:30:10.000Z</time>
      </trkpt>
      <trkpt lat="48.42687" lon="2.39914">
        <ele>82</ele>
        <time>2024-04-14T09:30:12.000Z</time>
      </trkpt>
      <trkpt lat="48.42686" lon="2.39936">
        <ele>82.400001525879</ele>
        <time>2024-04-14T09:30:15.000Z</time>
      </trkpt>
      <trkpt lat="48.42687" lon="2.39944">
        <ele>82.599998474121</ele>
        <time>2024-04-14T09:30:16.000Z</time>
      </trkpt>
      <trkpt lat="48.42686" lon="2.39976">
        <ele>83.400001525879</ele>
        <time>2024-04-14T09:30:20.000Z</time>
      </trkpt>
      <trkpt lat="48.42686" lon="2.39993">
        <ele>83.599998474121</ele>
        <time>2024-04-14T09:30:22.000Z</time>
      </trkpt>
      <trkpt lat="48.42683" lon="2.40034">
        <ele>84.599998474121</ele>
        <time>2024-04-14T09:30:27.000Z</time>
      </trkpt>
      <trkpt lat="48.42682" lon="2.40051">
        <ele>85</ele>
        <time>2024-04-14T09:30:29.000Z</time>
      </trkpt>
      <trkpt lat="48.4268" lon="2.40075">
        <ele>85.599998474121</ele>
        <time>2024-04-14T09:30:32.000Z</time>
      </trkpt>
      <trkpt lat="48.42678" lon="2.4009">
        <ele>86.599998474121</ele>
        <time>2024-04-14T09:30:34.000Z</time>
      </trkpt>
      <trkpt lat="48.42676" lon="2.40096">
        <ele>86.800003051758</ele>
        <time>2024-04-14T09:30:35.000Z</time>
      </trkpt>
      <trkpt lat="48.42673" lon="2.40101">
        <ele>86.800003051758</ele>
        <time>2024-04-14T09:30:36.000Z</time>
      </trkpt>
      <trkpt lat="48.42655" lon="2.40112">
        <ele>86.199996948242</ele>
        <time>2024-04-14T09:30:40.000Z</time>
      </trkpt>
      <trkpt lat="48.4265" lon="2.40114">
        <ele>86</ele>
        <time>2024-04-14T09:30:41.000Z</time>
      </trkpt>
      <trkpt lat="48.42631" lon="2.4012">
        <ele>86.199996948242</ele>
        <time>2024-04-14T09:30:45.000Z</time>
      </trkpt>
      <trkpt lat="48.42622" lon="2.4012">
        <ele>86.800003051758</ele>
        <time>2024-04-14T09:30:47.000Z</time>
      </trkpt>
      <trkpt lat="48.42587" lon="2.40119">
        <ele>86.199996948242</ele>
        <time>2024-04-14T09:30:54.000Z</time>
      </trkpt>
      <trkpt lat="48.4255" lon="2.40116">
        <ele>86.400001525879</ele>
        <time>2024-04-14T09:31:01.000Z</time>
      </trkpt>
      <trkpt lat="48.42511" lon="2.40114">
        <ele>87.800003051758</ele>
        <time>2024-04-14T09:31:09.000Z</time>
      </trkpt>
      <trkpt lat="48.4249" lon="2.40115">
        <ele>89</ele>
        <time>2024-04-14T09:31:14.000Z</time>
      </trkpt>
      <trkpt lat="48.42478" lon="2.40115">
        <ele>89.599998474121</ele>
        <time>2024-04-14T09:31:17.000Z</time>
      </trkpt>
      <trkpt lat="48.4247" lon="2.40116">
        <ele>90</ele>
        <time>2024-04-14T09:31:19.000Z</time>
      </trkpt>
      <trkpt lat="48.42459" lon="2.40118">
        <ele>91.199996948242</ele>
        <time>2024-04-14T09:31:22.000Z</time>
      </trkpt>
      <trkpt lat="48.42452" lon="2.4012">
        <ele>91.400001525879</ele>
        <time>2024-04-14T09:31:24.000Z</time>
      </trkpt>
      <trkpt lat="48.42442" lon="2.40126">
        <ele>92.199996948242</ele>
        <time>2024-04-14T09:31:27.000Z</time>
      </trkpt>
      <trkpt lat="48.42431" lon="2.40133">
        <ele>93.199996948242</ele>
        <time>2024-04-14T09:31:30.000Z</time>
      </trkpt>
      <trkpt lat="48.42428" lon="2.40135">
        <ele>93.599998474121</ele>
        <time>2024-04-14T09:31:31.000Z</time>
      </trkpt>
      <trkpt lat="48.42401" lon="2.40145">
        <ele>93</ele>
        <time>2024-04-14T09:31:38.000Z</time>
      </trkpt>
      <trkpt lat="48.42395" lon="2.40144">
        <ele>92.599998474121</ele>
        <time>2024-04-14T09:31:39.000Z</time>
      </trkpt>
      <trkpt lat="48.42389" lon="2.40143">
        <ele>92.400001525879</ele>
        <time>2024-04-14T09:31:40.000Z</time>
      </trkpt>
      <trkpt lat="48.42375" lon="2.40142">
        <ele>91.599998474121</ele>
        <time>2024-04-14T09:31:42.000Z</time>
      </trkpt>
      <trkpt lat="48.42368" lon="2.40142">
        <ele>91</ele>
        <time>2024-04-14T09:31:43.000Z</time>
      </trkpt>
      <trkpt lat="48.42355" lon="2.40144">
        <ele>89.800003051758</ele>
        <time>2024-04-14T09:31:45.000Z</time>
      </trkpt>
      <trkpt lat="48.42333" lon="2.40148">
        <ele>88.400001525879</ele>
        <time>2024-04-14T09:31:48.000Z</time>
      </trkpt>
      <trkpt lat="48.42318" lon="2.40151">
        <ele>87.199996948242</ele>
        <time>2024-04-14T09:31:50.000Z</time>
      </trkpt>
      <trkpt lat="48.42304" lon="2.40157">
        <ele>86.400001525879</ele>
        <time>2024-04-14T09:31:52.000Z</time>
      </trkpt>
      <trkpt lat="48.42298" lon="2.40162">
        <ele>86.199996948242</ele>
        <time>2024-04-14T09:31:53.000Z</time>
      </trkpt>
      <trkpt lat="48.42293" lon="2.40169">
        <ele>86</ele>
        <time>2024-04-14T09:31:54.000Z</time>
      </trkpt>
      <trkpt lat="48.42281" lon="2.40191">
        <ele>85.400001525879</ele>
        <time>2024-04-14T09:31:57.000Z</time>
      </trkpt>
      <trkpt lat="48.42278" lon="2.40198">
        <ele>85.400001525879</ele>
        <time>2024-04-14T09:31:58.000Z</time>
      </trkpt>
      <trkpt lat="48.42272" lon="2.40211">
        <ele>85.199996948242</ele>
        <time>2024-04-14T09:32:00.000Z</time>
      </trkpt>
      <trkpt lat="48.42255" lon="2.40247">
        <ele>84.800003051758</ele>
        <time>2024-04-14T09:32:05.000Z</time>
      </trkpt>
      <trkpt lat="48.42233" lon="2.40299">
        <ele>85.400001525879</ele>
        <time>2024-04-14T09:32:11.000Z</time>
      </trkpt>
      <trkpt lat="48.42205" lon="2.40365">
        <ele>86</ele>
        <time>2024-04-14T09:32:19.000Z</time>
      </trkpt>
      <trkpt lat="48.42203" lon="2.4037">
        <ele>86.599998474121</ele>
        <time>2024-04-14T09:32:20.000Z</time>
      </trkpt>
      <trkpt lat="48.42201" lon="2.40383">
        <ele>87.199996948242</ele>
        <time>2024-04-14T09:32:23.000Z</time>
      </trkpt>
      <trkpt lat="48.42202" lon="2.40392">
        <ele>87.599998474121</ele>
        <time>2024-04-14T09:32:25.000Z</time>
      </trkpt>
      <trkpt lat="48.42206" lon="2.40407">
        <ele>88.400001525879</ele>
        <time>2024-04-14T09:32:28.000Z</time>
      </trkpt>
      <trkpt lat="48.42212" lon="2.40422">
        <ele>88.800003051758</ele>
        <time>2024-04-14T09:32:31.000Z</time>
      </trkpt>
      <trkpt lat="48.42215" lon="2.4043">
        <ele>90</ele>
        <time>2024-04-14T09:32:33.000Z</time>
      </trkpt>
      <trkpt lat="48.42219" lon="2.40437">
        <ele>90.599998474121</ele>
        <time>2024-04-14T09:32:35.000Z</time>
      </trkpt>
      <trkpt lat="48.42222" lon="2.40443">
        <ele>91</ele>
        <time>2024-04-14T09:32:37.000Z</time>
      </trkpt>
      <trkpt lat="48.42236" lon="2.40468">
        <ele>92.199996948242</ele>
        <time>2024-04-14T09:32:43.000Z</time>
      </trkpt>
      <trkpt lat="48.42246" lon="2.40489">
        <ele>93.199996948242</ele>
        <time>2024-04-14T09:32:48.000Z</time>
      </trkpt>
      <trkpt lat="48.42249" lon="2.40496">
        <ele>93.800003051758</ele>
        <time>2024-04-14T09:32:50.000Z</time>
      </trkpt>
      <trkpt lat="48.42251" lon="2.405">
        <ele>94.400001525879</ele>
        <time>2024-04-14T09:32:51.000Z</time>
      </trkpt>
      <trkpt lat="48.42261" lon="2.40519">
        <ele>95.400001525879</ele>
        <time>2024-04-14T09:32:57.000Z</time>
      </trkpt>
      <trkpt lat="48.42262" lon="2.40522">
        <ele>95.599998474121</ele>
        <time>2024-04-14T09:32:58.000Z</time>
      </trkpt>
      <trkpt lat="48.42268" lon="2.40533">
        <ele>96.599998474121</ele>
        <time>2024-04-14T09:33:02.000Z</time>
      </trkpt>
      <trkpt lat="48.42271" lon="2.40545">
        <ele>97</ele>
        <time>2024-04-14T09:33:05.000Z</time>
      </trkpt>
      <trkpt lat="48.42273" lon="2.40555">
        <ele>97.800003051758</ele>
        <time>2024-04-14T09:33:08.000Z</time>
      </trkpt>
      <trkpt lat="48.42274" lon="2.40567">
        <ele>98.800003051758</ele>
        <time>2024-04-14T09:33:12.000Z</time>
      </trkpt>
      <trkpt lat="48.42275" lon="2.40571">
        <ele>99.199996948242</ele>
        <time>2024-04-14T09:33:13.000Z</time>
      </trkpt>
      <trkpt lat="48.42278" lon="2.40583">
        <ele>99.800003051758</ele>
        <time>2024-04-14T09:33:16.000Z</time>
      </trkpt>
      <trkpt lat="48.42284" lon="2.40599">
        <ele>101</ele>
        <time>2024-04-14T09:33:21.000Z</time>
      </trkpt>
      <trkpt lat="48.42295" lon="2.40617">
        <ele>102.19999694824</ele>
        <time>2024-04-14T09:33:26.000Z</time>
      </trkpt>
      <trkpt lat="48.42297" lon="2.40624">
        <ele>102.59999847412</ele>
        <time>2024-04-14T09:33:28.000Z</time>
      </trkpt>
      <trkpt lat="48.42301" lon="2.40632">
        <ele>103.19999694824</ele>
        <time>2024-04-14T09:33:31.000Z</time>
      </trkpt>
      <trkpt lat="48.42306" lon="2.40643">
        <ele>104.19999694824</ele>
        <time>2024-04-14T09:33:36.000Z</time>
      </trkpt>
      <trkpt lat="48.42313" lon="2.40659">
        <ele>105.40000152588</ele>
        <time>2024-04-14T09:33:41.000Z</time>
      </trkpt>
      <trkpt lat="48.42316" lon="2.40667">
        <ele>106</ele>
        <time>2024-04-14T09:33:44.000Z</time>
      </trkpt>
      <trkpt lat="48.42317" lon="2.4067">
        <ele>106.40000152588</ele>
        <time>2024-04-14T09:33:45.000Z</time>
      </trkpt>
      <trkpt lat="48.4232" lon="2.40679">
        <ele>107.59999847412</ele>
        <time>2024-04-14T09:33:49.000Z</time>
      </trkpt>
      <trkpt lat="48.42323" lon="2.40686">
        <ele>108.19999694824</ele>
        <time>2024-04-14T09:33:52.000Z</time>
      </trkpt>
      <trkpt lat="48.42325" lon="2.40691">
        <ele>108.59999847412</ele>
        <time>2024-04-14T09:33:54.000Z</time>
      </trkpt>
      <trkpt lat="48.42334" lon="2.40703">
        <ele>109.19999694824</ele>
        <time>2024-04-14T09:33:59.000Z</time>
      </trkpt>
      <trkpt lat="48.42344" lon="2.40718">
        <ele>109.59999847412</ele>
        <time>2024-04-14T09:34:05.000Z</time>
      </trkpt>
      <trkpt lat="48.42347" lon="2.40722">
        <ele>110</ele>
        <time>2024-04-14T09:34:07.000Z</time>
      </trkpt>
      <trkpt lat="48.42355" lon="2.40734">
        <ele>110.80000305176</ele>
        <time>2024-04-14T09:34:12.000Z</time>
      </trkpt>
      <trkpt lat="48.42361" lon="2.4074">
        <ele>111.59999847412</ele>
        <time>2024-04-14T09:34:15.000Z</time>
      </trkpt>
      <trkpt lat="48.42362" lon="2.40742">
        <ele>112</ele>
        <time>2024-04-14T09:34:16.000Z</time>
      </trkpt>
      <trkpt lat="48.42369" lon="2.4075">
        <ele>113</ele>
        <time>2024-04-14T09:34:20.000Z</time>
      </trkpt>
      <trkpt lat="48.42372" lon="2.40756">
        <ele>113.40000152588</ele>
        <time>2024-04-14T09:34:22.000Z</time>
      </trkpt>
      <trkpt lat="48.42377" lon="2.40764">
        <ele>114.19999694824</ele>
        <time>2024-04-14T09:34:25.000Z</time>
      </trkpt>
      <trkpt lat="48.42383" lon="2.4077">
        <ele>114.80000305176</ele>
        <time>2024-04-14T09:34:28.000Z</time>
      </trkpt>
      <trkpt lat="48.42386" lon="2.40776">
        <ele>115.40000152588</ele>
        <time>2024-04-14T09:34:30.000Z</time>
      </trkpt>
      <trkpt lat="48.42388" lon="2.40783">
        <ele>116.40000152588</ele>
        <time>2024-04-14T09:34:33.000Z</time>
      </trkpt>
      <trkpt lat="48.42389" lon="2.40789">
        <ele>117.19999694824</ele>
        <time>2024-04-14T09:34:36.000Z</time>
      </trkpt>
      <trkpt lat="48.42391" lon="2.40793">
        <ele>117.40000152588</ele>
        <time>2024-04-14T09:34:38.000Z</time>
      </trkpt>
      <trkpt lat="48.42393" lon="2.408">
        <ele>118.59999847412</ele>
        <time>2024-04-14T09:34:42.000Z</time>
      </trkpt>
      <trkpt lat="48.42394" lon="2.40806">
        <ele>119.40000152588</ele>
        <time>2024-04-14T09:34:45.000Z</time>
      </trkpt>
      <trkpt lat="48.42394" lon="2.40805">
        <ele>119.80000305176</ele>
        <time>2024-04-14T09:34:46.000Z</time>
      </trkpt>
      <trkpt lat="48.42399" lon="2.40816">
        <ele>120.80000305176</ele>
        <time>2024-04-14T09:34:50.000Z</time>
      </trkpt>
      <trkpt lat="48.42403" lon="2.40819">
        <ele>121</ele>
        <time>2024-04-14T09:34:52.000Z</time>
      </trkpt>
      <trkpt lat="48.42408" lon="2.40823">
        <ele>122</ele>
        <time>2024-04-14T09:34:56.000Z</time>
      </trkpt>
      <trkpt lat="48.42412" lon="2.40829">
        <ele>122.59999847412</ele>
        <time>2024-04-14T09:34:59.000Z</time>
      </trkpt>
      <trkpt lat="48.42414" lon="2.40833">
        <ele>123</ele>
        <time>2024-04-14T09:35:01.000Z</time>
      </trkpt>
      <trkpt lat="48.42417" lon="2.40839">
        <ele>124</ele>
        <time>2024-04-14T09:35:06.000Z</time>
      </trkpt>
      <trkpt lat="48.42418" lon="2.4084">
        <ele>124.40000152588</ele>
        <time>2024-04-14T09:35:07.000Z</time>
      </trkpt>
      <trkpt lat="48.4242" lon="2.40845">
        <ele>125.19999694824</ele>
        <time>2024-04-14T09:35:10.000Z</time>
      </trkpt>
      <trkpt lat="48.42422" lon="2.4085">
        <ele>126.19999694824</ele>
        <time>2024-04-14T09:35:13.000Z</time>
      </trkpt>
      <trkpt lat="48.42423" lon="2.40852">
        <ele>126.59999847412</ele>
        <time>2024-04-14T09:35:14.000Z</time>
      </trkpt>
      <trkpt lat="48.42424" lon="2.40856">
        <ele>127.19999694824</ele>
        <time>2024-04-14T09:35:17.000Z</time>
      </trkpt>
      <trkpt lat="48.42428" lon="2.40863">
        <ele>128.39999389648</ele>
        <time>2024-04-14T09:35:21.000Z</time>
      </trkpt>
      <trkpt lat="48.42428" lon="2.40866">
        <ele>128.60000610352</ele>
        <time>2024-04-14T09:35:22.000Z</time>
      </trkpt>
      <trkpt lat="48.42429" lon="2.4087">
        <ele>129.60000610352</ele>
        <time>2024-04-14T09:35:25.000Z</time>
      </trkpt>
      <trkpt lat="48.4243" lon="2.40881">
        <ele>130.39999389648</ele>
        <time>2024-04-14T09:35:30.000Z</time>
      </trkpt>
      <trkpt lat="48.42429" lon="2.40884">
        <ele>130.60000610352</ele>
        <time>2024-04-14T09:35:32.000Z</time>
      </trkpt>
      <trkpt lat="48.42428" lon="2.40893">
        <ele>131.80000305176</ele>
        <time>2024-04-14T09:35:37.000Z</time>
      </trkpt>
      <trkpt lat="48.42428" lon="2.40892">
        <ele>132.19999694824</ele>
        <time>2024-04-14T09:35:38.000Z</time>
      </trkpt>
      <trkpt lat="48.42426" lon="2.409">
        <ele>132.80000305176</ele>
        <time>2024-04-14T09:35:40.000Z</time>
      </trkpt>
      <trkpt lat="48.42424" lon="2.40916">
        <ele>133.80000305176</ele>
        <time>2024-04-14T09:35:45.000Z</time>
      </trkpt>
      <trkpt lat="48.42424" lon="2.40918">
        <ele>134</ele>
        <time>2024-04-14T09:35:46.000Z</time>
      </trkpt>
      <trkpt lat="48.42423" lon="2.40923">
        <ele>135.19999694824</ele>
        <time>2024-04-14T09:35:50.000Z</time>
      </trkpt>
      <trkpt lat="48.42421" lon="2.40931">
        <ele>135.60000610352</ele>
        <time>2024-04-14T09:35:52.000Z</time>
      </trkpt>
      <trkpt lat="48.4242" lon="2.40934">
        <ele>136.19999694824</ele>
        <time>2024-04-14T09:35:55.000Z</time>
      </trkpt>
      <trkpt lat="48.42416" lon="2.40935">
        <ele>136.19999694824</ele>
        <time>2024-04-14T09:35:57.000Z</time>
      </trkpt>
      <trkpt lat="48.42405" lon="2.40934">
        <ele>135.19999694824</ele>
        <time>2024-04-14T09:36:01.000Z</time>
      </trkpt>
      <trkpt lat="48.42401" lon="2.40933">
        <ele>135</ele>
        <time>2024-04-14T09:36:02.000Z</time>
      </trkpt>
      <trkpt lat="48.42393" lon="2.40933">
        <ele>134</ele>
        <time>2024-04-14T09:36:04.000Z</time>
      </trkpt>
      <trkpt lat="48.42383" lon="2.40934">
        <ele>133.60000610352</ele>
        <time>2024-04-14T09:36:07.000Z</time>
      </trkpt>
      <trkpt lat="48.42377" lon="2.4093">
        <ele>132.80000305176</ele>
        <time>2024-04-14T09:36:09.000Z</time>
      </trkpt>
      <trkpt lat="48.4237" lon="2.40925">
        <ele>131.60000610352</ele>
        <time>2024-04-14T09:36:11.000Z</time>
      </trkpt>
      <trkpt lat="48.42365" lon="2.40923">
        <ele>131.19999694824</ele>
        <time>2024-04-14T09:36:12.000Z</time>
      </trkpt>
      <trkpt lat="48.4236" lon="2.40922">
        <ele>130.60000610352</ele>
        <time>2024-04-14T09:36:13.000Z</time>
      </trkpt>
      <trkpt lat="48.42348" lon="2.40917">
        <ele>130</ele>
        <time>2024-04-14T09:36:15.000Z</time>
      </trkpt>
      <trkpt lat="48.42334" lon="2.40912">
        <ele>130.60000610352</ele>
        <time>2024-04-14T09:36:18.000Z</time>
      </trkpt>
      <trkpt lat="48.42322" lon="2.40907">
        <ele>131.60000610352</ele>
        <time>2024-04-14T09:36:22.000Z</time>
      </trkpt>
      <trkpt lat="48.42317" lon="2.40903">
        <ele>132</ele>
        <time>2024-04-14T09:36:24.000Z</time>
      </trkpt>
      <trkpt lat="48.4231" lon="2.40892">
        <ele>132.80000305176</ele>
        <time>2024-04-14T09:36:29.000Z</time>
      </trkpt>
      <trkpt lat="48.42309" lon="2.4089">
        <ele>132.80000305176</ele>
        <time>2024-04-14T09:36:30.000Z</time>
      </trkpt>
      <trkpt lat="48.42307" lon="2.40879">
        <ele>133.19999694824</ele>
        <time>2024-04-14T09:36:36.000Z</time>
      </trkpt>
      <trkpt lat="48.42302" lon="2.40877">
        <ele>132.39999389648</ele>
        <time>2024-04-14T09:36:43.000Z</time>
      </trkpt>
      <trkpt lat="48.42298" lon="2.40878">
        <ele>131.80000305176</ele>
        <time>2024-04-14T09:36:49.000Z</time>
      </trkpt>
      <trkpt lat="48.42298" lon="2.40876">
        <ele>132</ele>
        <time>2024-04-14T09:36:51.000Z</time>
      </trkpt>
      <trkpt lat="48.42295" lon="2.40872">
        <ele>131.19999694824</ele>
        <time>2024-04-14T09:36:56.000Z</time>
      </trkpt>
      <trkpt lat="48.42293" lon="2.40872">
        <ele>129.60000610352</ele>
        <time>2024-04-14T09:36:57.000Z</time>
      </trkpt>
      <trkpt lat="48.42288" lon="2.40871">
        <ele>128.39999389648</ele>
        <time>2024-04-14T09:36:59.000Z</time>
      </trkpt>
      <trkpt lat="48.42284" lon="2.40867">
        <ele>127.19999694824</ele>
        <time>2024-04-14T09:37:02.000Z</time>
      </trkpt>
      <trkpt lat="48.42283" lon="2.40865">
        <ele>126.59999847412</ele>
        <time>2024-04-14T09:37:03.000Z</time>
      </trkpt>
      <trkpt lat="48.42282" lon="2.40863">
        <ele>126</ele>
        <time>2024-04-14T09:37:04.000Z</time>
      </trkpt>
      <trkpt lat="48.4228" lon="2.4086">
        <ele>124.80000305176</ele>
        <time>2024-04-14T09:37:06.000Z</time>
      </trkpt>
      <trkpt lat="48.42278" lon="2.40859">
        <ele>123.40000152588</ele>
        <time>2024-04-14T09:37:08.000Z</time>
      </trkpt>
      <trkpt lat="48.42277" lon="2.40857">
        <ele>122.80000305176</ele>
        <time>2024-04-14T09:37:09.000Z</time>
      </trkpt>
      <trkpt lat="48.42277" lon="2.40858">
        <ele>122.19999694824</ele>
        <time>2024-04-14T09:37:10.000Z</time>
      </trkpt>
      <trkpt lat="48.42273" lon="2.40857">
        <ele>121</ele>
        <time>2024-04-14T09:37:13.000Z</time>
      </trkpt>
      <trkpt lat="48.42271" lon="2.40854">
        <ele>120</ele>
        <time>2024-04-14T09:37:15.000Z</time>
      </trkpt>
      <trkpt lat="48.42267" lon="2.40854">
        <ele>118.59999847412</ele>
        <time>2024-04-14T09:37:17.000Z</time>
      </trkpt>
      <trkpt lat="48.42264" lon="2.40852">
        <ele>117.19999694824</ele>
        <time>2024-04-14T09:37:19.000Z</time>
      </trkpt>
      <trkpt lat="48.42263" lon="2.40849">
        <ele>116.59999847412</ele>
        <time>2024-04-14T09:37:20.000Z</time>
      </trkpt>
      <trkpt lat="48.42264" lon="2.4085">
        <ele>115.80000305176</ele>
        <time>2024-04-14T09:37:21.000Z</time>
      </trkpt>
      <trkpt lat="48.42263" lon="2.40844">
        <ele>115</ele>
        <time>2024-04-14T09:37:26.000Z</time>
      </trkpt>
      <trkpt lat="48.42263" lon="2.40844">
        <ele>115</ele>
        <time>2024-04-14T09:37:41.000Z</time>
      </trkpt>
      <trkpt lat="48.42261" lon="2.40845">
        <ele>114.40000152588</ele>
        <time>2024-04-14T09:37:52.000Z</time>
      </trkpt>
      <trkpt lat="48.42258" lon="2.40845">
        <ele>113.80000305176</ele>
        <time>2024-04-14T09:37:54.000Z</time>
      </trkpt>
      <trkpt lat="48.42256" lon="2.40845">
        <ele>113</ele>
        <time>2024-04-14T09:37:55.000Z</time>
      </trkpt>
      <trkpt lat="48.42253" lon="2.40843">
        <ele>112</ele>
        <time>2024-04-14T09:37:56.000Z</time>
      </trkpt>
      <trkpt lat="48.4225" lon="2.40839">
        <ele>111</ele>
        <time>2024-04-14T09:37:57.000Z</time>
      </trkpt>
      <trkpt lat="48.42245" lon="2.40836">
        <ele>109.40000152588</ele>
        <time>2024-04-14T09:37:59.000Z</time>
      </trkpt>
      <trkpt lat="48.42242" lon="2.4084">
        <ele>107.80000305176</ele>
        <time>2024-04-14T09:38:01.000Z</time>
      </trkpt>
      <trkpt lat="48.4224" lon="2.40843">
        <ele>106.80000305176</ele>
        <time>2024-04-14T09:38:02.000Z</time>
      </trkpt>
      <trkpt lat="48.42239" lon="2.40846">
        <ele>105.80000305176</ele>
        <time>2024-04-14T09:38:03.000Z</time>
      </trkpt>
      <trkpt lat="48.42237" lon="2.40855">
        <ele>104.40000152588</ele>
        <time>2024-04-14T09:38:05.000Z</time>
      </trkpt>
      <trkpt lat="48.42235" lon="2.40861">
        <ele>103.80000305176</ele>
        <time>2024-04-14T09:38:06.000Z</time>
      </trkpt>
      <trkpt lat="48.42234" lon="2.40867">
        <ele>103.40000152588</ele>
        <time>2024-04-14T09:38:07.000Z</time>
      </trkpt>
      <trkpt lat="48.42231" lon="2.40873">
        <ele>102.40000152588</ele>
        <time>2024-04-14T09:38:10.000Z</time>
      </trkpt>
      <trkpt lat="48.42231" lon="2.40874">
        <ele>102</ele>
        <time>2024-04-14T09:38:11.000Z</time>
      </trkpt>
      <trkpt lat="48.4223" lon="2.40874">
        <ele>100.80000305176</ele>
        <time>2024-04-14T09:38:13.000Z</time>
      </trkpt>
      <trkpt lat="48.4223" lon="2.40869">
        <ele>100</ele>
        <time>2024-04-14T09:38:14.000Z</time>
      </trkpt>
      <trkpt lat="48.4223" lon="2.40863">
        <ele>99.400001525879</ele>
        <time>2024-04-14T09:38:15.000Z</time>
      </trkpt>
      <trkpt lat="48.42226" lon="2.40847">
        <ele>98.800003051758</ele>
        <time>2024-04-14T09:38:16.000Z</time>
      </trkpt>
      <trkpt lat="48.42225" lon="2.40834">
        <ele>98.599998474121</ele>
        <time>2024-04-14T09:38:17.000Z</time>
      </trkpt>
      <trkpt lat="48.42224" lon="2.40824">
        <ele>98.199996948242</ele>
        <time>2024-04-14T09:38:18.000Z</time>
      </trkpt>
      <trkpt lat="48.4222" lon="2.408">
        <ele>97.199996948242</ele>
        <time>2024-04-14T09:38:20.000Z</time>
      </trkpt>
      <trkpt lat="48.42217" lon="2.4079">
        <ele>96.400001525879</ele>
        <time>2024-04-14T09:38:21.000Z</time>
      </trkpt>
      <trkpt lat="48.42213" lon="2.40783">
        <ele>96.199996948242</ele>
        <time>2024-04-14T09:38:22.000Z</time>
      </trkpt>
      <trkpt lat="48.42208" lon="2.40778">
        <ele>95</ele>
        <time>2024-04-14T09:38:24.000Z</time>
      </trkpt>
      <trkpt lat="48.422" lon="2.40777">
        <ele>95</ele>
        <time>2024-04-14T09:38:27.000Z</time>
      </trkpt>
      <trkpt lat="48.42196" lon="2.40779">
        <ele>95.599998474121</ele>
        <time>2024-04-14T09:38:29.000Z</time>
      </trkpt>
      <trkpt lat="48.42195" lon="2.4078">
        <ele>96.199996948242</ele>
        <time>2024-04-14T09:38:30.000Z</time>
      </trkpt>
      <trkpt lat="48.42194" lon="2.40782">
        <ele>97.199996948242</ele>
        <time>2024-04-14T09:38:33.000Z</time>
      </trkpt>
      <trkpt lat="48.42192" lon="2.40784">
        <ele>97.800003051758</ele>
        <time>2024-04-14T09:38:35.000Z</time>
      </trkpt>
      <trkpt lat="48.4219" lon="2.40787">
        <ele>98.400001525879</ele>
        <time>2024-04-14T09:38:37.000Z</time>
      </trkpt>
      <trkpt lat="48.42187" lon="2.40792">
        <ele>100</ele>
        <time>2024-04-14T09:38:41.000Z</time>
      </trkpt>
      <trkpt lat="48.42186" lon="2.40795">
        <ele>101.19999694824</ele>
        <time>2024-04-14T09:38:43.000Z</time>
      </trkpt>
      <trkpt lat="48.42186" lon="2.40795">
        <ele>101.40000152588</ele>
        <time>2024-04-14T09:38:45.000Z</time>
      </trkpt>
      <trkpt lat="48.42177" lon="2.40786">
        <ele>101.59999847412</ele>
        <time>2024-04-14T09:38:52.000Z</time>
      </trkpt>
      <trkpt lat="48.42176" lon="2.40785">
        <ele>101.59999847412</ele>
        <time>2024-04-14T09:38:53.000Z</time>
      </trkpt>
      <trkpt lat="48.42167" lon="2.40776">
        <ele>100.40000152588</ele>
        <time>2024-04-14T09:38:59.000Z</time>
      </trkpt>
      <trkpt lat="48.42165" lon="2.40776">
        <ele>100.40000152588</ele>
        <time>2024-04-14T09:39:00.000Z</time>
      </trkpt>
      <trkpt lat="48.42162" lon="2.40777">
        <ele>101</ele>
        <time>2024-04-14T09:39:02.000Z</time>
      </trkpt>
      <trkpt lat="48.42161" lon="2.40779">
        <ele>102.19999694824</ele>
        <time>2024-04-14T09:39:05.000Z</time>
      </trkpt>
      <trkpt lat="48.42161" lon="2.40781">
        <ele>102.40000152588</ele>
        <time>2024-04-14T09:39:06.000Z</time>
      </trkpt>
      <trkpt lat="48.42162" lon="2.40786">
        <ele>103.59999847412</ele>
        <time>2024-04-14T09:39:09.000Z</time>
      </trkpt>
      <trkpt lat="48.42165" lon="2.40791">
        <ele>104.59999847412</ele>
        <time>2024-04-14T09:39:13.000Z</time>
      </trkpt>
      <trkpt lat="48.42167" lon="2.40798">
        <ele>105.59999847412</ele>
        <time>2024-04-14T09:39:18.000Z</time>
      </trkpt>
      <trkpt lat="48.42169" lon="2.40803">
        <ele>106.40000152588</ele>
        <time>2024-04-14T09:39:21.000Z</time>
      </trkpt>
      <trkpt lat="48.42169" lon="2.40802">
        <ele>106.80000305176</ele>
        <time>2024-04-14T09:39:22.000Z</time>
      </trkpt>
      <trkpt lat="48.42172" lon="2.40814">
        <ele>107</ele>
        <time>2024-04-14T09:39:26.000Z</time>
      </trkpt>
      <trkpt lat="48.42173" lon="2.40817">
        <ele>107.19999694824</ele>
        <time>2024-04-14T09:39:27.000Z</time>
      </trkpt>
      <trkpt lat="48.42173" lon="2.40821">
        <ele>107.80000305176</ele>
        <time>2024-04-14T09:39:29.000Z</time>
      </trkpt>
      <trkpt lat="48.42173" lon="2.40829">
        <ele>108.80000305176</ele>
        <time>2024-04-14T09:39:33.000Z</time>
      </trkpt>
      <trkpt lat="48.42173" lon="2.40832">
        <ele>109.40000152588</ele>
        <time>2024-04-14T09:39:35.000Z</time>
      </trkpt>
      <trkpt lat="48.42172" lon="2.40836">
        <ele>110.19999694824</ele>
        <time>2024-04-14T09:39:37.000Z</time>
      </trkpt>
      <trkpt lat="48.42172" lon="2.40847">
        <ele>111.40000152588</ele>
        <time>2024-04-14T09:39:42.000Z</time>
      </trkpt>
      <trkpt lat="48.42173" lon="2.40855">
        <ele>112</ele>
        <time>2024-04-14T09:39:45.000Z</time>
      </trkpt>
      <trkpt lat="48.42173" lon="2.40858">
        <ele>112</ele>
        <time>2024-04-14T09:39:46.000Z</time>
      </trkpt>
      <trkpt lat="48.42176" lon="2.40864">
        <ele>112</ele>
        <time>2024-04-14T09:39:49.000Z</time>
      </trkpt>
      <trkpt lat="48.42178" lon="2.40869">
        <ele>111.59999847412</ele>
        <time>2024-04-14T09:39:51.000Z</time>
      </trkpt>
      <trkpt lat="48.42186" lon="2.40886">
        <ele>112.40000152588</ele>
        <time>2024-04-14T09:39:58.000Z</time>
      </trkpt>
      <trkpt lat="48.42187" lon="2.40889">
        <ele>112.59999847412</ele>
        <time>2024-04-14T09:39:59.000Z</time>
      </trkpt>
      <trkpt lat="48.42188" lon="2.40898">
        <ele>113.80000305176</ele>
        <time>2024-04-14T09:40:03.000Z</time>
      </trkpt>
      <trkpt lat="48.42189" lon="2.40902">
        <ele>114.19999694824</ele>
        <time>2024-04-14T09:40:05.000Z</time>
      </trkpt>
      <trkpt lat="48.42189" lon="2.40912">
        <ele>113.80000305176</ele>
        <time>2024-04-14T09:40:08.000Z</time>
      </trkpt>
      <trkpt lat="48.42189" lon="2.40914">
        <ele>114.19999694824</ele>
        <time>2024-04-14T09:40:09.000Z</time>
      </trkpt>
      <trkpt lat="48.42188" lon="2.40917">
        <ele>115</ele>
        <time>2024-04-14T09:40:11.000Z</time>
      </trkpt>
      <trkpt lat="48.42186" lon="2.40924">
        <ele>116.19999694824</ele>
        <time>2024-04-14T09:40:14.000Z</time>
      </trkpt>
      <trkpt lat="48.42184" lon="2.40928">
        <ele>117</ele>
        <time>2024-04-14T09:40:16.000Z</time>
      </trkpt>
      <trkpt lat="48.42183" lon="2.40929">
        <ele>117.40000152588</ele>
        <time>2024-04-14T09:40:17.000Z</time>
      </trkpt>
      <trkpt lat="48.42177" lon="2.40932">
        <ele>118.59999847412</ele>
        <time>2024-04-14T09:40:21.000Z</time>
      </trkpt>
      <trkpt lat="48.42174" lon="2.40935">
        <ele>119.19999694824</ele>
        <time>2024-04-14T09:40:24.000Z</time>
      </trkpt>
      <trkpt lat="48.42165" lon="2.4094">
        <ele>119.19999694824</ele>
        <time>2024-04-14T09:40:30.000Z</time>
      </trkpt>
      <trkpt lat="48.42156" lon="2.40947">
        <ele>119.59999847412</ele>
        <time>2024-04-14T09:40:36.000Z</time>
      </trkpt>
      <trkpt lat="48.42155" lon="2.40947">
        <ele>119.80000305176</ele>
        <time>2024-04-14T09:40:37.000Z</time>
      </trkpt>
      <trkpt lat="48.42153" lon="2.40947">
        <ele>120</ele>
        <time>2024-04-14T09:40:38.000Z</time>
      </trkpt>
      <trkpt lat="48.42151" lon="2.40947">
        <ele>120.80000305176</ele>
        <time>2024-04-14T09:40:41.000Z</time>
      </trkpt>
      <trkpt lat="48.4215" lon="2.40948">
        <ele>121.19999694824</ele>
        <time>2024-04-14T09:40:42.000Z</time>
      </trkpt>
      <trkpt lat="48.42146" lon="2.40951">
        <ele>120.80000305176</ele>
        <time>2024-04-14T09:40:44.000Z</time>
      </trkpt>
      <trkpt lat="48.42142" lon="2.40962">
        <ele>119.59999847412</ele>
        <time>2024-04-14T09:40:46.000Z</time>
      </trkpt>
      <trkpt lat="48.42137" lon="2.4097">
        <ele>120.59999847412</ele>
        <time>2024-04-14T09:40:49.000Z</time>
      </trkpt>
      <trkpt lat="48.42136" lon="2.40971">
        <ele>121</ele>
        <time>2024-04-14T09:40:50.000Z</time>
      </trkpt>
      <trkpt lat="48.42133" lon="2.40974">
        <ele>121.59999847412</ele>
        <time>2024-04-14T09:40:52.000Z</time>
      </trkpt>
      <trkpt lat="48.42132" lon="2.40976">
        <ele>122.40000152588</ele>
        <time>2024-04-14T09:40:55.000Z</time>
      </trkpt>
      <trkpt lat="48.42129" lon="2.40976">
        <ele>122.59999847412</ele>
        <time>2024-04-14T09:40:57.000Z</time>
      </trkpt>
      <trkpt lat="48.42127" lon="2.40975">
        <ele>122.80000305176</ele>
        <time>2024-04-14T09:40:58.000Z</time>
      </trkpt>
      <trkpt lat="48.42121" lon="2.40974">
        <ele>122.80000305176</ele>
        <time>2024-04-14T09:41:01.000Z</time>
      </trkpt>
      <trkpt lat="48.42109" lon="2.40971">
        <ele>123.80000305176</ele>
        <time>2024-04-14T09:41:07.000Z</time>
      </trkpt>
      <trkpt lat="48.42097" lon="2.40966">
        <ele>124.19999694824</ele>
        <time>2024-04-14T09:41:13.000Z</time>
      </trkpt>
      <trkpt lat="48.42087" lon="2.40964">
        <ele>125</ele>
        <time>2024-04-14T09:41:18.000Z</time>
      </trkpt>
      <trkpt lat="48.42084" lon="2.40965">
        <ele>125.80000305176</ele>
        <time>2024-04-14T09:41:20.000Z</time>
      </trkpt>
      <trkpt lat="48.42083" lon="2.40966">
        <ele>126.40000152588</ele>
        <time>2024-04-14T09:41:21.000Z</time>
      </trkpt>
      <trkpt lat="48.42083" lon="2.40965">
        <ele>127.59999847412</ele>
        <time>2024-04-14T09:41:22.000Z</time>
      </trkpt>
      <trkpt lat="48.4208" lon="2.40968">
        <ele>128.80000305176</ele>
        <time>2024-04-14T09:41:25.000Z</time>
      </trkpt>
      <trkpt lat="48.42078" lon="2.4097">
        <ele>129</ele>
        <time>2024-04-14T09:41:26.000Z</time>
      </trkpt>
      <trkpt lat="48.42073" lon="2.40974">
        <ele>129.80000305176</ele>
        <time>2024-04-14T09:41:31.000Z</time>
      </trkpt>
      <trkpt lat="48.4207" lon="2.40976">
        <ele>130.39999389648</ele>
        <time>2024-04-14T09:41:34.000Z</time>
      </trkpt>
      <trkpt lat="48.42067" lon="2.40979">
        <ele>130.80000305176</ele>
        <time>2024-04-14T09:41:37.000Z</time>
      </trkpt>
      <trkpt lat="48.42062" lon="2.40986">
        <ele>131</ele>
        <time>2024-04-14T09:41:41.000Z</time>
      </trkpt>
      <trkpt lat="48.42053" lon="2.40993">
        <ele>130.80000305176</ele>
        <time>2024-04-14T09:41:47.000Z</time>
      </trkpt>
      <trkpt lat="48.42048" lon="2.40999">
        <ele>129.60000610352</ele>
        <time>2024-04-14T09:41:50.000Z</time>
      </trkpt>
      <trkpt lat="48.42043" lon="2.41005">
        <ele>128.80000305176</ele>
        <time>2024-04-14T09:41:52.000Z</time>
      </trkpt>
      <trkpt lat="48.42041" lon="2.41007">
        <ele>128</ele>
        <time>2024-04-14T09:41:53.000Z</time>
      </trkpt>
      <trkpt lat="48.42036" lon="2.41013">
        <ele>126.40000152588</ele>
        <time>2024-04-14T09:41:55.000Z</time>
      </trkpt>
      <trkpt lat="48.42032" lon="2.4102">
        <ele>125.59999847412</ele>
        <time>2024-04-14T09:41:57.000Z</time>
      </trkpt>
      <trkpt lat="48.42029" lon="2.41025">
        <ele>125.19999694824</ele>
        <time>2024-04-14T09:41:58.000Z</time>
      </trkpt>
      <trkpt lat="48.42025" lon="2.4104">
        <ele>124</ele>
        <time>2024-04-14T09:42:01.000Z</time>
      </trkpt>
      <trkpt lat="48.42025" lon="2.41044">
        <ele>124.19999694824</ele>
        <time>2024-04-14T09:42:02.000Z</time>
      </trkpt>
      <trkpt lat="48.42021" lon="2.4107">
        <ele>125.40000152588</ele>
        <time>2024-04-14T09:42:08.000Z</time>
      </trkpt>
      <trkpt lat="48.4202" lon="2.41079">
        <ele>127</ele>
        <time>2024-04-14T09:42:10.000Z</time>
      </trkpt>
      <trkpt lat="48.42018" lon="2.41089">
        <ele>128</ele>
        <time>2024-04-14T09:42:13.000Z</time>
      </trkpt>
      <trkpt lat="48.42019" lon="2.41095">
        <ele>128.60000610352</ele>
        <time>2024-04-14T09:42:15.000Z</time>
      </trkpt>
      <trkpt lat="48.42019" lon="2.41102">
        <ele>129.39999389648</ele>
        <time>2024-04-14T09:42:17.000Z</time>
      </trkpt>
      <trkpt lat="48.42019" lon="2.41112">
        <ele>130.60000610352</ele>
        <time>2024-04-14T09:42:20.000Z</time>
      </trkpt>
      <trkpt lat="48.42018" lon="2.41116">
        <ele>131.39999389648</ele>
        <time>2024-04-14T09:42:22.000Z</time>
      </trkpt>
      <trkpt lat="48.42017" lon="2.41118">
        <ele>131.80000305176</ele>
        <time>2024-04-14T09:42:23.000Z</time>
      </trkpt>
      <trkpt lat="48.42016" lon="2.41121">
        <ele>133</ele>
        <time>2024-04-14T09:42:26.000Z</time>
      </trkpt>
      <trkpt lat="48.42013" lon="2.41128">
        <ele>133.60000610352</ele>
        <time>2024-04-14T09:42:29.000Z</time>
      </trkpt>
      <trkpt lat="48.42012" lon="2.41132">
        <ele>134</ele>
        <time>2024-04-14T09:42:31.000Z</time>
      </trkpt>
      <trkpt lat="48.42011" lon="2.41152">
        <ele>135</ele>
        <time>2024-04-14T09:42:36.000Z</time>
      </trkpt>
      <trkpt lat="48.42012" lon="2.41153">
        <ele>135</ele>
        <time>2024-04-14T09:42:38.000Z</time>
      </trkpt>
      <trkpt lat="48.42013" lon="2.41154">
        <ele>135.19999694824</ele>
        <time>2024-04-14T09:42:41.000Z</time>
      </trkpt>
      <trkpt lat="48.42011" lon="2.4116">
        <ele>135.60000610352</ele>
        <time>2024-04-14T09:42:47.000Z</time>
      </trkpt>
      <trkpt lat="48.4201" lon="2.41179">
        <ele>135.39999389648</ele>
        <time>2024-04-14T09:42:52.000Z</time>
      </trkpt>
      <trkpt lat="48.42014" lon="2.4121">
        <ele>134.60000610352</ele>
        <time>2024-04-14T09:42:58.000Z</time>
      </trkpt>
      <trkpt lat="48.42013" lon="2.41224">
        <ele>132.80000305176</ele>
        <time>2024-04-14T09:43:00.000Z</time>
      </trkpt>
      <trkpt lat="48.42012" lon="2.41232">
        <ele>132</ele>
        <time>2024-04-14T09:43:01.000Z</time>
      </trkpt>
      <trkpt lat="48.4201" lon="2.41238">
        <ele>131</ele>
        <time>2024-04-14T09:43:02.000Z</time>
      </trkpt>
      <trkpt lat="48.42004" lon="2.4125">
        <ele>129.80000305176</ele>
        <time>2024-04-14T09:43:04.000Z</time>
      </trkpt>
      <trkpt lat="48.42002" lon="2.41257">
        <ele>128.39999389648</ele>
        <time>2024-04-14T09:43:05.000Z</time>
      </trkpt>
      <trkpt lat="48.42" lon="2.41264">
        <ele>127.19999694824</ele>
        <time>2024-04-14T09:43:06.000Z</time>
      </trkpt>
      <trkpt lat="48.41995" lon="2.41276">
        <ele>126.19999694824</ele>
        <time>2024-04-14T09:43:08.000Z</time>
      </trkpt>
      <trkpt lat="48.41992" lon="2.4128">
        <ele>125.59999847412</ele>
        <time>2024-04-14T09:43:09.000Z</time>
      </trkpt>
      <trkpt lat="48.41987" lon="2.41286">
        <ele>123.40000152588</ele>
        <time>2024-04-14T09:43:11.000Z</time>
      </trkpt>
      <trkpt lat="48.41984" lon="2.41288">
        <ele>122.80000305176</ele>
        <time>2024-04-14T09:43:12.000Z</time>
      </trkpt>
      <trkpt lat="48.41977" lon="2.41291">
        <ele>122</ele>
        <time>2024-04-14T09:43:13.000Z</time>
      </trkpt>
      <trkpt lat="48.41961" lon="2.41297">
        <ele>120.40000152588</ele>
        <time>2024-04-14T09:43:15.000Z</time>
      </trkpt>
      <trkpt lat="48.41933" lon="2.41313">
        <ele>120.59999847412</ele>
        <time>2024-04-14T09:43:19.000Z</time>
      </trkpt>
      <trkpt lat="48.41928" lon="2.41313">
        <ele>121</ele>
        <time>2024-04-14T09:43:20.000Z</time>
      </trkpt>
      <trkpt lat="48.41924" lon="2.41313">
        <ele>121.80000305176</ele>
        <time>2024-04-14T09:43:21.000Z</time>
      </trkpt>
      <trkpt lat="48.41921" lon="2.41312">
        <ele>123</ele>
        <time>2024-04-14T09:43:22.000Z</time>
      </trkpt>
      <trkpt lat="48.41919" lon="2.41311">
        <ele>123.59999847412</ele>
        <time>2024-04-14T09:43:23.000Z</time>
      </trkpt>
      <trkpt lat="48.41916" lon="2.4131">
        <ele>123.80000305176</ele>
        <time>2024-04-14T09:43:24.000Z</time>
      </trkpt>
      <trkpt lat="48.4191" lon="2.41306">
        <ele>124</ele>
        <time>2024-04-14T09:43:26.000Z</time>
      </trkpt>
      <trkpt lat="48.41903" lon="2.413">
        <ele>124.59999847412</ele>
        <time>2024-04-14T09:43:29.000Z</time>
      </trkpt>
      <trkpt lat="48.41895" lon="2.41296">
        <ele>125</ele>
        <time>2024-04-14T09:43:34.000Z</time>
      </trkpt>
      <trkpt lat="48.41893" lon="2.41298">
        <ele>125.40000152588</ele>
        <time>2024-04-14T09:43:36.000Z</time>
      </trkpt>
      <trkpt lat="48.41892" lon="2.413">
        <ele>126.19999694824</ele>
        <time>2024-04-14T09:43:39.000Z</time>
      </trkpt>
      <trkpt lat="48.4189" lon="2.41305">
        <ele>127.19999694824</ele>
        <time>2024-04-14T09:43:42.000Z</time>
      </trkpt>
      <trkpt lat="48.4189" lon="2.4131">
        <ele>128.60000610352</ele>
        <time>2024-04-14T09:43:46.000Z</time>
      </trkpt>
      <trkpt lat="48.41891" lon="2.41318">
        <ele>129.80000305176</ele>
        <time>2024-04-14T09:43:50.000Z</time>
      </trkpt>
      <trkpt lat="48.41891" lon="2.41322">
        <ele>130.39999389648</ele>
        <time>2024-04-14T09:43:52.000Z</time>
      </trkpt>
      <trkpt lat="48.41891" lon="2.41326">
        <ele>131.19999694824</ele>
        <time>2024-04-14T09:43:54.000Z</time>
      </trkpt>
      <trkpt lat="48.41892" lon="2.41331">
        <ele>132.39999389648</ele>
        <time>2024-04-14T09:43:58.000Z</time>
      </trkpt>
      <trkpt lat="48.41894" lon="2.41333">
        <ele>133</ele>
        <time>2024-04-14T09:44:01.000Z</time>
      </trkpt>
      <trkpt lat="48.41897" lon="2.41332">
        <ele>132.80000305176</ele>
        <time>2024-04-14T09:44:03.000Z</time>
      </trkpt>
      <trkpt lat="48.419" lon="2.41337">
        <ele>132.60000610352</ele>
        <time>2024-04-14T09:44:07.000Z</time>
      </trkpt>
      <trkpt lat="48.41902" lon="2.41338">
        <ele>130.60000610352</ele>
        <time>2024-04-14T09:44:13.000Z</time>
      </trkpt>
      <trkpt lat="48.41904" lon="2.41343">
        <ele>128.60000610352</ele>
        <time>2024-04-14T09:44:15.000Z</time>
      </trkpt>
      <trkpt lat="48.41907" lon="2.41347">
        <ele>127.40000152588</ele>
        <time>2024-04-14T09:44:16.000Z</time>
      </trkpt>
      <trkpt lat="48.4191" lon="2.41352">
        <ele>126.40000152588</ele>
        <time>2024-04-14T09:44:17.000Z</time>
      </trkpt>
      <trkpt lat="48.41913" lon="2.41358">
        <ele>126.40000152588</ele>
        <time>2024-04-14T09:44:18.000Z</time>
      </trkpt>
      <trkpt lat="48.41918" lon="2.41365">
        <ele>127.80000305176</ele>
        <time>2024-04-14T09:44:21.000Z</time>
      </trkpt>
      <trkpt lat="48.41923" lon="2.41372">
        <ele>128.80000305176</ele>
        <time>2024-04-14T09:44:25.000Z</time>
      </trkpt>
      <trkpt lat="48.41924" lon="2.41376">
        <ele>129.19999694824</ele>
        <time>2024-04-14T09:44:27.000Z</time>
      </trkpt>
      <trkpt lat="48.41926" lon="2.41381">
        <ele>129.80000305176</ele>
        <time>2024-04-14T09:44:30.000Z</time>
      </trkpt>
      <trkpt lat="48.41927" lon="2.41384">
        <ele>131.19999694824</ele>
        <time>2024-04-14T09:44:33.000Z</time>
      </trkpt>
      <trkpt lat="48.41929" lon="2.41387">
        <ele>132</ele>
        <time>2024-04-14T09:44:35.000Z</time>
      </trkpt>
      <trkpt lat="48.4193" lon="2.4139">
        <ele>132.39999389648</ele>
        <time>2024-04-14T09:44:36.000Z</time>
      </trkpt>
      <trkpt lat="48.41933" lon="2.41398">
        <ele>133.39999389648</ele>
        <time>2024-04-14T09:44:40.000Z</time>
      </trkpt>
      <trkpt lat="48.41937" lon="2.41408">
        <ele>133.60000610352</ele>
        <time>2024-04-14T09:44:43.000Z</time>
      </trkpt>
      <trkpt lat="48.4194" lon="2.4142">
        <ele>134.39999389648</ele>
        <time>2024-04-14T09:44:47.000Z</time>
      </trkpt>
      <trkpt lat="48.4194" lon="2.41422">
        <ele>134.60000610352</ele>
        <time>2024-04-14T09:44:48.000Z</time>
      </trkpt>
      <trkpt lat="48.4194" lon="2.4143">
        <ele>135</ele>
        <time>2024-04-14T09:44:51.000Z</time>
      </trkpt>
      <trkpt lat="48.41942" lon="2.41439">
        <ele>135.60000610352</ele>
        <time>2024-04-14T09:44:54.000Z</time>
      </trkpt>
      <trkpt lat="48.4194" lon="2.41453">
        <ele>136.19999694824</ele>
        <time>2024-04-14T09:44:59.000Z</time>
      </trkpt>
      <trkpt lat="48.41938" lon="2.4146">
        <ele>136.60000610352</ele>
        <time>2024-04-14T09:45:02.000Z</time>
      </trkpt>
      <trkpt lat="48.41937" lon="2.41463">
        <ele>136.80000305176</ele>
        <time>2024-04-14T09:45:03.000Z</time>
      </trkpt>
      <trkpt lat="48.41935" lon="2.41471">
        <ele>137</ele>
        <time>2024-04-14T09:45:06.000Z</time>
      </trkpt>
      <trkpt lat="48.41924" lon="2.4149">
        <ele>137.60000610352</ele>
        <time>2024-04-14T09:45:12.000Z</time>
      </trkpt>
      <trkpt lat="48.4192" lon="2.41493">
        <ele>138</ele>
        <time>2024-04-14T09:45:14.000Z</time>
      </trkpt>
      <trkpt lat="48.41908" lon="2.41506">
        <ele>138.19999694824</ele>
        <time>2024-04-14T09:45:19.000Z</time>
      </trkpt>
      <trkpt lat="48.41905" lon="2.41506">
        <ele>138.39999389648</ele>
        <time>2024-04-14T09:45:20.000Z</time>
      </trkpt>
      <trkpt lat="48.41897" lon="2.41505">
        <ele>138</ele>
        <time>2024-04-14T09:45:23.000Z</time>
      </trkpt>
      <trkpt lat="48.41871" lon="2.41495">
        <ele>138</ele>
        <time>2024-04-14T09:45:30.000Z</time>
      </trkpt>
      <trkpt lat="48.41851" lon="2.4149">
        <ele>138.60000610352</ele>
        <time>2024-04-14T09:45:36.000Z</time>
      </trkpt>
      <trkpt lat="48.4183" lon="2.41491">
        <ele>138</ele>
        <time>2024-04-14T09:45:43.000Z</time>
      </trkpt>
      <trkpt lat="48.41813" lon="2.41505">
        <ele>138</ele>
        <time>2024-04-14T09:45:49.000Z</time>
      </trkpt>
      <trkpt lat="48.41796" lon="2.41528">
        <ele>137.39999389648</ele>
        <time>2024-04-14T09:45:55.000Z</time>
      </trkpt>
      <trkpt lat="48.41783" lon="2.4156">
        <ele>138</ele>
        <time>2024-04-14T09:46:02.000Z</time>
      </trkpt>
      <trkpt lat="48.41787" lon="2.41574">
        <ele>137.80000305176</ele>
        <time>2024-04-14T09:46:07.000Z</time>
      </trkpt>
      <trkpt lat="48.41791" lon="2.41584">
        <ele>138</ele>
        <time>2024-04-14T09:46:13.000Z</time>
      </trkpt>
      <trkpt lat="48.418" lon="2.41609">
        <ele>138</ele>
        <time>2024-04-14T09:46:19.000Z</time>
      </trkpt>
      <trkpt lat="48.41804" lon="2.41642">
        <ele>138.39999389648</ele>
        <time>2024-04-14T09:46:24.000Z</time>
      </trkpt>
      <trkpt lat="48.4181" lon="2.4169">
        <ele>138.39999389648</ele>
        <time>2024-04-14T09:46:30.000Z</time>
      </trkpt>
      <trkpt lat="48.41818" lon="2.41756">
        <ele>138.60000610352</ele>
        <time>2024-04-14T09:46:38.000Z</time>
      </trkpt>
      <trkpt lat="48.41825" lon="2.4181">
        <ele>138.60000610352</ele>
        <time>2024-04-14T09:46:45.000Z</time>
      </trkpt>
      <trkpt lat="48.41844" lon="2.41866">
        <ele>138.80000305176</ele>
        <time>2024-04-14T09:46:52.000Z</time>
      </trkpt>
      <trkpt lat="48.41848" lon="2.41875">
        <ele>139</ele>
        <time>2024-04-14T09:46:53.000Z</time>
      </trkpt>
      <trkpt lat="48.41853" lon="2.41883">
        <ele>139</ele>
        <time>2024-04-14T09:46:54.000Z</time>
      </trkpt>
      <trkpt lat="48.41863" lon="2.41903">
        <ele>139.39999389648</ele>
        <time>2024-04-14T09:46:57.000Z</time>
      </trkpt>
      <trkpt lat="48.41883" lon="2.41947">
        <ele>138.80000305176</ele>
        <time>2024-04-14T09:47:03.000Z</time>
      </trkpt>
      <trkpt lat="48.41883" lon="2.41951">
        <ele>139.19999694824</ele>
        <time>2024-04-14T09:47:04.000Z</time>
      </trkpt>
      <trkpt lat="48.4188" lon="2.41959">
        <ele>139.19999694824</ele>
        <time>2024-04-14T09:47:09.000Z</time>
      </trkpt>
      <trkpt lat="48.41879" lon="2.4196">
        <ele>139.19999694824</ele>
        <time>2024-04-14T09:47:10.000Z</time>
      </trkpt>
      <trkpt lat="48.41869" lon="2.4196">
        <ele>139.60000610352</ele>
        <time>2024-04-14T09:47:14.000Z</time>
      </trkpt>
      <trkpt lat="48.41857" lon="2.41947">
        <ele>139.39999389648</ele>
        <time>2024-04-14T09:47:18.000Z</time>
      </trkpt>
      <trkpt lat="48.41854" lon="2.41942">
        <ele>139.19999694824</ele>
        <time>2024-04-14T09:47:19.000Z</time>
      </trkpt>
      <trkpt lat="48.4184" lon="2.41933">
        <ele>139.19999694824</ele>
        <time>2024-04-14T09:47:20.000Z</time>
      </trkpt>
      <trkpt lat="48.41815" lon="2.41915">
        <ele>139</ele>
        <time>2024-04-14T09:47:22.000Z</time>
      </trkpt>
      <trkpt lat="48.41778" lon="2.41868">
        <ele>138.39999389648</ele>
        <time>2024-04-14T09:47:28.000Z</time>
      </trkpt>
      <trkpt lat="48.41742" lon="2.41823">
        <ele>138.39999389648</ele>
        <time>2024-04-14T09:47:34.000Z</time>
      </trkpt>
      <trkpt lat="48.41707" lon="2.41786">
        <ele>138</ele>
        <time>2024-04-14T09:47:40.000Z</time>
      </trkpt>
      <trkpt lat="48.41695" lon="2.41774">
        <ele>138</ele>
        <time>2024-04-14T09:47:42.000Z</time>
      </trkpt>
      <trkpt lat="48.41669" lon="2.41752">
        <ele>137.39999389648</ele>
        <time>2024-04-14T09:47:46.000Z</time>
      </trkpt>
      <trkpt lat="48.41633" lon="2.41725">
        <ele>137.39999389648</ele>
        <time>2024-04-14T09:47:52.000Z</time>
      </trkpt>
      <trkpt lat="48.41599" lon="2.41701">
        <ele>137.19999694824</ele>
        <time>2024-04-14T09:47:58.000Z</time>
      </trkpt>
      <trkpt lat="48.41578" lon="2.41683">
        <ele>137.39999389648</ele>
        <time>2024-04-14T09:48:02.000Z</time>
      </trkpt>
      <trkpt lat="48.41573" lon="2.41681">
        <ele>137.60000610352</ele>
        <time>2024-04-14T09:48:03.000Z</time>
      </trkpt>
      <trkpt lat="48.41563" lon="2.4169">
        <ele>137.19999694824</ele>
        <time>2024-04-14T09:48:06.000Z</time>
      </trkpt>
      <trkpt lat="48.41561" lon="2.41704">
        <ele>136.80000305176</ele>
        <time>2024-04-14T09:48:08.000Z</time>
      </trkpt>
      <trkpt lat="48.41558" lon="2.41727">
        <ele>137.60000610352</ele>
        <time>2024-04-14T09:48:11.000Z</time>
      </trkpt>
      <trkpt lat="48.41554" lon="2.41753">
        <ele>138.19999694824</ele>
        <time>2024-04-14T09:48:14.000Z</time>
      </trkpt>
      <trkpt lat="48.41549" lon="2.41786">
        <ele>138.19999694824</ele>
        <time>2024-04-14T09:48:18.000Z</time>
      </trkpt>
      <trkpt lat="48.41543" lon="2.41841">
        <ele>138.60000610352</ele>
        <time>2024-04-14T09:48:25.000Z</time>
      </trkpt>
      <trkpt lat="48.41538" lon="2.41877">
        <ele>138.19999694824</ele>
        <time>2024-04-14T09:48:29.000Z</time>
      </trkpt>
      <trkpt lat="48.41534" lon="2.41896">
        <ele>138.19999694824</ele>
        <time>2024-04-14T09:48:31.000Z</time>
      </trkpt>
      <trkpt lat="48.41525" lon="2.41957">
        <ele>138.39999389648</ele>
        <time>2024-04-14T09:48:38.000Z</time>
      </trkpt>
      <trkpt lat="48.41525" lon="2.41965">
        <ele>138.39999389648</ele>
        <time>2024-04-14T09:48:39.000Z</time>
      </trkpt>
      <trkpt lat="48.4152" lon="2.42029">
        <ele>138</ele>
        <time>2024-04-14T09:48:46.000Z</time>
      </trkpt>
      <trkpt lat="48.41508" lon="2.42099">
        <ele>137.80000305176</ele>
        <time>2024-04-14T09:48:54.000Z</time>
      </trkpt>
      <trkpt lat="48.41508" lon="2.42129">
        <ele>137.19999694824</ele>
        <time>2024-04-14T09:48:58.000Z</time>
      </trkpt>
      <trkpt lat="48.41509" lon="2.42133">
        <ele>137</ele>
        <time>2024-04-14T09:48:59.000Z</time>
      </trkpt>
      <trkpt lat="48.41515" lon="2.42167">
        <ele>137.19999694824</ele>
        <time>2024-04-14T09:49:05.000Z</time>
      </trkpt>
      <trkpt lat="48.41514" lon="2.42213">
        <ele>137.19999694824</ele>
        <time>2024-04-14T09:49:10.000Z</time>
      </trkpt>
      <trkpt lat="48.41515" lon="2.42224">
        <ele>137</ele>
        <time>2024-04-14T09:49:11.000Z</time>
      </trkpt>
      <trkpt lat="48.41517" lon="2.42273">
        <ele>136.80000305176</ele>
        <time>2024-04-14T09:49:16.000Z</time>
      </trkpt>
      <trkpt lat="48.41519" lon="2.42346">
        <ele>136.19999694824</ele>
        <time>2024-04-14T09:49:23.000Z</time>
      </trkpt>
      <trkpt lat="48.41519" lon="2.42355">
        <ele>135.80000305176</ele>
        <time>2024-04-14T09:49:24.000Z</time>
      </trkpt>
      <trkpt lat="48.41527" lon="2.42393">
        <ele>136</ele>
        <time>2024-04-14T09:49:28.000Z</time>
      </trkpt>
      <trkpt lat="48.41545" lon="2.42455">
        <ele>134.80000305176</ele>
        <time>2024-04-14T09:49:34.000Z</time>
      </trkpt>
      <trkpt lat="48.41549" lon="2.42487">
        <ele>135.80000305176</ele>
        <time>2024-04-14T09:49:37.000Z</time>
      </trkpt>
      <trkpt lat="48.41549" lon="2.42496">
        <ele>136.19999694824</ele>
        <time>2024-04-14T09:49:38.000Z</time>
      </trkpt>
      <trkpt lat="48.41543" lon="2.4251">
        <ele>137</ele>
        <time>2024-04-14T09:49:40.000Z</time>
      </trkpt>
      <trkpt lat="48.41537" lon="2.42524">
        <ele>137.39999389648</ele>
        <time>2024-04-14T09:49:42.000Z</time>
      </trkpt>
      <trkpt lat="48.41532" lon="2.42539">
        <ele>138</ele>
        <time>2024-04-14T09:49:44.000Z</time>
      </trkpt>
      <trkpt lat="48.4152" lon="2.42575">
        <ele>137.80000305176</ele>
        <time>2024-04-14T09:49:49.000Z</time>
      </trkpt>
      <trkpt lat="48.4151" lon="2.42614">
        <ele>138.60000610352</ele>
        <time>2024-04-14T09:49:54.000Z</time>
      </trkpt>
      <trkpt lat="48.41508" lon="2.42631">
        <ele>138.39999389648</ele>
        <time>2024-04-14T09:49:56.000Z</time>
      </trkpt>
      <trkpt lat="48.41506" lon="2.42658">
        <ele>138.19999694824</ele>
        <time>2024-04-14T09:49:59.000Z</time>
      </trkpt>
      <trkpt lat="48.41503" lon="2.42698">
        <ele>138.60000610352</ele>
        <time>2024-04-14T09:50:05.000Z</time>
      </trkpt>
      <trkpt lat="48.41498" lon="2.42738">
        <ele>138.39999389648</ele>
        <time>2024-04-14T09:50:11.000Z</time>
      </trkpt>
      <trkpt lat="48.41497" lon="2.42745">
        <ele>138.39999389648</ele>
        <time>2024-04-14T09:50:12.000Z</time>
      </trkpt>
      <trkpt lat="48.41494" lon="2.42774">
        <ele>138.60000610352</ele>
        <time>2024-04-14T09:50:17.000Z</time>
      </trkpt>
      <trkpt lat="48.41488" lon="2.42818">
        <ele>138.60000610352</ele>
        <time>2024-04-14T09:50:24.000Z</time>
      </trkpt>
      <trkpt lat="48.41487" lon="2.42832">
        <ele>138</ele>
        <time>2024-04-14T09:50:26.000Z</time>
      </trkpt>
      <trkpt lat="48.41484" lon="2.42853">
        <ele>138.39999389648</ele>
        <time>2024-04-14T09:50:29.000Z</time>
      </trkpt>
      <trkpt lat="48.41482" lon="2.42868">
        <ele>136.19999694824</ele>
        <time>2024-04-14T09:50:31.000Z</time>
      </trkpt>
      <trkpt lat="48.41481" lon="2.42876">
        <ele>135.19999694824</ele>
        <time>2024-04-14T09:50:32.000Z</time>
      </trkpt>
      <trkpt lat="48.41478" lon="2.42891">
        <ele>132</ele>
        <time>2024-04-14T09:50:34.000Z</time>
      </trkpt>
      <trkpt lat="48.41477" lon="2.42896">
        <ele>131.39999389648</ele>
        <time>2024-04-14T09:50:35.000Z</time>
      </trkpt>
      <trkpt lat="48.41477" lon="2.42904">
        <ele>130.39999389648</ele>
        <time>2024-04-14T09:50:37.000Z</time>
      </trkpt>
      <trkpt lat="48.41478" lon="2.42913">
        <ele>129</ele>
        <time>2024-04-14T09:50:39.000Z</time>
      </trkpt>
      <trkpt lat="48.41479" lon="2.42921">
        <ele>127.40000152588</ele>
        <time>2024-04-14T09:50:41.000Z</time>
      </trkpt>
      <trkpt lat="48.4148" lon="2.42934">
        <ele>125.59999847412</ele>
        <time>2024-04-14T09:50:43.000Z</time>
      </trkpt>
      <trkpt lat="48.4148" lon="2.42942">
        <ele>125</ele>
        <time>2024-04-14T09:50:44.000Z</time>
      </trkpt>
      <trkpt lat="48.4148" lon="2.42951">
        <ele>124.19999694824</ele>
        <time>2024-04-14T09:50:45.000Z</time>
      </trkpt>
      <trkpt lat="48.41481" lon="2.42965">
        <ele>122</ele>
        <time>2024-04-14T09:50:47.000Z</time>
      </trkpt>
      <trkpt lat="48.41482" lon="2.4297">
        <ele>121.40000152588</ele>
        <time>2024-04-14T09:50:48.000Z</time>
      </trkpt>
      <trkpt lat="48.41483" lon="2.42974">
        <ele>120.59999847412</ele>
        <time>2024-04-14T09:50:49.000Z</time>
      </trkpt>
      <trkpt lat="48.41484" lon="2.42995">
        <ele>119.19999694824</ele>
        <time>2024-04-14T09:50:52.000Z</time>
      </trkpt>
      <trkpt lat="48.41484" lon="2.43013">
        <ele>117.80000305176</ele>
        <time>2024-04-14T09:50:54.000Z</time>
      </trkpt>
      <trkpt lat="48.41482" lon="2.43022">
        <ele>116.80000305176</ele>
        <time>2024-04-14T09:50:55.000Z</time>
      </trkpt>
      <trkpt lat="48.4148" lon="2.4303">
        <ele>115.80000305176</ele>
        <time>2024-04-14T09:50:56.000Z</time>
      </trkpt>
      <trkpt lat="48.41477" lon="2.43039">
        <ele>115.19999694824</ele>
        <time>2024-04-14T09:50:57.000Z</time>
      </trkpt>
      <trkpt lat="48.41474" lon="2.43047">
        <ele>113.80000305176</ele>
        <time>2024-04-14T09:50:58.000Z</time>
      </trkpt>
      <trkpt lat="48.41467" lon="2.43066">
        <ele>112.59999847412</ele>
        <time>2024-04-14T09:51:00.000Z</time>
      </trkpt>
      <trkpt lat="48.4146" lon="2.43087">
        <ele>111.59999847412</ele>
        <time>2024-04-14T09:51:02.000Z</time>
      </trkpt>
      <trkpt lat="48.41456" lon="2.43097">
        <ele>110.80000305176</ele>
        <time>2024-04-14T09:51:03.000Z</time>
      </trkpt>
      <trkpt lat="48.41448" lon="2.43117">
        <ele>109.40000152588</ele>
        <time>2024-04-14T09:51:05.000Z</time>
      </trkpt>
      <trkpt lat="48.41435" lon="2.4315">
        <ele>108</ele>
        <time>2024-04-14T09:51:08.000Z</time>
      </trkpt>
      <trkpt lat="48.41426" lon="2.43174">
        <ele>106.80000305176</ele>
        <time>2024-04-14T09:51:10.000Z</time>
      </trkpt>
      <trkpt lat="48.41419" lon="2.43199">
        <ele>105.40000152588</ele>
        <time>2024-04-14T09:51:12.000Z</time>
      </trkpt>
      <trkpt lat="48.41418" lon="2.4321">
        <ele>104.19999694824</ele>
        <time>2024-04-14T09:51:13.000Z</time>
      </trkpt>
      <trkpt lat="48.41414" lon="2.43231">
        <ele>102.40000152588</ele>
        <time>2024-04-14T09:51:15.000Z</time>
      </trkpt>
      <trkpt lat="48.41404" lon="2.43246">
        <ele>100.80000305176</ele>
        <time>2024-04-14T09:51:17.000Z</time>
      </trkpt>
      <trkpt lat="48.4139" lon="2.43268">
        <ele>98.800003051758</ele>
        <time>2024-04-14T09:51:20.000Z</time>
      </trkpt>
      <trkpt lat="48.41386" lon="2.43276">
        <ele>97.800003051758</ele>
        <time>2024-04-14T09:51:21.000Z</time>
      </trkpt>
      <trkpt lat="48.41383" lon="2.43284">
        <ele>97.400001525879</ele>
        <time>2024-04-14T09:51:22.000Z</time>
      </trkpt>
      <trkpt lat="48.41375" lon="2.43308">
        <ele>96.800003051758</ele>
        <time>2024-04-14T09:51:25.000Z</time>
      </trkpt>
      <trkpt lat="48.41373" lon="2.43316">
        <ele>96.400001525879</ele>
        <time>2024-04-14T09:51:26.000Z</time>
      </trkpt>
      <trkpt lat="48.41367" lon="2.43338">
        <ele>94.800003051758</ele>
        <time>2024-04-14T09:51:29.000Z</time>
      </trkpt>
      <trkpt lat="48.41365" lon="2.43344">
        <ele>94.400001525879</ele>
        <time>2024-04-14T09:51:30.000Z</time>
      </trkpt>
      <trkpt lat="48.41364" lon="2.43351">
        <ele>93.599998474121</ele>
        <time>2024-04-14T09:51:31.000Z</time>
      </trkpt>
      <trkpt lat="48.41362" lon="2.43363">
        <ele>92.199996948242</ele>
        <time>2024-04-14T09:51:33.000Z</time>
      </trkpt>
      <trkpt lat="48.41356" lon="2.43385">
        <ele>91</ele>
        <time>2024-04-14T09:51:36.000Z</time>
      </trkpt>
      <trkpt lat="48.41351" lon="2.43398">
        <ele>90.800003051758</ele>
        <time>2024-04-14T09:51:38.000Z</time>
      </trkpt>
      <trkpt lat="48.41341" lon="2.4342">
        <ele>89.199996948242</ele>
        <time>2024-04-14T09:51:41.000Z</time>
      </trkpt>
      <trkpt lat="48.41334" lon="2.43434">
        <ele>88.199996948242</ele>
        <time>2024-04-14T09:51:43.000Z</time>
      </trkpt>
      <trkpt lat="48.41324" lon="2.43442">
        <ele>87.800003051758</ele>
        <time>2024-04-14T09:51:45.000Z</time>
      </trkpt>
      <trkpt lat="48.41312" lon="2.43437">
        <ele>87.800003051758</ele>
        <time>2024-04-14T09:51:48.000Z</time>
      </trkpt>
      <trkpt lat="48.41303" lon="2.43429">
        <ele>87.400001525879</ele>
        <time>2024-04-14T09:51:50.000Z</time>
      </trkpt>
      <trkpt lat="48.41293" lon="2.43419">
        <ele>87.199996948242</ele>
        <time>2024-04-14T09:51:52.000Z</time>
      </trkpt>
      <trkpt lat="48.41288" lon="2.43415">
        <ele>87</ele>
        <time>2024-04-14T09:51:53.000Z</time>
      </trkpt>
      <trkpt lat="48.4126" lon="2.43395">
        <ele>88.199996948242</ele>
        <time>2024-04-14T09:51:58.000Z</time>
      </trkpt>
      <trkpt lat="48.41254" lon="2.43391">
        <ele>88.199996948242</ele>
        <time>2024-04-14T09:51:59.000Z</time>
      </trkpt>
      <trkpt lat="48.4122" lon="2.43371">
        <ele>88</ele>
        <time>2024-04-14T09:52:05.000Z</time>
      </trkpt>
      <trkpt lat="48.41215" lon="2.43369">
        <ele>88.199996948242</ele>
        <time>2024-04-14T09:52:06.000Z</time>
      </trkpt>
      <trkpt lat="48.41195" lon="2.43367">
        <ele>89</ele>
        <time>2024-04-14T09:52:10.000Z</time>
      </trkpt>
      <trkpt lat="48.41167" lon="2.43364">
        <ele>88.599998474121</ele>
        <time>2024-04-14T09:52:15.000Z</time>
      </trkpt>
      <trkpt lat="48.41161" lon="2.43362">
        <ele>88.199996948242</ele>
        <time>2024-04-14T09:52:16.000Z</time>
      </trkpt>
      <trkpt lat="48.41119" lon="2.43348">
        <ele>87.599998474121</ele>
        <time>2024-04-14T09:52:23.000Z</time>
      </trkpt>
      <trkpt lat="48.41103" lon="2.43341">
        <ele>88</ele>
        <time>2024-04-14T09:52:26.000Z</time>
      </trkpt>
      <trkpt lat="48.411" lon="2.43336">
        <ele>88</ele>
        <time>2024-04-14T09:52:27.000Z</time>
      </trkpt>
      <trkpt lat="48.41093" lon="2.43316">
        <ele>87.800003051758</ele>
        <time>2024-04-14T09:52:30.000Z</time>
      </trkpt>
      <trkpt lat="48.41089" lon="2.43303">
        <ele>88.199996948242</ele>
        <time>2024-04-14T09:52:32.000Z</time>
      </trkpt>
      <trkpt lat="48.41081" lon="2.43275">
        <ele>89</ele>
        <time>2024-04-14T09:52:37.000Z</time>
      </trkpt>
      <trkpt lat="48.41081" lon="2.43269">
        <ele>89.400001525879</ele>
        <time>2024-04-14T09:52:39.000Z</time>
      </trkpt>
      <trkpt lat="48.41083" lon="2.43261">
        <ele>89.800003051758</ele>
        <time>2024-04-14T09:52:42.000Z</time>
      </trkpt>
      <trkpt lat="48.41083" lon="2.43257">
        <ele>89.800003051758</ele>
        <time>2024-04-14T09:52:43.000Z</time>
      </trkpt>
      <trkpt lat="48.41083" lon="2.4324">
        <ele>90</ele>
        <time>2024-04-14T09:52:46.000Z</time>
      </trkpt>
      <trkpt lat="48.41083" lon="2.43205">
        <ele>90.599998474121</ele>
        <time>2024-04-14T09:52:51.000Z</time>
      </trkpt>
      <trkpt lat="48.41083" lon="2.43191">
        <ele>90.599998474121</ele>
        <time>2024-04-14T09:52:53.000Z</time>
      </trkpt>
      <trkpt lat="48.41084" lon="2.43154">
        <ele>91.599998474121</ele>
        <time>2024-04-14T09:52:59.000Z</time>
      </trkpt>
      <trkpt lat="48.41085" lon="2.43148">
        <ele>91.599998474121</ele>
        <time>2024-04-14T09:53:00.000Z</time>
      </trkpt>
      <trkpt lat="48.41085" lon="2.43115">
        <ele>92.599998474121</ele>
        <time>2024-04-14T09:53:06.000Z</time>
      </trkpt>
      <trkpt lat="48.41084" lon="2.4311">
        <ele>93</ele>
        <time>2024-04-14T09:53:07.000Z</time>
      </trkpt>
      <trkpt lat="48.41078" lon="2.43099">
        <ele>93.800003051758</ele>
        <time>2024-04-14T09:53:10.000Z</time>
      </trkpt>
      <trkpt lat="48.41074" lon="2.43093">
        <ele>94</ele>
        <time>2024-04-14T09:53:12.000Z</time>
      </trkpt>
      <trkpt lat="48.41066" lon="2.43081">
        <ele>95</ele>
        <time>2024-04-14T09:53:16.000Z</time>
      </trkpt>
      <trkpt lat="48.41063" lon="2.43075">
        <ele>95.199996948242</ele>
        <time>2024-04-14T09:53:18.000Z</time>
      </trkpt>
      <trkpt lat="48.41056" lon="2.43061">
        <ele>96.400001525879</ele>
        <time>2024-04-14T09:53:22.000Z</time>
      </trkpt>
      <trkpt lat="48.41051" lon="2.43047">
        <ele>97</ele>
        <time>2024-04-14T09:53:26.000Z</time>
      </trkpt>
      <trkpt lat="48.41049" lon="2.43041">
        <ele>97.599998474121</ele>
        <time>2024-04-14T09:53:28.000Z</time>
      </trkpt>
      <trkpt lat="48.41043" lon="2.43031">
        <ele>98.800003051758</ele>
        <time>2024-04-14T09:53:32.000Z</time>
      </trkpt>
      <trkpt lat="48.41041" lon="2.43029">
        <ele>99.199996948242</ele>
        <time>2024-04-14T09:53:33.000Z</time>
      </trkpt>
      <trkpt lat="48.41038" lon="2.43025">
        <ele>99.800003051758</ele>
        <time>2024-04-14T09:53:35.000Z</time>
      </trkpt>
      <trkpt lat="48.4103" lon="2.43015">
        <ele>100.59999847412</ele>
        <time>2024-04-14T09:53:40.000Z</time>
      </trkpt>
      <trkpt lat="48.41027" lon="2.43011">
        <ele>101</ele>
        <time>2024-04-14T09:53:42.000Z</time>
      </trkpt>
      <trkpt lat="48.41016" lon="2.42995">
        <ele>102</ele>
        <time>2024-04-14T09:53:49.000Z</time>
      </trkpt>
      <trkpt lat="48.41013" lon="2.42982">
        <ele>103</ele>
        <time>2024-04-14T09:53:53.000Z</time>
      </trkpt>
      <trkpt lat="48.41013" lon="2.42975">
        <ele>104</ele>
        <time>2024-04-14T09:53:55.000Z</time>
      </trkpt>
      <trkpt lat="48.41013" lon="2.42971">
        <ele>104</ele>
        <time>2024-04-14T09:53:56.000Z</time>
      </trkpt>
      <trkpt lat="48.41012" lon="2.42949">
        <ele>104.59999847412</ele>
        <time>2024-04-14T09:54:01.000Z</time>
      </trkpt>
      <trkpt lat="48.41011" lon="2.42936">
        <ele>105.19999694824</ele>
        <time>2024-04-14T09:54:04.000Z</time>
      </trkpt>
      <trkpt lat="48.41009" lon="2.42918">
        <ele>105.80000305176</ele>
        <time>2024-04-14T09:54:08.000Z</time>
      </trkpt>
      <trkpt lat="48.41008" lon="2.4291">
        <ele>106.40000152588</ele>
        <time>2024-04-14T09:54:10.000Z</time>
      </trkpt>
      <trkpt lat="48.41005" lon="2.42892">
        <ele>107.59999847412</ele>
        <time>2024-04-14T09:54:15.000Z</time>
      </trkpt>
      <trkpt lat="48.40999" lon="2.42873">
        <ele>108.59999847412</ele>
        <time>2024-04-14T09:54:21.000Z</time>
      </trkpt>
      <trkpt lat="48.40999" lon="2.4287">
        <ele>109</ele>
        <time>2024-04-14T09:54:22.000Z</time>
      </trkpt>
      <trkpt lat="48.40996" lon="2.42855">
        <ele>109.80000305176</ele>
        <time>2024-04-14T09:54:27.000Z</time>
      </trkpt>
      <trkpt lat="48.40994" lon="2.42849">
        <ele>109.59999847412</ele>
        <time>2024-04-14T09:54:29.000Z</time>
      </trkpt>
      <trkpt lat="48.40987" lon="2.4284">
        <ele>110.80000305176</ele>
        <time>2024-04-14T09:54:34.000Z</time>
      </trkpt>
      <trkpt lat="48.40978" lon="2.42835">
        <ele>112</ele>
        <time>2024-04-14T09:54:40.000Z</time>
      </trkpt>
      <trkpt lat="48.40974" lon="2.42832">
        <ele>113</ele>
        <time>2024-04-14T09:54:43.000Z</time>
      </trkpt>
      <trkpt lat="48.40968" lon="2.42829">
        <ele>114.40000152588</ele>
        <time>2024-04-14T09:54:47.000Z</time>
      </trkpt>
      <trkpt lat="48.40964" lon="2.42829">
        <ele>115.59999847412</ele>
        <time>2024-04-14T09:54:51.000Z</time>
      </trkpt>
      <trkpt lat="48.40962" lon="2.42829">
        <ele>115.80000305176</ele>
        <time>2024-04-14T09:54:52.000Z</time>
      </trkpt>
      <trkpt lat="48.40957" lon="2.42826">
        <ele>116.59999847412</ele>
        <time>2024-04-14T09:54:56.000Z</time>
      </trkpt>
      <trkpt lat="48.40951" lon="2.42824">
        <ele>118</ele>
        <time>2024-04-14T09:55:00.000Z</time>
      </trkpt>
      <trkpt lat="48.4095" lon="2.42823">
        <ele>118.19999694824</ele>
        <time>2024-04-14T09:55:01.000Z</time>
      </trkpt>
      <trkpt lat="48.40947" lon="2.42821">
        <ele>119.19999694824</ele>
        <time>2024-04-14T09:55:05.000Z</time>
      </trkpt>
      <trkpt lat="48.40944" lon="2.42818">
        <ele>119.80000305176</ele>
        <time>2024-04-14T09:55:08.000Z</time>
      </trkpt>
      <trkpt lat="48.40942" lon="2.42816">
        <ele>120.40000152588</ele>
        <time>2024-04-14T09:55:10.000Z</time>
      </trkpt>
      <trkpt lat="48.40939" lon="2.42811">
        <ele>121.40000152588</ele>
        <time>2024-04-14T09:55:13.000Z</time>
      </trkpt>
      <trkpt lat="48.40938" lon="2.42809">
        <ele>121.80000305176</ele>
        <time>2024-04-14T09:55:14.000Z</time>
      </trkpt>
      <trkpt lat="48.40937" lon="2.42807">
        <ele>122</ele>
        <time>2024-04-14T09:55:15.000Z</time>
      </trkpt>
      <trkpt lat="48.40934" lon="2.42802">
        <ele>122.80000305176</ele>
        <time>2024-04-14T09:55:18.000Z</time>
      </trkpt>
      <trkpt lat="48.40933" lon="2.42799">
        <ele>123.80000305176</ele>
        <time>2024-04-14T09:55:21.000Z</time>
      </trkpt>
      <trkpt lat="48.40932" lon="2.42796">
        <ele>125</ele>
        <time>2024-04-14T09:55:23.000Z</time>
      </trkpt>
      <trkpt lat="48.4093" lon="2.4279">
        <ele>126</ele>
        <time>2024-04-14T09:55:26.000Z</time>
      </trkpt>
      <trkpt lat="48.40928" lon="2.42784">
        <ele>126.40000152588</ele>
        <time>2024-04-14T09:55:29.000Z</time>
      </trkpt>
      <trkpt lat="48.40927" lon="2.4278">
        <ele>127</ele>
        <time>2024-04-14T09:55:31.000Z</time>
      </trkpt>
      <trkpt lat="48.40925" lon="2.42772">
        <ele>128.19999694824</ele>
        <time>2024-04-14T09:55:36.000Z</time>
      </trkpt>
      <trkpt lat="48.40923" lon="2.42758">
        <ele>129.60000610352</ele>
        <time>2024-04-14T09:55:42.000Z</time>
      </trkpt>
      <trkpt lat="48.40922" lon="2.42755">
        <ele>130</ele>
        <time>2024-04-14T09:55:44.000Z</time>
      </trkpt>
      <trkpt lat="48.40921" lon="2.42751">
        <ele>130.80000305176</ele>
        <time>2024-04-14T09:55:46.000Z</time>
      </trkpt>
      <trkpt lat="48.40917" lon="2.42744">
        <ele>131.80000305176</ele>
        <time>2024-04-14T09:55:50.000Z</time>
      </trkpt>
      <trkpt lat="48.40915" lon="2.42738">
        <ele>132.39999389648</ele>
        <time>2024-04-14T09:55:53.000Z</time>
      </trkpt>
      <trkpt lat="48.40912" lon="2.4273">
        <ele>132.80000305176</ele>
        <time>2024-04-14T09:55:57.000Z</time>
      </trkpt>
      <trkpt lat="48.40908" lon="2.42723">
        <ele>133.19999694824</ele>
        <time>2024-04-14T09:56:00.000Z</time>
      </trkpt>
      <trkpt lat="48.409" lon="2.42707">
        <ele>134</ele>
        <time>2024-04-14T09:56:07.000Z</time>
      </trkpt>
      <trkpt lat="48.40897" lon="2.42702">
        <ele>134.19999694824</ele>
        <time>2024-04-14T09:56:09.000Z</time>
      </trkpt>
      <trkpt lat="48.40887" lon="2.42687">
        <ele>134.60000610352</ele>
        <time>2024-04-14T09:56:16.000Z</time>
      </trkpt>
      <trkpt lat="48.40883" lon="2.42679">
        <ele>135</ele>
        <time>2024-04-14T09:56:19.000Z</time>
      </trkpt>
      <trkpt lat="48.40878" lon="2.42671">
        <ele>135</ele>
        <time>2024-04-14T09:56:22.000Z</time>
      </trkpt>
      <trkpt lat="48.40865" lon="2.42649">
        <ele>135.39999389648</ele>
        <time>2024-04-14T09:56:29.000Z</time>
      </trkpt>
      <trkpt lat="48.40855" lon="2.4263">
        <ele>134.80000305176</ele>
        <time>2024-04-14T09:56:34.000Z</time>
      </trkpt>
      <trkpt lat="48.40844" lon="2.42608">
        <ele>135.60000610352</ele>
        <time>2024-04-14T09:56:41.000Z</time>
      </trkpt>
      <trkpt lat="48.40829" lon="2.42584">
        <ele>135.19999694824</ele>
        <time>2024-04-14T09:56:48.000Z</time>
      </trkpt>
      <trkpt lat="48.40817" lon="2.42564">
        <ele>135.39999389648</ele>
        <time>2024-04-14T09:56:53.000Z</time>
      </trkpt>
      <trkpt lat="48.40804" lon="2.42549">
        <ele>135.19999694824</ele>
        <time>2024-04-14T09:56:59.000Z</time>
      </trkpt>
      <trkpt lat="48.40793" lon="2.42555">
        <ele>135.19999694824</ele>
        <time>2024-04-14T09:57:04.000Z</time>
      </trkpt>
      <trkpt lat="48.40782" lon="2.42565">
        <ele>134.80000305176</ele>
        <time>2024-04-14T09:57:09.000Z</time>
      </trkpt>
      <trkpt lat="48.4078" lon="2.42567">
        <ele>134.80000305176</ele>
        <time>2024-04-14T09:57:10.000Z</time>
      </trkpt>
      <trkpt lat="48.40762" lon="2.42589">
        <ele>135</ele>
        <time>2024-04-14T09:57:18.000Z</time>
      </trkpt>
      <trkpt lat="48.4076" lon="2.42593">
        <ele>134.80000305176</ele>
        <time>2024-04-14T09:57:22.000Z</time>
      </trkpt>
      <trkpt lat="48.40761" lon="2.42596">
        <ele>134.80000305176</ele>
        <time>2024-04-14T09:57:33.000Z</time>
      </trkpt>
      <trkpt lat="48.40763" lon="2.42599">
        <ele>134.60000610352</ele>
        <time>2024-04-14T09:57:34.000Z</time>
      </trkpt>
      <trkpt lat="48.40776" lon="2.42607">
        <ele>134.80000305176</ele>
        <time>2024-04-14T09:57:38.000Z</time>
      </trkpt>
      <trkpt lat="48.40783" lon="2.42622">
        <ele>134.80000305176</ele>
        <time>2024-04-14T09:57:41.000Z</time>
      </trkpt>
      <trkpt lat="48.40786" lon="2.42646">
        <ele>134.19999694824</ele>
        <time>2024-04-14T09:57:44.000Z</time>
      </trkpt>
      <trkpt lat="48.40789" lon="2.4266">
        <ele>134.80000305176</ele>
        <time>2024-04-14T09:57:46.000Z</time>
      </trkpt>
      <trkpt lat="48.40798" lon="2.42674">
        <ele>134.60000610352</ele>
        <time>2024-04-14T09:57:49.000Z</time>
      </trkpt>
      <trkpt lat="48.40809" lon="2.42699">
        <ele>134.19999694824</ele>
        <time>2024-04-14T09:57:53.000Z</time>
      </trkpt>
      <trkpt lat="48.40809" lon="2.42725">
        <ele>134.60000610352</ele>
        <time>2024-04-14T09:57:56.000Z</time>
      </trkpt>
      <trkpt lat="48.4081" lon="2.42742">
        <ele>134.19999694824</ele>
        <time>2024-04-14T09:57:58.000Z</time>
      </trkpt>
      <trkpt lat="48.40811" lon="2.42751">
        <ele>134.60000610352</ele>
        <time>2024-04-14T09:57:59.000Z</time>
      </trkpt>
      <trkpt lat="48.40812" lon="2.4276">
        <ele>134.39999389648</ele>
        <time>2024-04-14T09:58:00.000Z</time>
      </trkpt>
      <trkpt lat="48.40821" lon="2.4278">
        <ele>134</ele>
        <time>2024-04-14T09:58:03.000Z</time>
      </trkpt>
      <trkpt lat="48.40824" lon="2.42787">
        <ele>133.60000610352</ele>
        <time>2024-04-14T09:58:04.000Z</time>
      </trkpt>
      <trkpt lat="48.40832" lon="2.42813">
        <ele>133.39999389648</ele>
        <time>2024-04-14T09:58:07.000Z</time>
      </trkpt>
      <trkpt lat="48.40831" lon="2.42839">
        <ele>134</ele>
        <time>2024-04-14T09:58:10.000Z</time>
      </trkpt>
      <trkpt lat="48.40823" lon="2.42867">
        <ele>134.60000610352</ele>
        <time>2024-04-14T09:58:14.000Z</time>
      </trkpt>
      <trkpt lat="48.40821" lon="2.42872">
        <ele>135</ele>
        <time>2024-04-14T09:58:15.000Z</time>
      </trkpt>
      <trkpt lat="48.40818" lon="2.42877">
        <ele>135.19999694824</ele>
        <time>2024-04-14T09:58:16.000Z</time>
      </trkpt>
      <trkpt lat="48.40805" lon="2.42897">
        <ele>135.39999389648</ele>
        <time>2024-04-14T09:58:20.000Z</time>
      </trkpt>
      <trkpt lat="48.40798" lon="2.42907">
        <ele>135.19999694824</ele>
        <time>2024-04-14T09:58:22.000Z</time>
      </trkpt>
      <trkpt lat="48.40795" lon="2.42914">
        <ele>134.80000305176</ele>
        <time>2024-04-14T09:58:23.000Z</time>
      </trkpt>
      <trkpt lat="48.40786" lon="2.42949">
        <ele>134.19999694824</ele>
        <time>2024-04-14T09:58:28.000Z</time>
      </trkpt>
      <trkpt lat="48.40786" lon="2.42979">
        <ele>133.39999389648</ele>
        <time>2024-04-14T09:58:32.000Z</time>
      </trkpt>
      <trkpt lat="48.40786" lon="2.42986">
        <ele>133.19999694824</ele>
        <time>2024-04-14T09:58:33.000Z</time>
      </trkpt>
      <trkpt lat="48.40788" lon="2.43">
        <ele>133.19999694824</ele>
        <time>2024-04-14T09:58:35.000Z</time>
      </trkpt>
      <trkpt lat="48.40788" lon="2.43028">
        <ele>132.39999389648</ele>
        <time>2024-04-14T09:58:39.000Z</time>
      </trkpt>
      <trkpt lat="48.40785" lon="2.43031">
        <ele>132.39999389648</ele>
        <time>2024-04-14T09:58:40.000Z</time>
      </trkpt>
      <trkpt lat="48.40773" lon="2.43027">
        <ele>131.60000610352</ele>
        <time>2024-04-14T09:58:43.000Z</time>
      </trkpt>
      <trkpt lat="48.4077" lon="2.43024">
        <ele>131.19999694824</ele>
        <time>2024-04-14T09:58:44.000Z</time>
      </trkpt>
      <trkpt lat="48.40763" lon="2.43015">
        <ele>131.19999694824</ele>
        <time>2024-04-14T09:58:46.000Z</time>
      </trkpt>
      <trkpt lat="48.40756" lon="2.43005">
        <ele>131.19999694824</ele>
        <time>2024-04-14T09:58:48.000Z</time>
      </trkpt>
      <trkpt lat="48.40738" lon="2.42974">
        <ele>130.80000305176</ele>
        <time>2024-04-14T09:58:53.000Z</time>
      </trkpt>
      <trkpt lat="48.40728" lon="2.42949">
        <ele>130</ele>
        <time>2024-04-14T09:58:56.000Z</time>
      </trkpt>
      <trkpt lat="48.40726" lon="2.4294">
        <ele>129.39999389648</ele>
        <time>2024-04-14T09:58:57.000Z</time>
      </trkpt>
      <trkpt lat="48.40724" lon="2.4293">
        <ele>129.39999389648</ele>
        <time>2024-04-14T09:58:58.000Z</time>
      </trkpt>
      <trkpt lat="48.40722" lon="2.4292">
        <ele>128.60000610352</ele>
        <time>2024-04-14T09:58:59.000Z</time>
      </trkpt>
      <trkpt lat="48.40718" lon="2.42901">
        <ele>128.60000610352</ele>
        <time>2024-04-14T09:59:01.000Z</time>
      </trkpt>
      <trkpt lat="48.40714" lon="2.42892">
        <ele>128.60000610352</ele>
        <time>2024-04-14T09:59:02.000Z</time>
      </trkpt>
      <trkpt lat="48.40695" lon="2.42863">
        <ele>127</ele>
        <time>2024-04-14T09:59:06.000Z</time>
      </trkpt>
      <trkpt lat="48.40688" lon="2.42857">
        <ele>126.59999847412</ele>
        <time>2024-04-14T09:59:07.000Z</time>
      </trkpt>
      <trkpt lat="48.4067" lon="2.42841">
        <ele>127.19999694824</ele>
        <time>2024-04-14T09:59:10.000Z</time>
      </trkpt>
      <trkpt lat="48.40664" lon="2.42837">
        <ele>126.80000305176</ele>
        <time>2024-04-14T09:59:11.000Z</time>
      </trkpt>
      <trkpt lat="48.40645" lon="2.42826">
        <ele>125.59999847412</ele>
        <time>2024-04-14T09:59:14.000Z</time>
      </trkpt>
      <trkpt lat="48.40631" lon="2.42821">
        <ele>125.19999694824</ele>
        <time>2024-04-14T09:59:16.000Z</time>
      </trkpt>
      <trkpt lat="48.40616" lon="2.42818">
        <ele>125.40000152588</ele>
        <time>2024-04-14T09:59:18.000Z</time>
      </trkpt>
      <trkpt lat="48.40596" lon="2.42811">
        <ele>124.80000305176</ele>
        <time>2024-04-14T09:59:21.000Z</time>
      </trkpt>
      <trkpt lat="48.40586" lon="2.42801">
        <ele>125.40000152588</ele>
        <time>2024-04-14T09:59:23.000Z</time>
      </trkpt>
      <trkpt lat="48.40571" lon="2.4279">
        <ele>124.80000305176</ele>
        <time>2024-04-14T09:59:27.000Z</time>
      </trkpt>
      <trkpt lat="48.40559" lon="2.42778">
        <ele>125.59999847412</ele>
        <time>2024-04-14T09:59:33.000Z</time>
      </trkpt>
      <trkpt lat="48.40546" lon="2.42763">
        <ele>125</ele>
        <time>2024-04-14T09:59:38.000Z</time>
      </trkpt>
      <trkpt lat="48.40539" lon="2.42749">
        <ele>126.59999847412</ele>
        <time>2024-04-14T09:59:42.000Z</time>
      </trkpt>
      <trkpt lat="48.40526" lon="2.42731">
        <ele>127.19999694824</ele>
        <time>2024-04-14T09:59:49.000Z</time>
      </trkpt>
      <trkpt lat="48.40511" lon="2.42724">
        <ele>126.59999847412</ele>
        <time>2024-04-14T09:59:54.000Z</time>
      </trkpt>
      <trkpt lat="48.40496" lon="2.42717">
        <ele>126.59999847412</ele>
        <time>2024-04-14T09:59:59.000Z</time>
      </trkpt>
      <trkpt lat="48.40488" lon="2.42721">
        <ele>125.59999847412</ele>
        <time>2024-04-14T10:00:02.000Z</time>
      </trkpt>
      <trkpt lat="48.40485" lon="2.42724">
        <ele>125</ele>
        <time>2024-04-14T10:00:03.000Z</time>
      </trkpt>
      <trkpt lat="48.40483" lon="2.42727">
        <ele>124.59999847412</ele>
        <time>2024-04-14T10:00:04.000Z</time>
      </trkpt>
      <trkpt lat="48.40477" lon="2.4273">
        <ele>122.80000305176</ele>
        <time>2024-04-14T10:00:06.000Z</time>
      </trkpt>
      <trkpt lat="48.40471" lon="2.42731">
        <ele>121.19999694824</ele>
        <time>2024-04-14T10:00:08.000Z</time>
      </trkpt>
      <trkpt lat="48.40465" lon="2.42732">
        <ele>120.40000152588</ele>
        <time>2024-04-14T10:00:10.000Z</time>
      </trkpt>
      <trkpt lat="48.40461" lon="2.42732">
        <ele>119.40000152588</ele>
        <time>2024-04-14T10:00:11.000Z</time>
      </trkpt>
      <trkpt lat="48.40456" lon="2.42732">
        <ele>118.40000152588</ele>
        <time>2024-04-14T10:00:12.000Z</time>
      </trkpt>
      <trkpt lat="48.40452" lon="2.4273">
        <ele>118.19999694824</ele>
        <time>2024-04-14T10:00:13.000Z</time>
      </trkpt>
      <trkpt lat="48.40441" lon="2.42724">
        <ele>118.19999694824</ele>
        <time>2024-04-14T10:00:16.000Z</time>
      </trkpt>
      <trkpt lat="48.40433" lon="2.42724">
        <ele>116.59999847412</ele>
        <time>2024-04-14T10:00:18.000Z</time>
      </trkpt>
      <trkpt lat="48.40426" lon="2.42722">
        <ele>115.19999694824</ele>
        <time>2024-04-14T10:00:20.000Z</time>
      </trkpt>
      <trkpt lat="48.40423" lon="2.42718">
        <ele>115</ele>
        <time>2024-04-14T10:00:21.000Z</time>
      </trkpt>
      <trkpt lat="48.40416" lon="2.42707">
        <ele>115.80000305176</ele>
        <time>2024-04-14T10:00:25.000Z</time>
      </trkpt>
      <trkpt lat="48.40414" lon="2.42704">
        <ele>116.40000152588</ele>
        <time>2024-04-14T10:00:26.000Z</time>
      </trkpt>
      <trkpt lat="48.40407" lon="2.42694">
        <ele>117.59999847412</ele>
        <time>2024-04-14T10:00:30.000Z</time>
      </trkpt>
      <trkpt lat="48.40403" lon="2.42687">
        <ele>119</ele>
        <time>2024-04-14T10:00:33.000Z</time>
      </trkpt>
      <trkpt lat="48.40397" lon="2.42676">
        <ele>120.40000152588</ele>
        <time>2024-04-14T10:00:37.000Z</time>
      </trkpt>
      <trkpt lat="48.40395" lon="2.42674">
        <ele>120.80000305176</ele>
        <time>2024-04-14T10:00:38.000Z</time>
      </trkpt>
      <trkpt lat="48.40391" lon="2.4267">
        <ele>121.59999847412</ele>
        <time>2024-04-14T10:00:40.000Z</time>
      </trkpt>
      <trkpt lat="48.40385" lon="2.42658">
        <ele>122.80000305176</ele>
        <time>2024-04-14T10:00:45.000Z</time>
      </trkpt>
      <trkpt lat="48.40385" lon="2.42656">
        <ele>123.19999694824</ele>
        <time>2024-04-14T10:00:46.000Z</time>
      </trkpt>
      <trkpt lat="48.40383" lon="2.42652">
        <ele>124</ele>
        <time>2024-04-14T10:00:48.000Z</time>
      </trkpt>
      <trkpt lat="48.40381" lon="2.42645">
        <ele>125.19999694824</ele>
        <time>2024-04-14T10:00:51.000Z</time>
      </trkpt>
      <trkpt lat="48.40379" lon="2.42639">
        <ele>126</ele>
        <time>2024-04-14T10:00:54.000Z</time>
      </trkpt>
      <trkpt lat="48.40379" lon="2.42637">
        <ele>126.19999694824</ele>
        <time>2024-04-14T10:00:55.000Z</time>
      </trkpt>
      <trkpt lat="48.40379" lon="2.42628">
        <ele>127.80000305176</ele>
        <time>2024-04-14T10:00:59.000Z</time>
      </trkpt>
      <trkpt lat="48.40381" lon="2.42624">
        <ele>128.80000305176</ele>
        <time>2024-04-14T10:01:02.000Z</time>
      </trkpt>
      <trkpt lat="48.40382" lon="2.42623">
        <ele>129</ele>
        <time>2024-04-14T10:01:03.000Z</time>
      </trkpt>
      <trkpt lat="48.40387" lon="2.42612">
        <ele>130.19999694824</ele>
        <time>2024-04-14T10:01:09.000Z</time>
      </trkpt>
      <trkpt lat="48.40389" lon="2.42608">
        <ele>130.60000610352</ele>
        <time>2024-04-14T10:01:11.000Z</time>
      </trkpt>
      <trkpt lat="48.40391" lon="2.426">
        <ele>131.19999694824</ele>
        <time>2024-04-14T10:01:14.000Z</time>
      </trkpt>
      <trkpt lat="48.40392" lon="2.42589">
        <ele>132</ele>
        <time>2024-04-14T10:01:18.000Z</time>
      </trkpt>
      <trkpt lat="48.40393" lon="2.42583">
        <ele>132.19999694824</ele>
        <time>2024-04-14T10:01:20.000Z</time>
      </trkpt>
      <trkpt lat="48.40395" lon="2.42568">
        <ele>133.19999694824</ele>
        <time>2024-04-14T10:01:25.000Z</time>
      </trkpt>
      <trkpt lat="48.40396" lon="2.42565">
        <ele>133.60000610352</ele>
        <time>2024-04-14T10:01:26.000Z</time>
      </trkpt>
      <trkpt lat="48.40397" lon="2.42547">
        <ele>134.19999694824</ele>
        <time>2024-04-14T10:01:32.000Z</time>
      </trkpt>
      <trkpt lat="48.40397" lon="2.42539">
        <ele>134.39999389648</ele>
        <time>2024-04-14T10:01:34.000Z</time>
      </trkpt>
      <trkpt lat="48.40393" lon="2.42518">
        <ele>135.19999694824</ele>
        <time>2024-04-14T10:01:40.000Z</time>
      </trkpt>
      <trkpt lat="48.40391" lon="2.42516">
        <ele>135.39999389648</ele>
        <time>2024-04-14T10:01:41.000Z</time>
      </trkpt>
      <trkpt lat="48.40386" lon="2.42514">
        <ele>135.39999389648</ele>
        <time>2024-04-14T10:01:44.000Z</time>
      </trkpt>
      <trkpt lat="48.40379" lon="2.42508">
        <ele>135.19999694824</ele>
        <time>2024-04-14T10:01:47.000Z</time>
      </trkpt>
      <trkpt lat="48.40379" lon="2.42501">
        <ele>135.39999389648</ele>
        <time>2024-04-14T10:01:49.000Z</time>
      </trkpt>
      <trkpt lat="48.40381" lon="2.42475">
        <ele>135.39999389648</ele>
        <time>2024-04-14T10:01:55.000Z</time>
      </trkpt>
      <trkpt lat="48.40389" lon="2.42441">
        <ele>136</ele>
        <time>2024-04-14T10:02:01.000Z</time>
      </trkpt>
      <trkpt lat="48.40393" lon="2.42433">
        <ele>136.39999389648</ele>
        <time>2024-04-14T10:02:03.000Z</time>
      </trkpt>
      <trkpt lat="48.40404" lon="2.42415">
        <ele>136.80000305176</ele>
        <time>2024-04-14T10:02:07.000Z</time>
      </trkpt>
      <trkpt lat="48.40407" lon="2.42388">
        <ele>136.60000610352</ele>
        <time>2024-04-14T10:02:11.000Z</time>
      </trkpt>
      <trkpt lat="48.40407" lon="2.42381">
        <ele>136.39999389648</ele>
        <time>2024-04-14T10:02:12.000Z</time>
      </trkpt>
      <trkpt lat="48.40406" lon="2.42346">
        <ele>136.39999389648</ele>
        <time>2024-04-14T10:02:17.000Z</time>
      </trkpt>
      <trkpt lat="48.40403" lon="2.42316">
        <ele>137</ele>
        <time>2024-04-14T10:02:21.000Z</time>
      </trkpt>
      <trkpt lat="48.40402" lon="2.42309">
        <ele>137.39999389648</ele>
        <time>2024-04-14T10:02:22.000Z</time>
      </trkpt>
      <trkpt lat="48.404" lon="2.42295">
        <ele>137.60000610352</ele>
        <time>2024-04-14T10:02:24.000Z</time>
      </trkpt>
      <trkpt lat="48.40392" lon="2.42234">
        <ele>138</ele>
        <time>2024-04-14T10:02:32.000Z</time>
      </trkpt>
      <trkpt lat="48.4039" lon="2.42219">
        <ele>138.39999389648</ele>
        <time>2024-04-14T10:02:34.000Z</time>
      </trkpt>
      <trkpt lat="48.40384" lon="2.42188">
        <ele>138.80000305176</ele>
        <time>2024-04-14T10:02:38.000Z</time>
      </trkpt>
      <trkpt lat="48.40381" lon="2.42183">
        <ele>138.80000305176</ele>
        <time>2024-04-14T10:02:39.000Z</time>
      </trkpt>
      <trkpt lat="48.40366" lon="2.42179">
        <ele>139.19999694824</ele>
        <time>2024-04-14T10:02:42.000Z</time>
      </trkpt>
      <trkpt lat="48.40355" lon="2.42182">
        <ele>139.60000610352</ele>
        <time>2024-04-14T10:02:44.000Z</time>
      </trkpt>
      <trkpt lat="48.40335" lon="2.42189">
        <ele>139.39999389648</ele>
        <time>2024-04-14T10:02:48.000Z</time>
      </trkpt>
      <trkpt lat="48.40324" lon="2.42193">
        <ele>139.60000610352</ele>
        <time>2024-04-14T10:02:50.000Z</time>
      </trkpt>
      <trkpt lat="48.40314" lon="2.4219">
        <ele>139.39999389648</ele>
        <time>2024-04-14T10:02:52.000Z</time>
      </trkpt>
      <trkpt lat="48.40304" lon="2.42182">
        <ele>139.80000305176</ele>
        <time>2024-04-14T10:02:54.000Z</time>
      </trkpt>
      <trkpt lat="48.40298" lon="2.42179">
        <ele>139.80000305176</ele>
        <time>2024-04-14T10:02:55.000Z</time>
      </trkpt>
      <trkpt lat="48.40288" lon="2.42176">
        <ele>140</ele>
        <time>2024-04-14T10:02:57.000Z</time>
      </trkpt>
      <trkpt lat="48.40272" lon="2.42178">
        <ele>140</ele>
        <time>2024-04-14T10:03:00.000Z</time>
      </trkpt>
      <trkpt lat="48.40261" lon="2.42181">
        <ele>140.19999694824</ele>
        <time>2024-04-14T10:03:02.000Z</time>
      </trkpt>
      <trkpt lat="48.4025" lon="2.42184">
        <ele>140.60000610352</ele>
        <time>2024-04-14T10:03:04.000Z</time>
      </trkpt>
      <trkpt lat="48.40228" lon="2.42186">
        <ele>140.80000305176</ele>
        <time>2024-04-14T10:03:08.000Z</time>
      </trkpt>
      <trkpt lat="48.40224" lon="2.42184">
        <ele>140.80000305176</ele>
        <time>2024-04-14T10:03:09.000Z</time>
      </trkpt>
      <trkpt lat="48.40219" lon="2.42167">
        <ele>140.80000305176</ele>
        <time>2024-04-14T10:03:12.000Z</time>
      </trkpt>
      <trkpt lat="48.40219" lon="2.4216">
        <ele>140.60000610352</ele>
        <time>2024-04-14T10:03:13.000Z</time>
      </trkpt>
      <trkpt lat="48.40218" lon="2.42153">
        <ele>140.39999389648</ele>
        <time>2024-04-14T10:03:14.000Z</time>
      </trkpt>
      <trkpt lat="48.40211" lon="2.42141">
        <ele>140</ele>
        <time>2024-04-14T10:03:16.000Z</time>
      </trkpt>
      <trkpt lat="48.40191" lon="2.42131">
        <ele>140.19999694824</ele>
        <time>2024-04-14T10:03:20.000Z</time>
      </trkpt>
      <trkpt lat="48.40186" lon="2.42131">
        <ele>140.39999389648</ele>
        <time>2024-04-14T10:03:21.000Z</time>
      </trkpt>
      <trkpt lat="48.4015" lon="2.42124">
        <ele>140</ele>
        <time>2024-04-14T10:03:27.000Z</time>
      </trkpt>
      <trkpt lat="48.40107" lon="2.42109">
        <ele>140.39999389648</ele>
        <time>2024-04-14T10:03:34.000Z</time>
      </trkpt>
      <trkpt lat="48.40058" lon="2.42093">
        <ele>140.19999694824</ele>
        <time>2024-04-14T10:03:42.000Z</time>
      </trkpt>
      <trkpt lat="48.40014" lon="2.42077">
        <ele>140.39999389648</ele>
        <time>2024-04-14T10:03:50.000Z</time>
      </trkpt>
      <trkpt lat="48.3999" lon="2.42068">
        <ele>140.60000610352</ele>
        <time>2024-04-14T10:03:56.000Z</time>
      </trkpt>
      <trkpt lat="48.39983" lon="2.42066">
        <ele>141</ele>
        <time>2024-04-14T10:04:01.000Z</time>
      </trkpt>
      <trkpt lat="48.39981" lon="2.42069">
        <ele>140.19999694824</ele>
        <time>2024-04-14T10:04:09.000Z</time>
      </trkpt>
      <trkpt lat="48.39981" lon="2.42069">
        <ele>140.19999694824</ele>
        <time>2024-04-14T10:04:24.000Z</time>
      </trkpt>
      <trkpt lat="48.39981" lon="2.42069">
        <ele>140.19999694824</ele>
        <time>2024-04-14T10:04:42.000Z</time>
      </trkpt>
      <trkpt lat="48.39981" lon="2.42069">
        <ele>140.39999389648</ele>
        <time>2024-04-14T10:04:57.000Z</time>
      </trkpt>
      <trkpt lat="48.39981" lon="2.42069">
        <ele>140.60000610352</ele>
        <time>2024-04-14T10:04:59.000Z</time>
      </trkpt>
      <trkpt lat="48.39981" lon="2.42069">
        <ele>140.39999389648</ele>
        <time>2024-04-14T10:05:14.000Z</time>
      </trkpt>
      <trkpt lat="48.39981" lon="2.4207">
        <ele>140.60000610352</ele>
        <time>2024-04-14T10:05:28.000Z</time>
      </trkpt>
      <trkpt lat="48.39981" lon="2.4207">
        <ele>140.39999389648</ele>
        <time>2024-04-14T10:05:48.000Z</time>
      </trkpt>
      <trkpt lat="48.39981" lon="2.4207">
        <ele>140.60000610352</ele>
        <time>2024-04-14T10:06:06.000Z</time>
      </trkpt>
      <trkpt lat="48.39981" lon="2.4207">
        <ele>140.60000610352</ele>
        <time>2024-04-14T10:06:13.000Z</time>
      </trkpt>
      <trkpt lat="48.39981" lon="2.4207">
        <ele>140.60000610352</ele>
        <time>2024-04-14T10:06:22.000Z</time>
      </trkpt>
      <trkpt lat="48.39981" lon="2.4207">
        <ele>140.80000305176</ele>
        <time>2024-04-14T10:06:42.000Z</time>
      </trkpt>
      <trkpt lat="48.39981" lon="2.42071">
        <ele>140.80000305176</ele>
        <time>2024-04-14T10:06:55.000Z</time>
      </trkpt>
      <trkpt lat="48.39981" lon="2.42071">
        <ele>140.80000305176</ele>
        <time>2024-04-14T10:07:15.000Z</time>
      </trkpt>
      <trkpt lat="48.39981" lon="2.42071">
        <ele>141</ele>
        <time>2024-04-14T10:07:18.000Z</time>
      </trkpt>
      <trkpt lat="48.39981" lon="2.42071">
        <ele>140.60000610352</ele>
        <time>2024-04-14T10:07:33.000Z</time>
      </trkpt>
      <trkpt lat="48.39981" lon="2.42071">
        <ele>140.60000610352</ele>
        <time>2024-04-14T10:07:48.000Z</time>
      </trkpt>
      <trkpt lat="48.39981" lon="2.42071">
        <ele>140.80000305176</ele>
        <time>2024-04-14T10:08:00.000Z</time>
      </trkpt>
      <trkpt lat="48.39981" lon="2.42071">
        <ele>141</ele>
        <time>2024-04-14T10:08:18.000Z</time>
      </trkpt>
      <trkpt lat="48.39981" lon="2.42071">
        <ele>141</ele>
        <time>2024-04-14T10:08:34.000Z</time>
      </trkpt>
      <trkpt lat="48.39981" lon="2.42071">
        <ele>141.19999694824</ele>
        <time>2024-04-14T10:08:38.000Z</time>
      </trkpt>
      <trkpt lat="48.3998" lon="2.42071">
        <ele>141.19999694824</ele>
        <time>2024-04-14T10:08:59.000Z</time>
      </trkpt>
      <trkpt lat="48.3998" lon="2.42071">
        <ele>141.19999694824</ele>
        <time>2024-04-14T10:09:10.000Z</time>
      </trkpt>
      <trkpt lat="48.3998" lon="2.42072">
        <ele>141.19999694824</ele>
        <time>2024-04-14T10:09:30.000Z</time>
      </trkpt>
      <trkpt lat="48.3998" lon="2.42072">
        <ele>141.60000610352</ele>
        <time>2024-04-14T10:09:48.000Z</time>
      </trkpt>
      <trkpt lat="48.3998" lon="2.42072">
        <ele>141.39999389648</ele>
        <time>2024-04-14T10:10:05.000Z</time>
      </trkpt>
      <trkpt lat="48.3998" lon="2.42072">
        <ele>141.39999389648</ele>
        <time>2024-04-14T10:10:23.000Z</time>
      </trkpt>
      <trkpt lat="48.3998" lon="2.42072">
        <ele>141.39999389648</ele>
        <time>2024-04-14T10:10:25.000Z</time>
      </trkpt>
      <trkpt lat="48.3998" lon="2.42072">
        <ele>141.39999389648</ele>
        <time>2024-04-14T10:10:42.000Z</time>
      </trkpt>
      <trkpt lat="48.3998" lon="2.42071">
        <ele>141.39999389648</ele>
        <time>2024-04-14T10:10:59.000Z</time>
      </trkpt>
      <trkpt lat="48.3998" lon="2.42071">
        <ele>141.39999389648</ele>
        <time>2024-04-14T10:11:20.000Z</time>
      </trkpt>
      <trkpt lat="48.3998" lon="2.42071">
        <ele>141.60000610352</ele>
        <time>2024-04-14T10:11:37.000Z</time>
      </trkpt>
      <trkpt lat="48.3998" lon="2.42071">
        <ele>141.60000610352</ele>
        <time>2024-04-14T10:11:52.000Z</time>
      </trkpt>
      <trkpt lat="48.3998" lon="2.42071">
        <ele>141.60000610352</ele>
        <time>2024-04-14T10:11:53.000Z</time>
      </trkpt>
      <trkpt lat="48.3998" lon="2.42071">
        <ele>141.60000610352</ele>
        <time>2024-04-14T10:11:55.000Z</time>
      </trkpt>
      <trkpt lat="48.3998" lon="2.42071">
        <ele>141.60000610352</ele>
        <time>2024-04-14T10:12:12.000Z</time>
      </trkpt>
      <trkpt lat="48.3998" lon="2.42071">
        <ele>141.80000305176</ele>
        <time>2024-04-14T10:12:32.000Z</time>
      </trkpt>
      <trkpt lat="48.3998" lon="2.42071">
        <ele>141.80000305176</ele>
        <time>2024-04-14T10:12:51.000Z</time>
      </trkpt>
      <trkpt lat="48.3998" lon="2.42071">
        <ele>141.80000305176</ele>
        <time>2024-04-14T10:13:08.000Z</time>
      </trkpt>
      <trkpt lat="48.3998" lon="2.42071">
        <ele>141.80000305176</ele>
        <time>2024-04-14T10:13:23.000Z</time>
      </trkpt>
      <trkpt lat="48.3998" lon="2.42071">
        <ele>142</ele>
        <time>2024-04-14T10:13:40.000Z</time>
      </trkpt>
      <trkpt lat="48.3998" lon="2.42071">
        <ele>142</ele>
        <time>2024-04-14T10:13:56.000Z</time>
      </trkpt>
      <trkpt lat="48.3998" lon="2.42071">
        <ele>142</ele>
        <time>2024-04-14T10:14:03.000Z</time>
      </trkpt>
      <trkpt lat="48.3998" lon="2.42071">
        <ele>142</ele>
        <time>2024-04-14T10:14:11.000Z</time>
      </trkpt>
      <trkpt lat="48.3998" lon="2.42071">
        <ele>142</ele>
        <time>2024-04-14T10:14:30.000Z</time>
      </trkpt>
      <trkpt lat="48.3998" lon="2.42071">
        <ele>142.60000610352</ele>
        <time>2024-04-14T10:14:40.000Z</time>
      </trkpt>
      <trkpt lat="48.3998" lon="2.42071">
        <ele>142.80000305176</ele>
        <time>2024-04-14T10:14:42.000Z</time>
      </trkpt>
      <trkpt lat="48.3998" lon="2.42071">
        <ele>142.60000610352</ele>
        <time>2024-04-14T10:14:46.000Z</time>
      </trkpt>
      <trkpt lat="48.3998" lon="2.42071">
        <ele>142.60000610352</ele>
        <time>2024-04-14T10:14:56.000Z</time>
      </trkpt>
      <trkpt lat="48.39979" lon="2.42071">
        <ele>142.60000610352</ele>
        <time>2024-04-14T10:15:00.000Z</time>
      </trkpt>
      <trkpt lat="48.39976" lon="2.42075">
        <ele>142.60000610352</ele>
        <time>2024-04-14T10:15:03.000Z</time>
      </trkpt>
      <trkpt lat="48.3997" lon="2.4208">
        <ele>142.80000305176</ele>
        <time>2024-04-14T10:15:07.000Z</time>
      </trkpt>
      <trkpt lat="48.39969" lon="2.42082">
        <ele>142.80000305176</ele>
        <time>2024-04-14T10:15:08.000Z</time>
      </trkpt>
      <trkpt lat="48.39968" lon="2.42084">
        <ele>142.80000305176</ele>
        <time>2024-04-14T10:15:09.000Z</time>
      </trkpt>
      <trkpt lat="48.39959" lon="2.42102">
        <ele>143.19999694824</ele>
        <time>2024-04-14T10:15:15.000Z</time>
      </trkpt>
      <trkpt lat="48.39943" lon="2.42129">
        <ele>142.80000305176</ele>
        <time>2024-04-14T10:15:22.000Z</time>
      </trkpt>
      <trkpt lat="48.39918" lon="2.42159">
        <ele>143.19999694824</ele>
        <time>2024-04-14T10:15:30.000Z</time>
      </trkpt>
      <trkpt lat="48.39915" lon="2.42164">
        <ele>143.19999694824</ele>
        <time>2024-04-14T10:15:31.000Z</time>
      </trkpt>
      <trkpt lat="48.399" lon="2.42182">
        <ele>143.60000610352</ele>
        <time>2024-04-14T10:15:35.000Z</time>
      </trkpt>
      <trkpt lat="48.39872" lon="2.42202">
        <ele>143.19999694824</ele>
        <time>2024-04-14T10:15:41.000Z</time>
      </trkpt>
      <trkpt lat="48.39868" lon="2.42205">
        <ele>143.19999694824</ele>
        <time>2024-04-14T10:15:42.000Z</time>
      </trkpt>
      <trkpt lat="48.39828" lon="2.4222">
        <ele>143.39999389648</ele>
        <time>2024-04-14T10:15:50.000Z</time>
      </trkpt>
      <trkpt lat="48.39819" lon="2.42222">
        <ele>143.80000305176</ele>
        <time>2024-04-14T10:15:52.000Z</time>
      </trkpt>
      <trkpt lat="48.39802" lon="2.42227">
        <ele>143.39999389648</ele>
        <time>2024-04-14T10:15:56.000Z</time>
      </trkpt>
      <trkpt lat="48.39772" lon="2.4223">
        <ele>144</ele>
        <time>2024-04-14T10:16:02.000Z</time>
      </trkpt>
      <trkpt lat="48.39725" lon="2.42233">
        <ele>144.19999694824</ele>
        <time>2024-04-14T10:16:10.000Z</time>
      </trkpt>
      <trkpt lat="48.39703" lon="2.42234">
        <ele>144.39999389648</ele>
        <time>2024-04-14T10:16:14.000Z</time>
      </trkpt>
      <trkpt lat="48.39691" lon="2.42228">
        <ele>144</ele>
        <time>2024-04-14T10:16:16.000Z</time>
      </trkpt>
      <trkpt lat="48.39675" lon="2.42221">
        <ele>144</ele>
        <time>2024-04-14T10:16:19.000Z</time>
      </trkpt>
      <trkpt lat="48.39664" lon="2.4223">
        <ele>144.60000610352</ele>
        <time>2024-04-14T10:16:21.000Z</time>
      </trkpt>
      <trkpt lat="48.39651" lon="2.42262">
        <ele>144.60000610352</ele>
        <time>2024-04-14T10:16:25.000Z</time>
      </trkpt>
      <trkpt lat="48.39653" lon="2.42271">
        <ele>144.80000305176</ele>
        <time>2024-04-14T10:16:26.000Z</time>
      </trkpt>
      <trkpt lat="48.39656" lon="2.42279">
        <ele>145</ele>
        <time>2024-04-14T10:16:27.000Z</time>
      </trkpt>
      <trkpt lat="48.39665" lon="2.42292">
        <ele>144.60000610352</ele>
        <time>2024-04-14T10:16:29.000Z</time>
      </trkpt>
      <trkpt lat="48.39668" lon="2.42301">
        <ele>144.39999389648</ele>
        <time>2024-04-14T10:16:30.000Z</time>
      </trkpt>
      <trkpt lat="48.39672" lon="2.4233">
        <ele>143.80000305176</ele>
        <time>2024-04-14T10:16:33.000Z</time>
      </trkpt>
      <trkpt lat="48.39672" lon="2.4234">
        <ele>143.80000305176</ele>
        <time>2024-04-14T10:16:34.000Z</time>
      </trkpt>
      <trkpt lat="48.39675" lon="2.42371">
        <ele>143.60000610352</ele>
        <time>2024-04-14T10:16:37.000Z</time>
      </trkpt>
      <trkpt lat="48.3968" lon="2.42422">
        <ele>143.80000305176</ele>
        <time>2024-04-14T10:16:42.000Z</time>
      </trkpt>
      <trkpt lat="48.39687" lon="2.42509">
        <ele>143.80000305176</ele>
        <time>2024-04-14T10:16:50.000Z</time>
      </trkpt>
      <trkpt lat="48.39691" lon="2.42554">
        <ele>143.60000610352</ele>
        <time>2024-04-14T10:16:54.000Z</time>
      </trkpt>
      <trkpt lat="48.39697" lon="2.42636">
        <ele>143</ele>
        <time>2024-04-14T10:17:01.000Z</time>
      </trkpt>
      <trkpt lat="48.397" lon="2.42682">
        <ele>143</ele>
        <time>2024-04-14T10:17:05.000Z</time>
      </trkpt>
      <trkpt lat="48.39702" lon="2.42717">
        <ele>142.60000610352</ele>
        <time>2024-04-14T10:17:08.000Z</time>
      </trkpt>
      <trkpt lat="48.39708" lon="2.428">
        <ele>142.80000305176</ele>
        <time>2024-04-14T10:17:15.000Z</time>
      </trkpt>
      <trkpt lat="48.39708" lon="2.42824">
        <ele>142</ele>
        <time>2024-04-14T10:17:17.000Z</time>
      </trkpt>
      <trkpt lat="48.39701" lon="2.42907">
        <ele>141.60000610352</ele>
        <time>2024-04-14T10:17:24.000Z</time>
      </trkpt>
      <trkpt lat="48.39693" lon="2.42941">
        <ele>141.39999389648</ele>
        <time>2024-04-14T10:17:27.000Z</time>
      </trkpt>
      <trkpt lat="48.39684" lon="2.42973">
        <ele>141</ele>
        <time>2024-04-14T10:17:30.000Z</time>
      </trkpt>
      <trkpt lat="48.39668" lon="2.43014">
        <ele>140.39999389648</ele>
        <time>2024-04-14T10:17:34.000Z</time>
      </trkpt>
      <trkpt lat="48.39653" lon="2.43043">
        <ele>140</ele>
        <time>2024-04-14T10:17:37.000Z</time>
      </trkpt>
      <trkpt lat="48.39625" lon="2.43103">
        <ele>139.19999694824</ele>
        <time>2024-04-14T10:17:43.000Z</time>
      </trkpt>
      <trkpt lat="48.39621" lon="2.43113">
        <ele>139.19999694824</ele>
        <time>2024-04-14T10:17:44.000Z</time>
      </trkpt>
      <trkpt lat="48.39601" lon="2.43155">
        <ele>138</ele>
        <time>2024-04-14T10:17:49.000Z</time>
      </trkpt>
      <trkpt lat="48.39596" lon="2.43158">
        <ele>138</ele>
        <time>2024-04-14T10:17:50.000Z</time>
      </trkpt>
      <trkpt lat="48.39575" lon="2.43158">
        <ele>138</ele>
        <time>2024-04-14T10:17:53.000Z</time>
      </trkpt>
      <trkpt lat="48.39569" lon="2.43156">
        <ele>138.19999694824</ele>
        <time>2024-04-14T10:17:54.000Z</time>
      </trkpt>
      <trkpt lat="48.39549" lon="2.43147">
        <ele>138.19999694824</ele>
        <time>2024-04-14T10:17:57.000Z</time>
      </trkpt>
      <trkpt lat="48.39543" lon="2.43143">
        <ele>138.19999694824</ele>
        <time>2024-04-14T10:17:58.000Z</time>
      </trkpt>
      <trkpt lat="48.39497" lon="2.43109">
        <ele>137.39999389648</ele>
        <time>2024-04-14T10:18:05.000Z</time>
      </trkpt>
      <trkpt lat="48.39491" lon="2.43102">
        <ele>137.19999694824</ele>
        <time>2024-04-14T10:18:06.000Z</time>
      </trkpt>
      <trkpt lat="48.39486" lon="2.43094">
        <ele>137</ele>
        <time>2024-04-14T10:18:07.000Z</time>
      </trkpt>
      <trkpt lat="48.39483" lon="2.43083">
        <ele>136.39999389648</ele>
        <time>2024-04-14T10:18:08.000Z</time>
      </trkpt>
      <trkpt lat="48.39477" lon="2.43061">
        <ele>135.80000305176</ele>
        <time>2024-04-14T10:18:10.000Z</time>
      </trkpt>
      <trkpt lat="48.39474" lon="2.43051">
        <ele>135.80000305176</ele>
        <time>2024-04-14T10:18:11.000Z</time>
      </trkpt>
      <trkpt lat="48.39469" lon="2.43044">
        <ele>136</ele>
        <time>2024-04-14T10:18:12.000Z</time>
      </trkpt>
      <trkpt lat="48.39459" lon="2.43047">
        <ele>136.19999694824</ele>
        <time>2024-04-14T10:18:14.000Z</time>
      </trkpt>
      <trkpt lat="48.39456" lon="2.4306">
        <ele>135.80000305176</ele>
        <time>2024-04-14T10:18:16.000Z</time>
      </trkpt>
      <trkpt lat="48.39456" lon="2.43089">
        <ele>135.19999694824</ele>
        <time>2024-04-14T10:18:19.000Z</time>
      </trkpt>
      <trkpt lat="48.39457" lon="2.43101">
        <ele>134.80000305176</ele>
        <time>2024-04-14T10:18:20.000Z</time>
      </trkpt>
      <trkpt lat="48.39458" lon="2.43113">
        <ele>134.60000610352</ele>
        <time>2024-04-14T10:18:21.000Z</time>
      </trkpt>
      <trkpt lat="48.3946" lon="2.43151">
        <ele>133.19999694824</ele>
        <time>2024-04-14T10:18:24.000Z</time>
      </trkpt>
      <trkpt lat="48.39461" lon="2.43164">
        <ele>132.60000610352</ele>
        <time>2024-04-14T10:18:25.000Z</time>
      </trkpt>
      <trkpt lat="48.39462" lon="2.43177">
        <ele>132</ele>
        <time>2024-04-14T10:18:26.000Z</time>
      </trkpt>
      <trkpt lat="48.39467" lon="2.43245">
        <ele>131</ele>
        <time>2024-04-14T10:18:31.000Z</time>
      </trkpt>
      <trkpt lat="48.39468" lon="2.43259">
        <ele>130.80000305176</ele>
        <time>2024-04-14T10:18:32.000Z</time>
      </trkpt>
      <trkpt lat="48.39478" lon="2.43314">
        <ele>129.60000610352</ele>
        <time>2024-04-14T10:18:36.000Z</time>
      </trkpt>
      <trkpt lat="48.39485" lon="2.4334">
        <ele>128.39999389648</ele>
        <time>2024-04-14T10:18:38.000Z</time>
      </trkpt>
      <trkpt lat="48.39497" lon="2.43379">
        <ele>127.19999694824</ele>
        <time>2024-04-14T10:18:41.000Z</time>
      </trkpt>
      <trkpt lat="48.39506" lon="2.43406">
        <ele>126.19999694824</ele>
        <time>2024-04-14T10:18:43.000Z</time>
      </trkpt>
      <trkpt lat="48.39524" lon="2.43462">
        <ele>125.19999694824</ele>
        <time>2024-04-14T10:18:47.000Z</time>
      </trkpt>
      <trkpt lat="48.39533" lon="2.4349">
        <ele>124</ele>
        <time>2024-04-14T10:18:49.000Z</time>
      </trkpt>
      <trkpt lat="48.39542" lon="2.4352">
        <ele>123.59999847412</ele>
        <time>2024-04-14T10:18:51.000Z</time>
      </trkpt>
      <trkpt lat="48.39552" lon="2.43547">
        <ele>122.80000305176</ele>
        <time>2024-04-14T10:18:53.000Z</time>
      </trkpt>
      <trkpt lat="48.39565" lon="2.43573">
        <ele>123</ele>
        <time>2024-04-14T10:18:55.000Z</time>
      </trkpt>
      <trkpt lat="48.39593" lon="2.43602">
        <ele>121.80000305176</ele>
        <time>2024-04-14T10:18:58.000Z</time>
      </trkpt>
      <trkpt lat="48.39604" lon="2.43608">
        <ele>120.59999847412</ele>
        <time>2024-04-14T10:18:59.000Z</time>
      </trkpt>
      <trkpt lat="48.39615" lon="2.43615">
        <ele>120</ele>
        <time>2024-04-14T10:19:00.000Z</time>
      </trkpt>
      <trkpt lat="48.39626" lon="2.43622">
        <ele>119.59999847412</ele>
        <time>2024-04-14T10:19:01.000Z</time>
      </trkpt>
      <trkpt lat="48.39636" lon="2.4363">
        <ele>118.80000305176</ele>
        <time>2024-04-14T10:19:02.000Z</time>
      </trkpt>
      <trkpt lat="48.39646" lon="2.43639">
        <ele>118.19999694824</ele>
        <time>2024-04-14T10:19:03.000Z</time>
      </trkpt>
      <trkpt lat="48.39655" lon="2.43649">
        <ele>117.80000305176</ele>
        <time>2024-04-14T10:19:04.000Z</time>
      </trkpt>
      <trkpt lat="48.39664" lon="2.43661">
        <ele>117</ele>
        <time>2024-04-14T10:19:05.000Z</time>
      </trkpt>
      <trkpt lat="48.39671" lon="2.43674">
        <ele>116.40000152588</ele>
        <time>2024-04-14T10:19:06.000Z</time>
      </trkpt>
      <trkpt lat="48.39675" lon="2.43688">
        <ele>115.80000305176</ele>
        <time>2024-04-14T10:19:07.000Z</time>
      </trkpt>
      <trkpt lat="48.39682" lon="2.4372">
        <ele>115.80000305176</ele>
        <time>2024-04-14T10:19:09.000Z</time>
      </trkpt>
      <trkpt lat="48.39684" lon="2.43737">
        <ele>115.19999694824</ele>
        <time>2024-04-14T10:19:10.000Z</time>
      </trkpt>
      <trkpt lat="48.39686" lon="2.43753">
        <ele>115</ele>
        <time>2024-04-14T10:19:11.000Z</time>
      </trkpt>
      <trkpt lat="48.39688" lon="2.43769">
        <ele>114.59999847412</ele>
        <time>2024-04-14T10:19:12.000Z</time>
      </trkpt>
      <trkpt lat="48.39688" lon="2.43786">
        <ele>114.59999847412</ele>
        <time>2024-04-14T10:19:13.000Z</time>
      </trkpt>
      <trkpt lat="48.39692" lon="2.43835">
        <ele>113.40000152588</ele>
        <time>2024-04-14T10:19:16.000Z</time>
      </trkpt>
      <trkpt lat="48.39697" lon="2.43866">
        <ele>112.80000305176</ele>
        <time>2024-04-14T10:19:18.000Z</time>
      </trkpt>
      <trkpt lat="48.39701" lon="2.4388">
        <ele>112.19999694824</ele>
        <time>2024-04-14T10:19:19.000Z</time>
      </trkpt>
      <trkpt lat="48.39706" lon="2.43893">
        <ele>111.80000305176</ele>
        <time>2024-04-14T10:19:20.000Z</time>
      </trkpt>
      <trkpt lat="48.39712" lon="2.43905">
        <ele>111.19999694824</ele>
        <time>2024-04-14T10:19:21.000Z</time>
      </trkpt>
      <trkpt lat="48.39718" lon="2.43918">
        <ele>110.80000305176</ele>
        <time>2024-04-14T10:19:22.000Z</time>
      </trkpt>
      <trkpt lat="48.39725" lon="2.4393">
        <ele>109.80000305176</ele>
        <time>2024-04-14T10:19:23.000Z</time>
      </trkpt>
      <trkpt lat="48.3974" lon="2.4395">
        <ele>108.80000305176</ele>
        <time>2024-04-14T10:19:25.000Z</time>
      </trkpt>
      <trkpt lat="48.39747" lon="2.43962">
        <ele>108.59999847412</ele>
        <time>2024-04-14T10:19:26.000Z</time>
      </trkpt>
      <trkpt lat="48.39762" lon="2.43983">
        <ele>107.40000152588</ele>
        <time>2024-04-14T10:19:28.000Z</time>
      </trkpt>
      <trkpt lat="48.39784" lon="2.44016">
        <ele>106</ele>
        <time>2024-04-14T10:19:31.000Z</time>
      </trkpt>
      <trkpt lat="48.39803" lon="2.44048">
        <ele>105.80000305176</ele>
        <time>2024-04-14T10:19:34.000Z</time>
      </trkpt>
      <trkpt lat="48.3982" lon="2.44085">
        <ele>104.59999847412</ele>
        <time>2024-04-14T10:19:37.000Z</time>
      </trkpt>
      <trkpt lat="48.39824" lon="2.44099">
        <ele>104.19999694824</ele>
        <time>2024-04-14T10:19:38.000Z</time>
      </trkpt>
      <trkpt lat="48.39828" lon="2.44114">
        <ele>104</ele>
        <time>2024-04-14T10:19:39.000Z</time>
      </trkpt>
      <trkpt lat="48.39833" lon="2.44144">
        <ele>103.59999847412</ele>
        <time>2024-04-14T10:19:41.000Z</time>
      </trkpt>
      <trkpt lat="48.39835" lon="2.4416">
        <ele>103.19999694824</ele>
        <time>2024-04-14T10:19:42.000Z</time>
      </trkpt>
      <trkpt lat="48.39839" lon="2.44206">
        <ele>102.19999694824</ele>
        <time>2024-04-14T10:19:45.000Z</time>
      </trkpt>
      <trkpt lat="48.39839" lon="2.44237">
        <ele>101.19999694824</ele>
        <time>2024-04-14T10:19:47.000Z</time>
      </trkpt>
      <trkpt lat="48.3984" lon="2.44269">
        <ele>100.40000152588</ele>
        <time>2024-04-14T10:19:49.000Z</time>
      </trkpt>
      <trkpt lat="48.3984" lon="2.44285">
        <ele>99.800003051758</ele>
        <time>2024-04-14T10:19:50.000Z</time>
      </trkpt>
      <trkpt lat="48.39841" lon="2.44318">
        <ele>98.599998474121</ele>
        <time>2024-04-14T10:19:52.000Z</time>
      </trkpt>
      <trkpt lat="48.39845" lon="2.44401">
        <ele>97</ele>
        <time>2024-04-14T10:19:57.000Z</time>
      </trkpt>
      <trkpt lat="48.39845" lon="2.44417">
        <ele>96.400001525879</ele>
        <time>2024-04-14T10:19:58.000Z</time>
      </trkpt>
      <trkpt lat="48.39846" lon="2.44433">
        <ele>96</ele>
        <time>2024-04-14T10:19:59.000Z</time>
      </trkpt>
      <trkpt lat="48.39849" lon="2.44496">
        <ele>94.400001525879</ele>
        <time>2024-04-14T10:20:03.000Z</time>
      </trkpt>
      <trkpt lat="48.39856" lon="2.44559">
        <ele>93.199996948242</ele>
        <time>2024-04-14T10:20:07.000Z</time>
      </trkpt>
      <trkpt lat="48.39858" lon="2.44574">
        <ele>93</ele>
        <time>2024-04-14T10:20:08.000Z</time>
      </trkpt>
      <trkpt lat="48.39863" lon="2.446">
        <ele>92</ele>
        <time>2024-04-14T10:20:10.000Z</time>
      </trkpt>
      <trkpt lat="48.39865" lon="2.44611">
        <ele>91.800003051758</ele>
        <time>2024-04-14T10:20:11.000Z</time>
      </trkpt>
      <trkpt lat="48.3987" lon="2.44619">
        <ele>91.599998474121</ele>
        <time>2024-04-14T10:20:12.000Z</time>
      </trkpt>
      <trkpt lat="48.39878" lon="2.44637">
        <ele>89.800003051758</ele>
        <time>2024-04-14T10:20:14.000Z</time>
      </trkpt>
      <trkpt lat="48.39888" lon="2.44657">
        <ele>88.800003051758</ele>
        <time>2024-04-14T10:20:16.000Z</time>
      </trkpt>
      <trkpt lat="48.39912" lon="2.44699">
        <ele>88.599998474121</ele>
        <time>2024-04-14T10:20:21.000Z</time>
      </trkpt>
      <trkpt lat="48.39928" lon="2.44728">
        <ele>87.599998474121</ele>
        <time>2024-04-14T10:20:24.000Z</time>
      </trkpt>
      <trkpt lat="48.39944" lon="2.44757">
        <ele>86.400001525879</ele>
        <time>2024-04-14T10:20:27.000Z</time>
      </trkpt>
      <trkpt lat="48.3995" lon="2.44767">
        <ele>86</ele>
        <time>2024-04-14T10:20:28.000Z</time>
      </trkpt>
      <trkpt lat="48.39967" lon="2.44798">
        <ele>85.400001525879</ele>
        <time>2024-04-14T10:20:31.000Z</time>
      </trkpt>
      <trkpt lat="48.40001" lon="2.44863">
        <ele>84.400001525879</ele>
        <time>2024-04-14T10:20:37.000Z</time>
      </trkpt>
      <trkpt lat="48.40006" lon="2.44874">
        <ele>84.400001525879</ele>
        <time>2024-04-14T10:20:38.000Z</time>
      </trkpt>
      <trkpt lat="48.40023" lon="2.44906">
        <ele>83.199996948242</ele>
        <time>2024-04-14T10:20:41.000Z</time>
      </trkpt>
      <trkpt lat="48.40037" lon="2.44941">
        <ele>83</ele>
        <time>2024-04-14T10:20:44.000Z</time>
      </trkpt>
      <trkpt lat="48.4004" lon="2.44953">
        <ele>83</ele>
        <time>2024-04-14T10:20:45.000Z</time>
      </trkpt>
      <trkpt lat="48.40058" lon="2.44997">
        <ele>82.800003051758</ele>
        <time>2024-04-14T10:20:49.000Z</time>
      </trkpt>
      <trkpt lat="48.40078" lon="2.45031">
        <ele>82.599998474121</ele>
        <time>2024-04-14T10:20:53.000Z</time>
      </trkpt>
      <trkpt lat="48.40086" lon="2.45046">
        <ele>82.800003051758</ele>
        <time>2024-04-14T10:20:55.000Z</time>
      </trkpt>
      <trkpt lat="48.40089" lon="2.45055">
        <ele>83</ele>
        <time>2024-04-14T10:20:56.000Z</time>
      </trkpt>
      <trkpt lat="48.40089" lon="2.45071">
        <ele>83.199996948242</ele>
        <time>2024-04-14T10:20:58.000Z</time>
      </trkpt>
      <trkpt lat="48.4008" lon="2.45096">
        <ele>82.800003051758</ele>
        <time>2024-04-14T10:21:01.000Z</time>
      </trkpt>
      <trkpt lat="48.40078" lon="2.45104">
        <ele>82.800003051758</ele>
        <time>2024-04-14T10:21:02.000Z</time>
      </trkpt>
      <trkpt lat="48.40078" lon="2.45126">
        <ele>82.400001525879</ele>
        <time>2024-04-14T10:21:05.000Z</time>
      </trkpt>
      <trkpt lat="48.40085" lon="2.45143">
        <ele>82.199996948242</ele>
        <time>2024-04-14T10:21:07.000Z</time>
      </trkpt>
      <trkpt lat="48.4009" lon="2.45151">
        <ele>81.800003051758</ele>
        <time>2024-04-14T10:21:08.000Z</time>
      </trkpt>
      <trkpt lat="48.40104" lon="2.4518">
        <ele>81.199996948242</ele>
        <time>2024-04-14T10:21:12.000Z</time>
      </trkpt>
      <trkpt lat="48.40106" lon="2.45189">
        <ele>81</ele>
        <time>2024-04-14T10:21:13.000Z</time>
      </trkpt>
      <trkpt lat="48.40114" lon="2.4522">
        <ele>81.199996948242</ele>
        <time>2024-04-14T10:21:17.000Z</time>
      </trkpt>
      <trkpt lat="48.40117" lon="2.45236">
        <ele>81</ele>
        <time>2024-04-14T10:21:19.000Z</time>
      </trkpt>
      <trkpt lat="48.40121" lon="2.45276">
        <ele>80.800003051758</ele>
        <time>2024-04-14T10:21:25.000Z</time>
      </trkpt>
      <trkpt lat="48.40118" lon="2.45301">
        <ele>80.800003051758</ele>
        <time>2024-04-14T10:21:30.000Z</time>
      </trkpt>
      <trkpt lat="48.40114" lon="2.45327">
        <ele>80.800003051758</ele>
        <time>2024-04-14T10:21:34.000Z</time>
      </trkpt>
      <trkpt lat="48.40114" lon="2.45341">
        <ele>80.800003051758</ele>
        <time>2024-04-14T10:21:36.000Z</time>
      </trkpt>
      <trkpt lat="48.40113" lon="2.45368">
        <ele>80.599998474121</ele>
        <time>2024-04-14T10:21:40.000Z</time>
      </trkpt>
      <trkpt lat="48.40111" lon="2.45374">
        <ele>80.599998474121</ele>
        <time>2024-04-14T10:21:41.000Z</time>
      </trkpt>
      <trkpt lat="48.40104" lon="2.45387">
        <ele>80.800003051758</ele>
        <time>2024-04-14T10:21:44.000Z</time>
      </trkpt>
      <trkpt lat="48.40087" lon="2.45388">
        <ele>80.599998474121</ele>
        <time>2024-04-14T10:21:48.000Z</time>
      </trkpt>
      <trkpt lat="48.40081" lon="2.45387">
        <ele>80.599998474121</ele>
        <time>2024-04-14T10:21:49.000Z</time>
      </trkpt>
      <trkpt lat="48.40047" lon="2.4538">
        <ele>81.199996948242</ele>
        <time>2024-04-14T10:21:55.000Z</time>
      </trkpt>
      <trkpt lat="48.39993" lon="2.45376">
        <ele>81.800003051758</ele>
        <time>2024-04-14T10:22:04.000Z</time>
      </trkpt>
      <trkpt lat="48.39956" lon="2.45375">
        <ele>82</ele>
        <time>2024-04-14T10:22:10.000Z</time>
      </trkpt>
      <trkpt lat="48.39938" lon="2.45379">
        <ele>82</ele>
        <time>2024-04-14T10:22:13.000Z</time>
      </trkpt>
      <trkpt lat="48.39925" lon="2.45385">
        <ele>82</ele>
        <time>2024-04-14T10:22:15.000Z</time>
      </trkpt>
      <trkpt lat="48.39919" lon="2.45388">
        <ele>82.199996948242</ele>
        <time>2024-04-14T10:22:16.000Z</time>
      </trkpt>
      <trkpt lat="48.3987" lon="2.45405">
        <ele>82.199996948242</ele>
        <time>2024-04-14T10:22:24.000Z</time>
      </trkpt>
      <trkpt lat="48.3983" lon="2.4541">
        <ele>82.599998474121</ele>
        <time>2024-04-14T10:22:31.000Z</time>
      </trkpt>
      <trkpt lat="48.39806" lon="2.45413">
        <ele>82.400001525879</ele>
        <time>2024-04-14T10:22:35.000Z</time>
      </trkpt>
      <trkpt lat="48.39793" lon="2.45417">
        <ele>82.599998474121</ele>
        <time>2024-04-14T10:22:37.000Z</time>
      </trkpt>
      <trkpt lat="48.39743" lon="2.45432">
        <ele>83.400001525879</ele>
        <time>2024-04-14T10:22:45.000Z</time>
      </trkpt>
      <trkpt lat="48.3973" lon="2.45436">
        <ele>83.599998474121</ele>
        <time>2024-04-14T10:22:47.000Z</time>
      </trkpt>
      <trkpt lat="48.39674" lon="2.45449">
        <ele>83.199996948242</ele>
        <time>2024-04-14T10:22:56.000Z</time>
      </trkpt>
      <trkpt lat="48.39643" lon="2.45453">
        <ele>83.800003051758</ele>
        <time>2024-04-14T10:23:02.000Z</time>
      </trkpt>
      <trkpt lat="48.39637" lon="2.45452">
        <ele>83.599998474121</ele>
        <time>2024-04-14T10:23:03.000Z</time>
      </trkpt>
      <trkpt lat="48.3962" lon="2.45449">
        <ele>83.599998474121</ele>
        <time>2024-04-14T10:23:06.000Z</time>
      </trkpt>
      <trkpt lat="48.39579" lon="2.45435">
        <ele>83.800003051758</ele>
        <time>2024-04-14T10:23:13.000Z</time>
      </trkpt>
      <trkpt lat="48.39554" lon="2.45425">
        <ele>84.400001525879</ele>
        <time>2024-04-14T10:23:18.000Z</time>
      </trkpt>
      <trkpt lat="48.39529" lon="2.45416">
        <ele>85</ele>
        <time>2024-04-14T10:23:23.000Z</time>
      </trkpt>
      <trkpt lat="48.39501" lon="2.45405">
        <ele>85.599998474121</ele>
        <time>2024-04-14T10:23:29.000Z</time>
      </trkpt>
      <trkpt lat="48.39497" lon="2.45404">
        <ele>85.800003051758</ele>
        <time>2024-04-14T10:23:30.000Z</time>
      </trkpt>
      <trkpt lat="48.39488" lon="2.45419">
        <ele>86</ele>
        <time>2024-04-14T10:23:33.000Z</time>
      </trkpt>
      <trkpt lat="48.39487" lon="2.45452">
        <ele>85.599998474121</ele>
        <time>2024-04-14T10:23:37.000Z</time>
      </trkpt>
      <trkpt lat="48.39492" lon="2.4548">
        <ele>85.599998474121</ele>
        <time>2024-04-14T10:23:40.000Z</time>
      </trkpt>
      <trkpt lat="48.39496" lon="2.45498">
        <ele>85.599998474121</ele>
        <time>2024-04-14T10:23:42.000Z</time>
      </trkpt>
      <trkpt lat="48.39518" lon="2.45575">
        <ele>86</ele>
        <time>2024-04-14T10:23:51.000Z</time>
      </trkpt>
      <trkpt lat="48.39524" lon="2.45592">
        <ele>86.599998474121</ele>
        <time>2024-04-14T10:23:53.000Z</time>
      </trkpt>
      <trkpt lat="48.39539" lon="2.45625">
        <ele>86</ele>
        <time>2024-04-14T10:23:58.000Z</time>
      </trkpt>
      <trkpt lat="48.39562" lon="2.45672">
        <ele>85.800003051758</ele>
        <time>2024-04-14T10:24:04.000Z</time>
      </trkpt>
      <trkpt lat="48.39574" lon="2.45695">
        <ele>85.800003051758</ele>
        <time>2024-04-14T10:24:08.000Z</time>
      </trkpt>
      <trkpt lat="48.39571" lon="2.45707">
        <ele>86</ele>
        <time>2024-04-14T10:24:11.000Z</time>
      </trkpt>
      <trkpt lat="48.39562" lon="2.45712">
        <ele>87.800003051758</ele>
        <time>2024-04-14T10:24:14.000Z</time>
      </trkpt>
      <trkpt lat="48.39558" lon="2.45713">
        <ele>88.199996948242</ele>
        <time>2024-04-14T10:24:15.000Z</time>
      </trkpt>
      <trkpt lat="48.39551" lon="2.45715">
        <ele>89</ele>
        <time>2024-04-14T10:24:17.000Z</time>
      </trkpt>
      <trkpt lat="48.3954" lon="2.45718">
        <ele>90</ele>
        <time>2024-04-14T10:24:20.000Z</time>
      </trkpt>
      <trkpt lat="48.39534" lon="2.45721">
        <ele>90.800003051758</ele>
        <time>2024-04-14T10:24:22.000Z</time>
      </trkpt>
      <trkpt lat="48.39521" lon="2.45729">
        <ele>91.400001525879</ele>
        <time>2024-04-14T10:24:26.000Z</time>
      </trkpt>
      <trkpt lat="48.39512" lon="2.45733">
        <ele>92.199996948242</ele>
        <time>2024-04-14T10:24:29.000Z</time>
      </trkpt>
      <trkpt lat="48.3951" lon="2.45734">
        <ele>92.400001525879</ele>
        <time>2024-04-14T10:24:30.000Z</time>
      </trkpt>
      <trkpt lat="48.395" lon="2.45739">
        <ele>93.599998474121</ele>
        <time>2024-04-14T10:24:34.000Z</time>
      </trkpt>
      <trkpt lat="48.39493" lon="2.45741">
        <ele>93.800003051758</ele>
        <time>2024-04-14T10:24:36.000Z</time>
      </trkpt>
      <trkpt lat="48.39484" lon="2.45745">
        <ele>94.800003051758</ele>
        <time>2024-04-14T10:24:39.000Z</time>
      </trkpt>
      <trkpt lat="48.39475" lon="2.45749">
        <ele>96</ele>
        <time>2024-04-14T10:24:42.000Z</time>
      </trkpt>
      <trkpt lat="48.39469" lon="2.45754">
        <ele>96.199996948242</ele>
        <time>2024-04-14T10:24:44.000Z</time>
      </trkpt>
      <trkpt lat="48.39463" lon="2.45763">
        <ele>97</ele>
        <time>2024-04-14T10:24:47.000Z</time>
      </trkpt>
      <trkpt lat="48.3946" lon="2.45771">
        <ele>97.400001525879</ele>
        <time>2024-04-14T10:24:49.000Z</time>
      </trkpt>
      <trkpt lat="48.39455" lon="2.45788">
        <ele>98</ele>
        <time>2024-04-14T10:24:53.000Z</time>
      </trkpt>
      <trkpt lat="48.39457" lon="2.45795">
        <ele>98.400001525879</ele>
        <time>2024-04-14T10:24:55.000Z</time>
      </trkpt>
      <trkpt lat="48.39465" lon="2.45805">
        <ele>98.199996948242</ele>
        <time>2024-04-14T10:25:00.000Z</time>
      </trkpt>
      <trkpt lat="48.39474" lon="2.45817">
        <ele>97</ele>
        <time>2024-04-14T10:25:03.000Z</time>
      </trkpt>
      <trkpt lat="48.39476" lon="2.45822">
        <ele>96.599998474121</ele>
        <time>2024-04-14T10:25:04.000Z</time>
      </trkpt>
      <trkpt lat="48.39478" lon="2.45833">
        <ele>95.800003051758</ele>
        <time>2024-04-14T10:25:06.000Z</time>
      </trkpt>
      <trkpt lat="48.3948" lon="2.4584">
        <ele>95</ele>
        <time>2024-04-14T10:25:07.000Z</time>
      </trkpt>
      <trkpt lat="48.39481" lon="2.45848">
        <ele>94</ele>
        <time>2024-04-14T10:25:08.000Z</time>
      </trkpt>
      <trkpt lat="48.39481" lon="2.45858">
        <ele>93</ele>
        <time>2024-04-14T10:25:09.000Z</time>
      </trkpt>
      <trkpt lat="48.39484" lon="2.45877">
        <ele>91</ele>
        <time>2024-04-14T10:25:11.000Z</time>
      </trkpt>
      <trkpt lat="48.39484" lon="2.45887">
        <ele>90.599998474121</ele>
        <time>2024-04-14T10:25:12.000Z</time>
      </trkpt>
      <trkpt lat="48.39483" lon="2.45898">
        <ele>90</ele>
        <time>2024-04-14T10:25:13.000Z</time>
      </trkpt>
      <trkpt lat="48.39479" lon="2.45919">
        <ele>89.599998474121</ele>
        <time>2024-04-14T10:25:15.000Z</time>
      </trkpt>
      <trkpt lat="48.39478" lon="2.45938">
        <ele>89.400001525879</ele>
        <time>2024-04-14T10:25:17.000Z</time>
      </trkpt>
      <trkpt lat="48.39478" lon="2.45957">
        <ele>88.599998474121</ele>
        <time>2024-04-14T10:25:19.000Z</time>
      </trkpt>
      <trkpt lat="48.39477" lon="2.45967">
        <ele>88.599998474121</ele>
        <time>2024-04-14T10:25:20.000Z</time>
      </trkpt>
      <trkpt lat="48.39472" lon="2.45981">
        <ele>88.400001525879</ele>
        <time>2024-04-14T10:25:22.000Z</time>
      </trkpt>
      <trkpt lat="48.39455" lon="2.46004">
        <ele>88.599998474121</ele>
        <time>2024-04-14T10:25:26.000Z</time>
      </trkpt>
      <trkpt lat="48.39443" lon="2.46017">
        <ele>89.199996948242</ele>
        <time>2024-04-14T10:25:30.000Z</time>
      </trkpt>
      <trkpt lat="48.39439" lon="2.46021">
        <ele>89.599998474121</ele>
        <time>2024-04-14T10:25:31.000Z</time>
      </trkpt>
      <trkpt lat="48.39426" lon="2.46044">
        <ele>90.199996948242</ele>
        <time>2024-04-14T10:25:36.000Z</time>
      </trkpt>
      <trkpt lat="48.39417" lon="2.46057">
        <ele>88.400001525879</ele>
        <time>2024-04-14T10:25:39.000Z</time>
      </trkpt>
      <trkpt lat="48.39412" lon="2.46059">
        <ele>89</ele>
        <time>2024-04-14T10:25:41.000Z</time>
      </trkpt>
      <trkpt lat="48.39409" lon="2.46058">
        <ele>89.599998474121</ele>
        <time>2024-04-14T10:25:42.000Z</time>
      </trkpt>
      <trkpt lat="48.39397" lon="2.46046">
        <ele>90.199996948242</ele>
        <time>2024-04-14T10:25:46.000Z</time>
      </trkpt>
      <trkpt lat="48.39394" lon="2.46042">
        <ele>90.199996948242</ele>
        <time>2024-04-14T10:25:47.000Z</time>
      </trkpt>
      <trkpt lat="48.39391" lon="2.46038">
        <ele>90.599998474121</ele>
        <time>2024-04-14T10:25:48.000Z</time>
      </trkpt>
      <trkpt lat="48.39386" lon="2.46032">
        <ele>92.199996948242</ele>
        <time>2024-04-14T10:25:50.000Z</time>
      </trkpt>
      <trkpt lat="48.39381" lon="2.46028">
        <ele>93</ele>
        <time>2024-04-14T10:25:52.000Z</time>
      </trkpt>
      <trkpt lat="48.39375" lon="2.46025">
        <ele>93.400001525879</ele>
        <time>2024-04-14T10:25:54.000Z</time>
      </trkpt>
      <trkpt lat="48.39368" lon="2.46022">
        <ele>94.400001525879</ele>
        <time>2024-04-14T10:25:57.000Z</time>
      </trkpt>
      <trkpt lat="48.39366" lon="2.46024">
        <ele>94.599998474121</ele>
        <time>2024-04-14T10:25:58.000Z</time>
      </trkpt>
      <trkpt lat="48.39362" lon="2.46037">
        <ele>95</ele>
        <time>2024-04-14T10:26:01.000Z</time>
      </trkpt>
      <trkpt lat="48.39354" lon="2.46071">
        <ele>95</ele>
        <time>2024-04-14T10:26:07.000Z</time>
      </trkpt>
      <trkpt lat="48.39349" lon="2.46085">
        <ele>94.599998474121</ele>
        <time>2024-04-14T10:26:10.000Z</time>
      </trkpt>
      <trkpt lat="48.39348" lon="2.46091">
        <ele>94.400001525879</ele>
        <time>2024-04-14T10:26:11.000Z</time>
      </trkpt>
      <trkpt lat="48.39346" lon="2.46097">
        <ele>94.199996948242</ele>
        <time>2024-04-14T10:26:12.000Z</time>
      </trkpt>
      <trkpt lat="48.39339" lon="2.46111">
        <ele>93</ele>
        <time>2024-04-14T10:26:14.000Z</time>
      </trkpt>
      <trkpt lat="48.39335" lon="2.46118">
        <ele>93</ele>
        <time>2024-04-14T10:26:15.000Z</time>
      </trkpt>
      <trkpt lat="48.39314" lon="2.46134">
        <ele>93</ele>
        <time>2024-04-14T10:26:19.000Z</time>
      </trkpt>
      <trkpt lat="48.39299" lon="2.46145">
        <ele>93.199996948242</ele>
        <time>2024-04-14T10:26:22.000Z</time>
      </trkpt>
      <trkpt lat="48.39296" lon="2.46151">
        <ele>92.599998474121</ele>
        <time>2024-04-14T10:26:23.000Z</time>
      </trkpt>
      <trkpt lat="48.39285" lon="2.46156">
        <ele>92.400001525879</ele>
        <time>2024-04-14T10:26:26.000Z</time>
      </trkpt>
      <trkpt lat="48.39281" lon="2.46149">
        <ele>93</ele>
        <time>2024-04-14T10:26:29.000Z</time>
      </trkpt>
      <trkpt lat="48.39278" lon="2.46138">
        <ele>94.199996948242</ele>
        <time>2024-04-14T10:26:32.000Z</time>
      </trkpt>
      <trkpt lat="48.39276" lon="2.46131">
        <ele>95.400001525879</ele>
        <time>2024-04-14T10:26:34.000Z</time>
      </trkpt>
      <trkpt lat="48.39275" lon="2.4612">
        <ele>96.599998474121</ele>
        <time>2024-04-14T10:26:37.000Z</time>
      </trkpt>
      <trkpt lat="48.39273" lon="2.46113">
        <ele>97.599998474121</ele>
        <time>2024-04-14T10:26:39.000Z</time>
      </trkpt>
      <trkpt lat="48.39272" lon="2.46108">
        <ele>97.800003051758</ele>
        <time>2024-04-14T10:26:40.000Z</time>
      </trkpt>
      <trkpt lat="48.3927" lon="2.46092">
        <ele>98.400001525879</ele>
        <time>2024-04-14T10:26:44.000Z</time>
      </trkpt>
      <trkpt lat="48.39269" lon="2.46089">
        <ele>98.400001525879</ele>
        <time>2024-04-14T10:26:45.000Z</time>
      </trkpt>
      <trkpt lat="48.39264" lon="2.46083">
        <ele>98.400001525879</ele>
        <time>2024-04-14T10:26:48.000Z</time>
      </trkpt>
      <trkpt lat="48.3926" lon="2.46083">
        <ele>98.599998474121</ele>
        <time>2024-04-14T10:26:50.000Z</time>
      </trkpt>
      <trkpt lat="48.39253" lon="2.4608">
        <ele>98.199996948242</ele>
        <time>2024-04-14T10:26:52.000Z</time>
      </trkpt>
      <trkpt lat="48.39252" lon="2.46078">
        <ele>98</ele>
        <time>2024-04-14T10:26:53.000Z</time>
      </trkpt>
      <trkpt lat="48.39251" lon="2.46071">
        <ele>98.800003051758</ele>
        <time>2024-04-14T10:26:56.000Z</time>
      </trkpt>
      <trkpt lat="48.39252" lon="2.4607">
        <ele>99</ele>
        <time>2024-04-14T10:26:57.000Z</time>
      </trkpt>
      <trkpt lat="48.39257" lon="2.46055">
        <ele>99.800003051758</ele>
        <time>2024-04-14T10:27:01.000Z</time>
      </trkpt>
      <trkpt lat="48.39263" lon="2.46042">
        <ele>100.19999694824</ele>
        <time>2024-04-14T10:27:04.000Z</time>
      </trkpt>
      <trkpt lat="48.39266" lon="2.4604">
        <ele>100.19999694824</ele>
        <time>2024-04-14T10:27:05.000Z</time>
      </trkpt>
      <trkpt lat="48.39269" lon="2.4604">
        <ele>100.59999847412</ele>
        <time>2024-04-14T10:27:06.000Z</time>
      </trkpt>
      <trkpt lat="48.39274" lon="2.4604">
        <ele>101.40000152588</ele>
        <time>2024-04-14T10:27:08.000Z</time>
      </trkpt>
      <trkpt lat="48.39277" lon="2.46036">
        <ele>102.19999694824</ele>
        <time>2024-04-14T10:27:10.000Z</time>
      </trkpt>
      <trkpt lat="48.39278" lon="2.46035">
        <ele>102.59999847412</ele>
        <time>2024-04-14T10:27:11.000Z</time>
      </trkpt>
      <trkpt lat="48.39279" lon="2.46034">
        <ele>103</ele>
        <time>2024-04-14T10:27:12.000Z</time>
      </trkpt>
      <trkpt lat="48.39279" lon="2.46032">
        <ele>103.40000152588</ele>
        <time>2024-04-14T10:27:13.000Z</time>
      </trkpt>
      <trkpt lat="48.39279" lon="2.4603">
        <ele>103.80000305176</ele>
        <time>2024-04-14T10:27:14.000Z</time>
      </trkpt>
      <trkpt lat="48.39279" lon="2.4603">
        <ele>104.59999847412</ele>
        <time>2024-04-14T10:27:16.000Z</time>
      </trkpt>
      <trkpt lat="48.39286" lon="2.46016">
        <ele>104.59999847412</ele>
        <time>2024-04-14T10:27:21.000Z</time>
      </trkpt>
      <trkpt lat="48.39288" lon="2.46014">
        <ele>104.59999847412</ele>
        <time>2024-04-14T10:27:22.000Z</time>
      </trkpt>
      <trkpt lat="48.39292" lon="2.46017">
        <ele>104.59999847412</ele>
        <time>2024-04-14T10:27:25.000Z</time>
      </trkpt>
      <trkpt lat="48.39292" lon="2.46019">
        <ele>105.19999694824</ele>
        <time>2024-04-14T10:27:26.000Z</time>
      </trkpt>
      <trkpt lat="48.39291" lon="2.46031">
        <ele>103.59999847412</ele>
        <time>2024-04-14T10:27:30.000Z</time>
      </trkpt>
      <trkpt lat="48.39295" lon="2.46039">
        <ele>102.19999694824</ele>
        <time>2024-04-14T10:27:32.000Z</time>
      </trkpt>
      <trkpt lat="48.39306" lon="2.46042">
        <ele>101</ele>
        <time>2024-04-14T10:27:35.000Z</time>
      </trkpt>
      <trkpt lat="48.3932" lon="2.46032">
        <ele>100.19999694824</ele>
        <time>2024-04-14T10:27:38.000Z</time>
      </trkpt>
      <trkpt lat="48.39324" lon="2.46027">
        <ele>100</ele>
        <time>2024-04-14T10:27:39.000Z</time>
      </trkpt>
      <trkpt lat="48.39337" lon="2.46011">
        <ele>100.59999847412</ele>
        <time>2024-04-14T10:27:43.000Z</time>
      </trkpt>
      <trkpt lat="48.3934" lon="2.45994">
        <ele>99.800003051758</ele>
        <time>2024-04-14T10:27:46.000Z</time>
      </trkpt>
      <trkpt lat="48.3934" lon="2.45983">
        <ele>99.400001525879</ele>
        <time>2024-04-14T10:27:48.000Z</time>
      </trkpt>
      <trkpt lat="48.39338" lon="2.45971">
        <ele>98.599998474121</ele>
        <time>2024-04-14T10:27:50.000Z</time>
      </trkpt>
      <trkpt lat="48.39339" lon="2.45966">
        <ele>98.199996948242</ele>
        <time>2024-04-14T10:27:51.000Z</time>
      </trkpt>
      <trkpt lat="48.39341" lon="2.45963">
        <ele>98</ele>
        <time>2024-04-14T10:27:52.000Z</time>
      </trkpt>
      <trkpt lat="48.39352" lon="2.45963">
        <ele>97.599998474121</ele>
        <time>2024-04-14T10:27:55.000Z</time>
      </trkpt>
      <trkpt lat="48.39355" lon="2.4596">
        <ele>97.400001525879</ele>
        <time>2024-04-14T10:27:56.000Z</time>
      </trkpt>
      <trkpt lat="48.39358" lon="2.45953">
        <ele>98</ele>
        <time>2024-04-14T10:27:58.000Z</time>
      </trkpt>
      <trkpt lat="48.39357" lon="2.45943">
        <ele>98.599998474121</ele>
        <time>2024-04-14T10:28:00.000Z</time>
      </trkpt>
      <trkpt lat="48.39356" lon="2.45939">
        <ele>98.800003051758</ele>
        <time>2024-04-14T10:28:01.000Z</time>
      </trkpt>
      <trkpt lat="48.39353" lon="2.45924">
        <ele>99.800003051758</ele>
        <time>2024-04-14T10:28:04.000Z</time>
      </trkpt>
      <trkpt lat="48.39357" lon="2.45915">
        <ele>101</ele>
        <time>2024-04-14T10:28:06.000Z</time>
      </trkpt>
      <trkpt lat="48.39361" lon="2.45912">
        <ele>101.40000152588</ele>
        <time>2024-04-14T10:28:07.000Z</time>
      </trkpt>
      <trkpt lat="48.39367" lon="2.45913">
        <ele>101.80000305176</ele>
        <time>2024-04-14T10:28:09.000Z</time>
      </trkpt>
      <trkpt lat="48.39375" lon="2.45912">
        <ele>101.80000305176</ele>
        <time>2024-04-14T10:28:11.000Z</time>
      </trkpt>
      <trkpt lat="48.39383" lon="2.45915">
        <ele>102</ele>
        <time>2024-04-14T10:28:13.000Z</time>
      </trkpt>
      <trkpt lat="48.39391" lon="2.45926">
        <ele>103.19999694824</ele>
        <time>2024-04-14T10:28:16.000Z</time>
      </trkpt>
      <trkpt lat="48.39392" lon="2.45929">
        <ele>103.59999847412</ele>
        <time>2024-04-14T10:28:17.000Z</time>
      </trkpt>
      <trkpt lat="48.39394" lon="2.45928">
        <ele>104.59999847412</ele>
        <time>2024-04-14T10:28:19.000Z</time>
      </trkpt>
      <trkpt lat="48.39395" lon="2.45925">
        <ele>104.80000305176</ele>
        <time>2024-04-14T10:28:21.000Z</time>
      </trkpt>
      <trkpt lat="48.39401" lon="2.4592">
        <ele>105.80000305176</ele>
        <time>2024-04-14T10:28:24.000Z</time>
      </trkpt>
      <trkpt lat="48.39403" lon="2.45916">
        <ele>106</ele>
        <time>2024-04-14T10:28:26.000Z</time>
      </trkpt>
      <trkpt lat="48.39403" lon="2.45912">
        <ele>106</ele>
        <time>2024-04-14T10:28:27.000Z</time>
      </trkpt>
      <trkpt lat="48.39409" lon="2.4591">
        <ele>106.40000152588</ele>
        <time>2024-04-14T10:28:31.000Z</time>
      </trkpt>
      <trkpt lat="48.39415" lon="2.45922">
        <ele>105.80000305176</ele>
        <time>2024-04-14T10:28:35.000Z</time>
      </trkpt>
      <trkpt lat="48.39418" lon="2.45918">
        <ele>104.59999847412</ele>
        <time>2024-04-14T10:28:37.000Z</time>
      </trkpt>
      <trkpt lat="48.3942" lon="2.45916">
        <ele>104.19999694824</ele>
        <time>2024-04-14T10:28:38.000Z</time>
      </trkpt>
      <trkpt lat="48.39425" lon="2.45902">
        <ele>103.80000305176</ele>
        <time>2024-04-14T10:28:42.000Z</time>
      </trkpt>
      <trkpt lat="48.39426" lon="2.4589">
        <ele>104.80000305176</ele>
        <time>2024-04-14T10:28:47.000Z</time>
      </trkpt>
      <trkpt lat="48.39425" lon="2.45883">
        <ele>105.80000305176</ele>
        <time>2024-04-14T10:28:50.000Z</time>
      </trkpt>
      <trkpt lat="48.39424" lon="2.45882">
        <ele>106.19999694824</ele>
        <time>2024-04-14T10:28:51.000Z</time>
      </trkpt>
      <trkpt lat="48.3942" lon="2.45882">
        <ele>106.40000152588</ele>
        <time>2024-04-14T10:28:53.000Z</time>
      </trkpt>
      <trkpt lat="48.39416" lon="2.45886">
        <ele>106.59999847412</ele>
        <time>2024-04-14T10:28:55.000Z</time>
      </trkpt>
      <trkpt lat="48.39409" lon="2.45891">
        <ele>106.80000305176</ele>
        <time>2024-04-14T10:28:58.000Z</time>
      </trkpt>
      <trkpt lat="48.39402" lon="2.45898">
        <ele>105.59999847412</ele>
        <time>2024-04-14T10:29:00.000Z</time>
      </trkpt>
      <trkpt lat="48.39398" lon="2.459">
        <ele>104.80000305176</ele>
        <time>2024-04-14T10:29:01.000Z</time>
      </trkpt>
      <trkpt lat="48.39395" lon="2.459">
        <ele>104.19999694824</ele>
        <time>2024-04-14T10:29:02.000Z</time>
      </trkpt>
      <trkpt lat="48.39388" lon="2.45891">
        <ele>104</ele>
        <time>2024-04-14T10:29:05.000Z</time>
      </trkpt>
      <trkpt lat="48.3939" lon="2.4588">
        <ele>104.59999847412</ele>
        <time>2024-04-14T10:29:07.000Z</time>
      </trkpt>
      <trkpt lat="48.39391" lon="2.45874">
        <ele>104.80000305176</ele>
        <time>2024-04-14T10:29:08.000Z</time>
      </trkpt>
      <trkpt lat="48.39392" lon="2.45846">
        <ele>105.59999847412</ele>
        <time>2024-04-14T10:29:13.000Z</time>
      </trkpt>
      <trkpt lat="48.39391" lon="2.45841">
        <ele>106</ele>
        <time>2024-04-14T10:29:14.000Z</time>
      </trkpt>
      <trkpt lat="48.39395" lon="2.45834">
        <ele>106.19999694824</ele>
        <time>2024-04-14T10:29:16.000Z</time>
      </trkpt>
      <trkpt lat="48.39397" lon="2.45831">
        <ele>106</ele>
        <time>2024-04-14T10:29:17.000Z</time>
      </trkpt>
      <trkpt lat="48.39401" lon="2.45817">
        <ele>105.59999847412</ele>
        <time>2024-04-14T10:29:21.000Z</time>
      </trkpt>
      <trkpt lat="48.39401" lon="2.45813">
        <ele>105.40000152588</ele>
        <time>2024-04-14T10:29:22.000Z</time>
      </trkpt>
      <trkpt lat="48.39403" lon="2.458">
        <ele>104.80000305176</ele>
        <time>2024-04-14T10:29:25.000Z</time>
      </trkpt>
      <trkpt lat="48.39405" lon="2.45791">
        <ele>103.80000305176</ele>
        <time>2024-04-14T10:29:27.000Z</time>
      </trkpt>
      <trkpt lat="48.39405" lon="2.45784">
        <ele>103.80000305176</ele>
        <time>2024-04-14T10:29:28.000Z</time>
      </trkpt>
      <trkpt lat="48.39405" lon="2.4577">
        <ele>103.19999694824</ele>
        <time>2024-04-14T10:29:31.000Z</time>
      </trkpt>
      <trkpt lat="48.394" lon="2.45772">
        <ele>102.59999847412</ele>
        <time>2024-04-14T10:29:33.000Z</time>
      </trkpt>
      <trkpt lat="48.39398" lon="2.45772">
        <ele>102.19999694824</ele>
        <time>2024-04-14T10:29:34.000Z</time>
      </trkpt>
      <trkpt lat="48.39394" lon="2.45768">
        <ele>101.40000152588</ele>
        <time>2024-04-14T10:29:36.000Z</time>
      </trkpt>
      <trkpt lat="48.39389" lon="2.45761">
        <ele>99.800003051758</ele>
        <time>2024-04-14T10:29:38.000Z</time>
      </trkpt>
      <trkpt lat="48.39381" lon="2.45756">
        <ele>98.599998474121</ele>
        <time>2024-04-14T10:29:40.000Z</time>
      </trkpt>
      <trkpt lat="48.39376" lon="2.45757">
        <ele>98.199996948242</ele>
        <time>2024-04-14T10:29:41.000Z</time>
      </trkpt>
      <trkpt lat="48.39373" lon="2.45758">
        <ele>97.800003051758</ele>
        <time>2024-04-14T10:29:42.000Z</time>
      </trkpt>
      <trkpt lat="48.39365" lon="2.45771">
        <ele>98</ele>
        <time>2024-04-14T10:29:46.000Z</time>
      </trkpt>
      <trkpt lat="48.39355" lon="2.45778">
        <ele>98.599998474121</ele>
        <time>2024-04-14T10:29:50.000Z</time>
      </trkpt>
      <trkpt lat="48.39353" lon="2.45762">
        <ele>97.599998474121</ele>
        <time>2024-04-14T10:29:53.000Z</time>
      </trkpt>
      <trkpt lat="48.39364" lon="2.45738">
        <ele>96.599998474121</ele>
        <time>2024-04-14T10:29:57.000Z</time>
      </trkpt>
      <trkpt lat="48.39367" lon="2.45732">
        <ele>96.199996948242</ele>
        <time>2024-04-14T10:29:58.000Z</time>
      </trkpt>
      <trkpt lat="48.39378" lon="2.45714">
        <ele>95.400001525879</ele>
        <time>2024-04-14T10:30:01.000Z</time>
      </trkpt>
      <trkpt lat="48.39383" lon="2.45709">
        <ele>95.199996948242</ele>
        <time>2024-04-14T10:30:02.000Z</time>
      </trkpt>
      <trkpt lat="48.39387" lon="2.45704">
        <ele>95</ele>
        <time>2024-04-14T10:30:03.000Z</time>
      </trkpt>
      <trkpt lat="48.394" lon="2.45691">
        <ele>94.400001525879</ele>
        <time>2024-04-14T10:30:06.000Z</time>
      </trkpt>
      <trkpt lat="48.39405" lon="2.45687">
        <ele>93.800003051758</ele>
        <time>2024-04-14T10:30:07.000Z</time>
      </trkpt>
      <trkpt lat="48.39411" lon="2.45684">
        <ele>93.800003051758</ele>
        <time>2024-04-14T10:30:08.000Z</time>
      </trkpt>
      <trkpt lat="48.39427" lon="2.45679">
        <ele>93.800003051758</ele>
        <time>2024-04-14T10:30:11.000Z</time>
      </trkpt>
      <trkpt lat="48.3943" lon="2.45672">
        <ele>94</ele>
        <time>2024-04-14T10:30:13.000Z</time>
      </trkpt>
      <trkpt lat="48.3943" lon="2.45669">
        <ele>93.800003051758</ele>
        <time>2024-04-14T10:30:14.000Z</time>
      </trkpt>
      <trkpt lat="48.39435" lon="2.45651">
        <ele>93.599998474121</ele>
        <time>2024-04-14T10:30:18.000Z</time>
      </trkpt>
      <trkpt lat="48.39437" lon="2.45647">
        <ele>93</ele>
        <time>2024-04-14T10:30:19.000Z</time>
      </trkpt>
      <trkpt lat="48.39439" lon="2.45643">
        <ele>92.599998474121</ele>
        <time>2024-04-14T10:30:20.000Z</time>
      </trkpt>
      <trkpt lat="48.39444" lon="2.45633">
        <ele>91.599998474121</ele>
        <time>2024-04-14T10:30:22.000Z</time>
      </trkpt>
      <trkpt lat="48.39452" lon="2.45622">
        <ele>91.199996948242</ele>
        <time>2024-04-14T10:30:24.000Z</time>
      </trkpt>
      <trkpt lat="48.39457" lon="2.45608">
        <ele>90.400001525879</ele>
        <time>2024-04-14T10:30:26.000Z</time>
      </trkpt>
      <trkpt lat="48.39454" lon="2.45594">
        <ele>89.800003051758</ele>
        <time>2024-04-14T10:30:28.000Z</time>
      </trkpt>
      <trkpt lat="48.39459" lon="2.45573">
        <ele>89.199996948242</ele>
        <time>2024-04-14T10:30:32.000Z</time>
      </trkpt>
      <trkpt lat="48.39458" lon="2.45548">
        <ele>88.599998474121</ele>
        <time>2024-04-14T10:30:36.000Z</time>
      </trkpt>
      <trkpt lat="48.3945" lon="2.45535">
        <ele>89.599998474121</ele>
        <time>2024-04-14T10:30:39.000Z</time>
      </trkpt>
      <trkpt lat="48.39446" lon="2.45534">
        <ele>89.800003051758</ele>
        <time>2024-04-14T10:30:40.000Z</time>
      </trkpt>
      <trkpt lat="48.39443" lon="2.45534">
        <ele>90.199996948242</ele>
        <time>2024-04-14T10:30:41.000Z</time>
      </trkpt>
      <trkpt lat="48.3944" lon="2.45536">
        <ele>90.599998474121</ele>
        <time>2024-04-14T10:30:42.000Z</time>
      </trkpt>
      <trkpt lat="48.39434" lon="2.4554">
        <ele>91.400001525879</ele>
        <time>2024-04-14T10:30:44.000Z</time>
      </trkpt>
      <trkpt lat="48.39431" lon="2.45542">
        <ele>91.800003051758</ele>
        <time>2024-04-14T10:30:45.000Z</time>
      </trkpt>
      <trkpt lat="48.39418" lon="2.45542">
        <ele>92.599998474121</ele>
        <time>2024-04-14T10:30:49.000Z</time>
      </trkpt>
      <trkpt lat="48.39416" lon="2.45543">
        <ele>92.800003051758</ele>
        <time>2024-04-14T10:30:50.000Z</time>
      </trkpt>
      <trkpt lat="48.39414" lon="2.45545">
        <ele>93.199996948242</ele>
        <time>2024-04-14T10:30:51.000Z</time>
      </trkpt>
      <trkpt lat="48.39409" lon="2.45552">
        <ele>93.800003051758</ele>
        <time>2024-04-14T10:30:54.000Z</time>
      </trkpt>
      <trkpt lat="48.39408" lon="2.45559">
        <ele>94.400001525879</ele>
        <time>2024-04-14T10:30:56.000Z</time>
      </trkpt>
      <trkpt lat="48.39405" lon="2.45562">
        <ele>95</ele>
        <time>2024-04-14T10:30:58.000Z</time>
      </trkpt>
      <trkpt lat="48.39403" lon="2.45565">
        <ele>95.599998474121</ele>
        <time>2024-04-14T10:31:00.000Z</time>
      </trkpt>
      <trkpt lat="48.39403" lon="2.45568">
        <ele>96.199996948242</ele>
        <time>2024-04-14T10:31:01.000Z</time>
      </trkpt>
      <trkpt lat="48.39401" lon="2.45574">
        <ele>97.199996948242</ele>
        <time>2024-04-14T10:31:03.000Z</time>
      </trkpt>
      <trkpt lat="48.39387" lon="2.45587">
        <ele>96.199996948242</ele>
        <time>2024-04-14T10:31:09.000Z</time>
      </trkpt>
      <trkpt lat="48.39383" lon="2.45588">
        <ele>95.599998474121</ele>
        <time>2024-04-14T10:31:10.000Z</time>
      </trkpt>
      <trkpt lat="48.39378" lon="2.45591">
        <ele>94.400001525879</ele>
        <time>2024-04-14T10:31:11.000Z</time>
      </trkpt>
      <trkpt lat="48.3937" lon="2.45598">
        <ele>92.400001525879</ele>
        <time>2024-04-14T10:31:13.000Z</time>
      </trkpt>
      <trkpt lat="48.39359" lon="2.45613">
        <ele>90.400001525879</ele>
        <time>2024-04-14T10:31:15.000Z</time>
      </trkpt>
      <trkpt lat="48.39354" lon="2.4562">
        <ele>90</ele>
        <time>2024-04-14T10:31:16.000Z</time>
      </trkpt>
      <trkpt lat="48.3935" lon="2.45624">
        <ele>90.199996948242</ele>
        <time>2024-04-14T10:31:17.000Z</time>
      </trkpt>
      <trkpt lat="48.39343" lon="2.45624">
        <ele>91.800003051758</ele>
        <time>2024-04-14T10:31:19.000Z</time>
      </trkpt>
      <trkpt lat="48.39337" lon="2.45624">
        <ele>92.800003051758</ele>
        <time>2024-04-14T10:31:21.000Z</time>
      </trkpt>
      <trkpt lat="48.39332" lon="2.45625">
        <ele>94</ele>
        <time>2024-04-14T10:31:23.000Z</time>
      </trkpt>
      <trkpt lat="48.3933" lon="2.4563">
        <ele>94.599998474121</ele>
        <time>2024-04-14T10:31:25.000Z</time>
      </trkpt>
      <trkpt lat="48.39329" lon="2.45632">
        <ele>95</ele>
        <time>2024-04-14T10:31:26.000Z</time>
      </trkpt>
      <trkpt lat="48.39328" lon="2.45634">
        <ele>95.800003051758</ele>
        <time>2024-04-14T10:31:27.000Z</time>
      </trkpt>
      <trkpt lat="48.39328" lon="2.45637">
        <ele>96.199996948242</ele>
        <time>2024-04-14T10:31:28.000Z</time>
      </trkpt>
      <trkpt lat="48.39326" lon="2.45646">
        <ele>97.199996948242</ele>
        <time>2024-04-14T10:31:31.000Z</time>
      </trkpt>
      <trkpt lat="48.39325" lon="2.45651">
        <ele>97.800003051758</ele>
        <time>2024-04-14T10:31:33.000Z</time>
      </trkpt>
      <trkpt lat="48.39323" lon="2.45658">
        <ele>98.400001525879</ele>
        <time>2024-04-14T10:31:36.000Z</time>
      </trkpt>
      <trkpt lat="48.3932" lon="2.45657">
        <ele>99</ele>
        <time>2024-04-14T10:31:38.000Z</time>
      </trkpt>
      <trkpt lat="48.39316" lon="2.45655">
        <ele>99.400001525879</ele>
        <time>2024-04-14T10:31:40.000Z</time>
      </trkpt>
      <trkpt lat="48.39311" lon="2.45659">
        <ele>100.19999694824</ele>
        <time>2024-04-14T10:31:43.000Z</time>
      </trkpt>
      <trkpt lat="48.3931" lon="2.45661">
        <ele>100.40000152588</ele>
        <time>2024-04-14T10:31:44.000Z</time>
      </trkpt>
      <trkpt lat="48.39308" lon="2.45662">
        <ele>101</ele>
        <time>2024-04-14T10:31:45.000Z</time>
      </trkpt>
      <trkpt lat="48.39304" lon="2.45664">
        <ele>102</ele>
        <time>2024-04-14T10:31:48.000Z</time>
      </trkpt>
      <trkpt lat="48.39301" lon="2.45664">
        <ele>102.59999847412</ele>
        <time>2024-04-14T10:31:50.000Z</time>
      </trkpt>
      <trkpt lat="48.393" lon="2.45664">
        <ele>103.19999694824</ele>
        <time>2024-04-14T10:31:51.000Z</time>
      </trkpt>
      <trkpt lat="48.39294" lon="2.45662">
        <ele>104.19999694824</ele>
        <time>2024-04-14T10:31:56.000Z</time>
      </trkpt>
      <trkpt lat="48.39293" lon="2.4566">
        <ele>104.19999694824</ele>
        <time>2024-04-14T10:31:57.000Z</time>
      </trkpt>
      <trkpt lat="48.39292" lon="2.45657">
        <ele>104.19999694824</ele>
        <time>2024-04-14T10:31:58.000Z</time>
      </trkpt>
      <trkpt lat="48.39288" lon="2.45652">
        <ele>104</ele>
        <time>2024-04-14T10:32:00.000Z</time>
      </trkpt>
      <trkpt lat="48.39283" lon="2.45649">
        <ele>103.80000305176</ele>
        <time>2024-04-14T10:32:02.000Z</time>
      </trkpt>
      <trkpt lat="48.39275" lon="2.45644">
        <ele>103.80000305176</ele>
        <time>2024-04-14T10:32:05.000Z</time>
      </trkpt>
      <trkpt lat="48.39272" lon="2.45645">
        <ele>103.59999847412</ele>
        <time>2024-04-14T10:32:06.000Z</time>
      </trkpt>
      <trkpt lat="48.3926" lon="2.45632">
        <ele>103</ele>
        <time>2024-04-14T10:32:10.000Z</time>
      </trkpt>
      <trkpt lat="48.39255" lon="2.45622">
        <ele>102.40000152588</ele>
        <time>2024-04-14T10:32:12.000Z</time>
      </trkpt>
      <trkpt lat="48.39251" lon="2.45604">
        <ele>101.40000152588</ele>
        <time>2024-04-14T10:32:15.000Z</time>
      </trkpt>
      <trkpt lat="48.3925" lon="2.45592">
        <ele>100</ele>
        <time>2024-04-14T10:32:17.000Z</time>
      </trkpt>
      <trkpt lat="48.39247" lon="2.45586">
        <ele>99.400001525879</ele>
        <time>2024-04-14T10:32:18.000Z</time>
      </trkpt>
      <trkpt lat="48.39244" lon="2.45585">
        <ele>99</ele>
        <time>2024-04-14T10:32:19.000Z</time>
      </trkpt>
      <trkpt lat="48.39239" lon="2.45581">
        <ele>98.400001525879</ele>
        <time>2024-04-14T10:32:21.000Z</time>
      </trkpt>
      <trkpt lat="48.39236" lon="2.45579">
        <ele>98</ele>
        <time>2024-04-14T10:32:23.000Z</time>
      </trkpt>
      <trkpt lat="48.39227" lon="2.45579">
        <ele>97.400001525879</ele>
        <time>2024-04-14T10:32:26.000Z</time>
      </trkpt>
      <trkpt lat="48.39225" lon="2.45577">
        <ele>97</ele>
        <time>2024-04-14T10:32:27.000Z</time>
      </trkpt>
      <trkpt lat="48.39219" lon="2.45563">
        <ele>95.599998474121</ele>
        <time>2024-04-14T10:32:29.000Z</time>
      </trkpt>
      <trkpt lat="48.39213" lon="2.4555">
        <ele>94.400001525879</ele>
        <time>2024-04-14T10:32:32.000Z</time>
      </trkpt>
      <trkpt lat="48.39212" lon="2.45548">
        <ele>94.199996948242</ele>
        <time>2024-04-14T10:32:33.000Z</time>
      </trkpt>
      <trkpt lat="48.39208" lon="2.45549">
        <ele>94.599998474121</ele>
        <time>2024-04-14T10:32:36.000Z</time>
      </trkpt>
      <trkpt lat="48.39206" lon="2.45551">
        <ele>94.800003051758</ele>
        <time>2024-04-14T10:32:37.000Z</time>
      </trkpt>
      <trkpt lat="48.39203" lon="2.45556">
        <ele>95.800003051758</ele>
        <time>2024-04-14T10:32:39.000Z</time>
      </trkpt>
      <trkpt lat="48.39198" lon="2.45563">
        <ele>97</ele>
        <time>2024-04-14T10:32:42.000Z</time>
      </trkpt>
      <trkpt lat="48.39196" lon="2.45562">
        <ele>97</ele>
        <time>2024-04-14T10:32:43.000Z</time>
      </trkpt>
      <trkpt lat="48.39194" lon="2.4556">
        <ele>97</ele>
        <time>2024-04-14T10:32:44.000Z</time>
      </trkpt>
      <trkpt lat="48.39189" lon="2.45539">
        <ele>96.599998474121</ele>
        <time>2024-04-14T10:32:48.000Z</time>
      </trkpt>
      <trkpt lat="48.39185" lon="2.45526">
        <ele>95.599998474121</ele>
        <time>2024-04-14T10:32:50.000Z</time>
      </trkpt>
      <trkpt lat="48.3918" lon="2.45513">
        <ele>94.400001525879</ele>
        <time>2024-04-14T10:32:52.000Z</time>
      </trkpt>
      <trkpt lat="48.39177" lon="2.45506">
        <ele>94</ele>
        <time>2024-04-14T10:32:53.000Z</time>
      </trkpt>
      <trkpt lat="48.39174" lon="2.45499">
        <ele>93.400001525879</ele>
        <time>2024-04-14T10:32:54.000Z</time>
      </trkpt>
      <trkpt lat="48.39165" lon="2.45491">
        <ele>93.400001525879</ele>
        <time>2024-04-14T10:32:56.000Z</time>
      </trkpt>
      <trkpt lat="48.3914" lon="2.45475">
        <ele>95.800003051758</ele>
        <time>2024-04-14T10:33:01.000Z</time>
      </trkpt>
      <trkpt lat="48.39133" lon="2.4547">
        <ele>97.400001525879</ele>
        <time>2024-04-14T10:33:03.000Z</time>
      </trkpt>
      <trkpt lat="48.39128" lon="2.45465">
        <ele>98.400001525879</ele>
        <time>2024-04-14T10:33:05.000Z</time>
      </trkpt>
      <trkpt lat="48.39125" lon="2.45462">
        <ele>98.800003051758</ele>
        <time>2024-04-14T10:33:06.000Z</time>
      </trkpt>
      <trkpt lat="48.39113" lon="2.45449">
        <ele>98.599998474121</ele>
        <time>2024-04-14T10:33:10.000Z</time>
      </trkpt>
      <trkpt lat="48.39109" lon="2.45445">
        <ele>98.199996948242</ele>
        <time>2024-04-14T10:33:11.000Z</time>
      </trkpt>
      <trkpt lat="48.39082" lon="2.45426">
        <ele>97.800003051758</ele>
        <time>2024-04-14T10:33:17.000Z</time>
      </trkpt>
      <trkpt lat="48.39061" lon="2.45411">
        <ele>98.400001525879</ele>
        <time>2024-04-14T10:33:22.000Z</time>
      </trkpt>
      <trkpt lat="48.39056" lon="2.4541">
        <ele>98.199996948242</ele>
        <time>2024-04-14T10:33:23.000Z</time>
      </trkpt>
      <trkpt lat="48.39038" lon="2.45403">
        <ele>99.199996948242</ele>
        <time>2024-04-14T10:33:27.000Z</time>
      </trkpt>
      <trkpt lat="48.39034" lon="2.454">
        <ele>99.199996948242</ele>
        <time>2024-04-14T10:33:28.000Z</time>
      </trkpt>
      <trkpt lat="48.39005" lon="2.45385">
        <ele>99.800003051758</ele>
        <time>2024-04-14T10:33:35.000Z</time>
      </trkpt>
      <trkpt lat="48.39002" lon="2.45387">
        <ele>100.19999694824</ele>
        <time>2024-04-14T10:33:36.000Z</time>
      </trkpt>
      <trkpt lat="48.38997" lon="2.45395">
        <ele>100.80000305176</ele>
        <time>2024-04-14T10:33:38.000Z</time>
      </trkpt>
      <trkpt lat="48.38995" lon="2.45398">
        <ele>101.19999694824</ele>
        <time>2024-04-14T10:33:39.000Z</time>
      </trkpt>
      <trkpt lat="48.38985" lon="2.45406">
        <ele>102.19999694824</ele>
        <time>2024-04-14T10:33:43.000Z</time>
      </trkpt>
      <trkpt lat="48.38976" lon="2.45412">
        <ele>102.19999694824</ele>
        <time>2024-04-14T10:33:46.000Z</time>
      </trkpt>
      <trkpt lat="48.38965" lon="2.45431">
        <ele>103.19999694824</ele>
        <time>2024-04-14T10:33:51.000Z</time>
      </trkpt>
      <trkpt lat="48.38961" lon="2.45442">
        <ele>103.40000152588</ele>
        <time>2024-04-14T10:33:53.000Z</time>
      </trkpt>
      <trkpt lat="48.38956" lon="2.45454">
        <ele>104.40000152588</ele>
        <time>2024-04-14T10:33:56.000Z</time>
      </trkpt>
      <trkpt lat="48.38953" lon="2.45461">
        <ele>104.80000305176</ele>
        <time>2024-04-14T10:33:58.000Z</time>
      </trkpt>
      <trkpt lat="48.38949" lon="2.45474">
        <ele>105.59999847412</ele>
        <time>2024-04-14T10:34:01.000Z</time>
      </trkpt>
      <trkpt lat="48.38942" lon="2.45487">
        <ele>106.59999847412</ele>
        <time>2024-04-14T10:34:04.000Z</time>
      </trkpt>
      <trkpt lat="48.3894" lon="2.4549">
        <ele>106.80000305176</ele>
        <time>2024-04-14T10:34:05.000Z</time>
      </trkpt>
      <trkpt lat="48.38927" lon="2.45514">
        <ele>107.80000305176</ele>
        <time>2024-04-14T10:34:11.000Z</time>
      </trkpt>
      <trkpt lat="48.38921" lon="2.45527">
        <ele>109</ele>
        <time>2024-04-14T10:34:15.000Z</time>
      </trkpt>
      <trkpt lat="48.38919" lon="2.45533">
        <ele>109.19999694824</ele>
        <time>2024-04-14T10:34:17.000Z</time>
      </trkpt>
      <trkpt lat="48.38914" lon="2.45544">
        <ele>110</ele>
        <time>2024-04-14T10:34:21.000Z</time>
      </trkpt>
      <trkpt lat="48.38908" lon="2.45552">
        <ele>110.80000305176</ele>
        <time>2024-04-14T10:34:24.000Z</time>
      </trkpt>
      <trkpt lat="48.38906" lon="2.45555">
        <ele>111</ele>
        <time>2024-04-14T10:34:25.000Z</time>
      </trkpt>
      <trkpt lat="48.38897" lon="2.45569">
        <ele>112.19999694824</ele>
        <time>2024-04-14T10:34:30.000Z</time>
      </trkpt>
      <trkpt lat="48.38895" lon="2.45571">
        <ele>112.19999694824</ele>
        <time>2024-04-14T10:34:31.000Z</time>
      </trkpt>
      <trkpt lat="48.38889" lon="2.45576">
        <ele>113.19999694824</ele>
        <time>2024-04-14T10:34:34.000Z</time>
      </trkpt>
      <trkpt lat="48.38885" lon="2.45579">
        <ele>113.59999847412</ele>
        <time>2024-04-14T10:34:36.000Z</time>
      </trkpt>
      <trkpt lat="48.38877" lon="2.45584">
        <ele>114.80000305176</ele>
        <time>2024-04-14T10:34:39.000Z</time>
      </trkpt>
      <trkpt lat="48.38871" lon="2.45588">
        <ele>115.40000152588</ele>
        <time>2024-04-14T10:34:43.000Z</time>
      </trkpt>
      <trkpt lat="48.38869" lon="2.4559">
        <ele>116</ele>
        <time>2024-04-14T10:34:45.000Z</time>
      </trkpt>
      <trkpt lat="48.3886" lon="2.45593">
        <ele>116.80000305176</ele>
        <time>2024-04-14T10:34:49.000Z</time>
      </trkpt>
      <trkpt lat="48.38858" lon="2.45594">
        <ele>117</ele>
        <time>2024-04-14T10:34:50.000Z</time>
      </trkpt>
      <trkpt lat="48.38852" lon="2.45597">
        <ele>118</ele>
        <time>2024-04-14T10:34:53.000Z</time>
      </trkpt>
      <trkpt lat="48.38845" lon="2.456">
        <ele>119.40000152588</ele>
        <time>2024-04-14T10:34:57.000Z</time>
      </trkpt>
      <trkpt lat="48.38841" lon="2.45604">
        <ele>120.40000152588</ele>
        <time>2024-04-14T10:35:00.000Z</time>
      </trkpt>
      <trkpt lat="48.38835" lon="2.45608">
        <ele>121.59999847412</ele>
        <time>2024-04-14T10:35:04.000Z</time>
      </trkpt>
      <trkpt lat="48.3883" lon="2.45612">
        <ele>122.59999847412</ele>
        <time>2024-04-14T10:35:08.000Z</time>
      </trkpt>
      <trkpt lat="48.38827" lon="2.45614">
        <ele>123.40000152588</ele>
        <time>2024-04-14T10:35:11.000Z</time>
      </trkpt>
      <trkpt lat="48.38825" lon="2.45614">
        <ele>123.80000305176</ele>
        <time>2024-04-14T10:35:12.000Z</time>
      </trkpt>
      <trkpt lat="48.38821" lon="2.45615">
        <ele>124.80000305176</ele>
        <time>2024-04-14T10:35:15.000Z</time>
      </trkpt>
      <trkpt lat="48.38814" lon="2.45617">
        <ele>125.80000305176</ele>
        <time>2024-04-14T10:35:19.000Z</time>
      </trkpt>
      <trkpt lat="48.38811" lon="2.45616">
        <ele>126.40000152588</ele>
        <time>2024-04-14T10:35:21.000Z</time>
      </trkpt>
      <trkpt lat="48.38805" lon="2.45614">
        <ele>127</ele>
        <time>2024-04-14T10:35:25.000Z</time>
      </trkpt>
      <trkpt lat="48.38804" lon="2.45611">
        <ele>127.40000152588</ele>
        <time>2024-04-14T10:35:28.000Z</time>
      </trkpt>
      <trkpt lat="48.38804" lon="2.45606">
        <ele>127.19999694824</ele>
        <time>2024-04-14T10:35:30.000Z</time>
      </trkpt>
      <trkpt lat="48.38804" lon="2.45596">
        <ele>125.80000305176</ele>
        <time>2024-04-14T10:35:32.000Z</time>
      </trkpt>
      <trkpt lat="48.38806" lon="2.45583">
        <ele>123.80000305176</ele>
        <time>2024-04-14T10:35:34.000Z</time>
      </trkpt>
      <trkpt lat="48.38806" lon="2.45576">
        <ele>122.59999847412</ele>
        <time>2024-04-14T10:35:35.000Z</time>
      </trkpt>
      <trkpt lat="48.38807" lon="2.45568">
        <ele>121.80000305176</ele>
        <time>2024-04-14T10:35:36.000Z</time>
      </trkpt>
      <trkpt lat="48.38807" lon="2.4556">
        <ele>121.40000152588</ele>
        <time>2024-04-14T10:35:37.000Z</time>
      </trkpt>
      <trkpt lat="48.38808" lon="2.45544">
        <ele>120.19999694824</ele>
        <time>2024-04-14T10:35:39.000Z</time>
      </trkpt>
      <trkpt lat="48.38808" lon="2.45524">
        <ele>118.40000152588</ele>
        <time>2024-04-14T10:35:41.000Z</time>
      </trkpt>
      <trkpt lat="48.38805" lon="2.45517">
        <ele>117.59999847412</ele>
        <time>2024-04-14T10:35:42.000Z</time>
      </trkpt>
      <trkpt lat="48.38801" lon="2.4551">
        <ele>117</ele>
        <time>2024-04-14T10:35:43.000Z</time>
      </trkpt>
      <trkpt lat="48.38793" lon="2.45498">
        <ele>117</ele>
        <time>2024-04-14T10:35:45.000Z</time>
      </trkpt>
      <trkpt lat="48.38778" lon="2.45488">
        <ele>118.19999694824</ele>
        <time>2024-04-14T10:35:49.000Z</time>
      </trkpt>
      <trkpt lat="48.38772" lon="2.45483">
        <ele>119.80000305176</ele>
        <time>2024-04-14T10:35:51.000Z</time>
      </trkpt>
      <trkpt lat="48.38764" lon="2.45477">
        <ele>120.80000305176</ele>
        <time>2024-04-14T10:35:54.000Z</time>
      </trkpt>
      <trkpt lat="48.38761" lon="2.45477">
        <ele>121</ele>
        <time>2024-04-14T10:35:55.000Z</time>
      </trkpt>
      <trkpt lat="48.38754" lon="2.45469">
        <ele>120.80000305176</ele>
        <time>2024-04-14T10:35:58.000Z</time>
      </trkpt>
      <trkpt lat="48.38748" lon="2.45461">
        <ele>119.59999847412</ele>
        <time>2024-04-14T10:36:00.000Z</time>
      </trkpt>
      <trkpt lat="48.3874" lon="2.45455">
        <ele>117.80000305176</ele>
        <time>2024-04-14T10:36:02.000Z</time>
      </trkpt>
      <trkpt lat="48.38729" lon="2.45447">
        <ele>116.59999847412</ele>
        <time>2024-04-14T10:36:04.000Z</time>
      </trkpt>
      <trkpt lat="48.38723" lon="2.45446">
        <ele>116.19999694824</ele>
        <time>2024-04-14T10:36:05.000Z</time>
      </trkpt>
      <trkpt lat="48.38718" lon="2.45447">
        <ele>115.80000305176</ele>
        <time>2024-04-14T10:36:06.000Z</time>
      </trkpt>
      <trkpt lat="48.38706" lon="2.45448">
        <ele>116.59999847412</ele>
        <time>2024-04-14T10:36:09.000Z</time>
      </trkpt>
      <trkpt lat="48.38695" lon="2.45439">
        <ele>116</ele>
        <time>2024-04-14T10:36:13.000Z</time>
      </trkpt>
      <trkpt lat="48.3869" lon="2.4543">
        <ele>114.59999847412</ele>
        <time>2024-04-14T10:36:15.000Z</time>
      </trkpt>
      <trkpt lat="48.38688" lon="2.45425">
        <ele>114</ele>
        <time>2024-04-14T10:36:16.000Z</time>
      </trkpt>
      <trkpt lat="48.38684" lon="2.45422">
        <ele>113.40000152588</ele>
        <time>2024-04-14T10:36:17.000Z</time>
      </trkpt>
      <trkpt lat="48.38675" lon="2.45418">
        <ele>112.19999694824</ele>
        <time>2024-04-14T10:36:19.000Z</time>
      </trkpt>
      <trkpt lat="48.3867" lon="2.45416">
        <ele>111.59999847412</ele>
        <time>2024-04-14T10:36:20.000Z</time>
      </trkpt>
      <trkpt lat="48.38664" lon="2.45414">
        <ele>111.19999694824</ele>
        <time>2024-04-14T10:36:21.000Z</time>
      </trkpt>
      <trkpt lat="48.38658" lon="2.45412">
        <ele>111.19999694824</ele>
        <time>2024-04-14T10:36:22.000Z</time>
      </trkpt>
      <trkpt lat="48.38645" lon="2.45398">
        <ele>111.19999694824</ele>
        <time>2024-04-14T10:36:25.000Z</time>
      </trkpt>
      <trkpt lat="48.38642" lon="2.45392">
        <ele>110.80000305176</ele>
        <time>2024-04-14T10:36:26.000Z</time>
      </trkpt>
      <trkpt lat="48.38639" lon="2.45383">
        <ele>110.19999694824</ele>
        <time>2024-04-14T10:36:27.000Z</time>
      </trkpt>
      <trkpt lat="48.38638" lon="2.45376">
        <ele>110</ele>
        <time>2024-04-14T10:36:28.000Z</time>
      </trkpt>
      <trkpt lat="48.38638" lon="2.45367">
        <ele>109.59999847412</ele>
        <time>2024-04-14T10:36:29.000Z</time>
      </trkpt>
      <trkpt lat="48.38638" lon="2.4535">
        <ele>108.59999847412</ele>
        <time>2024-04-14T10:36:31.000Z</time>
      </trkpt>
      <trkpt lat="48.38639" lon="2.45344">
        <ele>108</ele>
        <time>2024-04-14T10:36:32.000Z</time>
      </trkpt>
      <trkpt lat="48.38641" lon="2.45337">
        <ele>107.40000152588</ele>
        <time>2024-04-14T10:36:33.000Z</time>
      </trkpt>
      <trkpt lat="48.3864" lon="2.45326">
        <ele>106.59999847412</ele>
        <time>2024-04-14T10:36:35.000Z</time>
      </trkpt>
      <trkpt lat="48.38638" lon="2.45321">
        <ele>106</ele>
        <time>2024-04-14T10:36:36.000Z</time>
      </trkpt>
      <trkpt lat="48.38632" lon="2.45306">
        <ele>103</ele>
        <time>2024-04-14T10:36:39.000Z</time>
      </trkpt>
      <trkpt lat="48.38629" lon="2.45301">
        <ele>102</ele>
        <time>2024-04-14T10:36:40.000Z</time>
      </trkpt>
      <trkpt lat="48.38626" lon="2.45296">
        <ele>101.40000152588</ele>
        <time>2024-04-14T10:36:41.000Z</time>
      </trkpt>
      <trkpt lat="48.38623" lon="2.45292">
        <ele>100.59999847412</ele>
        <time>2024-04-14T10:36:42.000Z</time>
      </trkpt>
      <trkpt lat="48.38614" lon="2.45285">
        <ele>99</ele>
        <time>2024-04-14T10:36:44.000Z</time>
      </trkpt>
      <trkpt lat="48.38611" lon="2.4528">
        <ele>99</ele>
        <time>2024-04-14T10:36:45.000Z</time>
      </trkpt>
      <trkpt lat="48.3861" lon="2.45269">
        <ele>98.400001525879</ele>
        <time>2024-04-14T10:36:47.000Z</time>
      </trkpt>
      <trkpt lat="48.38611" lon="2.45262">
        <ele>97.800003051758</ele>
        <time>2024-04-14T10:36:48.000Z</time>
      </trkpt>
      <trkpt lat="48.38614" lon="2.45246">
        <ele>96.400001525879</ele>
        <time>2024-04-14T10:36:50.000Z</time>
      </trkpt>
      <trkpt lat="48.38617" lon="2.45239">
        <ele>96.400001525879</ele>
        <time>2024-04-14T10:36:51.000Z</time>
      </trkpt>
      <trkpt lat="48.38623" lon="2.45213">
        <ele>95.199996948242</ele>
        <time>2024-04-14T10:36:54.000Z</time>
      </trkpt>
      <trkpt lat="48.38625" lon="2.45203">
        <ele>94.800003051758</ele>
        <time>2024-04-14T10:36:55.000Z</time>
      </trkpt>
      <trkpt lat="48.38633" lon="2.45171">
        <ele>94</ele>
        <time>2024-04-14T10:36:58.000Z</time>
      </trkpt>
      <trkpt lat="48.38638" lon="2.45148">
        <ele>94.400001525879</ele>
        <time>2024-04-14T10:37:01.000Z</time>
      </trkpt>
      <trkpt lat="48.38639" lon="2.4512">
        <ele>94.199996948242</ele>
        <time>2024-04-14T10:37:06.000Z</time>
      </trkpt>
      <trkpt lat="48.38637" lon="2.45114">
        <ele>94.400001525879</ele>
        <time>2024-04-14T10:37:07.000Z</time>
      </trkpt>
      <trkpt lat="48.38629" lon="2.45097">
        <ele>95</ele>
        <time>2024-04-14T10:37:10.000Z</time>
      </trkpt>
      <trkpt lat="48.38626" lon="2.45091">
        <ele>95.199996948242</ele>
        <time>2024-04-14T10:37:11.000Z</time>
      </trkpt>
      <trkpt lat="48.38602" lon="2.45052">
        <ele>95.599998474121</ele>
        <time>2024-04-14T10:37:18.000Z</time>
      </trkpt>
      <trkpt lat="48.38572" lon="2.44999">
        <ele>96.199996948242</ele>
        <time>2024-04-14T10:37:26.000Z</time>
      </trkpt>
      <trkpt lat="48.38568" lon="2.44992">
        <ele>96.199996948242</ele>
        <time>2024-04-14T10:37:27.000Z</time>
      </trkpt>
      <trkpt lat="48.38547" lon="2.44954">
        <ele>96.199996948242</ele>
        <time>2024-04-14T10:37:33.000Z</time>
      </trkpt>
      <trkpt lat="48.38512" lon="2.44913">
        <ele>96.400001525879</ele>
        <time>2024-04-14T10:37:41.000Z</time>
      </trkpt>
      <trkpt lat="48.38504" lon="2.44902">
        <ele>96.800003051758</ele>
        <time>2024-04-14T10:37:43.000Z</time>
      </trkpt>
      <trkpt lat="48.38496" lon="2.44892">
        <ele>96.800003051758</ele>
        <time>2024-04-14T10:37:45.000Z</time>
      </trkpt>
      <trkpt lat="48.38487" lon="2.44883">
        <ele>97</ele>
        <time>2024-04-14T10:37:47.000Z</time>
      </trkpt>
      <trkpt lat="48.38483" lon="2.44878">
        <ele>97.400001525879</ele>
        <time>2024-04-14T10:37:48.000Z</time>
      </trkpt>
      <trkpt lat="48.38461" lon="2.44855">
        <ele>98.599998474121</ele>
        <time>2024-04-14T10:37:53.000Z</time>
      </trkpt>
      <trkpt lat="48.38453" lon="2.44847">
        <ele>98.800003051758</ele>
        <time>2024-04-14T10:37:55.000Z</time>
      </trkpt>
      <trkpt lat="48.38428" lon="2.4482">
        <ele>99.599998474121</ele>
        <time>2024-04-14T10:38:01.000Z</time>
      </trkpt>
      <trkpt lat="48.3842" lon="2.44811">
        <ele>99.199996948242</ele>
        <time>2024-04-14T10:38:03.000Z</time>
      </trkpt>
      <trkpt lat="48.38394" lon="2.44784">
        <ele>99.800003051758</ele>
        <time>2024-04-14T10:38:09.000Z</time>
      </trkpt>
      <trkpt lat="48.3839" lon="2.4478">
        <ele>100.19999694824</ele>
        <time>2024-04-14T10:38:10.000Z</time>
      </trkpt>
      <trkpt lat="48.38368" lon="2.44758">
        <ele>100.80000305176</ele>
        <time>2024-04-14T10:38:15.000Z</time>
      </trkpt>
      <trkpt lat="48.38351" lon="2.44738">
        <ele>101</ele>
        <time>2024-04-14T10:38:19.000Z</time>
      </trkpt>
      <trkpt lat="48.38334" lon="2.44718">
        <ele>101.40000152588</ele>
        <time>2024-04-14T10:38:23.000Z</time>
      </trkpt>
      <trkpt lat="48.38322" lon="2.44703">
        <ele>101</ele>
        <time>2024-04-14T10:38:26.000Z</time>
      </trkpt>
      <trkpt lat="48.38285" lon="2.44669">
        <ele>101.19999694824</ele>
        <time>2024-04-14T10:38:34.000Z</time>
      </trkpt>
      <trkpt lat="48.38281" lon="2.44665">
        <ele>101.80000305176</ele>
        <time>2024-04-14T10:38:35.000Z</time>
      </trkpt>
      <trkpt lat="48.38245" lon="2.44628">
        <ele>101.19999694824</ele>
        <time>2024-04-14T10:38:43.000Z</time>
      </trkpt>
      <trkpt lat="48.38238" lon="2.44616">
        <ele>102</ele>
        <time>2024-04-14T10:38:45.000Z</time>
      </trkpt>
      <trkpt lat="48.38229" lon="2.44596">
        <ele>101.59999847412</ele>
        <time>2024-04-14T10:38:48.000Z</time>
      </trkpt>
      <trkpt lat="48.38227" lon="2.44589">
        <ele>101.80000305176</ele>
        <time>2024-04-14T10:38:49.000Z</time>
      </trkpt>
      <trkpt lat="48.38221" lon="2.44568">
        <ele>102.59999847412</ele>
        <time>2024-04-14T10:38:52.000Z</time>
      </trkpt>
      <trkpt lat="48.38214" lon="2.44556">
        <ele>102.80000305176</ele>
        <time>2024-04-14T10:38:54.000Z</time>
      </trkpt>
      <trkpt lat="48.38211" lon="2.44549">
        <ele>103.19999694824</ele>
        <time>2024-04-14T10:38:55.000Z</time>
      </trkpt>
      <trkpt lat="48.38186" lon="2.44509">
        <ele>103.59999847412</ele>
        <time>2024-04-14T10:39:02.000Z</time>
      </trkpt>
      <trkpt lat="48.38166" lon="2.44464">
        <ele>103.40000152588</ele>
        <time>2024-04-14T10:39:09.000Z</time>
      </trkpt>
      <trkpt lat="48.3815" lon="2.44416">
        <ele>103.59999847412</ele>
        <time>2024-04-14T10:39:16.000Z</time>
      </trkpt>
      <trkpt lat="48.38138" lon="2.44383">
        <ele>104.19999694824</ele>
        <time>2024-04-14T10:39:21.000Z</time>
      </trkpt>
      <trkpt lat="48.38133" lon="2.44373">
        <ele>104.19999694824</ele>
        <time>2024-04-14T10:39:23.000Z</time>
      </trkpt>
      <trkpt lat="48.38127" lon="2.44357">
        <ele>104.19999694824</ele>
        <time>2024-04-14T10:39:28.000Z</time>
      </trkpt>
      <trkpt lat="48.38126" lon="2.44354">
        <ele>104.19999694824</ele>
        <time>2024-04-14T10:39:33.000Z</time>
      </trkpt>
      <trkpt lat="48.38126" lon="2.44354">
        <ele>104</ele>
        <time>2024-04-14T10:39:48.000Z</time>
      </trkpt>
      <trkpt lat="48.38126" lon="2.44354">
        <ele>104</ele>
        <time>2024-04-14T10:40:01.000Z</time>
      </trkpt>
      <trkpt lat="48.38125" lon="2.44354">
        <ele>104</ele>
        <time>2024-04-14T10:40:18.000Z</time>
      </trkpt>
      <trkpt lat="48.38125" lon="2.44354">
        <ele>104</ele>
        <time>2024-04-14T10:40:37.000Z</time>
      </trkpt>
      <trkpt lat="48.38125" lon="2.44354">
        <ele>103.80000305176</ele>
        <time>2024-04-14T10:40:45.000Z</time>
      </trkpt>
      <trkpt lat="48.38125" lon="2.44354">
        <ele>103.80000305176</ele>
        <time>2024-04-14T10:40:46.000Z</time>
      </trkpt>
      <trkpt lat="48.38118" lon="2.44363">
        <ele>104.59999847412</ele>
        <time>2024-04-14T10:40:49.000Z</time>
      </trkpt>
      <trkpt lat="48.38112" lon="2.44368">
        <ele>105.40000152588</ele>
        <time>2024-04-14T10:40:51.000Z</time>
      </trkpt>
      <trkpt lat="48.38106" lon="2.44372">
        <ele>106.40000152588</ele>
        <time>2024-04-14T10:40:53.000Z</time>
      </trkpt>
      <trkpt lat="48.38104" lon="2.44374">
        <ele>106.80000305176</ele>
        <time>2024-04-14T10:40:54.000Z</time>
      </trkpt>
      <trkpt lat="48.38096" lon="2.44391">
        <ele>107.19999694824</ele>
        <time>2024-04-14T10:40:59.000Z</time>
      </trkpt>
      <trkpt lat="48.38094" lon="2.44393">
        <ele>107.40000152588</ele>
        <time>2024-04-14T10:41:00.000Z</time>
      </trkpt>
      <trkpt lat="48.38091" lon="2.44394">
        <ele>107.40000152588</ele>
        <time>2024-04-14T10:41:01.000Z</time>
      </trkpt>
      <trkpt lat="48.38085" lon="2.44397">
        <ele>108.19999694824</ele>
        <time>2024-04-14T10:41:03.000Z</time>
      </trkpt>
      <trkpt lat="48.38082" lon="2.44398">
        <ele>108.59999847412</ele>
        <time>2024-04-14T10:41:04.000Z</time>
      </trkpt>
      <trkpt lat="48.38074" lon="2.444">
        <ele>109.59999847412</ele>
        <time>2024-04-14T10:41:07.000Z</time>
      </trkpt>
      <trkpt lat="48.38067" lon="2.44399">
        <ele>110.80000305176</ele>
        <time>2024-04-14T10:41:10.000Z</time>
      </trkpt>
      <trkpt lat="48.38061" lon="2.44397">
        <ele>112</ele>
        <time>2024-04-14T10:41:13.000Z</time>
      </trkpt>
      <trkpt lat="48.38056" lon="2.44399">
        <ele>113.40000152588</ele>
        <time>2024-04-14T10:41:16.000Z</time>
      </trkpt>
      <trkpt lat="48.38056" lon="2.44401">
        <ele>113.59999847412</ele>
        <time>2024-04-14T10:41:17.000Z</time>
      </trkpt>
      <trkpt lat="48.38054" lon="2.44414">
        <ele>113.59999847412</ele>
        <time>2024-04-14T10:41:21.000Z</time>
      </trkpt>
      <trkpt lat="48.38052" lon="2.44422">
        <ele>114.80000305176</ele>
        <time>2024-04-14T10:41:24.000Z</time>
      </trkpt>
      <trkpt lat="48.38052" lon="2.44428">
        <ele>116.19999694824</ele>
        <time>2024-04-14T10:41:27.000Z</time>
      </trkpt>
      <trkpt lat="48.38053" lon="2.44438">
        <ele>117.59999847412</ele>
        <time>2024-04-14T10:41:31.000Z</time>
      </trkpt>
      <trkpt lat="48.38052" lon="2.44442">
        <ele>118.59999847412</ele>
        <time>2024-04-14T10:41:34.000Z</time>
      </trkpt>
      <trkpt lat="48.38051" lon="2.44446">
        <ele>119</ele>
        <time>2024-04-14T10:41:35.000Z</time>
      </trkpt>
      <trkpt lat="48.38048" lon="2.44459">
        <ele>120.19999694824</ele>
        <time>2024-04-14T10:41:39.000Z</time>
      </trkpt>
      <trkpt lat="48.38044" lon="2.44471">
        <ele>121.40000152588</ele>
        <time>2024-04-14T10:41:43.000Z</time>
      </trkpt>
      <trkpt lat="48.38043" lon="2.44474">
        <ele>121.80000305176</ele>
        <time>2024-04-14T10:41:44.000Z</time>
      </trkpt>
      <trkpt lat="48.3804" lon="2.44481">
        <ele>122.80000305176</ele>
        <time>2024-04-14T10:41:47.000Z</time>
      </trkpt>
      <trkpt lat="48.38037" lon="2.44487">
        <ele>124</ele>
        <time>2024-04-14T10:41:51.000Z</time>
      </trkpt>
      <trkpt lat="48.38034" lon="2.44494">
        <ele>125.19999694824</ele>
        <time>2024-04-14T10:41:55.000Z</time>
      </trkpt>
      <trkpt lat="48.38032" lon="2.445">
        <ele>126.19999694824</ele>
        <time>2024-04-14T10:41:58.000Z</time>
      </trkpt>
      <trkpt lat="48.38029" lon="2.44509">
        <ele>126.59999847412</ele>
        <time>2024-04-14T10:42:02.000Z</time>
      </trkpt>
      <trkpt lat="48.38025" lon="2.44516">
        <ele>127.59999847412</ele>
        <time>2024-04-14T10:42:05.000Z</time>
      </trkpt>
      <trkpt lat="48.38023" lon="2.44519">
        <ele>128</ele>
        <time>2024-04-14T10:42:06.000Z</time>
      </trkpt>
      <trkpt lat="48.3802" lon="2.44521">
        <ele>129</ele>
        <time>2024-04-14T10:42:08.000Z</time>
      </trkpt>
      <trkpt lat="48.38015" lon="2.44522">
        <ele>130</ele>
        <time>2024-04-14T10:42:11.000Z</time>
      </trkpt>
      <trkpt lat="48.38008" lon="2.44526">
        <ele>131.60000610352</ele>
        <time>2024-04-14T10:42:15.000Z</time>
      </trkpt>
      <trkpt lat="48.38004" lon="2.44531">
        <ele>131.80000305176</ele>
        <time>2024-04-14T10:42:17.000Z</time>
      </trkpt>
      <trkpt lat="48.38" lon="2.44536">
        <ele>132.19999694824</ele>
        <time>2024-04-14T10:42:19.000Z</time>
      </trkpt>
      <trkpt lat="48.37995" lon="2.44545">
        <ele>131.80000305176</ele>
        <time>2024-04-14T10:42:22.000Z</time>
      </trkpt>
      <trkpt lat="48.37991" lon="2.44553">
        <ele>132.19999694824</ele>
        <time>2024-04-14T10:42:24.000Z</time>
      </trkpt>
      <trkpt lat="48.37986" lon="2.44573">
        <ele>131.80000305176</ele>
        <time>2024-04-14T10:42:28.000Z</time>
      </trkpt>
      <trkpt lat="48.37977" lon="2.44626">
        <ele>131.80000305176</ele>
        <time>2024-04-14T10:42:35.000Z</time>
      </trkpt>
      <trkpt lat="48.37974" lon="2.44659">
        <ele>131.19999694824</ele>
        <time>2024-04-14T10:42:40.000Z</time>
      </trkpt>
      <trkpt lat="48.37975" lon="2.44674">
        <ele>130</ele>
        <time>2024-04-14T10:42:42.000Z</time>
      </trkpt>
      <trkpt lat="48.37978" lon="2.44705">
        <ele>129.39999389648</ele>
        <time>2024-04-14T10:42:46.000Z</time>
      </trkpt>
      <trkpt lat="48.37988" lon="2.44724">
        <ele>130.60000610352</ele>
        <time>2024-04-14T10:42:50.000Z</time>
      </trkpt>
      <trkpt lat="48.38007" lon="2.44737">
        <ele>130.19999694824</ele>
        <time>2024-04-14T10:42:55.000Z</time>
      </trkpt>
      <trkpt lat="48.38027" lon="2.44743">
        <ele>129.19999694824</ele>
        <time>2024-04-14T10:43:00.000Z</time>
      </trkpt>
      <trkpt lat="48.38041" lon="2.44763">
        <ele>130.60000610352</ele>
        <time>2024-04-14T10:43:06.000Z</time>
      </trkpt>
      <trkpt lat="48.38042" lon="2.44767">
        <ele>131</ele>
        <time>2024-04-14T10:43:07.000Z</time>
      </trkpt>
      <trkpt lat="48.38049" lon="2.4478">
        <ele>131.39999389648</ele>
        <time>2024-04-14T10:43:12.000Z</time>
      </trkpt>
      <trkpt lat="48.38057" lon="2.44792">
        <ele>130</ele>
        <time>2024-04-14T10:43:16.000Z</time>
      </trkpt>
      <trkpt lat="48.38059" lon="2.44796">
        <ele>129.60000610352</ele>
        <time>2024-04-14T10:43:17.000Z</time>
      </trkpt>
      <trkpt lat="48.38064" lon="2.44823">
        <ele>130</ele>
        <time>2024-04-14T10:43:22.000Z</time>
      </trkpt>
      <trkpt lat="48.3807" lon="2.44845">
        <ele>128.80000305176</ele>
        <time>2024-04-14T10:43:25.000Z</time>
      </trkpt>
      <trkpt lat="48.38071" lon="2.44854">
        <ele>128</ele>
        <time>2024-04-14T10:43:26.000Z</time>
      </trkpt>
      <trkpt lat="48.38072" lon="2.44862">
        <ele>127.59999847412</ele>
        <time>2024-04-14T10:43:27.000Z</time>
      </trkpt>
      <trkpt lat="48.38075" lon="2.44874">
        <ele>128.60000610352</ele>
        <time>2024-04-14T10:43:29.000Z</time>
      </trkpt>
      <trkpt lat="48.38077" lon="2.4488">
        <ele>128.60000610352</ele>
        <time>2024-04-14T10:43:30.000Z</time>
      </trkpt>
      <trkpt lat="48.38079" lon="2.4489">
        <ele>129.60000610352</ele>
        <time>2024-04-14T10:43:32.000Z</time>
      </trkpt>
      <trkpt lat="48.38081" lon="2.44899">
        <ele>130.60000610352</ele>
        <time>2024-04-14T10:43:34.000Z</time>
      </trkpt>
      <trkpt lat="48.38082" lon="2.44903">
        <ele>131</ele>
        <time>2024-04-14T10:43:35.000Z</time>
      </trkpt>
      <trkpt lat="48.38083" lon="2.44907">
        <ele>131.80000305176</ele>
        <time>2024-04-14T10:43:36.000Z</time>
      </trkpt>
      <trkpt lat="48.38087" lon="2.44913">
        <ele>132.80000305176</ele>
        <time>2024-04-14T10:43:38.000Z</time>
      </trkpt>
      <trkpt lat="48.38089" lon="2.44914">
        <ele>133</ele>
        <time>2024-04-14T10:43:39.000Z</time>
      </trkpt>
      <trkpt lat="48.38092" lon="2.44915">
        <ele>133.19999694824</ele>
        <time>2024-04-14T10:43:40.000Z</time>
      </trkpt>
      <trkpt lat="48.38097" lon="2.44916">
        <ele>133.39999389648</ele>
        <time>2024-04-14T10:43:47.000Z</time>
      </trkpt>
      <trkpt lat="48.38102" lon="2.44915">
        <ele>133.80000305176</ele>
        <time>2024-04-14T10:43:54.000Z</time>
      </trkpt>
      <trkpt lat="48.38112" lon="2.44909">
        <ele>133.80000305176</ele>
        <time>2024-04-14T10:43:59.000Z</time>
      </trkpt>
      <trkpt lat="48.38118" lon="2.44901">
        <ele>133</ele>
        <time>2024-04-14T10:44:02.000Z</time>
      </trkpt>
      <trkpt lat="48.3812" lon="2.44902">
        <ele>133</ele>
        <time>2024-04-14T10:44:03.000Z</time>
      </trkpt>
      <trkpt lat="48.38124" lon="2.44911">
        <ele>133.60000610352</ele>
        <time>2024-04-14T10:44:06.000Z</time>
      </trkpt>
      <trkpt lat="48.38124" lon="2.44914">
        <ele>133.80000305176</ele>
        <time>2024-04-14T10:44:07.000Z</time>
      </trkpt>
      <trkpt lat="48.38125" lon="2.44916">
        <ele>134.19999694824</ele>
        <time>2024-04-14T10:44:08.000Z</time>
      </trkpt>
      <trkpt lat="48.38127" lon="2.44927">
        <ele>135.19999694824</ele>
        <time>2024-04-14T10:44:11.000Z</time>
      </trkpt>
      <trkpt lat="48.38131" lon="2.44935">
        <ele>135.80000305176</ele>
        <time>2024-04-14T10:44:13.000Z</time>
      </trkpt>
      <trkpt lat="48.38139" lon="2.44948">
        <ele>135.80000305176</ele>
        <time>2024-04-14T10:44:17.000Z</time>
      </trkpt>
      <trkpt lat="48.38139" lon="2.44951">
        <ele>136</ele>
        <time>2024-04-14T10:44:18.000Z</time>
      </trkpt>
      <trkpt lat="48.38142" lon="2.4497">
        <ele>136.19999694824</ele>
        <time>2024-04-14T10:44:23.000Z</time>
      </trkpt>
      <trkpt lat="48.38144" lon="2.44974">
        <ele>136.19999694824</ele>
        <time>2024-04-14T10:44:24.000Z</time>
      </trkpt>
      <trkpt lat="48.38147" lon="2.44984">
        <ele>136.19999694824</ele>
        <time>2024-04-14T10:44:26.000Z</time>
      </trkpt>
      <trkpt lat="48.38146" lon="2.44989">
        <ele>136.19999694824</ele>
        <time>2024-04-14T10:44:27.000Z</time>
      </trkpt>
      <trkpt lat="48.38143" lon="2.45013">
        <ele>136.19999694824</ele>
        <time>2024-04-14T10:44:31.000Z</time>
      </trkpt>
      <trkpt lat="48.38141" lon="2.45017">
        <ele>136.19999694824</ele>
        <time>2024-04-14T10:44:32.000Z</time>
      </trkpt>
      <trkpt lat="48.38138" lon="2.45022">
        <ele>136.39999389648</ele>
        <time>2024-04-14T10:44:33.000Z</time>
      </trkpt>
      <trkpt lat="48.38131" lon="2.45037">
        <ele>136.60000610352</ele>
        <time>2024-04-14T10:44:36.000Z</time>
      </trkpt>
      <trkpt lat="48.38124" lon="2.45059">
        <ele>136.60000610352</ele>
        <time>2024-04-14T10:44:40.000Z</time>
      </trkpt>
      <trkpt lat="48.38126" lon="2.45072">
        <ele>136.39999389648</ele>
        <time>2024-04-14T10:44:42.000Z</time>
      </trkpt>
      <trkpt lat="48.38129" lon="2.45085">
        <ele>136.80000305176</ele>
        <time>2024-04-14T10:44:44.000Z</time>
      </trkpt>
      <trkpt lat="48.38144" lon="2.45126">
        <ele>137</ele>
        <time>2024-04-14T10:44:50.000Z</time>
      </trkpt>
      <trkpt lat="48.38155" lon="2.45168">
        <ele>137.19999694824</ele>
        <time>2024-04-14T10:44:55.000Z</time>
      </trkpt>
      <trkpt lat="48.38159" lon="2.45178">
        <ele>137</ele>
        <time>2024-04-14T10:44:56.000Z</time>
      </trkpt>
      <trkpt lat="48.38172" lon="2.45209">
        <ele>136.39999389648</ele>
        <time>2024-04-14T10:44:59.000Z</time>
      </trkpt>
      <trkpt lat="48.38177" lon="2.4522">
        <ele>136.39999389648</ele>
        <time>2024-04-14T10:45:00.000Z</time>
      </trkpt>
      <trkpt lat="48.38203" lon="2.45278">
        <ele>136.39999389648</ele>
        <time>2024-04-14T10:45:06.000Z</time>
      </trkpt>
      <trkpt lat="48.38234" lon="2.45325">
        <ele>136.60000610352</ele>
        <time>2024-04-14T10:45:13.000Z</time>
      </trkpt>
      <trkpt lat="48.38269" lon="2.45371">
        <ele>137.19999694824</ele>
        <time>2024-04-14T10:45:20.000Z</time>
      </trkpt>
      <trkpt lat="48.38304" lon="2.45421">
        <ele>137.19999694824</ele>
        <time>2024-04-14T10:45:28.000Z</time>
      </trkpt>
      <trkpt lat="48.38329" lon="2.45461">
        <ele>137.39999389648</ele>
        <time>2024-04-14T10:45:34.000Z</time>
      </trkpt>
      <trkpt lat="48.38332" lon="2.45468">
        <ele>137.80000305176</ele>
        <time>2024-04-14T10:45:35.000Z</time>
      </trkpt>
      <trkpt lat="48.38343" lon="2.45495">
        <ele>138.39999389648</ele>
        <time>2024-04-14T10:45:39.000Z</time>
      </trkpt>
      <trkpt lat="48.38349" lon="2.45509">
        <ele>138.19999694824</ele>
        <time>2024-04-14T10:45:41.000Z</time>
      </trkpt>
      <trkpt lat="48.38368" lon="2.45543">
        <ele>139</ele>
        <time>2024-04-14T10:45:46.000Z</time>
      </trkpt>
      <trkpt lat="48.38395" lon="2.45561">
        <ele>139</ele>
        <time>2024-04-14T10:45:51.000Z</time>
      </trkpt>
      <trkpt lat="48.38401" lon="2.45563">
        <ele>139</ele>
        <time>2024-04-14T10:45:52.000Z</time>
      </trkpt>
      <trkpt lat="48.38418" lon="2.45567">
        <ele>139.39999389648</ele>
        <time>2024-04-14T10:45:55.000Z</time>
      </trkpt>
      <trkpt lat="48.38424" lon="2.45566">
        <ele>139.60000610352</ele>
        <time>2024-04-14T10:45:56.000Z</time>
      </trkpt>
      <trkpt lat="48.38429" lon="2.45565">
        <ele>139.19999694824</ele>
        <time>2024-04-14T10:45:57.000Z</time>
      </trkpt>
      <trkpt lat="48.3845" lon="2.45562">
        <ele>138.80000305176</ele>
        <time>2024-04-14T10:46:01.000Z</time>
      </trkpt>
      <trkpt lat="48.38455" lon="2.45564">
        <ele>139</ele>
        <time>2024-04-14T10:46:02.000Z</time>
      </trkpt>
      <trkpt lat="48.38491" lon="2.45575">
        <ele>139.39999389648</ele>
        <time>2024-04-14T10:46:09.000Z</time>
      </trkpt>
      <trkpt lat="48.38497" lon="2.45577">
        <ele>139.60000610352</ele>
        <time>2024-04-14T10:46:10.000Z</time>
      </trkpt>
      <trkpt lat="48.38525" lon="2.45585">
        <ele>139.19999694824</ele>
        <time>2024-04-14T10:46:15.000Z</time>
      </trkpt>
      <trkpt lat="48.38564" lon="2.45597">
        <ele>139</ele>
        <time>2024-04-14T10:46:22.000Z</time>
      </trkpt>
      <trkpt lat="48.38609" lon="2.45612">
        <ele>139</ele>
        <time>2024-04-14T10:46:30.000Z</time>
      </trkpt>
      <trkpt lat="48.38626" lon="2.45617">
        <ele>139</ele>
        <time>2024-04-14T10:46:33.000Z</time>
      </trkpt>
      <trkpt lat="48.38645" lon="2.45621">
        <ele>138.80000305176</ele>
        <time>2024-04-14T10:46:36.000Z</time>
      </trkpt>
      <trkpt lat="48.38694" lon="2.45635">
        <ele>138.39999389648</ele>
        <time>2024-04-14T10:46:44.000Z</time>
      </trkpt>
      <trkpt lat="48.38723" lon="2.45642">
        <ele>138.60000610352</ele>
        <time>2024-04-14T10:46:49.000Z</time>
      </trkpt>
      <trkpt lat="48.38729" lon="2.45643">
        <ele>138.39999389648</ele>
        <time>2024-04-14T10:46:50.000Z</time>
      </trkpt>
      <trkpt lat="48.38764" lon="2.45655">
        <ele>136.80000305176</ele>
        <time>2024-04-14T10:46:56.000Z</time>
      </trkpt>
      <trkpt lat="48.3877" lon="2.45657">
        <ele>136.19999694824</ele>
        <time>2024-04-14T10:46:57.000Z</time>
      </trkpt>
      <trkpt lat="48.38777" lon="2.4566">
        <ele>135.39999389648</ele>
        <time>2024-04-14T10:46:58.000Z</time>
      </trkpt>
      <trkpt lat="48.38793" lon="2.45665">
        <ele>134.39999389648</ele>
        <time>2024-04-14T10:47:00.000Z</time>
      </trkpt>
      <trkpt lat="48.38802" lon="2.45666">
        <ele>134.19999694824</ele>
        <time>2024-04-14T10:47:01.000Z</time>
      </trkpt>
      <trkpt lat="48.3882" lon="2.4567">
        <ele>133.19999694824</ele>
        <time>2024-04-14T10:47:03.000Z</time>
      </trkpt>
      <trkpt lat="48.3883" lon="2.45671">
        <ele>131.80000305176</ele>
        <time>2024-04-14T10:47:04.000Z</time>
      </trkpt>
      <trkpt lat="48.38863" lon="2.45675">
        <ele>132.19999694824</ele>
        <time>2024-04-14T10:47:08.000Z</time>
      </trkpt>
      <trkpt lat="48.38876" lon="2.45677">
        <ele>132.80000305176</ele>
        <time>2024-04-14T10:47:10.000Z</time>
      </trkpt>
      <trkpt lat="48.38902" lon="2.45683">
        <ele>133</ele>
        <time>2024-04-14T10:47:14.000Z</time>
      </trkpt>
      <trkpt lat="48.38934" lon="2.4569">
        <ele>133</ele>
        <time>2024-04-14T10:47:19.000Z</time>
      </trkpt>
      <trkpt lat="48.38976" lon="2.45701">
        <ele>133.19999694824</ele>
        <time>2024-04-14T10:47:26.000Z</time>
      </trkpt>
      <trkpt lat="48.39026" lon="2.45716">
        <ele>132.39999389648</ele>
        <time>2024-04-14T10:47:35.000Z</time>
      </trkpt>
      <trkpt lat="48.39058" lon="2.45725">
        <ele>131.80000305176</ele>
        <time>2024-04-14T10:47:40.000Z</time>
      </trkpt>
      <trkpt lat="48.39071" lon="2.45728">
        <ele>131.60000610352</ele>
        <time>2024-04-14T10:47:42.000Z</time>
      </trkpt>
      <trkpt lat="48.39119" lon="2.45738">
        <ele>131.39999389648</ele>
        <time>2024-04-14T10:47:49.000Z</time>
      </trkpt>
      <trkpt lat="48.39134" lon="2.45741">
        <ele>133.19999694824</ele>
        <time>2024-04-14T10:47:52.000Z</time>
      </trkpt>
      <trkpt lat="48.39139" lon="2.45743">
        <ele>133.60000610352</ele>
        <time>2024-04-14T10:47:53.000Z</time>
      </trkpt>
      <trkpt lat="48.39169" lon="2.45757">
        <ele>133.60000610352</ele>
        <time>2024-04-14T10:48:01.000Z</time>
      </trkpt>
      <trkpt lat="48.39196" lon="2.45766">
        <ele>132.19999694824</ele>
        <time>2024-04-14T10:48:07.000Z</time>
      </trkpt>
      <trkpt lat="48.392" lon="2.45767">
        <ele>132</ele>
        <time>2024-04-14T10:48:08.000Z</time>
      </trkpt>
      <trkpt lat="48.39207" lon="2.45774">
        <ele>130.39999389648</ele>
        <time>2024-04-14T10:48:11.000Z</time>
      </trkpt>
      <trkpt lat="48.39209" lon="2.45776">
        <ele>130</ele>
        <time>2024-04-14T10:48:12.000Z</time>
      </trkpt>
      <trkpt lat="48.39212" lon="2.45779">
        <ele>128.60000610352</ele>
        <time>2024-04-14T10:48:13.000Z</time>
      </trkpt>
      <trkpt lat="48.39214" lon="2.45784">
        <ele>127.40000152588</ele>
        <time>2024-04-14T10:48:14.000Z</time>
      </trkpt>
      <trkpt lat="48.39215" lon="2.45787">
        <ele>125.59999847412</ele>
        <time>2024-04-14T10:48:15.000Z</time>
      </trkpt>
      <trkpt lat="48.39215" lon="2.45791">
        <ele>123.59999847412</ele>
        <time>2024-04-14T10:48:16.000Z</time>
      </trkpt>
      <trkpt lat="48.39215" lon="2.45801">
        <ele>122</ele>
        <time>2024-04-14T10:48:18.000Z</time>
      </trkpt>
      <trkpt lat="48.39215" lon="2.45806">
        <ele>121.40000152588</ele>
        <time>2024-04-14T10:48:19.000Z</time>
      </trkpt>
      <trkpt lat="48.39216" lon="2.45811">
        <ele>120.59999847412</ele>
        <time>2024-04-14T10:48:20.000Z</time>
      </trkpt>
      <trkpt lat="48.39214" lon="2.45821">
        <ele>119.19999694824</ele>
        <time>2024-04-14T10:48:22.000Z</time>
      </trkpt>
      <trkpt lat="48.39213" lon="2.45827">
        <ele>118.40000152588</ele>
        <time>2024-04-14T10:48:23.000Z</time>
      </trkpt>
      <trkpt lat="48.3921" lon="2.45833">
        <ele>116.80000305176</ele>
        <time>2024-04-14T10:48:24.000Z</time>
      </trkpt>
      <trkpt lat="48.39208" lon="2.45839">
        <ele>115.40000152588</ele>
        <time>2024-04-14T10:48:25.000Z</time>
      </trkpt>
      <trkpt lat="48.39204" lon="2.45843">
        <ele>114.40000152588</ele>
        <time>2024-04-14T10:48:26.000Z</time>
      </trkpt>
      <trkpt lat="48.392" lon="2.45844">
        <ele>114</ele>
        <time>2024-04-14T10:48:27.000Z</time>
      </trkpt>
      <trkpt lat="48.39188" lon="2.45844">
        <ele>114</ele>
        <time>2024-04-14T10:48:31.000Z</time>
      </trkpt>
      <trkpt lat="48.39176" lon="2.45849">
        <ele>114.80000305176</ele>
        <time>2024-04-14T10:48:36.000Z</time>
      </trkpt>
      <trkpt lat="48.39169" lon="2.4585">
        <ele>116.19999694824</ele>
        <time>2024-04-14T10:48:40.000Z</time>
      </trkpt>
      <trkpt lat="48.39167" lon="2.4585">
        <ele>116.80000305176</ele>
        <time>2024-04-14T10:48:41.000Z</time>
      </trkpt>
      <trkpt lat="48.39166" lon="2.4585">
        <ele>117.19999694824</ele>
        <time>2024-04-14T10:48:42.000Z</time>
      </trkpt>
      <trkpt lat="48.39156" lon="2.45852">
        <ele>118.19999694824</ele>
        <time>2024-04-14T10:48:47.000Z</time>
      </trkpt>
      <trkpt lat="48.3915" lon="2.45854">
        <ele>118.19999694824</ele>
        <time>2024-04-14T10:48:49.000Z</time>
      </trkpt>
      <trkpt lat="48.39135" lon="2.45863">
        <ele>117.80000305176</ele>
        <time>2024-04-14T10:48:54.000Z</time>
      </trkpt>
      <trkpt lat="48.3912" lon="2.45867">
        <ele>119.59999847412</ele>
        <time>2024-04-14T10:48:58.000Z</time>
      </trkpt>
      <trkpt lat="48.39117" lon="2.45867">
        <ele>120.19999694824</ele>
        <time>2024-04-14T10:48:59.000Z</time>
      </trkpt>
      <trkpt lat="48.39112" lon="2.45867">
        <ele>120.80000305176</ele>
        <time>2024-04-14T10:49:01.000Z</time>
      </trkpt>
      <trkpt lat="48.39105" lon="2.45866">
        <ele>122.59999847412</ele>
        <time>2024-04-14T10:49:04.000Z</time>
      </trkpt>
      <trkpt lat="48.39101" lon="2.45866">
        <ele>123.40000152588</ele>
        <time>2024-04-14T10:49:06.000Z</time>
      </trkpt>
      <trkpt lat="48.39098" lon="2.45866">
        <ele>123.59999847412</ele>
        <time>2024-04-14T10:49:07.000Z</time>
      </trkpt>
      <trkpt lat="48.39093" lon="2.45866">
        <ele>124.80000305176</ele>
        <time>2024-04-14T10:49:10.000Z</time>
      </trkpt>
      <trkpt lat="48.39089" lon="2.45866">
        <ele>125.59999847412</ele>
        <time>2024-04-14T10:49:12.000Z</time>
      </trkpt>
      <trkpt lat="48.39088" lon="2.45866">
        <ele>126</ele>
        <time>2024-04-14T10:49:13.000Z</time>
      </trkpt>
      <trkpt lat="48.39083" lon="2.45868">
        <ele>126.80000305176</ele>
        <time>2024-04-14T10:49:16.000Z</time>
      </trkpt>
      <trkpt lat="48.39081" lon="2.45869">
        <ele>127</ele>
        <time>2024-04-14T10:49:17.000Z</time>
      </trkpt>
      <trkpt lat="48.39078" lon="2.4587">
        <ele>127.40000152588</ele>
        <time>2024-04-14T10:49:19.000Z</time>
      </trkpt>
      <trkpt lat="48.39074" lon="2.4587">
        <ele>127.80000305176</ele>
        <time>2024-04-14T10:49:21.000Z</time>
      </trkpt>
      <trkpt lat="48.39072" lon="2.4587">
        <ele>128.19999694824</ele>
        <time>2024-04-14T10:49:22.000Z</time>
      </trkpt>
      <trkpt lat="48.39063" lon="2.45875">
        <ele>129</ele>
        <time>2024-04-14T10:49:26.000Z</time>
      </trkpt>
      <trkpt lat="48.39061" lon="2.45877">
        <ele>129.19999694824</ele>
        <time>2024-04-14T10:49:27.000Z</time>
      </trkpt>
      <trkpt lat="48.39045" lon="2.45888">
        <ele>129</ele>
        <time>2024-04-14T10:49:33.000Z</time>
      </trkpt>
      <trkpt lat="48.39025" lon="2.45906">
        <ele>129.39999389648</ele>
        <time>2024-04-14T10:49:39.000Z</time>
      </trkpt>
      <trkpt lat="48.39004" lon="2.45907">
        <ele>129.39999389648</ele>
        <time>2024-04-14T10:49:44.000Z</time>
      </trkpt>
      <trkpt lat="48.38987" lon="2.45888">
        <ele>130.39999389648</ele>
        <time>2024-04-14T10:49:49.000Z</time>
      </trkpt>
      <trkpt lat="48.38981" lon="2.45876">
        <ele>131.60000610352</ele>
        <time>2024-04-14T10:49:52.000Z</time>
      </trkpt>
      <trkpt lat="48.38974" lon="2.45865">
        <ele>132.39999389648</ele>
        <time>2024-04-14T10:49:55.000Z</time>
      </trkpt>
      <trkpt lat="48.38972" lon="2.45863">
        <ele>132.60000610352</ele>
        <time>2024-04-14T10:49:56.000Z</time>
      </trkpt>
      <trkpt lat="48.38961" lon="2.4585">
        <ele>133.60000610352</ele>
        <time>2024-04-14T10:50:01.000Z</time>
      </trkpt>
      <trkpt lat="48.38959" lon="2.45847">
        <ele>133.60000610352</ele>
        <time>2024-04-14T10:50:02.000Z</time>
      </trkpt>
      <trkpt lat="48.38959" lon="2.45836">
        <ele>134.80000305176</ele>
        <time>2024-04-14T10:50:05.000Z</time>
      </trkpt>
      <trkpt lat="48.38958" lon="2.45825">
        <ele>135.39999389648</ele>
        <time>2024-04-14T10:50:08.000Z</time>
      </trkpt>
      <trkpt lat="48.38955" lon="2.45818">
        <ele>135.80000305176</ele>
        <time>2024-04-14T10:50:10.000Z</time>
      </trkpt>
      <trkpt lat="48.38948" lon="2.45807">
        <ele>136.39999389648</ele>
        <time>2024-04-14T10:50:13.000Z</time>
      </trkpt>
      <trkpt lat="48.38941" lon="2.45798">
        <ele>137</ele>
        <time>2024-04-14T10:50:16.000Z</time>
      </trkpt>
      <trkpt lat="48.38936" lon="2.45792">
        <ele>137.39999389648</ele>
        <time>2024-04-14T10:50:18.000Z</time>
      </trkpt>
      <trkpt lat="48.38933" lon="2.45791">
        <ele>137.60000610352</ele>
        <time>2024-04-14T10:50:19.000Z</time>
      </trkpt>
      <trkpt lat="48.38923" lon="2.45798">
        <ele>137.60000610352</ele>
        <time>2024-04-14T10:50:23.000Z</time>
      </trkpt>
      <trkpt lat="48.38914" lon="2.45803">
        <ele>137.39999389648</ele>
        <time>2024-04-14T10:50:27.000Z</time>
      </trkpt>
      <trkpt lat="48.38908" lon="2.45803">
        <ele>137.60000610352</ele>
        <time>2024-04-14T10:50:29.000Z</time>
      </trkpt>
      <trkpt lat="48.38899" lon="2.45806">
        <ele>137.39999389648</ele>
        <time>2024-04-14T10:50:32.000Z</time>
      </trkpt>
      <trkpt lat="48.38878" lon="2.45817">
        <ele>137.19999694824</ele>
        <time>2024-04-14T10:50:37.000Z</time>
      </trkpt>
      <trkpt lat="48.38856" lon="2.45823">
        <ele>138</ele>
        <time>2024-04-14T10:50:42.000Z</time>
      </trkpt>
      <trkpt lat="48.38852" lon="2.45824">
        <ele>138.19999694824</ele>
        <time>2024-04-14T10:50:43.000Z</time>
      </trkpt>
      <trkpt lat="48.38831" lon="2.4582">
        <ele>138</ele>
        <time>2024-04-14T10:50:48.000Z</time>
      </trkpt>
      <trkpt lat="48.38814" lon="2.4583">
        <ele>137</ele>
        <time>2024-04-14T10:50:52.000Z</time>
      </trkpt>
      <trkpt lat="48.38809" lon="2.45833">
        <ele>136.80000305176</ele>
        <time>2024-04-14T10:50:53.000Z</time>
      </trkpt>
      <trkpt lat="48.38792" lon="2.45839">
        <ele>136.80000305176</ele>
        <time>2024-04-14T10:50:57.000Z</time>
      </trkpt>
      <trkpt lat="48.3877" lon="2.45839">
        <ele>136</ele>
        <time>2024-04-14T10:51:02.000Z</time>
      </trkpt>
      <trkpt lat="48.38752" lon="2.45837">
        <ele>135.80000305176</ele>
        <time>2024-04-14T10:51:06.000Z</time>
      </trkpt>
      <trkpt lat="48.38744" lon="2.45837">
        <ele>135.39999389648</ele>
        <time>2024-04-14T10:51:08.000Z</time>
      </trkpt>
      <trkpt lat="48.3873" lon="2.45826">
        <ele>136</ele>
        <time>2024-04-14T10:51:12.000Z</time>
      </trkpt>
      <trkpt lat="48.38725" lon="2.45829">
        <ele>135.80000305176</ele>
        <time>2024-04-14T10:51:15.000Z</time>
      </trkpt>
      <trkpt lat="48.38723" lon="2.45831">
        <ele>135.60000610352</ele>
        <time>2024-04-14T10:51:16.000Z</time>
      </trkpt>
      <trkpt lat="48.38716" lon="2.45835">
        <ele>134.80000305176</ele>
        <time>2024-04-14T10:51:19.000Z</time>
      </trkpt>
      <trkpt lat="48.38715" lon="2.45834">
        <ele>135.19999694824</ele>
        <time>2024-04-14T10:51:21.000Z</time>
      </trkpt>
      <trkpt lat="48.38708" lon="2.45841">
        <ele>134.60000610352</ele>
        <time>2024-04-14T10:51:26.000Z</time>
      </trkpt>
      <trkpt lat="48.3871" lon="2.45853">
        <ele>133.80000305176</ele>
        <time>2024-04-14T10:51:30.000Z</time>
      </trkpt>
      <trkpt lat="48.38708" lon="2.45856">
        <ele>133.60000610352</ele>
        <time>2024-04-14T10:51:31.000Z</time>
      </trkpt>
      <trkpt lat="48.38707" lon="2.4586">
        <ele>133</ele>
        <time>2024-04-14T10:51:32.000Z</time>
      </trkpt>
      <trkpt lat="48.38705" lon="2.45865">
        <ele>132</ele>
        <time>2024-04-14T10:51:33.000Z</time>
      </trkpt>
      <trkpt lat="48.38703" lon="2.4587">
        <ele>131.39999389648</ele>
        <time>2024-04-14T10:51:34.000Z</time>
      </trkpt>
      <trkpt lat="48.387" lon="2.45878">
        <ele>130.60000610352</ele>
        <time>2024-04-14T10:51:35.000Z</time>
      </trkpt>
      <trkpt lat="48.38694" lon="2.45898">
        <ele>128.60000610352</ele>
        <time>2024-04-14T10:51:38.000Z</time>
      </trkpt>
      <trkpt lat="48.3869" lon="2.45908">
        <ele>127.19999694824</ele>
        <time>2024-04-14T10:51:39.000Z</time>
      </trkpt>
      <trkpt lat="48.38685" lon="2.45918">
        <ele>125.80000305176</ele>
        <time>2024-04-14T10:51:40.000Z</time>
      </trkpt>
      <trkpt lat="48.38675" lon="2.45942">
        <ele>126.59999847412</ele>
        <time>2024-04-14T10:51:43.000Z</time>
      </trkpt>
      <trkpt lat="48.3867" lon="2.45956">
        <ele>127.40000152588</ele>
        <time>2024-04-14T10:51:45.000Z</time>
      </trkpt>
      <trkpt lat="48.38667" lon="2.4596">
        <ele>128</ele>
        <time>2024-04-14T10:51:46.000Z</time>
      </trkpt>
      <trkpt lat="48.38663" lon="2.45963">
        <ele>128.60000610352</ele>
        <time>2024-04-14T10:51:47.000Z</time>
      </trkpt>
      <trkpt lat="48.38654" lon="2.45973">
        <ele>129.80000305176</ele>
        <time>2024-04-14T10:51:51.000Z</time>
      </trkpt>
      <trkpt lat="48.38652" lon="2.45976">
        <ele>130.60000610352</ele>
        <time>2024-04-14T10:51:52.000Z</time>
      </trkpt>
      <trkpt lat="48.3865" lon="2.45978">
        <ele>131</ele>
        <time>2024-04-14T10:51:53.000Z</time>
      </trkpt>
      <trkpt lat="48.3864" lon="2.45992">
        <ele>132.19999694824</ele>
        <time>2024-04-14T10:51:58.000Z</time>
      </trkpt>
      <trkpt lat="48.38635" lon="2.45998">
        <ele>132.60000610352</ele>
        <time>2024-04-14T10:52:00.000Z</time>
      </trkpt>
      <trkpt lat="48.38623" lon="2.46005">
        <ele>133.19999694824</ele>
        <time>2024-04-14T10:52:04.000Z</time>
      </trkpt>
      <trkpt lat="48.38616" lon="2.46007">
        <ele>133.80000305176</ele>
        <time>2024-04-14T10:52:06.000Z</time>
      </trkpt>
      <trkpt lat="48.38608" lon="2.46013">
        <ele>134.19999694824</ele>
        <time>2024-04-14T10:52:09.000Z</time>
      </trkpt>
      <trkpt lat="48.38602" lon="2.46018">
        <ele>134.60000610352</ele>
        <time>2024-04-14T10:52:11.000Z</time>
      </trkpt>
      <trkpt lat="48.386" lon="2.46021">
        <ele>134.80000305176</ele>
        <time>2024-04-14T10:52:12.000Z</time>
      </trkpt>
      <trkpt lat="48.386" lon="2.46029">
        <ele>134.80000305176</ele>
        <time>2024-04-14T10:52:14.000Z</time>
      </trkpt>
      <trkpt lat="48.38599" lon="2.4604">
        <ele>134.39999389648</ele>
        <time>2024-04-14T10:52:16.000Z</time>
      </trkpt>
      <trkpt lat="48.38594" lon="2.46051">
        <ele>134.80000305176</ele>
        <time>2024-04-14T10:52:18.000Z</time>
      </trkpt>
      <trkpt lat="48.38586" lon="2.46057">
        <ele>135.19999694824</ele>
        <time>2024-04-14T10:52:20.000Z</time>
      </trkpt>
      <trkpt lat="48.38582" lon="2.46061">
        <ele>135.39999389648</ele>
        <time>2024-04-14T10:52:21.000Z</time>
      </trkpt>
      <trkpt lat="48.38579" lon="2.46065">
        <ele>135.60000610352</ele>
        <time>2024-04-14T10:52:22.000Z</time>
      </trkpt>
      <trkpt lat="48.38572" lon="2.46073">
        <ele>136.39999389648</ele>
        <time>2024-04-14T10:52:24.000Z</time>
      </trkpt>
      <trkpt lat="48.38551" lon="2.46093">
        <ele>137.39999389648</ele>
        <time>2024-04-14T10:52:30.000Z</time>
      </trkpt>
      <trkpt lat="48.38529" lon="2.46116">
        <ele>138.39999389648</ele>
        <time>2024-04-14T10:52:37.000Z</time>
      </trkpt>
      <trkpt lat="48.38526" lon="2.4612">
        <ele>138.39999389648</ele>
        <time>2024-04-14T10:52:38.000Z</time>
      </trkpt>
      <trkpt lat="48.38518" lon="2.46127">
        <ele>139</ele>
        <time>2024-04-14T10:52:40.000Z</time>
      </trkpt>
      <trkpt lat="48.38511" lon="2.46134">
        <ele>139</ele>
        <time>2024-04-14T10:52:42.000Z</time>
      </trkpt>
      <trkpt lat="48.38504" lon="2.46142">
        <ele>139</ele>
        <time>2024-04-14T10:52:44.000Z</time>
      </trkpt>
      <trkpt lat="48.38475" lon="2.46172">
        <ele>139.19999694824</ele>
        <time>2024-04-14T10:52:51.000Z</time>
      </trkpt>
      <trkpt lat="48.38465" lon="2.46185">
        <ele>139.60000610352</ele>
        <time>2024-04-14T10:52:54.000Z</time>
      </trkpt>
      <trkpt lat="48.38464" lon="2.46197">
        <ele>139.39999389648</ele>
        <time>2024-04-14T10:52:56.000Z</time>
      </trkpt>
      <trkpt lat="48.38471" lon="2.46214">
        <ele>139</ele>
        <time>2024-04-14T10:52:59.000Z</time>
      </trkpt>
      <trkpt lat="48.3849" lon="2.4626">
        <ele>139.39999389648</ele>
        <time>2024-04-14T10:53:06.000Z</time>
      </trkpt>
      <trkpt lat="48.3851" lon="2.46317">
        <ele>139.60000610352</ele>
        <time>2024-04-14T10:53:14.000Z</time>
      </trkpt>
      <trkpt lat="48.38513" lon="2.46324">
        <ele>139.19999694824</ele>
        <time>2024-04-14T10:53:15.000Z</time>
      </trkpt>
      <trkpt lat="48.38522" lon="2.46343">
        <ele>139.60000610352</ele>
        <time>2024-04-14T10:53:18.000Z</time>
      </trkpt>
      <trkpt lat="48.38526" lon="2.46348">
        <ele>139.60000610352</ele>
        <time>2024-04-14T10:53:19.000Z</time>
      </trkpt>
      <trkpt lat="48.38535" lon="2.46356">
        <ele>139.39999389648</ele>
        <time>2024-04-14T10:53:22.000Z</time>
      </trkpt>
      <trkpt lat="48.38541" lon="2.46379">
        <ele>139.39999389648</ele>
        <time>2024-04-14T10:53:27.000Z</time>
      </trkpt>
      <trkpt lat="48.38555" lon="2.46414">
        <ele>139.19999694824</ele>
        <time>2024-04-14T10:53:34.000Z</time>
      </trkpt>
      <trkpt lat="48.38564" lon="2.46445">
        <ele>139.80000305176</ele>
        <time>2024-04-14T10:53:40.000Z</time>
      </trkpt>
      <trkpt lat="48.38577" lon="2.46482">
        <ele>139.80000305176</ele>
        <time>2024-04-14T10:53:47.000Z</time>
      </trkpt>
      <trkpt lat="48.3858" lon="2.46495">
        <ele>139.80000305176</ele>
        <time>2024-04-14T10:53:51.000Z</time>
      </trkpt>
      <trkpt lat="48.38581" lon="2.46498">
        <ele>139.80000305176</ele>
        <time>2024-04-14T10:53:57.000Z</time>
      </trkpt>
      <trkpt lat="48.38583" lon="2.46507">
        <ele>139.60000610352</ele>
        <time>2024-04-14T10:54:07.000Z</time>
      </trkpt>
      <trkpt lat="48.38588" lon="2.4653">
        <ele>139.60000610352</ele>
        <time>2024-04-14T10:54:11.000Z</time>
      </trkpt>
      <trkpt lat="48.38596" lon="2.46559">
        <ele>138.80000305176</ele>
        <time>2024-04-14T10:54:16.000Z</time>
      </trkpt>
      <trkpt lat="48.38605" lon="2.46585">
        <ele>138.60000610352</ele>
        <time>2024-04-14T10:54:21.000Z</time>
      </trkpt>
      <trkpt lat="48.38608" lon="2.4659">
        <ele>138.19999694824</ele>
        <time>2024-04-14T10:54:22.000Z</time>
      </trkpt>
      <trkpt lat="48.38617" lon="2.4661">
        <ele>137.80000305176</ele>
        <time>2024-04-14T10:54:27.000Z</time>
      </trkpt>
      <trkpt lat="48.3862" lon="2.46613">
        <ele>137.60000610352</ele>
        <time>2024-04-14T10:54:28.000Z</time>
      </trkpt>
      <trkpt lat="48.38626" lon="2.46629">
        <ele>136.19999694824</ele>
        <time>2024-04-14T10:54:31.000Z</time>
      </trkpt>
      <trkpt lat="48.38627" lon="2.46636">
        <ele>135.19999694824</ele>
        <time>2024-04-14T10:54:32.000Z</time>
      </trkpt>
      <trkpt lat="48.38628" lon="2.46643">
        <ele>134</ele>
        <time>2024-04-14T10:54:33.000Z</time>
      </trkpt>
      <trkpt lat="48.38626" lon="2.46656">
        <ele>132.60000610352</ele>
        <time>2024-04-14T10:54:35.000Z</time>
      </trkpt>
      <trkpt lat="48.38625" lon="2.46662">
        <ele>131.19999694824</ele>
        <time>2024-04-14T10:54:36.000Z</time>
      </trkpt>
      <trkpt lat="48.38624" lon="2.46668">
        <ele>130</ele>
        <time>2024-04-14T10:54:37.000Z</time>
      </trkpt>
      <trkpt lat="48.38621" lon="2.46678">
        <ele>128</ele>
        <time>2024-04-14T10:54:38.000Z</time>
      </trkpt>
      <trkpt lat="48.38619" lon="2.46686">
        <ele>126</ele>
        <time>2024-04-14T10:54:39.000Z</time>
      </trkpt>
      <trkpt lat="48.38617" lon="2.46693">
        <ele>122</ele>
        <time>2024-04-14T10:54:40.000Z</time>
      </trkpt>
      <trkpt lat="48.38614" lon="2.46701">
        <ele>120.19999694824</ele>
        <time>2024-04-14T10:54:41.000Z</time>
      </trkpt>
      <trkpt lat="48.38611" lon="2.46709">
        <ele>118.40000152588</ele>
        <time>2024-04-14T10:54:42.000Z</time>
      </trkpt>
      <trkpt lat="48.38606" lon="2.46716">
        <ele>116.80000305176</ele>
        <time>2024-04-14T10:54:43.000Z</time>
      </trkpt>
      <trkpt lat="48.38601" lon="2.46724">
        <ele>115</ele>
        <time>2024-04-14T10:54:44.000Z</time>
      </trkpt>
      <trkpt lat="48.38597" lon="2.46733">
        <ele>113.59999847412</ele>
        <time>2024-04-14T10:54:45.000Z</time>
      </trkpt>
      <trkpt lat="48.38594" lon="2.46744">
        <ele>112.19999694824</ele>
        <time>2024-04-14T10:54:46.000Z</time>
      </trkpt>
      <trkpt lat="48.38592" lon="2.46757">
        <ele>110.80000305176</ele>
        <time>2024-04-14T10:54:47.000Z</time>
      </trkpt>
      <trkpt lat="48.38591" lon="2.46772">
        <ele>109.40000152588</ele>
        <time>2024-04-14T10:54:48.000Z</time>
      </trkpt>
      <trkpt lat="48.38589" lon="2.46789">
        <ele>108</ele>
        <time>2024-04-14T10:54:49.000Z</time>
      </trkpt>
      <trkpt lat="48.38588" lon="2.46805">
        <ele>107</ele>
        <time>2024-04-14T10:54:50.000Z</time>
      </trkpt>
      <trkpt lat="48.38586" lon="2.46821">
        <ele>105.80000305176</ele>
        <time>2024-04-14T10:54:51.000Z</time>
      </trkpt>
      <trkpt lat="48.38588" lon="2.46841">
        <ele>104.80000305176</ele>
        <time>2024-04-14T10:54:52.000Z</time>
      </trkpt>
      <trkpt lat="48.38591" lon="2.4686">
        <ele>104</ele>
        <time>2024-04-14T10:54:53.000Z</time>
      </trkpt>
      <trkpt lat="48.38597" lon="2.46897">
        <ele>102.59999847412</ele>
        <time>2024-04-14T10:54:55.000Z</time>
      </trkpt>
      <trkpt lat="48.38606" lon="2.46931">
        <ele>100.59999847412</ele>
        <time>2024-04-14T10:54:57.000Z</time>
      </trkpt>
      <trkpt lat="48.38611" lon="2.46946">
        <ele>99.400001525879</ele>
        <time>2024-04-14T10:54:58.000Z</time>
      </trkpt>
      <trkpt lat="48.38616" lon="2.4696">
        <ele>98.199996948242</ele>
        <time>2024-04-14T10:54:59.000Z</time>
      </trkpt>
      <trkpt lat="48.38622" lon="2.46973">
        <ele>97.400001525879</ele>
        <time>2024-04-14T10:55:00.000Z</time>
      </trkpt>
      <trkpt lat="48.38627" lon="2.46984">
        <ele>97.199996948242</ele>
        <time>2024-04-14T10:55:01.000Z</time>
      </trkpt>
      <trkpt lat="48.38639" lon="2.47009">
        <ele>96.400001525879</ele>
        <time>2024-04-14T10:55:04.000Z</time>
      </trkpt>
      <trkpt lat="48.38641" lon="2.47025">
        <ele>96.599998474121</ele>
        <time>2024-04-14T10:55:07.000Z</time>
      </trkpt>
      <trkpt lat="48.38634" lon="2.47022">
        <ele>96.400001525879</ele>
        <time>2024-04-14T10:55:09.000Z</time>
      </trkpt>
      <trkpt lat="48.38629" lon="2.47019">
        <ele>96.800003051758</ele>
        <time>2024-04-14T10:55:10.000Z</time>
      </trkpt>
      <trkpt lat="48.38604" lon="2.47007">
        <ele>98.400001525879</ele>
        <time>2024-04-14T10:55:15.000Z</time>
      </trkpt>
      <trkpt lat="48.38594" lon="2.46997">
        <ele>99.199996948242</ele>
        <time>2024-04-14T10:55:18.000Z</time>
      </trkpt>
      <trkpt lat="48.38592" lon="2.46993">
        <ele>99.599998474121</ele>
        <time>2024-04-14T10:55:19.000Z</time>
      </trkpt>
      <trkpt lat="48.38586" lon="2.46983">
        <ele>101</ele>
        <time>2024-04-14T10:55:22.000Z</time>
      </trkpt>
      <trkpt lat="48.3858" lon="2.46978">
        <ele>101.59999847412</ele>
        <time>2024-04-14T10:55:24.000Z</time>
      </trkpt>
      <trkpt lat="48.38575" lon="2.46972">
        <ele>102.19999694824</ele>
        <time>2024-04-14T10:55:26.000Z</time>
      </trkpt>
      <trkpt lat="48.38569" lon="2.46962">
        <ele>103.40000152588</ele>
        <time>2024-04-14T10:55:29.000Z</time>
      </trkpt>
      <trkpt lat="48.38567" lon="2.46959">
        <ele>104</ele>
        <time>2024-04-14T10:55:30.000Z</time>
      </trkpt>
      <trkpt lat="48.38563" lon="2.46957">
        <ele>104.80000305176</ele>
        <time>2024-04-14T10:55:32.000Z</time>
      </trkpt>
      <trkpt lat="48.38558" lon="2.46957">
        <ele>106</ele>
        <time>2024-04-14T10:55:35.000Z</time>
      </trkpt>
      <trkpt lat="48.38549" lon="2.4696">
        <ele>107</ele>
        <time>2024-04-14T10:55:40.000Z</time>
      </trkpt>
      <trkpt lat="48.38544" lon="2.46962">
        <ele>108</ele>
        <time>2024-04-14T10:55:42.000Z</time>
      </trkpt>
      <trkpt lat="48.38542" lon="2.46963">
        <ele>108.40000152588</ele>
        <time>2024-04-14T10:55:43.000Z</time>
      </trkpt>
      <trkpt lat="48.38538" lon="2.46967">
        <ele>109.40000152588</ele>
        <time>2024-04-14T10:55:46.000Z</time>
      </trkpt>
      <trkpt lat="48.38534" lon="2.46968">
        <ele>109.80000305176</ele>
        <time>2024-04-14T10:55:48.000Z</time>
      </trkpt>
      <trkpt lat="48.38528" lon="2.46972">
        <ele>110.40000152588</ele>
        <time>2024-04-14T10:55:51.000Z</time>
      </trkpt>
      <trkpt lat="48.38518" lon="2.46973">
        <ele>111.19999694824</ele>
        <time>2024-04-14T10:55:55.000Z</time>
      </trkpt>
      <trkpt lat="48.38514" lon="2.46974">
        <ele>111.59999847412</ele>
        <time>2024-04-14T10:55:57.000Z</time>
      </trkpt>
      <trkpt lat="48.38512" lon="2.4698">
        <ele>111</ele>
        <time>2024-04-14T10:56:00.000Z</time>
      </trkpt>
      <trkpt lat="48.38512" lon="2.46983">
        <ele>110.19999694824</ele>
        <time>2024-04-14T10:56:01.000Z</time>
      </trkpt>
      <trkpt lat="48.38512" lon="2.46999">
        <ele>108.59999847412</ele>
        <time>2024-04-14T10:56:04.000Z</time>
      </trkpt>
      <trkpt lat="48.38511" lon="2.47007">
        <ele>108</ele>
        <time>2024-04-14T10:56:05.000Z</time>
      </trkpt>
      <trkpt lat="48.38511" lon="2.47014">
        <ele>107.19999694824</ele>
        <time>2024-04-14T10:56:06.000Z</time>
      </trkpt>
      <trkpt lat="48.38508" lon="2.47039">
        <ele>106.19999694824</ele>
        <time>2024-04-14T10:56:09.000Z</time>
      </trkpt>
      <trkpt lat="48.38506" lon="2.47048">
        <ele>106</ele>
        <time>2024-04-14T10:56:10.000Z</time>
      </trkpt>
      <trkpt lat="48.38499" lon="2.47075">
        <ele>105.40000152588</ele>
        <time>2024-04-14T10:56:14.000Z</time>
      </trkpt>
      <trkpt lat="48.38492" lon="2.47084">
        <ele>105.59999847412</ele>
        <time>2024-04-14T10:56:17.000Z</time>
      </trkpt>
      <trkpt lat="48.38489" lon="2.47085">
        <ele>105.80000305176</ele>
        <time>2024-04-14T10:56:18.000Z</time>
      </trkpt>
      <trkpt lat="48.3848" lon="2.47092">
        <ele>106.80000305176</ele>
        <time>2024-04-14T10:56:22.000Z</time>
      </trkpt>
      <trkpt lat="48.38477" lon="2.47095">
        <ele>106.59999847412</ele>
        <time>2024-04-14T10:56:24.000Z</time>
      </trkpt>
      <trkpt lat="48.38475" lon="2.47101">
        <ele>106.40000152588</ele>
        <time>2024-04-14T10:56:26.000Z</time>
      </trkpt>
      <trkpt lat="48.38474" lon="2.4711">
        <ele>106</ele>
        <time>2024-04-14T10:56:28.000Z</time>
      </trkpt>
      <trkpt lat="48.38472" lon="2.47124">
        <ele>105</ele>
        <time>2024-04-14T10:56:31.000Z</time>
      </trkpt>
      <trkpt lat="48.38473" lon="2.47125">
        <ele>105</ele>
        <time>2024-04-14T10:56:32.000Z</time>
      </trkpt>
      <trkpt lat="48.38474" lon="2.47127">
        <ele>104.80000305176</ele>
        <time>2024-04-14T10:56:33.000Z</time>
      </trkpt>
      <trkpt lat="48.38477" lon="2.4713">
        <ele>105</ele>
        <time>2024-04-14T10:56:35.000Z</time>
      </trkpt>
      <trkpt lat="48.38478" lon="2.47144">
        <ele>104</ele>
        <time>2024-04-14T10:56:40.000Z</time>
      </trkpt>
      <trkpt lat="48.38478" lon="2.47166">
        <ele>102.80000305176</ele>
        <time>2024-04-14T10:56:45.000Z</time>
      </trkpt>
      <trkpt lat="48.38477" lon="2.47173">
        <ele>102.59999847412</ele>
        <time>2024-04-14T10:56:46.000Z</time>
      </trkpt>
      <trkpt lat="48.38475" lon="2.47189">
        <ele>101.59999847412</ele>
        <time>2024-04-14T10:56:50.000Z</time>
      </trkpt>
      <trkpt lat="48.38474" lon="2.47194">
        <ele>101.19999694824</ele>
        <time>2024-04-14T10:56:51.000Z</time>
      </trkpt>
      <trkpt lat="48.38473" lon="2.47196">
        <ele>100.59999847412</ele>
        <time>2024-04-14T10:56:52.000Z</time>
      </trkpt>
      <trkpt lat="48.38471" lon="2.47197">
        <ele>100.19999694824</ele>
        <time>2024-04-14T10:56:53.000Z</time>
      </trkpt>
      <trkpt lat="48.38465" lon="2.47194">
        <ele>99.800003051758</ele>
        <time>2024-04-14T10:56:56.000Z</time>
      </trkpt>
      <trkpt lat="48.38456" lon="2.47188">
        <ele>100.19999694824</ele>
        <time>2024-04-14T10:57:01.000Z</time>
      </trkpt>
      <trkpt lat="48.38446" lon="2.47175">
        <ele>101</ele>
        <time>2024-04-14T10:57:06.000Z</time>
      </trkpt>
      <trkpt lat="48.38444" lon="2.47173">
        <ele>101.40000152588</ele>
        <time>2024-04-14T10:57:07.000Z</time>
      </trkpt>
      <trkpt lat="48.38434" lon="2.47164">
        <ele>101.59999847412</ele>
        <time>2024-04-14T10:57:12.000Z</time>
      </trkpt>
      <trkpt lat="48.38428" lon="2.47152">
        <ele>102.59999847412</ele>
        <time>2024-04-14T10:57:16.000Z</time>
      </trkpt>
      <trkpt lat="48.38427" lon="2.47148">
        <ele>103</ele>
        <time>2024-04-14T10:57:17.000Z</time>
      </trkpt>
      <trkpt lat="48.38424" lon="2.47142">
        <ele>103.59999847412</ele>
        <time>2024-04-14T10:57:19.000Z</time>
      </trkpt>
      <trkpt lat="48.38421" lon="2.47129">
        <ele>104.59999847412</ele>
        <time>2024-04-14T10:57:24.000Z</time>
      </trkpt>
      <trkpt lat="48.38421" lon="2.47125">
        <ele>105</ele>
        <time>2024-04-14T10:57:25.000Z</time>
      </trkpt>
      <trkpt lat="48.38421" lon="2.47121">
        <ele>106.19999694824</ele>
        <time>2024-04-14T10:57:28.000Z</time>
      </trkpt>
      <trkpt lat="48.38422" lon="2.4712">
        <ele>106.40000152588</ele>
        <time>2024-04-14T10:57:29.000Z</time>
      </trkpt>
      <trkpt lat="48.38427" lon="2.47119">
        <ele>106.40000152588</ele>
        <time>2024-04-14T10:57:32.000Z</time>
      </trkpt>
      <trkpt lat="48.3843" lon="2.47115">
        <ele>107</ele>
        <time>2024-04-14T10:57:34.000Z</time>
      </trkpt>
      <trkpt lat="48.38431" lon="2.47114">
        <ele>107.19999694824</ele>
        <time>2024-04-14T10:57:35.000Z</time>
      </trkpt>
      <trkpt lat="48.38436" lon="2.47107">
        <ele>108</ele>
        <time>2024-04-14T10:57:38.000Z</time>
      </trkpt>
      <trkpt lat="48.38436" lon="2.47104">
        <ele>108.19999694824</ele>
        <time>2024-04-14T10:57:39.000Z</time>
      </trkpt>
      <trkpt lat="48.38436" lon="2.47101">
        <ele>108.40000152588</ele>
        <time>2024-04-14T10:57:40.000Z</time>
      </trkpt>
      <trkpt lat="48.38437" lon="2.47096">
        <ele>109</ele>
        <time>2024-04-14T10:57:42.000Z</time>
      </trkpt>
      <trkpt lat="48.3844" lon="2.47087">
        <ele>109.59999847412</ele>
        <time>2024-04-14T10:57:45.000Z</time>
      </trkpt>
      <trkpt lat="48.38449" lon="2.47078">
        <ele>109.80000305176</ele>
        <time>2024-04-14T10:57:50.000Z</time>
      </trkpt>
      <trkpt lat="48.3846" lon="2.47073">
        <ele>109.80000305176</ele>
        <time>2024-04-14T10:57:55.000Z</time>
      </trkpt>
      <trkpt lat="48.38467" lon="2.47063">
        <ele>109</ele>
        <time>2024-04-14T10:57:59.000Z</time>
      </trkpt>
      <trkpt lat="48.38468" lon="2.47059">
        <ele>108.80000305176</ele>
        <time>2024-04-14T10:58:00.000Z</time>
      </trkpt>
      <trkpt lat="48.38469" lon="2.47048">
        <ele>109.40000152588</ele>
        <time>2024-04-14T10:58:03.000Z</time>
      </trkpt>
      <trkpt lat="48.38468" lon="2.47017">
        <ele>110.19999694824</ele>
        <time>2024-04-14T10:58:11.000Z</time>
      </trkpt>
      <trkpt lat="48.38468" lon="2.47013">
        <ele>110.59999847412</ele>
        <time>2024-04-14T10:58:12.000Z</time>
      </trkpt>
      <trkpt lat="48.38465" lon="2.46989">
        <ele>111.59999847412</ele>
        <time>2024-04-14T10:58:17.000Z</time>
      </trkpt>
      <trkpt lat="48.38466" lon="2.46962">
        <ele>112.40000152588</ele>
        <time>2024-04-14T10:58:23.000Z</time>
      </trkpt>
      <trkpt lat="48.38467" lon="2.46953">
        <ele>112.80000305176</ele>
        <time>2024-04-14T10:58:25.000Z</time>
      </trkpt>
      <trkpt lat="48.38466" lon="2.46939">
        <ele>113.19999694824</ele>
        <time>2024-04-14T10:58:28.000Z</time>
      </trkpt>
      <trkpt lat="48.38468" lon="2.46933">
        <ele>113.59999847412</ele>
        <time>2024-04-14T10:58:30.000Z</time>
      </trkpt>
      <trkpt lat="48.3847" lon="2.46932">
        <ele>114</ele>
        <time>2024-04-14T10:58:31.000Z</time>
      </trkpt>
      <trkpt lat="48.38472" lon="2.46931">
        <ele>114.19999694824</ele>
        <time>2024-04-14T10:58:32.000Z</time>
      </trkpt>
      <trkpt lat="48.38478" lon="2.46939">
        <ele>114.59999847412</ele>
        <time>2024-04-14T10:58:35.000Z</time>
      </trkpt>
      <trkpt lat="48.38488" lon="2.46939">
        <ele>114.80000305176</ele>
        <time>2024-04-14T10:58:39.000Z</time>
      </trkpt>
      <trkpt lat="48.38491" lon="2.46936">
        <ele>115</ele>
        <time>2024-04-14T10:58:40.000Z</time>
      </trkpt>
      <trkpt lat="48.38494" lon="2.46933">
        <ele>115</ele>
        <time>2024-04-14T10:58:41.000Z</time>
      </trkpt>
      <trkpt lat="48.38508" lon="2.46919">
        <ele>115.40000152588</ele>
        <time>2024-04-14T10:58:46.000Z</time>
      </trkpt>
      <trkpt lat="48.38515" lon="2.46899">
        <ele>115.19999694824</ele>
        <time>2024-04-14T10:58:50.000Z</time>
      </trkpt>
      <trkpt lat="48.3852" lon="2.46883">
        <ele>113.59999847412</ele>
        <time>2024-04-14T10:58:53.000Z</time>
      </trkpt>
      <trkpt lat="48.38523" lon="2.46879">
        <ele>113.40000152588</ele>
        <time>2024-04-14T10:58:54.000Z</time>
      </trkpt>
      <trkpt lat="48.38525" lon="2.4687">
        <ele>112.59999847412</ele>
        <time>2024-04-14T10:58:56.000Z</time>
      </trkpt>
      <trkpt lat="48.38524" lon="2.46864">
        <ele>112.19999694824</ele>
        <time>2024-04-14T10:58:57.000Z</time>
      </trkpt>
      <trkpt lat="48.38522" lon="2.46846">
        <ele>112</ele>
        <time>2024-04-14T10:59:02.000Z</time>
      </trkpt>
      <trkpt lat="48.38523" lon="2.46835">
        <ele>110.80000305176</ele>
        <time>2024-04-14T10:59:06.000Z</time>
      </trkpt>
      <trkpt lat="48.38522" lon="2.46826">
        <ele>110.19999694824</ele>
        <time>2024-04-14T10:59:08.000Z</time>
      </trkpt>
      <trkpt lat="48.38519" lon="2.46818">
        <ele>110.59999847412</ele>
        <time>2024-04-14T10:59:10.000Z</time>
      </trkpt>
      <trkpt lat="48.38511" lon="2.46812">
        <ele>111.80000305176</ele>
        <time>2024-04-14T10:59:13.000Z</time>
      </trkpt>
      <trkpt lat="48.38509" lon="2.46811">
        <ele>112.19999694824</ele>
        <time>2024-04-14T10:59:14.000Z</time>
      </trkpt>
      <trkpt lat="48.3851" lon="2.46804">
        <ele>112.80000305176</ele>
        <time>2024-04-14T10:59:17.000Z</time>
      </trkpt>
      <trkpt lat="48.3852" lon="2.46781">
        <ele>112.80000305176</ele>
        <time>2024-04-14T10:59:23.000Z</time>
      </trkpt>
      <trkpt lat="48.38525" lon="2.46774">
        <ele>113.59999847412</ele>
        <time>2024-04-14T10:59:25.000Z</time>
      </trkpt>
      <trkpt lat="48.38531" lon="2.46768">
        <ele>114.19999694824</ele>
        <time>2024-04-14T10:59:28.000Z</time>
      </trkpt>
      <trkpt lat="48.38535" lon="2.46759">
        <ele>114.80000305176</ele>
        <time>2024-04-14T10:59:31.000Z</time>
      </trkpt>
      <trkpt lat="48.38538" lon="2.46755">
        <ele>115.19999694824</ele>
        <time>2024-04-14T10:59:33.000Z</time>
      </trkpt>
      <trkpt lat="48.38542" lon="2.46756">
        <ele>114.40000152588</ele>
        <time>2024-04-14T10:59:35.000Z</time>
      </trkpt>
      <trkpt lat="48.38544" lon="2.46755">
        <ele>113.40000152588</ele>
        <time>2024-04-14T10:59:36.000Z</time>
      </trkpt>
      <trkpt lat="48.38546" lon="2.46754">
        <ele>113</ele>
        <time>2024-04-14T10:59:37.000Z</time>
      </trkpt>
      <trkpt lat="48.38554" lon="2.46745">
        <ele>113.80000305176</ele>
        <time>2024-04-14T10:59:40.000Z</time>
      </trkpt>
      <trkpt lat="48.38557" lon="2.46739">
        <ele>114.59999847412</ele>
        <time>2024-04-14T10:59:42.000Z</time>
      </trkpt>
      <trkpt lat="48.3856" lon="2.46731">
        <ele>116</ele>
        <time>2024-04-14T10:59:46.000Z</time>
      </trkpt>
      <trkpt lat="48.38561" lon="2.46726">
        <ele>117.19999694824</ele>
        <time>2024-04-14T10:59:49.000Z</time>
      </trkpt>
      <trkpt lat="48.38562" lon="2.46721">
        <ele>117.80000305176</ele>
        <time>2024-04-14T10:59:50.000Z</time>
      </trkpt>
      <trkpt lat="48.38563" lon="2.46718">
        <ele>118.19999694824</ele>
        <time>2024-04-14T10:59:51.000Z</time>
      </trkpt>
      <trkpt lat="48.38567" lon="2.46714">
        <ele>119</ele>
        <time>2024-04-14T10:59:55.000Z</time>
      </trkpt>
      <trkpt lat="48.38568" lon="2.46712">
        <ele>118.80000305176</ele>
        <time>2024-04-14T10:59:56.000Z</time>
      </trkpt>
      <trkpt lat="48.38571" lon="2.46708">
        <ele>119.19999694824</ele>
        <time>2024-04-14T10:59:58.000Z</time>
      </trkpt>
      <trkpt lat="48.38573" lon="2.46706">
        <ele>119.80000305176</ele>
        <time>2024-04-14T11:00:01.000Z</time>
      </trkpt>
      <trkpt lat="48.3858" lon="2.46699">
        <ele>120.40000152588</ele>
        <time>2024-04-14T11:00:04.000Z</time>
      </trkpt>
      <trkpt lat="48.38586" lon="2.46693">
        <ele>121.59999847412</ele>
        <time>2024-04-14T11:00:08.000Z</time>
      </trkpt>
      <trkpt lat="48.38587" lon="2.46692">
        <ele>121.80000305176</ele>
        <time>2024-04-14T11:00:09.000Z</time>
      </trkpt>
      <trkpt lat="48.38589" lon="2.4669">
        <ele>122.80000305176</ele>
        <time>2024-04-14T11:00:12.000Z</time>
      </trkpt>
      <trkpt lat="48.38593" lon="2.46682">
        <ele>124.19999694824</ele>
        <time>2024-04-14T11:00:15.000Z</time>
      </trkpt>
      <trkpt lat="48.38592" lon="2.46678">
        <ele>124.80000305176</ele>
        <time>2024-04-14T11:00:17.000Z</time>
      </trkpt>
      <trkpt lat="48.38592" lon="2.46677">
        <ele>125.59999847412</ele>
        <time>2024-04-14T11:00:18.000Z</time>
      </trkpt>
      <trkpt lat="48.38586" lon="2.46672">
        <ele>126.59999847412</ele>
        <time>2024-04-14T11:00:24.000Z</time>
      </trkpt>
      <trkpt lat="48.38583" lon="2.46672">
        <ele>126.59999847412</ele>
        <time>2024-04-14T11:00:26.000Z</time>
      </trkpt>
      <trkpt lat="48.38581" lon="2.46671">
        <ele>126.59999847412</ele>
        <time>2024-04-14T11:00:27.000Z</time>
      </trkpt>
      <trkpt lat="48.38575" lon="2.46672">
        <ele>127.80000305176</ele>
        <time>2024-04-14T11:00:32.000Z</time>
      </trkpt>
      <trkpt lat="48.38573" lon="2.46674">
        <ele>127.59999847412</ele>
        <time>2024-04-14T11:00:33.000Z</time>
      </trkpt>
      <trkpt lat="48.38572" lon="2.46676">
        <ele>127.40000152588</ele>
        <time>2024-04-14T11:00:34.000Z</time>
      </trkpt>
      <trkpt lat="48.38572" lon="2.46678">
        <ele>126.80000305176</ele>
        <time>2024-04-14T11:00:35.000Z</time>
      </trkpt>
      <trkpt lat="48.38571" lon="2.46684">
        <ele>124.40000152588</ele>
        <time>2024-04-14T11:00:37.000Z</time>
      </trkpt>
      <trkpt lat="48.38569" lon="2.46688">
        <ele>123.40000152588</ele>
        <time>2024-04-14T11:00:38.000Z</time>
      </trkpt>
      <trkpt lat="48.38567" lon="2.46693">
        <ele>122.40000152588</ele>
        <time>2024-04-14T11:00:39.000Z</time>
      </trkpt>
      <trkpt lat="48.38564" lon="2.46698">
        <ele>121.59999847412</ele>
        <time>2024-04-14T11:00:40.000Z</time>
      </trkpt>
      <trkpt lat="48.38557" lon="2.4671">
        <ele>119.59999847412</ele>
        <time>2024-04-14T11:00:42.000Z</time>
      </trkpt>
      <trkpt lat="48.38545" lon="2.46723">
        <ele>119.19999694824</ele>
        <time>2024-04-14T11:00:46.000Z</time>
      </trkpt>
      <trkpt lat="48.38535" lon="2.4674">
        <ele>119.40000152588</ele>
        <time>2024-04-14T11:00:51.000Z</time>
      </trkpt>
      <trkpt lat="48.38524" lon="2.46748">
        <ele>119.40000152588</ele>
        <time>2024-04-14T11:00:56.000Z</time>
      </trkpt>
      <trkpt lat="48.38518" lon="2.46749">
        <ele>120.19999694824</ele>
        <time>2024-04-14T11:01:02.000Z</time>
      </trkpt>
      <trkpt lat="48.38516" lon="2.46746">
        <ele>121</ele>
        <time>2024-04-14T11:01:04.000Z</time>
      </trkpt>
      <trkpt lat="48.38512" lon="2.46744">
        <ele>122.40000152588</ele>
        <time>2024-04-14T11:01:06.000Z</time>
      </trkpt>
      <trkpt lat="48.38507" lon="2.46745">
        <ele>122.80000305176</ele>
        <time>2024-04-14T11:01:09.000Z</time>
      </trkpt>
      <trkpt lat="48.38502" lon="2.46748">
        <ele>123</ele>
        <time>2024-04-14T11:01:12.000Z</time>
      </trkpt>
      <trkpt lat="48.38496" lon="2.46754">
        <ele>123.19999694824</ele>
        <time>2024-04-14T11:01:15.000Z</time>
      </trkpt>
      <trkpt lat="48.38494" lon="2.46755">
        <ele>123.40000152588</ele>
        <time>2024-04-14T11:01:16.000Z</time>
      </trkpt>
      <trkpt lat="48.38492" lon="2.46755">
        <ele>123.80000305176</ele>
        <time>2024-04-14T11:01:17.000Z</time>
      </trkpt>
      <trkpt lat="48.38491" lon="2.46755">
        <ele>124.80000305176</ele>
        <time>2024-04-14T11:01:19.000Z</time>
      </trkpt>
      <trkpt lat="48.38489" lon="2.46755">
        <ele>125</ele>
        <time>2024-04-14T11:01:20.000Z</time>
      </trkpt>
      <trkpt lat="48.3849" lon="2.46745">
        <ele>125.80000305176</ele>
        <time>2024-04-14T11:01:25.000Z</time>
      </trkpt>
      <trkpt lat="48.38491" lon="2.46743">
        <ele>126.19999694824</ele>
        <time>2024-04-14T11:01:26.000Z</time>
      </trkpt>
      <trkpt lat="48.38491" lon="2.46735">
        <ele>127.40000152588</ele>
        <time>2024-04-14T11:01:30.000Z</time>
      </trkpt>
      <trkpt lat="48.38489" lon="2.46733">
        <ele>127.59999847412</ele>
        <time>2024-04-14T11:01:32.000Z</time>
      </trkpt>
      <trkpt lat="48.38487" lon="2.46731">
        <ele>128.39999389648</ele>
        <time>2024-04-14T11:01:34.000Z</time>
      </trkpt>
      <trkpt lat="48.3848" lon="2.4673">
        <ele>128.80000305176</ele>
        <time>2024-04-14T11:01:40.000Z</time>
      </trkpt>
      <trkpt lat="48.38473" lon="2.46738">
        <ele>128.39999389648</ele>
        <time>2024-04-14T11:01:47.000Z</time>
      </trkpt>
      <trkpt lat="48.38473" lon="2.4674">
        <ele>128.19999694824</ele>
        <time>2024-04-14T11:01:48.000Z</time>
      </trkpt>
      <trkpt lat="48.38473" lon="2.4675">
        <ele>127</ele>
        <time>2024-04-14T11:01:51.000Z</time>
      </trkpt>
      <trkpt lat="48.38471" lon="2.46763">
        <ele>125.80000305176</ele>
        <time>2024-04-14T11:01:54.000Z</time>
      </trkpt>
      <trkpt lat="48.3847" lon="2.46767">
        <ele>125.40000152588</ele>
        <time>2024-04-14T11:01:55.000Z</time>
      </trkpt>
      <trkpt lat="48.38468" lon="2.46774">
        <ele>124.40000152588</ele>
        <time>2024-04-14T11:01:57.000Z</time>
      </trkpt>
      <trkpt lat="48.38464" lon="2.46774">
        <ele>124.19999694824</ele>
        <time>2024-04-14T11:02:00.000Z</time>
      </trkpt>
      <trkpt lat="48.38461" lon="2.46773">
        <ele>124</ele>
        <time>2024-04-14T11:02:02.000Z</time>
      </trkpt>
      <trkpt lat="48.38448" lon="2.4677">
        <ele>124.19999694824</ele>
        <time>2024-04-14T11:02:07.000Z</time>
      </trkpt>
      <trkpt lat="48.38443" lon="2.46777">
        <ele>123.40000152588</ele>
        <time>2024-04-14T11:02:09.000Z</time>
      </trkpt>
      <trkpt lat="48.38441" lon="2.46785">
        <ele>122.19999694824</ele>
        <time>2024-04-14T11:02:11.000Z</time>
      </trkpt>
      <trkpt lat="48.38436" lon="2.46791">
        <ele>121</ele>
        <time>2024-04-14T11:02:13.000Z</time>
      </trkpt>
      <trkpt lat="48.38431" lon="2.46794">
        <ele>120.80000305176</ele>
        <time>2024-04-14T11:02:14.000Z</time>
      </trkpt>
      <trkpt lat="48.38427" lon="2.46796">
        <ele>120.19999694824</ele>
        <time>2024-04-14T11:02:15.000Z</time>
      </trkpt>
      <trkpt lat="48.38421" lon="2.46801">
        <ele>119.80000305176</ele>
        <time>2024-04-14T11:02:16.000Z</time>
      </trkpt>
      <trkpt lat="48.3841" lon="2.46802">
        <ele>118.80000305176</ele>
        <time>2024-04-14T11:02:18.000Z</time>
      </trkpt>
      <trkpt lat="48.38406" lon="2.46799">
        <ele>118.80000305176</ele>
        <time>2024-04-14T11:02:19.000Z</time>
      </trkpt>
      <trkpt lat="48.38387" lon="2.46791">
        <ele>118.80000305176</ele>
        <time>2024-04-14T11:02:25.000Z</time>
      </trkpt>
      <trkpt lat="48.38372" lon="2.46795">
        <ele>117.59999847412</ele>
        <time>2024-04-14T11:02:29.000Z</time>
      </trkpt>
      <trkpt lat="48.38371" lon="2.46797">
        <ele>116.80000305176</ele>
        <time>2024-04-14T11:02:34.000Z</time>
      </trkpt>
      <trkpt lat="48.38364" lon="2.468">
        <ele>116.59999847412</ele>
        <time>2024-04-14T11:02:40.000Z</time>
      </trkpt>
      <trkpt lat="48.3836" lon="2.46802">
        <ele>116.40000152588</ele>
        <time>2024-04-14T11:02:41.000Z</time>
      </trkpt>
      <trkpt lat="48.38356" lon="2.468">
        <ele>114.80000305176</ele>
        <time>2024-04-14T11:02:42.000Z</time>
      </trkpt>
      <trkpt lat="48.38352" lon="2.46797">
        <ele>114</ele>
        <time>2024-04-14T11:02:43.000Z</time>
      </trkpt>
      <trkpt lat="48.3835" lon="2.46794">
        <ele>113.40000152588</ele>
        <time>2024-04-14T11:02:44.000Z</time>
      </trkpt>
      <trkpt lat="48.38344" lon="2.46781">
        <ele>113.19999694824</ele>
        <time>2024-04-14T11:02:47.000Z</time>
      </trkpt>
      <trkpt lat="48.3834" lon="2.46772">
        <ele>113.40000152588</ele>
        <time>2024-04-14T11:02:49.000Z</time>
      </trkpt>
      <trkpt lat="48.38332" lon="2.46751">
        <ele>113.40000152588</ele>
        <time>2024-04-14T11:02:53.000Z</time>
      </trkpt>
      <trkpt lat="48.3833" lon="2.46728">
        <ele>114</ele>
        <time>2024-04-14T11:02:57.000Z</time>
      </trkpt>
      <trkpt lat="48.38329" lon="2.4672">
        <ele>114.59999847412</ele>
        <time>2024-04-14T11:02:59.000Z</time>
      </trkpt>
      <trkpt lat="48.38328" lon="2.46712">
        <ele>114.59999847412</ele>
        <time>2024-04-14T11:03:01.000Z</time>
      </trkpt>
      <trkpt lat="48.38329" lon="2.46709">
        <ele>114.80000305176</ele>
        <time>2024-04-14T11:03:02.000Z</time>
      </trkpt>
      <trkpt lat="48.38332" lon="2.46699">
        <ele>115.59999847412</ele>
        <time>2024-04-14T11:03:05.000Z</time>
      </trkpt>
      <trkpt lat="48.38335" lon="2.46695">
        <ele>117.19999694824</ele>
        <time>2024-04-14T11:03:07.000Z</time>
      </trkpt>
      <trkpt lat="48.3834" lon="2.46691">
        <ele>118.40000152588</ele>
        <time>2024-04-14T11:03:10.000Z</time>
      </trkpt>
      <trkpt lat="48.38344" lon="2.46687">
        <ele>119.40000152588</ele>
        <time>2024-04-14T11:03:13.000Z</time>
      </trkpt>
      <trkpt lat="48.38345" lon="2.46686">
        <ele>119.80000305176</ele>
        <time>2024-04-14T11:03:14.000Z</time>
      </trkpt>
      <trkpt lat="48.38349" lon="2.46681">
        <ele>120.80000305176</ele>
        <time>2024-04-14T11:03:17.000Z</time>
      </trkpt>
      <trkpt lat="48.3835" lon="2.46674">
        <ele>121.59999847412</ele>
        <time>2024-04-14T11:03:20.000Z</time>
      </trkpt>
      <trkpt lat="48.38348" lon="2.46672">
        <ele>121.80000305176</ele>
        <time>2024-04-14T11:03:21.000Z</time>
      </trkpt>
      <trkpt lat="48.3834" lon="2.46654">
        <ele>121.40000152588</ele>
        <time>2024-04-14T11:03:26.000Z</time>
      </trkpt>
      <trkpt lat="48.38338" lon="2.4665">
        <ele>122.19999694824</ele>
        <time>2024-04-14T11:03:28.000Z</time>
      </trkpt>
      <trkpt lat="48.38333" lon="2.46648">
        <ele>121.59999847412</ele>
        <time>2024-04-14T11:03:30.000Z</time>
      </trkpt>
      <trkpt lat="48.38327" lon="2.46649">
        <ele>120.59999847412</ele>
        <time>2024-04-14T11:03:32.000Z</time>
      </trkpt>
      <trkpt lat="48.3832" lon="2.46655">
        <ele>118.80000305176</ele>
        <time>2024-04-14T11:03:34.000Z</time>
      </trkpt>
      <trkpt lat="48.38314" lon="2.46656">
        <ele>117.59999847412</ele>
        <time>2024-04-14T11:03:36.000Z</time>
      </trkpt>
      <trkpt lat="48.38307" lon="2.46652">
        <ele>116.40000152588</ele>
        <time>2024-04-14T11:03:38.000Z</time>
      </trkpt>
      <trkpt lat="48.38302" lon="2.46649">
        <ele>115.80000305176</ele>
        <time>2024-04-14T11:03:39.000Z</time>
      </trkpt>
      <trkpt lat="48.38297" lon="2.46646">
        <ele>115.19999694824</ele>
        <time>2024-04-14T11:03:40.000Z</time>
      </trkpt>
      <trkpt lat="48.38291" lon="2.46645">
        <ele>114</ele>
        <time>2024-04-14T11:03:41.000Z</time>
      </trkpt>
      <trkpt lat="48.38285" lon="2.46646">
        <ele>112.80000305176</ele>
        <time>2024-04-14T11:03:42.000Z</time>
      </trkpt>
      <trkpt lat="48.38279" lon="2.46644">
        <ele>112</ele>
        <time>2024-04-14T11:03:43.000Z</time>
      </trkpt>
      <trkpt lat="48.38274" lon="2.46641">
        <ele>111.19999694824</ele>
        <time>2024-04-14T11:03:44.000Z</time>
      </trkpt>
      <trkpt lat="48.38271" lon="2.46638">
        <ele>111</ele>
        <time>2024-04-14T11:03:45.000Z</time>
      </trkpt>
      <trkpt lat="48.38269" lon="2.46635">
        <ele>110.80000305176</ele>
        <time>2024-04-14T11:03:46.000Z</time>
      </trkpt>
      <trkpt lat="48.38262" lon="2.46622">
        <ele>110.40000152588</ele>
        <time>2024-04-14T11:03:50.000Z</time>
      </trkpt>
      <trkpt lat="48.38259" lon="2.46618">
        <ele>110.19999694824</ele>
        <time>2024-04-14T11:03:51.000Z</time>
      </trkpt>
      <trkpt lat="48.38237" lon="2.46577">
        <ele>110.19999694824</ele>
        <time>2024-04-14T11:03:58.000Z</time>
      </trkpt>
      <trkpt lat="48.38239" lon="2.46562">
        <ele>111.40000152588</ele>
        <time>2024-04-14T11:04:01.000Z</time>
      </trkpt>
      <trkpt lat="48.38245" lon="2.46553">
        <ele>112.59999847412</ele>
        <time>2024-04-14T11:04:04.000Z</time>
      </trkpt>
      <trkpt lat="48.38248" lon="2.46551">
        <ele>113</ele>
        <time>2024-04-14T11:04:05.000Z</time>
      </trkpt>
      <trkpt lat="48.38251" lon="2.46546">
        <ele>113.80000305176</ele>
        <time>2024-04-14T11:04:07.000Z</time>
      </trkpt>
      <trkpt lat="48.38255" lon="2.46538">
        <ele>115.19999694824</ele>
        <time>2024-04-14T11:04:10.000Z</time>
      </trkpt>
      <trkpt lat="48.38256" lon="2.46536">
        <ele>115.80000305176</ele>
        <time>2024-04-14T11:04:11.000Z</time>
      </trkpt>
      <trkpt lat="48.38256" lon="2.46533">
        <ele>116.19999694824</ele>
        <time>2024-04-14T11:04:12.000Z</time>
      </trkpt>
      <trkpt lat="48.38259" lon="2.46526">
        <ele>117.40000152588</ele>
        <time>2024-04-14T11:04:15.000Z</time>
      </trkpt>
      <trkpt lat="48.3826" lon="2.46524">
        <ele>117.80000305176</ele>
        <time>2024-04-14T11:04:16.000Z</time>
      </trkpt>
      <trkpt lat="48.38261" lon="2.4652">
        <ele>118.80000305176</ele>
        <time>2024-04-14T11:04:18.000Z</time>
      </trkpt>
      <trkpt lat="48.38262" lon="2.46518">
        <ele>119.19999694824</ele>
        <time>2024-04-14T11:04:19.000Z</time>
      </trkpt>
      <trkpt lat="48.38262" lon="2.46511">
        <ele>119.80000305176</ele>
        <time>2024-04-14T11:04:22.000Z</time>
      </trkpt>
      <trkpt lat="48.38262" lon="2.46508">
        <ele>119.80000305176</ele>
        <time>2024-04-14T11:04:23.000Z</time>
      </trkpt>
      <trkpt lat="48.38257" lon="2.46491">
        <ele>118.80000305176</ele>
        <time>2024-04-14T11:04:27.000Z</time>
      </trkpt>
      <trkpt lat="48.38254" lon="2.46474">
        <ele>120</ele>
        <time>2024-04-14T11:04:31.000Z</time>
      </trkpt>
      <trkpt lat="48.38254" lon="2.46472">
        <ele>120.19999694824</ele>
        <time>2024-04-14T11:04:32.000Z</time>
      </trkpt>
      <trkpt lat="48.38255" lon="2.46466">
        <ele>121</ele>
        <time>2024-04-14T11:04:34.000Z</time>
      </trkpt>
      <trkpt lat="48.38256" lon="2.46462">
        <ele>121.40000152588</ele>
        <time>2024-04-14T11:04:36.000Z</time>
      </trkpt>
      <trkpt lat="48.38258" lon="2.46459">
        <ele>122.19999694824</ele>
        <time>2024-04-14T11:04:38.000Z</time>
      </trkpt>
      <trkpt lat="48.38261" lon="2.46454">
        <ele>123.19999694824</ele>
        <time>2024-04-14T11:04:41.000Z</time>
      </trkpt>
      <trkpt lat="48.38264" lon="2.46449">
        <ele>124.40000152588</ele>
        <time>2024-04-14T11:04:44.000Z</time>
      </trkpt>
      <trkpt lat="48.38267" lon="2.46441">
        <ele>125.80000305176</ele>
        <time>2024-04-14T11:04:49.000Z</time>
      </trkpt>
      <trkpt lat="48.38267" lon="2.4644">
        <ele>126.19999694824</ele>
        <time>2024-04-14T11:04:51.000Z</time>
      </trkpt>
      <trkpt lat="48.38269" lon="2.46435">
        <ele>126.80000305176</ele>
        <time>2024-04-14T11:04:53.000Z</time>
      </trkpt>
      <trkpt lat="48.38271" lon="2.46429">
        <ele>127.40000152588</ele>
        <time>2024-04-14T11:04:58.000Z</time>
      </trkpt>
      <trkpt lat="48.38273" lon="2.46428">
        <ele>127.80000305176</ele>
        <time>2024-04-14T11:05:00.000Z</time>
      </trkpt>
      <trkpt lat="48.38277" lon="2.4642">
        <ele>128.80000305176</ele>
        <time>2024-04-14T11:05:05.000Z</time>
      </trkpt>
      <trkpt lat="48.3828" lon="2.4641">
        <ele>130</ele>
        <time>2024-04-14T11:05:09.000Z</time>
      </trkpt>
      <trkpt lat="48.38283" lon="2.46404">
        <ele>130.80000305176</ele>
        <time>2024-04-14T11:05:12.000Z</time>
      </trkpt>
      <trkpt lat="48.38284" lon="2.46398">
        <ele>131.39999389648</ele>
        <time>2024-04-14T11:05:14.000Z</time>
      </trkpt>
      <trkpt lat="48.38283" lon="2.46388">
        <ele>131.60000610352</ele>
        <time>2024-04-14T11:05:17.000Z</time>
      </trkpt>
      <trkpt lat="48.38281" lon="2.46385">
        <ele>131.80000305176</ele>
        <time>2024-04-14T11:05:18.000Z</time>
      </trkpt>
      <trkpt lat="48.38269" lon="2.46376">
        <ele>132.19999694824</ele>
        <time>2024-04-14T11:05:23.000Z</time>
      </trkpt>
      <trkpt lat="48.38267" lon="2.46376">
        <ele>131.80000305176</ele>
        <time>2024-04-14T11:05:24.000Z</time>
      </trkpt>
      <trkpt lat="48.38259" lon="2.46364">
        <ele>132</ele>
        <time>2024-04-14T11:05:28.000Z</time>
      </trkpt>
      <trkpt lat="48.3826" lon="2.46356">
        <ele>133</ele>
        <time>2024-04-14T11:05:30.000Z</time>
      </trkpt>
      <trkpt lat="48.38263" lon="2.46346">
        <ele>133.80000305176</ele>
        <time>2024-04-14T11:05:33.000Z</time>
      </trkpt>
      <trkpt lat="48.38264" lon="2.46342">
        <ele>134.19999694824</ele>
        <time>2024-04-14T11:05:34.000Z</time>
      </trkpt>
      <trkpt lat="48.38269" lon="2.46328">
        <ele>135.39999389648</ele>
        <time>2024-04-14T11:05:37.000Z</time>
      </trkpt>
      <trkpt lat="48.38276" lon="2.46309">
        <ele>136.39999389648</ele>
        <time>2024-04-14T11:05:41.000Z</time>
      </trkpt>
      <trkpt lat="48.38278" lon="2.46306">
        <ele>136.80000305176</ele>
        <time>2024-04-14T11:05:42.000Z</time>
      </trkpt>
      <trkpt lat="48.38283" lon="2.46296">
        <ele>138</ele>
        <time>2024-04-14T11:05:45.000Z</time>
      </trkpt>
      <trkpt lat="48.38293" lon="2.46277">
        <ele>138.80000305176</ele>
        <time>2024-04-14T11:05:50.000Z</time>
      </trkpt>
      <trkpt lat="48.38295" lon="2.46274">
        <ele>139</ele>
        <time>2024-04-14T11:05:51.000Z</time>
      </trkpt>
      <trkpt lat="48.38306" lon="2.46246">
        <ele>139.80000305176</ele>
        <time>2024-04-14T11:05:58.000Z</time>
      </trkpt>
      <trkpt lat="48.38307" lon="2.46228">
        <ele>140</ele>
        <time>2024-04-14T11:06:02.000Z</time>
      </trkpt>
      <trkpt lat="48.38305" lon="2.46222">
        <ele>140</ele>
        <time>2024-04-14T11:06:03.000Z</time>
      </trkpt>
      <trkpt lat="48.38298" lon="2.46204">
        <ele>140</ele>
        <time>2024-04-14T11:06:06.000Z</time>
      </trkpt>
      <trkpt lat="48.38291" lon="2.46186">
        <ele>140</ele>
        <time>2024-04-14T11:06:09.000Z</time>
      </trkpt>
      <trkpt lat="48.38271" lon="2.46143">
        <ele>140.19999694824</ele>
        <time>2024-04-14T11:06:16.000Z</time>
      </trkpt>
      <trkpt lat="48.38237" lon="2.4608">
        <ele>139.80000305176</ele>
        <time>2024-04-14T11:06:26.000Z</time>
      </trkpt>
      <trkpt lat="48.38233" lon="2.46074">
        <ele>139.80000305176</ele>
        <time>2024-04-14T11:06:27.000Z</time>
      </trkpt>
      <trkpt lat="48.38205" lon="2.4602">
        <ele>139.80000305176</ele>
        <time>2024-04-14T11:06:36.000Z</time>
      </trkpt>
      <trkpt lat="48.38202" lon="2.46014">
        <ele>140</ele>
        <time>2024-04-14T11:06:37.000Z</time>
      </trkpt>
      <trkpt lat="48.38189" lon="2.45988">
        <ele>140.39999389648</ele>
        <time>2024-04-14T11:06:41.000Z</time>
      </trkpt>
      <trkpt lat="48.38177" lon="2.45969">
        <ele>141.19999694824</ele>
        <time>2024-04-14T11:06:44.000Z</time>
      </trkpt>
      <trkpt lat="48.38158" lon="2.45937">
        <ele>141.19999694824</ele>
        <time>2024-04-14T11:06:49.000Z</time>
      </trkpt>
      <trkpt lat="48.38128" lon="2.45897">
        <ele>141.19999694824</ele>
        <time>2024-04-14T11:06:56.000Z</time>
      </trkpt>
      <trkpt lat="48.38093" lon="2.45854">
        <ele>141.19999694824</ele>
        <time>2024-04-14T11:07:03.000Z</time>
      </trkpt>
      <trkpt lat="48.38053" lon="2.45803">
        <ele>140.19999694824</ele>
        <time>2024-04-14T11:07:11.000Z</time>
      </trkpt>
      <trkpt lat="48.38048" lon="2.45796">
        <ele>140</ele>
        <time>2024-04-14T11:07:12.000Z</time>
      </trkpt>
      <trkpt lat="48.38031" lon="2.45776">
        <ele>139</ele>
        <time>2024-04-14T11:07:15.000Z</time>
      </trkpt>
      <trkpt lat="48.37999" lon="2.45735">
        <ele>138.80000305176</ele>
        <time>2024-04-14T11:07:21.000Z</time>
      </trkpt>
      <trkpt lat="48.37969" lon="2.45695">
        <ele>138.39999389648</ele>
        <time>2024-04-14T11:07:27.000Z</time>
      </trkpt>
      <trkpt lat="48.3796" lon="2.45679">
        <ele>138</ele>
        <time>2024-04-14T11:07:29.000Z</time>
      </trkpt>
      <trkpt lat="48.37951" lon="2.45661">
        <ele>137.39999389648</ele>
        <time>2024-04-14T11:07:31.000Z</time>
      </trkpt>
      <trkpt lat="48.37943" lon="2.45643">
        <ele>137.19999694824</ele>
        <time>2024-04-14T11:07:33.000Z</time>
      </trkpt>
      <trkpt lat="48.37933" lon="2.45614">
        <ele>136.80000305176</ele>
        <time>2024-04-14T11:07:36.000Z</time>
      </trkpt>
      <trkpt lat="48.37917" lon="2.45579">
        <ele>136.80000305176</ele>
        <time>2024-04-14T11:07:40.000Z</time>
      </trkpt>
      <trkpt lat="48.37893" lon="2.45545">
        <ele>136.39999389648</ele>
        <time>2024-04-14T11:07:45.000Z</time>
      </trkpt>
      <trkpt lat="48.37857" lon="2.45494">
        <ele>138</ele>
        <time>2024-04-14T11:07:53.000Z</time>
      </trkpt>
      <trkpt lat="48.37853" lon="2.45488">
        <ele>137.60000610352</ele>
        <time>2024-04-14T11:07:54.000Z</time>
      </trkpt>
      <trkpt lat="48.37809" lon="2.45432">
        <ele>137.39999389648</ele>
        <time>2024-04-14T11:08:03.000Z</time>
      </trkpt>
      <trkpt lat="48.37787" lon="2.45411">
        <ele>137</ele>
        <time>2024-04-14T11:08:07.000Z</time>
      </trkpt>
      <trkpt lat="48.37763" lon="2.45397">
        <ele>136.80000305176</ele>
        <time>2024-04-14T11:08:11.000Z</time>
      </trkpt>
      <trkpt lat="48.37723" lon="2.45385">
        <ele>137.19999694824</ele>
        <time>2024-04-14T11:08:17.000Z</time>
      </trkpt>
      <trkpt lat="48.37681" lon="2.45368">
        <ele>136.60000610352</ele>
        <time>2024-04-14T11:08:23.000Z</time>
      </trkpt>
      <trkpt lat="48.37661" lon="2.45339">
        <ele>136.19999694824</ele>
        <time>2024-04-14T11:08:27.000Z</time>
      </trkpt>
      <trkpt lat="48.37657" lon="2.4533">
        <ele>136.19999694824</ele>
        <time>2024-04-14T11:08:28.000Z</time>
      </trkpt>
      <trkpt lat="48.37649" lon="2.45312">
        <ele>135.80000305176</ele>
        <time>2024-04-14T11:08:30.000Z</time>
      </trkpt>
      <trkpt lat="48.37627" lon="2.45266">
        <ele>135</ele>
        <time>2024-04-14T11:08:35.000Z</time>
      </trkpt>
      <trkpt lat="48.37617" lon="2.4525">
        <ele>135.39999389648</ele>
        <time>2024-04-14T11:08:37.000Z</time>
      </trkpt>
      <trkpt lat="48.37598" lon="2.45231">
        <ele>135.39999389648</ele>
        <time>2024-04-14T11:08:40.000Z</time>
      </trkpt>
      <trkpt lat="48.37553" lon="2.45195">
        <ele>135.80000305176</ele>
        <time>2024-04-14T11:08:47.000Z</time>
      </trkpt>
      <trkpt lat="48.37507" lon="2.4516">
        <ele>135</ele>
        <time>2024-04-14T11:08:55.000Z</time>
      </trkpt>
      <trkpt lat="48.37503" lon="2.45152">
        <ele>134.80000305176</ele>
        <time>2024-04-14T11:08:56.000Z</time>
      </trkpt>
      <trkpt lat="48.37502" lon="2.45134">
        <ele>135</ele>
        <time>2024-04-14T11:08:58.000Z</time>
      </trkpt>
      <trkpt lat="48.37508" lon="2.45104">
        <ele>136</ele>
        <time>2024-04-14T11:09:02.000Z</time>
      </trkpt>
      <trkpt lat="48.37513" lon="2.45081">
        <ele>137.19999694824</ele>
        <time>2024-04-14T11:09:05.000Z</time>
      </trkpt>
      <trkpt lat="48.37515" lon="2.45068">
        <ele>138.19999694824</ele>
        <time>2024-04-14T11:09:07.000Z</time>
      </trkpt>
      <trkpt lat="48.37519" lon="2.45053">
        <ele>138.60000610352</ele>
        <time>2024-04-14T11:09:09.000Z</time>
      </trkpt>
      <trkpt lat="48.37522" lon="2.45039">
        <ele>139.39999389648</ele>
        <time>2024-04-14T11:09:11.000Z</time>
      </trkpt>
      <trkpt lat="48.37535" lon="2.44992">
        <ele>140.39999389648</ele>
        <time>2024-04-14T11:09:18.000Z</time>
      </trkpt>
      <trkpt lat="48.37539" lon="2.44979">
        <ele>140.80000305176</ele>
        <time>2024-04-14T11:09:20.000Z</time>
      </trkpt>
      <trkpt lat="48.37547" lon="2.44953">
        <ele>141.39999389648</ele>
        <time>2024-04-14T11:09:24.000Z</time>
      </trkpt>
      <trkpt lat="48.37554" lon="2.44927">
        <ele>141.80000305176</ele>
        <time>2024-04-14T11:09:28.000Z</time>
      </trkpt>
      <trkpt lat="48.3756" lon="2.44908">
        <ele>142.39999389648</ele>
        <time>2024-04-14T11:09:31.000Z</time>
      </trkpt>
      <trkpt lat="48.37571" lon="2.44858">
        <ele>143</ele>
        <time>2024-04-14T11:09:38.000Z</time>
      </trkpt>
      <trkpt lat="48.37582" lon="2.44784">
        <ele>142</ele>
        <time>2024-04-14T11:09:47.000Z</time>
      </trkpt>
      <trkpt lat="48.37594" lon="2.44696">
        <ele>141.80000305176</ele>
        <time>2024-04-14T11:09:57.000Z</time>
      </trkpt>
      <trkpt lat="48.37596" lon="2.44678">
        <ele>141.39999389648</ele>
        <time>2024-04-14T11:09:59.000Z</time>
      </trkpt>
      <trkpt lat="48.37604" lon="2.44621">
        <ele>140.19999694824</ele>
        <time>2024-04-14T11:10:05.000Z</time>
      </trkpt>
      <trkpt lat="48.37605" lon="2.44612">
        <ele>140.60000610352</ele>
        <time>2024-04-14T11:10:06.000Z</time>
      </trkpt>
      <trkpt lat="48.37616" lon="2.44531">
        <ele>140.80000305176</ele>
        <time>2024-04-14T11:10:15.000Z</time>
      </trkpt>
      <trkpt lat="48.37628" lon="2.44448">
        <ele>140.80000305176</ele>
        <time>2024-04-14T11:10:24.000Z</time>
      </trkpt>
      <trkpt lat="48.37641" lon="2.44362">
        <ele>139.80000305176</ele>
        <time>2024-04-14T11:10:33.000Z</time>
      </trkpt>
      <trkpt lat="48.3765" lon="2.44294">
        <ele>139</ele>
        <time>2024-04-14T11:10:40.000Z</time>
      </trkpt>
      <trkpt lat="48.37653" lon="2.44273">
        <ele>138.39999389648</ele>
        <time>2024-04-14T11:10:42.000Z</time>
      </trkpt>
      <trkpt lat="48.37655" lon="2.44263">
        <ele>137.60000610352</ele>
        <time>2024-04-14T11:10:43.000Z</time>
      </trkpt>
      <trkpt lat="48.37667" lon="2.44189">
        <ele>137</ele>
        <time>2024-04-14T11:10:50.000Z</time>
      </trkpt>
      <trkpt lat="48.37673" lon="2.44169">
        <ele>135.80000305176</ele>
        <time>2024-04-14T11:10:52.000Z</time>
      </trkpt>
      <trkpt lat="48.37683" lon="2.44141">
        <ele>135.39999389648</ele>
        <time>2024-04-14T11:10:55.000Z</time>
      </trkpt>
      <trkpt lat="48.37687" lon="2.44132">
        <ele>134.80000305176</ele>
        <time>2024-04-14T11:10:56.000Z</time>
      </trkpt>
      <trkpt lat="48.37703" lon="2.44099">
        <ele>133.39999389648</ele>
        <time>2024-04-14T11:11:00.000Z</time>
      </trkpt>
      <trkpt lat="48.37708" lon="2.4409">
        <ele>132.80000305176</ele>
        <time>2024-04-14T11:11:01.000Z</time>
      </trkpt>
      <trkpt lat="48.37714" lon="2.44081">
        <ele>132</ele>
        <time>2024-04-14T11:11:02.000Z</time>
      </trkpt>
      <trkpt lat="48.37724" lon="2.44063">
        <ele>130.80000305176</ele>
        <time>2024-04-14T11:11:04.000Z</time>
      </trkpt>
      <trkpt lat="48.37735" lon="2.44045">
        <ele>129.60000610352</ele>
        <time>2024-04-14T11:11:06.000Z</time>
      </trkpt>
      <trkpt lat="48.3774" lon="2.44037">
        <ele>129.60000610352</ele>
        <time>2024-04-14T11:11:07.000Z</time>
      </trkpt>
      <trkpt lat="48.37759" lon="2.44008">
        <ele>131</ele>
        <time>2024-04-14T11:11:11.000Z</time>
      </trkpt>
      <trkpt lat="48.37767" lon="2.43997">
        <ele>132</ele>
        <time>2024-04-14T11:11:13.000Z</time>
      </trkpt>
      <trkpt lat="48.3778" lon="2.43988">
        <ele>133.19999694824</ele>
        <time>2024-04-14T11:11:16.000Z</time>
      </trkpt>
      <trkpt lat="48.37785" lon="2.43986">
        <ele>134</ele>
        <time>2024-04-14T11:11:17.000Z</time>
      </trkpt>
      <trkpt lat="48.37789" lon="2.43984">
        <ele>134.19999694824</ele>
        <time>2024-04-14T11:11:18.000Z</time>
      </trkpt>
      <trkpt lat="48.37816" lon="2.43971">
        <ele>133.80000305176</ele>
        <time>2024-04-14T11:11:23.000Z</time>
      </trkpt>
      <trkpt lat="48.37847" lon="2.43941">
        <ele>133.60000610352</ele>
        <time>2024-04-14T11:11:29.000Z</time>
      </trkpt>
      <trkpt lat="48.3787" lon="2.43903">
        <ele>133.80000305176</ele>
        <time>2024-04-14T11:11:35.000Z</time>
      </trkpt>
      <trkpt lat="48.37878" lon="2.43884">
        <ele>134.39999389648</ele>
        <time>2024-04-14T11:11:38.000Z</time>
      </trkpt>
      <trkpt lat="48.37885" lon="2.43866">
        <ele>134.80000305176</ele>
        <time>2024-04-14T11:11:41.000Z</time>
      </trkpt>
      <trkpt lat="48.37891" lon="2.43849">
        <ele>135.60000610352</ele>
        <time>2024-04-14T11:11:44.000Z</time>
      </trkpt>
      <trkpt lat="48.37905" lon="2.43813">
        <ele>136.19999694824</ele>
        <time>2024-04-14T11:11:50.000Z</time>
      </trkpt>
      <trkpt lat="48.37916" lon="2.43776">
        <ele>134.60000610352</ele>
        <time>2024-04-14T11:11:55.000Z</time>
      </trkpt>
      <trkpt lat="48.37919" lon="2.43767">
        <ele>134.19999694824</ele>
        <time>2024-04-14T11:11:56.000Z</time>
      </trkpt>
      <trkpt lat="48.37928" lon="2.4375">
        <ele>133.19999694824</ele>
        <time>2024-04-14T11:11:58.000Z</time>
      </trkpt>
      <trkpt lat="48.37933" lon="2.43742">
        <ele>132</ele>
        <time>2024-04-14T11:11:59.000Z</time>
      </trkpt>
      <trkpt lat="48.37939" lon="2.43735">
        <ele>131</ele>
        <time>2024-04-14T11:12:00.000Z</time>
      </trkpt>
      <trkpt lat="48.37945" lon="2.43729">
        <ele>130.60000610352</ele>
        <time>2024-04-14T11:12:01.000Z</time>
      </trkpt>
      <trkpt lat="48.37958" lon="2.43718">
        <ele>130.39999389648</ele>
        <time>2024-04-14T11:12:03.000Z</time>
      </trkpt>
      <trkpt lat="48.37969" lon="2.43706">
        <ele>131.19999694824</ele>
        <time>2024-04-14T11:12:05.000Z</time>
      </trkpt>
      <trkpt lat="48.37985" lon="2.43681">
        <ele>130.80000305176</ele>
        <time>2024-04-14T11:12:09.000Z</time>
      </trkpt>
      <trkpt lat="48.37988" lon="2.43674">
        <ele>130.80000305176</ele>
        <time>2024-04-14T11:12:10.000Z</time>
      </trkpt>
      <trkpt lat="48.38013" lon="2.43619">
        <ele>131</ele>
        <time>2024-04-14T11:12:17.000Z</time>
      </trkpt>
      <trkpt lat="48.38039" lon="2.43565">
        <ele>131.19999694824</ele>
        <time>2024-04-14T11:12:24.000Z</time>
      </trkpt>
      <trkpt lat="48.38065" lon="2.43509">
        <ele>131.19999694824</ele>
        <time>2024-04-14T11:12:32.000Z</time>
      </trkpt>
      <trkpt lat="48.38079" lon="2.43484">
        <ele>131.80000305176</ele>
        <time>2024-04-14T11:12:36.000Z</time>
      </trkpt>
      <trkpt lat="48.38095" lon="2.43454">
        <ele>132.80000305176</ele>
        <time>2024-04-14T11:12:41.000Z</time>
      </trkpt>
      <trkpt lat="48.38098" lon="2.43448">
        <ele>133</ele>
        <time>2024-04-14T11:12:42.000Z</time>
      </trkpt>
      <trkpt lat="48.38112" lon="2.4342">
        <ele>134.19999694824</ele>
        <time>2024-04-14T11:12:47.000Z</time>
      </trkpt>
      <trkpt lat="48.38118" lon="2.43408">
        <ele>134</ele>
        <time>2024-04-14T11:12:49.000Z</time>
      </trkpt>
      <trkpt lat="48.38138" lon="2.43358">
        <ele>134.19999694824</ele>
        <time>2024-04-14T11:12:57.000Z</time>
      </trkpt>
      <trkpt lat="48.38154" lon="2.43339">
        <ele>133.60000610352</ele>
        <time>2024-04-14T11:13:01.000Z</time>
      </trkpt>
      <trkpt lat="48.38182" lon="2.43311">
        <ele>134.60000610352</ele>
        <time>2024-04-14T11:13:08.000Z</time>
      </trkpt>
      <trkpt lat="48.38186" lon="2.43302">
        <ele>134.80000305176</ele>
        <time>2024-04-14T11:13:11.000Z</time>
      </trkpt>
      <trkpt lat="48.38179" lon="2.43287">
        <ele>134.60000610352</ele>
        <time>2024-04-14T11:13:14.000Z</time>
      </trkpt>
      <trkpt lat="48.38168" lon="2.43274">
        <ele>135</ele>
        <time>2024-04-14T11:13:17.000Z</time>
      </trkpt>
      <trkpt lat="48.3816" lon="2.43265">
        <ele>135</ele>
        <time>2024-04-14T11:13:19.000Z</time>
      </trkpt>
      <trkpt lat="48.38154" lon="2.43257">
        <ele>134.80000305176</ele>
        <time>2024-04-14T11:13:21.000Z</time>
      </trkpt>
      <trkpt lat="48.38154" lon="2.43246">
        <ele>134.80000305176</ele>
        <time>2024-04-14T11:13:23.000Z</time>
      </trkpt>
      <trkpt lat="48.3816" lon="2.43233">
        <ele>135.19999694824</ele>
        <time>2024-04-14T11:13:26.000Z</time>
      </trkpt>
      <trkpt lat="48.38161" lon="2.43228">
        <ele>135.19999694824</ele>
        <time>2024-04-14T11:13:27.000Z</time>
      </trkpt>
      <trkpt lat="48.38163" lon="2.43224">
        <ele>135.60000610352</ele>
        <time>2024-04-14T11:13:28.000Z</time>
      </trkpt>
      <trkpt lat="48.38182" lon="2.43181">
        <ele>136.19999694824</ele>
        <time>2024-04-14T11:13:37.000Z</time>
      </trkpt>
      <trkpt lat="48.38187" lon="2.43167">
        <ele>136.80000305176</ele>
        <time>2024-04-14T11:13:40.000Z</time>
      </trkpt>
      <trkpt lat="48.38196" lon="2.43143">
        <ele>137.19999694824</ele>
        <time>2024-04-14T11:13:45.000Z</time>
      </trkpt>
      <trkpt lat="48.38214" lon="2.43103">
        <ele>137.80000305176</ele>
        <time>2024-04-14T11:13:53.000Z</time>
      </trkpt>
      <trkpt lat="48.38217" lon="2.43098">
        <ele>138</ele>
        <time>2024-04-14T11:13:54.000Z</time>
      </trkpt>
      <trkpt lat="48.38238" lon="2.43049">
        <ele>138.19999694824</ele>
        <time>2024-04-14T11:14:03.000Z</time>
      </trkpt>
      <trkpt lat="48.38265" lon="2.42988">
        <ele>138.39999389648</ele>
        <time>2024-04-14T11:14:14.000Z</time>
      </trkpt>
      <trkpt lat="48.3827" lon="2.42978">
        <ele>139</ele>
        <time>2024-04-14T11:14:16.000Z</time>
      </trkpt>
      <trkpt lat="48.38274" lon="2.42967">
        <ele>139.39999389648</ele>
        <time>2024-04-14T11:14:18.000Z</time>
      </trkpt>
      <trkpt lat="48.38282" lon="2.42945">
        <ele>139.39999389648</ele>
        <time>2024-04-14T11:14:22.000Z</time>
      </trkpt>
      <trkpt lat="48.38289" lon="2.42922">
        <ele>139.60000610352</ele>
        <time>2024-04-14T11:14:26.000Z</time>
      </trkpt>
      <trkpt lat="48.38293" lon="2.42911">
        <ele>139.80000305176</ele>
        <time>2024-04-14T11:14:28.000Z</time>
      </trkpt>
      <trkpt lat="48.383" lon="2.4289">
        <ele>140</ele>
        <time>2024-04-14T11:14:32.000Z</time>
      </trkpt>
      <trkpt lat="48.38305" lon="2.42876">
        <ele>140.39999389648</ele>
        <time>2024-04-14T11:14:35.000Z</time>
      </trkpt>
      <trkpt lat="48.38316" lon="2.42847">
        <ele>141</ele>
        <time>2024-04-14T11:14:41.000Z</time>
      </trkpt>
      <trkpt lat="48.3832" lon="2.42839">
        <ele>142</ele>
        <time>2024-04-14T11:14:43.000Z</time>
      </trkpt>
      <trkpt lat="48.38324" lon="2.42831">
        <ele>142.19999694824</ele>
        <time>2024-04-14T11:14:45.000Z</time>
      </trkpt>
      <trkpt lat="48.38336" lon="2.42805">
        <ele>142.60000610352</ele>
        <time>2024-04-14T11:14:51.000Z</time>
      </trkpt>
      <trkpt lat="48.38341" lon="2.42795">
        <ele>143.19999694824</ele>
        <time>2024-04-14T11:14:53.000Z</time>
      </trkpt>
      <trkpt lat="48.38346" lon="2.42784">
        <ele>143.19999694824</ele>
        <time>2024-04-14T11:14:55.000Z</time>
      </trkpt>
      <trkpt lat="48.38348" lon="2.42778">
        <ele>143.19999694824</ele>
        <time>2024-04-14T11:14:56.000Z</time>
      </trkpt>
      <trkpt lat="48.38351" lon="2.42772">
        <ele>143.39999389648</ele>
        <time>2024-04-14T11:14:57.000Z</time>
      </trkpt>
      <trkpt lat="48.38367" lon="2.4273">
        <ele>143.60000610352</ele>
        <time>2024-04-14T11:15:03.000Z</time>
      </trkpt>
      <trkpt lat="48.38374" lon="2.42717">
        <ele>143.80000305176</ele>
        <time>2024-04-14T11:15:05.000Z</time>
      </trkpt>
      <trkpt lat="48.38387" lon="2.42702">
        <ele>143.80000305176</ele>
        <time>2024-04-14T11:15:08.000Z</time>
      </trkpt>
      <trkpt lat="48.38398" lon="2.42696">
        <ele>144.19999694824</ele>
        <time>2024-04-14T11:15:10.000Z</time>
      </trkpt>
      <trkpt lat="48.38404" lon="2.42693">
        <ele>144.19999694824</ele>
        <time>2024-04-14T11:15:11.000Z</time>
      </trkpt>
      <trkpt lat="48.38415" lon="2.42688">
        <ele>144</ele>
        <time>2024-04-14T11:15:13.000Z</time>
      </trkpt>
      <trkpt lat="48.38458" lon="2.42674">
        <ele>144.80000305176</ele>
        <time>2024-04-14T11:15:21.000Z</time>
      </trkpt>
      <trkpt lat="48.38487" lon="2.42662">
        <ele>145.39999389648</ele>
        <time>2024-04-14T11:15:27.000Z</time>
      </trkpt>
      <trkpt lat="48.38502" lon="2.42657">
        <ele>145.39999389648</ele>
        <time>2024-04-14T11:15:30.000Z</time>
      </trkpt>
      <trkpt lat="48.38548" lon="2.4264">
        <ele>145.80000305176</ele>
        <time>2024-04-14T11:15:39.000Z</time>
      </trkpt>
      <trkpt lat="48.3859" lon="2.42624">
        <ele>146</ele>
        <time>2024-04-14T11:15:47.000Z</time>
      </trkpt>
      <trkpt lat="48.38631" lon="2.42601">
        <ele>146.19999694824</ele>
        <time>2024-04-14T11:15:55.000Z</time>
      </trkpt>
      <trkpt lat="48.38641" lon="2.42593">
        <ele>146.39999389648</ele>
        <time>2024-04-14T11:15:57.000Z</time>
      </trkpt>
      <trkpt lat="48.38666" lon="2.42574">
        <ele>146.39999389648</ele>
        <time>2024-04-14T11:16:02.000Z</time>
      </trkpt>
      <trkpt lat="48.38694" lon="2.42548">
        <ele>147</ele>
        <time>2024-04-14T11:16:08.000Z</time>
      </trkpt>
      <trkpt lat="48.38717" lon="2.42531">
        <ele>147.39999389648</ele>
        <time>2024-04-14T11:16:13.000Z</time>
      </trkpt>
      <trkpt lat="48.38725" lon="2.42526">
        <ele>147.80000305176</ele>
        <time>2024-04-14T11:16:15.000Z</time>
      </trkpt>
      <trkpt lat="48.38739" lon="2.42519">
        <ele>147.39999389648</ele>
        <time>2024-04-14T11:16:20.000Z</time>
      </trkpt>
      <trkpt lat="48.38742" lon="2.42514">
        <ele>147.39999389648</ele>
        <time>2024-04-14T11:16:22.000Z</time>
      </trkpt>
      <trkpt lat="48.38741" lon="2.42505">
        <ele>147.19999694824</ele>
        <time>2024-04-14T11:16:24.000Z</time>
      </trkpt>
      <trkpt lat="48.38733" lon="2.42479">
        <ele>147</ele>
        <time>2024-04-14T11:16:29.000Z</time>
      </trkpt>
      <trkpt lat="48.38723" lon="2.42431">
        <ele>147.19999694824</ele>
        <time>2024-04-14T11:16:36.000Z</time>
      </trkpt>
      <trkpt lat="48.38714" lon="2.42384">
        <ele>147.19999694824</ele>
        <time>2024-04-14T11:16:42.000Z</time>
      </trkpt>
      <trkpt lat="48.38712" lon="2.42368">
        <ele>147.19999694824</ele>
        <time>2024-04-14T11:16:44.000Z</time>
      </trkpt>
      <trkpt lat="48.38696" lon="2.42287">
        <ele>147.80000305176</ele>
        <time>2024-04-14T11:16:54.000Z</time>
      </trkpt>
      <trkpt lat="48.38695" lon="2.42278">
        <ele>147.80000305176</ele>
        <time>2024-04-14T11:16:55.000Z</time>
      </trkpt>
      <trkpt lat="48.38679" lon="2.42192">
        <ele>147.60000610352</ele>
        <time>2024-04-14T11:17:05.000Z</time>
      </trkpt>
      <trkpt lat="48.38662" lon="2.42111">
        <ele>147.60000610352</ele>
        <time>2024-04-14T11:17:14.000Z</time>
      </trkpt>
      <trkpt lat="48.38643" lon="2.42039">
        <ele>147</ele>
        <time>2024-04-14T11:17:22.000Z</time>
      </trkpt>
      <trkpt lat="48.38626" lon="2.41979">
        <ele>146.60000610352</ele>
        <time>2024-04-14T11:17:29.000Z</time>
      </trkpt>
      <trkpt lat="48.38624" lon="2.41969">
        <ele>146.39999389648</ele>
        <time>2024-04-14T11:17:30.000Z</time>
      </trkpt>
      <trkpt lat="48.38618" lon="2.41942">
        <ele>146.60000610352</ele>
        <time>2024-04-14T11:17:33.000Z</time>
      </trkpt>
      <trkpt lat="48.38616" lon="2.41923">
        <ele>146.80000305176</ele>
        <time>2024-04-14T11:17:35.000Z</time>
      </trkpt>
      <trkpt lat="48.38613" lon="2.41877">
        <ele>147.39999389648</ele>
        <time>2024-04-14T11:17:40.000Z</time>
      </trkpt>
      <trkpt lat="48.38612" lon="2.4185">
        <ele>147.80000305176</ele>
        <time>2024-04-14T11:17:43.000Z</time>
      </trkpt>
      <trkpt lat="48.3861" lon="2.41787">
        <ele>148.60000610352</ele>
        <time>2024-04-14T11:17:51.000Z</time>
      </trkpt>
      <trkpt lat="48.38608" lon="2.41733">
        <ele>148.80000305176</ele>
        <time>2024-04-14T11:17:58.000Z</time>
      </trkpt>
      <trkpt lat="48.38613" lon="2.41693">
        <ele>149.39999389648</ele>
        <time>2024-04-14T11:18:03.000Z</time>
      </trkpt>
      <trkpt lat="48.38614" lon="2.41685">
        <ele>149.60000610352</ele>
        <time>2024-04-14T11:18:04.000Z</time>
      </trkpt>
      <trkpt lat="48.38615" lon="2.41678">
        <ele>149.60000610352</ele>
        <time>2024-04-14T11:18:05.000Z</time>
      </trkpt>
      <trkpt lat="48.38618" lon="2.4167">
        <ele>149.80000305176</ele>
        <time>2024-04-14T11:18:06.000Z</time>
      </trkpt>
      <trkpt lat="48.38628" lon="2.41642">
        <ele>150.19999694824</ele>
        <time>2024-04-14T11:18:10.000Z</time>
      </trkpt>
      <trkpt lat="48.38634" lon="2.4163">
        <ele>150.80000305176</ele>
        <time>2024-04-14T11:18:12.000Z</time>
      </trkpt>
      <trkpt lat="48.38651" lon="2.41602">
        <ele>151</ele>
        <time>2024-04-14T11:18:17.000Z</time>
      </trkpt>
      <trkpt lat="48.38663" lon="2.41586">
        <ele>151</ele>
        <time>2024-04-14T11:18:20.000Z</time>
      </trkpt>
      <trkpt lat="48.3868" lon="2.41565">
        <ele>151</ele>
        <time>2024-04-14T11:18:24.000Z</time>
      </trkpt>
      <trkpt lat="48.38723" lon="2.4152">
        <ele>151</ele>
        <time>2024-04-14T11:18:33.000Z</time>
      </trkpt>
      <trkpt lat="48.38745" lon="2.41494">
        <ele>150</ele>
        <time>2024-04-14T11:18:38.000Z</time>
      </trkpt>
      <trkpt lat="48.3875" lon="2.4149">
        <ele>149.80000305176</ele>
        <time>2024-04-14T11:18:39.000Z</time>
      </trkpt>
      <trkpt lat="48.38775" lon="2.41457">
        <ele>149.19999694824</ele>
        <time>2024-04-14T11:18:45.000Z</time>
      </trkpt>
      <trkpt lat="48.38779" lon="2.4145">
        <ele>149.19999694824</ele>
        <time>2024-04-14T11:18:46.000Z</time>
      </trkpt>
      <trkpt lat="48.3879" lon="2.41425">
        <ele>149.60000610352</ele>
        <time>2024-04-14T11:18:50.000Z</time>
      </trkpt>
      <trkpt lat="48.38784" lon="2.41401">
        <ele>148.60000610352</ele>
        <time>2024-04-14T11:18:53.000Z</time>
      </trkpt>
      <trkpt lat="48.38776" lon="2.41347">
        <ele>147.19999694824</ele>
        <time>2024-04-14T11:18:59.000Z</time>
      </trkpt>
      <trkpt lat="48.38765" lon="2.4127">
        <ele>148.19999694824</ele>
        <time>2024-04-14T11:19:07.000Z</time>
      </trkpt>
      <trkpt lat="48.38761" lon="2.41249">
        <ele>147.19999694824</ele>
        <time>2024-04-14T11:19:09.000Z</time>
      </trkpt>
      <trkpt lat="48.38754" lon="2.41201">
        <ele>146.19999694824</ele>
        <time>2024-04-14T11:19:14.000Z</time>
      </trkpt>
      <trkpt lat="48.38747" lon="2.41156">
        <ele>146</ele>
        <time>2024-04-14T11:19:19.000Z</time>
      </trkpt>
      <trkpt lat="48.38745" lon="2.41138">
        <ele>146.39999389648</ele>
        <time>2024-04-14T11:19:21.000Z</time>
      </trkpt>
      <trkpt lat="48.38735" lon="2.41075">
        <ele>146.39999389648</ele>
        <time>2024-04-14T11:19:28.000Z</time>
      </trkpt>
      <trkpt lat="48.38724" lon="2.41015">
        <ele>144.80000305176</ele>
        <time>2024-04-14T11:19:35.000Z</time>
      </trkpt>
      <trkpt lat="48.38714" lon="2.40945">
        <ele>145</ele>
        <time>2024-04-14T11:19:43.000Z</time>
      </trkpt>
      <trkpt lat="48.38703" lon="2.40877">
        <ele>145.39999389648</ele>
        <time>2024-04-14T11:19:51.000Z</time>
      </trkpt>
      <trkpt lat="48.38693" lon="2.40814">
        <ele>144.80000305176</ele>
        <time>2024-04-14T11:19:59.000Z</time>
      </trkpt>
      <trkpt lat="48.38694" lon="2.40794">
        <ele>144.39999389648</ele>
        <time>2024-04-14T11:20:02.000Z</time>
      </trkpt>
      <trkpt lat="48.38698" lon="2.40792">
        <ele>144.60000610352</ele>
        <time>2024-04-14T11:20:03.000Z</time>
      </trkpt>
      <trkpt lat="48.38712" lon="2.40796">
        <ele>145.80000305176</ele>
        <time>2024-04-14T11:20:06.000Z</time>
      </trkpt>
      <trkpt lat="48.38743" lon="2.40794">
        <ele>146.39999389648</ele>
        <time>2024-04-14T11:20:12.000Z</time>
      </trkpt>
      <trkpt lat="48.38778" lon="2.40788">
        <ele>146.19999694824</ele>
        <time>2024-04-14T11:20:18.000Z</time>
      </trkpt>
      <trkpt lat="48.38833" lon="2.40781">
        <ele>146</ele>
        <time>2024-04-14T11:20:27.000Z</time>
      </trkpt>
      <trkpt lat="48.38839" lon="2.4078">
        <ele>146.19999694824</ele>
        <time>2024-04-14T11:20:28.000Z</time>
      </trkpt>
      <trkpt lat="48.38886" lon="2.40776">
        <ele>146</ele>
        <time>2024-04-14T11:20:36.000Z</time>
      </trkpt>
      <trkpt lat="48.38934" lon="2.40771">
        <ele>145.39999389648</ele>
        <time>2024-04-14T11:20:45.000Z</time>
      </trkpt>
      <trkpt lat="48.38948" lon="2.40771">
        <ele>145</ele>
        <time>2024-04-14T11:20:49.000Z</time>
      </trkpt>
      <trkpt lat="48.38951" lon="2.4077">
        <ele>144.80000305176</ele>
        <time>2024-04-14T11:20:51.000Z</time>
      </trkpt>
      <trkpt lat="48.38953" lon="2.4077">
        <ele>144.80000305176</ele>
        <time>2024-04-14T11:20:52.000Z</time>
      </trkpt>
      <trkpt lat="48.38955" lon="2.40771">
        <ele>144.60000610352</ele>
        <time>2024-04-14T11:20:53.000Z</time>
      </trkpt>
      <trkpt lat="48.38959" lon="2.40773">
        <ele>144.80000305176</ele>
        <time>2024-04-14T11:20:56.000Z</time>
      </trkpt>
      <trkpt lat="48.38963" lon="2.40772">
        <ele>144.60000610352</ele>
        <time>2024-04-14T11:20:58.000Z</time>
      </trkpt>
      <trkpt lat="48.38982" lon="2.40765">
        <ele>144</ele>
        <time>2024-04-14T11:21:04.000Z</time>
      </trkpt>
      <trkpt lat="48.38986" lon="2.40764">
        <ele>143.60000610352</ele>
        <time>2024-04-14T11:21:05.000Z</time>
      </trkpt>
      <trkpt lat="48.39008" lon="2.40757">
        <ele>143</ele>
        <time>2024-04-14T11:21:11.000Z</time>
      </trkpt>
      <trkpt lat="48.39016" lon="2.40753">
        <ele>142.80000305176</ele>
        <time>2024-04-14T11:21:14.000Z</time>
      </trkpt>
      <trkpt lat="48.3902" lon="2.40751">
        <ele>142.80000305176</ele>
        <time>2024-04-14T11:21:16.000Z</time>
      </trkpt>
      <trkpt lat="48.39022" lon="2.40752">
        <ele>142.80000305176</ele>
        <time>2024-04-14T11:21:17.000Z</time>
      </trkpt>
      <trkpt lat="48.39029" lon="2.40751">
        <ele>142.39999389648</ele>
        <time>2024-04-14T11:21:21.000Z</time>
      </trkpt>
      <trkpt lat="48.39039" lon="2.40742">
        <ele>142.19999694824</ele>
        <time>2024-04-14T11:21:26.000Z</time>
      </trkpt>
      <trkpt lat="48.39043" lon="2.40741">
        <ele>142</ele>
        <time>2024-04-14T11:21:27.000Z</time>
      </trkpt>
      <trkpt lat="48.39051" lon="2.40741">
        <ele>141.19999694824</ele>
        <time>2024-04-14T11:21:29.000Z</time>
      </trkpt>
      <trkpt lat="48.39072" lon="2.40745">
        <ele>140.39999389648</ele>
        <time>2024-04-14T11:21:33.000Z</time>
      </trkpt>
      <trkpt lat="48.39078" lon="2.40746">
        <ele>140.39999389648</ele>
        <time>2024-04-14T11:21:34.000Z</time>
      </trkpt>
      <trkpt lat="48.39084" lon="2.40747">
        <ele>140</ele>
        <time>2024-04-14T11:21:35.000Z</time>
      </trkpt>
      <trkpt lat="48.39096" lon="2.4075">
        <ele>139.80000305176</ele>
        <time>2024-04-14T11:21:37.000Z</time>
      </trkpt>
      <trkpt lat="48.39101" lon="2.4075">
        <ele>139.80000305176</ele>
        <time>2024-04-14T11:21:38.000Z</time>
      </trkpt>
      <trkpt lat="48.39106" lon="2.40746">
        <ele>139.39999389648</ele>
        <time>2024-04-14T11:21:39.000Z</time>
      </trkpt>
      <trkpt lat="48.39109" lon="2.40738">
        <ele>139</ele>
        <time>2024-04-14T11:21:40.000Z</time>
      </trkpt>
      <trkpt lat="48.39112" lon="2.40731">
        <ele>138.39999389648</ele>
        <time>2024-04-14T11:21:41.000Z</time>
      </trkpt>
      <trkpt lat="48.39119" lon="2.40715">
        <ele>137.80000305176</ele>
        <time>2024-04-14T11:21:43.000Z</time>
      </trkpt>
      <trkpt lat="48.39122" lon="2.40706">
        <ele>137.39999389648</ele>
        <time>2024-04-14T11:21:44.000Z</time>
      </trkpt>
      <trkpt lat="48.39125" lon="2.40697">
        <ele>137</ele>
        <time>2024-04-14T11:21:45.000Z</time>
      </trkpt>
      <trkpt lat="48.39128" lon="2.40687">
        <ele>136.60000610352</ele>
        <time>2024-04-14T11:21:46.000Z</time>
      </trkpt>
      <trkpt lat="48.3914" lon="2.40662">
        <ele>137</ele>
        <time>2024-04-14T11:21:49.000Z</time>
      </trkpt>
      <trkpt lat="48.39149" lon="2.40648">
        <ele>136.39999389648</ele>
        <time>2024-04-14T11:21:51.000Z</time>
      </trkpt>
      <trkpt lat="48.39163" lon="2.40629">
        <ele>135.60000610352</ele>
        <time>2024-04-14T11:21:54.000Z</time>
      </trkpt>
      <trkpt lat="48.39169" lon="2.4062">
        <ele>135.80000305176</ele>
        <time>2024-04-14T11:21:55.000Z</time>
      </trkpt>
      <trkpt lat="48.39177" lon="2.40604">
        <ele>136.19999694824</ele>
        <time>2024-04-14T11:21:57.000Z</time>
      </trkpt>
      <trkpt lat="48.39187" lon="2.40589">
        <ele>135.80000305176</ele>
        <time>2024-04-14T11:22:01.000Z</time>
      </trkpt>
      <trkpt lat="48.39201" lon="2.40569">
        <ele>135.39999389648</ele>
        <time>2024-04-14T11:22:08.000Z</time>
      </trkpt>
      <trkpt lat="48.39215" lon="2.40538">
        <ele>135.60000610352</ele>
        <time>2024-04-14T11:22:14.000Z</time>
      </trkpt>
      <trkpt lat="48.39219" lon="2.40522">
        <ele>135.60000610352</ele>
        <time>2024-04-14T11:22:16.000Z</time>
      </trkpt>
      <trkpt lat="48.39224" lon="2.405">
        <ele>135.39999389648</ele>
        <time>2024-04-14T11:22:19.000Z</time>
      </trkpt>
      <trkpt lat="48.39227" lon="2.40477">
        <ele>134.39999389648</ele>
        <time>2024-04-14T11:22:22.000Z</time>
      </trkpt>
      <trkpt lat="48.39231" lon="2.4046">
        <ele>133.39999389648</ele>
        <time>2024-04-14T11:22:24.000Z</time>
      </trkpt>
      <trkpt lat="48.39234" lon="2.40442">
        <ele>132</ele>
        <time>2024-04-14T11:22:26.000Z</time>
      </trkpt>
      <trkpt lat="48.39237" lon="2.40421">
        <ele>130.39999389648</ele>
        <time>2024-04-14T11:22:28.000Z</time>
      </trkpt>
      <trkpt lat="48.3924" lon="2.40402">
        <ele>129.19999694824</ele>
        <time>2024-04-14T11:22:30.000Z</time>
      </trkpt>
      <trkpt lat="48.39242" lon="2.40363">
        <ele>128</ele>
        <time>2024-04-14T11:22:34.000Z</time>
      </trkpt>
      <trkpt lat="48.39241" lon="2.40354">
        <ele>127.59999847412</ele>
        <time>2024-04-14T11:22:35.000Z</time>
      </trkpt>
      <trkpt lat="48.39234" lon="2.4034">
        <ele>128</ele>
        <time>2024-04-14T11:22:38.000Z</time>
      </trkpt>
      <trkpt lat="48.39231" lon="2.40334">
        <ele>128.60000610352</ele>
        <time>2024-04-14T11:22:40.000Z</time>
      </trkpt>
      <trkpt lat="48.39229" lon="2.40331">
        <ele>129</ele>
        <time>2024-04-14T11:22:41.000Z</time>
      </trkpt>
      <trkpt lat="48.39223" lon="2.40316">
        <ele>129.80000305176</ele>
        <time>2024-04-14T11:22:46.000Z</time>
      </trkpt>
      <trkpt lat="48.39222" lon="2.40314">
        <ele>130</ele>
        <time>2024-04-14T11:22:47.000Z</time>
      </trkpt>
      <trkpt lat="48.39214" lon="2.40292">
        <ele>129.80000305176</ele>
        <time>2024-04-14T11:22:53.000Z</time>
      </trkpt>
      <trkpt lat="48.39203" lon="2.40257">
        <ele>130</ele>
        <time>2024-04-14T11:23:01.000Z</time>
      </trkpt>
      <trkpt lat="48.39195" lon="2.40227">
        <ele>129.19999694824</ele>
        <time>2024-04-14T11:23:08.000Z</time>
      </trkpt>
      <trkpt lat="48.39194" lon="2.40222">
        <ele>128.80000305176</ele>
        <time>2024-04-14T11:23:09.000Z</time>
      </trkpt>
      <trkpt lat="48.3919" lon="2.40203">
        <ele>129.60000610352</ele>
        <time>2024-04-14T11:23:13.000Z</time>
      </trkpt>
      <trkpt lat="48.39189" lon="2.40188">
        <ele>130</ele>
        <time>2024-04-14T11:23:16.000Z</time>
      </trkpt>
      <trkpt lat="48.39185" lon="2.40174">
        <ele>129.80000305176</ele>
        <time>2024-04-14T11:23:19.000Z</time>
      </trkpt>
      <trkpt lat="48.39173" lon="2.40153">
        <ele>130</ele>
        <time>2024-04-14T11:23:25.000Z</time>
      </trkpt>
      <trkpt lat="48.39167" lon="2.4014">
        <ele>129.60000610352</ele>
        <time>2024-04-14T11:23:28.000Z</time>
      </trkpt>
      <trkpt lat="48.39161" lon="2.40132">
        <ele>128.80000305176</ele>
        <time>2024-04-14T11:23:30.000Z</time>
      </trkpt>
      <trkpt lat="48.39158" lon="2.40126">
        <ele>128.39999389648</ele>
        <time>2024-04-14T11:23:31.000Z</time>
      </trkpt>
      <trkpt lat="48.39152" lon="2.4011">
        <ele>127.80000305176</ele>
        <time>2024-04-14T11:23:34.000Z</time>
      </trkpt>
      <trkpt lat="48.39144" lon="2.40098">
        <ele>128.60000610352</ele>
        <time>2024-04-14T11:23:38.000Z</time>
      </trkpt>
      <trkpt lat="48.39144" lon="2.40092">
        <ele>128.60000610352</ele>
        <time>2024-04-14T11:23:40.000Z</time>
      </trkpt>
      <trkpt lat="48.39143" lon="2.40078">
        <ele>127.19999694824</ele>
        <time>2024-04-14T11:23:42.000Z</time>
      </trkpt>
      <trkpt lat="48.39144" lon="2.40051">
        <ele>127.59999847412</ele>
        <time>2024-04-14T11:23:47.000Z</time>
      </trkpt>
      <trkpt lat="48.39144" lon="2.40046">
        <ele>128.39999389648</ele>
        <time>2024-04-14T11:23:49.000Z</time>
      </trkpt>
      <trkpt lat="48.39144" lon="2.40032">
        <ele>128.60000610352</ele>
        <time>2024-04-14T11:23:54.000Z</time>
      </trkpt>
      <trkpt lat="48.39145" lon="2.40023">
        <ele>126.59999847412</ele>
        <time>2024-04-14T11:23:57.000Z</time>
      </trkpt>
      <trkpt lat="48.39145" lon="2.40019">
        <ele>126</ele>
        <time>2024-04-14T11:23:58.000Z</time>
      </trkpt>
      <trkpt lat="48.39145" lon="2.40014">
        <ele>125.59999847412</ele>
        <time>2024-04-14T11:23:59.000Z</time>
      </trkpt>
      <trkpt lat="48.39146" lon="2.39982">
        <ele>126.59999847412</ele>
        <time>2024-04-14T11:24:06.000Z</time>
      </trkpt>
      <trkpt lat="48.39145" lon="2.39966">
        <ele>126.40000152588</ele>
        <time>2024-04-14T11:24:12.000Z</time>
      </trkpt>
      <trkpt lat="48.39143" lon="2.39958">
        <ele>126.19999694824</ele>
        <time>2024-04-14T11:24:17.000Z</time>
      </trkpt>
      <trkpt lat="48.39141" lon="2.39947">
        <ele>125.59999847412</ele>
        <time>2024-04-14T11:24:19.000Z</time>
      </trkpt>
      <trkpt lat="48.3914" lon="2.3994">
        <ele>124.40000152588</ele>
        <time>2024-04-14T11:24:20.000Z</time>
      </trkpt>
      <trkpt lat="48.39138" lon="2.39926">
        <ele>123.59999847412</ele>
        <time>2024-04-14T11:24:23.000Z</time>
      </trkpt>
      <trkpt lat="48.39139" lon="2.39922">
        <ele>122.80000305176</ele>
        <time>2024-04-14T11:24:24.000Z</time>
      </trkpt>
      <trkpt lat="48.39139" lon="2.39918">
        <ele>121.59999847412</ele>
        <time>2024-04-14T11:24:25.000Z</time>
      </trkpt>
      <trkpt lat="48.39139" lon="2.39914">
        <ele>120.59999847412</ele>
        <time>2024-04-14T11:24:26.000Z</time>
      </trkpt>
      <trkpt lat="48.39136" lon="2.39903">
        <ele>120</ele>
        <time>2024-04-14T11:24:29.000Z</time>
      </trkpt>
      <trkpt lat="48.39133" lon="2.39896">
        <ele>119.40000152588</ele>
        <time>2024-04-14T11:24:31.000Z</time>
      </trkpt>
      <trkpt lat="48.39128" lon="2.39885">
        <ele>119.40000152588</ele>
        <time>2024-04-14T11:24:34.000Z</time>
      </trkpt>
      <trkpt lat="48.39126" lon="2.39871">
        <ele>119.19999694824</ele>
        <time>2024-04-14T11:24:38.000Z</time>
      </trkpt>
      <trkpt lat="48.39126" lon="2.39858">
        <ele>118.19999694824</ele>
        <time>2024-04-14T11:24:40.000Z</time>
      </trkpt>
      <trkpt lat="48.39124" lon="2.39848">
        <ele>118.19999694824</ele>
        <time>2024-04-14T11:24:42.000Z</time>
      </trkpt>
      <trkpt lat="48.39122" lon="2.39841">
        <ele>119.19999694824</ele>
        <time>2024-04-14T11:24:44.000Z</time>
      </trkpt>
      <trkpt lat="48.39118" lon="2.39829">
        <ele>120.19999694824</ele>
        <time>2024-04-14T11:24:48.000Z</time>
      </trkpt>
      <trkpt lat="48.39112" lon="2.39803">
        <ele>119.80000305176</ele>
        <time>2024-04-14T11:24:55.000Z</time>
      </trkpt>
      <trkpt lat="48.39115" lon="2.39779">
        <ele>119.40000152588</ele>
        <time>2024-04-14T11:25:00.000Z</time>
      </trkpt>
      <trkpt lat="48.3912" lon="2.39768">
        <ele>121.40000152588</ele>
        <time>2024-04-14T11:25:04.000Z</time>
      </trkpt>
      <trkpt lat="48.39123" lon="2.39761">
        <ele>122.40000152588</ele>
        <time>2024-04-14T11:25:07.000Z</time>
      </trkpt>
      <trkpt lat="48.39124" lon="2.39753">
        <ele>123.59999847412</ele>
        <time>2024-04-14T11:25:10.000Z</time>
      </trkpt>
      <trkpt lat="48.39127" lon="2.3974">
        <ele>124.59999847412</ele>
        <time>2024-04-14T11:25:16.000Z</time>
      </trkpt>
      <trkpt lat="48.39128" lon="2.39737">
        <ele>124.59999847412</ele>
        <time>2024-04-14T11:25:17.000Z</time>
      </trkpt>
      <trkpt lat="48.39128" lon="2.39729">
        <ele>125.40000152588</ele>
        <time>2024-04-14T11:25:22.000Z</time>
      </trkpt>
      <trkpt lat="48.39128" lon="2.39722">
        <ele>125.80000305176</ele>
        <time>2024-04-14T11:25:25.000Z</time>
      </trkpt>
      <trkpt lat="48.39129" lon="2.39712">
        <ele>126.19999694824</ele>
        <time>2024-04-14T11:25:29.000Z</time>
      </trkpt>
      <trkpt lat="48.39129" lon="2.39706">
        <ele>127.40000152588</ele>
        <time>2024-04-14T11:25:32.000Z</time>
      </trkpt>
      <trkpt lat="48.39129" lon="2.39701">
        <ele>128.60000610352</ele>
        <time>2024-04-14T11:25:35.000Z</time>
      </trkpt>
      <trkpt lat="48.39129" lon="2.39699">
        <ele>128.60000610352</ele>
        <time>2024-04-14T11:25:36.000Z</time>
      </trkpt>
      <trkpt lat="48.39131" lon="2.39692">
        <ele>129.19999694824</ele>
        <time>2024-04-14T11:25:43.000Z</time>
      </trkpt>
      <trkpt lat="48.3913" lon="2.3969">
        <ele>129.19999694824</ele>
        <time>2024-04-14T11:25:49.000Z</time>
      </trkpt>
      <trkpt lat="48.39129" lon="2.39687">
        <ele>129.80000305176</ele>
        <time>2024-04-14T11:25:52.000Z</time>
      </trkpt>
      <trkpt lat="48.39128" lon="2.39686">
        <ele>130.80000305176</ele>
        <time>2024-04-14T11:25:57.000Z</time>
      </trkpt>
      <trkpt lat="48.39128" lon="2.39686">
        <ele>130.80000305176</ele>
        <time>2024-04-14T11:25:58.000Z</time>
      </trkpt>
      <trkpt lat="48.39128" lon="2.39686">
        <ele>130.80000305176</ele>
        <time>2024-04-14T11:26:12.000Z</time>
      </trkpt>
      <trkpt lat="48.39125" lon="2.39684">
        <ele>131.19999694824</ele>
        <time>2024-04-14T11:26:23.000Z</time>
      </trkpt>
      <trkpt lat="48.39124" lon="2.39682">
        <ele>131.60000610352</ele>
        <time>2024-04-14T11:26:31.000Z</time>
      </trkpt>
      <trkpt lat="48.39124" lon="2.39682">
        <ele>131.60000610352</ele>
        <time>2024-04-14T11:26:55.000Z</time>
      </trkpt>
      <trkpt lat="48.39124" lon="2.39682">
        <ele>131.60000610352</ele>
        <time>2024-04-14T11:27:16.000Z</time>
      </trkpt>
      <trkpt lat="48.39124" lon="2.39682">
        <ele>131.39999389648</ele>
        <time>2024-04-14T11:27:39.000Z</time>
      </trkpt>
      <trkpt lat="48.39124" lon="2.39681">
        <ele>131.39999389648</ele>
        <time>2024-04-14T11:28:02.000Z</time>
      </trkpt>
      <trkpt lat="48.39124" lon="2.39681">
        <ele>131.60000610352</ele>
        <time>2024-04-14T11:28:21.000Z</time>
      </trkpt>
      <trkpt lat="48.39124" lon="2.39681">
        <ele>131.39999389648</ele>
        <time>2024-04-14T11:28:36.000Z</time>
      </trkpt>
      <trkpt lat="48.39124" lon="2.39681">
        <ele>131.39999389648</ele>
        <time>2024-04-14T11:28:51.000Z</time>
      </trkpt>
      <trkpt lat="48.39124" lon="2.3968">
        <ele>131.60000610352</ele>
        <time>2024-04-14T11:29:06.000Z</time>
      </trkpt>
      <trkpt lat="48.39124" lon="2.3968">
        <ele>131.60000610352</ele>
        <time>2024-04-14T11:29:22.000Z</time>
      </trkpt>
      <trkpt lat="48.39124" lon="2.3968">
        <ele>131.60000610352</ele>
        <time>2024-04-14T11:29:36.000Z</time>
      </trkpt>
      <trkpt lat="48.39124" lon="2.3968">
        <ele>131.80000305176</ele>
        <time>2024-04-14T11:29:43.000Z</time>
      </trkpt>
      <trkpt lat="48.39124" lon="2.3968">
        <ele>131.80000305176</ele>
        <time>2024-04-14T11:29:52.000Z</time>
      </trkpt>
      <trkpt lat="48.39124" lon="2.3968">
        <ele>131.80000305176</ele>
        <time>2024-04-14T11:30:11.000Z</time>
      </trkpt>
      <trkpt lat="48.39124" lon="2.39679">
        <ele>131.80000305176</ele>
        <time>2024-04-14T11:30:28.000Z</time>
      </trkpt>
      <trkpt lat="48.39124" lon="2.39679">
        <ele>131.80000305176</ele>
        <time>2024-04-14T11:30:42.000Z</time>
      </trkpt>
      <trkpt lat="48.39124" lon="2.39679">
        <ele>131.80000305176</ele>
        <time>2024-04-14T11:30:57.000Z</time>
      </trkpt>
      <trkpt lat="48.39124" lon="2.39679">
        <ele>131.80000305176</ele>
        <time>2024-04-14T11:31:11.000Z</time>
      </trkpt>
      <trkpt lat="48.39124" lon="2.39679">
        <ele>131.80000305176</ele>
        <time>2024-04-14T11:31:27.000Z</time>
      </trkpt>
      <trkpt lat="48.39125" lon="2.39678">
        <ele>131.80000305176</ele>
        <time>2024-04-14T11:31:45.000Z</time>
      </trkpt>
      <trkpt lat="48.39125" lon="2.39678">
        <ele>132</ele>
        <time>2024-04-14T11:32:02.000Z</time>
      </trkpt>
      <trkpt lat="48.39125" lon="2.39678">
        <ele>132</ele>
        <time>2024-04-14T11:32:20.000Z</time>
      </trkpt>
      <trkpt lat="48.39125" lon="2.39676">
        <ele>132</ele>
        <time>2024-04-14T11:32:30.000Z</time>
      </trkpt>
      <trkpt lat="48.39125" lon="2.39676">
        <ele>132.19999694824</ele>
        <time>2024-04-14T11:32:40.000Z</time>
      </trkpt>
      <trkpt lat="48.39125" lon="2.39676">
        <ele>132.19999694824</ele>
        <time>2024-04-14T11:32:46.000Z</time>
      </trkpt>
      <trkpt lat="48.39121" lon="2.39674">
        <ele>132.19999694824</ele>
        <time>2024-04-14T11:32:48.000Z</time>
      </trkpt>
      <trkpt lat="48.39116" lon="2.39666">
        <ele>132.60000610352</ele>
        <time>2024-04-14T11:32:52.000Z</time>
      </trkpt>
      <trkpt lat="48.39116" lon="2.39663">
        <ele>132.39999389648</ele>
        <time>2024-04-14T11:32:53.000Z</time>
      </trkpt>
      <trkpt lat="48.39117" lon="2.39646">
        <ele>131.19999694824</ele>
        <time>2024-04-14T11:32:56.000Z</time>
      </trkpt>
      <trkpt lat="48.39117" lon="2.39637">
        <ele>130.60000610352</ele>
        <time>2024-04-14T11:32:57.000Z</time>
      </trkpt>
      <trkpt lat="48.39117" lon="2.39622">
        <ele>129.39999389648</ele>
        <time>2024-04-14T11:32:59.000Z</time>
      </trkpt>
      <trkpt lat="48.39117" lon="2.39612">
        <ele>129.60000610352</ele>
        <time>2024-04-14T11:33:01.000Z</time>
      </trkpt>
      <trkpt lat="48.39117" lon="2.39597">
        <ele>129.60000610352</ele>
        <time>2024-04-14T11:33:05.000Z</time>
      </trkpt>
      <trkpt lat="48.39108" lon="2.39581">
        <ele>128.39999389648</ele>
        <time>2024-04-14T11:33:10.000Z</time>
      </trkpt>
      <trkpt lat="48.39105" lon="2.3958">
        <ele>128.19999694824</ele>
        <time>2024-04-14T11:33:11.000Z</time>
      </trkpt>
      <trkpt lat="48.39095" lon="2.39574">
        <ele>128</ele>
        <time>2024-04-14T11:33:16.000Z</time>
      </trkpt>
      <trkpt lat="48.39089" lon="2.39562">
        <ele>127.19999694824</ele>
        <time>2024-04-14T11:33:20.000Z</time>
      </trkpt>
      <trkpt lat="48.39084" lon="2.39556">
        <ele>125.80000305176</ele>
        <time>2024-04-14T11:33:23.000Z</time>
      </trkpt>
      <trkpt lat="48.39082" lon="2.39554">
        <ele>124.40000152588</ele>
        <time>2024-04-14T11:33:24.000Z</time>
      </trkpt>
      <trkpt lat="48.3908" lon="2.39552">
        <ele>123.40000152588</ele>
        <time>2024-04-14T11:33:25.000Z</time>
      </trkpt>
      <trkpt lat="48.39077" lon="2.3955">
        <ele>122.80000305176</ele>
        <time>2024-04-14T11:33:26.000Z</time>
      </trkpt>
      <trkpt lat="48.39073" lon="2.39547">
        <ele>121.59999847412</ele>
        <time>2024-04-14T11:33:28.000Z</time>
      </trkpt>
      <trkpt lat="48.39067" lon="2.39544">
        <ele>120.59999847412</ele>
        <time>2024-04-14T11:33:30.000Z</time>
      </trkpt>
      <trkpt lat="48.39064" lon="2.39542">
        <ele>119.80000305176</ele>
        <time>2024-04-14T11:33:31.000Z</time>
      </trkpt>
      <trkpt lat="48.39059" lon="2.39539">
        <ele>117.59999847412</ele>
        <time>2024-04-14T11:33:33.000Z</time>
      </trkpt>
      <trkpt lat="48.39055" lon="2.39538">
        <ele>116.59999847412</ele>
        <time>2024-04-14T11:33:34.000Z</time>
      </trkpt>
      <trkpt lat="48.39052" lon="2.39536">
        <ele>115.40000152588</ele>
        <time>2024-04-14T11:33:35.000Z</time>
      </trkpt>
      <trkpt lat="48.3905" lon="2.39534">
        <ele>114.40000152588</ele>
        <time>2024-04-14T11:33:36.000Z</time>
      </trkpt>
      <trkpt lat="48.39047" lon="2.39532">
        <ele>113.19999694824</ele>
        <time>2024-04-14T11:33:37.000Z</time>
      </trkpt>
      <trkpt lat="48.39045" lon="2.3953">
        <ele>112.19999694824</ele>
        <time>2024-04-14T11:33:38.000Z</time>
      </trkpt>
      <trkpt lat="48.39044" lon="2.39526">
        <ele>111</ele>
        <time>2024-04-14T11:33:39.000Z</time>
      </trkpt>
      <trkpt lat="48.39043" lon="2.39521">
        <ele>110</ele>
        <time>2024-04-14T11:33:40.000Z</time>
      </trkpt>
      <trkpt lat="48.39043" lon="2.39517">
        <ele>109</ele>
        <time>2024-04-14T11:33:41.000Z</time>
      </trkpt>
      <trkpt lat="48.39042" lon="2.39514">
        <ele>108.59999847412</ele>
        <time>2024-04-14T11:33:42.000Z</time>
      </trkpt>
      <trkpt lat="48.39044" lon="2.39505">
        <ele>107.40000152588</ele>
        <time>2024-04-14T11:33:45.000Z</time>
      </trkpt>
      <trkpt lat="48.39046" lon="2.39503">
        <ele>106.40000152588</ele>
        <time>2024-04-14T11:33:46.000Z</time>
      </trkpt>
      <trkpt lat="48.39047" lon="2.39501">
        <ele>105.80000305176</ele>
        <time>2024-04-14T11:33:47.000Z</time>
      </trkpt>
      <trkpt lat="48.3905" lon="2.39496">
        <ele>104.59999847412</ele>
        <time>2024-04-14T11:33:49.000Z</time>
      </trkpt>
      <trkpt lat="48.39051" lon="2.39493">
        <ele>103.59999847412</ele>
        <time>2024-04-14T11:33:50.000Z</time>
      </trkpt>
      <trkpt lat="48.39053" lon="2.3949">
        <ele>102.59999847412</ele>
        <time>2024-04-14T11:33:51.000Z</time>
      </trkpt>
      <trkpt lat="48.39055" lon="2.39487">
        <ele>102</ele>
        <time>2024-04-14T11:33:52.000Z</time>
      </trkpt>
      <trkpt lat="48.39061" lon="2.39483">
        <ele>101.19999694824</ele>
        <time>2024-04-14T11:33:55.000Z</time>
      </trkpt>
      <trkpt lat="48.39063" lon="2.39482">
        <ele>100.80000305176</ele>
        <time>2024-04-14T11:33:56.000Z</time>
      </trkpt>
      <trkpt lat="48.39069" lon="2.39482">
        <ele>100.59999847412</ele>
        <time>2024-04-14T11:34:00.000Z</time>
      </trkpt>
      <trkpt lat="48.39082" lon="2.39483">
        <ele>100.40000152588</ele>
        <time>2024-04-14T11:34:06.000Z</time>
      </trkpt>
      <trkpt lat="48.39085" lon="2.39482">
        <ele>99.800003051758</ele>
        <time>2024-04-14T11:34:07.000Z</time>
      </trkpt>
      <trkpt lat="48.39088" lon="2.3948">
        <ele>98.599998474121</ele>
        <time>2024-04-14T11:34:08.000Z</time>
      </trkpt>
      <trkpt lat="48.39095" lon="2.39474">
        <ele>96.400001525879</ele>
        <time>2024-04-14T11:34:10.000Z</time>
      </trkpt>
      <trkpt lat="48.39102" lon="2.39465">
        <ele>95</ele>
        <time>2024-04-14T11:34:12.000Z</time>
      </trkpt>
      <trkpt lat="48.39112" lon="2.39462">
        <ele>94.199996948242</ele>
        <time>2024-04-14T11:34:14.000Z</time>
      </trkpt>
      <trkpt lat="48.3912" lon="2.39462">
        <ele>93.800003051758</ele>
        <time>2024-04-14T11:34:16.000Z</time>
      </trkpt>
      <trkpt lat="48.39123" lon="2.39462">
        <ele>93.800003051758</ele>
        <time>2024-04-14T11:34:17.000Z</time>
      </trkpt>
      <trkpt lat="48.39125" lon="2.39464">
        <ele>93.800003051758</ele>
        <time>2024-04-14T11:34:18.000Z</time>
      </trkpt>
      <trkpt lat="48.39142" lon="2.39475">
        <ele>94.400001525879</ele>
        <time>2024-04-14T11:34:25.000Z</time>
      </trkpt>
      <trkpt lat="48.39148" lon="2.39484">
        <ele>95</ele>
        <time>2024-04-14T11:34:28.000Z</time>
      </trkpt>
      <trkpt lat="48.39157" lon="2.39489">
        <ele>95.599998474121</ele>
        <time>2024-04-14T11:34:31.000Z</time>
      </trkpt>
      <trkpt lat="48.39166" lon="2.39492">
        <ele>95.400001525879</ele>
        <time>2024-04-14T11:34:34.000Z</time>
      </trkpt>
      <trkpt lat="48.39169" lon="2.39488">
        <ele>95.400001525879</ele>
        <time>2024-04-14T11:34:35.000Z</time>
      </trkpt>
      <trkpt lat="48.39171" lon="2.39468">
        <ele>93.800003051758</ele>
        <time>2024-04-14T11:34:38.000Z</time>
      </trkpt>
      <trkpt lat="48.39171" lon="2.39462">
        <ele>93.400001525879</ele>
        <time>2024-04-14T11:34:39.000Z</time>
      </trkpt>
      <trkpt lat="48.3917" lon="2.39448">
        <ele>92.400001525879</ele>
        <time>2024-04-14T11:34:41.000Z</time>
      </trkpt>
      <trkpt lat="48.39167" lon="2.39431">
        <ele>91.199996948242</ele>
        <time>2024-04-14T11:34:43.000Z</time>
      </trkpt>
      <trkpt lat="48.39165" lon="2.39412">
        <ele>89.599998474121</ele>
        <time>2024-04-14T11:34:45.000Z</time>
      </trkpt>
      <trkpt lat="48.3916" lon="2.39397">
        <ele>90</ele>
        <time>2024-04-14T11:34:47.000Z</time>
      </trkpt>
      <trkpt lat="48.39157" lon="2.39386">
        <ele>89.800003051758</ele>
        <time>2024-04-14T11:34:49.000Z</time>
      </trkpt>
      <trkpt lat="48.39154" lon="2.39364">
        <ele>89.199996948242</ele>
        <time>2024-04-14T11:34:52.000Z</time>
      </trkpt>
      <trkpt lat="48.39153" lon="2.39349">
        <ele>87.800003051758</ele>
        <time>2024-04-14T11:34:54.000Z</time>
      </trkpt>
      <trkpt lat="48.39148" lon="2.39334">
        <ele>86</ele>
        <time>2024-04-14T11:34:56.000Z</time>
      </trkpt>
      <trkpt lat="48.39146" lon="2.39326">
        <ele>85.199996948242</ele>
        <time>2024-04-14T11:34:57.000Z</time>
      </trkpt>
      <trkpt lat="48.39143" lon="2.39318">
        <ele>84.599998474121</ele>
        <time>2024-04-14T11:34:58.000Z</time>
      </trkpt>
      <trkpt lat="48.39138" lon="2.39301">
        <ele>83.599998474121</ele>
        <time>2024-04-14T11:35:00.000Z</time>
      </trkpt>
      <trkpt lat="48.39137" lon="2.39294">
        <ele>83.599998474121</ele>
        <time>2024-04-14T11:35:01.000Z</time>
      </trkpt>
      <trkpt lat="48.39139" lon="2.39273">
        <ele>84.199996948242</ele>
        <time>2024-04-14T11:35:05.000Z</time>
      </trkpt>
      <trkpt lat="48.39154" lon="2.39268">
        <ele>84.599998474121</ele>
        <time>2024-04-14T11:35:09.000Z</time>
      </trkpt>
      <trkpt lat="48.39172" lon="2.39281">
        <ele>84.400001525879</ele>
        <time>2024-04-14T11:35:14.000Z</time>
      </trkpt>
      <trkpt lat="48.39186" lon="2.39307">
        <ele>84.400001525879</ele>
        <time>2024-04-14T11:35:18.000Z</time>
      </trkpt>
      <trkpt lat="48.39191" lon="2.39322">
        <ele>84.400001525879</ele>
        <time>2024-04-14T11:35:20.000Z</time>
      </trkpt>
      <trkpt lat="48.39206" lon="2.3936">
        <ele>84</ele>
        <time>2024-04-14T11:35:25.000Z</time>
      </trkpt>
      <trkpt lat="48.39229" lon="2.39423">
        <ele>84.400001525879</ele>
        <time>2024-04-14T11:35:34.000Z</time>
      </trkpt>
      <trkpt lat="48.39251" lon="2.39483">
        <ele>84.599998474121</ele>
        <time>2024-04-14T11:35:43.000Z</time>
      </trkpt>
      <trkpt lat="48.39269" lon="2.39514">
        <ele>85.199996948242</ele>
        <time>2024-04-14T11:35:49.000Z</time>
      </trkpt>
      <trkpt lat="48.3928" lon="2.39525">
        <ele>85.199996948242</ele>
        <time>2024-04-14T11:35:52.000Z</time>
      </trkpt>
      <trkpt lat="48.3929" lon="2.39528">
        <ele>85</ele>
        <time>2024-04-14T11:35:55.000Z</time>
      </trkpt>
      <trkpt lat="48.39296" lon="2.39521">
        <ele>84.800003051758</ele>
        <time>2024-04-14T11:35:58.000Z</time>
      </trkpt>
      <trkpt lat="48.39299" lon="2.39521">
        <ele>84.599998474121</ele>
        <time>2024-04-14T11:36:02.000Z</time>
      </trkpt>
      <trkpt lat="48.39301" lon="2.39513">
        <ele>84.599998474121</ele>
        <time>2024-04-14T11:36:08.000Z</time>
      </trkpt>
      <trkpt lat="48.39301" lon="2.39509">
        <ele>84.400001525879</ele>
        <time>2024-04-14T11:36:09.000Z</time>
      </trkpt>
      <trkpt lat="48.39298" lon="2.39494">
        <ele>84.199996948242</ele>
        <time>2024-04-14T11:36:12.000Z</time>
      </trkpt>
      <trkpt lat="48.39287" lon="2.39454">
        <ele>84.199996948242</ele>
        <time>2024-04-14T11:36:18.000Z</time>
      </trkpt>
      <trkpt lat="48.39272" lon="2.394">
        <ele>84.199996948242</ele>
        <time>2024-04-14T11:36:25.000Z</time>
      </trkpt>
      <trkpt lat="48.39257" lon="2.39342">
        <ele>83.599998474121</ele>
        <time>2024-04-14T11:36:32.000Z</time>
      </trkpt>
      <trkpt lat="48.39253" lon="2.39304">
        <ele>83.400001525879</ele>
        <time>2024-04-14T11:36:36.000Z</time>
      </trkpt>
      <trkpt lat="48.39251" lon="2.39285">
        <ele>82.800003051758</ele>
        <time>2024-04-14T11:36:38.000Z</time>
      </trkpt>
      <trkpt lat="48.39247" lon="2.39208">
        <ele>82.800003051758</ele>
        <time>2024-04-14T11:36:46.000Z</time>
      </trkpt>
      <trkpt lat="48.39251" lon="2.39139">
        <ele>82.599998474121</ele>
        <time>2024-04-14T11:36:53.000Z</time>
      </trkpt>
      <trkpt lat="48.39267" lon="2.39052">
        <ele>82.599998474121</ele>
        <time>2024-04-14T11:37:02.000Z</time>
      </trkpt>
      <trkpt lat="48.39276" lon="2.39001">
        <ele>82.400001525879</ele>
        <time>2024-04-14T11:37:07.000Z</time>
      </trkpt>
      <trkpt lat="48.39281" lon="2.38969">
        <ele>82.400001525879</ele>
        <time>2024-04-14T11:37:10.000Z</time>
      </trkpt>
      <trkpt lat="48.39297" lon="2.38892">
        <ele>82.400001525879</ele>
        <time>2024-04-14T11:37:17.000Z</time>
      </trkpt>
      <trkpt lat="48.39314" lon="2.38807">
        <ele>82.400001525879</ele>
        <time>2024-04-14T11:37:25.000Z</time>
      </trkpt>
      <trkpt lat="48.3933" lon="2.38725">
        <ele>82.599998474121</ele>
        <time>2024-04-14T11:37:33.000Z</time>
      </trkpt>
      <trkpt lat="48.39343" lon="2.38675">
        <ele>82.599998474121</ele>
        <time>2024-04-14T11:37:38.000Z</time>
      </trkpt>
      <trkpt lat="48.39367" lon="2.38594">
        <ele>82.599998474121</ele>
        <time>2024-04-14T11:37:46.000Z</time>
      </trkpt>
      <trkpt lat="48.39394" lon="2.38522">
        <ele>82.599998474121</ele>
        <time>2024-04-14T11:37:53.000Z</time>
      </trkpt>
      <trkpt lat="48.3942" lon="2.38461">
        <ele>82.800003051758</ele>
        <time>2024-04-14T11:37:59.000Z</time>
      </trkpt>
      <trkpt lat="48.39426" lon="2.38439">
        <ele>83</ele>
        <time>2024-04-14T11:38:01.000Z</time>
      </trkpt>
      <trkpt lat="48.39432" lon="2.38391">
        <ele>82.800003051758</ele>
        <time>2024-04-14T11:38:05.000Z</time>
      </trkpt>
      <trkpt lat="48.39437" lon="2.38306">
        <ele>82.599998474121</ele>
        <time>2024-04-14T11:38:12.000Z</time>
      </trkpt>
      <trkpt lat="48.39437" lon="2.38294">
        <ele>82</ele>
        <time>2024-04-14T11:38:13.000Z</time>
      </trkpt>
      <trkpt lat="48.39434" lon="2.38206">
        <ele>82</ele>
        <time>2024-04-14T11:38:20.000Z</time>
      </trkpt>
      <trkpt lat="48.39432" lon="2.38182">
        <ele>82.599998474121</ele>
        <time>2024-04-14T11:38:22.000Z</time>
      </trkpt>
      <trkpt lat="48.39424" lon="2.38107">
        <ele>82.800003051758</ele>
        <time>2024-04-14T11:38:29.000Z</time>
      </trkpt>
      <trkpt lat="48.39423" lon="2.38091">
        <ele>83.199996948242</ele>
        <time>2024-04-14T11:38:31.000Z</time>
      </trkpt>
      <trkpt lat="48.3942" lon="2.38082">
        <ele>83.400001525879</ele>
        <time>2024-04-14T11:38:33.000Z</time>
      </trkpt>
      <trkpt lat="48.39419" lon="2.38084">
        <ele>83.400001525879</ele>
        <time>2024-04-14T11:38:34.000Z</time>
      </trkpt>
      <trkpt lat="48.39418" lon="2.38087">
        <ele>83.400001525879</ele>
        <time>2024-04-14T11:38:35.000Z</time>
      </trkpt>
      <trkpt lat="48.39414" lon="2.38088">
        <ele>83.199996948242</ele>
        <time>2024-04-14T11:38:37.000Z</time>
      </trkpt>
      <trkpt lat="48.39409" lon="2.38082">
        <ele>83.199996948242</ele>
        <time>2024-04-14T11:38:39.000Z</time>
      </trkpt>
      <trkpt lat="48.39406" lon="2.38073">
        <ele>83.199996948242</ele>
        <time>2024-04-14T11:38:41.000Z</time>
      </trkpt>
      <trkpt lat="48.39397" lon="2.38063">
        <ele>83.199996948242</ele>
        <time>2024-04-14T11:38:44.000Z</time>
      </trkpt>
      <trkpt lat="48.3939" lon="2.38057">
        <ele>83.400001525879</ele>
        <time>2024-04-14T11:38:46.000Z</time>
      </trkpt>
      <trkpt lat="48.39386" lon="2.38054">
        <ele>83.599998474121</ele>
        <time>2024-04-14T11:38:47.000Z</time>
      </trkpt>
      <trkpt lat="48.39377" lon="2.38049">
        <ele>83.599998474121</ele>
        <time>2024-04-14T11:38:49.000Z</time>
      </trkpt>
      <trkpt lat="48.3936" lon="2.38036">
        <ele>83.599998474121</ele>
        <time>2024-04-14T11:38:53.000Z</time>
      </trkpt>
      <trkpt lat="48.39351" lon="2.38029">
        <ele>83.800003051758</ele>
        <time>2024-04-14T11:38:55.000Z</time>
      </trkpt>
      <trkpt lat="48.39324" lon="2.38008">
        <ele>84</ele>
        <time>2024-04-14T11:39:01.000Z</time>
      </trkpt>
      <trkpt lat="48.39321" lon="2.38006">
        <ele>84</ele>
        <time>2024-04-14T11:39:02.000Z</time>
      </trkpt>
      <trkpt lat="48.39317" lon="2.38008">
        <ele>84.400001525879</ele>
        <time>2024-04-14T11:39:05.000Z</time>
      </trkpt>
      <trkpt lat="48.39314" lon="2.38004">
        <ele>84.599998474121</ele>
        <time>2024-04-14T11:39:09.000Z</time>
      </trkpt>
      <trkpt lat="48.39313" lon="2.38001">
        <ele>84.599998474121</ele>
        <time>2024-04-14T11:39:10.000Z</time>
      </trkpt>
      <trkpt lat="48.39314" lon="2.37981">
        <ele>84.599998474121</ele>
        <time>2024-04-14T11:39:14.000Z</time>
      </trkpt>
      <trkpt lat="48.39318" lon="2.37935">
        <ele>84.800003051758</ele>
        <time>2024-04-14T11:39:21.000Z</time>
      </trkpt>
      <trkpt lat="48.39329" lon="2.37869">
        <ele>85.599998474121</ele>
        <time>2024-04-14T11:39:30.000Z</time>
      </trkpt>
      <trkpt lat="48.3933" lon="2.37855">
        <ele>86</ele>
        <time>2024-04-14T11:39:32.000Z</time>
      </trkpt>
      <trkpt lat="48.39326" lon="2.37844">
        <ele>86.199996948242</ele>
        <time>2024-04-14T11:39:34.000Z</time>
      </trkpt>
      <trkpt lat="48.39312" lon="2.37843">
        <ele>86.199996948242</ele>
        <time>2024-04-14T11:39:37.000Z</time>
      </trkpt>
      <trkpt lat="48.39269" lon="2.37846">
        <ele>85.599998474121</ele>
        <time>2024-04-14T11:39:44.000Z</time>
      </trkpt>
      <trkpt lat="48.39214" lon="2.37847">
        <ele>85.199996948242</ele>
        <time>2024-04-14T11:39:53.000Z</time>
      </trkpt>
      <trkpt lat="48.39169" lon="2.37849">
        <ele>85.199996948242</ele>
        <time>2024-04-14T11:40:01.000Z</time>
      </trkpt>
      <trkpt lat="48.39149" lon="2.37848">
        <ele>86.599998474121</ele>
        <time>2024-04-14T11:40:06.000Z</time>
      </trkpt>
      <trkpt lat="48.39143" lon="2.37846">
        <ele>86.800003051758</ele>
        <time>2024-04-14T11:40:09.000Z</time>
      </trkpt>
      <trkpt lat="48.39143" lon="2.37847">
        <ele>87</ele>
        <time>2024-04-14T11:40:10.000Z</time>
      </trkpt>
      <trkpt lat="48.39144" lon="2.37845">
        <ele>87</ele>
        <time>2024-04-14T11:40:15.000Z</time>
      </trkpt>
      <trkpt lat="48.39144" lon="2.37844">
        <ele>87</ele>
        <time>2024-04-14T11:40:23.000Z</time>
      </trkpt>
      <trkpt lat="48.39143" lon="2.37844">
        <ele>87</ele>
        <time>2024-04-14T11:40:32.000Z</time>
      </trkpt>
      <trkpt lat="48.39141" lon="2.37845">
        <ele>87</ele>
        <time>2024-04-14T11:40:34.000Z</time>
      </trkpt>
      <trkpt lat="48.39136" lon="2.37846">
        <ele>87.199996948242</ele>
        <time>2024-04-14T11:40:36.000Z</time>
      </trkpt>
      <trkpt lat="48.39121" lon="2.37843">
        <ele>88</ele>
        <time>2024-04-14T11:40:41.000Z</time>
      </trkpt>
      <trkpt lat="48.39116" lon="2.37846">
        <ele>88.599998474121</ele>
        <time>2024-04-14T11:40:45.000Z</time>
      </trkpt>
      <trkpt lat="48.39114" lon="2.3785">
        <ele>88.400001525879</ele>
        <time>2024-04-14T11:40:46.000Z</time>
      </trkpt>
      <trkpt lat="48.39105" lon="2.37866">
        <ele>88.800003051758</ele>
        <time>2024-04-14T11:40:49.000Z</time>
      </trkpt>
      <trkpt lat="48.3908" lon="2.37898">
        <ele>88.599998474121</ele>
        <time>2024-04-14T11:40:55.000Z</time>
      </trkpt>
      <trkpt lat="48.39038" lon="2.37931">
        <ele>87.400001525879</ele>
        <time>2024-04-14T11:41:02.000Z</time>
      </trkpt>
      <trkpt lat="48.39006" lon="2.37953">
        <ele>86.800003051758</ele>
        <time>2024-04-14T11:41:07.000Z</time>
      </trkpt>
      <trkpt lat="48.38999" lon="2.37956">
        <ele>86.599998474121</ele>
        <time>2024-04-14T11:41:08.000Z</time>
      </trkpt>
      <trkpt lat="48.38991" lon="2.37959">
        <ele>86.199996948242</ele>
        <time>2024-04-14T11:41:09.000Z</time>
      </trkpt>
      <trkpt lat="48.38967" lon="2.37959">
        <ele>86</ele>
        <time>2024-04-14T11:41:12.000Z</time>
      </trkpt>
      <trkpt lat="48.38959" lon="2.37958">
        <ele>86</ele>
        <time>2024-04-14T11:41:13.000Z</time>
      </trkpt>
      <trkpt lat="48.38951" lon="2.37956">
        <ele>85.599998474121</ele>
        <time>2024-04-14T11:41:14.000Z</time>
      </trkpt>
      <trkpt lat="48.38943" lon="2.37954">
        <ele>85.599998474121</ele>
        <time>2024-04-14T11:41:15.000Z</time>
      </trkpt>
      <trkpt lat="48.38929" lon="2.37945">
        <ele>85.800003051758</ele>
        <time>2024-04-14T11:41:17.000Z</time>
      </trkpt>
      <trkpt lat="48.38909" lon="2.37926">
        <ele>85.599998474121</ele>
        <time>2024-04-14T11:41:20.000Z</time>
      </trkpt>
      <trkpt lat="48.38897" lon="2.37911">
        <ele>85.800003051758</ele>
        <time>2024-04-14T11:41:22.000Z</time>
      </trkpt>
      <trkpt lat="48.38864" lon="2.3787">
        <ele>86</ele>
        <time>2024-04-14T11:41:28.000Z</time>
      </trkpt>
      <trkpt lat="48.38858" lon="2.37865">
        <ele>86</ele>
        <time>2024-04-14T11:41:29.000Z</time>
      </trkpt>
      <trkpt lat="48.38838" lon="2.37856">
        <ele>85.800003051758</ele>
        <time>2024-04-14T11:41:32.000Z</time>
      </trkpt>
      <trkpt lat="48.38815" lon="2.37853">
        <ele>85.800003051758</ele>
        <time>2024-04-14T11:41:35.000Z</time>
      </trkpt>
      <trkpt lat="48.38801" lon="2.3785">
        <ele>85.599998474121</ele>
        <time>2024-04-14T11:41:37.000Z</time>
      </trkpt>
      <trkpt lat="48.38757" lon="2.37852">
        <ele>86</ele>
        <time>2024-04-14T11:41:43.000Z</time>
      </trkpt>
      <trkpt lat="48.38706" lon="2.37863">
        <ele>85.599998474121</ele>
        <time>2024-04-14T11:41:50.000Z</time>
      </trkpt>
      <trkpt lat="48.3865" lon="2.37876">
        <ele>86</ele>
        <time>2024-04-14T11:41:58.000Z</time>
      </trkpt>
      <trkpt lat="48.38597" lon="2.3788">
        <ele>86.599998474121</ele>
        <time>2024-04-14T11:42:06.000Z</time>
      </trkpt>
      <trkpt lat="48.38584" lon="2.37879">
        <ele>87</ele>
        <time>2024-04-14T11:42:08.000Z</time>
      </trkpt>
      <trkpt lat="48.38561" lon="2.37878">
        <ele>87.199996948242</ele>
        <time>2024-04-14T11:42:12.000Z</time>
      </trkpt>
      <trkpt lat="48.38555" lon="2.37878">
        <ele>87.400001525879</ele>
        <time>2024-04-14T11:42:13.000Z</time>
      </trkpt>
      <trkpt lat="48.38549" lon="2.37877">
        <ele>87.400001525879</ele>
        <time>2024-04-14T11:42:14.000Z</time>
      </trkpt>
      <trkpt lat="48.38523" lon="2.37875">
        <ele>87.199996948242</ele>
        <time>2024-04-14T11:42:18.000Z</time>
      </trkpt>
      <trkpt lat="48.38469" lon="2.37875">
        <ele>86</ele>
        <time>2024-04-14T11:42:26.000Z</time>
      </trkpt>
      <trkpt lat="48.38431" lon="2.37875">
        <ele>86.599998474121</ele>
        <time>2024-04-14T11:42:32.000Z</time>
      </trkpt>
      <trkpt lat="48.38388" lon="2.37868">
        <ele>86.599998474121</ele>
        <time>2024-04-14T11:42:39.000Z</time>
      </trkpt>
      <trkpt lat="48.38353" lon="2.37859">
        <ele>86.400001525879</ele>
        <time>2024-04-14T11:42:45.000Z</time>
      </trkpt>
    </trkseg>
  </trk>
</gpx>